<?xml version='1.0' encoding='UTF-8'?><gpx version="1.1" creator="JPX - https://github.com/jenetics/jpx" xmlns="http://www.topografix.com/GPX/1/1"><trk><trkseg><trkpt lat="39.43926884955793" lon="9.542162950509287"><ele>15.0</ele><time>2026-04-18T07:01:16.301Z</time></trkpt><trkpt lat="39.43924202166831" lon="9.542082362205711"><ele>15.0</ele><time>2026-04-18T07:02:23Z</time></trkpt><trkpt lat="39.439248629214205" lon="9.542000311033071"><ele>15.0</ele><time>2026-04-18T07:04:08Z</time></trkpt><trkpt lat="39.439260812337295" lon="9.541907787044005"><ele>15.0</ele><time>2026-04-18T07:04:10Z</time></trkpt><trkpt lat="39.43925704350748" lon="9.541785678529992"><ele>15.0</ele><time>2026-04-18T07:04:12Z</time></trkpt><trkpt lat="39.43925331806775" lon="9.541643544121193"><ele>15.0</ele><time>2026-04-18T07:04:14Z</time></trkpt><trkpt lat="39.439251923396355" lon="9.541503910895356"><ele>15.0</ele><time>2026-04-18T07:04:16Z</time></trkpt><trkpt lat="39.43924712797606" lon="9.541346345613128"><ele>15.0</ele><time>2026-04-18T07:04:18Z</time></trkpt><trkpt lat="39.439242476621594" lon="9.541258428849098"><ele>15.0</ele><time>2026-04-18T07:04:19Z</time></trkpt><trkpt lat="39.439244028735594" lon="9.541107259633458"><ele>15.0</ele><time>2026-04-18T07:04:21Z</time></trkpt><trkpt lat="39.43925185861328" lon="9.541026227619579"><ele>15.0</ele><time>2026-04-18T07:04:23Z</time></trkpt><trkpt lat="39.43932534849968" lon="9.541030119257746"><ele>15.0</ele><time>2026-04-18T07:04:26Z</time></trkpt><trkpt lat="39.43940761452399" lon="9.541052002363559"><ele>15.0</ele><time>2026-04-18T07:04:28Z</time></trkpt><trkpt lat="39.439514347422616" lon="9.541041016882671"><ele>15.0</ele><time>2026-04-18T07:04:30Z</time></trkpt><trkpt lat="39.43958147216496" lon="9.541032866324993"><ele>15.0</ele><time>2026-04-18T07:04:31Z</time></trkpt><trkpt lat="39.43964905118435" lon="9.541031137813238"><ele>15.0</ele><time>2026-04-18T07:04:32Z</time></trkpt><trkpt lat="39.439712605412254" lon="9.54103871766927"><ele>15.0</ele><time>2026-04-18T07:04:33Z</time></trkpt><trkpt lat="39.43977597217547" lon="9.541029500749643"><ele>15.0</ele><time>2026-04-18T07:04:34Z</time></trkpt><trkpt lat="39.43984337387247" lon="9.541034796655593"><ele>15.0</ele><time>2026-04-18T07:04:35Z</time></trkpt><trkpt lat="39.439909035189494" lon="9.541051678329792"><ele>15.0</ele><time>2026-04-18T07:04:36Z</time></trkpt><trkpt lat="39.440025565469355" lon="9.541093988574296"><ele>15.0</ele><time>2026-04-18T07:04:38Z</time></trkpt><trkpt lat="39.44013206186715" lon="9.541163709213567"><ele>15.0</ele><time>2026-04-18T07:04:40Z</time></trkpt><trkpt lat="39.440237161666715" lon="9.541213061547769"><ele>15.0</ele><time>2026-04-18T07:04:42Z</time></trkpt><trkpt lat="39.440303149041846" lon="9.54124445798804"><ele>15.0</ele><time>2026-04-18T07:04:43Z</time></trkpt><trkpt lat="39.440378734362014" lon="9.541260578184291"><ele>15.0</ele><time>2026-04-18T07:04:44Z</time></trkpt><trkpt lat="39.44045483457943" lon="9.541304537331563"><ele>15.0</ele><time>2026-04-18T07:04:45Z</time></trkpt><trkpt lat="39.440527132034525" lon="9.541338271043593"><ele>15.0</ele><time>2026-04-18T07:04:46Z</time></trkpt><trkpt lat="39.44058963507888" lon="9.54137633133247"><ele>15.0</ele><time>2026-04-18T07:04:47Z</time></trkpt><trkpt lat="39.44068175232177" lon="9.541425602150717"><ele>15.0</ele><time>2026-04-18T07:04:49Z</time></trkpt><trkpt lat="39.44061718234675" lon="9.541591784961993"><ele>15.0</ele><time>2026-04-18T07:04:54Z</time></trkpt><trkpt lat="39.440509361890975" lon="9.541677341698291"><ele>15.0</ele><time>2026-04-18T07:04:56Z</time></trkpt><trkpt lat="39.44044903276658" lon="9.541735825257176"><ele>15.0</ele><time>2026-04-18T07:04:57Z</time></trkpt><trkpt lat="39.44038716996237" lon="9.541802114942561"><ele>15.0</ele><time>2026-04-18T07:04:58Z</time></trkpt><trkpt lat="39.44033458509488" lon="9.541874093740518"><ele>15.0</ele><time>2026-04-18T07:04:59Z</time></trkpt><trkpt lat="39.44031103030696" lon="9.541958706587648"><ele>15.0</ele><time>2026-04-18T07:05:00Z</time></trkpt><trkpt lat="39.4402964577347" lon="9.542106658015646"><ele>15.0</ele><time>2026-04-18T07:05:02Z</time></trkpt><trkpt lat="39.440276770739935" lon="9.542206794578782"><ele>15.0</ele><time>2026-04-18T07:05:04Z</time></trkpt><trkpt lat="39.440260107571966" lon="9.542298951548503"><ele>15.0</ele><time>2026-04-18T07:05:08Z</time></trkpt><trkpt lat="39.44040941406887" lon="9.54237351157872"><ele>15.0</ele><time>2026-04-18T07:05:10Z</time></trkpt><trkpt lat="39.44047663884893" lon="9.542402592782581"><ele>15.0</ele><time>2026-04-18T07:05:11Z</time></trkpt><trkpt lat="39.44054889663107" lon="9.542436069140305"><ele>15.0</ele><time>2026-04-18T07:05:12Z</time></trkpt><trkpt lat="39.440627026630295" lon="9.542474246728087"><ele>15.0</ele><time>2026-04-18T07:05:13Z</time></trkpt><trkpt lat="39.44070175669239" lon="9.542512115417926"><ele>15.0</ele><time>2026-04-18T07:05:14Z</time></trkpt><trkpt lat="39.44077279491124" lon="9.542551735346175"><ele>15.0</ele><time>2026-04-18T07:05:15Z</time></trkpt><trkpt lat="39.440849768019675" lon="9.542597072836429"><ele>15.0</ele><time>2026-04-18T07:05:16Z</time></trkpt><trkpt lat="39.44093130873361" lon="9.542641987814818"><ele>15.0</ele><time>2026-04-18T07:05:17Z</time></trkpt><trkpt lat="39.44101771908576" lon="9.542688129008072"><ele>15.0</ele><time>2026-04-18T07:05:18Z</time></trkpt><trkpt lat="39.44110655135983" lon="9.54273881223824"><ele>15.0</ele><time>2026-04-18T07:05:19Z</time></trkpt><trkpt lat="39.44119349700954" lon="9.542791169400617"><ele>15.0</ele><time>2026-04-18T07:05:20Z</time></trkpt><trkpt lat="39.44128184847434" lon="9.542838289471717"><ele>15.0</ele><time>2026-04-18T07:05:21Z</time></trkpt><trkpt lat="39.441368724328456" lon="9.542881726574182"><ele>15.0</ele><time>2026-04-18T07:05:22Z</time></trkpt><trkpt lat="39.44145293631902" lon="9.542928551095601"><ele>14.833333333333334</ele><time>2026-04-18T07:05:23Z</time></trkpt><trkpt lat="39.441534155537305" lon="9.542967093226006"><ele>14.666666666666668</ele><time>2026-04-18T07:05:24Z</time></trkpt><trkpt lat="39.44161881472614" lon="9.542976114466097"><ele>14.5</ele><time>2026-04-18T07:05:25Z</time></trkpt><trkpt lat="39.44170352085612" lon="9.542936854921527"><ele>14.333333333333334</ele><time>2026-04-18T07:05:26Z</time></trkpt><trkpt lat="39.44178120095344" lon="9.542865305651105"><ele>14.166666666666668</ele><time>2026-04-18T07:05:27Z</time></trkpt><trkpt lat="39.441863570087605" lon="9.5428250282745"><ele>14.0</ele><time>2026-04-18T07:05:28Z</time></trkpt><trkpt lat="39.44194286999098" lon="9.54277211009774"><ele>14.333333333333334</ele><time>2026-04-18T07:05:29Z</time></trkpt><trkpt lat="39.44201424141593" lon="9.542726393870117"><ele>14.666666666666668</ele><time>2026-04-18T07:05:30Z</time></trkpt><trkpt lat="39.442083658672466" lon="9.542684370936787"><ele>15.0</ele><time>2026-04-18T07:05:31Z</time></trkpt><trkpt lat="39.44215400505168" lon="9.54263404952319"><ele>15.333333333333332</ele><time>2026-04-18T07:05:32Z</time></trkpt><trkpt lat="39.44221962286831" lon="9.54258368499975"><ele>15.666666666666666</ele><time>2026-04-18T07:05:33Z</time></trkpt><trkpt lat="39.442252618490954" lon="9.542460415615913"><ele>16.0</ele><time>2026-04-18T07:05:34Z</time></trkpt><trkpt lat="39.44232187477193" lon="9.542392798957971"><ele>16.166666666666664</ele><time>2026-04-18T07:05:35Z</time></trkpt><trkpt lat="39.442393098375305" lon="9.542328184052952"><ele>16.333333333333332</ele><time>2026-04-18T07:05:36Z</time></trkpt><trkpt lat="39.44248016283889" lon="9.54231033072155"><ele>16.5</ele><time>2026-04-18T07:05:37Z</time></trkpt><trkpt lat="39.44255920763941" lon="9.542267176100722"><ele>16.666666666666668</ele><time>2026-04-18T07:05:38Z</time></trkpt><trkpt lat="39.442641336250276" lon="9.54221742675717"><ele>16.833333333333336</ele><time>2026-04-18T07:05:39Z</time></trkpt><trkpt lat="39.44271839971667" lon="9.542161326701084"><ele>17.0</ele><time>2026-04-18T07:05:40Z</time></trkpt><trkpt lat="39.442799417331834" lon="9.542105281497362"><ele>17.0</ele><time>2026-04-18T07:05:41Z</time></trkpt><trkpt lat="39.442868412554624" lon="9.542030491889175"><ele>17.0</ele><time>2026-04-18T07:05:42Z</time></trkpt><trkpt lat="39.442958187205356" lon="9.541990230917232"><ele>17.0</ele><time>2026-04-18T07:05:43Z</time></trkpt><trkpt lat="39.44304146686955" lon="9.541931119762788"><ele>17.0</ele><time>2026-04-18T07:05:44Z</time></trkpt><trkpt lat="39.44312132984828" lon="9.541871539451659"><ele>17.0</ele><time>2026-04-18T07:05:45Z</time></trkpt><trkpt lat="39.44319768279784" lon="9.54182219124788"><ele>17.166666666666668</ele><time>2026-04-18T07:05:46Z</time></trkpt><trkpt lat="39.44327337354272" lon="9.541787530784607"><ele>17.333333333333336</ele><time>2026-04-18T07:05:47Z</time></trkpt><trkpt lat="39.44335188326374" lon="9.541750478760974"><ele>17.5</ele><time>2026-04-18T07:05:48Z</time></trkpt><trkpt lat="39.443425984925675" lon="9.541716114582062"><ele>17.666666666666668</ele><time>2026-04-18T07:05:49Z</time></trkpt><trkpt lat="39.44350726372354" lon="9.541678422054982"><ele>17.833333333333332</ele><time>2026-04-18T07:05:50Z</time></trkpt><trkpt lat="39.44359296935594" lon="9.541636664597526"><ele>18.0</ele><time>2026-04-18T07:05:51Z</time></trkpt><trkpt lat="39.44367698380672" lon="9.54159516416105"><ele>18.0</ele><time>2026-04-18T07:05:52Z</time></trkpt><trkpt lat="39.443762148944565" lon="9.541547040102458"><ele>18.0</ele><time>2026-04-18T07:05:53Z</time></trkpt><trkpt lat="39.44384821397774" lon="9.541494600307429"><ele>18.0</ele><time>2026-04-18T07:05:54Z</time></trkpt><trkpt lat="39.44393456803004" lon="9.541436160207567"><ele>18.0</ele><time>2026-04-18T07:05:55Z</time></trkpt><trkpt lat="39.44401900321612" lon="9.541380936534615"><ele>18.0</ele><time>2026-04-18T07:05:56Z</time></trkpt><trkpt lat="39.444103486845364" lon="9.541325808453701"><ele>17.4</ele><time>2026-04-18T07:05:57Z</time></trkpt><trkpt lat="39.444187124927595" lon="9.541269548586051"><ele>16.8</ele><time>2026-04-18T07:05:58Z</time></trkpt><trkpt lat="39.444267182181406" lon="9.541206773127104"><ele>16.2</ele><time>2026-04-18T07:05:59Z</time></trkpt><trkpt lat="39.444334732678534" lon="9.541120930715756"><ele>15.6</ele><time>2026-04-18T07:06:00Z</time></trkpt><trkpt lat="39.44439140012488" lon="9.5410437315865"><ele>15.0</ele><time>2026-04-18T07:06:01Z</time></trkpt><trkpt lat="39.44442123562522" lon="9.540910866189025"><ele>15.0</ele><time>2026-04-18T07:06:02Z</time></trkpt><trkpt lat="39.4444606882027" lon="9.54081286240007"><ele>15.0</ele><time>2026-04-18T07:06:03Z</time></trkpt><trkpt lat="39.444503921937994" lon="9.540705465867177"><ele>15.0</ele><time>2026-04-18T07:06:04Z</time></trkpt><trkpt lat="39.44455971326051" lon="9.540626972271184"><ele>15.0</ele><time>2026-04-18T07:06:05Z</time></trkpt><trkpt lat="39.4446199959005" lon="9.540540685767436"><ele>15.0</ele><time>2026-04-18T07:06:06Z</time></trkpt><trkpt lat="39.4446839441258" lon="9.54046826229741"><ele>15.0</ele><time>2026-04-18T07:06:07Z</time></trkpt><trkpt lat="39.444743644267184" lon="9.540392301057597"><ele>15.428571428571429</ele><time>2026-04-18T07:06:08Z</time></trkpt><trkpt lat="39.44480345041299" lon="9.540319465585126"><ele>15.857142857142858</ele><time>2026-04-18T07:06:09Z</time></trkpt><trkpt lat="39.44486128361434" lon="9.540258923081252"><ele>16.285714285714285</ele><time>2026-04-18T07:06:10Z</time></trkpt><trkpt lat="39.44492742865337" lon="9.540222845745996"><ele>16.714285714285715</ele><time>2026-04-18T07:06:11Z</time></trkpt><trkpt lat="39.4449954543876" lon="9.540229090380866"><ele>17.142857142857142</ele><time>2026-04-18T07:06:12Z</time></trkpt><trkpt lat="39.44505972085631" lon="9.54023918880817"><ele>17.571428571428573</ele><time>2026-04-18T07:06:13Z</time></trkpt><trkpt lat="39.445127351673065" lon="9.540248835538375"><ele>18.0</ele><time>2026-04-18T07:06:14Z</time></trkpt><trkpt lat="39.44523624223854" lon="9.54026312261866"><ele>18.0</ele><time>2026-04-18T07:06:16Z</time></trkpt><trkpt lat="39.445328338467135" lon="9.54028205542393"><ele>18.0</ele><time>2026-04-18T07:06:18Z</time></trkpt><trkpt lat="39.44543341949705" lon="9.540299700608868"><ele>18.0</ele><time>2026-04-18T07:06:20Z</time></trkpt><trkpt lat="39.44554485986562" lon="9.540314381191617"><ele>18.0</ele><time>2026-04-18T07:06:22Z</time></trkpt><trkpt lat="39.44566083362138" lon="9.540330427120187"><ele>18.0</ele><time>2026-04-18T07:06:24Z</time></trkpt><trkpt lat="39.4457820687136" lon="9.540348373313252"><ele>18.0</ele><time>2026-04-18T07:06:26Z</time></trkpt><trkpt lat="39.44585986331222" lon="9.54037194445487"><ele>18.0</ele><time>2026-04-18T07:06:27Z</time></trkpt><trkpt lat="39.44593129373256" lon="9.540394489742312"><ele>18.0</ele><time>2026-04-18T07:06:28Z</time></trkpt><trkpt lat="39.4460172923952" lon="9.54042388606828"><ele>18.0</ele><time>2026-04-18T07:06:29Z</time></trkpt><trkpt lat="39.44610329451345" lon="9.540460733257094"><ele>18.0</ele><time>2026-04-18T07:06:30Z</time></trkpt><trkpt lat="39.44619926978127" lon="9.54049817874166"><ele>18.0</ele><time>2026-04-18T07:06:31Z</time></trkpt><trkpt lat="39.44628667877406" lon="9.540530335302641"><ele>17.2</ele><time>2026-04-18T07:06:32Z</time></trkpt><trkpt lat="39.44637526676546" lon="9.540563092082868"><ele>16.4</ele><time>2026-04-18T07:06:33Z</time></trkpt><trkpt lat="39.44646585656377" lon="9.540595483571344"><ele>15.599999999999998</ele><time>2026-04-18T07:06:34Z</time></trkpt><trkpt lat="39.44655889961521" lon="9.540620804835717"><ele>14.799999999999999</ele><time>2026-04-18T07:06:35Z</time></trkpt><trkpt lat="39.446649959057616" lon="9.540634682244882"><ele>14.0</ele><time>2026-04-18T07:06:36Z</time></trkpt><trkpt lat="39.44673188134433" lon="9.5406414377561"><ele>14.000000000000002</ele><time>2026-04-18T07:06:37Z</time></trkpt><trkpt lat="39.446815537496654" lon="9.540644053306714"><ele>14.0</ele><time>2026-04-18T07:06:38Z</time></trkpt><trkpt lat="39.44689151182879" lon="9.540644361609644"><ele>14.0</ele><time>2026-04-18T07:06:39Z</time></trkpt><trkpt lat="39.44696677036939" lon="9.540643432065579"><ele>14.0</ele><time>2026-04-18T07:06:40Z</time></trkpt><trkpt lat="39.4470418166807" lon="9.540642505144625"><ele>14.000000000000002</ele><time>2026-04-18T07:06:41Z</time></trkpt><trkpt lat="39.44711582967718" lon="9.540639967694858"><ele>14.0</ele><time>2026-04-18T07:06:42Z</time></trkpt><trkpt lat="39.4471895049033" lon="9.540636584325705"><ele>14.333333333333334</ele><time>2026-04-18T07:06:43Z</time></trkpt><trkpt lat="39.447265310083466" lon="9.540633103144735"><ele>14.666666666666668</ele><time>2026-04-18T07:06:44Z</time></trkpt><trkpt lat="39.44734312572784" lon="9.540632073880193"><ele>15.0</ele><time>2026-04-18T07:06:45Z</time></trkpt><trkpt lat="39.44742232815002" lon="9.540634386994187"><ele>15.333333333333332</ele><time>2026-04-18T07:06:46Z</time></trkpt><trkpt lat="39.447503297348305" lon="9.540640570016658"><ele>15.666666666666666</ele><time>2026-04-18T07:06:47Z</time></trkpt><trkpt lat="39.44758531609847" lon="9.5406525117858"><ele>16.0</ele><time>2026-04-18T07:06:48Z</time></trkpt><trkpt lat="39.4476643300087" lon="9.54066671415339"><ele>15.999999999999998</ele><time>2026-04-18T07:06:49Z</time></trkpt><trkpt lat="39.44774701233482" lon="9.54068157586933"><ele>16.0</ele><time>2026-04-18T07:06:50Z</time></trkpt><trkpt lat="39.44782571803696" lon="9.540696380753886"><ele>16.0</ele><time>2026-04-18T07:06:51Z</time></trkpt><trkpt lat="39.44790411824522" lon="9.540712861229416"><ele>16.0</ele><time>2026-04-18T07:06:52Z</time></trkpt><trkpt lat="39.447981749461476" lon="9.540730126328972"><ele>15.999999999999998</ele><time>2026-04-18T07:06:53Z</time></trkpt><trkpt lat="39.44805900968524" lon="9.540747308918288"><ele>16.0</ele><time>2026-04-18T07:06:54Z</time></trkpt><trkpt lat="39.448139806324996" lon="9.540765278005344"><ele>16.5</ele><time>2026-04-18T07:06:55Z</time></trkpt><trkpt lat="39.44821911936615" lon="9.540782917138973"><ele>17.0</ele><time>2026-04-18T07:06:56Z</time></trkpt><trkpt lat="39.448296299007104" lon="9.540800081808523"><ele>17.5</ele><time>2026-04-18T07:06:57Z</time></trkpt><trkpt lat="39.44837406115747" lon="9.54081737597588"><ele>18.0</ele><time>2026-04-18T07:06:58Z</time></trkpt><trkpt lat="39.448461307989575" lon="9.54081713607682"><ele>18.5</ele><time>2026-04-18T07:06:59Z</time></trkpt><trkpt lat="39.448544211645206" lon="9.540818745621316"><ele>19.0</ele><time>2026-04-18T07:07:00Z</time></trkpt><trkpt lat="39.44862602239691" lon="9.540816788786575"><ele>19.0</ele><time>2026-04-18T07:07:01Z</time></trkpt><trkpt lat="39.448707810358435" lon="9.540811061762534"><ele>19.0</ele><time>2026-04-18T07:07:02Z</time></trkpt><trkpt lat="39.44878958778446" lon="9.540799951090795"><ele>19.0</ele><time>2026-04-18T07:07:03Z</time></trkpt><trkpt lat="39.44887250103899" lon="9.540788737792727"><ele>19.0</ele><time>2026-04-18T07:07:04Z</time></trkpt><trkpt lat="39.44895654826819" lon="9.540781337297869"><ele>19.0</ele><time>2026-04-18T07:07:05Z</time></trkpt><trkpt lat="39.44904642220871" lon="9.540776930574461"><ele>19.0</ele><time>2026-04-18T07:07:06Z</time></trkpt><trkpt lat="39.44914430040366" lon="9.540772131385758"><ele>19.0</ele><time>2026-04-18T07:07:07Z</time></trkpt><trkpt lat="39.449250596744115" lon="9.540766919436633"><ele>19.0</ele><time>2026-04-18T07:07:08Z</time></trkpt><trkpt lat="39.449358622709696" lon="9.540761622678929"><ele>19.0</ele><time>2026-04-18T07:07:09Z</time></trkpt><trkpt lat="39.44946526849933" lon="9.540756393617036"><ele>19.0</ele><time>2026-04-18T07:07:10Z</time></trkpt><trkpt lat="39.449573195678575" lon="9.54075146434071"><ele>19.0</ele><time>2026-04-18T07:07:11Z</time></trkpt><trkpt lat="39.44968079104843" lon="9.540747889338002"><ele>18.599999999999998</ele><time>2026-04-18T07:07:12Z</time></trkpt><trkpt lat="39.449789984516215" lon="9.540747016289597"><ele>18.2</ele><time>2026-04-18T07:07:13Z</time></trkpt><trkpt lat="39.44990178114049" lon="9.540749177239688"><ele>17.799999999999997</ele><time>2026-04-18T07:07:14Z</time></trkpt><trkpt lat="39.45001176418375" lon="9.540754876383014"><ele>17.4</ele><time>2026-04-18T07:07:15Z</time></trkpt><trkpt lat="39.45012377129984" lon="9.540763434490884"><ele>17.0</ele><time>2026-04-18T07:07:16Z</time></trkpt><trkpt lat="39.4502383505461" lon="9.54075804586814"><ele>17.0</ele><time>2026-04-18T07:07:17Z</time></trkpt><trkpt lat="39.45035471024076" lon="9.540774243832518"><ele>17.0</ele><time>2026-04-18T07:07:18Z</time></trkpt><trkpt lat="39.45046947110911" lon="9.540818494666773"><ele>17.0</ele><time>2026-04-18T07:07:19Z</time></trkpt><trkpt lat="39.45058965188785" lon="9.540841758472757"><ele>17.0</ele><time>2026-04-18T07:07:20Z</time></trkpt><trkpt lat="39.45070930336351" lon="9.540864919817237"><ele>16.8</ele><time>2026-04-18T07:07:21Z</time></trkpt><trkpt lat="39.450822073308544" lon="9.540868929698554"><ele>16.6</ele><time>2026-04-18T07:07:22Z</time></trkpt><trkpt lat="39.450924858485756" lon="9.54088967666565"><ele>16.400000000000002</ele><time>2026-04-18T07:07:23Z</time></trkpt><trkpt lat="39.45101937098986" lon="9.54091445526687"><ele>16.2</ele><time>2026-04-18T07:07:24Z</time></trkpt><trkpt lat="39.45111195622931" lon="9.540928734593985"><ele>16.0</ele><time>2026-04-18T07:07:25Z</time></trkpt><trkpt lat="39.45120783571565" lon="9.540906945932592"><ele>16.0</ele><time>2026-04-18T07:07:26Z</time></trkpt><trkpt lat="39.4513145117987" lon="9.540866523903162"><ele>16.0</ele><time>2026-04-18T07:07:27Z</time></trkpt><trkpt lat="39.451424963287565" lon="9.540814098389669"><ele>16.0</ele><time>2026-04-18T07:07:28Z</time></trkpt><trkpt lat="39.45154332455293" lon="9.540763628409335"><ele>16.0</ele><time>2026-04-18T07:07:29Z</time></trkpt><trkpt lat="39.451668793771894" lon="9.540707257700841"><ele>16.0</ele><time>2026-04-18T07:07:30Z</time></trkpt><trkpt lat="39.45179906789532" lon="9.540648728311094"><ele>16.0</ele><time>2026-04-18T07:07:31Z</time></trkpt><trkpt lat="39.4519305624391" lon="9.540567732253846"><ele>16.0</ele><time>2026-04-18T07:07:32Z</time></trkpt><trkpt lat="39.452078476282345" lon="9.540521470762512"><ele>16.0</ele><time>2026-04-18T07:07:33Z</time></trkpt><trkpt lat="39.45223354743573" lon="9.540478623391936"><ele>15.0</ele><time>2026-04-18T07:07:34Z</time></trkpt><trkpt lat="39.45239176053705" lon="9.5404570882672"><ele>14.0</ele><time>2026-04-18T07:07:35Z</time></trkpt><trkpt lat="39.45254517568817" lon="9.540459152839292"><ele>13.0</ele><time>2026-04-18T07:07:36Z</time></trkpt><trkpt lat="39.45269948540429" lon="9.54046717757061"><ele>13.0</ele><time>2026-04-18T07:07:37Z</time></trkpt><trkpt lat="39.45285298507674" lon="9.540474051501599"><ele>13.0</ele><time>2026-04-18T07:07:38Z</time></trkpt><trkpt lat="39.45300536943951" lon="9.540480991407094"><ele>13.0</ele><time>2026-04-18T07:07:39Z</time></trkpt><trkpt lat="39.453158243447106" lon="9.540488033880035"><ele>14.0</ele><time>2026-04-18T07:07:40Z</time></trkpt><trkpt lat="39.45331171075885" lon="9.540496843816795"><ele>15.0</ele><time>2026-04-18T07:07:41Z</time></trkpt><trkpt lat="39.45346371978315" lon="9.540502518587452"><ele>16.0</ele><time>2026-04-18T07:07:42Z</time></trkpt><trkpt lat="39.45361446140711" lon="9.540507451874467"><ele>16.0</ele><time>2026-04-18T07:07:43Z</time></trkpt><trkpt lat="39.45376242005856" lon="9.540508651885077"><ele>16.0</ele><time>2026-04-18T07:07:44Z</time></trkpt><trkpt lat="39.4539079057369" lon="9.540512033391876"><ele>16.0</ele><time>2026-04-18T07:07:45Z</time></trkpt><trkpt lat="39.454052063431874" lon="9.540515090254832"><ele>16.0</ele><time>2026-04-18T07:07:46Z</time></trkpt><trkpt lat="39.45419488055989" lon="9.540516367465788"><ele>16.75</ele><time>2026-04-18T07:07:47Z</time></trkpt><trkpt lat="39.45433848171001" lon="9.540517549894256"><ele>17.5</ele><time>2026-04-18T07:07:48Z</time></trkpt><trkpt lat="39.4544819287759" lon="9.540542987645965"><ele>18.25</ele><time>2026-04-18T07:07:49Z</time></trkpt><trkpt lat="39.45462663209255" lon="9.540531848193238"><ele>19.0</ele><time>2026-04-18T07:07:50Z</time></trkpt><trkpt lat="39.45477270581674" lon="9.540553796787643"><ele>19.25</ele><time>2026-04-18T07:07:51Z</time></trkpt><trkpt lat="39.454915065156236" lon="9.540593035634375"><ele>19.5</ele><time>2026-04-18T07:07:52Z</time></trkpt><trkpt lat="39.45505579395707" lon="9.540653967744793"><ele>19.75</ele><time>2026-04-18T07:07:53Z</time></trkpt><trkpt lat="39.45519167904731" lon="9.54073409179842"><ele>20.0</ele><time>2026-04-18T07:07:54Z</time></trkpt><trkpt lat="39.45532359722552" lon="9.540832740801875"><ele>20.0</ele><time>2026-04-18T07:07:55Z</time></trkpt><trkpt lat="39.455449393985425" lon="9.540943385326342"><ele>20.0</ele><time>2026-04-18T07:07:56Z</time></trkpt><trkpt lat="39.45557197480523" lon="9.541065072430055"><ele>20.0</ele><time>2026-04-18T07:07:57Z</time></trkpt><trkpt lat="39.45569047309873" lon="9.541189498939293"><ele>20.333333333333336</ele><time>2026-04-18T07:07:58Z</time></trkpt><trkpt lat="39.45581123451629" lon="9.541315015235138"><ele>20.666666666666668</ele><time>2026-04-18T07:07:59Z</time></trkpt><trkpt lat="39.455934421302885" lon="9.541441315360078"><ele>21.0</ele><time>2026-04-18T07:08:00Z</time></trkpt><trkpt lat="39.45605894107407" lon="9.541567296531172"><ele>21.0</ele><time>2026-04-18T07:08:01Z</time></trkpt><trkpt lat="39.45618844870621" lon="9.541693718901136"><ele>21.0</ele><time>2026-04-18T07:08:02Z</time></trkpt><trkpt lat="39.45632423729258" lon="9.541807202265648"><ele>21.0</ele><time>2026-04-18T07:08:03Z</time></trkpt><trkpt lat="39.456469489209795" lon="9.541897913780868"><ele>24.0</ele><time>2026-04-18T07:08:04Z</time></trkpt><trkpt lat="39.45662532315938" lon="9.541960595688947"><ele>27.0</ele><time>2026-04-18T07:08:05Z</time></trkpt><trkpt lat="39.4567879971172" lon="9.541980574459217"><ele>30.0</ele><time>2026-04-18T07:08:06Z</time></trkpt><trkpt lat="39.45694675284595" lon="9.542014866335029"><ele>30.0</ele><time>2026-04-18T07:08:07Z</time></trkpt><trkpt lat="39.45711338126067" lon="9.541989823844565"><ele>30.0</ele><time>2026-04-18T07:08:08Z</time></trkpt><trkpt lat="39.457269302600956" lon="9.541973022963266"><ele>30.0</ele><time>2026-04-18T07:08:09Z</time></trkpt><trkpt lat="39.45743178071361" lon="9.541953228041692"><ele>32.666666666666664</ele><time>2026-04-18T07:08:10Z</time></trkpt><trkpt lat="39.457594504528906" lon="9.541932596397732"><ele>35.33333333333333</ele><time>2026-04-18T07:08:11Z</time></trkpt><trkpt lat="39.45775499192395" lon="9.541915891236043"><ele>38.0</ele><time>2026-04-18T07:08:12Z</time></trkpt><trkpt lat="39.45792168491859" lon="9.541919081016314"><ele>39.666666666666664</ele><time>2026-04-18T07:08:13Z</time></trkpt><trkpt lat="39.45808148385378" lon="9.541942046341191"><ele>41.333333333333336</ele><time>2026-04-18T07:08:14Z</time></trkpt><trkpt lat="39.4582458585558" lon="9.541956814901335"><ele>43.0</ele><time>2026-04-18T07:08:15Z</time></trkpt><trkpt lat="39.4584075275605" lon="9.54196959198031"><ele>43.0</ele><time>2026-04-18T07:08:16Z</time></trkpt><trkpt lat="39.458572581809555" lon="9.541984535665822"><ele>43.0</ele><time>2026-04-18T07:08:17Z</time></trkpt><trkpt lat="39.45873487934086" lon="9.541995646405057"><ele>43.0</ele><time>2026-04-18T07:08:18Z</time></trkpt><trkpt lat="39.45890151876491" lon="9.542001072205622"><ele>45.0</ele><time>2026-04-18T07:08:19Z</time></trkpt><trkpt lat="39.45906552634274" lon="9.541995954731933"><ele>47.0</ele><time>2026-04-18T07:08:20Z</time></trkpt><trkpt lat="39.459233567215186" lon="9.541990997432935"><ele>49.0</ele><time>2026-04-18T07:08:21Z</time></trkpt><trkpt lat="39.45939949976473" lon="9.54198907286217"><ele>49.0</ele><time>2026-04-18T07:08:22Z</time></trkpt><trkpt lat="39.4595668232149" lon="9.541990239797148"><ele>49.0</ele><time>2026-04-18T07:08:23Z</time></trkpt><trkpt lat="39.45973747313399" lon="9.541980494184223"><ele>49.0</ele><time>2026-04-18T07:08:24Z</time></trkpt><trkpt lat="39.45990485369274" lon="9.541952738455311"><ele>45.666666666666664</ele><time>2026-04-18T07:08:25Z</time></trkpt><trkpt lat="39.46007042380974" lon="9.541912117350078"><ele>42.33333333333333</ele><time>2026-04-18T07:08:26Z</time></trkpt><trkpt lat="39.460234468411734" lon="9.541858150613924"><ele>39.0</ele><time>2026-04-18T07:08:27Z</time></trkpt><trkpt lat="39.46040330373692" lon="9.541815625130763"><ele>34.333333333333336</ele><time>2026-04-18T07:08:28Z</time></trkpt><trkpt lat="39.46056124248913" lon="9.541724698805513"><ele>29.666666666666668</ele><time>2026-04-18T07:08:29Z</time></trkpt><trkpt lat="39.46072247252959" lon="9.541649164915848"><ele>25.0</ele><time>2026-04-18T07:08:30Z</time></trkpt><trkpt lat="39.46088259020686" lon="9.54156718226271"><ele>25.0</ele><time>2026-04-18T07:08:31Z</time></trkpt><trkpt lat="39.46103889189679" lon="9.541477443864645"><ele>25.0</ele><time>2026-04-18T07:08:32Z</time></trkpt><trkpt lat="39.4611894413513" lon="9.541376266979423"><ele>25.0</ele><time>2026-04-18T07:08:33Z</time></trkpt><trkpt lat="39.461334388237375" lon="9.541264218489271"><ele>28.0</ele><time>2026-04-18T07:08:34Z</time></trkpt><trkpt lat="39.46148495534361" lon="9.54116780193989"><ele>31.0</ele><time>2026-04-18T07:08:35Z</time></trkpt><trkpt lat="39.4616230632939" lon="9.541054193110956"><ele>34.0</ele><time>2026-04-18T07:08:36Z</time></trkpt><trkpt lat="39.46175109607918" lon="9.540903616272796"><ele>34.0</ele><time>2026-04-18T07:08:37Z</time></trkpt><trkpt lat="39.46188146164596" lon="9.540770347586387"><ele>34.0</ele><time>2026-04-18T07:08:38Z</time></trkpt><trkpt lat="39.46199237938586" lon="9.540606955287123"><ele>34.0</ele><time>2026-04-18T07:08:39Z</time></trkpt><trkpt lat="39.46209510574325" lon="9.540437552219535"><ele>33.333333333333336</ele><time>2026-04-18T07:08:40Z</time></trkpt><trkpt lat="39.46218522628743" lon="9.54026079403307"><ele>32.666666666666664</ele><time>2026-04-18T07:08:41Z</time></trkpt><trkpt lat="39.46231408597857" lon="9.54012218797632"><ele>32.0</ele><time>2026-04-18T07:08:42Z</time></trkpt><trkpt lat="39.4624328695773" lon="9.539977240014856"><ele>32.0</ele><time>2026-04-18T07:08:43Z</time></trkpt><trkpt lat="39.462554915061716" lon="9.53982831144751"><ele>32.0</ele><time>2026-04-18T07:08:44Z</time></trkpt><trkpt lat="39.46267558208317" lon="9.539681065023583"><ele>32.0</ele><time>2026-04-18T07:08:45Z</time></trkpt><trkpt lat="39.46279669672752" lon="9.539533272190075"><ele>32.33333333333333</ele><time>2026-04-18T07:08:46Z</time></trkpt><trkpt lat="39.46291460717221" lon="9.539374101137442"><ele>32.666666666666664</ele><time>2026-04-18T07:08:47Z</time></trkpt><trkpt lat="39.463060323578446" lon="9.539258190043004"><ele>33.0</ele><time>2026-04-18T07:08:48Z</time></trkpt><trkpt lat="39.46321531018866" lon="9.539167824391255"><ele>33.0</ele><time>2026-04-18T07:08:49Z</time></trkpt><trkpt lat="39.46337608717344" lon="9.539115544387522"><ele>33.0</ele><time>2026-04-18T07:08:50Z</time></trkpt><trkpt lat="39.46354351927238" lon="9.539099197335602"><ele>33.0</ele><time>2026-04-18T07:08:51Z</time></trkpt><trkpt lat="39.463709461554906" lon="9.539108597576831"><ele>35.0</ele><time>2026-04-18T07:08:52Z</time></trkpt><trkpt lat="39.46387021404427" lon="9.539120804049821"><ele>37.0</ele><time>2026-04-18T07:08:53Z</time></trkpt><trkpt lat="39.46403596571852" lon="9.539128301965926"><ele>39.0</ele><time>2026-04-18T07:08:54Z</time></trkpt><trkpt lat="39.464198309533614" lon="9.539132268030214"><ele>39.0</ele><time>2026-04-18T07:08:55Z</time></trkpt><trkpt lat="39.464363284665524" lon="9.53913375066995"><ele>39.0</ele><time>2026-04-18T07:08:56Z</time></trkpt><trkpt lat="39.4645248612559" lon="9.539133635271469"><ele>39.0</ele><time>2026-04-18T07:08:57Z</time></trkpt><trkpt lat="39.464690395232225" lon="9.539133715801052"><ele>38.333333333333336</ele><time>2026-04-18T07:08:58Z</time></trkpt><trkpt lat="39.464853439128426" lon="9.53913538483881"><ele>37.66666666666667</ele><time>2026-04-18T07:08:59Z</time></trkpt><trkpt lat="39.46502004067433" lon="9.53913454187371"><ele>37.0</ele><time>2026-04-18T07:09:00Z</time></trkpt><trkpt lat="39.46518441550898" lon="9.539126582580677"><ele>37.0</ele><time>2026-04-18T07:09:01Z</time></trkpt><trkpt lat="39.46534894430128" lon="9.539117714523293"><ele>37.0</ele><time>2026-04-18T07:09:02Z</time></trkpt><trkpt lat="39.465513861941446" lon="9.539114184801361"><ele>37.0</ele><time>2026-04-18T07:09:03Z</time></trkpt><trkpt lat="39.4656788171882" lon="9.53911664105696"><ele>36.66666666666667</ele><time>2026-04-18T07:09:04Z</time></trkpt><trkpt lat="39.465844030683705" lon="9.539120730633995"><ele>36.333333333333336</ele><time>2026-04-18T07:09:05Z</time></trkpt><trkpt lat="39.46600637367957" lon="9.53912876733429"><ele>36.0</ele><time>2026-04-18T07:09:06Z</time></trkpt><trkpt lat="39.46617104460002" lon="9.53914859866604"><ele>36.666666666666664</ele><time>2026-04-18T07:09:07Z</time></trkpt><trkpt lat="39.46633137944838" lon="9.539176938227197"><ele>37.33333333333333</ele><time>2026-04-18T07:09:08Z</time></trkpt><trkpt lat="39.46649375252586" lon="9.539206982121364"><ele>38.0</ele><time>2026-04-18T07:09:09Z</time></trkpt><trkpt lat="39.4666535579674" lon="9.539230704801474"><ele>38.0</ele><time>2026-04-18T07:09:10Z</time></trkpt><trkpt lat="39.466816325740666" lon="9.539255173512906"><ele>38.0</ele><time>2026-04-18T07:09:11Z</time></trkpt><trkpt lat="39.46697827852948" lon="9.539286069107096"><ele>38.0</ele><time>2026-04-18T07:09:12Z</time></trkpt><trkpt lat="39.467141412967756" lon="9.539311744949204"><ele>38.0</ele><time>2026-04-18T07:09:13Z</time></trkpt><trkpt lat="39.467306995265695" lon="9.539309443541423"><ele>38.0</ele><time>2026-04-18T07:09:14Z</time></trkpt><trkpt lat="39.467476293657924" lon="9.53927559605742"><ele>38.0</ele><time>2026-04-18T07:09:15Z</time></trkpt><trkpt lat="39.4676393041058" lon="9.53922327912411"><ele>38.0</ele><time>2026-04-18T07:09:16Z</time></trkpt><trkpt lat="39.46779996449597" lon="9.539162978656558"><ele>38.0</ele><time>2026-04-18T07:09:17Z</time></trkpt><trkpt lat="39.46796505235994" lon="9.539102822505178"><ele>38.0</ele><time>2026-04-18T07:09:18Z</time></trkpt><trkpt lat="39.46813043663252" lon="9.539045294797134"><ele>34.666666666666664</ele><time>2026-04-18T07:09:19Z</time></trkpt><trkpt lat="39.4682940733188" lon="9.53898811962701"><ele>31.333333333333336</ele><time>2026-04-18T07:09:20Z</time></trkpt><trkpt lat="39.46845715852254" lon="9.53893115358514"><ele>28.0</ele><time>2026-04-18T07:09:21Z</time></trkpt><trkpt lat="39.468618583667556" lon="9.538875930508857"><ele>26.0</ele><time>2026-04-18T07:09:22Z</time></trkpt><trkpt lat="39.4687843202201" lon="9.538827810880525"><ele>24.0</ele><time>2026-04-18T07:09:23Z</time></trkpt><trkpt lat="39.4689521415645" lon="9.538787622260443"><ele>22.0</ele><time>2026-04-18T07:09:24Z</time></trkpt><trkpt lat="39.469118188644195" lon="9.538754842705941"><ele>22.0</ele><time>2026-04-18T07:09:25Z</time></trkpt><trkpt lat="39.46928540415372" lon="9.538722075986398"><ele>22.0</ele><time>2026-04-18T07:09:26Z</time></trkpt><trkpt lat="39.46945196359266" lon="9.538680400857364"><ele>22.0</ele><time>2026-04-18T07:09:27Z</time></trkpt><trkpt lat="39.46962210414448" lon="9.53864785275465"><ele>27.666666666666664</ele><time>2026-04-18T07:09:28Z</time></trkpt><trkpt lat="39.46978396868578" lon="9.538569820154262"><ele>33.333333333333336</ele><time>2026-04-18T07:09:29Z</time></trkpt><trkpt lat="39.46994744854419" lon="9.538509546371918"><ele>39.0</ele><time>2026-04-18T07:09:30Z</time></trkpt><trkpt lat="39.47011399345216" lon="9.538465055301492"><ele>39.0</ele><time>2026-04-18T07:09:31Z</time></trkpt><trkpt lat="39.47027557635962" lon="9.538403431041308"><ele>39.0</ele><time>2026-04-18T07:09:32Z</time></trkpt><trkpt lat="39.470433470429946" lon="9.538328452215996"><ele>39.0</ele><time>2026-04-18T07:09:33Z</time></trkpt><trkpt lat="39.470602344681986" lon="9.538310625119273"><ele>38.333333333333336</ele><time>2026-04-18T07:09:34Z</time></trkpt><trkpt lat="39.47077170897151" lon="9.538318488173115"><ele>37.66666666666667</ele><time>2026-04-18T07:09:35Z</time></trkpt><trkpt lat="39.4709399932575" lon="9.538330048098597"><ele>37.0</ele><time>2026-04-18T07:09:36Z</time></trkpt><trkpt lat="39.4711049722827" lon="9.53831896172315"><ele>36.0</ele><time>2026-04-18T07:09:37Z</time></trkpt><trkpt lat="39.47127453561412" lon="9.538314789276289"><ele>35.0</ele><time>2026-04-18T07:09:38Z</time></trkpt><trkpt lat="39.4714404214198" lon="9.53828518152207"><ele>34.0</ele><time>2026-04-18T07:09:39Z</time></trkpt><trkpt lat="39.471601054611384" lon="9.538260005815609"><ele>34.0</ele><time>2026-04-18T07:09:40Z</time></trkpt><trkpt lat="39.4717655300447" lon="9.538240973146662"><ele>34.0</ele><time>2026-04-18T07:09:41Z</time></trkpt><trkpt lat="39.47192931638558" lon="9.53827706420257"><ele>34.0</ele><time>2026-04-18T07:09:42Z</time></trkpt><trkpt lat="39.472087960325034" lon="9.538331641704158"><ele>36.333333333333336</ele><time>2026-04-18T07:09:43Z</time></trkpt><trkpt lat="39.472249518879046" lon="9.538380067963534"><ele>38.666666666666664</ele><time>2026-04-18T07:09:44Z</time></trkpt><trkpt lat="39.47241056594018" lon="9.538416149720552"><ele>41.0</ele><time>2026-04-18T07:09:45Z</time></trkpt><trkpt lat="39.47257561889872" lon="9.538451368039096"><ele>41.0</ele><time>2026-04-18T07:09:46Z</time></trkpt><trkpt lat="39.47274025186676" lon="9.538487816699396"><ele>41.0</ele><time>2026-04-18T07:09:47Z</time></trkpt><trkpt lat="39.47290000100965" lon="9.538522910258859"><ele>41.0</ele><time>2026-04-18T07:09:48Z</time></trkpt><trkpt lat="39.47306224941785" lon="9.538557927309284"><ele>47.33333333333333</ele><time>2026-04-18T07:09:49Z</time></trkpt><trkpt lat="39.4732249803867" lon="9.538596399748453"><ele>53.666666666666664</ele><time>2026-04-18T07:09:50Z</time></trkpt><trkpt lat="39.473389151395246" lon="9.538643353970942"><ele>60.0</ele><time>2026-04-18T07:09:51Z</time></trkpt><trkpt lat="39.47354766549869" lon="9.538700703101199"><ele>52.666666666666664</ele><time>2026-04-18T07:09:52Z</time></trkpt><trkpt lat="39.473701942588896" lon="9.538788182036235"><ele>45.33333333333333</ele><time>2026-04-18T07:09:53Z</time></trkpt><trkpt lat="39.47386068140313" lon="9.538859093564874"><ele>38.0</ele><time>2026-04-18T07:09:54Z</time></trkpt><trkpt lat="39.474022986276815" lon="9.538909501565854"><ele>38.0</ele><time>2026-04-18T07:09:55Z</time></trkpt><trkpt lat="39.47418058944161" lon="9.538981821194467"><ele>38.0</ele><time>2026-04-18T07:09:56Z</time></trkpt><trkpt lat="39.47433367776713" lon="9.53905142122489"><ele>38.0</ele><time>2026-04-18T07:09:57Z</time></trkpt><trkpt lat="39.474484847373674" lon="9.539121819800352"><ele>43.666666666666664</ele><time>2026-04-18T07:09:58Z</time></trkpt><trkpt lat="39.4746365126743" lon="9.539200772772233"><ele>49.33333333333333</ele><time>2026-04-18T07:09:59Z</time></trkpt><trkpt lat="39.47477581128666" lon="9.539305089473006"><ele>55.0</ele><time>2026-04-18T07:10:00Z</time></trkpt><trkpt lat="39.47490554768476" lon="9.539425058668185"><ele>55.0</ele><time>2026-04-18T07:10:01Z</time></trkpt><trkpt lat="39.47503191277752" lon="9.53953951820996"><ele>55.0</ele><time>2026-04-18T07:10:02Z</time></trkpt><trkpt lat="39.47515741415923" lon="9.53963882852394"><ele>55.0</ele><time>2026-04-18T07:10:03Z</time></trkpt><trkpt lat="39.475284668877876" lon="9.53971793994335"><ele>55.0</ele><time>2026-04-18T07:10:04Z</time></trkpt><trkpt lat="39.47541362510291" lon="9.539772951096886"><ele>51.75</ele><time>2026-04-18T07:10:05Z</time></trkpt><trkpt lat="39.47553708772509" lon="9.539805963281276"><ele>48.5</ele><time>2026-04-18T07:10:06Z</time></trkpt><trkpt lat="39.47565491518047" lon="9.539805771688904"><ele>45.25</ele><time>2026-04-18T07:10:07Z</time></trkpt><trkpt lat="39.47576604032595" lon="9.53979350816504"><ele>42.0</ele><time>2026-04-18T07:10:08Z</time></trkpt><trkpt lat="39.4758618096034" lon="9.539710298632308"><ele>42.0</ele><time>2026-04-18T07:10:09Z</time></trkpt><trkpt lat="39.47590820480827" lon="9.539561164335865"><ele>42.0</ele><time>2026-04-18T07:10:10Z</time></trkpt><trkpt lat="39.47593098366362" lon="9.539411197540506"><ele>42.0</ele><time>2026-04-18T07:10:11Z</time></trkpt><trkpt lat="39.47592711037248" lon="9.539244162182293"><ele>42.0</ele><time>2026-04-18T07:10:12Z</time></trkpt><trkpt lat="39.475912362508716" lon="9.539070205051312"><ele>42.25</ele><time>2026-04-18T07:10:13Z</time></trkpt><trkpt lat="39.475887556416524" lon="9.538894489446369"><ele>42.5</ele><time>2026-04-18T07:10:14Z</time></trkpt><trkpt lat="39.47585061841071" lon="9.538709281887042"><ele>42.75</ele><time>2026-04-18T07:10:15Z</time></trkpt><trkpt lat="39.47579752067121" lon="9.538526310013863"><ele>43.0</ele><time>2026-04-18T07:10:16Z</time></trkpt><trkpt lat="39.47573764155152" lon="9.538333039100564"><ele>40.66666666666667</ele><time>2026-04-18T07:10:17Z</time></trkpt><trkpt lat="39.475678212920364" lon="9.53813432669718"><ele>38.333333333333336</ele><time>2026-04-18T07:10:18Z</time></trkpt><trkpt lat="39.47561593046802" lon="9.53792574807898"><ele>36.0</ele><time>2026-04-18T07:10:19Z</time></trkpt><trkpt lat="39.47554776802447" lon="9.5377128097115"><ele>32.0</ele><time>2026-04-18T07:10:20Z</time></trkpt><trkpt lat="39.47546792357561" lon="9.537505234377566"><ele>28.0</ele><time>2026-04-18T07:10:21Z</time></trkpt><trkpt lat="39.475372487450464" lon="9.537302979590748"><ele>24.0</ele><time>2026-04-18T07:10:22Z</time></trkpt><trkpt lat="39.47529527049837" lon="9.537087970971497"><ele>31.666666666666664</ele><time>2026-04-18T07:10:23Z</time></trkpt><trkpt lat="39.475208529306784" lon="9.536884809229663"><ele>39.33333333333333</ele><time>2026-04-18T07:10:24Z</time></trkpt><trkpt lat="39.475152788076635" lon="9.536658775020568"><ele>47.0</ele><time>2026-04-18T07:10:25Z</time></trkpt><trkpt lat="39.47511525491503" lon="9.536426684066733"><ele>46.0</ele><time>2026-04-18T07:10:26Z</time></trkpt><trkpt lat="39.47509644515004" lon="9.536190474060243"><ele>45.0</ele><time>2026-04-18T07:10:27Z</time></trkpt><trkpt lat="39.47509303325238" lon="9.535954385230314"><ele>44.0</ele><time>2026-04-18T07:10:28Z</time></trkpt><trkpt lat="39.47510212550878" lon="9.535716679633527"><ele>44.0</ele><time>2026-04-18T07:10:29Z</time></trkpt><trkpt lat="39.47512564532486" lon="9.535479472546728"><ele>44.0</ele><time>2026-04-18T07:10:30Z</time></trkpt><trkpt lat="39.47516001142707" lon="9.535243288656254"><ele>44.0</ele><time>2026-04-18T07:10:31Z</time></trkpt><trkpt lat="39.47520432259262" lon="9.535010687750855"><ele>44.33333333333333</ele><time>2026-04-18T07:10:32Z</time></trkpt><trkpt lat="39.47527042884594" lon="9.534787697798796"><ele>44.666666666666664</ele><time>2026-04-18T07:10:33Z</time></trkpt><trkpt lat="39.47534578107405" lon="9.534567641140482"><ele>45.0</ele><time>2026-04-18T07:10:34Z</time></trkpt><trkpt lat="39.47542203957408" lon="9.534346986500124"><ele>41.333333333333336</ele><time>2026-04-18T07:10:35Z</time></trkpt><trkpt lat="39.475498885124544" lon="9.534130876719045"><ele>37.66666666666667</ele><time>2026-04-18T07:10:36Z</time></trkpt><trkpt lat="39.47557334693697" lon="9.533912053844967"><ele>34.0</ele><time>2026-04-18T07:10:37Z</time></trkpt><trkpt lat="39.47564748666975" lon="9.53369163528211"><ele>34.0</ele><time>2026-04-18T07:10:38Z</time></trkpt><trkpt lat="39.47572395024826" lon="9.533473879349652"><ele>34.0</ele><time>2026-04-18T07:10:39Z</time></trkpt><trkpt lat="39.47580224961092" lon="9.533257522085783"><ele>34.0</ele><time>2026-04-18T07:10:40Z</time></trkpt><trkpt lat="39.475879680253385" lon="9.533038481202635"><ele>36.333333333333336</ele><time>2026-04-18T07:10:41Z</time></trkpt><trkpt lat="39.47595503809103" lon="9.532821422306473"><ele>38.666666666666664</ele><time>2026-04-18T07:10:42Z</time></trkpt><trkpt lat="39.47603066622304" lon="9.532600240754519"><ele>41.0</ele><time>2026-04-18T07:10:43Z</time></trkpt><trkpt lat="39.47610543043875" lon="9.532378837952523"><ele>41.0</ele><time>2026-04-18T07:10:44Z</time></trkpt><trkpt lat="39.476180352661544" lon="9.532157712235609"><ele>41.0</ele><time>2026-04-18T07:10:45Z</time></trkpt><trkpt lat="39.47625797636598" lon="9.531930580497534"><ele>41.0</ele><time>2026-04-18T07:10:46Z</time></trkpt><trkpt lat="39.476336179685106" lon="9.53170177755951"><ele>36.0</ele><time>2026-04-18T07:10:47Z</time></trkpt><trkpt lat="39.4764115421314" lon="9.531470094578827"><ele>31.0</ele><time>2026-04-18T07:10:48Z</time></trkpt><trkpt lat="39.47647816428756" lon="9.531233676027785"><ele>26.0</ele><time>2026-04-18T07:10:49Z</time></trkpt><trkpt lat="39.4765349353112" lon="9.530992386829451"><ele>26.0</ele><time>2026-04-18T07:10:50Z</time></trkpt><trkpt lat="39.47658205209567" lon="9.530744958357715"><ele>26.0</ele><time>2026-04-18T07:10:51Z</time></trkpt><trkpt lat="39.4766201407849" lon="9.530493328271072"><ele>26.0</ele><time>2026-04-18T07:10:52Z</time></trkpt><trkpt lat="39.476654147300174" lon="9.530241969149023"><ele>27.333333333333332</ele><time>2026-04-18T07:10:53Z</time></trkpt><trkpt lat="39.476686892756824" lon="9.52999527780288"><ele>28.666666666666664</ele><time>2026-04-18T07:10:54Z</time></trkpt><trkpt lat="39.476721584954866" lon="9.529748554385812"><ele>30.0</ele><time>2026-04-18T07:10:55Z</time></trkpt><trkpt lat="39.47675212462655" lon="9.529507736833724"><ele>34.0</ele><time>2026-04-18T07:10:56Z</time></trkpt><trkpt lat="39.476777342912776" lon="9.529267764376481"><ele>38.0</ele><time>2026-04-18T07:10:57Z</time></trkpt><trkpt lat="39.47679689465332" lon="9.529026009367653"><ele>42.0</ele><time>2026-04-18T07:10:58Z</time></trkpt><trkpt lat="39.476817751882635" lon="9.528788091991034"><ele>45.0</ele><time>2026-04-18T07:10:59Z</time></trkpt><trkpt lat="39.476842666174555" lon="9.528552371073872"><ele>48.0</ele><time>2026-04-18T07:11:00Z</time></trkpt><trkpt lat="39.476875098703175" lon="9.52831697141429"><ele>51.0</ele><time>2026-04-18T07:11:01Z</time></trkpt><trkpt lat="39.47691505803298" lon="9.52808746466817"><ele>53.33333333333333</ele><time>2026-04-18T07:11:02Z</time></trkpt><trkpt lat="39.476955471995076" lon="9.527856389026958"><ele>55.666666666666664</ele><time>2026-04-18T07:11:03Z</time></trkpt><trkpt lat="39.47698656830506" lon="9.52762345211804"><ele>58.0</ele><time>2026-04-18T07:11:04Z</time></trkpt><trkpt lat="39.47703000826891" lon="9.527392859390423"><ele>58.0</ele><time>2026-04-18T07:11:05Z</time></trkpt><trkpt lat="39.47702537412599" lon="9.527159661850463"><ele>58.0</ele><time>2026-04-18T07:11:06Z</time></trkpt><trkpt lat="39.477035037965145" lon="9.526924558894114"><ele>58.0</ele><time>2026-04-18T07:11:07Z</time></trkpt><trkpt lat="39.47703961969042" lon="9.526692356519282"><ele>58.33333333333333</ele><time>2026-04-18T07:11:08Z</time></trkpt><trkpt lat="39.47704754579878" lon="9.526460063887708"><ele>58.66666666666667</ele><time>2026-04-18T07:11:09Z</time></trkpt><trkpt lat="39.4770571086632" lon="9.526227527634894"><ele>59.0</ele><time>2026-04-18T07:11:10Z</time></trkpt><trkpt lat="39.47706941508265" lon="9.525995654015881"><ele>57.333333333333336</ele><time>2026-04-18T07:11:11Z</time></trkpt><trkpt lat="39.47708473610236" lon="9.52576352513274"><ele>55.66666666666667</ele><time>2026-04-18T07:11:12Z</time></trkpt><trkpt lat="39.47711116333463" lon="9.525533275809547"><ele>54.0</ele><time>2026-04-18T07:11:13Z</time></trkpt><trkpt lat="39.47715887441959" lon="9.525307578509006"><ele>45.0</ele><time>2026-04-18T07:11:14Z</time></trkpt><trkpt lat="39.477216665823164" lon="9.525081329563724"><ele>36.0</ele><time>2026-04-18T07:11:15Z</time></trkpt><trkpt lat="39.47728333881993" lon="9.52486023380728"><ele>27.0</ele><time>2026-04-18T07:11:16Z</time></trkpt><trkpt lat="39.47735895248211" lon="9.52464257340077"><ele>32.666666666666664</ele><time>2026-04-18T07:11:17Z</time></trkpt><trkpt lat="39.477433209533395" lon="9.524429437034266"><ele>38.33333333333333</ele><time>2026-04-18T07:11:18Z</time></trkpt><trkpt lat="39.47750800384892" lon="9.524213439124766"><ele>44.0</ele><time>2026-04-18T07:11:19Z</time></trkpt><trkpt lat="39.47757960183284" lon="9.524000771726826"><ele>44.0</ele><time>2026-04-18T07:11:20Z</time></trkpt><trkpt lat="39.477645660694435" lon="9.52378797711156"><ele>44.0</ele><time>2026-04-18T07:11:21Z</time></trkpt><trkpt lat="39.477704039451595" lon="9.52357396191238"><ele>44.0</ele><time>2026-04-18T07:11:22Z</time></trkpt><trkpt lat="39.47775567347468" lon="9.523359897905877"><ele>50.33333333333333</ele><time>2026-04-18T07:11:23Z</time></trkpt><trkpt lat="39.47780600251147" lon="9.523147738765697"><ele>56.666666666666664</ele><time>2026-04-18T07:11:24Z</time></trkpt><trkpt lat="39.47786034284172" lon="9.522932996802611"><ele>63.0</ele><time>2026-04-18T07:11:25Z</time></trkpt><trkpt lat="39.47791995133173" lon="9.522719964515383"><ele>50.666666666666664</ele><time>2026-04-18T07:11:26Z</time></trkpt><trkpt lat="39.47798453717763" lon="9.522506498642988"><ele>38.33333333333333</ele><time>2026-04-18T07:11:27Z</time></trkpt><trkpt lat="39.4780509066845" lon="9.522290506846984"><ele>26.0</ele><time>2026-04-18T07:11:28Z</time></trkpt><trkpt lat="39.478115123906285" lon="9.522071997890247"><ele>29.0</ele><time>2026-04-18T07:11:29Z</time></trkpt><trkpt lat="39.47817645350001" lon="9.521847708348982"><ele>32.0</ele><time>2026-04-18T07:11:30Z</time></trkpt><trkpt lat="39.478233768747344" lon="9.521619352222837"><ele>35.0</ele><time>2026-04-18T07:11:31Z</time></trkpt><trkpt lat="39.47829296951973" lon="9.521389475090874"><ele>37.666666666666664</ele><time>2026-04-18T07:11:32Z</time></trkpt><trkpt lat="39.478369734095764" lon="9.521171573681528"><ele>40.333333333333336</ele><time>2026-04-18T07:11:33Z</time></trkpt><trkpt lat="39.47847402120358" lon="9.520975382565547"><ele>43.0</ele><time>2026-04-18T07:11:34Z</time></trkpt><trkpt lat="39.47859250198024" lon="9.520795063265137"><ele>43.0</ele><time>2026-04-18T07:11:35Z</time></trkpt><trkpt lat="39.47871608969798" lon="9.52062828888992"><ele>43.0</ele><time>2026-04-18T07:11:36Z</time></trkpt><trkpt lat="39.47883830545759" lon="9.520454136023163"><ele>43.0</ele><time>2026-04-18T07:11:37Z</time></trkpt><trkpt lat="39.478945697052595" lon="9.52026919344124"><ele>38.66666666666667</ele><time>2026-04-18T07:11:38Z</time></trkpt><trkpt lat="39.47903864444345" lon="9.520066913614787"><ele>34.333333333333336</ele><time>2026-04-18T07:11:39Z</time></trkpt><trkpt lat="39.479119658815655" lon="9.519854063736103"><ele>30.0</ele><time>2026-04-18T07:11:40Z</time></trkpt><trkpt lat="39.479190078345006" lon="9.519634365444462"><ele>29.333333333333336</ele><time>2026-04-18T07:11:41Z</time></trkpt><trkpt lat="39.47925046170275" lon="9.519408069680116"><ele>28.666666666666668</ele><time>2026-04-18T07:11:42Z</time></trkpt><trkpt lat="39.4793036308108" lon="9.519176907150577"><ele>28.0</ele><time>2026-04-18T07:11:43Z</time></trkpt><trkpt lat="39.47935621350813" lon="9.518948179722916"><ele>28.0</ele><time>2026-04-18T07:11:44Z</time></trkpt><trkpt lat="39.479411525725666" lon="9.518718748842204"><ele>28.0</ele><time>2026-04-18T07:11:45Z</time></trkpt><trkpt lat="39.47946717521434" lon="9.518494014881862"><ele>28.0</ele><time>2026-04-18T07:11:46Z</time></trkpt><trkpt lat="39.479522547485715" lon="9.518265486831158"><ele>28.0</ele><time>2026-04-18T07:11:47Z</time></trkpt><trkpt lat="39.47957903279686" lon="9.518035682387513"><ele>28.0</ele><time>2026-04-18T07:11:48Z</time></trkpt><trkpt lat="39.479639464755245" lon="9.517808306851324"><ele>28.0</ele><time>2026-04-18T07:11:49Z</time></trkpt><trkpt lat="39.47970731299696" lon="9.517586603898126"><ele>26.666666666666668</ele><time>2026-04-18T07:11:50Z</time></trkpt><trkpt lat="39.47978096487039" lon="9.517367113124502"><ele>25.333333333333336</ele><time>2026-04-18T07:11:51Z</time></trkpt><trkpt lat="39.47986086247326" lon="9.517156457585425"><ele>24.0</ele><time>2026-04-18T07:11:52Z</time></trkpt><trkpt lat="39.47994853030018" lon="9.51694404855599"><ele>27.333333333333336</ele><time>2026-04-18T07:11:53Z</time></trkpt><trkpt lat="39.48003592877962" lon="9.516732762355968"><ele>30.666666666666668</ele><time>2026-04-18T07:11:54Z</time></trkpt><trkpt lat="39.480119780138864" lon="9.51651784405864"><ele>34.0</ele><time>2026-04-18T07:11:55Z</time></trkpt><trkpt lat="39.48020466797743" lon="9.516299033124513"><ele>37.0</ele><time>2026-04-18T07:11:56Z</time></trkpt><trkpt lat="39.480286425115196" lon="9.516080796633181"><ele>40.0</ele><time>2026-04-18T07:11:57Z</time></trkpt><trkpt lat="39.48035498346878" lon="9.515854314371841"><ele>43.0</ele><time>2026-04-18T07:11:58Z</time></trkpt><trkpt lat="39.480395923215184" lon="9.515613633761157"><ele>45.66666666666667</ele><time>2026-04-18T07:11:59Z</time></trkpt><trkpt lat="39.48041750705861" lon="9.515369650559702"><ele>48.333333333333336</ele><time>2026-04-18T07:12:00Z</time></trkpt><trkpt lat="39.4804371835534" lon="9.515131053325607"><ele>51.0</ele><time>2026-04-18T07:12:01Z</time></trkpt><trkpt lat="39.480464437037895" lon="9.514881438272186"><ele>43.0</ele><time>2026-04-18T07:12:02Z</time></trkpt><trkpt lat="39.48048428297297" lon="9.514640904867335"><ele>35.0</ele><time>2026-04-18T07:12:03Z</time></trkpt><trkpt lat="39.48049476709022" lon="9.514397101535694"><ele>27.0</ele><time>2026-04-18T07:12:04Z</time></trkpt><trkpt lat="39.48049166734608" lon="9.514156959827154"><ele>27.0</ele><time>2026-04-18T07:12:05Z</time></trkpt><trkpt lat="39.48048063687978" lon="9.513915466350056"><ele>27.0</ele><time>2026-04-18T07:12:06Z</time></trkpt><trkpt lat="39.48046418229506" lon="9.513675493910938"><ele>27.0</ele><time>2026-04-18T07:12:07Z</time></trkpt><trkpt lat="39.48044668602248" lon="9.513440163744411"><ele>35.0</ele><time>2026-04-18T07:12:08Z</time></trkpt><trkpt lat="39.48042890106567" lon="9.513204202397217"><ele>43.0</ele><time>2026-04-18T07:12:09Z</time></trkpt><trkpt lat="39.480413385671184" lon="9.51296861341249"><ele>51.0</ele><time>2026-04-18T07:12:10Z</time></trkpt><trkpt lat="39.48039844513951" lon="9.512733374734397"><ele>51.33333333333333</ele><time>2026-04-18T07:12:11Z</time></trkpt><trkpt lat="39.480380687526186" lon="9.512499353675556"><ele>51.666666666666664</ele><time>2026-04-18T07:12:12Z</time></trkpt><trkpt lat="39.48036406650741" lon="9.512266160886217"><ele>52.0</ele><time>2026-04-18T07:12:13Z</time></trkpt><trkpt lat="39.48034033209457" lon="9.512035937337343"><ele>51.0</ele><time>2026-04-18T07:12:14Z</time></trkpt><trkpt lat="39.48028658406242" lon="9.511815574276985"><ele>50.0</ele><time>2026-04-18T07:12:15Z</time></trkpt><trkpt lat="39.4802075516798" lon="9.511605539362284"><ele>49.0</ele><time>2026-04-18T07:12:16Z</time></trkpt><trkpt lat="39.48012579847724" lon="9.511398095459844"><ele>43.0</ele><time>2026-04-18T07:12:17Z</time></trkpt><trkpt lat="39.48004685118823" lon="9.511187775094083"><ele>37.0</ele><time>2026-04-18T07:12:18Z</time></trkpt><trkpt lat="39.47996813544063" lon="9.510979907748595"><ele>31.0</ele><time>2026-04-18T07:12:19Z</time></trkpt><trkpt lat="39.47988223971916" lon="9.510771527705485"><ele>31.0</ele><time>2026-04-18T07:12:20Z</time></trkpt><trkpt lat="39.47979295118919" lon="9.5105650878195"><ele>31.0</ele><time>2026-04-18T07:12:21Z</time></trkpt><trkpt lat="39.479699507192414" lon="9.510360093092897"><ele>31.0</ele><time>2026-04-18T07:12:22Z</time></trkpt><trkpt lat="39.47960721679397" lon="9.51014689221972"><ele>30.666666666666668</ele><time>2026-04-18T07:12:23Z</time></trkpt><trkpt lat="39.47952756451911" lon="9.509932078599077"><ele>30.333333333333336</ele><time>2026-04-18T07:12:24Z</time></trkpt><trkpt lat="39.47945919785894" lon="9.50970486092254"><ele>30.0</ele><time>2026-04-18T07:12:25Z</time></trkpt><trkpt lat="39.47940027981892" lon="9.509471630409573"><ele>30.0</ele><time>2026-04-18T07:12:26Z</time></trkpt><trkpt lat="39.4793463129074" lon="9.509231130994644"><ele>30.0</ele><time>2026-04-18T07:12:27Z</time></trkpt><trkpt lat="39.479294348614005" lon="9.508987135088134"><ele>30.0</ele><time>2026-04-18T07:12:28Z</time></trkpt><trkpt lat="39.47924820833284" lon="9.508740939286046"><ele>32.0</ele><time>2026-04-18T07:12:29Z</time></trkpt><trkpt lat="39.479205671011954" lon="9.508493502443429"><ele>34.0</ele><time>2026-04-18T07:12:30Z</time></trkpt><trkpt lat="39.47916664534772" lon="9.508246527749561"><ele>36.0</ele><time>2026-04-18T07:12:31Z</time></trkpt><trkpt lat="39.47912854503325" lon="9.507999811866895"><ele>36.666666666666664</ele><time>2026-04-18T07:12:32Z</time></trkpt><trkpt lat="39.47908919735883" lon="9.507757032517176"><ele>37.33333333333333</ele><time>2026-04-18T07:12:33Z</time></trkpt><trkpt lat="39.47904991748554" lon="9.507514822734079"><ele>38.0</ele><time>2026-04-18T07:12:34Z</time></trkpt><trkpt lat="39.47901241478422" lon="9.507272644553439"><ele>39.0</ele><time>2026-04-18T07:12:35Z</time></trkpt><trkpt lat="39.47897632658459" lon="9.507028851353917"><ele>40.0</ele><time>2026-04-18T07:12:36Z</time></trkpt><trkpt lat="39.47894191959262" lon="9.506788210351553"><ele>41.0</ele><time>2026-04-18T07:12:37Z</time></trkpt><trkpt lat="39.47891182837391" lon="9.506547169284353"><ele>41.0</ele><time>2026-04-18T07:12:38Z</time></trkpt><trkpt lat="39.478891021763054" lon="9.506304547471972"><ele>41.0</ele><time>2026-04-18T07:12:39Z</time></trkpt><trkpt lat="39.47887759446048" lon="9.506055951501606"><ele>41.0</ele><time>2026-04-18T07:12:40Z</time></trkpt><trkpt lat="39.47886477691126" lon="9.505808227014999"><ele>41.666666666666664</ele><time>2026-04-18T07:12:41Z</time></trkpt><trkpt lat="39.47884839795844" lon="9.505559268011337"><ele>42.333333333333336</ele><time>2026-04-18T07:12:42Z</time></trkpt><trkpt lat="39.478829338139" lon="9.505311491302708"><ele>43.0</ele><time>2026-04-18T07:12:43Z</time></trkpt><trkpt lat="39.47881311367252" lon="9.505063193172822"><ele>41.66666666666667</ele><time>2026-04-18T07:12:44Z</time></trkpt><trkpt lat="39.47879986723993" lon="9.504813002074455"><ele>40.333333333333336</ele><time>2026-04-18T07:12:45Z</time></trkpt><trkpt lat="39.478789154823545" lon="9.504564107413207"><ele>39.0</ele><time>2026-04-18T07:12:46Z</time></trkpt><trkpt lat="39.478776484260365" lon="9.50431607706755"><ele>44.66666666666667</ele><time>2026-04-18T07:12:47Z</time></trkpt><trkpt lat="39.478758928551564" lon="9.504068354123248"><ele>50.333333333333336</ele><time>2026-04-18T07:12:48Z</time></trkpt><trkpt lat="39.47874372843853" lon="9.503822238803316"><ele>56.0</ele><time>2026-04-18T07:12:49Z</time></trkpt><trkpt lat="39.47873666963345" lon="9.503575189365515"><ele>56.0</ele><time>2026-04-18T07:12:50Z</time></trkpt><trkpt lat="39.47873501483149" lon="9.5033306676526"><ele>56.0</ele><time>2026-04-18T07:12:51Z</time></trkpt><trkpt lat="39.478751495845614" lon="9.503089503255605"><ele>56.0</ele><time>2026-04-18T07:12:52Z</time></trkpt><trkpt lat="39.47878311365351" lon="9.50285559096853"><ele>48.66666666666667</ele><time>2026-04-18T07:12:53Z</time></trkpt><trkpt lat="39.47883145665892" lon="9.502624451417036"><ele>41.333333333333336</ele><time>2026-04-18T07:12:54Z</time></trkpt><trkpt lat="39.47889859606042" lon="9.502401575878276"><ele>34.0</ele><time>2026-04-18T07:12:55Z</time></trkpt><trkpt lat="39.478975956984435" lon="9.502185706525687"><ele>35.66666666666667</ele><time>2026-04-18T07:12:56Z</time></trkpt><trkpt lat="39.47905184753653" lon="9.50196996048235"><ele>37.333333333333336</ele><time>2026-04-18T07:12:57Z</time></trkpt><trkpt lat="39.47914448096504" lon="9.501763774596581"><ele>39.0</ele><time>2026-04-18T07:12:58Z</time></trkpt><trkpt lat="39.47922332431746" lon="9.501551844725167"><ele>39.0</ele><time>2026-04-18T07:12:59Z</time></trkpt><trkpt lat="39.47930425369771" lon="9.501338209285372"><ele>39.0</ele><time>2026-04-18T07:13:00Z</time></trkpt><trkpt lat="39.4793828390677" lon="9.501130761664824"><ele>39.0</ele><time>2026-04-18T07:13:01Z</time></trkpt><trkpt lat="39.47945953962569" lon="9.500918859260551"><ele>40.333333333333336</ele><time>2026-04-18T07:13:02Z</time></trkpt><trkpt lat="39.47952073725313" lon="9.50069964794441"><ele>41.66666666666667</ele><time>2026-04-18T07:13:03Z</time></trkpt><trkpt lat="39.47959221392537" lon="9.500490438630068"><ele>43.0</ele><time>2026-04-18T07:13:04Z</time></trkpt><trkpt lat="39.47965449253437" lon="9.500271936806861"><ele>40.0</ele><time>2026-04-18T07:13:05Z</time></trkpt><trkpt lat="39.47969776528656" lon="9.500049363965475"><ele>37.0</ele><time>2026-04-18T07:13:06Z</time></trkpt><trkpt lat="39.47972316272574" lon="9.49982293860792"><ele>34.0</ele><time>2026-04-18T07:13:07Z</time></trkpt><trkpt lat="39.47973415690707" lon="9.49959617506794"><ele>35.0</ele><time>2026-04-18T07:13:08Z</time></trkpt><trkpt lat="39.47972966357216" lon="9.499367878858537"><ele>36.0</ele><time>2026-04-18T07:13:09Z</time></trkpt><trkpt lat="39.47971238636783" lon="9.499142245367834"><ele>37.0</ele><time>2026-04-18T07:13:10Z</time></trkpt><trkpt lat="39.47969121424566" lon="9.498917052939802"><ele>36.66666666666667</ele><time>2026-04-18T07:13:11Z</time></trkpt><trkpt lat="39.479669911499776" lon="9.498694578717073"><ele>36.333333333333336</ele><time>2026-04-18T07:13:12Z</time></trkpt><trkpt lat="39.47965096419227" lon="9.498476931915295"><ele>36.0</ele><time>2026-04-18T07:13:13Z</time></trkpt><trkpt lat="39.47964026523649" lon="9.498259084452338"><ele>36.0</ele><time>2026-04-18T07:13:14Z</time></trkpt><trkpt lat="39.479639042539354" lon="9.49804030795696"><ele>36.0</ele><time>2026-04-18T07:13:15Z</time></trkpt><trkpt lat="39.47964223043343" lon="9.497821017833209"><ele>36.0</ele><time>2026-04-18T07:13:16Z</time></trkpt><trkpt lat="39.47964866010921" lon="9.497600601599078"><ele>36.333333333333336</ele><time>2026-04-18T07:13:17Z</time></trkpt><trkpt lat="39.47965924410546" lon="9.497378475542561"><ele>36.66666666666667</ele><time>2026-04-18T07:13:18Z</time></trkpt><trkpt lat="39.47967504171201" lon="9.497160183562059"><ele>37.0</ele><time>2026-04-18T07:13:19Z</time></trkpt><trkpt lat="39.47969506442307" lon="9.496939765417107"><ele>37.66666666666667</ele><time>2026-04-18T07:13:20Z</time></trkpt><trkpt lat="39.47971624116844" lon="9.496722168140222"><ele>38.333333333333336</ele><time>2026-04-18T07:13:21Z</time></trkpt><trkpt lat="39.47973176594013" lon="9.496501978555212"><ele>39.0</ele><time>2026-04-18T07:13:22Z</time></trkpt><trkpt lat="39.47974521822009" lon="9.496279980112508"><ele>40.333333333333336</ele><time>2026-04-18T07:13:23Z</time></trkpt><trkpt lat="39.47976569859432" lon="9.496059032318788"><ele>41.66666666666667</ele><time>2026-04-18T07:13:24Z</time></trkpt><trkpt lat="39.47978769929258" lon="9.49583806062394"><ele>43.0</ele><time>2026-04-18T07:13:25Z</time></trkpt><trkpt lat="39.479808811607306" lon="9.495615537387549"><ele>43.66666666666667</ele><time>2026-04-18T07:13:26Z</time></trkpt><trkpt lat="39.47982995611097" lon="9.495395211379785"><ele>44.333333333333336</ele><time>2026-04-18T07:13:27Z</time></trkpt><trkpt lat="39.47985128233273" lon="9.495172996490773"><ele>45.0</ele><time>2026-04-18T07:13:28Z</time></trkpt><trkpt lat="39.479870239318124" lon="9.494951174065932"><ele>45.0</ele><time>2026-04-18T07:13:29Z</time></trkpt><trkpt lat="39.47989006253386" lon="9.494726386576106"><ele>45.0</ele><time>2026-04-18T07:13:30Z</time></trkpt><trkpt lat="39.47990776235373" lon="9.49450088555456"><ele>45.0</ele><time>2026-04-18T07:13:31Z</time></trkpt><trkpt lat="39.47992376887127" lon="9.494271345136818"><ele>45.666666666666664</ele><time>2026-04-18T07:13:32Z</time></trkpt><trkpt lat="39.479941209121634" lon="9.49403983166382"><ele>46.33333333333333</ele><time>2026-04-18T07:13:33Z</time></trkpt><trkpt lat="39.47995522976171" lon="9.493807303820839"><ele>47.0</ele><time>2026-04-18T07:13:34Z</time></trkpt><trkpt lat="39.479960737675924" lon="9.493572249961817"><ele>48.0</ele><time>2026-04-18T07:13:35Z</time></trkpt><trkpt lat="39.47995142090046" lon="9.493335092797532"><ele>49.0</ele><time>2026-04-18T07:13:36Z</time></trkpt><trkpt lat="39.47993758674491" lon="9.493096993066523"><ele>50.0</ele><time>2026-04-18T07:13:37Z</time></trkpt><trkpt lat="39.47989220057612" lon="9.492868727683671"><ele>50.0</ele><time>2026-04-18T07:13:38Z</time></trkpt><trkpt lat="39.479819837773064" lon="9.492649417501955"><ele>50.0</ele><time>2026-04-18T07:13:39Z</time></trkpt><trkpt lat="39.47976359864677" lon="9.49242510539324"><ele>50.0</ele><time>2026-04-18T07:13:40Z</time></trkpt><trkpt lat="39.47970265244849" lon="9.492203115592126"><ele>51.0</ele><time>2026-04-18T07:13:41Z</time></trkpt><trkpt lat="39.47965517617379" lon="9.491978100823438"><ele>52.0</ele><time>2026-04-18T07:13:42Z</time></trkpt><trkpt lat="39.47959580425013" lon="9.491753227801688"><ele>53.0</ele><time>2026-04-18T07:13:43Z</time></trkpt><trkpt lat="39.47953384495965" lon="9.491532058498208"><ele>53.0</ele><time>2026-04-18T07:13:44Z</time></trkpt><trkpt lat="39.47949645189194" lon="9.491299620025226"><ele>53.0</ele><time>2026-04-18T07:13:45Z</time></trkpt><trkpt lat="39.47946826622484" lon="9.491067642361477"><ele>53.0</ele><time>2026-04-18T07:13:46Z</time></trkpt><trkpt lat="39.479455946637415" lon="9.49083530964799"><ele>52.0</ele><time>2026-04-18T07:13:47Z</time></trkpt><trkpt lat="39.47946690167419" lon="9.490599414476511"><ele>51.0</ele><time>2026-04-18T07:13:48Z</time></trkpt><trkpt lat="39.47949784221502" lon="9.49036775999664"><ele>50.0</ele><time>2026-04-18T07:13:49Z</time></trkpt><trkpt lat="39.47954424414754" lon="9.490136015443973"><ele>48.333333333333336</ele><time>2026-04-18T07:13:50Z</time></trkpt><trkpt lat="39.47960996162594" lon="9.489909653471658"><ele>46.66666666666667</ele><time>2026-04-18T07:13:51Z</time></trkpt><trkpt lat="39.479694382800545" lon="9.489694080469176"><ele>45.0</ele><time>2026-04-18T07:13:52Z</time></trkpt><trkpt lat="39.47979734715181" lon="9.489490533690777"><ele>49.0</ele><time>2026-04-18T07:13:53Z</time></trkpt><trkpt lat="39.47991214849111" lon="9.48929791759584"><ele>53.0</ele><time>2026-04-18T07:13:54Z</time></trkpt><trkpt lat="39.48003027930832" lon="9.489106879862145"><ele>57.0</ele><time>2026-04-18T07:13:55Z</time></trkpt><trkpt lat="39.48014854819255" lon="9.48891396279638"><ele>54.0</ele><time>2026-04-18T07:13:56Z</time></trkpt><trkpt lat="39.48027079730597" lon="9.488723630893539"><ele>51.0</ele><time>2026-04-18T07:13:57Z</time></trkpt><trkpt lat="39.48039567761414" lon="9.488537745899535"><ele>48.0</ele><time>2026-04-18T07:13:58Z</time></trkpt><trkpt lat="39.48051483155711" lon="9.488345586663392"><ele>48.0</ele><time>2026-04-18T07:13:59Z</time></trkpt><trkpt lat="39.48061932645733" lon="9.488137022135737"><ele>48.0</ele><time>2026-04-18T07:14:00Z</time></trkpt><trkpt lat="39.48071106861849" lon="9.487921071386776"><ele>48.0</ele><time>2026-04-18T07:14:01Z</time></trkpt><trkpt lat="39.48079149570533" lon="9.48769993315071"><ele>50.33333333333333</ele><time>2026-04-18T07:14:02Z</time></trkpt><trkpt lat="39.48086149908154" lon="9.48746949283874"><ele>52.666666666666664</ele><time>2026-04-18T07:14:03Z</time></trkpt><trkpt lat="39.4809216427723" lon="9.487231468982689"><ele>55.0</ele><time>2026-04-18T07:14:04Z</time></trkpt><trkpt lat="39.480966449616815" lon="9.486989449468746"><ele>58.33333333333333</ele><time>2026-04-18T07:14:05Z</time></trkpt><trkpt lat="39.48099795611025" lon="9.486742066433893"><ele>61.66666666666667</ele><time>2026-04-18T07:14:06Z</time></trkpt><trkpt lat="39.48104728274505" lon="9.48649512351936"><ele>65.0</ele><time>2026-04-18T07:14:07Z</time></trkpt><trkpt lat="39.48108832337975" lon="9.486248780338569"><ele>67.33333333333334</ele><time>2026-04-18T07:14:08Z</time></trkpt><trkpt lat="39.481129293997796" lon="9.485998047578262"><ele>69.66666666666667</ele><time>2026-04-18T07:14:09Z</time></trkpt><trkpt lat="39.481201779404024" lon="9.48576207253736"><ele>72.0</ele><time>2026-04-18T07:14:10Z</time></trkpt><trkpt lat="39.48128634575717" lon="9.485527789473643"><ele>67.33333333333333</ele><time>2026-04-18T07:14:11Z</time></trkpt><trkpt lat="39.481380143704186" lon="9.485297668362657"><ele>62.666666666666664</ele><time>2026-04-18T07:14:12Z</time></trkpt><trkpt lat="39.481483949565025" lon="9.485074653525215"><ele>58.0</ele><time>2026-04-18T07:14:13Z</time></trkpt><trkpt lat="39.48160305056757" lon="9.48485933884637"><ele>58.0</ele><time>2026-04-18T07:14:14Z</time></trkpt><trkpt lat="39.481738060616614" lon="9.484659873903189"><ele>58.0</ele><time>2026-04-18T07:14:15Z</time></trkpt><trkpt lat="39.48188887000694" lon="9.484479651079578"><ele>58.0</ele><time>2026-04-18T07:14:16Z</time></trkpt><trkpt lat="39.48204899805126" lon="9.484313151864681"><ele>57.33333333333333</ele><time>2026-04-18T07:14:17Z</time></trkpt><trkpt lat="39.482216732535775" lon="9.484157546076853"><ele>56.66666666666667</ele><time>2026-04-18T07:14:18Z</time></trkpt><trkpt lat="39.48239227431063" lon="9.484014429905013"><ele>56.0</ele><time>2026-04-18T07:14:19Z</time></trkpt><trkpt lat="39.482571294405325" lon="9.4838841821998"><ele>58.66666666666667</ele><time>2026-04-18T07:14:20Z</time></trkpt><trkpt lat="39.482751413583706" lon="9.483758271595871"><ele>61.33333333333333</ele><time>2026-04-18T07:14:21Z</time></trkpt><trkpt lat="39.48292941990728" lon="9.483629755924804"><ele>64.0</ele><time>2026-04-18T07:14:22Z</time></trkpt><trkpt lat="39.483101282649606" lon="9.483490838221202"><ele>64.0</ele><time>2026-04-18T07:14:23Z</time></trkpt><trkpt lat="39.48326731451396" lon="9.483341651932625"><ele>64.0</ele><time>2026-04-18T07:14:24Z</time></trkpt><trkpt lat="39.483426216241924" lon="9.483181985425295"><ele>64.0</ele><time>2026-04-18T07:14:25Z</time></trkpt><trkpt lat="39.48357218615572" lon="9.483010139141154"><ele>60.0</ele><time>2026-04-18T07:14:26Z</time></trkpt><trkpt lat="39.4837073193957" lon="9.482821859221247"><ele>56.0</ele><time>2026-04-18T07:14:27Z</time></trkpt><trkpt lat="39.48381938985611" lon="9.482617704348396"><ele>52.0</ele><time>2026-04-18T07:14:28Z</time></trkpt><trkpt lat="39.483933824843845" lon="9.482416365400477"><ele>52.0</ele><time>2026-04-18T07:14:29Z</time></trkpt><trkpt lat="39.484022550448806" lon="9.482189494839487"><ele>52.0</ele><time>2026-04-18T07:14:30Z</time></trkpt><trkpt lat="39.48409490587066" lon="9.48196107462845"><ele>52.0</ele><time>2026-04-18T07:14:31Z</time></trkpt><trkpt lat="39.48415189248573" lon="9.4817336093631"><ele>58.33333333333333</ele><time>2026-04-18T07:14:32Z</time></trkpt><trkpt lat="39.48419319393796" lon="9.481515191098461"><ele>64.66666666666667</ele><time>2026-04-18T07:14:33Z</time></trkpt><trkpt lat="39.484220308509606" lon="9.48127007478495"><ele>71.0</ele><time>2026-04-18T07:14:34Z</time></trkpt><trkpt lat="39.484231630757044" lon="9.48101930446691"><ele>73.33333333333334</ele><time>2026-04-18T07:14:35Z</time></trkpt><trkpt lat="39.48422741606523" lon="9.48074994636272"><ele>75.66666666666667</ele><time>2026-04-18T07:14:36Z</time></trkpt><trkpt lat="39.48420004938405" lon="9.480480213077266"><ele>78.0</ele><time>2026-04-18T07:14:37Z</time></trkpt><trkpt lat="39.48415663771292" lon="9.48022933838505"><ele>78.0</ele><time>2026-04-18T07:14:38Z</time></trkpt><trkpt lat="39.48410045950236" lon="9.479987017765469"><ele>78.0</ele><time>2026-04-18T07:14:39Z</time></trkpt><trkpt lat="39.48401815326235" lon="9.479750345964124"><ele>78.0</ele><time>2026-04-18T07:14:40Z</time></trkpt><trkpt lat="39.483952938361696" lon="9.479514031171377"><ele>76.0</ele><time>2026-04-18T07:14:41Z</time></trkpt><trkpt lat="39.483886653592144" lon="9.479278282539074"><ele>74.0</ele><time>2026-04-18T07:14:42Z</time></trkpt><trkpt lat="39.483823133319284" lon="9.47904045409508"><ele>72.0</ele><time>2026-04-18T07:14:43Z</time></trkpt><trkpt lat="39.48376964306273" lon="9.478802478969225"><ele>75.66666666666667</ele><time>2026-04-18T07:14:44Z</time></trkpt><trkpt lat="39.48373127979331" lon="9.478554780010478"><ele>79.33333333333334</ele><time>2026-04-18T07:14:45Z</time></trkpt><trkpt lat="39.483704909693174" lon="9.478304413144537"><ele>83.0</ele><time>2026-04-18T07:14:46Z</time></trkpt><trkpt lat="39.483698462603314" lon="9.478049480290542"><ele>84.0</ele><time>2026-04-18T07:14:47Z</time></trkpt><trkpt lat="39.48371331464462" lon="9.477793585552037"><ele>85.0</ele><time>2026-04-18T07:14:48Z</time></trkpt><trkpt lat="39.48375218961355" lon="9.477537811102312"><ele>86.0</ele><time>2026-04-18T07:14:49Z</time></trkpt><trkpt lat="39.483816650208176" lon="9.477289472622582"><ele>90.0</ele><time>2026-04-18T07:14:50Z</time></trkpt><trkpt lat="39.4839068172822" lon="9.477049721293618"><ele>94.0</ele><time>2026-04-18T07:14:51Z</time></trkpt><trkpt lat="39.484015904152265" lon="9.476824770052593"><ele>98.0</ele><time>2026-04-18T07:14:52Z</time></trkpt><trkpt lat="39.48413614433168" lon="9.47660445571935"><ele>98.0</ele><time>2026-04-18T07:14:53Z</time></trkpt><trkpt lat="39.48426247717118" lon="9.476391690167302"><ele>98.0</ele><time>2026-04-18T07:14:54Z</time></trkpt><trkpt lat="39.48438708111104" lon="9.476179990026054"><ele>98.0</ele><time>2026-04-18T07:14:55Z</time></trkpt><trkpt lat="39.484515223839225" lon="9.475967745709529"><ele>101.0</ele><time>2026-04-18T07:14:56Z</time></trkpt><trkpt lat="39.4846464566162" lon="9.475758329370205"><ele>104.0</ele><time>2026-04-18T07:14:57Z</time></trkpt><trkpt lat="39.48478175190076" lon="9.475554274280405"><ele>107.0</ele><time>2026-04-18T07:14:58Z</time></trkpt><trkpt lat="39.48491812590273" lon="9.475347796820628"><ele>107.0</ele><time>2026-04-18T07:14:59Z</time></trkpt><trkpt lat="39.485051537828745" lon="9.475135644625386"><ele>107.0</ele><time>2026-04-18T07:15:00Z</time></trkpt><trkpt lat="39.48518029514446" lon="9.474922918804033"><ele>107.0</ele><time>2026-04-18T07:15:01Z</time></trkpt><trkpt lat="39.485309276271" lon="9.474715663038044"><ele>105.0</ele><time>2026-04-18T07:15:02Z</time></trkpt><trkpt lat="39.485438221282735" lon="9.474510106755782"><ele>103.0</ele><time>2026-04-18T07:15:03Z</time></trkpt><trkpt lat="39.4855475863003" lon="9.474291032053689"><ele>101.0</ele><time>2026-04-18T07:15:04Z</time></trkpt><trkpt lat="39.485620525574845" lon="9.474049375482197"><ele>101.0</ele><time>2026-04-18T07:15:05Z</time></trkpt><trkpt lat="39.4856580855353" lon="9.473798278860778"><ele>101.0</ele><time>2026-04-18T07:15:06Z</time></trkpt><trkpt lat="39.48565674782893" lon="9.473547744839252"><ele>101.0</ele><time>2026-04-18T07:15:07Z</time></trkpt><trkpt lat="39.48564222717335" lon="9.473293056186863"><ele>100.66666666666666</ele><time>2026-04-18T07:15:08Z</time></trkpt><trkpt lat="39.48557184728624" lon="9.47305161772984"><ele>100.33333333333334</ele><time>2026-04-18T07:15:09Z</time></trkpt><trkpt lat="39.485473027664405" lon="9.472824198076218"><ele>100.0</ele><time>2026-04-18T07:15:10Z</time></trkpt><trkpt lat="39.4853433028835" lon="9.472631079036296"><ele>100.0</ele><time>2026-04-18T07:15:11Z</time></trkpt><trkpt lat="39.48519764297962" lon="9.472474504151359"><ele>100.0</ele><time>2026-04-18T07:15:12Z</time></trkpt><trkpt lat="39.48506304652676" lon="9.47232564331525"><ele>100.0</ele><time>2026-04-18T07:15:13Z</time></trkpt><trkpt lat="39.4849582102657" lon="9.472162360385546"><ele>96.33333333333334</ele><time>2026-04-18T07:15:14Z</time></trkpt><trkpt lat="39.484883797546544" lon="9.471962372269077"><ele>92.66666666666667</ele><time>2026-04-18T07:15:15Z</time></trkpt><trkpt lat="39.48483745805806" lon="9.471734584015044"><ele>89.0</ele><time>2026-04-18T07:15:16Z</time></trkpt><trkpt lat="39.48483489856698" lon="9.471499653901725"><ele>88.0</ele><time>2026-04-18T07:15:17Z</time></trkpt><trkpt lat="39.48486668627297" lon="9.471269267966706"><ele>87.0</ele><time>2026-04-18T07:15:18Z</time></trkpt><trkpt lat="39.48493499137941" lon="9.471055749650194"><ele>86.0</ele><time>2026-04-18T07:15:19Z</time></trkpt><trkpt lat="39.484998259309656" lon="9.470832599756045"><ele>86.0</ele><time>2026-04-18T07:15:20Z</time></trkpt><trkpt lat="39.485080554701845" lon="9.470610266615838"><ele>86.0</ele><time>2026-04-18T07:15:21Z</time></trkpt><trkpt lat="39.485161556866025" lon="9.470379449334173"><ele>86.0</ele><time>2026-04-18T07:15:22Z</time></trkpt><trkpt lat="39.4852424421217" lon="9.470142903748473"><ele>87.0</ele><time>2026-04-18T07:15:23Z</time></trkpt><trkpt lat="39.48530884994224" lon="9.469897575298909"><ele>88.0</ele><time>2026-04-18T07:15:24Z</time></trkpt><trkpt lat="39.48535181019122" lon="9.469641931821243"><ele>89.0</ele><time>2026-04-18T07:15:25Z</time></trkpt><trkpt lat="39.485379364559165" lon="9.46938146546675"><ele>90.66666666666667</ele><time>2026-04-18T07:15:26Z</time></trkpt><trkpt lat="39.48541890061082" lon="9.469119570702892"><ele>92.33333333333333</ele><time>2026-04-18T07:15:27Z</time></trkpt><trkpt lat="39.4854170562637" lon="9.468852855351907"><ele>94.0</ele><time>2026-04-18T07:15:28Z</time></trkpt><trkpt lat="39.48542659430953" lon="9.468586871547123"><ele>94.66666666666666</ele><time>2026-04-18T07:15:29Z</time></trkpt><trkpt lat="39.48542786699492" lon="9.468317066946426"><ele>95.33333333333333</ele><time>2026-04-18T07:15:30Z</time></trkpt><trkpt lat="39.48544790532096" lon="9.468048223485644"><ele>96.0</ele><time>2026-04-18T07:15:31Z</time></trkpt><trkpt lat="39.485453486330115" lon="9.467777456238787"><ele>94.66666666666667</ele><time>2026-04-18T07:15:32Z</time></trkpt><trkpt lat="39.48545070922216" lon="9.46750541174875"><ele>93.33333333333334</ele><time>2026-04-18T07:15:33Z</time></trkpt><trkpt lat="39.485422821164065" lon="9.467235315927976"><ele>92.0</ele><time>2026-04-18T07:15:34Z</time></trkpt><trkpt lat="39.48539709027024" lon="9.466965986184551"><ele>87.33333333333334</ele><time>2026-04-18T07:15:35Z</time></trkpt><trkpt lat="39.48537606909233" lon="9.466693348301263"><ele>82.66666666666667</ele><time>2026-04-18T07:15:36Z</time></trkpt><trkpt lat="39.48533248314712" lon="9.46642594266727"><ele>78.0</ele><time>2026-04-18T07:15:37Z</time></trkpt><trkpt lat="39.485286722233425" lon="9.466157465720853"><ele>73.0</ele><time>2026-04-18T07:15:38Z</time></trkpt><trkpt lat="39.48524041837405" lon="9.465890355480187"><ele>68.0</ele><time>2026-04-18T07:15:39Z</time></trkpt><trkpt lat="39.485193052123975" lon="9.465623955013088"><ele>63.0</ele><time>2026-04-18T07:15:40Z</time></trkpt><trkpt lat="39.485148547691374" lon="9.46536681490891"><ele>60.33333333333333</ele><time>2026-04-18T07:15:41Z</time></trkpt><trkpt lat="39.48510421045051" lon="9.465112977924848"><ele>57.666666666666664</ele><time>2026-04-18T07:15:42Z</time></trkpt><trkpt lat="39.48506042305966" lon="9.464862288872412"><ele>55.0</ele><time>2026-04-18T07:15:43Z</time></trkpt><trkpt lat="39.48501693489237" lon="9.464616248680212"><ele>52.5</ele><time>2026-04-18T07:15:44Z</time></trkpt><trkpt lat="39.48497541774142" lon="9.464372283721316"><ele>50.0</ele><time>2026-04-18T07:15:45Z</time></trkpt><trkpt lat="39.48489599990629" lon="9.4639699979402"><ele>48.333333333333336</ele><time>2026-04-18T07:15:46Z</time></trkpt><trkpt lat="39.48485662187295" lon="9.46369135379676"><ele>46.66666666666667</ele><time>2026-04-18T07:15:47Z</time></trkpt><trkpt lat="39.48485346365677" lon="9.463409709782338"><ele>45.0</ele><time>2026-04-18T07:15:48Z</time></trkpt><trkpt lat="39.48484948817669" lon="9.463127650836805"><ele>44.333333333333336</ele><time>2026-04-18T07:15:49Z</time></trkpt><trkpt lat="39.484860956425464" lon="9.462844408984855"><ele>43.66666666666667</ele><time>2026-04-18T07:15:50Z</time></trkpt><trkpt lat="39.484860218439515" lon="9.462561802854946"><ele>43.0</ele><time>2026-04-18T07:15:51Z</time></trkpt><trkpt lat="39.484882999442725" lon="9.462281931293537"><ele>44.333333333333336</ele><time>2026-04-18T07:15:52Z</time></trkpt><trkpt lat="39.48490419305874" lon="9.462001856088419"><ele>45.666666666666664</ele><time>2026-04-18T07:15:53Z</time></trkpt><trkpt lat="39.48491664807964" lon="9.46171992398957"><ele>47.0</ele><time>2026-04-18T07:15:54Z</time></trkpt><trkpt lat="39.48492796240748" lon="9.46144001467194"><ele>46.33333333333333</ele><time>2026-04-18T07:15:55Z</time></trkpt><trkpt lat="39.4849394848156" lon="9.46116068481126"><ele>45.666666666666664</ele><time>2026-04-18T07:15:56Z</time></trkpt><trkpt lat="39.48495226711447" lon="9.460880827787767"><ele>45.0</ele><time>2026-04-18T07:15:57Z</time></trkpt><trkpt lat="39.484993955257295" lon="9.460609858785265"><ele>46.33333333333333</ele><time>2026-04-18T07:15:58Z</time></trkpt><trkpt lat="39.48503501940509" lon="9.46034105207731"><ele>47.666666666666664</ele><time>2026-04-18T07:15:59Z</time></trkpt><trkpt lat="39.48509883408574" lon="9.460081407903132"><ele>49.0</ele><time>2026-04-18T07:16:00Z</time></trkpt><trkpt lat="39.48517647896901" lon="9.459828685919758"><ele>46.33333333333333</ele><time>2026-04-18T07:16:01Z</time></trkpt><trkpt lat="39.48526435419686" lon="9.459575878162267"><ele>43.666666666666664</ele><time>2026-04-18T07:16:02Z</time></trkpt><trkpt lat="39.485352943063475" lon="9.45932576030541"><ele>41.0</ele><time>2026-04-18T07:16:03Z</time></trkpt><trkpt lat="39.48543259251848" lon="9.459066395521129"><ele>41.0</ele><time>2026-04-18T07:16:04Z</time></trkpt><trkpt lat="39.485521490402476" lon="9.458811605985511"><ele>41.0</ele><time>2026-04-18T07:16:05Z</time></trkpt><trkpt lat="39.48561685332143" lon="9.458558539701523"><ele>41.0</ele><time>2026-04-18T07:16:06Z</time></trkpt><trkpt lat="39.48570618208863" lon="9.458306810787311"><ele>44.0</ele><time>2026-04-18T07:16:07Z</time></trkpt><trkpt lat="39.485801667006136" lon="9.458060135141196"><ele>47.0</ele><time>2026-04-18T07:16:08Z</time></trkpt><trkpt lat="39.48590821443863" lon="9.457824626944554"><ele>50.0</ele><time>2026-04-18T07:16:09Z</time></trkpt><trkpt lat="39.48600728099966" lon="9.457588141149147"><ele>48.5</ele><time>2026-04-18T07:16:10Z</time></trkpt><trkpt lat="39.48606027934137" lon="9.457311470215103"><ele>47.0</ele><time>2026-04-18T07:16:11Z</time></trkpt><trkpt lat="39.48601186684687" lon="9.456996166802275"><ele>47.0</ele><time>2026-04-18T07:16:12Z</time></trkpt><trkpt lat="39.48596094135068" lon="9.456696713475154"><ele>47.0</ele><time>2026-04-18T07:16:13Z</time></trkpt><trkpt lat="39.48594269960627" lon="9.456425952466484"><ele>47.0</ele><time>2026-04-18T07:16:14Z</time></trkpt><trkpt lat="39.48595819938332" lon="9.456150664725117"><ele>45.33333333333333</ele><time>2026-04-18T07:16:15Z</time></trkpt><trkpt lat="39.485962850954806" lon="9.455879753269675"><ele>43.666666666666664</ele><time>2026-04-18T07:16:16Z</time></trkpt><trkpt lat="39.48596205939717" lon="9.455603874031588"><ele>42.0</ele><time>2026-04-18T07:16:17Z</time></trkpt><trkpt lat="39.48596046561862" lon="9.455328823268623"><ele>42.0</ele><time>2026-04-18T07:16:18Z</time></trkpt><trkpt lat="39.485955387596164" lon="9.455054358937755"><ele>42.0</ele><time>2026-04-18T07:16:19Z</time></trkpt><trkpt lat="39.485947403749606" lon="9.454799994135616"><ele>42.0</ele><time>2026-04-18T07:16:20Z</time></trkpt><trkpt lat="39.48593954142384" lon="9.454564718085496"><ele>41.666666666666664</ele><time>2026-04-18T07:16:21Z</time></trkpt><trkpt lat="39.48594320251783" lon="9.454339189249957"><ele>41.33333333333333</ele><time>2026-04-18T07:16:22Z</time></trkpt><trkpt lat="39.48596749984119" lon="9.454125401557151"><ele>41.0</ele><time>2026-04-18T07:16:23Z</time></trkpt><trkpt lat="39.486005487352124" lon="9.453924293794392"><ele>41.0</ele><time>2026-04-18T07:16:24Z</time></trkpt><trkpt lat="39.48607533562328" lon="9.453712558309606"><ele>41.0</ele><time>2026-04-18T07:16:25Z</time></trkpt><trkpt lat="39.48618329406783" lon="9.453508537169686"><ele>41.0</ele><time>2026-04-18T07:16:26Z</time></trkpt><trkpt lat="39.48631087646575" lon="9.453311972153571"><ele>41.0</ele><time>2026-04-18T07:16:27Z</time></trkpt><trkpt lat="39.48645591991585" lon="9.45314738896366"><ele>41.0</ele><time>2026-04-18T07:16:28Z</time></trkpt><trkpt lat="39.48661999941951" lon="9.452999542511336"><ele>41.0</ele><time>2026-04-18T07:16:29Z</time></trkpt><trkpt lat="39.48680301634098" lon="9.452881634486673"><ele>43.33333333333333</ele><time>2026-04-18T07:16:30Z</time></trkpt><trkpt lat="39.48699938273402" lon="9.452795287826959"><ele>45.666666666666664</ele><time>2026-04-18T07:16:31Z</time></trkpt><trkpt lat="39.48720586831958" lon="9.452748009430145"><ele>48.0</ele><time>2026-04-18T07:16:32Z</time></trkpt><trkpt lat="39.48741870475541" lon="9.45274613350433"><ele>48.66666666666667</ele><time>2026-04-18T07:16:33Z</time></trkpt><trkpt lat="39.48762852577539" lon="9.452780339220876"><ele>49.333333333333336</ele><time>2026-04-18T07:16:34Z</time></trkpt><trkpt lat="39.4878339891616" lon="9.452825991232858"><ele>50.0</ele><time>2026-04-18T07:16:35Z</time></trkpt><trkpt lat="39.488038309823736" lon="9.45285627686376"><ele>50.333333333333336</ele><time>2026-04-18T07:16:36Z</time></trkpt><trkpt lat="39.488242492834594" lon="9.452875098958712"><ele>50.66666666666667</ele><time>2026-04-18T07:16:37Z</time></trkpt><trkpt lat="39.48844665216369" lon="9.452898706490489"><ele>51.0</ele><time>2026-04-18T07:16:38Z</time></trkpt><trkpt lat="39.48865135193935" lon="9.452929766281274"><ele>51.0</ele><time>2026-04-18T07:16:39Z</time></trkpt><trkpt lat="39.48885437514023" lon="9.45295501210377"><ele>51.0</ele><time>2026-04-18T07:16:40Z</time></trkpt><trkpt lat="39.4890578772697" lon="9.452957099510257"><ele>51.0</ele><time>2026-04-18T07:16:41Z</time></trkpt><trkpt lat="39.489262181420905" lon="9.452932936675401"><ele>51.0</ele><time>2026-04-18T07:16:42Z</time></trkpt><trkpt lat="39.48946605346119" lon="9.452884644206192"><ele>51.0</ele><time>2026-04-18T07:16:43Z</time></trkpt><trkpt lat="39.48967088678692" lon="9.452818371083607"><ele>51.0</ele><time>2026-04-18T07:16:44Z</time></trkpt><trkpt lat="39.48987885587963" lon="9.45274266244336"><ele>50.66666666666667</ele><time>2026-04-18T07:16:45Z</time></trkpt><trkpt lat="39.490087190980745" lon="9.452659397677355"><ele>50.333333333333336</ele><time>2026-04-18T07:16:46Z</time></trkpt><trkpt lat="39.490299171520384" lon="9.45257643909834"><ele>50.0</ele><time>2026-04-18T07:16:47Z</time></trkpt><trkpt lat="39.49051184917499" lon="9.452495090666503"><ele>48.0</ele><time>2026-04-18T07:16:48Z</time></trkpt><trkpt lat="39.49072675551555" lon="9.452419338260656"><ele>46.0</ele><time>2026-04-18T07:16:49Z</time></trkpt><trkpt lat="39.49094263442477" lon="9.452345743208655"><ele>44.0</ele><time>2026-04-18T07:16:50Z</time></trkpt><trkpt lat="39.49115846369323" lon="9.452275742119149"><ele>43.0</ele><time>2026-04-18T07:16:51Z</time></trkpt><trkpt lat="39.49137671226337" lon="9.452219846060993"><ele>42.0</ele><time>2026-04-18T07:16:52Z</time></trkpt><trkpt lat="39.49159662889419" lon="9.452180942115715"><ele>41.0</ele><time>2026-04-18T07:16:53Z</time></trkpt><trkpt lat="39.49182066456299" lon="9.452156155004495"><ele>41.0</ele><time>2026-04-18T07:16:54Z</time></trkpt><trkpt lat="39.492044539732944" lon="9.452133169493766"><ele>41.0</ele><time>2026-04-18T07:16:55Z</time></trkpt><trkpt lat="39.49226823006171" lon="9.452106690909442"><ele>41.0</ele><time>2026-04-18T07:16:56Z</time></trkpt><trkpt lat="39.492490968614895" lon="9.452076643040616"><ele>44.666666666666664</ele><time>2026-04-18T07:16:57Z</time></trkpt><trkpt lat="39.49271318435288" lon="9.452046342039653"><ele>48.33333333333333</ele><time>2026-04-18T07:16:58Z</time></trkpt><trkpt lat="39.492933698840275" lon="9.452016862231739"><ele>52.0</ele><time>2026-04-18T07:16:59Z</time></trkpt><trkpt lat="39.493155099707714" lon="9.451980335847805"><ele>52.0</ele><time>2026-04-18T07:17:00Z</time></trkpt><trkpt lat="39.49337378945053" lon="9.45192584997423"><ele>52.0</ele><time>2026-04-18T07:17:01Z</time></trkpt><trkpt lat="39.49359141710567" lon="9.451852787441885"><ele>52.0</ele><time>2026-04-18T07:17:02Z</time></trkpt><trkpt lat="39.49380856381755" lon="9.451774329026348"><ele>47.0</ele><time>2026-04-18T07:17:03Z</time></trkpt><trkpt lat="39.494026016340335" lon="9.451697608771473"><ele>42.0</ele><time>2026-04-18T07:17:04Z</time></trkpt><trkpt lat="39.494247633632234" lon="9.45163331904684"><ele>42.0</ele><time>2026-04-18T07:17:05Z</time></trkpt><trkpt lat="39.49446702625722" lon="9.45158404685301"><ele>42.0</ele><time>2026-04-18T07:17:06Z</time></trkpt><trkpt lat="39.49468797214477" lon="9.451558154494458"><ele>42.0</ele><time>2026-04-18T07:17:07Z</time></trkpt><trkpt lat="39.494907622407304" lon="9.451557528410996"><ele>44.0</ele><time>2026-04-18T07:17:08Z</time></trkpt><trkpt lat="39.49512701429801" lon="9.45157349237716"><ele>46.0</ele><time>2026-04-18T07:17:09Z</time></trkpt><trkpt lat="39.49534189889141" lon="9.451594991684114"><ele>48.0</ele><time>2026-04-18T07:17:10Z</time></trkpt><trkpt lat="39.49555385227938" lon="9.451629312765212"><ele>48.33333333333333</ele><time>2026-04-18T07:17:11Z</time></trkpt><trkpt lat="39.49576387376312" lon="9.451672484242541"><ele>48.666666666666664</ele><time>2026-04-18T07:17:12Z</time></trkpt><trkpt lat="39.49597140966679" lon="9.451739667732546"><ele>49.0</ele><time>2026-04-18T07:17:13Z</time></trkpt><trkpt lat="39.49617966692604" lon="9.45181156494311"><ele>52.0</ele><time>2026-04-18T07:17:14Z</time></trkpt><trkpt lat="39.49638222873224" lon="9.451884144312226"><ele>55.0</ele><time>2026-04-18T07:17:15Z</time></trkpt><trkpt lat="39.496591380190154" lon="9.451946643077347"><ele>58.0</ele><time>2026-04-18T07:17:16Z</time></trkpt><trkpt lat="39.496802580164136" lon="9.45199721247071"><ele>58.0</ele><time>2026-04-18T07:17:17Z</time></trkpt><trkpt lat="39.49701384287555" lon="9.452043394580263"><ele>58.0</ele><time>2026-04-18T07:17:18Z</time></trkpt><trkpt lat="39.49722756428204" lon="9.452086357208973"><ele>58.0</ele><time>2026-04-18T07:17:19Z</time></trkpt><trkpt lat="39.497440267439146" lon="9.45212229984634"><ele>56.0</ele><time>2026-04-18T07:17:20Z</time></trkpt><trkpt lat="39.49765367439798" lon="9.452148964077217"><ele>54.0</ele><time>2026-04-18T07:17:21Z</time></trkpt><trkpt lat="39.49786709124727" lon="9.452162675886479"><ele>52.0</ele><time>2026-04-18T07:17:22Z</time></trkpt><trkpt lat="39.49807862010409" lon="9.452168438492587"><ele>52.0</ele><time>2026-04-18T07:17:23Z</time></trkpt><trkpt lat="39.49828933224261" lon="9.452174246762132"><ele>52.0</ele><time>2026-04-18T07:17:24Z</time></trkpt><trkpt lat="39.498497768824116" lon="9.45218033850615"><ele>52.0</ele><time>2026-04-18T07:17:25Z</time></trkpt><trkpt lat="39.49870838278444" lon="9.452179367422906"><ele>53.666666666666664</ele><time>2026-04-18T07:17:26Z</time></trkpt><trkpt lat="39.4989169137224" lon="9.452165978638702"><ele>55.33333333333333</ele><time>2026-04-18T07:17:27Z</time></trkpt><trkpt lat="39.49912680831516" lon="9.452134529360821"><ele>57.0</ele><time>2026-04-18T07:17:28Z</time></trkpt><trkpt lat="39.4993345914102" lon="9.452082740306464"><ele>60.66666666666667</ele><time>2026-04-18T07:17:29Z</time></trkpt><trkpt lat="39.49954246201119" lon="9.452011594631472"><ele>64.33333333333334</ele><time>2026-04-18T07:17:30Z</time></trkpt><trkpt lat="39.499745396589006" lon="9.45191737684194"><ele>68.0</ele><time>2026-04-18T07:17:31Z</time></trkpt><trkpt lat="39.49994189888304" lon="9.451803753703969"><ele>68.0</ele><time>2026-04-18T07:17:32Z</time></trkpt><trkpt lat="39.500133109252154" lon="9.451674869028865"><ele>68.0</ele><time>2026-04-18T07:17:33Z</time></trkpt><trkpt lat="39.50032040932109" lon="9.451537062280615"><ele>68.0</ele><time>2026-04-18T07:17:34Z</time></trkpt><trkpt lat="39.50049953790861" lon="9.451382017173566"><ele>70.0</ele><time>2026-04-18T07:17:35Z</time></trkpt><trkpt lat="39.50066616177398" lon="9.451204315843988"><ele>72.0</ele><time>2026-04-18T07:17:36Z</time></trkpt><trkpt lat="39.500824185837494" lon="9.451019356774877"><ele>74.0</ele><time>2026-04-18T07:17:37Z</time></trkpt><trkpt lat="39.500971073024004" lon="9.450822514092271"><ele>74.0</ele><time>2026-04-18T07:17:38Z</time></trkpt><trkpt lat="39.501105980301354" lon="9.450613554922763"><ele>74.0</ele><time>2026-04-18T07:17:39Z</time></trkpt><trkpt lat="39.50122954768453" lon="9.45039114759321"><ele>74.0</ele><time>2026-04-18T07:17:40Z</time></trkpt><trkpt lat="39.501343482938125" lon="9.450156304944334"><ele>73.66666666666667</ele><time>2026-04-18T07:17:41Z</time></trkpt><trkpt lat="39.50144756161598" lon="9.449917553009977"><ele>73.33333333333333</ele><time>2026-04-18T07:17:42Z</time></trkpt><trkpt lat="39.50153832796837" lon="9.44967100803033"><ele>73.0</ele><time>2026-04-18T07:17:43Z</time></trkpt><trkpt lat="39.50161236083807" lon="9.449410831730875"><ele>73.0</ele><time>2026-04-18T07:17:44Z</time></trkpt><trkpt lat="39.50167027623708" lon="9.449144863064152"><ele>73.0</ele><time>2026-04-18T07:17:45Z</time></trkpt><trkpt lat="39.501717437779675" lon="9.448876388983017"><ele>73.0</ele><time>2026-04-18T07:17:46Z</time></trkpt><trkpt lat="39.50174976153019" lon="9.448601545123777"><ele>77.33333333333333</ele><time>2026-04-18T07:17:47Z</time></trkpt><trkpt lat="39.50177838032792" lon="9.44832565165643"><ele>81.66666666666667</ele><time>2026-04-18T07:17:48Z</time></trkpt><trkpt lat="39.50180772349402" lon="9.448048229219413"><ele>86.0</ele><time>2026-04-18T07:17:49Z</time></trkpt><trkpt lat="39.50183861486351" lon="9.447770181200658"><ele>87.0</ele><time>2026-04-18T07:17:50Z</time></trkpt><trkpt lat="39.50187352745767" lon="9.447492419363249"><ele>88.0</ele><time>2026-04-18T07:17:51Z</time></trkpt><trkpt lat="39.50191069847547" lon="9.447213266970008"><ele>89.0</ele><time>2026-04-18T07:17:52Z</time></trkpt><trkpt lat="39.50194639837059" lon="9.446931400336542"><ele>91.0</ele><time>2026-04-18T07:17:53Z</time></trkpt><trkpt lat="39.50197637986243" lon="9.446645117172949"><ele>93.0</ele><time>2026-04-18T07:17:54Z</time></trkpt><trkpt lat="39.50200504572929" lon="9.446359412102533"><ele>95.0</ele><time>2026-04-18T07:17:55Z</time></trkpt><trkpt lat="39.50203750533135" lon="9.446074726940198"><ele>95.66666666666667</ele><time>2026-04-18T07:17:56Z</time></trkpt><trkpt lat="39.50207149752744" lon="9.445792532832767"><ele>96.33333333333334</ele><time>2026-04-18T07:17:57Z</time></trkpt><trkpt lat="39.502103766981904" lon="9.445509237881133"><ele>97.0</ele><time>2026-04-18T07:17:58Z</time></trkpt><trkpt lat="39.50213365964232" lon="9.445230289964218"><ele>92.0</ele><time>2026-04-18T07:17:59Z</time></trkpt><trkpt lat="39.502164571695886" lon="9.444951500335554"><ele>87.0</ele><time>2026-04-18T07:18:00Z</time></trkpt><trkpt lat="39.502196730694095" lon="9.444674557507252"><ele>82.0</ele><time>2026-04-18T07:18:01Z</time></trkpt><trkpt lat="39.502228423734394" lon="9.444396952486791"><ele>82.0</ele><time>2026-04-18T07:18:02Z</time></trkpt><trkpt lat="39.50225700025219" lon="9.444118469288238"><ele>82.0</ele><time>2026-04-18T07:18:03Z</time></trkpt><trkpt lat="39.50228726069352" lon="9.443840957446767"><ele>82.0</ele><time>2026-04-18T07:18:04Z</time></trkpt><trkpt lat="39.502317220924226" lon="9.443564444869411"><ele>82.66666666666666</ele><time>2026-04-18T07:18:05Z</time></trkpt><trkpt lat="39.50234831269389" lon="9.443286176508451"><ele>83.33333333333333</ele><time>2026-04-18T07:18:06Z</time></trkpt><trkpt lat="39.50238114464231" lon="9.44301196219741"><ele>84.0</ele><time>2026-04-18T07:18:07Z</time></trkpt><trkpt lat="39.50241483503657" lon="9.442733388472032"><ele>84.66666666666667</ele><time>2026-04-18T07:18:08Z</time></trkpt><trkpt lat="39.50244717669438" lon="9.442455048831048"><ele>85.33333333333334</ele><time>2026-04-18T07:18:09Z</time></trkpt><trkpt lat="39.50247903297578" lon="9.442175276247179"><ele>86.0</ele><time>2026-04-18T07:18:10Z</time></trkpt><trkpt lat="39.50251056633432" lon="9.441894402556741"><ele>88.33333333333334</ele><time>2026-04-18T07:18:11Z</time></trkpt><trkpt lat="39.502542924043745" lon="9.44161745976068"><ele>90.66666666666667</ele><time>2026-04-18T07:18:12Z</time></trkpt><trkpt lat="39.502574818824705" lon="9.441335282610375"><ele>93.0</ele><time>2026-04-18T07:18:13Z</time></trkpt><trkpt lat="39.502610561138546" lon="9.441057053310605"><ele>93.33333333333333</ele><time>2026-04-18T07:18:14Z</time></trkpt><trkpt lat="39.5026453469323" lon="9.440777098915694"><ele>93.66666666666666</ele><time>2026-04-18T07:18:15Z</time></trkpt><trkpt lat="39.50268599668933" lon="9.440499900640521"><ele>94.0</ele><time>2026-04-18T07:18:16Z</time></trkpt><trkpt lat="39.50272893298076" lon="9.440221201614618"><ele>94.0</ele><time>2026-04-18T07:18:17Z</time></trkpt><trkpt lat="39.50277911308193" lon="9.43994635666872"><ele>94.0</ele><time>2026-04-18T07:18:18Z</time></trkpt><trkpt lat="39.502829833179575" lon="9.439666327786204"><ele>94.0</ele><time>2026-04-18T07:18:19Z</time></trkpt><trkpt lat="39.502887172856035" lon="9.439386432793388"><ele>96.66666666666666</ele><time>2026-04-18T07:18:20Z</time></trkpt><trkpt lat="39.50294466802127" lon="9.439106566456967"><ele>99.33333333333333</ele><time>2026-04-18T07:18:21Z</time></trkpt><trkpt lat="39.50300589897054" lon="9.438829673573967"><ele>102.0</ele><time>2026-04-18T07:18:22Z</time></trkpt><trkpt lat="39.503071316091415" lon="9.43855315291731"><ele>102.0</ele><time>2026-04-18T07:18:23Z</time></trkpt><trkpt lat="39.503138643033644" lon="9.438275186803436"><ele>102.0</ele><time>2026-04-18T07:18:24Z</time></trkpt><trkpt lat="39.50320746559003" lon="9.438001735821716"><ele>102.0</ele><time>2026-04-18T07:18:25Z</time></trkpt><trkpt lat="39.50327287234564" lon="9.43773342795141"><ele>105.0</ele><time>2026-04-18T07:18:26Z</time></trkpt><trkpt lat="39.50332952735804" lon="9.437475436321735"><ele>108.0</ele><time>2026-04-18T07:18:27Z</time></trkpt><trkpt lat="39.50336524305928" lon="9.43724095577221"><ele>111.0</ele><time>2026-04-18T07:18:28Z</time></trkpt><trkpt lat="39.50338245186675" lon="9.437027314463409"><ele>102.0</ele><time>2026-04-18T07:18:29Z</time></trkpt><trkpt lat="39.50337819540406" lon="9.43684732902919"><ele>93.0</ele><time>2026-04-18T07:18:30Z</time></trkpt><trkpt lat="39.503231539703386" lon="9.436409583073477"><ele>87.66666666666667</ele><time>2026-04-18T07:18:31Z</time></trkpt><trkpt lat="39.50320036641417" lon="9.436130622148363"><ele>82.33333333333334</ele><time>2026-04-18T07:18:32Z</time></trkpt><trkpt lat="39.50314262650545" lon="9.4358486714878"><ele>77.0</ele><time>2026-04-18T07:18:33Z</time></trkpt><trkpt lat="39.50309697193663" lon="9.43557347146484"><ele>75.66666666666667</ele><time>2026-04-18T07:18:34Z</time></trkpt><trkpt lat="39.50306230609811" lon="9.435298315347694"><ele>74.33333333333333</ele><time>2026-04-18T07:18:35Z</time></trkpt><trkpt lat="39.50306436611134" lon="9.435019661096517"><ele>73.0</ele><time>2026-04-18T07:18:36Z</time></trkpt><trkpt lat="39.50308178583009" lon="9.434739876507013"><ele>74.33333333333333</ele><time>2026-04-18T07:18:37Z</time></trkpt><trkpt lat="39.50312614681392" lon="9.434459872116006"><ele>75.66666666666667</ele><time>2026-04-18T07:18:38Z</time></trkpt><trkpt lat="39.503177023736704" lon="9.434188018772497"><ele>77.0</ele><time>2026-04-18T07:18:39Z</time></trkpt><trkpt lat="39.50325817992814" lon="9.4339288812995"><ele>80.33333333333334</ele><time>2026-04-18T07:18:40Z</time></trkpt><trkpt lat="39.50335183187196" lon="9.433673174216997"><ele>83.66666666666667</ele><time>2026-04-18T07:18:41Z</time></trkpt><trkpt lat="39.50343660981785" lon="9.433414550617531"><ele>87.0</ele><time>2026-04-18T07:18:42Z</time></trkpt><trkpt lat="39.503513347146026" lon="9.433152513014727"><ele>89.66666666666667</ele><time>2026-04-18T07:18:43Z</time></trkpt><trkpt lat="39.50358497928373" lon="9.43288801802814"><ele>92.33333333333334</ele><time>2026-04-18T07:18:44Z</time></trkpt><trkpt lat="39.503648642492145" lon="9.432621962925504"><ele>95.0</ele><time>2026-04-18T07:18:45Z</time></trkpt><trkpt lat="39.503690421990996" lon="9.43235039285997"><ele>93.33333333333334</ele><time>2026-04-18T07:18:46Z</time></trkpt><trkpt lat="39.50371019240911" lon="9.432073365951664"><ele>91.66666666666667</ele><time>2026-04-18T07:18:47Z</time></trkpt><trkpt lat="39.5036991813915" lon="9.43179563597705"><ele>90.0</ele><time>2026-04-18T07:18:48Z</time></trkpt><trkpt lat="39.5036769918137" lon="9.431514181648177"><ele>86.0</ele><time>2026-04-18T07:18:49Z</time></trkpt><trkpt lat="39.50364607687545" lon="9.431233716766528"><ele>82.0</ele><time>2026-04-18T07:18:50Z</time></trkpt><trkpt lat="39.50361998017836" lon="9.430954135727708"><ele>78.0</ele><time>2026-04-18T07:18:51Z</time></trkpt><trkpt lat="39.50359351798913" lon="9.43067220960021"><ele>77.0</ele><time>2026-04-18T07:18:52Z</time></trkpt><trkpt lat="39.503567877241075" lon="9.430384417368456"><ele>76.0</ele><time>2026-04-18T07:18:53Z</time></trkpt><trkpt lat="39.503547334034096" lon="9.430095850295187"><ele>75.0</ele><time>2026-04-18T07:18:54Z</time></trkpt><trkpt lat="39.503529357139364" lon="9.429809881593615"><ele>76.66666666666667</ele><time>2026-04-18T07:18:55Z</time></trkpt><trkpt lat="39.50351186995724" lon="9.429520387181231"><ele>78.33333333333334</ele><time>2026-04-18T07:18:56Z</time></trkpt><trkpt lat="39.5034868711979" lon="9.42923125049326"><ele>80.0</ele><time>2026-04-18T07:18:57Z</time></trkpt><trkpt lat="39.5034600548362" lon="9.428944291247674"><ele>82.33333333333334</ele><time>2026-04-18T07:18:58Z</time></trkpt><trkpt lat="39.50343814193535" lon="9.428654206694263"><ele>84.66666666666667</ele><time>2026-04-18T07:18:59Z</time></trkpt><trkpt lat="39.50342878636714" lon="9.428367540050658"><ele>87.0</ele><time>2026-04-18T07:19:00Z</time></trkpt><trkpt lat="39.50344004936212" lon="9.42807919924402"><ele>87.33333333333333</ele><time>2026-04-18T07:19:01Z</time></trkpt><trkpt lat="39.503483686303504" lon="9.427802179998938"><ele>87.66666666666666</ele><time>2026-04-18T07:19:02Z</time></trkpt><trkpt lat="39.503526862436786" lon="9.4275196494527"><ele>88.0</ele><time>2026-04-18T07:19:03Z</time></trkpt><trkpt lat="39.503588087787335" lon="9.427247630149859"><ele>86.0</ele><time>2026-04-18T07:19:04Z</time></trkpt><trkpt lat="39.503671847880874" lon="9.426980295355394"><ele>84.0</ele><time>2026-04-18T07:19:05Z</time></trkpt><trkpt lat="39.50376598098503" lon="9.426719974370988"><ele>82.0</ele><time>2026-04-18T07:19:06Z</time></trkpt><trkpt lat="39.50387302454709" lon="9.426469546609518"><ele>76.0</ele><time>2026-04-18T07:19:07Z</time></trkpt><trkpt lat="39.50398364219196" lon="9.42622174880505"><ele>70.0</ele><time>2026-04-18T07:19:08Z</time></trkpt><trkpt lat="39.50409016988869" lon="9.425969003245191"><ele>64.0</ele><time>2026-04-18T07:19:09Z</time></trkpt><trkpt lat="39.5041964289138" lon="9.425716677926129"><ele>62.666666666666664</ele><time>2026-04-18T07:19:10Z</time></trkpt><trkpt lat="39.50430295748851" lon="9.425464660341927"><ele>61.33333333333333</ele><time>2026-04-18T07:19:11Z</time></trkpt><trkpt lat="39.50441237385264" lon="9.425213324005387"><ele>60.0</ele><time>2026-04-18T07:19:12Z</time></trkpt><trkpt lat="39.504521240095706" lon="9.424966307223302"><ele>60.66666666666667</ele><time>2026-04-18T07:19:13Z</time></trkpt><trkpt lat="39.50462904778319" lon="9.424719746047305"><ele>61.333333333333336</ele><time>2026-04-18T07:19:14Z</time></trkpt><trkpt lat="39.50473539057642" lon="9.424470357526724"><ele>62.0</ele><time>2026-04-18T07:19:15Z</time></trkpt><trkpt lat="39.50484227984576" lon="9.424216991515351"><ele>71.0</ele><time>2026-04-18T07:19:16Z</time></trkpt><trkpt lat="39.50494983473741" lon="9.423959265657377"><ele>80.0</ele><time>2026-04-18T07:19:17Z</time></trkpt><trkpt lat="39.50505787844131" lon="9.423699785718004"><ele>85.33333333333334</ele><time>2026-04-18T07:19:18Z</time></trkpt><trkpt lat="39.50516742980581" lon="9.423444562081194"><ele>90.66666666666667</ele><time>2026-04-18T07:19:19Z</time></trkpt><trkpt lat="39.50527377631185" lon="9.423189836854174"><ele>96.0</ele><time>2026-04-18T07:19:20Z</time></trkpt><trkpt lat="39.505374026163615" lon="9.422929705863833"><ele>87.66666666666667</ele><time>2026-04-18T07:19:21Z</time></trkpt><trkpt lat="39.50547442162084" lon="9.422673784427896"><ele>79.33333333333334</ele><time>2026-04-18T07:19:22Z</time></trkpt><trkpt lat="39.50557566858513" lon="9.422417262487407"><ele>71.0</ele><time>2026-04-18T07:19:23Z</time></trkpt><trkpt lat="39.50567597280668" lon="9.422162657446775"><ele>73.0</ele><time>2026-04-18T07:19:24Z</time></trkpt><trkpt lat="39.50574657771745" lon="9.421859911266463"><ele>75.0</ele><time>2026-04-18T07:19:25Z</time></trkpt><trkpt lat="39.50582627032926" lon="9.421590411195684"><ele>75.0</ele><time>2026-04-18T07:19:26Z</time></trkpt><trkpt lat="39.5059157419254" lon="9.421328428680866"><ele>75.0</ele><time>2026-04-18T07:19:27Z</time></trkpt><trkpt lat="39.50600543996868" lon="9.42106578971227"><ele>75.0</ele><time>2026-04-18T07:19:28Z</time></trkpt><trkpt lat="39.50609559698991" lon="9.42080877853552"><ele>73.66666666666667</ele><time>2026-04-18T07:19:29Z</time></trkpt><trkpt lat="39.50619799813613" lon="9.420558449838285"><ele>72.33333333333334</ele><time>2026-04-18T07:19:30Z</time></trkpt><trkpt lat="39.50630415130499" lon="9.420311595658259"><ele>71.0</ele><time>2026-04-18T07:19:31Z</time></trkpt><trkpt lat="39.50640666092468" lon="9.420062819427995"><ele>71.0</ele><time>2026-04-18T07:19:32Z</time></trkpt><trkpt lat="39.50652491265883" lon="9.419823328429617"><ele>71.0</ele><time>2026-04-18T07:19:33Z</time></trkpt><trkpt lat="39.506634118896656" lon="9.419583332158998"><ele>71.0</ele><time>2026-04-18T07:19:34Z</time></trkpt><trkpt lat="39.50675212223175" lon="9.419350426245327"><ele>73.66666666666667</ele><time>2026-04-18T07:19:35Z</time></trkpt><trkpt lat="39.506882636589005" lon="9.419124986151681"><ele>76.33333333333333</ele><time>2026-04-18T07:19:36Z</time></trkpt><trkpt lat="39.50701623265313" lon="9.418910413624056"><ele>79.0</ele><time>2026-04-18T07:19:37Z</time></trkpt><trkpt lat="39.5071720390745" lon="9.418720582267957"><ele>79.0</ele><time>2026-04-18T07:19:38Z</time></trkpt><trkpt lat="39.50734433942929" lon="9.41856056042737"><ele>79.0</ele><time>2026-04-18T07:19:39Z</time></trkpt><trkpt lat="39.50753359066874" lon="9.418431078808885"><ele>79.0</ele><time>2026-04-18T07:19:40Z</time></trkpt><trkpt lat="39.507734969790874" lon="9.418332745675704"><ele>77.33333333333333</ele><time>2026-04-18T07:19:41Z</time></trkpt><trkpt lat="39.5079456144606" lon="9.418256984646868"><ele>75.66666666666667</ele><time>2026-04-18T07:19:42Z</time></trkpt><trkpt lat="39.50815435198419" lon="9.41818579856085"><ele>74.0</ele><time>2026-04-18T07:19:43Z</time></trkpt><trkpt lat="39.508360718521764" lon="9.418103070906938"><ele>74.0</ele><time>2026-04-18T07:19:44Z</time></trkpt><trkpt lat="39.508562798587256" lon="9.418004080605643"><ele>74.0</ele><time>2026-04-18T07:19:45Z</time></trkpt><trkpt lat="39.508755788693904" lon="9.417881393637481"><ele>74.0</ele><time>2026-04-18T07:19:46Z</time></trkpt><trkpt lat="39.50893523857461" lon="9.417729059266007"><ele>86.33333333333334</ele><time>2026-04-18T07:19:47Z</time></trkpt><trkpt lat="39.509099857291346" lon="9.417550526022962"><ele>98.66666666666667</ele><time>2026-04-18T07:19:48Z</time></trkpt><trkpt lat="39.5092489152518" lon="9.417356984753312"><ele>111.0</ele><time>2026-04-18T07:19:49Z</time></trkpt><trkpt lat="39.509393268565425" lon="9.417152486444254"><ele>119.66666666666666</ele><time>2026-04-18T07:19:50Z</time></trkpt><trkpt lat="39.50953470107507" lon="9.416951682100128"><ele>128.33333333333331</ele><time>2026-04-18T07:19:51Z</time></trkpt><trkpt lat="39.5096733423415" lon="9.416753409978492"><ele>137.0</ele><time>2026-04-18T07:19:52Z</time></trkpt><trkpt lat="39.50981301002947" lon="9.41654402112349"><ele>141.66666666666666</ele><time>2026-04-18T07:19:53Z</time></trkpt><trkpt lat="39.509938044879064" lon="9.416327347345032"><ele>146.33333333333334</ele><time>2026-04-18T07:19:54.027Z</time></trkpt><trkpt lat="39.510071201204894" lon="9.416120388386094"><ele>151.0</ele><time>2026-04-18T07:19:55.024Z</time></trkpt><trkpt lat="39.510207948267784" lon="9.415912207018188"><ele>81.0</ele><time>2026-04-18T07:19:56.024Z</time></trkpt><trkpt lat="39.510802767658106" lon="9.414062494255182"><ele>83.5</ele><time>2026-04-18T07:20:02.45Z</time></trkpt><trkpt lat="39.51070824921792" lon="9.41375003373329"><ele>86.0</ele><time>2026-04-18T07:20:03.4Z</time></trkpt><trkpt lat="39.51078320792908" lon="9.413498287723588"><ele>86.0</ele><time>2026-04-18T07:20:04.35Z</time></trkpt><trkpt lat="39.51084422497693" lon="9.413242126069061"><ele>86.0</ele><time>2026-04-18T07:20:05.3Z</time></trkpt><trkpt lat="39.51090499418151" lon="9.412988812368535"><ele>86.0</ele><time>2026-04-18T07:20:06.25Z</time></trkpt><trkpt lat="39.510960749103894" lon="9.41273258228259"><ele>88.0</ele><time>2026-04-18T07:20:07.2Z</time></trkpt><trkpt lat="39.51101176300036" lon="9.41248060154846"><ele>90.0</ele><time>2026-04-18T07:20:08.15Z</time></trkpt><trkpt lat="39.51105880124071" lon="9.412223673227404"><ele>92.0</ele><time>2026-04-18T07:20:09.1Z</time></trkpt><trkpt lat="39.5111006452072" lon="9.41196315371914"><ele>92.66666666666667</ele><time>2026-04-18T07:20:10.05Z</time></trkpt><trkpt lat="39.51114247922763" lon="9.411701212680793"><ele>93.33333333333333</ele><time>2026-04-18T07:20:11Z</time></trkpt><trkpt lat="39.5111890495455" lon="9.41142750762373"><ele>94.0</ele><time>2026-04-18T07:20:12Z</time></trkpt><trkpt lat="39.511242444247806" lon="9.411160283834905"><ele>90.66666666666666</ele><time>2026-04-18T07:20:13Z</time></trkpt><trkpt lat="39.511302731213036" lon="9.410895241998666"><ele>87.33333333333333</ele><time>2026-04-18T07:20:14Z</time></trkpt><trkpt lat="39.51137267690294" lon="9.410633913566729"><ele>84.0</ele><time>2026-04-18T07:20:15Z</time></trkpt><trkpt lat="39.51146219969729" lon="9.410383138083965"><ele>84.0</ele><time>2026-04-18T07:20:16Z</time></trkpt><trkpt lat="39.5115719435942" lon="9.410147629979358"><ele>84.0</ele><time>2026-04-18T07:20:17Z</time></trkpt><trkpt lat="39.511705592435646" lon="9.409933471560585"><ele>84.0</ele><time>2026-04-18T07:20:18Z</time></trkpt><trkpt lat="39.5118620834277" lon="9.409747521788605"><ele>86.66666666666667</ele><time>2026-04-18T07:20:19Z</time></trkpt><trkpt lat="39.51203352015209" lon="9.409580663688072"><ele>89.33333333333334</ele><time>2026-04-18T07:20:20Z</time></trkpt><trkpt lat="39.512218886164185" lon="9.409437583539262"><ele>92.0</ele><time>2026-04-18T07:20:21Z</time></trkpt><trkpt lat="39.512411525372215" lon="9.409318525077499"><ele>92.0</ele><time>2026-04-18T07:20:22Z</time></trkpt><trkpt lat="39.51260942009663" lon="9.409212045836686"><ele>92.0</ele><time>2026-04-18T07:20:23Z</time></trkpt><trkpt lat="39.512807851884055" lon="9.40910347434397"><ele>92.0</ele><time>2026-04-18T07:20:24Z</time></trkpt><trkpt lat="39.51300128562313" lon="9.40898921513056"><ele>93.33333333333334</ele><time>2026-04-18T07:20:25Z</time></trkpt><trkpt lat="39.513199007043845" lon="9.40885636907741"><ele>94.66666666666667</ele><time>2026-04-18T07:20:26Z</time></trkpt><trkpt lat="39.51337620123846" lon="9.408726382994043"><ele>96.0</ele><time>2026-04-18T07:20:27Z</time></trkpt><trkpt lat="39.513549718395986" lon="9.408574257033319"><ele>96.0</ele><time>2026-04-18T07:20:28Z</time></trkpt><trkpt lat="39.51371703046226" lon="9.408403622698206"><ele>96.0</ele><time>2026-04-18T07:20:29Z</time></trkpt><trkpt lat="39.513873721242476" lon="9.408216483900876"><ele>96.0</ele><time>2026-04-18T07:20:30Z</time></trkpt><trkpt lat="39.514024187767454" lon="9.408021484836622"><ele>95.66666666666667</ele><time>2026-04-18T07:20:31Z</time></trkpt><trkpt lat="39.51417778286144" lon="9.407831246906339"><ele>95.33333333333334</ele><time>2026-04-18T07:20:32Z</time></trkpt><trkpt lat="39.51434148671205" lon="9.407649529437403"><ele>95.0</ele><time>2026-04-18T07:20:33Z</time></trkpt><trkpt lat="39.51451122691375" lon="9.407479439321557"><ele>95.66666666666667</ele><time>2026-04-18T07:20:34Z</time></trkpt><trkpt lat="39.514686662102996" lon="9.407316261115286"><ele>96.33333333333334</ele><time>2026-04-18T07:20:35Z</time></trkpt><trkpt lat="39.5148678640609" lon="9.407157029002073"><ele>97.0</ele><time>2026-04-18T07:20:36Z</time></trkpt><trkpt lat="39.51505156615701" lon="9.407002151365505"><ele>97.0</ele><time>2026-04-18T07:20:37Z</time></trkpt><trkpt lat="39.51523669062964" lon="9.406854058530785"><ele>97.0</ele><time>2026-04-18T07:20:38Z</time></trkpt><trkpt lat="39.51542717753555" lon="9.406712253676938"><ele>97.0</ele><time>2026-04-18T07:20:39Z</time></trkpt><trkpt lat="39.515619503989086" lon="9.406572244055395"><ele>103.0</ele><time>2026-04-18T07:20:40Z</time></trkpt><trkpt lat="39.51580879804669" lon="9.406429398543697"><ele>109.0</ele><time>2026-04-18T07:20:41Z</time></trkpt><trkpt lat="39.515996841913" lon="9.406281354850027"><ele>115.0</ele><time>2026-04-18T07:20:42Z</time></trkpt><trkpt lat="39.51618411781919" lon="9.406140539026302"><ele>122.33333333333334</ele><time>2026-04-18T07:20:43Z</time></trkpt><trkpt lat="39.51637201380371" lon="9.405992743043901"><ele>129.66666666666666</ele><time>2026-04-18T07:20:44Z</time></trkpt><trkpt lat="39.516562017254955" lon="9.405843813184637"><ele>137.0</ele><time>2026-04-18T07:20:45.025Z</time></trkpt><trkpt lat="39.5167492732646" lon="9.405699241766193"><ele>137.0</ele><time>2026-04-18T07:20:46.025Z</time></trkpt><trkpt lat="39.5169362886114" lon="9.40555556479448"><ele>137.0</ele><time>2026-04-18T07:20:47.025Z</time></trkpt><trkpt lat="39.517115112985145" lon="9.405420270008584"><ele>137.0</ele><time>2026-04-18T07:20:47.975Z</time></trkpt><trkpt lat="39.5172854781442" lon="9.405290976067814"><ele>65.0</ele><time>2026-04-18T07:20:48.874Z</time></trkpt><trkpt lat="39.517961990802405" lon="9.404816639065098"><ele>65.0</ele><time>2026-04-18T07:20:52.5Z</time></trkpt><trkpt lat="39.51814592654972" lon="9.404687463908594"><ele>65.0</ele><time>2026-04-18T07:20:53.45Z</time></trkpt><trkpt lat="39.51832802711642" lon="9.404561029499714"><ele>65.0</ele><time>2026-04-18T07:20:54.4Z</time></trkpt><trkpt lat="39.51851763145462" lon="9.404447531341656"><ele>65.0</ele><time>2026-04-18T07:20:55.35Z</time></trkpt><trkpt lat="39.518712402474485" lon="9.404344743922744"><ele>65.0</ele><time>2026-04-18T07:20:56.3Z</time></trkpt><trkpt lat="39.51890954517086" lon="9.404245642762348"><ele>65.0</ele><time>2026-04-18T07:20:57.25Z</time></trkpt><trkpt lat="39.51911291480583" lon="9.40417456432844"><ele>65.0</ele><time>2026-04-18T07:20:58.2Z</time></trkpt><trkpt lat="39.519314121437496" lon="9.404072821513074"><ele>65.0</ele><time>2026-04-18T07:20:59.15Z</time></trkpt><trkpt lat="39.51952305595361" lon="9.4040015766037"><ele>65.0</ele><time>2026-04-18T07:21:00.1Z</time></trkpt><trkpt lat="39.519733849530745" lon="9.403938327566138"><ele>65.0</ele><time>2026-04-18T07:21:01.05Z</time></trkpt><trkpt lat="39.51994580112791" lon="9.403882855024152"><ele>65.0</ele><time>2026-04-18T07:21:02Z</time></trkpt><trkpt lat="39.52016904872043" lon="9.403829226131473"><ele>65.0</ele><time>2026-04-18T07:21:03Z</time></trkpt><trkpt lat="39.5203965264073" lon="9.4037816273242"><ele>69.5</ele><time>2026-04-18T07:21:04Z</time></trkpt><trkpt lat="39.520622130259554" lon="9.403744796865418"><ele>74.0</ele><time>2026-04-18T07:21:05Z</time></trkpt><trkpt lat="39.520846386608916" lon="9.403705777281337"><ele>74.0</ele><time>2026-04-18T07:21:06Z</time></trkpt><trkpt lat="39.5210708475439" lon="9.403665172495847"><ele>74.0</ele><time>2026-04-18T07:21:07Z</time></trkpt><trkpt lat="39.52129520273228" lon="9.403625708699677"><ele>77.0</ele><time>2026-04-18T07:21:08Z</time></trkpt><trkpt lat="39.52152090978228" lon="9.40358583925392"><ele>80.0</ele><time>2026-04-18T07:21:09Z</time></trkpt><trkpt lat="39.5217440365646" lon="9.403548229257972"><ele>80.0</ele><time>2026-04-18T07:21:10Z</time></trkpt><trkpt lat="39.52196779882528" lon="9.403510406743822"><ele>80.0</ele><time>2026-04-18T07:21:11Z</time></trkpt><trkpt lat="39.52218551529356" lon="9.4034723366492"><ele>80.0</ele><time>2026-04-18T07:21:12Z</time></trkpt><trkpt lat="39.522405598508406" lon="9.403433294537225"><ele>78.33333333333334</ele><time>2026-04-18T07:21:13Z</time></trkpt><trkpt lat="39.52262017492829" lon="9.403396401829868"><ele>76.66666666666667</ele><time>2026-04-18T07:21:14Z</time></trkpt><trkpt lat="39.52283758194897" lon="9.403359656086698"><ele>75.0</ele><time>2026-04-18T07:21:15Z</time></trkpt><trkpt lat="39.52305142688803" lon="9.403323580444571"><ele>73.66666666666667</ele><time>2026-04-18T07:21:16Z</time></trkpt><trkpt lat="39.52327069056229" lon="9.40328717136065"><ele>72.33333333333334</ele><time>2026-04-18T07:21:17Z</time></trkpt><trkpt lat="39.52348600554187" lon="9.40325098389619"><ele>71.0</ele><time>2026-04-18T07:21:18Z</time></trkpt><trkpt lat="39.523703435559696" lon="9.403216366769408"><ele>72.0</ele><time>2026-04-18T07:21:19Z</time></trkpt><trkpt lat="39.52392131404767" lon="9.403185350981909"><ele>73.0</ele><time>2026-04-18T07:21:20Z</time></trkpt><trkpt lat="39.52413966348294" lon="9.403166663673167"><ele>74.0</ele><time>2026-04-18T07:21:21Z</time></trkpt><trkpt lat="39.524359132008755" lon="9.403162900015253"><ele>75.66666666666667</ele><time>2026-04-18T07:21:22Z</time></trkpt><trkpt lat="39.524581688396644" lon="9.403167379392128"><ele>77.33333333333333</ele><time>2026-04-18T07:21:23Z</time></trkpt><trkpt lat="39.52479977913909" lon="9.403173610519767"><ele>79.0</ele><time>2026-04-18T07:21:24Z</time></trkpt><trkpt lat="39.525021534527156" lon="9.403185826171155"><ele>79.0</ele><time>2026-04-18T07:21:25Z</time></trkpt><trkpt lat="39.52524261708602" lon="9.403210274132485"><ele>79.0</ele><time>2026-04-18T07:21:26Z</time></trkpt><trkpt lat="39.52545895697426" lon="9.403246816628421"><ele>79.0</ele><time>2026-04-18T07:21:27Z</time></trkpt><trkpt lat="39.52567670316028" lon="9.403289356844734"><ele>80.0</ele><time>2026-04-18T07:21:28Z</time></trkpt><trkpt lat="39.525893886686625" lon="9.403334407365254"><ele>81.0</ele><time>2026-04-18T07:21:29Z</time></trkpt><trkpt lat="39.5261096088196" lon="9.40338179882691"><ele>82.0</ele><time>2026-04-18T07:21:30Z</time></trkpt><trkpt lat="39.52632278352703" lon="9.403430665135609"><ele>83.33333333333333</ele><time>2026-04-18T07:21:31Z</time></trkpt><trkpt lat="39.52653556472052" lon="9.403482186093527"><ele>84.66666666666667</ele><time>2026-04-18T07:21:32Z</time></trkpt><trkpt lat="39.52674938094686" lon="9.4035307873542"><ele>86.0</ele><time>2026-04-18T07:21:33Z</time></trkpt><trkpt lat="39.52696389293964" lon="9.403575436623196"><ele>86.66666666666667</ele><time>2026-04-18T07:21:34Z</time></trkpt><trkpt lat="39.5271767316801" lon="9.403618907209855"><ele>87.33333333333333</ele><time>2026-04-18T07:21:35Z</time></trkpt><trkpt lat="39.52739141396383" lon="9.403658766792706"><ele>88.0</ele><time>2026-04-18T07:21:36Z</time></trkpt><trkpt lat="39.52760535984942" lon="9.403694765128325"><ele>88.0</ele><time>2026-04-18T07:21:37Z</time></trkpt><trkpt lat="39.527819014287594" lon="9.403720441021122"><ele>88.0</ele><time>2026-04-18T07:21:38Z</time></trkpt><trkpt lat="39.528030487419294" lon="9.40373225301074"><ele>88.0</ele><time>2026-04-18T07:21:39Z</time></trkpt><trkpt lat="39.52824549355438" lon="9.403732520412692"><ele>89.0</ele><time>2026-04-18T07:21:40Z</time></trkpt><trkpt lat="39.52846209244046" lon="9.403730239250946"><ele>90.0</ele><time>2026-04-18T07:21:41Z</time></trkpt><trkpt lat="39.52867770493413" lon="9.403717954366575"><ele>91.0</ele><time>2026-04-18T07:21:42Z</time></trkpt><trkpt lat="39.528890594679176" lon="9.403694274147652"><ele>93.33333333333333</ele><time>2026-04-18T07:21:43Z</time></trkpt><trkpt lat="39.529103732081914" lon="9.403657952370201"><ele>95.66666666666666</ele><time>2026-04-18T07:21:44Z</time></trkpt><trkpt lat="39.5293108381213" lon="9.403608732058268"><ele>98.0</ele><time>2026-04-18T07:21:45Z</time></trkpt><trkpt lat="39.52952106271286" lon="9.403551735663806"><ele>95.0</ele><time>2026-04-18T07:21:46Z</time></trkpt><trkpt lat="39.529727559807085" lon="9.40348646193652"><ele>92.0</ele><time>2026-04-18T07:21:47Z</time></trkpt><trkpt lat="39.52993629532896" lon="9.403448831301972"><ele>89.0</ele><time>2026-04-18T07:21:48Z</time></trkpt><trkpt lat="39.530134461234" lon="9.403320599178137"><ele>89.0</ele><time>2026-04-18T07:21:49Z</time></trkpt><trkpt lat="39.530332080294" lon="9.403220201564077"><ele>89.0</ele><time>2026-04-18T07:21:50Z</time></trkpt><trkpt lat="39.53052649207908" lon="9.403108423179136"><ele>89.0</ele><time>2026-04-18T07:21:51Z</time></trkpt><trkpt lat="39.53071955144148" lon="9.40299080172425"><ele>84.66666666666667</ele><time>2026-04-18T07:21:52Z</time></trkpt><trkpt lat="39.5309115464249" lon="9.402862765814724"><ele>80.33333333333333</ele><time>2026-04-18T07:21:53Z</time></trkpt><trkpt lat="39.531097888989706" lon="9.40272656686738"><ele>76.0</ele><time>2026-04-18T07:21:54Z</time></trkpt><trkpt lat="39.531278343330186" lon="9.402579956239215"><ele>76.0</ele><time>2026-04-18T07:21:55Z</time></trkpt><trkpt lat="39.53145229894825" lon="9.402420408341634"><ele>76.0</ele><time>2026-04-18T07:21:56Z</time></trkpt><trkpt lat="39.53162044984863" lon="9.40225315135901"><ele>76.0</ele><time>2026-04-18T07:21:57Z</time></trkpt><trkpt lat="39.53178402775749" lon="9.402079564142051"><ele>75.0</ele><time>2026-04-18T07:21:58Z</time></trkpt><trkpt lat="39.53194774379114" lon="9.401898874098688"><ele>74.0</ele><time>2026-04-18T07:21:59Z</time></trkpt><trkpt lat="39.53211054037765" lon="9.401707199399313"><ele>73.0</ele><time>2026-04-18T07:22:00Z</time></trkpt><trkpt lat="39.53226746093459" lon="9.401506785482203"><ele>75.0</ele><time>2026-04-18T07:22:01Z</time></trkpt><trkpt lat="39.532421132777145" lon="9.401300219704487"><ele>77.0</ele><time>2026-04-18T07:22:02Z</time></trkpt><trkpt lat="39.53257572967286" lon="9.401091831866148"><ele>79.0</ele><time>2026-04-18T07:22:03Z</time></trkpt><trkpt lat="39.53273120681941" lon="9.400884016650034"><ele>79.0</ele><time>2026-04-18T07:22:04Z</time></trkpt><trkpt lat="39.53281541940919" lon="9.400746526397532"><ele>79.0</ele><time>2026-04-18T07:22:05Z</time></trkpt><trkpt lat="39.53296426976245" lon="9.400502806062645"><ele>79.0</ele><time>2026-04-18T07:22:06Z</time></trkpt><trkpt lat="39.53309452997899" lon="9.400301569137383"><ele>80.66666666666666</ele><time>2026-04-18T07:22:07Z</time></trkpt><trkpt lat="39.53322653547134" lon="9.400098100588894"><ele>82.33333333333333</ele><time>2026-04-18T07:22:08Z</time></trkpt><trkpt lat="39.53335982255352" lon="9.399894604867255"><ele>84.0</ele><time>2026-04-18T07:22:09Z</time></trkpt><trkpt lat="39.5334948477568" lon="9.39969201436135"><ele>81.66666666666667</ele><time>2026-04-18T07:22:10Z</time></trkpt><trkpt lat="39.5336275419782" lon="9.399489999437591"><ele>79.33333333333334</ele><time>2026-04-18T07:22:11Z</time></trkpt><trkpt lat="39.53376076957908" lon="9.399287689361039"><ele>77.0</ele><time>2026-04-18T07:22:12Z</time></trkpt><trkpt lat="39.53389260058479" lon="9.399086152168582"><ele>77.0</ele><time>2026-04-18T07:22:13Z</time></trkpt><trkpt lat="39.534024522545394" lon="9.398882515065056"><ele>77.0</ele><time>2026-04-18T07:22:14Z</time></trkpt><trkpt lat="39.53415590962743" lon="9.398680141439115"><ele>77.0</ele><time>2026-04-18T07:22:15Z</time></trkpt><trkpt lat="39.534289250887745" lon="9.398477585884935"><ele>74.0</ele><time>2026-04-18T07:22:16Z</time></trkpt><trkpt lat="39.534424871693645" lon="9.398274352881542"><ele>71.0</ele><time>2026-04-18T07:22:17Z</time></trkpt><trkpt lat="39.53456056235034" lon="9.39806857695123"><ele>68.0</ele><time>2026-04-18T07:22:18Z</time></trkpt><trkpt lat="39.534694268914684" lon="9.397862583218705"><ele>68.0</ele><time>2026-04-18T07:22:19Z</time></trkpt><trkpt lat="39.534828036228525" lon="9.3976547302643"><ele>68.0</ele><time>2026-04-18T07:22:20Z</time></trkpt><trkpt lat="39.53496203242812" lon="9.397447625828175"><ele>68.0</ele><time>2026-04-18T07:22:21Z</time></trkpt><trkpt lat="39.53509928427785" lon="9.397239924154304"><ele>71.33333333333334</ele><time>2026-04-18T07:22:22Z</time></trkpt><trkpt lat="39.53523949369989" lon="9.397030677039261"><ele>74.66666666666667</ele><time>2026-04-18T07:22:23Z</time></trkpt><trkpt lat="39.53537924110997" lon="9.396818726269625"><ele>78.0</ele><time>2026-04-18T07:22:24Z</time></trkpt><trkpt lat="39.53551112910443" lon="9.396612173971036"><ele>78.66666666666667</ele><time>2026-04-18T07:22:25Z</time></trkpt><trkpt lat="39.53564864813322" lon="9.396397373611242"><ele>79.33333333333334</ele><time>2026-04-18T07:22:26Z</time></trkpt><trkpt lat="39.53578476063125" lon="9.396183364372131"><ele>80.0</ele><time>2026-04-18T07:22:27Z</time></trkpt><trkpt lat="39.53592359077943" lon="9.395971906569349"><ele>86.33333333333334</ele><time>2026-04-18T07:22:28Z</time></trkpt><trkpt lat="39.53606614401216" lon="9.39576077895498"><ele>92.66666666666667</ele><time>2026-04-18T07:22:29Z</time></trkpt><trkpt lat="39.53621326675211" lon="9.395556476607116"><ele>99.0</ele><time>2026-04-18T07:22:30Z</time></trkpt><trkpt lat="39.536363142490096" lon="9.395362135452368"><ele>105.66666666666666</ele><time>2026-04-18T07:22:31Z</time></trkpt><trkpt lat="39.5365231714127" lon="9.395180847498303"><ele>112.33333333333333</ele><time>2026-04-18T07:22:32Z</time></trkpt><trkpt lat="39.53669763310158" lon="9.39502804501188"><ele>119.0</ele><time>2026-04-18T07:22:33Z</time></trkpt><trkpt lat="39.53687749351741" lon="9.394879453744826"><ele>120.33333333333333</ele><time>2026-04-18T07:22:34Z</time></trkpt><trkpt lat="39.53705731980917" lon="9.394729000517621"><ele>121.66666666666666</ele><time>2026-04-18T07:22:35Z</time></trkpt><trkpt lat="39.53723882531904" lon="9.394575315199864"><ele>123.0</ele><time>2026-04-18T07:22:36Z</time></trkpt><trkpt lat="39.537422515016125" lon="9.394420921136703"><ele>123.0</ele><time>2026-04-18T07:22:37Z</time></trkpt><trkpt lat="39.53756070227847" lon="9.394306814960036"><ele>123.0</ele><time>2026-04-18T07:22:38Z</time></trkpt><trkpt lat="39.53773083073989" lon="9.394167115221418"><ele>123.0</ele><time>2026-04-18T07:22:39Z</time></trkpt><trkpt lat="39.53790180960205" lon="9.394026979883572"><ele>121.66666666666666</ele><time>2026-04-18T07:22:40Z</time></trkpt><trkpt lat="39.53806956193519" lon="9.393884707271832"><ele>120.33333333333333</ele><time>2026-04-18T07:22:41Z</time></trkpt><trkpt lat="39.53823233536266" lon="9.393733182794564"><ele>119.0</ele><time>2026-04-18T07:22:42Z</time></trkpt><trkpt lat="39.53838614102427" lon="9.393569363684382"><ele>120.33333333333333</ele><time>2026-04-18T07:22:43Z</time></trkpt><trkpt lat="39.53852463127238" lon="9.393385938276904"><ele>121.66666666666666</ele><time>2026-04-18T07:22:44Z</time></trkpt><trkpt lat="39.53864088946606" lon="9.393176451812717"><ele>123.0</ele><time>2026-04-18T07:22:45Z</time></trkpt><trkpt lat="39.538731967371085" lon="9.392942479628319"><ele>123.0</ele><time>2026-04-18T07:22:46Z</time></trkpt><trkpt lat="39.53879811561626" lon="9.392696012191365"><ele>123.0</ele><time>2026-04-18T07:22:47Z</time></trkpt><trkpt lat="39.53884606603944" lon="9.392437499138195"><ele>123.0</ele><time>2026-04-18T07:22:48Z</time></trkpt><trkpt lat="39.53888519921365" lon="9.39217365603378"><ele>123.66666666666666</ele><time>2026-04-18T07:22:49Z</time></trkpt><trkpt lat="39.538926350973114" lon="9.39191404290635"><ele>124.33333333333333</ele><time>2026-04-18T07:22:50Z</time></trkpt><trkpt lat="39.538969937322605" lon="9.391654874198371"><ele>125.0</ele><time>2026-04-18T07:22:51Z</time></trkpt><trkpt lat="39.53901295811869" lon="9.391397621788531"><ele>126.0</ele><time>2026-04-18T07:22:52Z</time></trkpt><trkpt lat="39.53905844774009" lon="9.39112796608993"><ele>127.0</ele><time>2026-04-18T07:22:53Z</time></trkpt><trkpt lat="39.539103970691684" lon="9.390865215510205"><ele>128.0</ele><time>2026-04-18T07:22:54Z</time></trkpt><trkpt lat="39.53914968577697" lon="9.390603728754344"><ele>130.0</ele><time>2026-04-18T07:22:55Z</time></trkpt><trkpt lat="39.53919385220878" lon="9.390343999251593"><ele>132.0</ele><time>2026-04-18T07:22:56Z</time></trkpt><trkpt lat="39.53923778651523" lon="9.390083717964734"><ele>134.0</ele><time>2026-04-18T07:22:57Z</time></trkpt><trkpt lat="39.53928162854485" lon="9.389825917031057"><ele>141.33333333333331</ele><time>2026-04-18T07:22:58Z</time></trkpt><trkpt lat="39.5393270267315" lon="9.389570284195015"><ele>148.66666666666666</ele><time>2026-04-18T07:22:59Z</time></trkpt><trkpt lat="39.53937121940103" lon="9.389315139817674"><ele>156.0</ele><time>2026-04-18T07:23:00Z</time></trkpt><trkpt lat="39.53941044522344" lon="9.389059714979181"><ele>160.0</ele><time>2026-04-18T07:23:01Z</time></trkpt><trkpt lat="39.539436454614794" lon="9.38880283905478"><ele>164.0</ele><time>2026-04-18T07:23:02Z</time></trkpt><trkpt lat="39.53944288000204" lon="9.388544062512127"><ele>168.0</ele><time>2026-04-18T07:23:03Z</time></trkpt><trkpt lat="39.539441575026075" lon="9.388284653382982"><ele>168.0</ele><time>2026-04-18T07:23:04Z</time></trkpt><trkpt lat="39.53943921942553" lon="9.38802424600244"><ele>168.0</ele><time>2026-04-18T07:23:05Z</time></trkpt><trkpt lat="39.5394380516739" lon="9.387767607185513"><ele>168.0</ele><time>2026-04-18T07:23:06Z</time></trkpt><trkpt lat="39.539437108115905" lon="9.387508321517172"><ele>168.66666666666666</ele><time>2026-04-18T07:23:07Z</time></trkpt><trkpt lat="39.539435210019725" lon="9.387250969674621"><ele>169.33333333333331</ele><time>2026-04-18T07:23:08Z</time></trkpt><trkpt lat="39.53943243502636" lon="9.386992740193719"><ele>170.0</ele><time>2026-04-18T07:23:09Z</time></trkpt><trkpt lat="39.539430746570986" lon="9.386735380708505"><ele>172.0</ele><time>2026-04-18T07:23:10Z</time></trkpt><trkpt lat="39.53943541700764" lon="9.386478093812114"><ele>174.0</ele><time>2026-04-18T07:23:11Z</time></trkpt><trkpt lat="39.53945289361639" lon="9.38622446940473"><ele>176.0</ele><time>2026-04-18T07:23:12Z</time></trkpt><trkpt lat="39.53948778130923" lon="9.385972085511352"><ele>177.0</ele><time>2026-04-18T07:23:13Z</time></trkpt><trkpt lat="39.539544346596735" lon="9.385729876439198"><ele>178.0</ele><time>2026-04-18T07:23:14Z</time></trkpt><trkpt lat="39.539625549995215" lon="9.385503357041102"><ele>179.0</ele><time>2026-04-18T07:23:15Z</time></trkpt><trkpt lat="39.539728284866264" lon="9.385280960974546"><ele>176.66666666666666</ele><time>2026-04-18T07:23:16Z</time></trkpt><trkpt lat="39.53982981776844" lon="9.385063989267172"><ele>174.33333333333334</ele><time>2026-04-18T07:23:17Z</time></trkpt><trkpt lat="39.539930911807744" lon="9.3848478509121"><ele>172.0</ele><time>2026-04-18T07:23:18Z</time></trkpt><trkpt lat="39.540032089764225" lon="9.38463002887297"><ele>172.0</ele><time>2026-04-18T07:23:19Z</time></trkpt><trkpt lat="39.54013091991229" lon="9.38441041066455"><ele>172.0</ele><time>2026-04-18T07:23:20Z</time></trkpt><trkpt lat="39.540217855492585" lon="9.38418878119869"><ele>172.0</ele><time>2026-04-18T07:23:21Z</time></trkpt><trkpt lat="39.54028881483719" lon="9.383950917226356"><ele>176.33333333333334</ele><time>2026-04-18T07:23:22Z</time></trkpt><trkpt lat="39.54033307785374" lon="9.38370552551207"><ele>180.66666666666666</ele><time>2026-04-18T07:23:23Z</time></trkpt><trkpt lat="39.54035495180574" lon="9.383454799086511"><ele>185.0</ele><time>2026-04-18T07:23:24Z</time></trkpt><trkpt lat="39.540362067613465" lon="9.383202217496393"><ele>167.66666666666666</ele><time>2026-04-18T07:23:25Z</time></trkpt><trkpt lat="39.54038878000437" lon="9.382952745850426"><ele>150.33333333333334</ele><time>2026-04-18T07:23:26Z</time></trkpt><trkpt lat="39.540387311434806" lon="9.382696019976065"><ele>133.0</ele><time>2026-04-18T07:23:27Z</time></trkpt><trkpt lat="39.540408426861795" lon="9.382437230902047"><ele>136.33333333333334</ele><time>2026-04-18T07:23:28Z</time></trkpt><trkpt lat="39.54041645949362" lon="9.382177864657246"><ele>139.66666666666666</ele><time>2026-04-18T07:23:29Z</time></trkpt><trkpt lat="39.54041934569986" lon="9.3819170823736"><ele>143.0</ele><time>2026-04-18T07:23:30Z</time></trkpt><trkpt lat="39.54042674293858" lon="9.381657042200958"><ele>143.0</ele><time>2026-04-18T07:23:31Z</time></trkpt><trkpt lat="39.540445124582924" lon="9.381400541300252"><ele>143.0</ele><time>2026-04-18T07:23:32Z</time></trkpt><trkpt lat="39.54048401972404" lon="9.381151403254165"><ele>143.0</ele><time>2026-04-18T07:23:33Z</time></trkpt><trkpt lat="39.54054765077881" lon="9.380915952164948"><ele>146.66666666666666</ele><time>2026-04-18T07:23:34Z</time></trkpt><trkpt lat="39.54063489246896" lon="9.380699275365822"><ele>150.33333333333334</ele><time>2026-04-18T07:23:35Z</time></trkpt><trkpt lat="39.54075009265738" lon="9.380509328198789"><ele>154.0</ele><time>2026-04-18T07:23:36Z</time></trkpt><trkpt lat="39.54088844838473" lon="9.380351087720529"><ele>156.0</ele><time>2026-04-18T07:23:37Z</time></trkpt><trkpt lat="39.54104409807499" lon="9.380218319007428"><ele>158.0</ele><time>2026-04-18T07:23:38Z</time></trkpt><trkpt lat="39.54120865926221" lon="9.380106011910804"><ele>160.0</ele><time>2026-04-18T07:23:39Z</time></trkpt><trkpt lat="39.5413779953793" lon="9.379997037710842"><ele>160.0</ele><time>2026-04-18T07:23:40Z</time></trkpt><trkpt lat="39.54154530117582" lon="9.379881967674757"><ele>160.0</ele><time>2026-04-18T07:23:41Z</time></trkpt><trkpt lat="39.54170711829727" lon="9.379751999847151"><ele>160.0</ele><time>2026-04-18T07:23:42Z</time></trkpt><trkpt lat="39.541857578448735" lon="9.37960368277077"><ele>157.66666666666669</ele><time>2026-04-18T07:23:43Z</time></trkpt><trkpt lat="39.54198875623883" lon="9.379424149925198"><ele>155.33333333333334</ele><time>2026-04-18T07:23:44Z</time></trkpt><trkpt lat="39.542100052236414" lon="9.379220542395808"><ele>153.0</ele><time>2026-04-18T07:23:45Z</time></trkpt><trkpt lat="39.54218826747005" lon="9.378999728588072"><ele>152.66666666666666</ele><time>2026-04-18T07:23:46Z</time></trkpt><trkpt lat="39.542249295636154" lon="9.378763388052262"><ele>152.33333333333331</ele><time>2026-04-18T07:23:47Z</time></trkpt><trkpt lat="39.54227985054137" lon="9.378518552433697"><ele>152.0</ele><time>2026-04-18T07:23:48Z</time></trkpt><trkpt lat="39.542281378586694" lon="9.378268189369999"><ele>152.0</ele><time>2026-04-18T07:23:49Z</time></trkpt><trkpt lat="39.54225832646676" lon="9.378021664928777"><ele>152.0</ele><time>2026-04-18T07:23:50Z</time></trkpt><trkpt lat="39.54221277987211" lon="9.377785633108646"><ele>152.0</ele><time>2026-04-18T07:23:51Z</time></trkpt><trkpt lat="39.54213399641443" lon="9.377560845713074"><ele>153.0</ele><time>2026-04-18T07:23:52Z</time></trkpt><trkpt lat="39.54202774299718" lon="9.37735586585076"><ele>154.0</ele><time>2026-04-18T07:23:53Z</time></trkpt><trkpt lat="39.54190084141165" lon="9.377167544372389"><ele>155.0</ele><time>2026-04-18T07:23:54Z</time></trkpt><trkpt lat="39.5417558843256" lon="9.377004642560347"><ele>155.0</ele><time>2026-04-18T07:23:55Z</time></trkpt><trkpt lat="39.541595388909876" lon="9.376871437173417"><ele>155.0</ele><time>2026-04-18T07:23:56Z</time></trkpt><trkpt lat="39.54142274229756" lon="9.376761457360285"><ele>155.0</ele><time>2026-04-18T07:23:57Z</time></trkpt><trkpt lat="39.541247386643235" lon="9.37665885699146"><ele>157.33333333333331</ele><time>2026-04-18T07:23:58Z</time></trkpt><trkpt lat="39.5410745050366" lon="9.376549535002207"><ele>159.66666666666666</ele><time>2026-04-18T07:23:59Z</time></trkpt><trkpt lat="39.540912874569734" lon="9.376422294180658"><ele>162.0</ele><time>2026-04-18T07:24:00Z</time></trkpt><trkpt lat="39.5407674926324" lon="9.37627014038497"><ele>162.0</ele><time>2026-04-18T07:24:01Z</time></trkpt><trkpt lat="39.54064138090464" lon="9.376091050226385"><ele>162.0</ele><time>2026-04-18T07:24:02Z</time></trkpt><trkpt lat="39.54054633284755" lon="9.37589227840061"><ele>162.0</ele><time>2026-04-18T07:24:03Z</time></trkpt><trkpt lat="39.54048391438871" lon="9.375682429834276"><ele>159.33333333333334</ele><time>2026-04-18T07:24:04Z</time></trkpt><trkpt lat="39.540454385545445" lon="9.375466735776252"><ele>156.66666666666669</ele><time>2026-04-18T07:24:05Z</time></trkpt><trkpt lat="39.540438207097935" lon="9.375248906302028"><ele>154.0</ele><time>2026-04-18T07:24:06Z</time></trkpt><trkpt lat="39.54046257695176" lon="9.375024181938276"><ele>154.0</ele><time>2026-04-18T07:24:07Z</time></trkpt><trkpt lat="39.54050553070978" lon="9.37480411423427"><ele>154.0</ele><time>2026-04-18T07:24:08Z</time></trkpt><trkpt lat="39.54056345006471" lon="9.37458217324694"><ele>154.0</ele><time>2026-04-18T07:24:09Z</time></trkpt><trkpt lat="39.54062327140266" lon="9.374365002819859"><ele>156.66666666666669</ele><time>2026-04-18T07:24:10Z</time></trkpt><trkpt lat="39.54066607278941" lon="9.374152762743398"><ele>159.33333333333334</ele><time>2026-04-18T07:24:11Z</time></trkpt><trkpt lat="39.540717929558035" lon="9.373954067731722"><ele>162.0</ele><time>2026-04-18T07:24:12Z</time></trkpt><trkpt lat="39.54075249634105" lon="9.37375626617122"><ele>163.0</ele><time>2026-04-18T07:24:13Z</time></trkpt><trkpt lat="39.54077027589842" lon="9.373556186918103"><ele>164.0</ele><time>2026-04-18T07:24:14Z</time></trkpt><trkpt lat="39.54078213987823" lon="9.373347527130292"><ele>165.0</ele><time>2026-04-18T07:24:15Z</time></trkpt><trkpt lat="39.540759752642245" lon="9.373142327240318"><ele>162.66666666666666</ele><time>2026-04-18T07:24:16Z</time></trkpt><trkpt lat="39.54072108891324" lon="9.372941316945772"><ele>160.33333333333331</ele><time>2026-04-18T07:24:17Z</time></trkpt><trkpt lat="39.54067625858205" lon="9.372738734188664"><ele>158.0</ele><time>2026-04-18T07:24:18Z</time></trkpt><trkpt lat="39.54063021540396" lon="9.372537089533479"><ele>158.0</ele><time>2026-04-18T07:24:19Z</time></trkpt><trkpt lat="39.54058805060272" lon="9.37233110891709"><ele>158.0</ele><time>2026-04-18T07:24:20Z</time></trkpt><trkpt lat="39.54054645757958" lon="9.372123649929001"><ele>158.0</ele><time>2026-04-18T07:24:21Z</time></trkpt><trkpt lat="39.54050503850624" lon="9.371914734495196"><ele>158.33333333333331</ele><time>2026-04-18T07:24:22Z</time></trkpt><trkpt lat="39.54045696037676" lon="9.371706546509031"><ele>158.66666666666666</ele><time>2026-04-18T07:24:23Z</time></trkpt><trkpt lat="39.54041405866385" lon="9.371497509216695"><ele>159.0</ele><time>2026-04-18T07:24:24Z</time></trkpt><trkpt lat="39.540369784071665" lon="9.371280349410881"><ele>169.0</ele><time>2026-04-18T07:24:25Z</time></trkpt><trkpt lat="39.540328354077296" lon="9.371061019697"><ele>179.0</ele><time>2026-04-18T07:24:26Z</time></trkpt><trkpt lat="39.54028254048833" lon="9.370847058078894"><ele>189.0</ele><time>2026-04-18T07:24:27Z</time></trkpt><trkpt lat="39.5402377052184" lon="9.370628537622649"><ele>188.0</ele><time>2026-04-18T07:24:28Z</time></trkpt><trkpt lat="39.54019750263035" lon="9.370429273985831"><ele>187.0</ele><time>2026-04-18T07:24:29Z</time></trkpt><trkpt lat="39.54017215475824" lon="9.370212722911125"><ele>186.0</ele><time>2026-04-18T07:24:30Z</time></trkpt><trkpt lat="39.540168926973905" lon="9.369995609194664"><ele>186.0</ele><time>2026-04-18T07:24:31Z</time></trkpt><trkpt lat="39.54018924168753" lon="9.369778455828003"><ele>186.0</ele><time>2026-04-18T07:24:32Z</time></trkpt><trkpt lat="39.540239009451774" lon="9.36956671529051"><ele>186.0</ele><time>2026-04-18T07:24:33Z</time></trkpt><trkpt lat="39.54031236480965" lon="9.369365465744663"><ele>178.66666666666666</ele><time>2026-04-18T07:24:34Z</time></trkpt><trkpt lat="39.54040749487618" lon="9.369175051308124"><ele>171.33333333333331</ele><time>2026-04-18T07:24:35Z</time></trkpt><trkpt lat="39.5405207209085" lon="9.369006606936829"><ele>164.0</ele><time>2026-04-18T07:24:36Z</time></trkpt><trkpt lat="39.54065484934039" lon="9.368868792719336"><ele>172.33333333333331</ele><time>2026-04-18T07:24:37Z</time></trkpt><trkpt lat="39.5408036946594" lon="9.368759316437654"><ele>180.66666666666666</ele><time>2026-04-18T07:24:38Z</time></trkpt><trkpt lat="39.54096131325418" lon="9.368670375883948"><ele>189.0</ele><time>2026-04-18T07:24:39Z</time></trkpt><trkpt lat="39.5411280206501" lon="9.368610214525324"><ele>182.33333333333334</ele><time>2026-04-18T07:24:40Z</time></trkpt><trkpt lat="39.54129948850709" lon="9.368573568182516"><ele>175.66666666666669</ele><time>2026-04-18T07:24:41Z</time></trkpt><trkpt lat="39.541470820705264" lon="9.368543359584814"><ele>169.0</ele><time>2026-04-18T07:24:42Z</time></trkpt><trkpt lat="39.54164144540991" lon="9.368506709478513"><ele>169.0</ele><time>2026-04-18T07:24:43Z</time></trkpt><trkpt lat="39.54180708774001" lon="9.368466010602797"><ele>169.0</ele><time>2026-04-18T07:24:44Z</time></trkpt><trkpt lat="39.54197029220117" lon="9.36842309536645"><ele>169.0</ele><time>2026-04-18T07:24:45Z</time></trkpt><trkpt lat="39.54213107998881" lon="9.368363441196607"><ele>169.33333333333334</ele><time>2026-04-18T07:24:46Z</time></trkpt><trkpt lat="39.54228821134247" lon="9.368267945570677"><ele>169.66666666666666</ele><time>2026-04-18T07:24:47Z</time></trkpt><trkpt lat="39.54243578603011" lon="9.36813955131574"><ele>170.0</ele><time>2026-04-18T07:24:48Z</time></trkpt><trkpt lat="39.54256654763839" lon="9.367988439814491"><ele>170.0</ele><time>2026-04-18T07:24:49Z</time></trkpt><trkpt lat="39.54268555148577" lon="9.367818760837979"><ele>170.0</ele><time>2026-04-18T07:24:50Z</time></trkpt><trkpt lat="39.542786108563334" lon="9.367635724620223"><ele>170.0</ele><time>2026-04-18T07:24:51Z</time></trkpt><trkpt lat="39.54286192928732" lon="9.367440689388644"><ele>165.66666666666666</ele><time>2026-04-18T07:24:52Z</time></trkpt><trkpt lat="39.54291818613771" lon="9.367236905659388"><ele>161.33333333333334</ele><time>2026-04-18T07:24:53Z</time></trkpt><trkpt lat="39.542958702254936" lon="9.367027462830759"><ele>157.0</ele><time>2026-04-18T07:24:54Z</time></trkpt><trkpt lat="39.54298844256975" lon="9.366811077256372"><ele>157.0</ele><time>2026-04-18T07:24:55Z</time></trkpt><trkpt lat="39.54301670696677" lon="9.36659315611119"><ele>157.0</ele><time>2026-04-18T07:24:56Z</time></trkpt><trkpt lat="39.54304833169207" lon="9.366375996937155"><ele>157.0</ele><time>2026-04-18T07:24:57Z</time></trkpt><trkpt lat="39.5430835839675" lon="9.36616024389043"><ele>156.66666666666669</ele><time>2026-04-18T07:24:58Z</time></trkpt><trkpt lat="39.5431211096621" lon="9.36594606392713"><ele>156.33333333333334</ele><time>2026-04-18T07:24:59Z</time></trkpt><trkpt lat="39.54315960226667" lon="9.365730415351162"><ele>156.0</ele><time>2026-04-18T07:25:00Z</time></trkpt><trkpt lat="39.54319273536237" lon="9.365513918811793"><ele>157.33333333333334</ele><time>2026-04-18T07:25:01Z</time></trkpt><trkpt lat="39.54322578766564" lon="9.365298581726407"><ele>158.66666666666669</ele><time>2026-04-18T07:25:02Z</time></trkpt><trkpt lat="39.543267267916775" lon="9.36509196602276"><ele>160.0</ele><time>2026-04-18T07:25:03Z</time></trkpt><trkpt lat="39.543325989251024" lon="9.36490109171378"><ele>160.0</ele><time>2026-04-18T07:25:04Z</time></trkpt><trkpt lat="39.54340461272628" lon="9.364725736063164"><ele>160.0</ele><time>2026-04-18T07:25:05Z</time></trkpt><trkpt lat="39.54350138289965" lon="9.364565562693555"><ele>160.0</ele><time>2026-04-18T07:25:06Z</time></trkpt><trkpt lat="39.543615654484164" lon="9.364419244527001"><ele>157.66666666666669</ele><time>2026-04-18T07:25:07Z</time></trkpt><trkpt lat="39.54374719342838" lon="9.364299467047259"><ele>155.33333333333334</ele><time>2026-04-18T07:25:08Z</time></trkpt><trkpt lat="39.54389197302166" lon="9.364206874482148"><ele>153.0</ele><time>2026-04-18T07:25:09Z</time></trkpt><trkpt lat="39.54404625779119" lon="9.364144529405452"><ele>153.0</ele><time>2026-04-18T07:25:10Z</time></trkpt><trkpt lat="39.544207465488036" lon="9.364105776062072"><ele>153.0</ele><time>2026-04-18T07:25:11Z</time></trkpt><trkpt lat="39.54436990418026" lon="9.364093977976756"><ele>153.0</ele><time>2026-04-18T07:25:12Z</time></trkpt><trkpt lat="39.54453625028368" lon="9.3641118501333"><ele>152.0</ele><time>2026-04-18T07:25:13Z</time></trkpt><trkpt lat="39.544694809101536" lon="9.364181160539195"><ele>151.0</ele><time>2026-04-18T07:25:14Z</time></trkpt><trkpt lat="39.544860419311206" lon="9.364235201393802"><ele>150.0</ele><time>2026-04-18T07:25:15Z</time></trkpt><trkpt lat="39.54501859035936" lon="9.364310099233048"><ele>150.0</ele><time>2026-04-18T07:25:16Z</time></trkpt><trkpt lat="39.54518122927731" lon="9.364360682559123"><ele>150.0</ele><time>2026-04-18T07:25:17Z</time></trkpt><trkpt lat="39.545350243893665" lon="9.364380869612829"><ele>150.0</ele><time>2026-04-18T07:25:18Z</time></trkpt><trkpt lat="39.54552425093715" lon="9.364368376721938"><ele>145.0</ele><time>2026-04-18T07:25:19Z</time></trkpt><trkpt lat="39.545691356785916" lon="9.364319178250494"><ele>140.0</ele><time>2026-04-18T07:25:20Z</time></trkpt><trkpt lat="39.54584647540561" lon="9.364234673049419"><ele>135.0</ele><time>2026-04-18T07:25:21Z</time></trkpt><trkpt lat="39.54598639813992" lon="9.364129895737793"><ele>135.0</ele><time>2026-04-18T07:25:22Z</time></trkpt><trkpt lat="39.546121528234764" lon="9.364025557268175"><ele>135.0</ele><time>2026-04-18T07:25:23Z</time></trkpt><trkpt lat="39.546254240328814" lon="9.36393100180145"><ele>135.0</ele><time>2026-04-18T07:25:24Z</time></trkpt><trkpt lat="39.54638505003319" lon="9.363841395247237"><ele>133.5</ele><time>2026-04-18T07:25:25Z</time></trkpt><trkpt lat="39.54651266056613" lon="9.363750453496182"><ele>132.0</ele><time>2026-04-18T07:25:26Z</time></trkpt><trkpt lat="39.5466377994701" lon="9.36366198213458"><ele>130.5</ele><time>2026-04-18T07:25:27Z</time></trkpt><trkpt lat="39.54676232433462" lon="9.363581249822035"><ele>129.0</ele><time>2026-04-18T07:25:28Z</time></trkpt><trkpt lat="39.54688151889008" lon="9.363504176572906"><ele>129.0</ele><time>2026-04-18T07:25:29Z</time></trkpt><trkpt lat="39.546986858929124" lon="9.363408919036331"><ele>129.0</ele><time>2026-04-18T07:25:30Z</time></trkpt><trkpt lat="39.54706839553048" lon="9.3632812788182"><ele>129.0</ele><time>2026-04-18T07:25:31Z</time></trkpt><trkpt lat="39.547118707328366" lon="9.363130787785536"><ele>129.0</ele><time>2026-04-18T07:25:32Z</time></trkpt><trkpt lat="39.547145039775394" lon="9.362972163804294"><ele>124.75</ele><time>2026-04-18T07:25:33Z</time></trkpt><trkpt lat="39.547168034685086" lon="9.362818799373072"><ele>120.5</ele><time>2026-04-18T07:25:34Z</time></trkpt><trkpt lat="39.547214995290425" lon="9.362675651951019"><ele>116.25</ele><time>2026-04-18T07:25:35Z</time></trkpt><trkpt lat="39.54723344675638" lon="9.362524804131738"><ele>112.0</ele><time>2026-04-18T07:25:36Z</time></trkpt><trkpt lat="39.54726271237275" lon="9.362380627481723"><ele>112.0</ele><time>2026-04-18T07:25:37Z</time></trkpt><trkpt lat="39.54728189617605" lon="9.362239989061178"><ele>111.99999999999999</ele><time>2026-04-18T07:25:38Z</time></trkpt><trkpt lat="39.54730142248629" lon="9.36210191206663"><ele>111.99999999999999</ele><time>2026-04-18T07:25:39Z</time></trkpt><trkpt lat="39.54734452305276" lon="9.361980306755152"><ele>112.0</ele><time>2026-04-18T07:25:40Z</time></trkpt><trkpt lat="39.547417825032724" lon="9.36189144864656"><ele>112.0</ele><time>2026-04-18T07:25:41Z</time></trkpt><trkpt lat="39.54752070711225" lon="9.361879209653294"><ele>112.0</ele><time>2026-04-18T07:25:42Z</time></trkpt><trkpt lat="39.54761560761167" lon="9.361854239365144"><ele>111.99999999999999</ele><time>2026-04-18T07:25:43Z</time></trkpt><trkpt lat="39.54771765078553" lon="9.361875175297422"><ele>111.99999999999999</ele><time>2026-04-18T07:25:44Z</time></trkpt><trkpt lat="39.54782472403339" lon="9.361891364209542"><ele>112.0</ele><time>2026-04-18T07:25:45Z</time></trkpt><trkpt lat="39.54793679241938" lon="9.361911316196677"><ele>112.0</ele><time>2026-04-18T07:25:46Z</time></trkpt><trkpt lat="39.54804757320395" lon="9.361946702503586"><ele>112.0</ele><time>2026-04-18T07:25:47Z</time></trkpt><trkpt lat="39.54815327847019" lon="9.361993742361488"><ele>111.99999999999999</ele><time>2026-04-18T07:25:48Z</time></trkpt><trkpt lat="39.54825931390983" lon="9.362018738848187"><ele>111.99999999999999</ele><time>2026-04-18T07:25:49Z</time></trkpt><trkpt lat="39.54836349000547" lon="9.36200809014209"><ele>112.0</ele><time>2026-04-18T07:25:50Z</time></trkpt><trkpt lat="39.54845769093669" lon="9.361953482294524"><ele>112.0</ele><time>2026-04-18T07:25:51Z</time></trkpt><trkpt lat="39.548531901055696" lon="9.361858356118338"><ele>112.0</ele><time>2026-04-18T07:25:52Z</time></trkpt><trkpt lat="39.54859428553271" lon="9.36175505632438"><ele>111.99999999999999</ele><time>2026-04-18T07:25:53Z</time></trkpt><trkpt lat="39.54865370124573" lon="9.36166590907477"><ele>111.99999999999999</ele><time>2026-04-18T07:25:54Z</time></trkpt><trkpt lat="39.548716671388945" lon="9.361573976277173"><ele>112.0</ele><time>2026-04-18T07:25:55Z</time></trkpt><trkpt lat="39.548759941666475" lon="9.361459866648337"><ele>112.0</ele><time>2026-04-18T07:25:56Z</time></trkpt><trkpt lat="39.548787285321886" lon="9.361324430976135"><ele>108.6</ele><time>2026-04-18T07:25:57Z</time></trkpt><trkpt lat="39.54881118591168" lon="9.361181274062051"><ele>105.19999999999999</ele><time>2026-04-18T07:25:58Z</time></trkpt><trkpt lat="39.54883929086153" lon="9.361036955293196"><ele>101.8</ele><time>2026-04-18T07:25:59Z</time></trkpt><trkpt lat="39.54886309196418" lon="9.360895169113222"><ele>98.4</ele><time>2026-04-18T07:26:00Z</time></trkpt><trkpt lat="39.548853374199055" lon="9.360755398884635"><ele>95.0</ele><time>2026-04-18T07:26:01Z</time></trkpt><trkpt lat="39.54880327568274" lon="9.360625359543024"><ele>94.6</ele><time>2026-04-18T07:26:02Z</time></trkpt><trkpt lat="39.54873938166012" lon="9.36050997843779"><ele>94.2</ele><time>2026-04-18T07:26:03Z</time></trkpt><trkpt lat="39.54867900844168" lon="9.360399501818517"><ele>93.80000000000001</ele><time>2026-04-18T07:26:04Z</time></trkpt><trkpt lat="39.54860598572976" lon="9.360306128439657"><ele>93.4</ele><time>2026-04-18T07:26:05Z</time></trkpt><trkpt lat="39.548513815621526" lon="9.360249040135251"><ele>93.0</ele><time>2026-04-18T07:26:06Z</time></trkpt><trkpt lat="39.54841124864888" lon="9.360229979203035"><ele>93.80000000000001</ele><time>2026-04-18T07:26:07Z</time></trkpt><trkpt lat="39.54831502611896" lon="9.360227672954519"><ele>94.6</ele><time>2026-04-18T07:26:08Z</time></trkpt><trkpt lat="39.54822122825831" lon="9.36021187001109"><ele>95.4</ele><time>2026-04-18T07:26:09Z</time></trkpt><trkpt lat="39.54813502463601" lon="9.36016676206313"><ele>96.19999999999999</ele><time>2026-04-18T07:26:10Z</time></trkpt><trkpt lat="39.54807320538801" lon="9.360069824895277"><ele>97.0</ele><time>2026-04-18T07:26:11Z</time></trkpt><trkpt lat="39.54800906968398" lon="9.35998724892793"><ele>97.00000000000001</ele><time>2026-04-18T07:26:12Z</time></trkpt><trkpt lat="39.54794691745613" lon="9.359905796843005"><ele>97.0</ele><time>2026-04-18T07:26:13Z</time></trkpt><trkpt lat="39.54792054771882" lon="9.359803509328495"><ele>97.0</ele><time>2026-04-18T07:26:14Z</time></trkpt><trkpt lat="39.547935294891396" lon="9.359699155623398"><ele>97.0</ele><time>2026-04-18T07:26:15Z</time></trkpt><trkpt lat="39.547976676336134" lon="9.359624735640281"><ele>97.00000000000001</ele><time>2026-04-18T07:26:16Z</time></trkpt><trkpt lat="39.548038516205146" lon="9.35956007644379"><ele>97.0</ele><time>2026-04-18T07:26:17Z</time></trkpt><trkpt lat="39.54815369390994" lon="9.359511023028658"><ele>97.00000000000001</ele><time>2026-04-18T07:26:19Z</time></trkpt><trkpt lat="39.54820057956427" lon="9.35958206049237"><ele>97.0</ele><time>2026-04-18T07:26:20Z</time></trkpt><trkpt lat="39.5482668757372" lon="9.35964394563968"><ele>97.0</ele><time>2026-04-18T07:26:21Z</time></trkpt><trkpt lat="39.54832126249809" lon="9.359724568820635"><ele>97.0</ele><time>2026-04-18T07:26:22Z</time></trkpt><trkpt lat="39.54838468649066" lon="9.359803797522904"><ele>97.00000000000001</ele><time>2026-04-18T07:26:23Z</time></trkpt><trkpt lat="39.54845641391881" lon="9.359882882817937"><ele>97.0</ele><time>2026-04-18T07:26:24Z</time></trkpt><trkpt lat="39.54852546485053" lon="9.359961715307307"><ele>97.0</ele><time>2026-04-18T07:26:25Z</time></trkpt><trkpt lat="39.54859006525596" lon="9.360032510802029"><ele>97.0</ele><time>2026-04-18T07:26:26Z</time></trkpt><trkpt lat="39.548648224795016" lon="9.360095935634625"><ele>97.0</ele><time>2026-04-18T07:26:27Z</time></trkpt><trkpt lat="39.54870343057142" lon="9.3601593041843"><ele>97.0</ele><time>2026-04-18T07:26:28Z</time></trkpt><trkpt lat="39.54875432529265" lon="9.3602213116344"><ele>97.0</ele><time>2026-04-18T07:26:29Z</time></trkpt><trkpt lat="39.54880263304254" lon="9.3602770711457"><ele>97.0</ele><time>2026-04-18T07:26:30Z</time></trkpt><trkpt lat="39.54885234236843" lon="9.360329444488066"><ele>97.0</ele><time>2026-04-18T07:26:31Z</time></trkpt><trkpt lat="39.548941564981654" lon="9.36043499788803"><ele>96.66666666666667</ele><time>2026-04-18T07:26:33Z</time></trkpt><trkpt lat="39.54903177241033" lon="9.360547626789868"><ele>96.33333333333334</ele><time>2026-04-18T07:26:35Z</time></trkpt><trkpt lat="39.54908195232953" lon="9.360606394455186"><ele>96.0</ele><time>2026-04-18T07:26:36Z</time></trkpt><trkpt lat="39.549132229948704" lon="9.360662199816613"><ele>95.66666666666667</ele><time>2026-04-18T07:26:37Z</time></trkpt><trkpt lat="39.54917770801144" lon="9.360719232880918"><ele>95.33333333333334</ele><time>2026-04-18T07:26:38Z</time></trkpt><trkpt lat="39.549243220667115" lon="9.360826706451762"><ele>95.0</ele><time>2026-04-18T07:26:40Z</time></trkpt><trkpt lat="39.549278668845346" lon="9.360936247472425"><ele>95.0</ele><time>2026-04-18T07:26:42Z</time></trkpt><trkpt lat="39.54929542446874" lon="9.361081174972437"><ele>95.0</ele><time>2026-04-18T07:26:44Z</time></trkpt><trkpt lat="39.54931341779605" lon="9.361219164229473"><ele>95.0</ele><time>2026-04-18T07:26:46Z</time></trkpt><trkpt lat="39.549331650124316" lon="9.361353308454516"><ele>95.0</ele><time>2026-04-18T07:26:48Z</time></trkpt><trkpt lat="39.54935773991232" lon="9.361488250987414"><ele>95.0</ele><time>2026-04-18T07:26:50Z</time></trkpt><trkpt lat="39.54937790314991" lon="9.361633064694225"><ele>95.16666666666667</ele><time>2026-04-18T07:26:52Z</time></trkpt><trkpt lat="39.54939480431498" lon="9.361775409604125"><ele>95.33333333333334</ele><time>2026-04-18T07:26:54Z</time></trkpt><trkpt lat="39.549384571313816" lon="9.361881114815521"><ele>95.5</ele><time>2026-04-18T07:26:56Z</time></trkpt><trkpt lat="39.54938243181521" lon="9.361963274531044"><ele>95.66666666666667</ele><time>2026-04-18T07:26:58Z</time></trkpt><trkpt lat="39.549373773308794" lon="9.362065788848515"><ele>95.83333333333333</ele><time>2026-04-18T07:27:00Z</time></trkpt><trkpt lat="39.54936260117032" lon="9.362173982567551"><ele>96.0</ele><time>2026-04-18T07:27:03Z</time></trkpt><trkpt lat="39.54934739521664" lon="9.362276884439542"><ele>96.6</ele><time>2026-04-18T07:27:06Z</time></trkpt><trkpt lat="39.54932694058654" lon="9.362363119176397"><ele>97.19999999999999</ele><time>2026-04-18T07:27:10Z</time></trkpt><trkpt lat="39.54946445786295" lon="9.36241905139441"><ele>97.80000000000001</ele><time>2026-04-18T07:27:12Z</time></trkpt><trkpt lat="39.54953525403164" lon="9.362398623198283"><ele>98.4</ele><time>2026-04-18T07:27:14Z</time></trkpt><trkpt lat="39.54967171379013" lon="9.362326036456874"><ele>99.0</ele><time>2026-04-18T07:27:16Z</time></trkpt><trkpt lat="39.549779157571486" lon="9.362311129619316"><ele>97.0</ele><time>2026-04-18T07:27:17Z</time></trkpt><trkpt lat="39.54989315373137" lon="9.362273110413312"><ele>95.0</ele><time>2026-04-18T07:27:18Z</time></trkpt><trkpt lat="39.55000844267813" lon="9.3622170319791"><ele>93.0</ele><time>2026-04-18T07:27:19Z</time></trkpt><trkpt lat="39.5501235497731" lon="9.362161285334079"><ele>91.0</ele><time>2026-04-18T07:27:20Z</time></trkpt><trkpt lat="39.5502322199936" lon="9.362110626695394"><ele>90.8</ele><time>2026-04-18T07:27:21Z</time></trkpt><trkpt lat="39.55033353068304" lon="9.362060555245863"><ele>90.6</ele><time>2026-04-18T07:27:22Z</time></trkpt><trkpt lat="39.550427996624485" lon="9.362005814903695"><ele>90.4</ele><time>2026-04-18T07:27:23Z</time></trkpt><trkpt lat="39.550517944383515" lon="9.361945115365504"><ele>90.2</ele><time>2026-04-18T07:27:24Z</time></trkpt><trkpt lat="39.55059885807062" lon="9.361864077385377"><ele>90.0</ele><time>2026-04-18T07:27:25Z</time></trkpt><trkpt lat="39.550674372216996" lon="9.361761287885683"><ele>89.5</ele><time>2026-04-18T07:27:26Z</time></trkpt><trkpt lat="39.55074749773355" lon="9.36164933955627"><ele>89.0</ele><time>2026-04-18T07:27:27Z</time></trkpt><trkpt lat="39.55082397147744" lon="9.361533424064055"><ele>88.5</ele><time>2026-04-18T07:27:28Z</time></trkpt><trkpt lat="39.5509017946" lon="9.361414977073421"><ele>88.0</ele><time>2026-04-18T07:27:29Z</time></trkpt><trkpt lat="39.55098016837807" lon="9.361290225600708"><ele>88.0</ele><time>2026-04-18T07:27:30Z</time></trkpt><trkpt lat="39.551058548420166" lon="9.361163198956117"><ele>88.0</ele><time>2026-04-18T07:27:31Z</time></trkpt><trkpt lat="39.551134620021315" lon="9.361041928259315"><ele>88.0</ele><time>2026-04-18T07:27:32Z</time></trkpt><trkpt lat="39.5512107754334" lon="9.360915705533928"><ele>88.0</ele><time>2026-04-18T07:27:33Z</time></trkpt><trkpt lat="39.55128518787012" lon="9.360781887683995"><ele>87.5</ele><time>2026-04-18T07:27:34Z</time></trkpt><trkpt lat="39.55135764316162" lon="9.360648030059311"><ele>87.0</ele><time>2026-04-18T07:27:35Z</time></trkpt><trkpt lat="39.55142593790312" lon="9.36051095862278"><ele>86.5</ele><time>2026-04-18T07:27:36Z</time></trkpt><trkpt lat="39.5514839171573" lon="9.360362011403854"><ele>86.0</ele><time>2026-04-18T07:27:37Z</time></trkpt><trkpt lat="39.551532258841746" lon="9.360204958613787"><ele>86.0</ele><time>2026-04-18T07:27:38Z</time></trkpt><trkpt lat="39.55158053480719" lon="9.360046088444255"><ele>86.0</ele><time>2026-04-18T07:27:39Z</time></trkpt><trkpt lat="39.55163246680496" lon="9.359886621852157"><ele>86.0</ele><time>2026-04-18T07:27:40Z</time></trkpt><trkpt lat="39.55168085291815" lon="9.359720624604323"><ele>86.0</ele><time>2026-04-18T07:27:41Z</time></trkpt><trkpt lat="39.55173090447856" lon="9.359552915665349"><ele>86.0</ele><time>2026-04-18T07:27:42Z</time></trkpt><trkpt lat="39.55178819333856" lon="9.359386521073546"><ele>86.0</ele><time>2026-04-18T07:27:43Z</time></trkpt><trkpt lat="39.55184744429103" lon="9.359217875275492"><ele>86.0</ele><time>2026-04-18T07:27:44Z</time></trkpt><trkpt lat="39.551902094002244" lon="9.35904458627128"><ele>86.0</ele><time>2026-04-18T07:27:45Z</time></trkpt><trkpt lat="39.551958008623394" lon="9.358869892365535"><ele>86.25</ele><time>2026-04-18T07:27:46Z</time></trkpt><trkpt lat="39.55201298044661" lon="9.358692447789677"><ele>86.5</ele><time>2026-04-18T07:27:47Z</time></trkpt><trkpt lat="39.552070241143724" lon="9.358511956129343"><ele>86.75</ele><time>2026-04-18T07:27:48Z</time></trkpt><trkpt lat="39.55212812500028" lon="9.358333434614908"><ele>87.0</ele><time>2026-04-18T07:27:49Z</time></trkpt><trkpt lat="39.55218685829333" lon="9.358151026152463"><ele>86.33333333333333</ele><time>2026-04-18T07:27:50Z</time></trkpt><trkpt lat="39.552246878639075" lon="9.357968056576729"><ele>85.66666666666666</ele><time>2026-04-18T07:27:51Z</time></trkpt><trkpt lat="39.55230820694573" lon="9.357784518894972"><ele>85.0</ele><time>2026-04-18T07:27:52Z</time></trkpt><trkpt lat="39.55236962157404" lon="9.357601753589403"><ele>85.0</ele><time>2026-04-18T07:27:53Z</time></trkpt><trkpt lat="39.55242878506443" lon="9.357417744137612"><ele>85.0</ele><time>2026-04-18T07:27:54Z</time></trkpt><trkpt lat="39.55248546423775" lon="9.357231755484458"><ele>85.0</ele><time>2026-04-18T07:27:55Z</time></trkpt><trkpt lat="39.55254261825166" lon="9.3570452803745"><ele>84.66666666666666</ele><time>2026-04-18T07:27:56Z</time></trkpt><trkpt lat="39.55260133986548" lon="9.356859028933757"><ele>84.33333333333333</ele><time>2026-04-18T07:27:57Z</time></trkpt><trkpt lat="39.55266253017009" lon="9.356671707898432"><ele>84.0</ele><time>2026-04-18T07:27:58Z</time></trkpt><trkpt lat="39.55272360325693" lon="9.35648346394518"><ele>84.33333333333333</ele><time>2026-04-18T07:27:59Z</time></trkpt><trkpt lat="39.552784125352225" lon="9.356292515042629"><ele>84.66666666666666</ele><time>2026-04-18T07:28:00Z</time></trkpt><trkpt lat="39.552844049679955" lon="9.356101127484425"><ele>85.0</ele><time>2026-04-18T07:28:01Z</time></trkpt><trkpt lat="39.55290708269688" lon="9.35590950820238"><ele>85.33333333333333</ele><time>2026-04-18T07:28:02Z</time></trkpt><trkpt lat="39.55297164671764" lon="9.35571526497559"><ele>85.66666666666667</ele><time>2026-04-18T07:28:03Z</time></trkpt><trkpt lat="39.55303347962345" lon="9.355523414802736"><ele>86.0</ele><time>2026-04-18T07:28:04Z</time></trkpt><trkpt lat="39.55309566038082" lon="9.355325536435004"><ele>85.0</ele><time>2026-04-18T07:28:05Z</time></trkpt><trkpt lat="39.55315964778144" lon="9.355128238752938"><ele>84.0</ele><time>2026-04-18T07:28:06Z</time></trkpt><trkpt lat="39.553222795586194" lon="9.35493777726416"><ele>83.0</ele><time>2026-04-18T07:28:07Z</time></trkpt><trkpt lat="39.55328475911794" lon="9.35474557805174"><ele>84.0</ele><time>2026-04-18T07:28:08Z</time></trkpt><trkpt lat="39.55334596103731" lon="9.354549169089463"><ele>85.0</ele><time>2026-04-18T07:28:09Z</time></trkpt><trkpt lat="39.55340441988084" lon="9.354362161063348"><ele>86.0</ele><time>2026-04-18T07:28:10Z</time></trkpt><trkpt lat="39.55345852131786" lon="9.354184272496532"><ele>86.0</ele><time>2026-04-18T07:28:11Z</time></trkpt><trkpt lat="39.55350848943229" lon="9.354011796899723"><ele>86.0</ele><time>2026-04-18T07:28:12Z</time></trkpt><trkpt lat="39.55355796870786" lon="9.353850379486348"><ele>86.0</ele><time>2026-04-18T07:28:13Z</time></trkpt><trkpt lat="39.55361390423423" lon="9.353704623663065"><ele>86.0</ele><time>2026-04-18T07:28:14Z</time></trkpt><trkpt lat="39.55367963207785" lon="9.35357457270899"><ele>85.8</ele><time>2026-04-18T07:28:15Z</time></trkpt><trkpt lat="39.553765557814216" lon="9.35348409329097"><ele>85.6</ele><time>2026-04-18T07:28:16Z</time></trkpt><trkpt lat="39.553868724926545" lon="9.353442041829595"><ele>85.4</ele><time>2026-04-18T07:28:17Z</time></trkpt><trkpt lat="39.553974928321836" lon="9.353453159488872"><ele>85.2</ele><time>2026-04-18T07:28:18Z</time></trkpt><trkpt lat="39.554085831636634" lon="9.353496508680516"><ele>85.0</ele><time>2026-04-18T07:28:19Z</time></trkpt><trkpt lat="39.55420424621689" lon="9.353553918393805"><ele>85.0</ele><time>2026-04-18T07:28:20Z</time></trkpt><trkpt lat="39.55433187521091" lon="9.353608343357415"><ele>85.0</ele><time>2026-04-18T07:28:21Z</time></trkpt><trkpt lat="39.55446751626524" lon="9.353667773267938"><ele>85.0</ele><time>2026-04-18T07:28:22Z</time></trkpt><trkpt lat="39.55460984453962" lon="9.353731758538979"><ele>85.0</ele><time>2026-04-18T07:28:23Z</time></trkpt><trkpt lat="39.55475706170651" lon="9.353798704697821"><ele>84.66666666666666</ele><time>2026-04-18T07:28:24Z</time></trkpt><trkpt lat="39.554908072861224" lon="9.353867717630653"><ele>84.33333333333333</ele><time>2026-04-18T07:28:25Z</time></trkpt><trkpt lat="39.55505649560147" lon="9.353936054655373"><ele>84.0</ele><time>2026-04-18T07:28:26Z</time></trkpt><trkpt lat="39.555199993168955" lon="9.353997453215381"><ele>83.75</ele><time>2026-04-18T07:28:27Z</time></trkpt><trkpt lat="39.555340310273856" lon="9.354048142696495"><ele>83.5</ele><time>2026-04-18T07:28:28Z</time></trkpt><trkpt lat="39.555481756125154" lon="9.354075623993738"><ele>83.25</ele><time>2026-04-18T07:28:29Z</time></trkpt><trkpt lat="39.55562761369355" lon="9.354062813549413"><ele>83.0</ele><time>2026-04-18T07:28:30Z</time></trkpt><trkpt lat="39.55576576821735" lon="9.35400607084435"><ele>83.5</ele><time>2026-04-18T07:28:31Z</time></trkpt><trkpt lat="39.5558803409936" lon="9.353897969033"><ele>84.0</ele><time>2026-04-18T07:28:32Z</time></trkpt><trkpt lat="39.555974918794924" lon="9.353750682769725"><ele>84.5</ele><time>2026-04-18T07:28:33Z</time></trkpt><trkpt lat="39.556052932763635" lon="9.353578865195106"><ele>85.0</ele><time>2026-04-18T07:28:34Z</time></trkpt><trkpt lat="39.556149436948836" lon="9.353412303123024"><ele>86.0</ele><time>2026-04-18T07:28:35Z</time></trkpt><trkpt lat="39.55623528428919" lon="9.35324185840824"><ele>87.0</ele><time>2026-04-18T07:28:36Z</time></trkpt><trkpt lat="39.55631856423711" lon="9.353066432781146"><ele>88.0</ele><time>2026-04-18T07:28:37Z</time></trkpt><trkpt lat="39.556426387333076" lon="9.352914655587316"><ele>88.0</ele><time>2026-04-18T07:28:38Z</time></trkpt><trkpt lat="39.55655358432796" lon="9.352769816348898"><ele>88.0</ele><time>2026-04-18T07:28:39Z</time></trkpt><trkpt lat="39.55669517566253" lon="9.352655669899754"><ele>88.0</ele><time>2026-04-18T07:28:40Z</time></trkpt><trkpt lat="39.55684528247452" lon="9.352562336438035"><ele>88.0</ele><time>2026-04-18T07:28:41Z</time></trkpt><trkpt lat="39.55700099895328" lon="9.35246602962403"><ele>88.0</ele><time>2026-04-18T07:28:42Z</time></trkpt><trkpt lat="39.55715622409203" lon="9.352365994879461"><ele>88.0</ele><time>2026-04-18T07:28:43Z</time></trkpt><trkpt lat="39.55730895066463" lon="9.352267870318466"><ele>88.0</ele><time>2026-04-18T07:28:44Z</time></trkpt><trkpt lat="39.55745899886251" lon="9.352168378609186"><ele>88.0</ele><time>2026-04-18T07:28:45Z</time></trkpt><trkpt lat="39.55761229667415" lon="9.352067587652886"><ele>88.0</ele><time>2026-04-18T07:28:46Z</time></trkpt><trkpt lat="39.55776849950261" lon="9.351966456242634"><ele>88.33333333333333</ele><time>2026-04-18T07:28:47Z</time></trkpt><trkpt lat="39.55792576067256" lon="9.351864154458875"><ele>88.66666666666667</ele><time>2026-04-18T07:28:48Z</time></trkpt><trkpt lat="39.55808341225636" lon="9.351760989867442"><ele>89.0</ele><time>2026-04-18T07:28:49Z</time></trkpt><trkpt lat="39.55824101617447" lon="9.35165643581319"><ele>89.0</ele><time>2026-04-18T07:28:50Z</time></trkpt><trkpt lat="39.55839931320952" lon="9.351549483669249"><ele>89.0</ele><time>2026-04-18T07:28:51Z</time></trkpt><trkpt lat="39.55855766472644" lon="9.351445749306937"><ele>89.0</ele><time>2026-04-18T07:28:52Z</time></trkpt><trkpt lat="39.55871596323375" lon="9.351343657733093"><ele>89.33333333333334</ele><time>2026-04-18T07:28:53Z</time></trkpt><trkpt lat="39.55887722651336" lon="9.351239563127738"><ele>89.66666666666667</ele><time>2026-04-18T07:28:54Z</time></trkpt><trkpt lat="39.559038348835706" lon="9.351134420930592"><ele>90.0</ele><time>2026-04-18T07:28:55Z</time></trkpt><trkpt lat="39.55919791899505" lon="9.35102855726329"><ele>90.0</ele><time>2026-04-18T07:28:56Z</time></trkpt><trkpt lat="39.55935740946509" lon="9.350921907589811"><ele>90.0</ele><time>2026-04-18T07:28:57Z</time></trkpt><trkpt lat="39.55951914291359" lon="9.350816180728565"><ele>90.0</ele><time>2026-04-18T07:28:58Z</time></trkpt><trkpt lat="39.559679874673904" lon="9.350712554600317"><ele>89.66666666666667</ele><time>2026-04-18T07:28:59Z</time></trkpt><trkpt lat="39.5598409257612" lon="9.350606974959272"><ele>89.33333333333334</ele><time>2026-04-18T07:29:00Z</time></trkpt><trkpt lat="39.56000311642121" lon="9.350496705794505"><ele>89.0</ele><time>2026-04-18T07:29:01Z</time></trkpt><trkpt lat="39.560163255517054" lon="9.350388342794805"><ele>89.0</ele><time>2026-04-18T07:29:02Z</time></trkpt><trkpt lat="39.56032816205423" lon="9.35028431883165"><ele>89.0</ele><time>2026-04-18T07:29:03Z</time></trkpt><trkpt lat="39.56049377343722" lon="9.350181294822322"><ele>89.0</ele><time>2026-04-18T07:29:04Z</time></trkpt><trkpt lat="39.56065606013652" lon="9.350076004542943"><ele>89.0</ele><time>2026-04-18T07:29:05Z</time></trkpt><trkpt lat="39.560816733875996" lon="9.349982109376533"><ele>89.0</ele><time>2026-04-18T07:29:06Z</time></trkpt><trkpt lat="39.56098406746921" lon="9.349915318570705"><ele>89.0</ele><time>2026-04-18T07:29:07Z</time></trkpt><trkpt lat="39.5611607355813" lon="9.349883420597425"><ele>89.0</ele><time>2026-04-18T07:29:08Z</time></trkpt><trkpt lat="39.56134184945184" lon="9.349884481751102"><ele>89.0</ele><time>2026-04-18T07:29:09Z</time></trkpt><trkpt lat="39.56152316166033" lon="9.349893906241011"><ele>89.0</ele><time>2026-04-18T07:29:10Z</time></trkpt><trkpt lat="39.56170928111976" lon="9.349903266603834"><ele>89.0</ele><time>2026-04-18T07:29:11Z</time></trkpt><trkpt lat="39.561895197793426" lon="9.349909549351414"><ele>89.0</ele><time>2026-04-18T07:29:12Z</time></trkpt><trkpt lat="39.5620829176723" lon="9.349914525664138"><ele>89.0</ele><time>2026-04-18T07:29:13Z</time></trkpt><trkpt lat="39.56226948386173" lon="9.349918569801003"><ele>90.33333333333334</ele><time>2026-04-18T07:29:14Z</time></trkpt><trkpt lat="39.56245628464401" lon="9.349922681671684"><ele>91.66666666666667</ele><time>2026-04-18T07:29:15Z</time></trkpt><trkpt lat="39.56264125718342" lon="9.349929814900742"><ele>93.0</ele><time>2026-04-18T07:29:16Z</time></trkpt><trkpt lat="39.56282292170169" lon="9.349935628617246"><ele>93.66666666666667</ele><time>2026-04-18T07:29:17Z</time></trkpt><trkpt lat="39.5630061409342" lon="9.34993914759548"><ele>94.33333333333334</ele><time>2026-04-18T07:29:18Z</time></trkpt><trkpt lat="39.56318744735233" lon="9.34994335686018"><ele>95.0</ele><time>2026-04-18T07:29:19Z</time></trkpt><trkpt lat="39.56337261337068" lon="9.349953718156993"><ele>95.0</ele><time>2026-04-18T07:29:20Z</time></trkpt><trkpt lat="39.56355514854955" lon="9.349971016035077"><ele>95.0</ele><time>2026-04-18T07:29:21Z</time></trkpt><trkpt lat="39.56373761066154" lon="9.349979963428392"><ele>95.0</ele><time>2026-04-18T07:29:22Z</time></trkpt><trkpt lat="39.5639154708657" lon="9.349985391852442"><ele>95.66666666666667</ele><time>2026-04-18T07:29:23Z</time></trkpt><trkpt lat="39.56409200528341" lon="9.34999178831397"><ele>96.33333333333334</ele><time>2026-04-18T07:29:24Z</time></trkpt><trkpt lat="39.56427305505278" lon="9.3499927941876"><ele>97.0</ele><time>2026-04-18T07:29:25Z</time></trkpt><trkpt lat="39.56445520565148" lon="9.349995218464764"><ele>97.66666666666667</ele><time>2026-04-18T07:29:26Z</time></trkpt><trkpt lat="39.56463779491746" lon="9.350003634622546"><ele>98.33333333333334</ele><time>2026-04-18T07:29:27Z</time></trkpt><trkpt lat="39.56481913956301" lon="9.35001321479635"><ele>99.0</ele><time>2026-04-18T07:29:28Z</time></trkpt><trkpt lat="39.56500129461697" lon="9.35001784482054"><ele>99.0</ele><time>2026-04-18T07:29:29Z</time></trkpt><trkpt lat="39.56518579959708" lon="9.350020812934929"><ele>99.0</ele><time>2026-04-18T07:29:30Z</time></trkpt><trkpt lat="39.565371364326" lon="9.350027725999073"><ele>99.0</ele><time>2026-04-18T07:29:31Z</time></trkpt><trkpt lat="39.56555806951471" lon="9.350036574594062"><ele>100.33333333333334</ele><time>2026-04-18T07:29:32Z</time></trkpt><trkpt lat="39.56574622592779" lon="9.350043872725259"><ele>101.66666666666667</ele><time>2026-04-18T07:29:33Z</time></trkpt><trkpt lat="39.56593277942655" lon="9.350045019008112"><ele>103.0</ele><time>2026-04-18T07:29:34Z</time></trkpt><trkpt lat="39.56611985808727" lon="9.350032238000527"><ele>104.0</ele><time>2026-04-18T07:29:35Z</time></trkpt><trkpt lat="39.566306232723136" lon="9.350002212348276"><ele>105.0</ele><time>2026-04-18T07:29:36Z</time></trkpt><trkpt lat="39.566489079566324" lon="9.349946009832665"><ele>106.0</ele><time>2026-04-18T07:29:37Z</time></trkpt><trkpt lat="39.56666229407682" lon="9.349861811415657"><ele>106.0</ele><time>2026-04-18T07:29:38Z</time></trkpt><trkpt lat="39.566834977080546" lon="9.349775442159496"><ele>106.0</ele><time>2026-04-18T07:29:39Z</time></trkpt><trkpt lat="39.56701276025756" lon="9.349697378704828"><ele>106.0</ele><time>2026-04-18T07:29:40Z</time></trkpt><trkpt lat="39.56719005806162" lon="9.3496194345376"><ele>107.0</ele><time>2026-04-18T07:29:41Z</time></trkpt><trkpt lat="39.567368522224164" lon="9.34954132735113"><ele>108.0</ele><time>2026-04-18T07:29:42Z</time></trkpt><trkpt lat="39.56754763174263" lon="9.349455774414395"><ele>109.0</ele><time>2026-04-18T07:29:43Z</time></trkpt><trkpt lat="39.56772379131765" lon="9.349356961996158"><ele>112.33333333333334</ele><time>2026-04-18T07:29:44Z</time></trkpt><trkpt lat="39.567898539068885" lon="9.349250910171891"><ele>115.66666666666666</ele><time>2026-04-18T07:29:45Z</time></trkpt><trkpt lat="39.56807221003856" lon="9.349142700259621"><ele>119.0</ele><time>2026-04-18T07:29:46Z</time></trkpt><trkpt lat="39.568243665681265" lon="9.34903739505448"><ele>119.0</ele><time>2026-04-18T07:29:47Z</time></trkpt><trkpt lat="39.56841530976362" lon="9.348941134659562"><ele>119.0</ele><time>2026-04-18T07:29:48Z</time></trkpt><trkpt lat="39.56859426173614" lon="9.348867031036784"><ele>119.0</ele><time>2026-04-18T07:29:49Z</time></trkpt><trkpt lat="39.56878191757235" lon="9.348814849868157"><ele>120.33333333333333</ele><time>2026-04-18T07:29:50Z</time></trkpt><trkpt lat="39.56897383508251" lon="9.348784830434418"><ele>121.66666666666666</ele><time>2026-04-18T07:29:51Z</time></trkpt><trkpt lat="39.56916757620106" lon="9.348774643904866"><ele>123.0</ele><time>2026-04-18T07:29:52Z</time></trkpt><trkpt lat="39.56936038424399" lon="9.348779973232203"><ele>124.33333333333334</ele><time>2026-04-18T07:29:53Z</time></trkpt><trkpt lat="39.56955543858328" lon="9.348796479448739"><ele>125.66666666666667</ele><time>2026-04-18T07:29:54Z</time></trkpt><trkpt lat="39.56974699383308" lon="9.34882435066274"><ele>127.0</ele><time>2026-04-18T07:29:55Z</time></trkpt><trkpt lat="39.569941358987776" lon="9.348866707291645"><ele>128.66666666666669</ele><time>2026-04-18T07:29:56Z</time></trkpt><trkpt lat="39.5701347335431" lon="9.348920421207705"><ele>130.33333333333334</ele><time>2026-04-18T07:29:57Z</time></trkpt><trkpt lat="39.57032835951714" lon="9.348974757088929"><ele>132.0</ele><time>2026-04-18T07:29:58Z</time></trkpt><trkpt lat="39.57052410291915" lon="9.349027563259842"><ele>132.0</ele><time>2026-04-18T07:29:59Z</time></trkpt><trkpt lat="39.57071970189156" lon="9.349082391101605"><ele>132.0</ele><time>2026-04-18T07:30:00Z</time></trkpt><trkpt lat="39.57091436334302" lon="9.349141178424254"><ele>132.0</ele><time>2026-04-18T07:30:01Z</time></trkpt><trkpt lat="39.5711081833463" lon="9.349200259094875"><ele>133.0</ele><time>2026-04-18T07:30:02Z</time></trkpt><trkpt lat="39.5713010183241" lon="9.349262153176436"><ele>134.0</ele><time>2026-04-18T07:30:03Z</time></trkpt><trkpt lat="39.57149287978892" lon="9.34932980541424"><ele>135.0</ele><time>2026-04-18T07:30:04Z</time></trkpt><trkpt lat="39.571681210845085" lon="9.349405105880397"><ele>135.0</ele><time>2026-04-18T07:30:05Z</time></trkpt><trkpt lat="39.57186643966073" lon="9.349484871981575"><ele>135.0</ele><time>2026-04-18T07:30:06Z</time></trkpt><trkpt lat="39.5720496252748" lon="9.349562321958338"><ele>135.0</ele><time>2026-04-18T07:30:07Z</time></trkpt><trkpt lat="39.57222668705665" lon="9.349637589648271"><ele>139.33333333333334</ele><time>2026-04-18T07:30:08Z</time></trkpt><trkpt lat="39.57239450588634" lon="9.34972365343357"><ele>143.66666666666669</ele><time>2026-04-18T07:30:09Z</time></trkpt><trkpt lat="39.57255066467534" lon="9.34983766566357"><ele>148.0</ele><time>2026-04-18T07:30:10Z</time></trkpt><trkpt lat="39.572699307203806" lon="9.349970539535311"><ele>148.0</ele><time>2026-04-18T07:30:11Z</time></trkpt><trkpt lat="39.57284241891848" lon="9.350108941334119"><ele>148.0</ele><time>2026-04-18T07:30:12Z</time></trkpt><trkpt lat="39.57297182810574" lon="9.350264199880185"><ele>148.0</ele><time>2026-04-18T07:30:13Z</time></trkpt><trkpt lat="39.57307216568456" lon="9.350443299693715"><ele>150.0</ele><time>2026-04-18T07:30:14Z</time></trkpt><trkpt lat="39.5731441044117" lon="9.350638713251145"><ele>152.0</ele><time>2026-04-18T07:30:15Z</time></trkpt><trkpt lat="39.57319609725851" lon="9.350850611520451"><ele>154.0</ele><time>2026-04-18T07:30:16Z</time></trkpt><trkpt lat="39.57323942030204" lon="9.351066144303116"><ele>154.0</ele><time>2026-04-18T07:30:17Z</time></trkpt><trkpt lat="39.573286769378676" lon="9.351278653528256"><ele>154.0</ele><time>2026-04-18T07:30:18Z</time></trkpt><trkpt lat="39.57334685683019" lon="9.351485081042147"><ele>154.0</ele><time>2026-04-18T07:30:19Z</time></trkpt><trkpt lat="39.57342425965383" lon="9.351682016558616"><ele>156.33333333333334</ele><time>2026-04-18T07:30:20Z</time></trkpt><trkpt lat="39.573519482678016" lon="9.351868234727599"><ele>158.66666666666666</ele><time>2026-04-18T07:30:21Z</time></trkpt><trkpt lat="39.57363233159849" lon="9.352042047277703"><ele>161.0</ele><time>2026-04-18T07:30:22Z</time></trkpt><trkpt lat="39.57375674291525" lon="9.35220384653733"><ele>162.33333333333331</ele><time>2026-04-18T07:30:23Z</time></trkpt><trkpt lat="39.573882284318934" lon="9.352370044925552"><ele>163.66666666666666</ele><time>2026-04-18T07:30:24Z</time></trkpt><trkpt lat="39.574004047663045" lon="9.352543648022035"><ele>165.0</ele><time>2026-04-18T07:30:25Z</time></trkpt><trkpt lat="39.57413137283926" lon="9.352712478363829"><ele>165.0</ele><time>2026-04-18T07:30:26Z</time></trkpt><trkpt lat="39.574262415867544" lon="9.352874637147757"><ele>165.0</ele><time>2026-04-18T07:30:27Z</time></trkpt><trkpt lat="39.57439684361683" lon="9.353039701961055"><ele>165.0</ele><time>2026-04-18T07:30:28Z</time></trkpt><trkpt lat="39.574533527030354" lon="9.353200302686977"><ele>165.33333333333334</ele><time>2026-04-18T07:30:29Z</time></trkpt><trkpt lat="39.57468056136856" lon="9.353348515484102"><ele>165.66666666666669</ele><time>2026-04-18T07:30:30Z</time></trkpt><trkpt lat="39.57483783525128" lon="9.353482327190607"><ele>166.0</ele><time>2026-04-18T07:30:31Z</time></trkpt><trkpt lat="39.5749923049295" lon="9.353598870634437"><ele>166.0</ele><time>2026-04-18T07:30:32Z</time></trkpt><trkpt lat="39.57515062417883" lon="9.353713550159267"><ele>166.0</ele><time>2026-04-18T07:30:33Z</time></trkpt><trkpt lat="39.57531209427226" lon="9.353823964231355"><ele>166.0</ele><time>2026-04-18T07:30:34Z</time></trkpt><trkpt lat="39.57547324381286" lon="9.353922495454725"><ele>168.33333333333334</ele><time>2026-04-18T07:30:35Z</time></trkpt><trkpt lat="39.575639348428076" lon="9.354009436027177"><ele>170.66666666666666</ele><time>2026-04-18T07:30:36Z</time></trkpt><trkpt lat="39.575810180130006" lon="9.354077179759015"><ele>173.0</ele><time>2026-04-18T07:30:37Z</time></trkpt><trkpt lat="39.575988918391005" lon="9.354114781397303"><ele>173.0</ele><time>2026-04-18T07:30:38Z</time></trkpt><trkpt lat="39.57617385792191" lon="9.354128387404492"><ele>173.0</ele><time>2026-04-18T07:30:39Z</time></trkpt><trkpt lat="39.57635688152811" lon="9.354130559790207"><ele>173.0</ele><time>2026-04-18T07:30:40Z</time></trkpt><trkpt lat="39.576542828650545" lon="9.354130441265259"><ele>175.33333333333331</ele><time>2026-04-18T07:30:41Z</time></trkpt><trkpt lat="39.57672722370472" lon="9.354132466656004"><ele>177.66666666666666</ele><time>2026-04-18T07:30:42Z</time></trkpt><trkpt lat="39.57691455796934" lon="9.354135053621967"><ele>180.0</ele><time>2026-04-18T07:30:43Z</time></trkpt><trkpt lat="39.57710358982272" lon="9.354137019562364"><ele>181.66666666666666</ele><time>2026-04-18T07:30:44Z</time></trkpt><trkpt lat="39.57729216290889" lon="9.354138397857106"><ele>183.33333333333331</ele><time>2026-04-18T07:30:45Z</time></trkpt><trkpt lat="39.577481827293624" lon="9.354139272745114"><ele>185.0</ele><time>2026-04-18T07:30:46Z</time></trkpt><trkpt lat="39.57767423663148" lon="9.354139544711224"><ele>186.0</ele><time>2026-04-18T07:30:47Z</time></trkpt><trkpt lat="39.57786558282235" lon="9.354143515885344"><ele>187.0</ele><time>2026-04-18T07:30:48Z</time></trkpt><trkpt lat="39.57805528238046" lon="9.354148839215839"><ele>188.0</ele><time>2026-04-18T07:30:49Z</time></trkpt><trkpt lat="39.578242312792185" lon="9.354155824204923"><ele>188.0</ele><time>2026-04-18T07:30:50Z</time></trkpt><trkpt lat="39.5784217779861" lon="9.354166789583402"><ele>188.0</ele><time>2026-04-18T07:30:51Z</time></trkpt><trkpt lat="39.57859766491356" lon="9.35417863875064"><ele>188.0</ele><time>2026-04-18T07:30:52Z</time></trkpt><trkpt lat="39.57877120795903" lon="9.354173398102986"><ele>189.33333333333331</ele><time>2026-04-18T07:30:53Z</time></trkpt><trkpt lat="39.57894722430844" lon="9.354146884906559"><ele>190.66666666666666</ele><time>2026-04-18T07:30:54Z</time></trkpt><trkpt lat="39.57912534753386" lon="9.354107401126415"><ele>192.0</ele><time>2026-04-18T07:30:55Z</time></trkpt><trkpt lat="39.57930328378724" lon="9.354063548393123"><ele>192.0</ele><time>2026-04-18T07:30:56Z</time></trkpt><trkpt lat="39.579479028369455" lon="9.354022052336878"><ele>192.0</ele><time>2026-04-18T07:30:57Z</time></trkpt><trkpt lat="39.579655808659496" lon="9.353983790881765"><ele>192.0</ele><time>2026-04-18T07:30:58Z</time></trkpt><trkpt lat="39.579836106220526" lon="9.353949800710938"><ele>193.33333333333331</ele><time>2026-04-18T07:30:59Z</time></trkpt><trkpt lat="39.58001412328506" lon="9.353933041703087"><ele>194.66666666666666</ele><time>2026-04-18T07:31:00Z</time></trkpt><trkpt lat="39.58019075837141" lon="9.353951503107135"><ele>196.0</ele><time>2026-04-18T07:31:01Z</time></trkpt><trkpt lat="39.580361408589425" lon="9.354000732854045"><ele>197.66666666666666</ele><time>2026-04-18T07:31:02Z</time></trkpt><trkpt lat="39.58052356313013" lon="9.35407198840784"><ele>199.33333333333331</ele><time>2026-04-18T07:31:03Z</time></trkpt><trkpt lat="39.580664840922786" lon="9.354165877282957"><ele>201.0</ele><time>2026-04-18T07:31:04Z</time></trkpt><trkpt lat="39.58077280204505" lon="9.354290153441477"><ele>201.0</ele><time>2026-04-18T07:31:05Z</time></trkpt><trkpt lat="39.58085337261933" lon="9.354436780487813"><ele>201.0</ele><time>2026-04-18T07:31:06Z</time></trkpt><trkpt lat="39.580904031263785" lon="9.354595518762086"><ele>201.0</ele><time>2026-04-18T07:31:07Z</time></trkpt><trkpt lat="39.58093813030527" lon="9.354747768722744"><ele>201.0</ele><time>2026-04-18T07:31:08Z</time></trkpt><trkpt lat="39.58096485550349" lon="9.35489078785464"><ele>201.8</ele><time>2026-04-18T07:31:09Z</time></trkpt><trkpt lat="39.58098545027492" lon="9.35502763598123"><ele>202.60000000000002</ele><time>2026-04-18T07:31:10Z</time></trkpt><trkpt lat="39.58098666671031" lon="9.355159675144476"><ele>203.4</ele><time>2026-04-18T07:31:11Z</time></trkpt><trkpt lat="39.581001993728066" lon="9.35527604066355"><ele>204.2</ele><time>2026-04-18T07:31:12Z</time></trkpt><trkpt lat="39.58102560030136" lon="9.355455265265938"><ele>205.0</ele><time>2026-04-18T07:31:14Z</time></trkpt><trkpt lat="39.581205312505745" lon="9.355508276576288"><ele>203.2</ele><time>2026-04-18T07:31:16Z</time></trkpt><trkpt lat="39.581284255108415" lon="9.355491690223722"><ele>201.4</ele><time>2026-04-18T07:31:17Z</time></trkpt><trkpt lat="39.58136941872802" lon="9.355444298660634"><ele>199.60000000000002</ele><time>2026-04-18T07:31:18Z</time></trkpt><trkpt lat="39.58146508701645" lon="9.355391499605172"><ele>197.8</ele><time>2026-04-18T07:31:19Z</time></trkpt><trkpt lat="39.58157258895577" lon="9.355338561364244"><ele>196.0</ele><time>2026-04-18T07:31:20Z</time></trkpt><trkpt lat="39.58167844202074" lon="9.355263539781962"><ele>196.0</ele><time>2026-04-18T07:31:21Z</time></trkpt><trkpt lat="39.581841296299096" lon="9.355010747446023"><ele>196.0</ele><time>2026-04-18T07:31:23Z</time></trkpt><trkpt lat="39.58188396852846" lon="9.35484343268175"><ele>196.0</ele><time>2026-04-18T07:31:24Z</time></trkpt><trkpt lat="39.58190116742829" lon="9.354656887700404"><ele>195.0</ele><time>2026-04-18T07:31:25Z</time></trkpt><trkpt lat="39.58190513221265" lon="9.354459876360313"><ele>194.0</ele><time>2026-04-18T07:31:26Z</time></trkpt><trkpt lat="39.58190265862684" lon="9.354253510855864"><ele>193.0</ele><time>2026-04-18T07:31:27Z</time></trkpt><trkpt lat="39.58190539574889" lon="9.354038106946508"><ele>190.66666666666666</ele><time>2026-04-18T07:31:28Z</time></trkpt><trkpt lat="39.58191457683078" lon="9.353820102541851"><ele>188.33333333333331</ele><time>2026-04-18T07:31:29Z</time></trkpt><trkpt lat="39.58192971081211" lon="9.353597913597945"><ele>186.0</ele><time>2026-04-18T07:31:30Z</time></trkpt><trkpt lat="39.581949269858235" lon="9.353370817380663"><ele>186.0</ele><time>2026-04-18T07:31:31Z</time></trkpt><trkpt lat="39.58197344025218" lon="9.353140728004693"><ele>186.0</ele><time>2026-04-18T07:31:32Z</time></trkpt><trkpt lat="39.58199900609772" lon="9.35290349943812"><ele>186.0</ele><time>2026-04-18T07:31:33Z</time></trkpt><trkpt lat="39.58202539234099" lon="9.352665434369692"><ele>189.0</ele><time>2026-04-18T07:31:34Z</time></trkpt><trkpt lat="39.582052817566975" lon="9.352421765071337"><ele>192.0</ele><time>2026-04-18T07:31:35Z</time></trkpt><trkpt lat="39.58207936937157" lon="9.352178636148512"><ele>195.0</ele><time>2026-04-18T07:31:36Z</time></trkpt><trkpt lat="39.58210739817695" lon="9.351930949751624"><ele>195.0</ele><time>2026-04-18T07:31:37Z</time></trkpt><trkpt lat="39.58213805407468" lon="9.351680910207541"><ele>195.0</ele><time>2026-04-18T07:31:38Z</time></trkpt><trkpt lat="39.582168230564605" lon="9.351431013376866"><ele>195.0</ele><time>2026-04-18T07:31:39Z</time></trkpt><trkpt lat="39.58219572189179" lon="9.351181007649156"><ele>192.66666666666666</ele><time>2026-04-18T07:31:40Z</time></trkpt><trkpt lat="39.58222387267832" lon="9.350934544168684"><ele>190.33333333333331</ele><time>2026-04-18T07:31:41Z</time></trkpt><trkpt lat="39.582253238349935" lon="9.350685913596335"><ele>188.0</ele><time>2026-04-18T07:31:42Z</time></trkpt><trkpt lat="39.582284707713384" lon="9.350433337898325"><ele>182.33333333333331</ele><time>2026-04-18T07:31:43Z</time></trkpt><trkpt lat="39.582316426774874" lon="9.350176618329028"><ele>176.66666666666666</ele><time>2026-04-18T07:31:44Z</time></trkpt><trkpt lat="39.58234460170504" lon="9.349902535045356"><ele>171.0</ele><time>2026-04-18T07:31:45Z</time></trkpt><trkpt lat="39.582381226586755" lon="9.34964910990444"><ele>169.66666666666666</ele><time>2026-04-18T07:31:46Z</time></trkpt><trkpt lat="39.58240982360978" lon="9.349392702899353"><ele>168.33333333333331</ele><time>2026-04-18T07:31:47Z</time></trkpt><trkpt lat="39.582442794000315" lon="9.349126415866339"><ele>167.0</ele><time>2026-04-18T07:31:48Z</time></trkpt><trkpt lat="39.58247182783168" lon="9.348863286625837"><ele>167.0</ele><time>2026-04-18T07:31:49Z</time></trkpt><trkpt lat="39.58249935512763" lon="9.348598574921436"><ele>167.0</ele><time>2026-04-18T07:31:50Z</time></trkpt><trkpt lat="39.58253080946539" lon="9.348340874548873"><ele>167.0</ele><time>2026-04-18T07:31:51Z</time></trkpt><trkpt lat="39.58256018134387" lon="9.348097792473652"><ele>168.33333333333331</ele><time>2026-04-18T07:31:52Z</time></trkpt><trkpt lat="39.582570479636914" lon="9.347853598067726"><ele>169.66666666666666</ele><time>2026-04-18T07:31:53Z</time></trkpt><trkpt lat="39.582552678009655" lon="9.347612645613275"><ele>171.0</ele><time>2026-04-18T07:31:54Z</time></trkpt><trkpt lat="39.58250597106455" lon="9.347377518485894"><ele>172.0</ele><time>2026-04-18T07:31:55Z</time></trkpt><trkpt lat="39.58244020224928" lon="9.347144491433042"><ele>173.0</ele><time>2026-04-18T07:31:56Z</time></trkpt><trkpt lat="39.582369574009206" lon="9.346918019675062"><ele>174.0</ele><time>2026-04-18T07:31:57Z</time></trkpt><trkpt lat="39.58230208835032" lon="9.346689488978772"><ele>174.0</ele><time>2026-04-18T07:31:58Z</time></trkpt><trkpt lat="39.58223097307486" lon="9.346460792589571"><ele>174.0</ele><time>2026-04-18T07:31:59Z</time></trkpt><trkpt lat="39.582164899328795" lon="9.346234470002278"><ele>174.0</ele><time>2026-04-18T07:32:00Z</time></trkpt><trkpt lat="39.58210567478092" lon="9.346006387004662"><ele>174.66666666666666</ele><time>2026-04-18T07:32:01Z</time></trkpt><trkpt lat="39.58204484275803" lon="9.345775424442914"><ele>175.33333333333331</ele><time>2026-04-18T07:32:02Z</time></trkpt><trkpt lat="39.58198434118479" lon="9.345545972520975"><ele>176.0</ele><time>2026-04-18T07:32:03Z</time></trkpt><trkpt lat="39.58192343934954" lon="9.345313684675645"><ele>168.33333333333331</ele><time>2026-04-18T07:32:04Z</time></trkpt><trkpt lat="39.58186613209621" lon="9.345080025909008"><ele>160.66666666666666</ele><time>2026-04-18T07:32:05Z</time></trkpt><trkpt lat="39.581812994181476" lon="9.344845909637515"><ele>153.0</ele><time>2026-04-18T07:32:06Z</time></trkpt><trkpt lat="39.58175548856032" lon="9.344608678391502"><ele>153.0</ele><time>2026-04-18T07:32:07Z</time></trkpt><trkpt lat="39.58170201892522" lon="9.34436785840243"><ele>153.0</ele><time>2026-04-18T07:32:08Z</time></trkpt><trkpt lat="39.581655166779434" lon="9.344124088089723"><ele>153.0</ele><time>2026-04-18T07:32:09Z</time></trkpt><trkpt lat="39.58160766968707" lon="9.343874720207932"><ele>153.66666666666666</ele><time>2026-04-18T07:32:10Z</time></trkpt><trkpt lat="39.58156066146501" lon="9.343630857625831"><ele>154.33333333333331</ele><time>2026-04-18T07:32:11Z</time></trkpt><trkpt lat="39.581512264404616" lon="9.343391873334923"><ele>155.0</ele><time>2026-04-18T07:32:12Z</time></trkpt><trkpt lat="39.58146073644239" lon="9.343158158207869"><ele>156.0</ele><time>2026-04-18T07:32:13Z</time></trkpt><trkpt lat="39.58140215197324" lon="9.342929610141262"><ele>157.0</ele><time>2026-04-18T07:32:14Z</time></trkpt><trkpt lat="39.58132835053213" lon="9.342708762764785"><ele>158.0</ele><time>2026-04-18T07:32:15Z</time></trkpt><trkpt lat="39.58123551775954" lon="9.342495030244814"><ele>150.66666666666666</ele><time>2026-04-18T07:32:16Z</time></trkpt><trkpt lat="39.581135314483845" lon="9.34228496615838"><ele>143.33333333333334</ele><time>2026-04-18T07:32:17Z</time></trkpt><trkpt lat="39.58104143100598" lon="9.342076453955327"><ele>136.0</ele><time>2026-04-18T07:32:18Z</time></trkpt><trkpt lat="39.58095190046117" lon="9.341871472849242"><ele>136.0</ele><time>2026-04-18T07:32:19Z</time></trkpt><trkpt lat="39.58086382821459" lon="9.341674515190311"><ele>136.0</ele><time>2026-04-18T07:32:20Z</time></trkpt><trkpt lat="39.58077448671653" lon="9.341475004318976"><ele>136.0</ele><time>2026-04-18T07:32:21Z</time></trkpt><trkpt lat="39.58069173490309" lon="9.34128186704799"><ele>136.33333333333334</ele><time>2026-04-18T07:32:22Z</time></trkpt><trkpt lat="39.58062071521669" lon="9.341092911804608"><ele>136.66666666666666</ele><time>2026-04-18T07:32:23Z</time></trkpt><trkpt lat="39.58056371527691" lon="9.340905420565463"><ele>137.0</ele><time>2026-04-18T07:32:24Z</time></trkpt><trkpt lat="39.5805488318897" lon="9.340717059728973"><ele>134.0</ele><time>2026-04-18T07:32:25Z</time></trkpt><trkpt lat="39.58057105308182" lon="9.340531433378155"><ele>131.0</ele><time>2026-04-18T07:32:26Z</time></trkpt><trkpt lat="39.58062528616858" lon="9.34034151424114"><ele>128.0</ele><time>2026-04-18T07:32:27Z</time></trkpt><trkpt lat="39.58067636249001" lon="9.34014992262251"><ele>128.0</ele><time>2026-04-18T07:32:28Z</time></trkpt><trkpt lat="39.58064836214726" lon="9.33994569687499"><ele>128.0</ele><time>2026-04-18T07:32:29Z</time></trkpt><trkpt lat="39.58062561726058" lon="9.339737748009286"><ele>128.0</ele><time>2026-04-18T07:32:30Z</time></trkpt><trkpt lat="39.58057562030483" lon="9.33953357700969"><ele>127.33333333333333</ele><time>2026-04-18T07:32:31Z</time></trkpt><trkpt lat="39.580512311057646" lon="9.339333664300758"><ele>126.66666666666666</ele><time>2026-04-18T07:32:32Z</time></trkpt><trkpt lat="39.58045426964975" lon="9.339131324597197"><ele>126.0</ele><time>2026-04-18T07:32:33Z</time></trkpt><trkpt lat="39.58039841697606" lon="9.338934624957675"><ele>129.33333333333334</ele><time>2026-04-18T07:32:34Z</time></trkpt><trkpt lat="39.58024205645366" lon="9.338795019110847"><ele>132.66666666666669</ele><time>2026-04-18T07:32:35Z</time></trkpt><trkpt lat="39.58010535423239" lon="9.338656119899527"><ele>136.0</ele><time>2026-04-18T07:32:36Z</time></trkpt><trkpt lat="39.57996584550966" lon="9.338522946812642"><ele>136.0</ele><time>2026-04-18T07:32:37Z</time></trkpt><trkpt lat="39.57984347260513" lon="9.338380012701561"><ele>136.0</ele><time>2026-04-18T07:32:38Z</time></trkpt><trkpt lat="39.579741384513824" lon="9.338206991533998"><ele>136.0</ele><time>2026-04-18T07:32:39Z</time></trkpt><trkpt lat="39.57965203437419" lon="9.3380216120536"><ele>131.66666666666669</ele><time>2026-04-18T07:32:40Z</time></trkpt><trkpt lat="39.57957010407632" lon="9.337830312275495"><ele>127.33333333333334</ele><time>2026-04-18T07:32:41Z</time></trkpt><trkpt lat="39.57949384698039" lon="9.337632336459778"><ele>123.0</ele><time>2026-04-18T07:32:42Z</time></trkpt><trkpt lat="39.57942031221876" lon="9.337430250316531"><ele>123.0</ele><time>2026-04-18T07:32:43Z</time></trkpt><trkpt lat="39.57934181123422" lon="9.337230927105923"><ele>123.0</ele><time>2026-04-18T07:32:44Z</time></trkpt><trkpt lat="39.579249979072245" lon="9.33706075955125"><ele>123.0</ele><time>2026-04-18T07:32:45Z</time></trkpt><trkpt lat="39.579135699572156" lon="9.336924034245676"><ele>129.33333333333334</ele><time>2026-04-18T07:32:46Z</time></trkpt><trkpt lat="39.579001858053054" lon="9.336822273225376"><ele>135.66666666666669</ele><time>2026-04-18T07:32:47Z</time></trkpt><trkpt lat="39.578853130001335" lon="9.336742676285034"><ele>142.0</ele><time>2026-04-18T07:32:48Z</time></trkpt><trkpt lat="39.57869538591059" lon="9.336674584049657"><ele>134.33333333333334</ele><time>2026-04-18T07:32:49Z</time></trkpt><trkpt lat="39.57853912293121" lon="9.336585573757466"><ele>126.66666666666666</ele><time>2026-04-18T07:32:50Z</time></trkpt><trkpt lat="39.57838513628396" lon="9.336490869665333"><ele>119.0</ele><time>2026-04-18T07:32:51Z</time></trkpt><trkpt lat="39.5782310022721" lon="9.336389366203925"><ele>119.33333333333333</ele><time>2026-04-18T07:32:52Z</time></trkpt><trkpt lat="39.57807738375369" lon="9.336282588590665"><ele>119.66666666666666</ele><time>2026-04-18T07:32:53Z</time></trkpt><trkpt lat="39.57792627607108" lon="9.336168975738484"><ele>120.0</ele><time>2026-04-18T07:32:54Z</time></trkpt><trkpt lat="39.57777265351925" lon="9.336049506607202"><ele>120.0</ele><time>2026-04-18T07:32:55Z</time></trkpt><trkpt lat="39.577618093538135" lon="9.335929630281868"><ele>120.0</ele><time>2026-04-18T07:32:56Z</time></trkpt><trkpt lat="39.57746216793043" lon="9.335806771925606"><ele>120.0</ele><time>2026-04-18T07:32:57Z</time></trkpt><trkpt lat="39.577304365456165" lon="9.335683909952598"><ele>120.0</ele><time>2026-04-18T07:32:58Z</time></trkpt><trkpt lat="39.577143293433664" lon="9.335561588781296"><ele>120.0</ele><time>2026-04-18T07:32:59Z</time></trkpt><trkpt lat="39.576982736979566" lon="9.335434851818103"><ele>120.0</ele><time>2026-04-18T07:33:00Z</time></trkpt><trkpt lat="39.5768242009639" lon="9.33531225705"><ele>118.66666666666666</ele><time>2026-04-18T07:33:01Z</time></trkpt><trkpt lat="39.57666862185641" lon="9.335193224712583"><ele>117.33333333333333</ele><time>2026-04-18T07:33:02Z</time></trkpt><trkpt lat="39.57651624330531" lon="9.335077133272245"><ele>116.0</ele><time>2026-04-18T07:33:03Z</time></trkpt><trkpt lat="39.57637332077723" lon="9.334962945025007"><ele>116.0</ele><time>2026-04-18T07:33:04Z</time></trkpt><trkpt lat="39.57624180889612" lon="9.3348397786805"><ele>116.0</ele><time>2026-04-18T07:33:05Z</time></trkpt><trkpt lat="39.576126464742906" lon="9.334701948830844"><ele>116.0</ele><time>2026-04-18T07:33:06Z</time></trkpt><trkpt lat="39.57602791458478" lon="9.3345450054105"><ele>115.33333333333333</ele><time>2026-04-18T07:33:07Z</time></trkpt><trkpt lat="39.57594148195703" lon="9.334377943176015"><ele>114.66666666666666</ele><time>2026-04-18T07:33:08Z</time></trkpt><trkpt lat="39.575872228978525" lon="9.334190114775518"><ele>114.0</ele><time>2026-04-18T07:33:09Z</time></trkpt><trkpt lat="39.57581415683505" lon="9.333991109424934"><ele>116.0</ele><time>2026-04-18T07:33:10Z</time></trkpt><trkpt lat="39.5757552230234" lon="9.333786757387324"><ele>118.0</ele><time>2026-04-18T07:33:11Z</time></trkpt><trkpt lat="39.57569973267817" lon="9.333584112267548"><ele>120.0</ele><time>2026-04-18T07:33:12Z</time></trkpt><trkpt lat="39.575645435527214" lon="9.333374895591561"><ele>120.0</ele><time>2026-04-18T07:33:13Z</time></trkpt><trkpt lat="39.57560638625682" lon="9.333163785557167"><ele>120.0</ele><time>2026-04-18T07:33:14Z</time></trkpt><trkpt lat="39.575591073908846" lon="9.332941864824809"><ele>120.0</ele><time>2026-04-18T07:33:15Z</time></trkpt><trkpt lat="39.5755888632642" lon="9.332717893337415"><ele>121.33333333333334</ele><time>2026-04-18T07:33:16Z</time></trkpt><trkpt lat="39.575581311587314" lon="9.332491148942344"><ele>122.66666666666667</ele><time>2026-04-18T07:33:17Z</time></trkpt><trkpt lat="39.575561593565276" lon="9.332265727748801"><ele>124.0</ele><time>2026-04-18T07:33:18Z</time></trkpt><trkpt lat="39.5755441618185" lon="9.332040712868311"><ele>124.0</ele><time>2026-04-18T07:33:19Z</time></trkpt><trkpt lat="39.57551966591716" lon="9.331819311666807"><ele>124.0</ele><time>2026-04-18T07:33:20Z</time></trkpt><trkpt lat="39.57549437438219" lon="9.331596495813514"><ele>124.0</ele><time>2026-04-18T07:33:21Z</time></trkpt><trkpt lat="39.57547739576191" lon="9.331366525375415"><ele>122.33333333333334</ele><time>2026-04-18T07:33:22Z</time></trkpt><trkpt lat="39.57546235944398" lon="9.331134031892798"><ele>120.66666666666666</ele><time>2026-04-18T07:33:23Z</time></trkpt><trkpt lat="39.575445002445534" lon="9.330896657543486"><ele>119.0</ele><time>2026-04-18T07:33:24Z</time></trkpt><trkpt lat="39.575427866131506" lon="9.330659587862243"><ele>116.66666666666666</ele><time>2026-04-18T07:33:25Z</time></trkpt><trkpt lat="39.57541157488001" lon="9.330417006619218"><ele>114.33333333333334</ele><time>2026-04-18T07:33:26Z</time></trkpt><trkpt lat="39.575397791711566" lon="9.330177289565516"><ele>112.0</ele><time>2026-04-18T07:33:27Z</time></trkpt><trkpt lat="39.57537997802112" lon="9.329937511866955"><ele>107.66666666666667</ele><time>2026-04-18T07:33:28Z</time></trkpt><trkpt lat="39.57535851413034" lon="9.329697595474313"><ele>103.33333333333334</ele><time>2026-04-18T07:33:29Z</time></trkpt><trkpt lat="39.575335931118595" lon="9.329461307915421"><ele>99.0</ele><time>2026-04-18T07:33:30Z</time></trkpt><trkpt lat="39.575317240413966" lon="9.329222507395388"><ele>98.33333333333334</ele><time>2026-04-18T07:33:31Z</time></trkpt><trkpt lat="39.57529906083281" lon="9.328983379284425"><ele>97.66666666666667</ele><time>2026-04-18T07:33:32Z</time></trkpt><trkpt lat="39.575281099495335" lon="9.328741851421482"><ele>97.0</ele><time>2026-04-18T07:33:33Z</time></trkpt><trkpt lat="39.575264227430516" lon="9.328500705892244"><ele>97.0</ele><time>2026-04-18T07:33:34Z</time></trkpt><trkpt lat="39.57524632323484" lon="9.328257476854725"><ele>97.0</ele><time>2026-04-18T07:33:35Z</time></trkpt><trkpt lat="39.57522870380144" lon="9.32801486684164"><ele>97.0</ele><time>2026-04-18T07:33:36Z</time></trkpt><trkpt lat="39.575212191712964" lon="9.327773923095203"><ele>98.33333333333334</ele><time>2026-04-18T07:33:37Z</time></trkpt><trkpt lat="39.57519532028651" lon="9.327533046366478"><ele>99.66666666666666</ele><time>2026-04-18T07:33:38Z</time></trkpt><trkpt lat="39.5751783440252" lon="9.327295232808677"><ele>101.0</ele><time>2026-04-18T07:33:39Z</time></trkpt><trkpt lat="39.575157542248355" lon="9.327060908230408"><ele>103.0</ele><time>2026-04-18T07:33:40Z</time></trkpt><trkpt lat="39.57513679937729" lon="9.326828233842601"><ele>105.0</ele><time>2026-04-18T07:33:41Z</time></trkpt><trkpt lat="39.575116450972665" lon="9.326598370119315"><ele>107.0</ele><time>2026-04-18T07:33:42Z</time></trkpt><trkpt lat="39.57509944721351" lon="9.326372808951415"><ele>110.33333333333333</ele><time>2026-04-18T07:33:43Z</time></trkpt><trkpt lat="39.57509010927139" lon="9.326150163462255"><ele>113.66666666666666</ele><time>2026-04-18T07:33:44Z</time></trkpt><trkpt lat="39.57510732361367" lon="9.325930005472813"><ele>117.0</ele><time>2026-04-18T07:33:45Z</time></trkpt><trkpt lat="39.57515279733253" lon="9.325712403189334"><ele>116.33333333333334</ele><time>2026-04-18T07:33:46Z</time></trkpt><trkpt lat="39.57522776828015" lon="9.325503189660294"><ele>115.66666666666667</ele><time>2026-04-18T07:33:47Z</time></trkpt><trkpt lat="39.575326233750076" lon="9.32530870380662"><ele>115.0</ele><time>2026-04-18T07:33:48Z</time></trkpt><trkpt lat="39.57544257320017" lon="9.325129856007546"><ele>115.0</ele><time>2026-04-18T07:33:49Z</time></trkpt><trkpt lat="39.57556151738869" lon="9.324952527981347"><ele>115.0</ele><time>2026-04-18T07:33:50Z</time></trkpt><trkpt lat="39.57567389795285" lon="9.324770101968548"><ele>115.0</ele><time>2026-04-18T07:33:51Z</time></trkpt><trkpt lat="39.57578289614235" lon="9.324582558908912"><ele>118.0</ele><time>2026-04-18T07:33:52Z</time></trkpt><trkpt lat="39.57589413291178" lon="9.32438964769092"><ele>121.0</ele><time>2026-04-18T07:33:53Z</time></trkpt><trkpt lat="39.57600850139056" lon="9.324193645265062"><ele>124.0</ele><time>2026-04-18T07:33:54Z</time></trkpt><trkpt lat="39.57612138206922" lon="9.324002450600789"><ele>121.66666666666667</ele><time>2026-04-18T07:33:55Z</time></trkpt><trkpt lat="39.576232667670425" lon="9.323814381757966"><ele>119.33333333333334</ele><time>2026-04-18T07:33:56Z</time></trkpt><trkpt lat="39.5763363695577" lon="9.323632540174877"><ele>117.0</ele><time>2026-04-18T07:33:57Z</time></trkpt><trkpt lat="39.5764276431376" lon="9.323438496271804"><ele>117.0</ele><time>2026-04-18T07:33:58Z</time></trkpt><trkpt lat="39.576479286012" lon="9.323231352147957"><ele>117.0</ele><time>2026-04-18T07:33:59Z</time></trkpt><trkpt lat="39.576508897304706" lon="9.32300640798652"><ele>117.0</ele><time>2026-04-18T07:34:00Z</time></trkpt><trkpt lat="39.57652100784859" lon="9.322772781750595"><ele>117.0</ele><time>2026-04-18T07:34:01Z</time></trkpt><trkpt lat="39.57653051691288" lon="9.322542675400138"><ele>117.0</ele><time>2026-04-18T07:34:02Z</time></trkpt><trkpt lat="39.57655347780115" lon="9.322303384831551"><ele>117.0</ele><time>2026-04-18T07:34:03Z</time></trkpt><trkpt lat="39.57658011925448" lon="9.322056360176656"><ele>116.0</ele><time>2026-04-18T07:34:04Z</time></trkpt><trkpt lat="39.57660529256131" lon="9.321809846734965"><ele>115.0</ele><time>2026-04-18T07:34:05Z</time></trkpt><trkpt lat="39.57663024164255" lon="9.321556457407015"><ele>114.0</ele><time>2026-04-18T07:34:06Z</time></trkpt><trkpt lat="39.576654871428154" lon="9.32130381673813"><ele>114.0</ele><time>2026-04-18T07:34:07Z</time></trkpt><trkpt lat="39.57667610663016" lon="9.321054057718056"><ele>114.0</ele><time>2026-04-18T07:34:08Z</time></trkpt><trkpt lat="39.576704527232714" lon="9.320798741010522"><ele>114.0</ele><time>2026-04-18T07:34:09Z</time></trkpt><trkpt lat="39.57673162237724" lon="9.320545773264639"><ele>112.33333333333334</ele><time>2026-04-18T07:34:10Z</time></trkpt><trkpt lat="39.5767569233682" lon="9.32029202022224"><ele>110.66666666666667</ele><time>2026-04-18T07:34:11Z</time></trkpt><trkpt lat="39.57678092156297" lon="9.320038873188565"><ele>109.0</ele><time>2026-04-18T07:34:12Z</time></trkpt><trkpt lat="39.57680493221127" lon="9.319785508510675"><ele>109.33333333333334</ele><time>2026-04-18T07:34:13Z</time></trkpt><trkpt lat="39.57683129270445" lon="9.319531833328538"><ele>109.66666666666666</ele><time>2026-04-18T07:34:14Z</time></trkpt><trkpt lat="39.576860481729774" lon="9.31928422647413"><ele>110.0</ele><time>2026-04-18T07:34:15Z</time></trkpt><trkpt lat="39.57688435062127" lon="9.319053785880161"><ele>109.66666666666666</ele><time>2026-04-18T07:34:16Z</time></trkpt><trkpt lat="39.576884736823416" lon="9.318825291056713"><ele>109.33333333333334</ele><time>2026-04-18T07:34:17Z</time></trkpt><trkpt lat="39.5768554860648" lon="9.318590530310356"><ele>109.0</ele><time>2026-04-18T07:34:18Z</time></trkpt><trkpt lat="39.57679887216167" lon="9.318360200732645"><ele>109.0</ele><time>2026-04-18T07:34:19Z</time></trkpt><trkpt lat="39.57672603495389" lon="9.318131348336978"><ele>109.0</ele><time>2026-04-18T07:34:20Z</time></trkpt><trkpt lat="39.57665674339397" lon="9.317904524766023"><ele>109.0</ele><time>2026-04-18T07:34:21Z</time></trkpt><trkpt lat="39.57660059273224" lon="9.317666048623895"><ele>108.33333333333334</ele><time>2026-04-18T07:34:22Z</time></trkpt><trkpt lat="39.57654468157063" lon="9.317434185152909"><ele>107.66666666666666</ele><time>2026-04-18T07:34:23Z</time></trkpt><trkpt lat="39.57646733015077" lon="9.317209165126089"><ele>107.0</ele><time>2026-04-18T07:34:24Z</time></trkpt><trkpt lat="39.5763751911243" lon="9.316989947514827"><ele>106.33333333333333</ele><time>2026-04-18T07:34:25Z</time></trkpt><trkpt lat="39.576277016517444" lon="9.316771329648182"><ele>105.66666666666666</ele><time>2026-04-18T07:34:26Z</time></trkpt><trkpt lat="39.576183071868115" lon="9.316558840059933"><ele>105.0</ele><time>2026-04-18T07:34:27Z</time></trkpt><trkpt lat="39.57608945022487" lon="9.316348568970055"><ele>106.66666666666666</ele><time>2026-04-18T07:34:28Z</time></trkpt><trkpt lat="39.57600953297841" lon="9.316149618317105"><ele>108.33333333333333</ele><time>2026-04-18T07:34:29Z</time></trkpt><trkpt lat="39.57594675456549" lon="9.31595937370899"><ele>110.0</ele><time>2026-04-18T07:34:30Z</time></trkpt><trkpt lat="39.575917049770815" lon="9.315765459647098"><ele>109.0</ele><time>2026-04-18T07:34:31Z</time></trkpt><trkpt lat="39.57591664940557" lon="9.3155654787202"><ele>108.0</ele><time>2026-04-18T07:34:32Z</time></trkpt><trkpt lat="39.575952565763124" lon="9.315376276570952"><ele>107.0</ele><time>2026-04-18T07:34:33Z</time></trkpt><trkpt lat="39.57602525561396" lon="9.315194072128547"><ele>107.0</ele><time>2026-04-18T07:34:34Z</time></trkpt><trkpt lat="39.576121248776985" lon="9.31501521716998"><ele>107.0</ele><time>2026-04-18T07:34:35Z</time></trkpt><trkpt lat="39.57623102254888" lon="9.31484846796361"><ele>107.0</ele><time>2026-04-18T07:34:36Z</time></trkpt><trkpt lat="39.57634391770694" lon="9.314673583566007"><ele>110.0</ele><time>2026-04-18T07:34:37Z</time></trkpt><trkpt lat="39.57646415634698" lon="9.314491989218089"><ele>113.0</ele><time>2026-04-18T07:34:38Z</time></trkpt><trkpt lat="39.576587617832686" lon="9.314322205195905"><ele>116.0</ele><time>2026-04-18T07:34:39Z</time></trkpt><trkpt lat="39.57672020068233" lon="9.314157547435261"><ele>116.0</ele><time>2026-04-18T07:34:40Z</time></trkpt><trkpt lat="39.57685739822102" lon="9.314001144109726"><ele>116.0</ele><time>2026-04-18T07:34:41Z</time></trkpt><trkpt lat="39.57699657036172" lon="9.313841576035962"><ele>116.0</ele><time>2026-04-18T07:34:42Z</time></trkpt><trkpt lat="39.57713071660473" lon="9.313686834832467"><ele>119.33333333333333</ele><time>2026-04-18T07:34:43Z</time></trkpt><trkpt lat="39.577275335425334" lon="9.31352509034106"><ele>122.66666666666666</ele><time>2026-04-18T07:34:44Z</time></trkpt><trkpt lat="39.57741369768498" lon="9.313376663539923"><ele>126.0</ele><time>2026-04-18T07:34:45Z</time></trkpt><trkpt lat="39.57754967902884" lon="9.313225607207363"><ele>129.66666666666666</ele><time>2026-04-18T07:34:46Z</time></trkpt><trkpt lat="39.57766883447428" lon="9.313059170612705"><ele>133.33333333333331</ele><time>2026-04-18T07:34:47Z</time></trkpt><trkpt lat="39.57777854213183" lon="9.312875082971454"><ele>137.0</ele><time>2026-04-18T07:34:48Z</time></trkpt><trkpt lat="39.57786724610764" lon="9.312720029436553"><ele>137.0</ele><time>2026-04-18T07:34:49Z</time></trkpt><trkpt lat="39.57797011667033" lon="9.312595521418508"><ele>137.0</ele><time>2026-04-18T07:34:50Z</time></trkpt><trkpt lat="39.57809618185628" lon="9.312524106468016"><ele>137.0</ele><time>2026-04-18T07:34:51Z</time></trkpt><trkpt lat="39.578232118044156" lon="9.312502102422478"><ele>137.0</ele><time>2026-04-18T07:34:52Z</time></trkpt><trkpt lat="39.578374315779186" lon="9.312512058350142"><ele>137.0</ele><time>2026-04-18T07:34:53Z</time></trkpt><trkpt lat="39.578522686480056" lon="9.312543487052192"><ele>137.0</ele><time>2026-04-18T07:34:54Z</time></trkpt><trkpt lat="39.578673867145056" lon="9.312560338281202"><ele>137.0</ele><time>2026-04-18T07:34:55Z</time></trkpt><trkpt lat="39.57882809379203" lon="9.3125710816092"><ele>135.33333333333331</ele><time>2026-04-18T07:34:56Z</time></trkpt><trkpt lat="39.57897541452071" lon="9.312564130909424"><ele>133.66666666666666</ele><time>2026-04-18T07:34:57Z</time></trkpt><trkpt lat="39.579118004994044" lon="9.312517323672328"><ele>132.0</ele><time>2026-04-18T07:34:58Z</time></trkpt><trkpt lat="39.57925563756907" lon="9.31242444857542"><ele>132.0</ele><time>2026-04-18T07:34:59Z</time></trkpt><trkpt lat="39.57938433353454" lon="9.312294802173467"><ele>132.0</ele><time>2026-04-18T07:35:00Z</time></trkpt><trkpt lat="39.579517342952144" lon="9.312154683576678"><ele>132.0</ele><time>2026-04-18T07:35:01Z</time></trkpt><trkpt lat="39.57965590044002" lon="9.312024141908013"><ele>132.33333333333334</ele><time>2026-04-18T07:35:02Z</time></trkpt><trkpt lat="39.579793700028716" lon="9.311897805516052"><ele>132.66666666666669</ele><time>2026-04-18T07:35:03Z</time></trkpt><trkpt lat="39.57994012056603" lon="9.311766817588214"><ele>133.0</ele><time>2026-04-18T07:35:04Z</time></trkpt><trkpt lat="39.58008506789811" lon="9.31163738701093"><ele>133.0</ele><time>2026-04-18T07:35:05Z</time></trkpt><trkpt lat="39.580228674731444" lon="9.311506729143929"><ele>133.0</ele><time>2026-04-18T07:35:06Z</time></trkpt><trkpt lat="39.580372449155256" lon="9.311375876449656"><ele>133.0</ele><time>2026-04-18T07:35:07Z</time></trkpt><trkpt lat="39.58051633164519" lon="9.311244476910172"><ele>133.0</ele><time>2026-04-18T07:35:08Z</time></trkpt><trkpt lat="39.58065655016039" lon="9.311118094468501"><ele>133.0</ele><time>2026-04-18T07:35:09Z</time></trkpt><trkpt lat="39.58079932196536" lon="9.310989237327567"><ele>133.0</ele><time>2026-04-18T07:35:10Z</time></trkpt><trkpt lat="39.58093587473424" lon="9.310866521965723"><ele>133.0</ele><time>2026-04-18T07:35:11Z</time></trkpt><trkpt lat="39.58107448839179" lon="9.310747608953605"><ele>133.0</ele><time>2026-04-18T07:35:12Z</time></trkpt><trkpt lat="39.58120503110603" lon="9.310647886177772"><ele>133.0</ele><time>2026-04-18T07:35:13Z</time></trkpt><trkpt lat="39.581321490147765" lon="9.310549183810302"><ele>134.4</ele><time>2026-04-18T07:35:14Z</time></trkpt><trkpt lat="39.58140048187889" lon="9.310429780024055"><ele>135.8</ele><time>2026-04-18T07:35:15Z</time></trkpt><trkpt lat="39.58143172379147" lon="9.31029436312673"><ele>137.2</ele><time>2026-04-18T07:35:16Z</time></trkpt><trkpt lat="39.58141268836314" lon="9.310165553868456"><ele>138.6</ele><time>2026-04-18T07:35:17Z</time></trkpt><trkpt lat="39.581353048958924" lon="9.310043692774085"><ele>140.0</ele><time>2026-04-18T07:35:18Z</time></trkpt><trkpt lat="39.58127121666481" lon="9.309943251807578"><ele>141.2</ele><time>2026-04-18T07:35:19Z</time></trkpt><trkpt lat="39.58117242090703" lon="9.309909366789501"><ele>142.4</ele><time>2026-04-18T07:35:20Z</time></trkpt><trkpt lat="39.58106449280989" lon="9.309941134950154"><ele>143.6</ele><time>2026-04-18T07:35:21Z</time></trkpt><trkpt lat="39.58096908703227" lon="9.310021354597863"><ele>144.8</ele><time>2026-04-18T07:35:22Z</time></trkpt><trkpt lat="39.58089466529107" lon="9.31014492603806"><ele>146.0</ele><time>2026-04-18T07:35:23Z</time></trkpt><trkpt lat="39.58082476322376" lon="9.31027826210234"><ele>146.0</ele><time>2026-04-18T07:35:24Z</time></trkpt><trkpt lat="39.58074023832852" lon="9.310399367979873"><ele>146.0</ele><time>2026-04-18T07:35:25Z</time></trkpt><trkpt lat="39.580636068254286" lon="9.310506788734294"><ele>146.0</ele><time>2026-04-18T07:35:26Z</time></trkpt><trkpt lat="39.58052170948208" lon="9.310601949994764"><ele>146.0</ele><time>2026-04-18T07:35:27Z</time></trkpt><trkpt lat="39.58040415607027" lon="9.310695873969282"><ele>148.25</ele><time>2026-04-18T07:35:28Z</time></trkpt><trkpt lat="39.580285706790896" lon="9.310790514354878"><ele>150.5</ele><time>2026-04-18T07:35:29Z</time></trkpt><trkpt lat="39.58016422483935" lon="9.31088573997734"><ele>152.75</ele><time>2026-04-18T07:35:30Z</time></trkpt><trkpt lat="39.58003640110544" lon="9.310975144533757"><ele>155.0</ele><time>2026-04-18T07:35:31Z</time></trkpt><trkpt lat="39.57990313394935" lon="9.31106021517451"><ele>155.0</ele><time>2026-04-18T07:35:32Z</time></trkpt><trkpt lat="39.579767582102626" lon="9.311147530242259"><ele>155.0</ele><time>2026-04-18T07:35:33Z</time></trkpt><trkpt lat="39.57963088467635" lon="9.311239793904557"><ele>155.0</ele><time>2026-04-18T07:35:34Z</time></trkpt><trkpt lat="39.57949297384164" lon="9.311338645703733"><ele>155.33333333333331</ele><time>2026-04-18T07:35:35Z</time></trkpt><trkpt lat="39.57935514727382" lon="9.311434003218874"><ele>155.66666666666666</ele><time>2026-04-18T07:35:36Z</time></trkpt><trkpt lat="39.579218531657645" lon="9.311518845983521"><ele>156.0</ele><time>2026-04-18T07:35:37Z</time></trkpt><trkpt lat="39.57908540190077" lon="9.311597430807929"><ele>156.0</ele><time>2026-04-18T07:35:38Z</time></trkpt><trkpt lat="39.578944847288355" lon="9.311661059727358"><ele>156.0</ele><time>2026-04-18T07:35:39Z</time></trkpt><trkpt lat="39.57880068095048" lon="9.311670511319203"><ele>156.0</ele><time>2026-04-18T07:35:40Z</time></trkpt><trkpt lat="39.57865069988695" lon="9.311647098449033"><ele>156.0</ele><time>2026-04-18T07:35:41Z</time></trkpt><trkpt lat="39.5784998353265" lon="9.311599062404582"><ele>158.0</ele><time>2026-04-18T07:35:42Z</time></trkpt><trkpt lat="39.5783448089301" lon="9.311547731067659"><ele>160.0</ele><time>2026-04-18T07:35:43Z</time></trkpt><trkpt lat="39.57819192362161" lon="9.311503406315452"><ele>162.0</ele><time>2026-04-18T07:35:44Z</time></trkpt><trkpt lat="39.57803629186816" lon="9.31145910660656"><ele>162.0</ele><time>2026-04-18T07:35:45Z</time></trkpt><trkpt lat="39.57788390816257" lon="9.311411917566284"><ele>162.0</ele><time>2026-04-18T07:35:46Z</time></trkpt><trkpt lat="39.577734883297985" lon="9.311367778748231"><ele>162.0</ele><time>2026-04-18T07:35:47Z</time></trkpt><trkpt lat="39.57758929774744" lon="9.311337975627138"><ele>166.0</ele><time>2026-04-18T07:35:48Z</time></trkpt><trkpt lat="39.577445093051416" lon="9.311349896630992"><ele>170.0</ele><time>2026-04-18T07:35:49Z</time></trkpt><trkpt lat="39.57730575395898" lon="9.311413370577773"><ele>174.0</ele><time>2026-04-18T07:35:50Z</time></trkpt><trkpt lat="39.57718688372215" lon="9.311564371670487"><ele>174.0</ele><time>2026-04-18T07:35:51Z</time></trkpt><trkpt lat="39.57708043384081" lon="9.311705569866476"><ele>174.0</ele><time>2026-04-18T07:35:52Z</time></trkpt><trkpt lat="39.576987775439456" lon="9.311876102152512"><ele>174.0</ele><time>2026-04-18T07:35:53Z</time></trkpt><trkpt lat="39.57690063570326" lon="9.312007563032548"><ele>174.0</ele><time>2026-04-18T07:35:54Z</time></trkpt><trkpt lat="39.57680396461721" lon="9.312085969276666"><ele>175.6</ele><time>2026-04-18T07:35:55Z</time></trkpt><trkpt lat="39.576699035837436" lon="9.312101309920248"><ele>177.2</ele><time>2026-04-18T07:35:56Z</time></trkpt><trkpt lat="39.576599102013304" lon="9.3120382185649"><ele>178.79999999999998</ele><time>2026-04-18T07:35:57Z</time></trkpt><trkpt lat="39.57653011619294" lon="9.311920559081738"><ele>180.39999999999998</ele><time>2026-04-18T07:35:58Z</time></trkpt><trkpt lat="39.57651549848087" lon="9.31177053196387"><ele>182.0</ele><time>2026-04-18T07:35:59Z</time></trkpt><trkpt lat="39.57656009831367" lon="9.311630022720314"><ele>182.0</ele><time>2026-04-18T07:36:00Z</time></trkpt><trkpt lat="39.5766915777721" lon="9.311508283987301"><ele>182.0</ele><time>2026-04-18T07:36:01Z</time></trkpt><trkpt lat="39.57680580265233" lon="9.31141684283431"><ele>182.0</ele><time>2026-04-18T07:36:02Z</time></trkpt><trkpt lat="39.5769157131554" lon="9.31131016626475"><ele>182.0</ele><time>2026-04-18T07:36:03Z</time></trkpt><trkpt lat="39.577030837890376" lon="9.311191655187075"><ele>188.33333333333331</ele><time>2026-04-18T07:36:04Z</time></trkpt><trkpt lat="39.57715139322492" lon="9.311073669975684"><ele>194.66666666666666</ele><time>2026-04-18T07:36:05Z</time></trkpt><trkpt lat="39.57727287330164" lon="9.310949817007891"><ele>201.0</ele><time>2026-04-18T07:36:06Z</time></trkpt><trkpt lat="39.57739257652645" lon="9.310824184466224"><ele>201.0</ele><time>2026-04-18T07:36:07Z</time></trkpt><trkpt lat="39.57751810308646" lon="9.310702711193851"><ele>201.0</ele><time>2026-04-18T07:36:08Z</time></trkpt><trkpt lat="39.57764267048763" lon="9.31057742592454"><ele>201.0</ele><time>2026-04-18T07:36:09Z</time></trkpt><trkpt lat="39.57775744402839" lon="9.310434254026347"><ele>204.0</ele><time>2026-04-18T07:36:10Z</time></trkpt><trkpt lat="39.5778672295185" lon="9.31028023144696"><ele>207.0</ele><time>2026-04-18T07:36:11Z</time></trkpt><trkpt lat="39.57798334516591" lon="9.310133516689412"><ele>210.0</ele><time>2026-04-18T07:36:12Z</time></trkpt><trkpt lat="39.57810066153224" lon="9.30998548211045"><ele>210.0</ele><time>2026-04-18T07:36:13Z</time></trkpt><trkpt lat="39.57821253380663" lon="9.309834796762061"><ele>210.0</ele><time>2026-04-18T07:36:14Z</time></trkpt><trkpt lat="39.57833029201055" lon="9.309684723972191"><ele>210.0</ele><time>2026-04-18T07:36:15Z</time></trkpt><trkpt lat="39.57844751266732" lon="9.309538255003307"><ele>210.66666666666669</ele><time>2026-04-18T07:36:16Z</time></trkpt><trkpt lat="39.57856393248226" lon="9.309384001818264"><ele>211.33333333333334</ele><time>2026-04-18T07:36:17Z</time></trkpt><trkpt lat="39.57867864009422" lon="9.3092312409465"><ele>212.0</ele><time>2026-04-18T07:36:18Z</time></trkpt><trkpt lat="39.57879765190739" lon="9.309081345951961"><ele>212.0</ele><time>2026-04-18T07:36:19Z</time></trkpt><trkpt lat="39.57891806382085" lon="9.308933251869272"><ele>212.0</ele><time>2026-04-18T07:36:20Z</time></trkpt><trkpt lat="39.57903422144902" lon="9.308780938138646"><ele>212.0</ele><time>2026-04-18T07:36:21Z</time></trkpt><trkpt lat="39.57914143618653" lon="9.308626232755872"><ele>218.0</ele><time>2026-04-18T07:36:22Z</time></trkpt><trkpt lat="39.57924657925967" lon="9.3084786005347"><ele>224.0</ele><time>2026-04-18T07:36:23Z</time></trkpt><trkpt lat="39.57933985196929" lon="9.308348508531216"><ele>230.0</ele><time>2026-04-18T07:36:24Z</time></trkpt><trkpt lat="39.579409763184245" lon="9.3082164489482"><ele>236.0</ele><time>2026-04-18T07:36:25Z</time></trkpt><trkpt lat="39.579449483319564" lon="9.308078898680385"><ele>238.8</ele><time>2026-04-18T07:36:26Z</time></trkpt><trkpt lat="39.57943814884906" lon="9.307941491935587"><ele>241.60000000000002</ele><time>2026-04-18T07:36:27Z</time></trkpt><trkpt lat="39.57937749214217" lon="9.30782537953468"><ele>244.4</ele><time>2026-04-18T07:36:28Z</time></trkpt><trkpt lat="39.57927909211679" lon="9.30775244464273"><ele>247.2</ele><time>2026-04-18T07:36:29Z</time></trkpt><trkpt lat="39.579169393203145" lon="9.307733860311108"><ele>250.0</ele><time>2026-04-18T07:36:30Z</time></trkpt><trkpt lat="39.5790503745906" lon="9.307775460426466"><ele>250.0</ele><time>2026-04-18T07:36:31Z</time></trkpt><trkpt lat="39.57894536096885" lon="9.307863998121803"><ele>250.0</ele><time>2026-04-18T07:36:32Z</time></trkpt><trkpt lat="39.578840463069675" lon="9.307970168725605"><ele>250.0</ele><time>2026-04-18T07:36:33Z</time></trkpt><trkpt lat="39.57873169696113" lon="9.308070585329432"><ele>250.0</ele><time>2026-04-18T07:36:34Z</time></trkpt><trkpt lat="39.578603522356644" lon="9.308147786419578"><ele>250.75</ele><time>2026-04-18T07:36:35Z</time></trkpt><trkpt lat="39.578473913753555" lon="9.308206958514289"><ele>251.5</ele><time>2026-04-18T07:36:36Z</time></trkpt><trkpt lat="39.57834183587464" lon="9.308271186608335"><ele>252.25</ele><time>2026-04-18T07:36:37Z</time></trkpt><trkpt lat="39.578206406881684" lon="9.308345219012457"><ele>253.0</ele><time>2026-04-18T07:36:38Z</time></trkpt><trkpt lat="39.57806820091029" lon="9.30842057946125"><ele>253.0</ele><time>2026-04-18T07:36:39Z</time></trkpt><trkpt lat="39.577931435479385" lon="9.308501219254953"><ele>253.0</ele><time>2026-04-18T07:36:40Z</time></trkpt><trkpt lat="39.577803138138634" lon="9.308590861708872"><ele>253.0</ele><time>2026-04-18T07:36:41Z</time></trkpt><trkpt lat="39.57767927299092" lon="9.308663707290522"><ele>253.0</ele><time>2026-04-18T07:36:42Z</time></trkpt><trkpt lat="39.577546924247926" lon="9.308702421344016"><ele>256.0</ele><time>2026-04-18T07:36:43Z</time></trkpt><trkpt lat="39.57740424705162" lon="9.308696818429521"><ele>259.0</ele><time>2026-04-18T07:36:44Z</time></trkpt><trkpt lat="39.57726473155217" lon="9.308645116247806"><ele>262.0</ele><time>2026-04-18T07:36:45Z</time></trkpt><trkpt lat="39.5771301405157" lon="9.308557351237509"><ele>265.0</ele><time>2026-04-18T07:36:46Z</time></trkpt><trkpt lat="39.577004425990395" lon="9.308433367634912"><ele>265.0</ele><time>2026-04-18T07:36:47Z</time></trkpt><trkpt lat="39.57687735110162" lon="9.3083047974742"><ele>265.0</ele><time>2026-04-18T07:36:48Z</time></trkpt><trkpt lat="39.57674410852532" lon="9.308186547999401"><ele>265.0</ele><time>2026-04-18T07:36:49Z</time></trkpt><trkpt lat="39.576606904331626" lon="9.30807012009841"><ele>274.0</ele><time>2026-04-18T07:36:50Z</time></trkpt><trkpt lat="39.57647247082181" lon="9.307951924515956"><ele>283.0</ele><time>2026-04-18T07:36:51Z</time></trkpt><trkpt lat="39.57633711034985" lon="9.30784324295788"><ele>292.0</ele><time>2026-04-18T07:36:52Z</time></trkpt><trkpt lat="39.57620664649364" lon="9.307754202814902"><ele>287.6</ele><time>2026-04-18T07:36:53Z</time></trkpt><trkpt lat="39.57609066264811" lon="9.307675189304561"><ele>283.2</ele><time>2026-04-18T07:36:54Z</time></trkpt><trkpt lat="39.57599362026519" lon="9.307585062202664"><ele>278.8</ele><time>2026-04-18T07:36:55Z</time></trkpt><trkpt lat="39.575925660656104" lon="9.307477890709224"><ele>274.4</ele><time>2026-04-18T07:36:56Z</time></trkpt><trkpt lat="39.57590992436702" lon="9.307363092990487"><ele>270.0</ele><time>2026-04-18T07:36:57Z</time></trkpt><trkpt lat="39.575939869866026" lon="9.307247206679284"><ele>272.8</ele><time>2026-04-18T07:36:58Z</time></trkpt><trkpt lat="39.57600816193201" lon="9.307152142842472"><ele>275.6</ele><time>2026-04-18T07:36:59Z</time></trkpt><trkpt lat="39.57610748995655" lon="9.307103062170171"><ele>278.4</ele><time>2026-04-18T07:37:00Z</time></trkpt><trkpt lat="39.57621587885292" lon="9.307115886845883"><ele>281.2</ele><time>2026-04-18T07:37:01Z</time></trkpt><trkpt lat="39.5763123986345" lon="9.307182206602295"><ele>284.0</ele><time>2026-04-18T07:37:02Z</time></trkpt><trkpt lat="39.57638825494239" lon="9.30729890050103"><ele>286.0</ele><time>2026-04-18T07:37:03Z</time></trkpt><trkpt lat="39.57647232623719" lon="9.307420028540351"><ele>288.0</ele><time>2026-04-18T07:37:04Z</time></trkpt><trkpt lat="39.57658163943574" lon="9.307534163349484"><ele>290.0</ele><time>2026-04-18T07:37:05Z</time></trkpt><trkpt lat="39.576697406468575" lon="9.307644138023997"><ele>292.0</ele><time>2026-04-18T07:37:06Z</time></trkpt><trkpt lat="39.576810870856804" lon="9.307749783126477"><ele>292.0</ele><time>2026-04-18T07:37:07Z</time></trkpt><trkpt lat="39.576929300068194" lon="9.307851119184205"><ele>292.0</ele><time>2026-04-18T07:37:08Z</time></trkpt><trkpt lat="39.57705630351472" lon="9.307934319028424"><ele>292.0</ele><time>2026-04-18T07:37:09Z</time></trkpt><trkpt lat="39.577190428977254" lon="9.307979732155275"><ele>292.0</ele><time>2026-04-18T07:37:10Z</time></trkpt><trkpt lat="39.57732348589094" lon="9.307975037770966"><ele>294.25</ele><time>2026-04-18T07:37:11Z</time></trkpt><trkpt lat="39.577442959249176" lon="9.30792631606673"><ele>296.5</ele><time>2026-04-18T07:37:12Z</time></trkpt><trkpt lat="39.5775482423331" lon="9.307834837478827"><ele>298.75</ele><time>2026-04-18T07:37:13Z</time></trkpt><trkpt lat="39.57763979372003" lon="9.307702875866752"><ele>301.0</ele><time>2026-04-18T07:37:14Z</time></trkpt><trkpt lat="39.577716120221446" lon="9.307544810124394"><ele>301.0</ele><time>2026-04-18T07:37:15Z</time></trkpt><trkpt lat="39.57777423225987" lon="9.307369980590384"><ele>301.0</ele><time>2026-04-18T07:37:16Z</time></trkpt><trkpt lat="39.57781983243506" lon="9.307187019390188"><ele>301.0</ele><time>2026-04-18T07:37:17Z</time></trkpt><trkpt lat="39.577864277993164" lon="9.307007440420694"><ele>301.0</ele><time>2026-04-18T07:37:18Z</time></trkpt><trkpt lat="39.577911655869514" lon="9.306831204458405"><ele>298.75</ele><time>2026-04-18T07:37:19Z</time></trkpt><trkpt lat="39.57795775809291" lon="9.306654448692994"><ele>296.5</ele><time>2026-04-18T07:37:20Z</time></trkpt><trkpt lat="39.57800026798438" lon="9.306475921179635"><ele>294.25</ele><time>2026-04-18T07:37:21Z</time></trkpt><trkpt lat="39.57804660350034" lon="9.306304459029057"><ele>292.0</ele><time>2026-04-18T07:37:22Z</time></trkpt><trkpt lat="39.57810204131694" lon="9.306135222251863"><ele>298.0</ele><time>2026-04-18T07:37:23Z</time></trkpt><trkpt lat="39.578163816772324" lon="9.305969720310062"><ele>304.0</ele><time>2026-04-18T07:37:24Z</time></trkpt><trkpt lat="39.57825069419831" lon="9.305823479946381"><ele>310.0</ele><time>2026-04-18T07:37:25Z</time></trkpt><trkpt lat="39.57836190128795" lon="9.30570131273233"><ele>316.0</ele><time>2026-04-18T07:37:26Z</time></trkpt><trkpt lat="39.57849991920758" lon="9.305618575795858"><ele>326.3333333333333</ele><time>2026-04-18T07:37:27Z</time></trkpt><trkpt lat="39.5786535221473" lon="9.305578571450159"><ele>336.6666666666667</ele><time>2026-04-18T07:37:28Z</time></trkpt><trkpt lat="39.578816356958626" lon="9.305551004502293"><ele>347.0</ele><time>2026-04-18T07:37:29Z</time></trkpt><trkpt lat="39.57897861180186" lon="9.305509528738755"><ele>349.33333333333337</ele><time>2026-04-18T07:37:30Z</time></trkpt><trkpt lat="39.57914064339713" lon="9.305483632880716"><ele>351.6666666666667</ele><time>2026-04-18T07:37:31Z</time></trkpt><trkpt lat="39.57930151077016" lon="9.305493976445177"><ele>354.0</ele><time>2026-04-18T07:37:32Z</time></trkpt><trkpt lat="39.57946372692064" lon="9.305516529815787"><ele>354.3333333333333</ele><time>2026-04-18T07:37:33Z</time></trkpt><trkpt lat="39.57962360639094" lon="9.305554467594744"><ele>354.66666666666663</ele><time>2026-04-18T07:37:34Z</time></trkpt><trkpt lat="39.5797821731176" lon="9.305611156801127"><ele>355.0</ele><time>2026-04-18T07:37:35Z</time></trkpt><trkpt lat="39.57993756397424" lon="9.305655849795153"><ele>343.0</ele><time>2026-04-18T07:37:36Z</time></trkpt><trkpt lat="39.58009328359927" lon="9.305670559148746"><ele>331.0</ele><time>2026-04-18T07:37:37Z</time></trkpt><trkpt lat="39.580252899653345" lon="9.30565313006365"><ele>319.0</ele><time>2026-04-18T07:37:38Z</time></trkpt><trkpt lat="39.580415890925764" lon="9.305596192767926"><ele>327.0</ele><time>2026-04-18T07:37:39Z</time></trkpt><trkpt lat="39.5805671699704" lon="9.305527041774534"><ele>335.0</ele><time>2026-04-18T07:37:40Z</time></trkpt><trkpt lat="39.580725322547515" lon="9.305468782432323"><ele>343.0</ele><time>2026-04-18T07:37:41Z</time></trkpt><trkpt lat="39.580892967696464" lon="9.305362174729964"><ele>343.0</ele><time>2026-04-18T07:37:42Z</time></trkpt><trkpt lat="39.58105341548919" lon="9.30527876971879"><ele>343.0</ele><time>2026-04-18T07:37:43Z</time></trkpt><trkpt lat="39.58121022429138" lon="9.305194973380596"><ele>343.0</ele><time>2026-04-18T07:37:44Z</time></trkpt><trkpt lat="39.58136870547217" lon="9.305112871314515"><ele>341.3333333333333</ele><time>2026-04-18T07:37:45Z</time></trkpt><trkpt lat="39.58152232428506" lon="9.305033837359455"><ele>339.6666666666667</ele><time>2026-04-18T07:37:46Z</time></trkpt><trkpt lat="39.581673667804495" lon="9.30495517031635"><ele>338.0</ele><time>2026-04-18T07:37:47Z</time></trkpt><trkpt lat="39.58182189636531" lon="9.304877587347287"><ele>338.0</ele><time>2026-04-18T07:37:48Z</time></trkpt><trkpt lat="39.58195106843619" lon="9.304808446450062"><ele>338.0</ele><time>2026-04-18T07:37:49Z</time></trkpt><trkpt lat="39.58206232243198" lon="9.304737030283846"><ele>338.0</ele><time>2026-04-18T07:37:50Z</time></trkpt><trkpt lat="39.582145968732455" lon="9.304636702343842"><ele>338.0</ele><time>2026-04-18T07:37:51Z</time></trkpt><trkpt lat="39.58218799216382" lon="9.304500259451844"><ele>339.75</ele><time>2026-04-18T07:37:52Z</time></trkpt><trkpt lat="39.58219500759776" lon="9.304335208911501"><ele>341.5</ele><time>2026-04-18T07:37:53Z</time></trkpt><trkpt lat="39.58216734128096" lon="9.304169790325739"><ele>343.25</ele><time>2026-04-18T07:37:54Z</time></trkpt><trkpt lat="39.582101203909126" lon="9.304013114891779"><ele>345.0</ele><time>2026-04-18T07:37:55Z</time></trkpt><trkpt lat="39.582005525314" lon="9.303871021691817"><ele>346.0</ele><time>2026-04-18T07:37:56Z</time></trkpt><trkpt lat="39.581900780400616" lon="9.303726816819635"><ele>347.0</ele><time>2026-04-18T07:37:57Z</time></trkpt><trkpt lat="39.5818107122064" lon="9.303567410378651"><ele>348.0</ele><time>2026-04-18T07:37:58Z</time></trkpt><trkpt lat="39.58172359124179" lon="9.303398089008665"><ele>348.0</ele><time>2026-04-18T07:37:59Z</time></trkpt><trkpt lat="39.58162068506914" lon="9.303235156490118"><ele>348.0</ele><time>2026-04-18T07:38:00Z</time></trkpt><trkpt lat="39.58150466240763" lon="9.303080595988174"><ele>348.0</ele><time>2026-04-18T07:38:01Z</time></trkpt><trkpt lat="39.58137171920584" lon="9.302943227667566"><ele>346.6666666666667</ele><time>2026-04-18T07:38:02Z</time></trkpt><trkpt lat="39.58123411886922" lon="9.302807491601863"><ele>345.33333333333337</ele><time>2026-04-18T07:38:03Z</time></trkpt><trkpt lat="39.581091156630954" lon="9.302677901402069"><ele>344.0</ele><time>2026-04-18T07:38:04Z</time></trkpt><trkpt lat="39.58096411764804" lon="9.302542368369801"><ele>343.6666666666667</ele><time>2026-04-18T07:38:05Z</time></trkpt><trkpt lat="39.58083793848541" lon="9.302413792550322"><ele>343.3333333333333</ele><time>2026-04-18T07:38:06Z</time></trkpt><trkpt lat="39.580716977504835" lon="9.302292487378812"><ele>343.0</ele><time>2026-04-18T07:38:07Z</time></trkpt><trkpt lat="39.58060177558781" lon="9.302170799925792"><ele>343.0</ele><time>2026-04-18T07:38:08Z</time></trkpt><trkpt lat="39.58051655909837" lon="9.302016740841788"><ele>343.0</ele><time>2026-04-18T07:38:09Z</time></trkpt><trkpt lat="39.5804434260599" lon="9.301854077650237"><ele>343.0</ele><time>2026-04-18T07:38:10Z</time></trkpt><trkpt lat="39.58037955747015" lon="9.30167245607536"><ele>343.0</ele><time>2026-04-18T07:38:11Z</time></trkpt><trkpt lat="39.58032222123015" lon="9.301476685562374"><ele>349.0</ele><time>2026-04-18T07:38:12Z</time></trkpt><trkpt lat="39.58026684015942" lon="9.301278150499066"><ele>355.0</ele><time>2026-04-18T07:38:13Z</time></trkpt><trkpt lat="39.58022354380902" lon="9.301074036749915"><ele>361.0</ele><time>2026-04-18T07:38:14Z</time></trkpt><trkpt lat="39.58019816074371" lon="9.300861474161557"><ele>361.0</ele><time>2026-04-18T07:38:15Z</time></trkpt><trkpt lat="39.58018730104095" lon="9.300646544989963"><ele>361.0</ele><time>2026-04-18T07:38:16Z</time></trkpt><trkpt lat="39.580170858892224" lon="9.300435135136134"><ele>361.0</ele><time>2026-04-18T07:38:17Z</time></trkpt><trkpt lat="39.58017213999362" lon="9.300218508131662"><ele>360.66666666666663</ele><time>2026-04-18T07:38:18Z</time></trkpt><trkpt lat="39.58017909533785" lon="9.300003651951801"><ele>360.3333333333333</ele><time>2026-04-18T07:38:19Z</time></trkpt><trkpt lat="39.58017511571387" lon="9.299795294358766"><ele>360.0</ele><time>2026-04-18T07:38:20Z</time></trkpt><trkpt lat="39.580173561741525" lon="9.299596887951735"><ele>360.0</ele><time>2026-04-18T07:38:21Z</time></trkpt><trkpt lat="39.58017974435322" lon="9.2994180816051"><ele>360.0</ele><time>2026-04-18T07:38:22Z</time></trkpt><trkpt lat="39.58019176024426" lon="9.299239625591996"><ele>360.0</ele><time>2026-04-18T07:38:23Z</time></trkpt><trkpt lat="39.58025647849061" lon="9.299084541008547"><ele>360.0</ele><time>2026-04-18T07:38:24Z</time></trkpt><trkpt lat="39.580365268721515" lon="9.298961757096363"><ele>364.75</ele><time>2026-04-18T07:38:25Z</time></trkpt><trkpt lat="39.58048784309478" lon="9.298889258946899"><ele>369.5</ele><time>2026-04-18T07:38:26Z</time></trkpt><trkpt lat="39.58062260003479" lon="9.298808779695444"><ele>374.25</ele><time>2026-04-18T07:38:27Z</time></trkpt><trkpt lat="39.58075519985447" lon="9.298720362774711"><ele>379.0</ele><time>2026-04-18T07:38:28Z</time></trkpt><trkpt lat="39.58089613266845" lon="9.29864229089125"><ele>379.0</ele><time>2026-04-18T07:38:29Z</time></trkpt><trkpt lat="39.58103510943577" lon="9.298564451648975"><ele>379.0</ele><time>2026-04-18T07:38:30Z</time></trkpt><trkpt lat="39.581172620349285" lon="9.298497341057885"><ele>379.0</ele><time>2026-04-18T07:38:31Z</time></trkpt><trkpt lat="39.58131285002254" lon="9.298478767375235"><ele>379.0</ele><time>2026-04-18T07:38:32Z</time></trkpt><trkpt lat="39.58145614414133" lon="9.29845917961117"><ele>378.75</ele><time>2026-04-18T07:38:33Z</time></trkpt><trkpt lat="39.58159845949294" lon="9.298492662713938"><ele>378.5</ele><time>2026-04-18T07:38:34Z</time></trkpt><trkpt lat="39.58172627938259" lon="9.298509507916455"><ele>378.25</ele><time>2026-04-18T07:38:35Z</time></trkpt><trkpt lat="39.58183201070232" lon="9.298477597448791"><ele>378.0</ele><time>2026-04-18T07:38:36Z</time></trkpt><trkpt lat="39.58191262078532" lon="9.29838516582823"><ele>378.0</ele><time>2026-04-18T07:38:37Z</time></trkpt><trkpt lat="39.58196218732301" lon="9.298247723686597"><ele>378.0</ele><time>2026-04-18T07:38:38Z</time></trkpt><trkpt lat="39.5819690400001" lon="9.29809498999611"><ele>378.0</ele><time>2026-04-18T07:38:39Z</time></trkpt><trkpt lat="39.58192587069123" lon="9.297959032602234"><ele>378.0</ele><time>2026-04-18T07:38:40Z</time></trkpt><trkpt lat="39.581835088193976" lon="9.297856396881867"><ele>385.25</ele><time>2026-04-18T07:38:41Z</time></trkpt><trkpt lat="39.58171909748444" lon="9.297784093675228"><ele>392.5</ele><time>2026-04-18T07:38:42Z</time></trkpt><trkpt lat="39.58158933631649" lon="9.29776409232321"><ele>399.75</ele><time>2026-04-18T07:38:43Z</time></trkpt><trkpt lat="39.58145507894389" lon="9.297794704964057"><ele>407.0</ele><time>2026-04-18T07:38:44Z</time></trkpt><trkpt lat="39.58132345579473" lon="9.29781818806075"><ele>407.0</ele><time>2026-04-18T07:38:45Z</time></trkpt><trkpt lat="39.5811937600565" lon="9.297842031689571"><ele>407.0</ele><time>2026-04-18T07:38:46Z</time></trkpt><trkpt lat="39.581068558610816" lon="9.29784109173019"><ele>407.0</ele><time>2026-04-18T07:38:47Z</time></trkpt><trkpt lat="39.580942150045985" lon="9.2978344542424"><ele>407.0</ele><time>2026-04-18T07:38:48Z</time></trkpt><trkpt lat="39.58081746577553" lon="9.297811861391297"><ele>406.5</ele><time>2026-04-18T07:38:49Z</time></trkpt><trkpt lat="39.58069273749258" lon="9.297747969254539"><ele>406.0</ele><time>2026-04-18T07:38:50Z</time></trkpt><trkpt lat="39.58056862083816" lon="9.297673550104593"><ele>405.5</ele><time>2026-04-18T07:38:51Z</time></trkpt><trkpt lat="39.58044575370036" lon="9.297579733866204"><ele>405.0</ele><time>2026-04-18T07:38:52Z</time></trkpt><trkpt lat="39.58031570631606" lon="9.297503047791475"><ele>402.75</ele><time>2026-04-18T07:38:53Z</time></trkpt><trkpt lat="39.5801834321837" lon="9.297428055235748"><ele>400.5</ele><time>2026-04-18T07:38:54Z</time></trkpt><trkpt lat="39.5800605510257" lon="9.297340291685574"><ele>398.25</ele><time>2026-04-18T07:38:55Z</time></trkpt><trkpt lat="39.57994710120505" lon="9.297231414115213"><ele>396.0</ele><time>2026-04-18T07:38:56Z</time></trkpt><trkpt lat="39.579836946478096" lon="9.29710991038043"><ele>393.25</ele><time>2026-04-18T07:38:57Z</time></trkpt><trkpt lat="39.57972317258505" lon="9.297001115260404"><ele>390.5</ele><time>2026-04-18T07:38:58Z</time></trkpt><trkpt lat="39.57962199792366" lon="9.296906651282823"><ele>387.75</ele><time>2026-04-18T07:38:59Z</time></trkpt><trkpt lat="39.57954812147763" lon="9.296797169570809"><ele>385.0</ele><time>2026-04-18T07:39:00Z</time></trkpt><trkpt lat="39.57948142699498" lon="9.296697141794454"><ele>385.0</ele><time>2026-04-18T07:39:01Z</time></trkpt><trkpt lat="39.57943084981914" lon="9.296575631525185"><ele>385.0</ele><time>2026-04-18T07:39:02Z</time></trkpt><trkpt lat="39.579397951954085" lon="9.296433213948728"><ele>385.0</ele><time>2026-04-18T07:39:03Z</time></trkpt><trkpt lat="39.57938506095756" lon="9.296276149623234"><ele>385.0</ele><time>2026-04-18T07:39:04Z</time></trkpt><trkpt lat="39.579400376927246" lon="9.29612476252825"><ele>385.5</ele><time>2026-04-18T07:39:05Z</time></trkpt><trkpt lat="39.579440784532096" lon="9.295968905329959"><ele>386.0</ele><time>2026-04-18T07:39:06Z</time></trkpt><trkpt lat="39.57949482364417" lon="9.29580018188996"><ele>386.5</ele><time>2026-04-18T07:39:07Z</time></trkpt><trkpt lat="39.57954424923067" lon="9.295622130793657"><ele>387.0</ele><time>2026-04-18T07:39:08Z</time></trkpt><trkpt lat="39.57959510189774" lon="9.295459634825576"><ele>393.0</ele><time>2026-04-18T07:39:09Z</time></trkpt><trkpt lat="39.57965846311098" lon="9.29530977997816"><ele>399.0</ele><time>2026-04-18T07:39:10Z</time></trkpt><trkpt lat="39.579715000066784" lon="9.295096933289868"><ele>405.0</ele><time>2026-04-18T07:39:11Z</time></trkpt><trkpt lat="39.57979629702822" lon="9.294927235721156"><ele>401.33333333333337</ele><time>2026-04-18T07:39:12Z</time></trkpt><trkpt lat="39.57986679365259" lon="9.29474996423097"><ele>397.6666666666667</ele><time>2026-04-18T07:39:13Z</time></trkpt><trkpt lat="39.57992634758198" lon="9.294569606182142"><ele>394.0</ele><time>2026-04-18T07:39:14Z</time></trkpt><trkpt lat="39.5799958158703" lon="9.294397236701096"><ele>394.0</ele><time>2026-04-18T07:39:15Z</time></trkpt><trkpt lat="39.58005672613294" lon="9.294233716002095"><ele>394.0</ele><time>2026-04-18T07:39:16Z</time></trkpt><trkpt lat="39.5801157532493" lon="9.294080979670374"><ele>394.0</ele><time>2026-04-18T07:39:17Z</time></trkpt><trkpt lat="39.58017107333782" lon="9.293945475347968"><ele>394.0</ele><time>2026-04-18T07:39:18Z</time></trkpt><trkpt lat="39.58020783040595" lon="9.293810505210493"><ele>394.75</ele><time>2026-04-18T07:39:19Z</time></trkpt><trkpt lat="39.58021827662664" lon="9.293672549980736"><ele>395.5</ele><time>2026-04-18T07:39:20Z</time></trkpt><trkpt lat="39.58020264956642" lon="9.293530938309475"><ele>396.25</ele><time>2026-04-18T07:39:21Z</time></trkpt><trkpt lat="39.58015265042404" lon="9.293392440273209"><ele>397.0</ele><time>2026-04-18T07:39:22Z</time></trkpt><trkpt lat="39.58006660582846" lon="9.293275061903486"><ele>397.0</ele><time>2026-04-18T07:39:23Z</time></trkpt><trkpt lat="39.579951405588304" lon="9.293196189624755"><ele>397.0</ele><time>2026-04-18T07:39:24Z</time></trkpt><trkpt lat="39.57982032253024" lon="9.293162551921107"><ele>397.0</ele><time>2026-04-18T07:39:25Z</time></trkpt><trkpt lat="39.57968245102208" lon="9.293143719126048"><ele>397.0</ele><time>2026-04-18T07:39:26Z</time></trkpt><trkpt lat="39.579557274922585" lon="9.293090298813024"><ele>398.0</ele><time>2026-04-18T07:39:27Z</time></trkpt><trkpt lat="39.57944325179598" lon="9.29303140357671"><ele>399.0</ele><time>2026-04-18T07:39:28Z</time></trkpt><trkpt lat="39.57934846364456" lon="9.292952437468246"><ele>400.0</ele><time>2026-04-18T07:39:29Z</time></trkpt><trkpt lat="39.5792544957493" lon="9.292864727417312"><ele>401.0</ele><time>2026-04-18T07:39:30Z</time></trkpt><trkpt lat="39.57922388625199" lon="9.292718396594635"><ele>401.0</ele><time>2026-04-18T07:39:31Z</time></trkpt><trkpt lat="39.579195250933445" lon="9.292575187408993"><ele>401.0</ele><time>2026-04-18T07:39:32Z</time></trkpt><trkpt lat="39.579201455052036" lon="9.292418775437838"><ele>401.0</ele><time>2026-04-18T07:39:33Z</time></trkpt><trkpt lat="39.57923013172011" lon="9.292252220666404"><ele>401.0</ele><time>2026-04-18T07:39:34Z</time></trkpt><trkpt lat="39.57926727000798" lon="9.29208058855109"><ele>400.25</ele><time>2026-04-18T07:39:35Z</time></trkpt><trkpt lat="39.579302690284706" lon="9.291902747758101"><ele>399.5</ele><time>2026-04-18T07:39:36Z</time></trkpt><trkpt lat="39.579346144822495" lon="9.291729160706716"><ele>398.75</ele><time>2026-04-18T07:39:37Z</time></trkpt><trkpt lat="39.57938504604657" lon="9.291562659958103"><ele>398.0</ele><time>2026-04-18T07:39:38Z</time></trkpt><trkpt lat="39.57942416416794" lon="9.291404360549889"><ele>398.0</ele><time>2026-04-18T07:39:39Z</time></trkpt><trkpt lat="39.57945858580915" lon="9.291254226636351"><ele>398.0</ele><time>2026-04-18T07:39:40Z</time></trkpt><trkpt lat="39.579474466269396" lon="9.291106952513353"><ele>398.0</ele><time>2026-04-18T07:39:41Z</time></trkpt><trkpt lat="39.57945687104062" lon="9.290967992685365"><ele>398.0</ele><time>2026-04-18T07:39:42Z</time></trkpt><trkpt lat="39.57940192199608" lon="9.29084609899216"><ele>398.0</ele><time>2026-04-18T07:39:43Z</time></trkpt><trkpt lat="39.57931890597675" lon="9.290744443755374"><ele>398.0</ele><time>2026-04-18T07:39:44Z</time></trkpt><trkpt lat="39.579232040803554" lon="9.290655103790096"><ele>398.0</ele><time>2026-04-18T07:39:45Z</time></trkpt><trkpt lat="39.57916842496845" lon="9.290545400694679"><ele>398.0</ele><time>2026-04-18T07:39:46Z</time></trkpt><trkpt lat="39.57910052771218" lon="9.290445937318133"><ele>398.0</ele><time>2026-04-18T07:39:47Z</time></trkpt><trkpt lat="39.579035646326055" lon="9.290343830586012"><ele>398.4</ele><time>2026-04-18T07:39:48Z</time></trkpt><trkpt lat="39.578972656931775" lon="9.290238919803176"><ele>398.79999999999995</ele><time>2026-04-18T07:39:49Z</time></trkpt><trkpt lat="39.57890332875914" lon="9.290143416849185"><ele>399.2</ele><time>2026-04-18T07:39:50Z</time></trkpt><trkpt lat="39.57888264001827" lon="9.290027060575264"><ele>399.6</ele><time>2026-04-18T07:39:51Z</time></trkpt><trkpt lat="39.578865698128254" lon="9.28992315658174"><ele>400.0</ele><time>2026-04-18T07:39:52Z</time></trkpt><trkpt lat="39.57891718602232" lon="9.289809849125605"><ele>398.2</ele><time>2026-04-18T07:39:53Z</time></trkpt><trkpt lat="39.578947465370824" lon="9.28968341252231"><ele>396.4</ele><time>2026-04-18T07:39:54Z</time></trkpt><trkpt lat="39.579008994879835" lon="9.289575548487743"><ele>394.6</ele><time>2026-04-18T07:39:55Z</time></trkpt><trkpt lat="39.57908606923517" lon="9.289484545752032"><ele>392.8</ele><time>2026-04-18T07:39:56Z</time></trkpt><trkpt lat="39.579182068260344" lon="9.28942008134627"><ele>391.0</ele><time>2026-04-18T07:39:57Z</time></trkpt><trkpt lat="39.57926278875564" lon="9.289323515501142"><ele>391.0</ele><time>2026-04-18T07:39:58Z</time></trkpt><trkpt lat="39.5793537790587" lon="9.289247357977874"><ele>391.0</ele><time>2026-04-18T07:39:59Z</time></trkpt><trkpt lat="39.57944114790888" lon="9.289163145496943"><ele>391.0</ele><time>2026-04-18T07:40:00Z</time></trkpt><trkpt lat="39.579531186492574" lon="9.28908090321791"><ele>391.0</ele><time>2026-04-18T07:40:01Z</time></trkpt><trkpt lat="39.57962473945537" lon="9.289000168060715"><ele>391.0</ele><time>2026-04-18T07:40:02Z</time></trkpt><trkpt lat="39.57971762978362" lon="9.288916649316981"><ele>392.75</ele><time>2026-04-18T07:40:03Z</time></trkpt><trkpt lat="39.57980831202945" lon="9.288826875776097"><ele>394.5</ele><time>2026-04-18T07:40:04Z</time></trkpt><trkpt lat="39.57990332348908" lon="9.28873975924509"><ele>396.25</ele><time>2026-04-18T07:40:05Z</time></trkpt><trkpt lat="39.5799968606554" lon="9.288646277857534"><ele>398.0</ele><time>2026-04-18T07:40:06Z</time></trkpt><trkpt lat="39.580091324384995" lon="9.28854762124224"><ele>398.0</ele><time>2026-04-18T07:40:07Z</time></trkpt><trkpt lat="39.58019110637666" lon="9.288455671284472"><ele>398.0</ele><time>2026-04-18T07:40:08Z</time></trkpt><trkpt lat="39.58028975298405" lon="9.28836679448983"><ele>398.0</ele><time>2026-04-18T07:40:09Z</time></trkpt><trkpt lat="39.580378130970416" lon="9.288277089212984"><ele>398.0</ele><time>2026-04-18T07:40:10Z</time></trkpt><trkpt lat="39.580450907104265" lon="9.28817856911281"><ele>399.4</ele><time>2026-04-18T07:40:11Z</time></trkpt><trkpt lat="39.58050209069588" lon="9.288066412648856"><ele>400.79999999999995</ele><time>2026-04-18T07:40:12Z</time></trkpt><trkpt lat="39.58052462381948" lon="9.287940299778894"><ele>402.2</ele><time>2026-04-18T07:40:13Z</time></trkpt><trkpt lat="39.58051061160048" lon="9.287804826565205"><ele>403.6</ele><time>2026-04-18T07:40:14Z</time></trkpt><trkpt lat="39.58051245790963" lon="9.28767363627711"><ele>405.0</ele><time>2026-04-18T07:40:15Z</time></trkpt><trkpt lat="39.58045665814394" lon="9.287556139932063"><ele>405.0</ele><time>2026-04-18T07:40:16Z</time></trkpt><trkpt lat="39.58040102225656" lon="9.2874548637247"><ele>405.0</ele><time>2026-04-18T07:40:17Z</time></trkpt><trkpt lat="39.58032490540027" lon="9.287371060872012"><ele>405.0</ele><time>2026-04-18T07:40:18Z</time></trkpt><trkpt lat="39.580239280426916" lon="9.287306212776615"><ele>405.0</ele><time>2026-04-18T07:40:19Z</time></trkpt><trkpt lat="39.58014437170281" lon="9.287263166584223"><ele>405.0</ele><time>2026-04-18T07:40:20Z</time></trkpt><trkpt lat="39.58004669250921" lon="9.287230716374692"><ele>404.8</ele><time>2026-04-18T07:40:21Z</time></trkpt><trkpt lat="39.579945388193075" lon="9.287201105950052"><ele>404.6</ele><time>2026-04-18T07:40:22Z</time></trkpt><trkpt lat="39.57984137637109" lon="9.287173173208945"><ele>404.4</ele><time>2026-04-18T07:40:23Z</time></trkpt><trkpt lat="39.57973757061374" lon="9.287144799538396"><ele>404.2</ele><time>2026-04-18T07:40:24Z</time></trkpt><trkpt lat="39.579632934387035" lon="9.287113000025668"><ele>404.0</ele><time>2026-04-18T07:40:25Z</time></trkpt><trkpt lat="39.57953057096896" lon="9.287079150521889"><ele>403.49999999999994</ele><time>2026-04-18T07:40:26Z</time></trkpt><trkpt lat="39.57943249355343" lon="9.287054640973261"><ele>403.0</ele><time>2026-04-18T07:40:27Z</time></trkpt><trkpt lat="39.57934428301942" lon="9.287048890203453"><ele>402.5</ele><time>2026-04-18T07:40:28Z</time></trkpt><trkpt lat="39.579267417017256" lon="9.287074920198364"><ele>402.0</ele><time>2026-04-18T07:40:29Z</time></trkpt><trkpt lat="39.579202268442316" lon="9.287132911117052"><ele>401.49999999999994</ele><time>2026-04-18T07:40:30Z</time></trkpt><trkpt lat="39.57913746070261" lon="9.287189439193092"><ele>401.0</ele><time>2026-04-18T07:40:31Z</time></trkpt><trkpt lat="39.57908211619709" lon="9.287256055724512"><ele>399.16666666666663</ele><time>2026-04-18T07:40:32Z</time></trkpt><trkpt lat="39.57902605174176" lon="9.287323538670135"><ele>397.3333333333333</ele><time>2026-04-18T07:40:33Z</time></trkpt><trkpt lat="39.57896743588981" lon="9.287394092799785"><ele>395.5</ele><time>2026-04-18T07:40:34Z</time></trkpt><trkpt lat="39.57891253165471" lon="9.28746095235265"><ele>393.66666666666663</ele><time>2026-04-18T07:40:35Z</time></trkpt><trkpt lat="39.578876520880634" lon="9.287534024733386"><ele>391.8333333333333</ele><time>2026-04-18T07:40:36Z</time></trkpt><trkpt lat="39.57878844628956" lon="9.287606091186799"><ele>390.0</ele><time>2026-04-18T07:40:38Z</time></trkpt><trkpt lat="39.57868524863177" lon="9.287637916245128"><ele>389.5</ele><time>2026-04-18T07:40:40Z</time></trkpt><trkpt lat="39.57855978838925" lon="9.287617105340715"><ele>389.0</ele><time>2026-04-18T07:40:42Z</time></trkpt><trkpt lat="39.57849328298588" lon="9.28759277390761"><ele>388.5</ele><time>2026-04-18T07:40:43Z</time></trkpt><trkpt lat="39.578426366674684" lon="9.28755757290883"><ele>388.0</ele><time>2026-04-18T07:40:44Z</time></trkpt><trkpt lat="39.578368209057814" lon="9.287498619577875"><ele>387.5</ele><time>2026-04-18T07:40:45Z</time></trkpt><trkpt lat="39.57833179179749" lon="9.287406113811784"><ele>387.0</ele><time>2026-04-18T07:40:46Z</time></trkpt><trkpt lat="39.57827609131213" lon="9.287330926372668"><ele>388.0</ele><time>2026-04-18T07:40:47Z</time></trkpt><trkpt lat="39.57824006041953" lon="9.287228311688914"><ele>389.0</ele><time>2026-04-18T07:40:48Z</time></trkpt><trkpt lat="39.578204491570666" lon="9.2871237852538"><ele>390.0</ele><time>2026-04-18T07:40:49Z</time></trkpt><trkpt lat="39.57816713990326" lon="9.287023721418823"><ele>391.0</ele><time>2026-04-18T07:40:50Z</time></trkpt><trkpt lat="39.578131278444744" lon="9.28692969543332"><ele>392.0</ele><time>2026-04-18T07:40:51Z</time></trkpt><trkpt lat="39.578115874233816" lon="9.286830273318353"><ele>393.0</ele><time>2026-04-18T07:40:52Z</time></trkpt><trkpt lat="39.57808475337141" lon="9.286733753334266"><ele>393.0</ele><time>2026-04-18T07:40:53Z</time></trkpt><trkpt lat="39.57807935594614" lon="9.28662750195858"><ele>393.0</ele><time>2026-04-18T07:40:54Z</time></trkpt><trkpt lat="39.57807842828187" lon="9.2865090771252"><ele>393.0</ele><time>2026-04-18T07:40:55Z</time></trkpt><trkpt lat="39.578098194784054" lon="9.286388077270534"><ele>393.0</ele><time>2026-04-18T07:40:56Z</time></trkpt><trkpt lat="39.57812594908481" lon="9.286266128798843"><ele>393.0</ele><time>2026-04-18T07:40:57Z</time></trkpt><trkpt lat="39.57817269422279" lon="9.286175706411049"><ele>392.0</ele><time>2026-04-18T07:40:58Z</time></trkpt><trkpt lat="39.578206438766706" lon="9.286055997368408"><ele>391.0</ele><time>2026-04-18T07:40:59Z</time></trkpt><trkpt lat="39.5782542133082" lon="9.285942254646745"><ele>390.0</ele><time>2026-04-18T07:41:00Z</time></trkpt><trkpt lat="39.57832047494416" lon="9.28584872916366"><ele>389.0</ele><time>2026-04-18T07:41:01Z</time></trkpt><trkpt lat="39.57837978863819" lon="9.28575707358916"><ele>388.0</ele><time>2026-04-18T07:41:02Z</time></trkpt><trkpt lat="39.57846443421943" lon="9.285719837946212"><ele>388.0</ele><time>2026-04-18T07:41:03Z</time></trkpt><trkpt lat="39.57855579016659" lon="9.285655134394204"><ele>388.0</ele><time>2026-04-18T07:41:04Z</time></trkpt><trkpt lat="39.578649826761946" lon="9.285591619436923"><ele>388.0</ele><time>2026-04-18T07:41:05Z</time></trkpt><trkpt lat="39.57874685549806" lon="9.28551510660116"><ele>388.0</ele><time>2026-04-18T07:41:06Z</time></trkpt><trkpt lat="39.578837509475946" lon="9.28542340549052"><ele>388.0</ele><time>2026-04-18T07:41:07Z</time></trkpt><trkpt lat="39.578921041337146" lon="9.285327116469448"><ele>388.5</ele><time>2026-04-18T07:41:08Z</time></trkpt><trkpt lat="39.57900512798296" lon="9.28523005130719"><ele>389.0</ele><time>2026-04-18T07:41:09Z</time></trkpt><trkpt lat="39.57909115566066" lon="9.285128847339854"><ele>389.5</ele><time>2026-04-18T07:41:10Z</time></trkpt><trkpt lat="39.57917561429929" lon="9.285028753961926"><ele>390.0</ele><time>2026-04-18T07:41:11Z</time></trkpt><trkpt lat="39.57925930556945" lon="9.284929570110624"><ele>390.0</ele><time>2026-04-18T07:41:12Z</time></trkpt><trkpt lat="39.57934212063467" lon="9.284833954496488"><ele>390.0</ele><time>2026-04-18T07:41:13Z</time></trkpt><trkpt lat="39.57942678706877" lon="9.284737122037635"><ele>390.0</ele><time>2026-04-18T07:41:14Z</time></trkpt><trkpt lat="39.57951334051279" lon="9.284638131614045"><ele>390.0</ele><time>2026-04-18T07:41:15Z</time></trkpt><trkpt lat="39.57960174763529" lon="9.284537021105951"><ele>390.75</ele><time>2026-04-18T07:41:16Z</time></trkpt><trkpt lat="39.579683455278314" lon="9.284421388423553"><ele>391.5</ele><time>2026-04-18T07:41:17Z</time></trkpt><trkpt lat="39.57977566502552" lon="9.284325760538982"><ele>392.25</ele><time>2026-04-18T07:41:18Z</time></trkpt><trkpt lat="39.5798634621682" lon="9.284221604357695"><ele>393.0</ele><time>2026-04-18T07:41:19Z</time></trkpt><trkpt lat="39.579950588019315" lon="9.284117411722873"><ele>393.0</ele><time>2026-04-18T07:41:20Z</time></trkpt><trkpt lat="39.58003533391179" lon="9.284009792472103"><ele>393.0</ele><time>2026-04-18T07:41:21Z</time></trkpt><trkpt lat="39.580112039522376" lon="9.28389455994492"><ele>393.0</ele><time>2026-04-18T07:41:22Z</time></trkpt><trkpt lat="39.58018052143643" lon="9.283768152246338"><ele>393.0</ele><time>2026-04-18T07:41:23Z</time></trkpt><trkpt lat="39.58024032066273" lon="9.28363278420636"><ele>393.0</ele><time>2026-04-18T07:41:24Z</time></trkpt><trkpt lat="39.580301296355536" lon="9.283502276116408"><ele>393.0</ele><time>2026-04-18T07:41:25Z</time></trkpt><trkpt lat="39.580368097502145" lon="9.283376817535025"><ele>393.0</ele><time>2026-04-18T07:41:26Z</time></trkpt><trkpt lat="39.58043320876121" lon="9.283248393153718"><ele>393.0</ele><time>2026-04-18T07:41:27Z</time></trkpt><trkpt lat="39.58049266525017" lon="9.283114922791803"><ele>394.5</ele><time>2026-04-18T07:41:28Z</time></trkpt><trkpt lat="39.58055337656554" lon="9.28298129107016"><ele>396.0</ele><time>2026-04-18T07:41:29Z</time></trkpt><trkpt lat="39.58062046386322" lon="9.282853271066747"><ele>397.5</ele><time>2026-04-18T07:41:30Z</time></trkpt><trkpt lat="39.580682455759536" lon="9.282723175832459"><ele>399.0</ele><time>2026-04-18T07:41:31Z</time></trkpt><trkpt lat="39.58074622552112" lon="9.282595580103328"><ele>399.0</ele><time>2026-04-18T07:41:32Z</time></trkpt><trkpt lat="39.58081280166286" lon="9.282468474087215"><ele>399.0</ele><time>2026-04-18T07:41:33Z</time></trkpt><trkpt lat="39.58087791992195" lon="9.28234334588736"><ele>399.0</ele><time>2026-04-18T07:41:34Z</time></trkpt><trkpt lat="39.580935208015774" lon="9.282212778675492"><ele>399.0</ele><time>2026-04-18T07:41:35Z</time></trkpt><trkpt lat="39.580978258520716" lon="9.282094677381123"><ele>400.0</ele><time>2026-04-18T07:41:36Z</time></trkpt><trkpt lat="39.58100294762464" lon="9.2819629476684"><ele>401.0</ele><time>2026-04-18T07:41:37Z</time></trkpt><trkpt lat="39.581018402188235" lon="9.281819634214228"><ele>402.0</ele><time>2026-04-18T07:41:38Z</time></trkpt><trkpt lat="39.58102944934604" lon="9.281668311072094"><ele>403.0</ele><time>2026-04-18T07:41:39Z</time></trkpt><trkpt lat="39.58103841030641" lon="9.281509747181422"><ele>404.0</ele><time>2026-04-18T07:41:40Z</time></trkpt><trkpt lat="39.58104715779004" lon="9.281345955982466"><ele>405.0</ele><time>2026-04-18T07:41:41Z</time></trkpt><trkpt lat="39.58107732733567" lon="9.281183652883003"><ele>406.0</ele><time>2026-04-18T07:41:42Z</time></trkpt><trkpt lat="39.581097147043344" lon="9.281016465491655"><ele>407.0</ele><time>2026-04-18T07:41:43Z</time></trkpt><trkpt lat="39.58113126926013" lon="9.280856534372065"><ele>408.5</ele><time>2026-04-18T07:41:44Z</time></trkpt><trkpt lat="39.581188223788736" lon="9.280704771078081"><ele>410.0</ele><time>2026-04-18T07:41:45Z</time></trkpt><trkpt lat="39.58125683645174" lon="9.280553602721438"><ele>411.5</ele><time>2026-04-18T07:41:46Z</time></trkpt><trkpt lat="39.58132906330919" lon="9.280400984298334"><ele>413.0</ele><time>2026-04-18T07:41:47Z</time></trkpt><trkpt lat="39.581402880716404" lon="9.280245031778646"><ele>413.25</ele><time>2026-04-18T07:41:48Z</time></trkpt><trkpt lat="39.58146493110352" lon="9.280076962681065"><ele>413.5</ele><time>2026-04-18T07:41:49Z</time></trkpt><trkpt lat="39.58154881745385" lon="9.279916027575565"><ele>413.75</ele><time>2026-04-18T07:41:50Z</time></trkpt><trkpt lat="39.5816188853947" lon="9.279754623668508"><ele>414.0</ele><time>2026-04-18T07:41:51Z</time></trkpt><trkpt lat="39.58168925496362" lon="9.279600949652176"><ele>414.75</ele><time>2026-04-18T07:41:52Z</time></trkpt><trkpt lat="39.581766056517765" lon="9.279455578588578"><ele>415.5</ele><time>2026-04-18T07:41:53Z</time></trkpt><trkpt lat="39.58183296683916" lon="9.279309351987587"><ele>416.25</ele><time>2026-04-18T07:41:54Z</time></trkpt><trkpt lat="39.58190354862185" lon="9.279172554867516"><ele>417.0</ele><time>2026-04-18T07:41:55Z</time></trkpt><trkpt lat="39.58197847597839" lon="9.279032025982909"><ele>418.75</ele><time>2026-04-18T07:41:56Z</time></trkpt><trkpt lat="39.582051348218876" lon="9.278878131941259"><ele>420.5</ele><time>2026-04-18T07:41:57Z</time></trkpt><trkpt lat="39.58212447438053" lon="9.27871399926201"><ele>422.25</ele><time>2026-04-18T07:41:58Z</time></trkpt><trkpt lat="39.58220264890595" lon="9.278546599163155"><ele>424.0</ele><time>2026-04-18T07:41:59Z</time></trkpt><trkpt lat="39.5822855161808" lon="9.278381969735149"><ele>424.0</ele><time>2026-04-18T07:42:00Z</time></trkpt><trkpt lat="39.58236932552237" lon="9.278214338619415"><ele>424.0</ele><time>2026-04-18T07:42:01Z</time></trkpt><trkpt lat="39.582450377360196" lon="9.278045283735526"><ele>424.0</ele><time>2026-04-18T07:42:02Z</time></trkpt><trkpt lat="39.58252896069664" lon="9.27787382969252"><ele>424.5</ele><time>2026-04-18T07:42:03Z</time></trkpt><trkpt lat="39.5825937422692" lon="9.277698958751994"><ele>425.0</ele><time>2026-04-18T07:42:04Z</time></trkpt><trkpt lat="39.58263116741622" lon="9.277513535156878"><ele>425.5</ele><time>2026-04-18T07:42:05Z</time></trkpt><trkpt lat="39.58262665833308" lon="9.277318660179077"><ele>426.0</ele><time>2026-04-18T07:42:06Z</time></trkpt><trkpt lat="39.582576816079886" lon="9.277126969271597"><ele>428.0</ele><time>2026-04-18T07:42:07Z</time></trkpt><trkpt lat="39.58250140631881" lon="9.276957056973753"><ele>430.0</ele><time>2026-04-18T07:42:08Z</time></trkpt><trkpt lat="39.582400270643596" lon="9.276820636005688"><ele>432.0</ele><time>2026-04-18T07:42:09Z</time></trkpt><trkpt lat="39.58227331959309" lon="9.276736393733454"><ele>434.0</ele><time>2026-04-18T07:42:10Z</time></trkpt><trkpt lat="39.58212629926293" lon="9.27670321445477"><ele>437.0</ele><time>2026-04-18T07:42:11Z</time></trkpt><trkpt lat="39.58196813179517" lon="9.276730813236979"><ele>440.0</ele><time>2026-04-18T07:42:12Z</time></trkpt><trkpt lat="39.5818167682425" lon="9.276798336251552"><ele>443.0</ele><time>2026-04-18T07:42:13Z</time></trkpt><trkpt lat="39.581673446071434" lon="9.276903592714548"><ele>443.0</ele><time>2026-04-18T07:42:14Z</time></trkpt><trkpt lat="39.581531641005355" lon="9.277019309383974"><ele>443.0</ele><time>2026-04-18T07:42:15Z</time></trkpt><trkpt lat="39.58137762402653" lon="9.277106322134406"><ele>443.0</ele><time>2026-04-18T07:42:16Z</time></trkpt><trkpt lat="39.58122926647295" lon="9.277196826004344"><ele>441.5</ele><time>2026-04-18T07:42:17Z</time></trkpt><trkpt lat="39.58108512245159" lon="9.27728055721259"><ele>440.0</ele><time>2026-04-18T07:42:18Z</time></trkpt><trkpt lat="39.580939430942664" lon="9.277303992794426"><ele>438.5</ele><time>2026-04-18T07:42:19Z</time></trkpt><trkpt lat="39.58080863717754" lon="9.27724846247925"><ele>437.0</ele><time>2026-04-18T07:42:20Z</time></trkpt><trkpt lat="39.58071037774844" lon="9.27714280390314"><ele>442.66666666666663</ele><time>2026-04-18T07:42:21Z</time></trkpt><trkpt lat="39.580605490227015" lon="9.277016802187195"><ele>448.33333333333337</ele><time>2026-04-18T07:42:22Z</time></trkpt><trkpt lat="39.580480563021865" lon="9.276886334782061"><ele>454.0</ele><time>2026-04-18T07:42:23Z</time></trkpt><trkpt lat="39.58035566441666" lon="9.276738930080942"><ele>451.0</ele><time>2026-04-18T07:42:24Z</time></trkpt><trkpt lat="39.580227229282634" lon="9.276583610061426"><ele>448.0</ele><time>2026-04-18T07:42:25Z</time></trkpt><trkpt lat="39.580089289800846" lon="9.276447830897784"><ele>445.0</ele><time>2026-04-18T07:42:26Z</time></trkpt><trkpt lat="39.57996197223952" lon="9.276324103868006"><ele>450.5</ele><time>2026-04-18T07:42:27Z</time></trkpt><trkpt lat="39.579867254366484" lon="9.276197494770837"><ele>456.0</ele><time>2026-04-18T07:42:28Z</time></trkpt><trkpt lat="39.57981744746191" lon="9.276042034729299"><ele>461.5</ele><time>2026-04-18T07:42:29Z</time></trkpt><trkpt lat="39.57976307569672" lon="9.275862785494564"><ele>467.0</ele><time>2026-04-18T07:42:30Z</time></trkpt><trkpt lat="39.579697341594944" lon="9.275680662005415"><ele>469.75</ele><time>2026-04-18T07:42:31Z</time></trkpt><trkpt lat="39.57962603815502" lon="9.275497983584984"><ele>472.5</ele><time>2026-04-18T07:42:32Z</time></trkpt><trkpt lat="39.57953114751784" lon="9.275349646772037"><ele>475.25</ele><time>2026-04-18T07:42:33Z</time></trkpt><trkpt lat="39.57941728609676" lon="9.275255228952865"><ele>478.0</ele><time>2026-04-18T07:42:34Z</time></trkpt><trkpt lat="39.579293455867266" lon="9.275228712678988"><ele>478.0</ele><time>2026-04-18T07:42:35Z</time></trkpt><trkpt lat="39.57917156721248" lon="9.275266953845126"><ele>478.0</ele><time>2026-04-18T07:42:36Z</time></trkpt><trkpt lat="39.57905319999864" lon="9.275342923629108"><ele>478.0</ele><time>2026-04-18T07:42:37Z</time></trkpt><trkpt lat="39.57892945857403" lon="9.275397590360106"><ele>478.0</ele><time>2026-04-18T07:42:38Z</time></trkpt><trkpt lat="39.57879595404818" lon="9.275372250579842"><ele>476.75</ele><time>2026-04-18T07:42:39Z</time></trkpt><trkpt lat="39.57867001416867" lon="9.275313244121493"><ele>475.5</ele><time>2026-04-18T07:42:40Z</time></trkpt><trkpt lat="39.578537824164634" lon="9.275223239043127"><ele>474.25</ele><time>2026-04-18T07:42:41Z</time></trkpt><trkpt lat="39.57839352469405" lon="9.275143963328599"><ele>473.0</ele><time>2026-04-18T07:42:42Z</time></trkpt><trkpt lat="39.578253758134366" lon="9.275045608538514"><ele>473.0</ele><time>2026-04-18T07:42:43Z</time></trkpt><trkpt lat="39.578115043561034" lon="9.274953852412603"><ele>473.0</ele><time>2026-04-18T07:42:44Z</time></trkpt><trkpt lat="39.5780016196172" lon="9.274826297972638"><ele>473.0</ele><time>2026-04-18T07:42:45Z</time></trkpt><trkpt lat="39.57792215393721" lon="9.274673805995453"><ele>473.0</ele><time>2026-04-18T07:42:46Z</time></trkpt><trkpt lat="39.57785706443008" lon="9.274492283479114"><ele>474.66666666666663</ele><time>2026-04-18T07:42:47Z</time></trkpt><trkpt lat="39.57778070433601" lon="9.274299145429952"><ele>476.33333333333337</ele><time>2026-04-18T07:42:48Z</time></trkpt><trkpt lat="39.57771641005681" lon="9.274114875778578"><ele>478.0</ele><time>2026-04-18T07:42:49Z</time></trkpt><trkpt lat="39.577622864517274" lon="9.273929010558772"><ele>486.0</ele><time>2026-04-18T07:42:50Z</time></trkpt><trkpt lat="39.57749951044301" lon="9.273790748460884"><ele>494.0</ele><time>2026-04-18T07:42:51Z</time></trkpt><trkpt lat="39.5773501592241" lon="9.27369777175138"><ele>502.0</ele><time>2026-04-18T07:42:52Z</time></trkpt><trkpt lat="39.577188543143826" lon="9.273648729927784"><ele>502.0</ele><time>2026-04-18T07:42:53Z</time></trkpt><trkpt lat="39.57701932995332" lon="9.273636469334628"><ele>502.0</ele><time>2026-04-18T07:42:54Z</time></trkpt><trkpt lat="39.576851384858934" lon="9.27366106505658"><ele>502.0</ele><time>2026-04-18T07:42:55Z</time></trkpt><trkpt lat="39.57669134429695" lon="9.2737082425614"><ele>502.0</ele><time>2026-04-18T07:42:56Z</time></trkpt><trkpt lat="39.576537259290085" lon="9.273720322429968"><ele>502.0</ele><time>2026-04-18T07:42:57Z</time></trkpt><trkpt lat="39.576400046241844" lon="9.27372394960475"><ele>502.0</ele><time>2026-04-18T07:42:58Z</time></trkpt><trkpt lat="39.57626738642616" lon="9.273688740238262"><ele>502.0</ele><time>2026-04-18T07:42:59Z</time></trkpt><trkpt lat="39.576153437110605" lon="9.273607197763576"><ele>500.0</ele><time>2026-04-18T07:43:00Z</time></trkpt><trkpt lat="39.57606928577624" lon="9.273485937967962"><ele>498.0</ele><time>2026-04-18T07:43:01Z</time></trkpt><trkpt lat="39.57597564483797" lon="9.27332961822503"><ele>496.0</ele><time>2026-04-18T07:43:02Z</time></trkpt><trkpt lat="39.57587377249174" lon="9.273169638352861"><ele>494.0</ele><time>2026-04-18T07:43:03Z</time></trkpt><trkpt lat="39.57577721320371" lon="9.272999401772557"><ele>501.66666666666663</ele><time>2026-04-18T07:43:04Z</time></trkpt><trkpt lat="39.575676147790084" lon="9.272827930818757"><ele>509.33333333333337</ele><time>2026-04-18T07:43:05Z</time></trkpt><trkpt lat="39.57557686934692" lon="9.272663531169398"><ele>517.0</ele><time>2026-04-18T07:43:06Z</time></trkpt><trkpt lat="39.57547375860773" lon="9.272510493309312"><ele>517.0</ele><time>2026-04-18T07:43:07Z</time></trkpt><trkpt lat="39.57535733345034" lon="9.272387173478432"><ele>517.0</ele><time>2026-04-18T07:43:08Z</time></trkpt><trkpt lat="39.57522332400539" lon="9.272309586856535"><ele>517.0</ele><time>2026-04-18T07:43:09Z</time></trkpt><trkpt lat="39.575080229311034" lon="9.27226444220949"><ele>517.0</ele><time>2026-04-18T07:43:10Z</time></trkpt><trkpt lat="39.574939246522554" lon="9.272217574848705"><ele>514.75</ele><time>2026-04-18T07:43:11Z</time></trkpt><trkpt lat="39.574821770201076" lon="9.272113520447888"><ele>512.5</ele><time>2026-04-18T07:43:12Z</time></trkpt><trkpt lat="39.574708673777" lon="9.272005348868804"><ele>510.25</ele><time>2026-04-18T07:43:13Z</time></trkpt><trkpt lat="39.57460560256624" lon="9.27187213282066"><ele>508.0</ele><time>2026-04-18T07:43:14Z</time></trkpt><trkpt lat="39.57449124864368" lon="9.271743868824917"><ele>508.0</ele><time>2026-04-18T07:43:15Z</time></trkpt><trkpt lat="39.57438579498398" lon="9.271598980272778"><ele>508.0</ele><time>2026-04-18T07:43:16Z</time></trkpt><trkpt lat="39.57427853042438" lon="9.271451710319296"><ele>508.0</ele><time>2026-04-18T07:43:17Z</time></trkpt><trkpt lat="39.57416941376768" lon="9.271306299375842"><ele>510.33333333333337</ele><time>2026-04-18T07:43:18Z</time></trkpt><trkpt lat="39.574069934062244" lon="9.271149665368194"><ele>512.6666666666666</ele><time>2026-04-18T07:43:19Z</time></trkpt><trkpt lat="39.5739600523073" lon="9.27100937094895"><ele>515.0</ele><time>2026-04-18T07:43:20Z</time></trkpt><trkpt lat="39.57383701281786" lon="9.270890409717369"><ele>515.0</ele><time>2026-04-18T07:43:21Z</time></trkpt><trkpt lat="39.57373390018684" lon="9.27074674280158"><ele>515.0</ele><time>2026-04-18T07:43:22Z</time></trkpt><trkpt lat="39.57362121999681" lon="9.270616943203406"><ele>515.0</ele><time>2026-04-18T07:43:23Z</time></trkpt><trkpt lat="39.573498699346366" lon="9.270502477090254"><ele>514.0</ele><time>2026-04-18T07:43:24Z</time></trkpt><trkpt lat="39.57338809916581" lon="9.270371899383033"><ele>513.0</ele><time>2026-04-18T07:43:25Z</time></trkpt><trkpt lat="39.573266938949395" lon="9.270259584874237"><ele>512.0</ele><time>2026-04-18T07:43:26Z</time></trkpt><trkpt lat="39.57313234845308" lon="9.270176818235177"><ele>511.0</ele><time>2026-04-18T07:43:27Z</time></trkpt><trkpt lat="39.57298082042954" lon="9.270137324586074"><ele>513.3333333333334</ele><time>2026-04-18T07:43:28Z</time></trkpt><trkpt lat="39.57282065066838" lon="9.270149692085504"><ele>515.6666666666666</ele><time>2026-04-18T07:43:29Z</time></trkpt><trkpt lat="39.57266115557203" lon="9.270195644332203"><ele>518.0</ele><time>2026-04-18T07:43:30Z</time></trkpt><trkpt lat="39.57250083974001" lon="9.270193262781959"><ele>518.0</ele><time>2026-04-18T07:43:31Z</time></trkpt><trkpt lat="39.57234444083554" lon="9.270186317154423"><ele>518.0</ele><time>2026-04-18T07:43:32Z</time></trkpt><trkpt lat="39.572194083503454" lon="9.27014058054222"><ele>518.0</ele><time>2026-04-18T07:43:33Z</time></trkpt><trkpt lat="39.57205435193672" lon="9.270048837577344"><ele>520.3333333333333</ele><time>2026-04-18T07:43:34Z</time></trkpt><trkpt lat="39.5719161838875" lon="9.26994430007865"><ele>522.6666666666666</ele><time>2026-04-18T07:43:35Z</time></trkpt><trkpt lat="39.57177321932473" lon="9.269856427013712"><ele>525.0</ele><time>2026-04-18T07:43:36Z</time></trkpt><trkpt lat="39.57163939718924" lon="9.269745938904098"><ele>525.0</ele><time>2026-04-18T07:43:37Z</time></trkpt><trkpt lat="39.57150123233698" lon="9.269640284254093"><ele>525.0</ele><time>2026-04-18T07:43:38Z</time></trkpt><trkpt lat="39.57136133036593" lon="9.269535353316446"><ele>525.0</ele><time>2026-04-18T07:43:39Z</time></trkpt><trkpt lat="39.57122374003658" lon="9.269426678436519"><ele>528.6666666666666</ele><time>2026-04-18T07:43:40Z</time></trkpt><trkpt lat="39.571084763238716" lon="9.269314131065048"><ele>532.3333333333333</ele><time>2026-04-18T07:43:41Z</time></trkpt><trkpt lat="39.570941339562545" lon="9.269217169658608"><ele>536.0</ele><time>2026-04-18T07:43:42Z</time></trkpt><trkpt lat="39.57078867664343" lon="9.26915195842369"><ele>536.0</ele><time>2026-04-18T07:43:43Z</time></trkpt><trkpt lat="39.5706308606954" lon="9.269125366225289"><ele>536.0</ele><time>2026-04-18T07:43:44Z</time></trkpt><trkpt lat="39.57047098647155" lon="9.269134696907836"><ele>536.0</ele><time>2026-04-18T07:43:45Z</time></trkpt><trkpt lat="39.57030786468443" lon="9.26918163940815"><ele>535.6666666666666</ele><time>2026-04-18T07:43:46Z</time></trkpt><trkpt lat="39.5701497021166" lon="9.269260001523657"><ele>535.3333333333334</ele><time>2026-04-18T07:43:47Z</time></trkpt><trkpt lat="39.569991475383226" lon="9.26934884107697"><ele>535.0</ele><time>2026-04-18T07:43:48Z</time></trkpt><trkpt lat="39.56983062947525" lon="9.269430887333113"><ele>535.0</ele><time>2026-04-18T07:43:49Z</time></trkpt><trkpt lat="39.56966822709858" lon="9.269507751456018"><ele>535.0</ele><time>2026-04-18T07:43:50Z</time></trkpt><trkpt lat="39.56950813409968" lon="9.269585546521208"><ele>535.0</ele><time>2026-04-18T07:43:51Z</time></trkpt><trkpt lat="39.56934802292102" lon="9.269666143535943"><ele>535.0</ele><time>2026-04-18T07:43:52Z</time></trkpt><trkpt lat="39.569187862855024" lon="9.269743709368857"><ele>535.0</ele><time>2026-04-18T07:43:53Z</time></trkpt><trkpt lat="39.569027705506805" lon="9.269819129358774"><ele>535.0</ele><time>2026-04-18T07:43:54Z</time></trkpt><trkpt lat="39.568870126472426" lon="9.26989386948643"><ele>535.0</ele><time>2026-04-18T07:43:55Z</time></trkpt><trkpt lat="39.56871931945837" lon="9.269963983351868"><ele>535.0</ele><time>2026-04-18T07:43:56Z</time></trkpt><trkpt lat="39.56857431773743" lon="9.270019084534256"><ele>535.0</ele><time>2026-04-18T07:43:57Z</time></trkpt><trkpt lat="39.56843666084443" lon="9.270048573047013"><ele>534.75</ele><time>2026-04-18T07:43:58Z</time></trkpt><trkpt lat="39.568307774422884" lon="9.27004740770672"><ele>534.5</ele><time>2026-04-18T07:43:59Z</time></trkpt><trkpt lat="39.568196135913276" lon="9.270003097015627"><ele>534.25</ele><time>2026-04-18T07:44:00Z</time></trkpt><trkpt lat="39.56809400123525" lon="9.26993775181356"><ele>534.0</ele><time>2026-04-18T07:44:01Z</time></trkpt><trkpt lat="39.56799993662052" lon="9.269858628315903"><ele>534.0</ele><time>2026-04-18T07:44:02Z</time></trkpt><trkpt lat="39.567916803658754" lon="9.269749289638382"><ele>534.0</ele><time>2026-04-18T07:44:03Z</time></trkpt><trkpt lat="39.567839245337794" lon="9.269613844940128"><ele>534.0</ele><time>2026-04-18T07:44:04Z</time></trkpt><trkpt lat="39.56778679554756" lon="9.269451655687533"><ele>534.0</ele><time>2026-04-18T07:44:05Z</time></trkpt><trkpt lat="39.56772050151946" lon="9.269287487480481"><ele>534.75</ele><time>2026-04-18T07:44:06Z</time></trkpt><trkpt lat="39.56764492530605" lon="9.269131389139766"><ele>535.5</ele><time>2026-04-18T07:44:07Z</time></trkpt><trkpt lat="39.56758101131004" lon="9.26896991080098"><ele>536.25</ele><time>2026-04-18T07:44:08Z</time></trkpt><trkpt lat="39.5675193089534" lon="9.268810088602182"><ele>537.0</ele><time>2026-04-18T07:44:09Z</time></trkpt><trkpt lat="39.56746024842008" lon="9.268660865251128"><ele>537.25</ele><time>2026-04-18T07:44:10Z</time></trkpt><trkpt lat="39.567395517992786" lon="9.268502504601475"><ele>537.5</ele><time>2026-04-18T07:44:11Z</time></trkpt><trkpt lat="39.567328707850564" lon="9.268334710056509"><ele>537.75</ele><time>2026-04-18T07:44:12Z</time></trkpt><trkpt lat="39.56725854639838" lon="9.268153315337939"><ele>538.0</ele><time>2026-04-18T07:44:13Z</time></trkpt><trkpt lat="39.56718246503367" lon="9.267965776952837"><ele>538.0</ele><time>2026-04-18T07:44:14Z</time></trkpt><trkpt lat="39.56710486378007" lon="9.26777394543883"><ele>538.0</ele><time>2026-04-18T07:44:15Z</time></trkpt><trkpt lat="39.567024372946356" lon="9.267575027232878"><ele>538.0</ele><time>2026-04-18T07:44:16Z</time></trkpt><trkpt lat="39.566941073192446" lon="9.267373392829471"><ele>538.6666666666667</ele><time>2026-04-18T07:44:17Z</time></trkpt><trkpt lat="39.566873043747314" lon="9.267154833647195"><ele>539.3333333333334</ele><time>2026-04-18T07:44:18Z</time></trkpt><trkpt lat="39.566774503562606" lon="9.266951737540346"><ele>540.0</ele><time>2026-04-18T07:44:19Z</time></trkpt><trkpt lat="39.56669206956976" lon="9.266742622799752"><ele>540.0</ele><time>2026-04-18T07:44:20Z</time></trkpt><trkpt lat="39.56660937912585" lon="9.26652904978308"><ele>540.0</ele><time>2026-04-18T07:44:21Z</time></trkpt><trkpt lat="39.56652310596529" lon="9.266308606547454"><ele>540.0</ele><time>2026-04-18T07:44:22Z</time></trkpt><trkpt lat="39.56643804825503" lon="9.266094408750611"><ele>540.6666666666666</ele><time>2026-04-18T07:44:23Z</time></trkpt><trkpt lat="39.56635062076049" lon="9.265870604340865"><ele>541.3333333333333</ele><time>2026-04-18T07:44:24Z</time></trkpt><trkpt lat="39.566262022034316" lon="9.265643832022878"><ele>542.0</ele><time>2026-04-18T07:44:25Z</time></trkpt><trkpt lat="39.56617128945453" lon="9.265413454141115"><ele>542.6666666666666</ele><time>2026-04-18T07:44:26Z</time></trkpt><trkpt lat="39.5660775911707" lon="9.265183036772681"><ele>543.3333333333334</ele><time>2026-04-18T07:44:27Z</time></trkpt><trkpt lat="39.56598259716478" lon="9.264948126363619"><ele>544.0</ele><time>2026-04-18T07:44:28Z</time></trkpt><trkpt lat="39.56588967366591" lon="9.264710123281082"><ele>544.3333333333334</ele><time>2026-04-18T07:44:29Z</time></trkpt><trkpt lat="39.56579543880309" lon="9.264467624396827"><ele>544.6666666666666</ele><time>2026-04-18T07:44:30Z</time></trkpt><trkpt lat="39.56570011917501" lon="9.26422644600299"><ele>545.0</ele><time>2026-04-18T07:44:31Z</time></trkpt><trkpt lat="39.56560444785105" lon="9.263986251494908"><ele>544.6666666666666</ele><time>2026-04-18T07:44:32Z</time></trkpt><trkpt lat="39.565509153175924" lon="9.263747358400298"><ele>544.3333333333334</ele><time>2026-04-18T07:44:33Z</time></trkpt><trkpt lat="39.56541437076001" lon="9.263507042553082"><ele>544.0</ele><time>2026-04-18T07:44:34Z</time></trkpt><trkpt lat="39.56532051434738" lon="9.263268290289922"><ele>545.6666666666667</ele><time>2026-04-18T07:44:35Z</time></trkpt><trkpt lat="39.56522881626706" lon="9.263027742289221"><ele>547.3333333333334</ele><time>2026-04-18T07:44:36Z</time></trkpt><trkpt lat="39.56513607207006" lon="9.262788397553164"><ele>549.0</ele><time>2026-04-18T07:44:37Z</time></trkpt><trkpt lat="39.56503890945456" lon="9.262547532924888"><ele>549.0</ele><time>2026-04-18T07:44:38Z</time></trkpt><trkpt lat="39.56494038772424" lon="9.26230750207287"><ele>549.0</ele><time>2026-04-18T07:44:39Z</time></trkpt><trkpt lat="39.56484210970525" lon="9.262058925222407"><ele>549.0</ele><time>2026-04-18T07:44:40Z</time></trkpt><trkpt lat="39.56474462167538" lon="9.261809006792877"><ele>549.3333333333334</ele><time>2026-04-18T07:44:41Z</time></trkpt><trkpt lat="39.56464300108036" lon="9.261553227368347"><ele>549.6666666666667</ele><time>2026-04-18T07:44:42Z</time></trkpt><trkpt lat="39.56455768399821" lon="9.261296810799506"><ele>550.0</ele><time>2026-04-18T07:44:43Z</time></trkpt><trkpt lat="39.56445571446763" lon="9.261039802927982"><ele>550.3333333333334</ele><time>2026-04-18T07:44:44Z</time></trkpt><trkpt lat="39.5643540816512" lon="9.260784270715797"><ele>550.6666666666666</ele><time>2026-04-18T07:44:45Z</time></trkpt><trkpt lat="39.56425461010557" lon="9.260534454571397"><ele>551.0</ele><time>2026-04-18T07:44:46Z</time></trkpt><trkpt lat="39.56414201273988" lon="9.260297176142204"><ele>551.3333333333333</ele><time>2026-04-18T07:44:47Z</time></trkpt><trkpt lat="39.56406053067093" lon="9.260047036681259"><ele>551.6666666666666</ele><time>2026-04-18T07:44:48Z</time></trkpt><trkpt lat="39.56395078531431" lon="9.259815876377438"><ele>552.0</ele><time>2026-04-18T07:44:49Z</time></trkpt><trkpt lat="39.563855562522996" lon="9.259569674880481"><ele>552.6666666666666</ele><time>2026-04-18T07:44:50Z</time></trkpt><trkpt lat="39.56375868233331" lon="9.259326868423612"><ele>553.3333333333333</ele><time>2026-04-18T07:44:51Z</time></trkpt><trkpt lat="39.56367449163372" lon="9.259068262589686"><ele>554.0</ele><time>2026-04-18T07:44:52Z</time></trkpt><trkpt lat="39.563574916441404" lon="9.258815387101425"><ele>554.6666666666666</ele><time>2026-04-18T07:44:53Z</time></trkpt><trkpt lat="39.56346446180356" lon="9.258581569851586"><ele>555.3333333333334</ele><time>2026-04-18T07:44:54Z</time></trkpt><trkpt lat="39.563380498229236" lon="9.25832165227888"><ele>556.0</ele><time>2026-04-18T07:44:55Z</time></trkpt><trkpt lat="39.563280149163546" lon="9.25806710803544"><ele>556.0</ele><time>2026-04-18T07:44:56Z</time></trkpt><trkpt lat="39.56317952646961" lon="9.257810710835518"><ele>556.0</ele><time>2026-04-18T07:44:57Z</time></trkpt><trkpt lat="39.56306827489749" lon="9.257561703853888"><ele>556.0</ele><time>2026-04-18T07:44:58Z</time></trkpt><trkpt lat="39.562976757434335" lon="9.257300319777517"><ele>557.3333333333334</ele><time>2026-04-18T07:44:59Z</time></trkpt><trkpt lat="39.562885063687794" lon="9.257041931011116"><ele>558.6666666666666</ele><time>2026-04-18T07:45:00Z</time></trkpt><trkpt lat="39.56279557679852" lon="9.256782420601114"><ele>560.0</ele><time>2026-04-18T07:45:01Z</time></trkpt><trkpt lat="39.56270835058971" lon="9.256522432856562"><ele>560.3333333333333</ele><time>2026-04-18T07:45:02Z</time></trkpt><trkpt lat="39.56262128236582" lon="9.256260263184915"><ele>560.6666666666666</ele><time>2026-04-18T07:45:03Z</time></trkpt><trkpt lat="39.562535153877356" lon="9.255999865449331"><ele>561.0</ele><time>2026-04-18T07:45:04Z</time></trkpt><trkpt lat="39.56246736908241" lon="9.25573668575935"><ele>564.3333333333334</ele><time>2026-04-18T07:45:05Z</time></trkpt><trkpt lat="39.5623891276302" lon="9.255496026513624"><ele>567.6666666666667</ele><time>2026-04-18T07:45:06Z</time></trkpt><trkpt lat="39.56230501155413" lon="9.255279513926329"><ele>571.0</ele><time>2026-04-18T07:45:07Z</time></trkpt><trkpt lat="39.5622509986594" lon="9.255051911425813"><ele>571.0</ele><time>2026-04-18T07:45:08Z</time></trkpt><trkpt lat="39.56225416122941" lon="9.254817242600632"><ele>571.0</ele><time>2026-04-18T07:45:09Z</time></trkpt><trkpt lat="39.56225941456452" lon="9.254575663103122"><ele>571.0</ele><time>2026-04-18T07:45:10Z</time></trkpt><trkpt lat="39.562271252877174" lon="9.254318262873769"><ele>573.6666666666667</ele><time>2026-04-18T07:45:11Z</time></trkpt><trkpt lat="39.562282409221865" lon="9.254073703016424"><ele>576.3333333333334</ele><time>2026-04-18T07:45:12Z</time></trkpt><trkpt lat="39.56228940362949" lon="9.253851705965028"><ele>579.0</ele><time>2026-04-18T07:45:13Z</time></trkpt><trkpt lat="39.5622699937267" lon="9.25365016832328"><ele>580.3333333333334</ele><time>2026-04-18T07:45:14Z</time></trkpt><trkpt lat="39.56222985715108" lon="9.25346833541967"><ele>581.6666666666667</ele><time>2026-04-18T07:45:15Z</time></trkpt><trkpt lat="39.56213512409143" lon="9.253310662709653"><ele>583.0</ele><time>2026-04-18T07:45:16Z</time></trkpt><trkpt lat="39.56199296346718" lon="9.253194814383338"><ele>586.6666666666667</ele><time>2026-04-18T07:45:17Z</time></trkpt><trkpt lat="39.561821714940244" lon="9.253118228256122"><ele>590.3333333333334</ele><time>2026-04-18T07:45:18Z</time></trkpt><trkpt lat="39.56164294515443" lon="9.253031103746208"><ele>594.0</ele><time>2026-04-18T07:45:19Z</time></trkpt><trkpt lat="39.56147388134066" lon="9.252926125799592"><ele>594.0</ele><time>2026-04-18T07:45:20Z</time></trkpt><trkpt lat="39.56130352806025" lon="9.252816476052732"><ele>594.0</ele><time>2026-04-18T07:45:21Z</time></trkpt><trkpt lat="39.56112983515406" lon="9.252714345172883"><ele>594.0</ele><time>2026-04-18T07:45:22Z</time></trkpt><trkpt lat="39.560961405390174" lon="9.252604433579853"><ele>595.0</ele><time>2026-04-18T07:45:23Z</time></trkpt><trkpt lat="39.56079887268193" lon="9.252501724342627"><ele>596.0</ele><time>2026-04-18T07:45:24Z</time></trkpt><trkpt lat="39.56063342670547" lon="9.252438795196916"><ele>597.0</ele><time>2026-04-18T07:45:25Z</time></trkpt><trkpt lat="39.560462251961454" lon="9.252447800568781"><ele>601.3333333333334</ele><time>2026-04-18T07:45:26Z</time></trkpt><trkpt lat="39.5602942176944" lon="9.25252961366784"><ele>605.6666666666667</ele><time>2026-04-18T07:45:27Z</time></trkpt><trkpt lat="39.56013419633861" lon="9.252652796269576"><ele>610.0</ele><time>2026-04-18T07:45:28Z</time></trkpt><trkpt lat="39.559972401124824" lon="9.252766826824464"><ele>610.0</ele><time>2026-04-18T07:45:29Z</time></trkpt><trkpt lat="39.55979948345876" lon="9.252838278429605"><ele>610.0</ele><time>2026-04-18T07:45:30Z</time></trkpt><trkpt lat="39.559654692505795" lon="9.252928257997869"><ele>610.0</ele><time>2026-04-18T07:45:31Z</time></trkpt><trkpt lat="39.5595043561004" lon="9.252933601156483"><ele>614.0</ele><time>2026-04-18T07:45:32Z</time></trkpt><trkpt lat="39.559344785191264" lon="9.252910061449146"><ele>618.0</ele><time>2026-04-18T07:45:33Z</time></trkpt><trkpt lat="39.55916172297465" lon="9.252894439829175"><ele>622.0</ele><time>2026-04-18T07:45:34Z</time></trkpt><trkpt lat="39.5589814129153" lon="9.252836164635033"><ele>622.0</ele><time>2026-04-18T07:45:35Z</time></trkpt><trkpt lat="39.55879845501432" lon="9.252797217843504"><ele>622.0</ele><time>2026-04-18T07:45:36Z</time></trkpt><trkpt lat="39.55861449168048" lon="9.252755647189998"><ele>622.0</ele><time>2026-04-18T07:45:37Z</time></trkpt><trkpt lat="39.55843495266321" lon="9.252716218702595"><ele>621.3333333333334</ele><time>2026-04-18T07:45:38Z</time></trkpt><trkpt lat="39.5582593507422" lon="9.252633424409101"><ele>620.6666666666666</ele><time>2026-04-18T07:45:39Z</time></trkpt><trkpt lat="39.55808550587999" lon="9.252535487708071"><ele>620.0</ele><time>2026-04-18T07:45:40Z</time></trkpt><trkpt lat="39.55791744188178" lon="9.252429133096864"><ele>621.3333333333333</ele><time>2026-04-18T07:45:41Z</time></trkpt><trkpt lat="39.557761606935905" lon="9.252322690768914"><ele>622.6666666666666</ele><time>2026-04-18T07:45:42Z</time></trkpt><trkpt lat="39.55761257947757" lon="9.252256412855154"><ele>624.0</ele><time>2026-04-18T07:45:43Z</time></trkpt><trkpt lat="39.557450557940314" lon="9.252256197400225"><ele>624.0</ele><time>2026-04-18T07:45:44Z</time></trkpt><trkpt lat="39.5572806994048" lon="9.2523367580374"><ele>624.0</ele><time>2026-04-18T07:45:45Z</time></trkpt><trkpt lat="39.55711292689514" lon="9.252441819330638"><ele>624.0</ele><time>2026-04-18T07:45:46Z</time></trkpt><trkpt lat="39.55694351370657" lon="9.25253304167584"><ele>628.3333333333334</ele><time>2026-04-18T07:45:47Z</time></trkpt><trkpt lat="39.5567747284443" lon="9.252608078470386"><ele>632.6666666666667</ele><time>2026-04-18T07:45:48Z</time></trkpt><trkpt lat="39.55660388115757" lon="9.252684024609602"><ele>637.0</ele><time>2026-04-18T07:45:49Z</time></trkpt><trkpt lat="39.55642987618891" lon="9.252757821836745"><ele>637.0</ele><time>2026-04-18T07:45:50Z</time></trkpt><trkpt lat="39.55625211692334" lon="9.252806400426522"><ele>637.0</ele><time>2026-04-18T07:45:51Z</time></trkpt><trkpt lat="39.55606946458874" lon="9.252824841325674"><ele>637.0</ele><time>2026-04-18T07:45:52Z</time></trkpt><trkpt lat="39.55588805936422" lon="9.252819648595723"><ele>639.6666666666667</ele><time>2026-04-18T07:45:53Z</time></trkpt><trkpt lat="39.55570874130697" lon="9.252791214235499"><ele>642.3333333333334</ele><time>2026-04-18T07:45:54Z</time></trkpt><trkpt lat="39.55553865818237" lon="9.252723363025806"><ele>645.0</ele><time>2026-04-18T07:45:55Z</time></trkpt><trkpt lat="39.555375964279264" lon="9.252611649322022"><ele>644.3333333333334</ele><time>2026-04-18T07:45:56Z</time></trkpt><trkpt lat="39.55521885764841" lon="9.252473418986455"><ele>643.6666666666667</ele><time>2026-04-18T07:45:57Z</time></trkpt><trkpt lat="39.55507014482535" lon="9.252312619863849"><ele>643.0</ele><time>2026-04-18T07:45:58Z</time></trkpt><trkpt lat="39.55492946099599" lon="9.252142316071543"><ele>643.0</ele><time>2026-04-18T07:45:59Z</time></trkpt><trkpt lat="39.554787192422566" lon="9.251975421913599"><ele>643.0</ele><time>2026-04-18T07:46:00Z</time></trkpt><trkpt lat="39.55464331670686" lon="9.251810318837258"><ele>643.0</ele><time>2026-04-18T07:46:01Z</time></trkpt><trkpt lat="39.55449895479768" lon="9.25164722857853"><ele>640.3333333333334</ele><time>2026-04-18T07:46:02Z</time></trkpt><trkpt lat="39.55435407749035" lon="9.251485090343017"><ele>637.6666666666666</ele><time>2026-04-18T07:46:03Z</time></trkpt><trkpt lat="39.55420767943506" lon="9.251333898792508"><ele>635.0</ele><time>2026-04-18T07:46:04Z</time></trkpt><trkpt lat="39.55405423297559" lon="9.251207566910061"><ele>635.0</ele><time>2026-04-18T07:46:05Z</time></trkpt><trkpt lat="39.55387962441026" lon="9.251127644436883"><ele>635.0</ele><time>2026-04-18T07:46:06Z</time></trkpt><trkpt lat="39.55368780151196" lon="9.251095774700321"><ele>635.0</ele><time>2026-04-18T07:46:07Z</time></trkpt><trkpt lat="39.553491411788556" lon="9.251097366370724"><ele>634.3333333333333</ele><time>2026-04-18T07:46:08Z</time></trkpt><trkpt lat="39.55329852173673" lon="9.251108837985278"><ele>633.6666666666666</ele><time>2026-04-18T07:46:09Z</time></trkpt><trkpt lat="39.55310555175791" lon="9.251102966261202"><ele>633.0</ele><time>2026-04-18T07:46:10Z</time></trkpt><trkpt lat="39.552914610698636" lon="9.25108968330546"><ele>632.6666666666666</ele><time>2026-04-18T07:46:11Z</time></trkpt><trkpt lat="39.552725789006715" lon="9.251077355415005"><ele>632.3333333333333</ele><time>2026-04-18T07:46:12Z</time></trkpt><trkpt lat="39.55253772187582" lon="9.251068207214416"><ele>632.0</ele><time>2026-04-18T07:46:13Z</time></trkpt><trkpt lat="39.55235070736212" lon="9.251073358490183"><ele>632.0</ele><time>2026-04-18T07:46:14Z</time></trkpt><trkpt lat="39.55216869173914" lon="9.25112379619039"><ele>632.0</ele><time>2026-04-18T07:46:15Z</time></trkpt><trkpt lat="39.55199206601119" lon="9.251227958972924"><ele>632.0</ele><time>2026-04-18T07:46:16Z</time></trkpt><trkpt lat="39.55182210820518" lon="9.251351895587353"><ele>632.0</ele><time>2026-04-18T07:46:17Z</time></trkpt><trkpt lat="39.55165099310685" lon="9.251464467589665"><ele>632.0</ele><time>2026-04-18T07:46:18Z</time></trkpt><trkpt lat="39.551478034318805" lon="9.25156956402376"><ele>632.0</ele><time>2026-04-18T07:46:19Z</time></trkpt><trkpt lat="39.55130627770787" lon="9.251674140844644"><ele>635.0</ele><time>2026-04-18T07:46:20Z</time></trkpt><trkpt lat="39.551136090441375" lon="9.251777036249523"><ele>638.0</ele><time>2026-04-18T07:46:21Z</time></trkpt><trkpt lat="39.55096908222481" lon="9.25187860921129"><ele>641.0</ele><time>2026-04-18T07:46:22Z</time></trkpt><trkpt lat="39.55080559683993" lon="9.251979316306867"><ele>641.0</ele><time>2026-04-18T07:46:23Z</time></trkpt><trkpt lat="39.55064513362879" lon="9.252058553888277"><ele>641.0</ele><time>2026-04-18T07:46:24Z</time></trkpt><trkpt lat="39.550473450932664" lon="9.252065097383413"><ele>641.0</ele><time>2026-04-18T07:46:25Z</time></trkpt><trkpt lat="39.55029976901845" lon="9.252057774751762"><ele>641.6666666666666</ele><time>2026-04-18T07:46:26Z</time></trkpt><trkpt lat="39.55012059360574" lon="9.252012774762719"><ele>642.3333333333334</ele><time>2026-04-18T07:46:27Z</time></trkpt><trkpt lat="39.5499341810503" lon="9.25198621307994"><ele>643.0</ele><time>2026-04-18T07:46:28Z</time></trkpt><trkpt lat="39.5497467584864" lon="9.251931407966728"><ele>643.0</ele><time>2026-04-18T07:46:29Z</time></trkpt><trkpt lat="39.549554357769296" lon="9.251886910071498"><ele>643.0</ele><time>2026-04-18T07:46:30Z</time></trkpt><trkpt lat="39.54936297363702" lon="9.251819334098988"><ele>643.0</ele><time>2026-04-18T07:46:31Z</time></trkpt><trkpt lat="39.54916703878658" lon="9.251769014771765"><ele>643.3333333333334</ele><time>2026-04-18T07:46:32Z</time></trkpt><trkpt lat="39.54896855992084" lon="9.2517394571933"><ele>643.6666666666666</ele><time>2026-04-18T07:46:33Z</time></trkpt><trkpt lat="39.54877367971339" lon="9.251689396148949"><ele>644.0</ele><time>2026-04-18T07:46:34Z</time></trkpt><trkpt lat="39.54857916680987" lon="9.251642865101047"><ele>644.6666666666666</ele><time>2026-04-18T07:46:35Z</time></trkpt><trkpt lat="39.548385663081326" lon="9.251596426963156"><ele>645.3333333333334</ele><time>2026-04-18T07:46:36Z</time></trkpt><trkpt lat="39.548195123306016" lon="9.251546563166535"><ele>646.0</ele><time>2026-04-18T07:46:37Z</time></trkpt><trkpt lat="39.548006536439026" lon="9.251493213021256"><ele>649.0</ele><time>2026-04-18T07:46:38Z</time></trkpt><trkpt lat="39.5478218626026" lon="9.25143513232113"><ele>652.0</ele><time>2026-04-18T07:46:39Z</time></trkpt><trkpt lat="39.54764820961275" lon="9.251342350215733"><ele>655.0</ele><time>2026-04-18T07:46:40Z</time></trkpt><trkpt lat="39.54747676265821" lon="9.251253048513092"><ele>655.0</ele><time>2026-04-18T07:46:41Z</time></trkpt><trkpt lat="39.54730248851089" lon="9.251166131067166"><ele>655.0</ele><time>2026-04-18T07:46:42Z</time></trkpt><trkpt lat="39.54713740705413" lon="9.251048388124907"><ele>655.0</ele><time>2026-04-18T07:46:43Z</time></trkpt><trkpt lat="39.54697073816087" lon="9.25092995738347"><ele>653.6666666666667</ele><time>2026-04-18T07:46:44Z</time></trkpt><trkpt lat="39.5467996058849" lon="9.250820701387221"><ele>652.3333333333334</ele><time>2026-04-18T07:46:45Z</time></trkpt><trkpt lat="39.546627859992924" lon="9.250711599613764"><ele>651.0</ele><time>2026-04-18T07:46:46Z</time></trkpt><trkpt lat="39.54644617816168" lon="9.250623646304131"><ele>654.0</ele><time>2026-04-18T07:46:47Z</time></trkpt><trkpt lat="39.546252667788295" lon="9.250574735038457"><ele>657.0</ele><time>2026-04-18T07:46:48Z</time></trkpt><trkpt lat="39.546054862183254" lon="9.250568753940057"><ele>660.0</ele><time>2026-04-18T07:46:49Z</time></trkpt><trkpt lat="39.54585572130382" lon="9.250588984859952"><ele>660.0</ele><time>2026-04-18T07:46:50Z</time></trkpt><trkpt lat="39.54565709802421" lon="9.250599955240991"><ele>660.0</ele><time>2026-04-18T07:46:51Z</time></trkpt><trkpt lat="39.545458953280225" lon="9.25060977615031"><ele>660.0</ele><time>2026-04-18T07:46:52Z</time></trkpt><trkpt lat="39.54526120126843" lon="9.250620700326548"><ele>656.3333333333334</ele><time>2026-04-18T07:46:53Z</time></trkpt><trkpt lat="39.54506434280744" lon="9.250633464732266"><ele>652.6666666666667</ele><time>2026-04-18T07:46:54Z</time></trkpt><trkpt lat="39.54486845710447" lon="9.25064740171525"><ele>649.0</ele><time>2026-04-18T07:46:55Z</time></trkpt><trkpt lat="39.5446730838418" lon="9.2506609840857"><ele>648.3333333333334</ele><time>2026-04-18T07:46:56Z</time></trkpt><trkpt lat="39.54447784527647" lon="9.250669982205437"><ele>647.6666666666666</ele><time>2026-04-18T07:46:57Z</time></trkpt><trkpt lat="39.54428230155327" lon="9.250670344513365"><ele>647.0</ele><time>2026-04-18T07:46:58Z</time></trkpt><trkpt lat="39.544089431389644" lon="9.250653717752039"><ele>648.0</ele><time>2026-04-18T07:46:59Z</time></trkpt><trkpt lat="39.54389680673193" lon="9.250616055993314"><ele>649.0</ele><time>2026-04-18T07:47:00Z</time></trkpt><trkpt lat="39.54370592277165" lon="9.250561826191436"><ele>650.0</ele><time>2026-04-18T07:47:01Z</time></trkpt><trkpt lat="39.54351445401184" lon="9.250501056802218"><ele>647.3333333333333</ele><time>2026-04-18T07:47:02Z</time></trkpt><trkpt lat="39.54332019174651" lon="9.25044298392522"><ele>644.6666666666666</ele><time>2026-04-18T07:47:03Z</time></trkpt><trkpt lat="39.54312584834452" lon="9.25039325560656"><ele>642.0</ele><time>2026-04-18T07:47:04Z</time></trkpt><trkpt lat="39.54293394370368" lon="9.250346478415917"><ele>639.0</ele><time>2026-04-18T07:47:05Z</time></trkpt><trkpt lat="39.54274705515356" lon="9.25029743348202"><ele>636.0</ele><time>2026-04-18T07:47:06Z</time></trkpt><trkpt lat="39.542565876384515" lon="9.250241491586191"><ele>633.0</ele><time>2026-04-18T07:47:07Z</time></trkpt><trkpt lat="39.54238890817524" lon="9.250173760521657"><ele>633.0</ele><time>2026-04-18T07:47:08Z</time></trkpt><trkpt lat="39.542218195536776" lon="9.25008883655106"><ele>633.0</ele><time>2026-04-18T07:47:09Z</time></trkpt><trkpt lat="39.54205843231818" lon="9.249985435885572"><ele>633.0</ele><time>2026-04-18T07:47:10Z</time></trkpt><trkpt lat="39.54191194933707" lon="9.249852571205633"><ele>631.3333333333334</ele><time>2026-04-18T07:47:11Z</time></trkpt><trkpt lat="39.54181156346661" lon="9.249672112427413"><ele>629.6666666666667</ele><time>2026-04-18T07:47:12Z</time></trkpt><trkpt lat="39.541707270570534" lon="9.249493996515465"><ele>628.0</ele><time>2026-04-18T07:47:13Z</time></trkpt><trkpt lat="39.541652308580396" lon="9.249277505825331"><ele>628.0</ele><time>2026-04-18T07:47:14Z</time></trkpt><trkpt lat="39.541610262794684" lon="9.249047115272015"><ele>628.0</ele><time>2026-04-18T07:47:15Z</time></trkpt><trkpt lat="39.54156806922253" lon="9.24881006230533"><ele>628.0</ele><time>2026-04-18T07:47:16Z</time></trkpt><trkpt lat="39.54152725822493" lon="9.248567083171974"><ele>627.3333333333334</ele><time>2026-04-18T07:47:17Z</time></trkpt><trkpt lat="39.54151277349273" lon="9.24831416305948"><ele>626.6666666666666</ele><time>2026-04-18T07:47:18Z</time></trkpt><trkpt lat="39.54147825503908" lon="9.248066910403866"><ele>626.0</ele><time>2026-04-18T07:47:19Z</time></trkpt><trkpt lat="39.5414284588533" lon="9.247823189704794"><ele>625.6666666666666</ele><time>2026-04-18T07:47:20Z</time></trkpt><trkpt lat="39.54139320174699" lon="9.24757868759467"><ele>625.3333333333334</ele><time>2026-04-18T07:47:21Z</time></trkpt><trkpt lat="39.54137388483361" lon="9.247329100195776"><ele>625.0</ele><time>2026-04-18T07:47:22Z</time></trkpt><trkpt lat="39.5413239172284" lon="9.247083455529431"><ele>626.0</ele><time>2026-04-18T07:47:23Z</time></trkpt><trkpt lat="39.541288810379605" lon="9.246831786755056"><ele>627.0</ele><time>2026-04-18T07:47:24Z</time></trkpt><trkpt lat="39.541253275915956" lon="9.246578885235499"><ele>628.0</ele><time>2026-04-18T07:47:25Z</time></trkpt><trkpt lat="39.54122065634059" lon="9.24632952940295"><ele>629.3333333333334</ele><time>2026-04-18T07:47:26Z</time></trkpt><trkpt lat="39.541184639201944" lon="9.246080118887267"><ele>630.6666666666666</ele><time>2026-04-18T07:47:27Z</time></trkpt><trkpt lat="39.5411423602236" lon="9.245831138290077"><ele>632.0</ele><time>2026-04-18T07:47:28Z</time></trkpt><trkpt lat="39.54108095087982" lon="9.245588417567571"><ele>634.6666666666666</ele><time>2026-04-18T07:47:29Z</time></trkpt><trkpt lat="39.54098333106297" lon="9.24536981201157"><ele>637.3333333333334</ele><time>2026-04-18T07:47:30Z</time></trkpt><trkpt lat="39.540874746212346" lon="9.24515544385121"><ele>640.0</ele><time>2026-04-18T07:47:31Z</time></trkpt><trkpt lat="39.54077443788258" lon="9.244950353843395"><ele>643.3333333333334</ele><time>2026-04-18T07:47:32Z</time></trkpt><trkpt lat="39.540696444823475" lon="9.24473855151258"><ele>646.6666666666666</ele><time>2026-04-18T07:47:33Z</time></trkpt><trkpt lat="39.54062048964927" lon="9.244547049153297"><ele>650.0</ele><time>2026-04-18T07:47:34Z</time></trkpt><trkpt lat="39.54058463568727" lon="9.244363653762449"><ele>650.0</ele><time>2026-04-18T07:47:35Z</time></trkpt><trkpt lat="39.54058327300049" lon="9.244171091492776"><ele>650.0</ele><time>2026-04-18T07:47:36Z</time></trkpt><trkpt lat="39.540616745723206" lon="9.243973977013937"><ele>650.0</ele><time>2026-04-18T07:47:37Z</time></trkpt><trkpt lat="39.54064040894198" lon="9.243762085042944"><ele>650.6666666666666</ele><time>2026-04-18T07:47:38Z</time></trkpt><trkpt lat="39.54068931192903" lon="9.243539381234182"><ele>651.3333333333334</ele><time>2026-04-18T07:47:39Z</time></trkpt><trkpt lat="39.54072942959747" lon="9.243307470297776"><ele>652.0</ele><time>2026-04-18T07:47:40Z</time></trkpt><trkpt lat="39.54077573035845" lon="9.243075648852939"><ele>653.6666666666667</ele><time>2026-04-18T07:47:41Z</time></trkpt><trkpt lat="39.54082440470111" lon="9.242844031044832"><ele>655.3333333333334</ele><time>2026-04-18T07:47:42Z</time></trkpt><trkpt lat="39.54087280638419" lon="9.24261931896312"><ele>657.0</ele><time>2026-04-18T07:47:43Z</time></trkpt><trkpt lat="39.540915254718" lon="9.242397997682236"><ele>659.6666666666666</ele><time>2026-04-18T07:47:44Z</time></trkpt><trkpt lat="39.540946983099936" lon="9.242180781371072"><ele>662.3333333333333</ele><time>2026-04-18T07:47:45Z</time></trkpt><trkpt lat="39.54096009700921" lon="9.241963664910875"><ele>665.0</ele><time>2026-04-18T07:47:46Z</time></trkpt><trkpt lat="39.54094026337168" lon="9.241751771478638"><ele>665.0</ele><time>2026-04-18T07:47:47Z</time></trkpt><trkpt lat="39.540883324752585" lon="9.241544067729114"><ele>665.0</ele><time>2026-04-18T07:47:48Z</time></trkpt><trkpt lat="39.540797162420446" lon="9.241343383089339"><ele>665.0</ele><time>2026-04-18T07:47:49Z</time></trkpt><trkpt lat="39.54068556538579" lon="9.241159731475491"><ele>668.0</ele><time>2026-04-18T07:47:50Z</time></trkpt><trkpt lat="39.54056026433599" lon="9.240981500176717"><ele>671.0</ele><time>2026-04-18T07:47:51Z</time></trkpt><trkpt lat="39.54043953304336" lon="9.240820101772782"><ele>674.0</ele><time>2026-04-18T07:47:52Z</time></trkpt><trkpt lat="39.54032586070937" lon="9.240653555337193"><ele>675.0</ele><time>2026-04-18T07:47:53Z</time></trkpt><trkpt lat="39.54021963638018" lon="9.240489473929737"><ele>676.0</ele><time>2026-04-18T07:47:54Z</time></trkpt><trkpt lat="39.540119126386855" lon="9.240326058562584"><ele>677.0</ele><time>2026-04-18T07:47:55Z</time></trkpt><trkpt lat="39.5400289598832" lon="9.240156356055094"><ele>677.0</ele><time>2026-04-18T07:47:56Z</time></trkpt><trkpt lat="39.53995593504339" lon="9.23997145506465"><ele>677.0</ele><time>2026-04-18T07:47:57Z</time></trkpt><trkpt lat="39.539903608560174" lon="9.239772613707874"><ele>677.0</ele><time>2026-04-18T07:47:58Z</time></trkpt><trkpt lat="39.53986581575612" lon="9.23956044886018"><ele>677.3333333333333</ele><time>2026-04-18T07:47:59Z</time></trkpt><trkpt lat="39.53983601385736" lon="9.239348261844057"><ele>677.6666666666666</ele><time>2026-04-18T07:48:00Z</time></trkpt><trkpt lat="39.539806980997454" lon="9.239127029791177"><ele>678.0</ele><time>2026-04-18T07:48:01Z</time></trkpt><trkpt lat="39.53977851469314" lon="9.23890875076031"><ele>678.0</ele><time>2026-04-18T07:48:02Z</time></trkpt><trkpt lat="39.539752498401754" lon="9.23869019488805"><ele>678.0</ele><time>2026-04-18T07:48:03Z</time></trkpt><trkpt lat="39.53972737925803" lon="9.238472966891122"><ele>678.0</ele><time>2026-04-18T07:48:04Z</time></trkpt><trkpt lat="39.539694721186045" lon="9.238238124490316"><ele>677.3333333333334</ele><time>2026-04-18T07:48:05Z</time></trkpt><trkpt lat="39.53965619772493" lon="9.237985568651936"><ele>676.6666666666667</ele><time>2026-04-18T07:48:06Z</time></trkpt><trkpt lat="39.539624752377044" lon="9.237722412601098"><ele>676.0</ele><time>2026-04-18T07:48:07Z</time></trkpt><trkpt lat="39.53959940703201" lon="9.237450920056204"><ele>675.3333333333334</ele><time>2026-04-18T07:48:08Z</time></trkpt><trkpt lat="39.539575049705505" lon="9.237179090507677"><ele>674.6666666666666</ele><time>2026-04-18T07:48:09Z</time></trkpt><trkpt lat="39.53954866983787" lon="9.23690156728005"><ele>674.0</ele><time>2026-04-18T07:48:10Z</time></trkpt><trkpt lat="39.5395196148638" lon="9.236617547910265"><ele>670.0</ele><time>2026-04-18T07:48:11Z</time></trkpt><trkpt lat="39.539489917761266" lon="9.236328771181855"><ele>666.0</ele><time>2026-04-18T07:48:12Z</time></trkpt><trkpt lat="39.539458971429376" lon="9.23603577922357"><ele>666.0</ele><time>2026-04-18T07:48:13Z</time></trkpt><trkpt lat="39.539425883485954" lon="9.235739822441861"><ele>666.0</ele><time>2026-04-18T07:48:14Z</time></trkpt><trkpt lat="39.539393377751445" lon="9.235442022760903"><ele>664.6666666666666</ele><time>2026-04-18T07:48:15Z</time></trkpt><trkpt lat="39.53937589233158" lon="9.235263511059072"><ele>663.3333333333333</ele><time>2026-04-18T07:48:16Z</time></trkpt><trkpt lat="39.53934655836442" lon="9.235004452456897"><ele>662.0</ele><time>2026-04-18T07:48:17Z</time></trkpt><trkpt lat="39.5393212939014" lon="9.234761645844548"><ele>661.0</ele><time>2026-04-18T07:48:18Z</time></trkpt><trkpt lat="39.53929562019847" lon="9.234514190429152"><ele>660.0</ele><time>2026-04-18T07:48:19Z</time></trkpt><trkpt lat="39.539271240845785" lon="9.234278052275249"><ele>659.0</ele><time>2026-04-18T07:48:20Z</time></trkpt><trkpt lat="39.53925537278683" lon="9.234046348295793"><ele>657.3333333333333</ele><time>2026-04-18T07:48:21Z</time></trkpt><trkpt lat="39.53926396420214" lon="9.233820998113169"><ele>655.6666666666666</ele><time>2026-04-18T07:48:22Z</time></trkpt><trkpt lat="39.539288893389525" lon="9.233594669133346"><ele>654.0</ele><time>2026-04-18T07:48:23Z</time></trkpt><trkpt lat="39.539330747132965" lon="9.23337390668095"><ele>654.0</ele><time>2026-04-18T07:48:24Z</time></trkpt><trkpt lat="39.53937716362279" lon="9.233157185818886"><ele>654.0</ele><time>2026-04-18T07:48:25Z</time></trkpt><trkpt lat="39.53942736603274" lon="9.232955721424997"><ele>654.0</ele><time>2026-04-18T07:48:26Z</time></trkpt><trkpt lat="39.53950585560874" lon="9.232781641441507"><ele>654.6666666666666</ele><time>2026-04-18T07:48:27Z</time></trkpt><trkpt lat="39.5396115831828" lon="9.232629973776161"><ele>655.3333333333333</ele><time>2026-04-18T07:48:28Z</time></trkpt><trkpt lat="39.53974249553288" lon="9.232514951576226"><ele>656.0</ele><time>2026-04-18T07:48:29Z</time></trkpt><trkpt lat="39.53988429096194" lon="9.232394830647989"><ele>652.6666666666666</ele><time>2026-04-18T07:48:30Z</time></trkpt><trkpt lat="39.54001114009725" lon="9.232254010446994"><ele>649.3333333333334</ele><time>2026-04-18T07:48:31Z</time></trkpt><trkpt lat="39.54010788398244" lon="9.232083260481044"><ele>646.0</ele><time>2026-04-18T07:48:32Z</time></trkpt><trkpt lat="39.540182675533785" lon="9.23189105498017"><ele>646.0</ele><time>2026-04-18T07:48:33Z</time></trkpt><trkpt lat="39.540215891040056" lon="9.2316761000974"><ele>646.0</ele><time>2026-04-18T07:48:34Z</time></trkpt><trkpt lat="39.54023053424594" lon="9.23144968035531"><ele>646.0</ele><time>2026-04-18T07:48:35Z</time></trkpt><trkpt lat="39.54025135120394" lon="9.23121686229572"><ele>643.6666666666667</ele><time>2026-04-18T07:48:36Z</time></trkpt><trkpt lat="39.54027702462046" lon="9.230998214065437"><ele>641.3333333333334</ele><time>2026-04-18T07:48:37Z</time></trkpt><trkpt lat="39.54030137484598" lon="9.230781447436257"><ele>639.0</ele><time>2026-04-18T07:48:38Z</time></trkpt><trkpt lat="39.54036690674439" lon="9.230599407968006"><ele>640.0</ele><time>2026-04-18T07:48:39Z</time></trkpt><trkpt lat="39.54042929865628" lon="9.230385545612545"><ele>641.0</ele><time>2026-04-18T07:48:40Z</time></trkpt><trkpt lat="39.540477344149664" lon="9.230177916982552"><ele>642.0</ele><time>2026-04-18T07:48:41Z</time></trkpt><trkpt lat="39.54053796168106" lon="9.229968039163161"><ele>640.3333333333334</ele><time>2026-04-18T07:48:42Z</time></trkpt><trkpt lat="39.540597068317176" lon="9.229762186171426"><ele>638.6666666666667</ele><time>2026-04-18T07:48:43Z</time></trkpt><trkpt lat="39.54066188245178" lon="9.229556815895485"><ele>637.0</ele><time>2026-04-18T07:48:44Z</time></trkpt><trkpt lat="39.54072013925402" lon="9.229353121590183"><ele>637.0</ele><time>2026-04-18T07:48:45Z</time></trkpt><trkpt lat="39.5407664558689" lon="9.229148526346926"><ele>637.0</ele><time>2026-04-18T07:48:46Z</time></trkpt><trkpt lat="39.54079758623319" lon="9.228948847400265"><ele>637.0</ele><time>2026-04-18T07:48:47Z</time></trkpt><trkpt lat="39.54081424162126" lon="9.228743305603832"><ele>634.6666666666667</ele><time>2026-04-18T07:48:48Z</time></trkpt><trkpt lat="39.54084485691951" lon="9.228553098426177"><ele>632.3333333333334</ele><time>2026-04-18T07:48:49Z</time></trkpt><trkpt lat="39.54087117101809" lon="9.228358097274675"><ele>630.0</ele><time>2026-04-18T07:48:50Z</time></trkpt><trkpt lat="39.540898562122116" lon="9.228170701511166"><ele>629.0</ele><time>2026-04-18T07:48:51Z</time></trkpt><trkpt lat="39.54094355085818" lon="9.227998867839531"><ele>628.0</ele><time>2026-04-18T07:48:52Z</time></trkpt><trkpt lat="39.54101915538078" lon="9.227838728078575"><ele>627.0</ele><time>2026-04-18T07:48:53Z</time></trkpt><trkpt lat="39.54111637035178" lon="9.227680833868734"><ele>626.0</ele><time>2026-04-18T07:48:54Z</time></trkpt><trkpt lat="39.541230581184514" lon="9.227521800861203"><ele>626.0</ele><time>2026-04-18T07:48:55Z</time></trkpt><trkpt lat="39.54133731353815" lon="9.227349470520059"><ele>626.0</ele><time>2026-04-18T07:48:56Z</time></trkpt><trkpt lat="39.5414549597039" lon="9.227186585441691"><ele>626.0</ele><time>2026-04-18T07:48:57Z</time></trkpt><trkpt lat="39.541569719479945" lon="9.227024577911072"><ele>623.6666666666666</ele><time>2026-04-18T07:48:58Z</time></trkpt><trkpt lat="39.541682118714014" lon="9.226869074203474"><ele>621.3333333333334</ele><time>2026-04-18T07:48:59Z</time></trkpt><trkpt lat="39.54179308876382" lon="9.22671674349471"><ele>619.0</ele><time>2026-04-18T07:49:00Z</time></trkpt><trkpt lat="39.541901471615475" lon="9.226569211667393"><ele>618.0</ele><time>2026-04-18T07:49:01Z</time></trkpt><trkpt lat="39.542010996685214" lon="9.22643672257155"><ele>617.0</ele><time>2026-04-18T07:49:02Z</time></trkpt><trkpt lat="39.54214131844063" lon="9.226337318842461"><ele>616.0</ele><time>2026-04-18T07:49:03Z</time></trkpt><trkpt lat="39.54227212412825" lon="9.226246792552542"><ele>615.0</ele><time>2026-04-18T07:49:04Z</time></trkpt><trkpt lat="39.5424231419199" lon="9.226165853827517"><ele>613.3333333333334</ele><time>2026-04-18T07:49:05Z</time></trkpt><trkpt lat="39.54259788039069" lon="9.22607714814449"><ele>611.6666666666667</ele><time>2026-04-18T07:49:06Z</time></trkpt><trkpt lat="39.542802458288584" lon="9.225973294648474"><ele>610.0</ele><time>2026-04-18T07:49:07Z</time></trkpt><trkpt lat="39.54302874502694" lon="9.225858420710697"><ele>608.5</ele><time>2026-04-18T07:49:08Z</time></trkpt><trkpt lat="39.543263720971865" lon="9.225727830621992"><ele>607.0</ele><time>2026-04-18T07:49:09Z</time></trkpt><trkpt lat="39.543499594550475" lon="9.225616758706783"><ele>600.0</ele><time>2026-04-18T07:49:10Z</time></trkpt><trkpt lat="39.543723473175106" lon="9.225498799281434"><ele>593.0</ele><time>2026-04-18T07:49:11Z</time></trkpt><trkpt lat="39.54393707493619" lon="9.225391631561939"><ele>593.0</ele><time>2026-04-18T07:49:12Z</time></trkpt><trkpt lat="39.54414273671309" lon="9.225289839393323"><ele>593.0</ele><time>2026-04-18T07:49:13Z</time></trkpt><trkpt lat="39.54433474092303" lon="9.225179276852767"><ele>593.0</ele><time>2026-04-18T07:49:14Z</time></trkpt><trkpt lat="39.54451389144995" lon="9.225045555340365"><ele>595.0</ele><time>2026-04-18T07:49:15Z</time></trkpt><trkpt lat="39.54467718295747" lon="9.224893893464218"><ele>597.0</ele><time>2026-04-18T07:49:16Z</time></trkpt><trkpt lat="39.544831260263244" lon="9.224751528297652"><ele>599.0</ele><time>2026-04-18T07:49:17Z</time></trkpt><trkpt lat="39.54498691141517" lon="9.224625522540446"><ele>593.6666666666666</ele><time>2026-04-18T07:49:18Z</time></trkpt><trkpt lat="39.54513648142702" lon="9.224508220786912"><ele>588.3333333333334</ele><time>2026-04-18T07:49:19Z</time></trkpt><trkpt lat="39.545302231969025" lon="9.224450188309207"><ele>583.0</ele><time>2026-04-18T07:49:20Z</time></trkpt><trkpt lat="39.545472824780006" lon="9.224428880012177"><ele>582.0</ele><time>2026-04-18T07:49:21Z</time></trkpt><trkpt lat="39.54566033600015" lon="9.224410968053279"><ele>581.0</ele><time>2026-04-18T07:49:22Z</time></trkpt><trkpt lat="39.545851177412594" lon="9.22441570531819"><ele>580.0</ele><time>2026-04-18T07:49:23Z</time></trkpt><trkpt lat="39.54604071954376" lon="9.224414084307462"><ele>580.0</ele><time>2026-04-18T07:49:24Z</time></trkpt><trkpt lat="39.54620868420299" lon="9.224397663141724"><ele>580.0</ele><time>2026-04-18T07:49:25Z</time></trkpt><trkpt lat="39.54636086227247" lon="9.2243482353977"><ele>580.0</ele><time>2026-04-18T07:49:26Z</time></trkpt><trkpt lat="39.54649889884605" lon="9.224254257168257"><ele>579.0</ele><time>2026-04-18T07:49:27Z</time></trkpt><trkpt lat="39.54661692853176" lon="9.224114734290698"><ele>578.0</ele><time>2026-04-18T07:49:28Z</time></trkpt><trkpt lat="39.54671075927423" lon="9.223939055020898"><ele>577.0</ele><time>2026-04-18T07:49:29Z</time></trkpt><trkpt lat="39.54676987639499" lon="9.2237446013746"><ele>575.0</ele><time>2026-04-18T07:49:30Z</time></trkpt><trkpt lat="39.54680194133756" lon="9.22353299049172"><ele>573.0</ele><time>2026-04-18T07:49:31Z</time></trkpt><trkpt lat="39.54683428142575" lon="9.223301260932862"><ele>571.0</ele><time>2026-04-18T07:49:32Z</time></trkpt><trkpt lat="39.546877420031265" lon="9.223067714965687"><ele>570.6666666666667</ele><time>2026-04-18T07:49:33Z</time></trkpt><trkpt lat="39.546922140239545" lon="9.222844511388583"><ele>570.3333333333334</ele><time>2026-04-18T07:49:34Z</time></trkpt><trkpt lat="39.54696182991595" lon="9.22262289702629"><ele>570.0</ele><time>2026-04-18T07:49:35Z</time></trkpt><trkpt lat="39.546997839590084" lon="9.222398252545338"><ele>570.0</ele><time>2026-04-18T07:49:36Z</time></trkpt><trkpt lat="39.54703936330076" lon="9.222165060574191"><ele>570.0</ele><time>2026-04-18T07:49:37Z</time></trkpt><trkpt lat="39.547083808482505" lon="9.221931771331608"><ele>570.0</ele><time>2026-04-18T07:49:38Z</time></trkpt><trkpt lat="39.54714416249511" lon="9.221699640012508"><ele>572.0</ele><time>2026-04-18T07:49:39Z</time></trkpt><trkpt lat="39.547175391307015" lon="9.221452758106745"><ele>574.0</ele><time>2026-04-18T07:49:40Z</time></trkpt><trkpt lat="39.54722605604894" lon="9.221206762118525"><ele>576.0</ele><time>2026-04-18T07:49:41Z</time></trkpt><trkpt lat="39.54727728536082" lon="9.220955656045804"><ele>576.0</ele><time>2026-04-18T07:49:42Z</time></trkpt><trkpt lat="39.54732802941886" lon="9.22070081255806"><ele>576.0</ele><time>2026-04-18T07:49:43Z</time></trkpt><trkpt lat="39.54737713101467" lon="9.220438838824984"><ele>576.0</ele><time>2026-04-18T07:49:44Z</time></trkpt><trkpt lat="39.54742581045342" lon="9.220170569171051"><ele>576.0</ele><time>2026-04-18T07:49:45Z</time></trkpt><trkpt lat="39.547495239259966" lon="9.21989948383884"><ele>576.0</ele><time>2026-04-18T07:49:46Z</time></trkpt><trkpt lat="39.5475503365604" lon="9.219621064903196"><ele>576.0</ele><time>2026-04-18T07:49:47Z</time></trkpt><trkpt lat="39.547590566916696" lon="9.219336696624524"><ele>576.6666666666666</ele><time>2026-04-18T07:49:48Z</time></trkpt><trkpt lat="39.54764673234109" lon="9.219064734447455"><ele>577.3333333333333</ele><time>2026-04-18T07:49:49Z</time></trkpt><trkpt lat="39.547698725117385" lon="9.218798598025968"><ele>578.0</ele><time>2026-04-18T07:49:50Z</time></trkpt><trkpt lat="39.54775031594414" lon="9.218535419364068"><ele>580.0</ele><time>2026-04-18T07:49:51Z</time></trkpt><trkpt lat="39.547800507553" lon="9.218284480401458"><ele>582.0</ele><time>2026-04-18T07:49:52Z</time></trkpt><trkpt lat="39.54784405172635" lon="9.218037996756342"><ele>584.0</ele><time>2026-04-18T07:49:53Z</time></trkpt><trkpt lat="39.54786893030159" lon="9.2177854973791"><ele>586.0</ele><time>2026-04-18T07:49:54Z</time></trkpt><trkpt lat="39.54785633808666" lon="9.217525073396185"><ele>588.0</ele><time>2026-04-18T07:49:55Z</time></trkpt><trkpt lat="39.54781518699661" lon="9.217257069232476"><ele>590.0</ele><time>2026-04-18T07:49:56Z</time></trkpt><trkpt lat="39.54779908150053" lon="9.216980788754949"><ele>590.6666666666666</ele><time>2026-04-18T07:49:57Z</time></trkpt><trkpt lat="39.547771204115854" lon="9.216707324656069"><ele>591.3333333333334</ele><time>2026-04-18T07:49:58Z</time></trkpt><trkpt lat="39.547714207548744" lon="9.21644009007158"><ele>592.0</ele><time>2026-04-18T07:49:59Z</time></trkpt><trkpt lat="39.5476908325612" lon="9.216174581906028"><ele>592.3333333333334</ele><time>2026-04-18T07:50:00Z</time></trkpt><trkpt lat="39.547665426634715" lon="9.215931740902716"><ele>592.6666666666666</ele><time>2026-04-18T07:50:01Z</time></trkpt><trkpt lat="39.547627990008905" lon="9.215713808475506"><ele>593.0</ele><time>2026-04-18T07:50:02Z</time></trkpt><trkpt lat="39.5475626918433" lon="9.215520141907707"><ele>593.3333333333333</ele><time>2026-04-18T07:50:03Z</time></trkpt><trkpt lat="39.5474668142997" lon="9.215347883116998"><ele>593.6666666666666</ele><time>2026-04-18T07:50:04Z</time></trkpt><trkpt lat="39.54734564728911" lon="9.21521202179397"><ele>594.0</ele><time>2026-04-18T07:50:05Z</time></trkpt><trkpt lat="39.5472055449839" lon="9.215126924014395"><ele>594.0</ele><time>2026-04-18T07:50:06Z</time></trkpt><trkpt lat="39.54705166896914" lon="9.215080259363145"><ele>594.0</ele><time>2026-04-18T07:50:07Z</time></trkpt><trkpt lat="39.54688788651799" lon="9.215075046261319"><ele>594.0</ele><time>2026-04-18T07:50:08Z</time></trkpt><trkpt lat="39.546720177165525" lon="9.215111567041596"><ele>594.0</ele><time>2026-04-18T07:50:09Z</time></trkpt><trkpt lat="39.54655364422122" lon="9.215164318368284"><ele>594.0</ele><time>2026-04-18T07:50:10Z</time></trkpt><trkpt lat="39.54637411043251" lon="9.215218683714212"><ele>594.0</ele><time>2026-04-18T07:50:11Z</time></trkpt><trkpt lat="39.546198189992005" lon="9.215261654658141"><ele>591.0</ele><time>2026-04-18T07:50:12Z</time></trkpt><trkpt lat="39.546022600369874" lon="9.215302364681673"><ele>588.0</ele><time>2026-04-18T07:50:13Z</time></trkpt><trkpt lat="39.54584799944138" lon="9.215333348540051"><ele>585.0</ele><time>2026-04-18T07:50:14Z</time></trkpt><trkpt lat="39.54566726032907" lon="9.215342819720089"><ele>585.0</ele><time>2026-04-18T07:50:15Z</time></trkpt><trkpt lat="39.54547703761006" lon="9.215343307493429"><ele>585.0</ele><time>2026-04-18T07:50:16Z</time></trkpt><trkpt lat="39.5452807869727" lon="9.215343873782258"><ele>585.0</ele><time>2026-04-18T07:50:17Z</time></trkpt><trkpt lat="39.54508051717508" lon="9.215345630252578"><ele>583.6666666666666</ele><time>2026-04-18T07:50:18Z</time></trkpt><trkpt lat="39.544879432647555" lon="9.215348938767145"><ele>582.3333333333333</ele><time>2026-04-18T07:50:19Z</time></trkpt><trkpt lat="39.54468218340639" lon="9.21535600148344"><ele>581.0</ele><time>2026-04-18T07:50:20Z</time></trkpt><trkpt lat="39.544489088133346" lon="9.215365645978697"><ele>579.0</ele><time>2026-04-18T07:50:21Z</time></trkpt><trkpt lat="39.54429984097911" lon="9.215379390546039"><ele>577.0</ele><time>2026-04-18T07:50:22Z</time></trkpt><trkpt lat="39.54411372042245" lon="9.215398048176892"><ele>575.0</ele><time>2026-04-18T07:50:23Z</time></trkpt><trkpt lat="39.543932467109315" lon="9.215418271377237"><ele>575.0</ele><time>2026-04-18T07:50:24Z</time></trkpt><trkpt lat="39.54375307455414" lon="9.215435424901736"><ele>575.0</ele><time>2026-04-18T07:50:25Z</time></trkpt><trkpt lat="39.54357923177056" lon="9.215448004116938"><ele>575.0</ele><time>2026-04-18T07:50:26Z</time></trkpt><trkpt lat="39.54340575352041" lon="9.215452488950378"><ele>572.0</ele><time>2026-04-18T07:50:27Z</time></trkpt><trkpt lat="39.54323490839185" lon="9.215443614780732"><ele>569.0</ele><time>2026-04-18T07:50:28Z</time></trkpt><trkpt lat="39.5430765139373" lon="9.215427784126557"><ele>566.0</ele><time>2026-04-18T07:50:29Z</time></trkpt><trkpt lat="39.54293850594853" lon="9.215389041864862"><ele>562.75</ele><time>2026-04-18T07:50:30Z</time></trkpt><trkpt lat="39.5428217624851" lon="9.21530086492934"><ele>559.5</ele><time>2026-04-18T07:50:31Z</time></trkpt><trkpt lat="39.542735543115754" lon="9.21515104010805"><ele>556.25</ele><time>2026-04-18T07:50:32Z</time></trkpt><trkpt lat="39.54268035304529" lon="9.214974218560725"><ele>553.0</ele><time>2026-04-18T07:50:33Z</time></trkpt><trkpt lat="39.54262564642224" lon="9.214773861112253"><ele>552.3333333333334</ele><time>2026-04-18T07:50:34Z</time></trkpt><trkpt lat="39.542558957509904" lon="9.214566780610358"><ele>551.6666666666666</ele><time>2026-04-18T07:50:35Z</time></trkpt><trkpt lat="39.542495811521725" lon="9.214347720403227"><ele>551.0</ele><time>2026-04-18T07:50:36Z</time></trkpt><trkpt lat="39.54244532761433" lon="9.214122969095401"><ele>551.6666666666666</ele><time>2026-04-18T07:50:37Z</time></trkpt><trkpt lat="39.54238391250767" lon="9.21390034951532"><ele>552.3333333333334</ele><time>2026-04-18T07:50:38Z</time></trkpt><trkpt lat="39.542308762230576" lon="9.213684923485634"><ele>553.0</ele><time>2026-04-18T07:50:39Z</time></trkpt><trkpt lat="39.54225934284763" lon="9.213470234936622"><ele>553.0</ele><time>2026-04-18T07:50:40Z</time></trkpt><trkpt lat="39.54222728726747" lon="9.213263100831394"><ele>553.0</ele><time>2026-04-18T07:50:41Z</time></trkpt><trkpt lat="39.54225089331078" lon="9.213053862036972"><ele>553.0</ele><time>2026-04-18T07:50:42Z</time></trkpt><trkpt lat="39.542280645125004" lon="9.212849636898387"><ele>549.6666666666667</ele><time>2026-04-18T07:50:43Z</time></trkpt><trkpt lat="39.542344556485524" lon="9.212666120741197"><ele>546.3333333333334</ele><time>2026-04-18T07:50:44Z</time></trkpt><trkpt lat="39.542442741101056" lon="9.212494576224438"><ele>543.0</ele><time>2026-04-18T07:50:45Z</time></trkpt><trkpt lat="39.542543841458155" lon="9.212302267213298"><ele>538.0</ele><time>2026-04-18T07:50:46Z</time></trkpt><trkpt lat="39.54265051785244" lon="9.212127395614013"><ele>533.0</ele><time>2026-04-18T07:50:47Z</time></trkpt><trkpt lat="39.54274214462753" lon="9.211959951765325"><ele>528.0</ele><time>2026-04-18T07:50:48Z</time></trkpt><trkpt lat="39.54280664522397" lon="9.211791209313134"><ele>528.0</ele><time>2026-04-18T07:50:49Z</time></trkpt><trkpt lat="39.5428275089664" lon="9.211608616355752"><ele>528.0</ele><time>2026-04-18T07:50:50Z</time></trkpt><trkpt lat="39.542780663038876" lon="9.211430819151815"><ele>528.0</ele><time>2026-04-18T07:50:51Z</time></trkpt><trkpt lat="39.54269139072152" lon="9.211272557946321"><ele>528.0</ele><time>2026-04-18T07:50:52Z</time></trkpt><trkpt lat="39.54259366896045" lon="9.211126635626226"><ele>527.5</ele><time>2026-04-18T07:50:53Z</time></trkpt><trkpt lat="39.542564773656835" lon="9.21094971897126"><ele>527.0</ele><time>2026-04-18T07:50:54Z</time></trkpt><trkpt lat="39.54257170929326" lon="9.210766177275733"><ele>526.5</ele><time>2026-04-18T07:50:55Z</time></trkpt><trkpt lat="39.5425630084046" lon="9.210573103853054"><ele>526.0</ele><time>2026-04-18T07:50:56Z</time></trkpt><trkpt lat="39.54255830890298" lon="9.21040446344141"><ele>527.5</ele><time>2026-04-18T07:50:57Z</time></trkpt><trkpt lat="39.54249387409756" lon="9.210265211493821"><ele>529.0</ele><time>2026-04-18T07:50:58Z</time></trkpt><trkpt lat="39.54236158273188" lon="9.210177925177833"><ele>530.5</ele><time>2026-04-18T07:50:59Z</time></trkpt><trkpt lat="39.54222743173201" lon="9.210082677645678"><ele>532.0</ele><time>2026-04-18T07:51:00Z</time></trkpt><trkpt lat="39.54210037147643" lon="9.209966720443225"><ele>527.6666666666667</ele><time>2026-04-18T07:51:01Z</time></trkpt><trkpt lat="39.54196580093844" lon="9.209843943657194"><ele>523.3333333333334</ele><time>2026-04-18T07:51:02Z</time></trkpt><trkpt lat="39.54183071196548" lon="9.209724785506092"><ele>519.0</ele><time>2026-04-18T07:51:03Z</time></trkpt><trkpt lat="39.54170676312157" lon="9.209607045331207"><ele>519.0</ele><time>2026-04-18T07:51:04Z</time></trkpt><trkpt lat="39.541596257245125" lon="9.209465254915642"><ele>519.0</ele><time>2026-04-18T07:51:05Z</time></trkpt><trkpt lat="39.54150608075524" lon="9.209291684109505"><ele>519.0</ele><time>2026-04-18T07:51:06Z</time></trkpt><trkpt lat="39.54144624740462" lon="9.2090909355228"><ele>519.3333333333334</ele><time>2026-04-18T07:51:07Z</time></trkpt><trkpt lat="39.541360924711995" lon="9.208907994862875"><ele>519.6666666666667</ele><time>2026-04-18T07:51:08Z</time></trkpt><trkpt lat="39.54131168917019" lon="9.208706230918308"><ele>520.0</ele><time>2026-04-18T07:51:09Z</time></trkpt><trkpt lat="39.541296475572075" lon="9.208492753221483"><ele>520.0</ele><time>2026-04-18T07:51:10Z</time></trkpt><trkpt lat="39.54130974047231" lon="9.208268181614931"><ele>520.0</ele><time>2026-04-18T07:51:11Z</time></trkpt><trkpt lat="39.541324359119734" lon="9.208042686375345"><ele>520.0</ele><time>2026-04-18T07:51:12Z</time></trkpt><trkpt lat="39.541334724977034" lon="9.207820143820014"><ele>516.6666666666667</ele><time>2026-04-18T07:51:13Z</time></trkpt><trkpt lat="39.541360147577606" lon="9.20760806992677"><ele>513.3333333333334</ele><time>2026-04-18T07:51:14Z</time></trkpt><trkpt lat="39.541423019176165" lon="9.207416139642358"><ele>510.0</ele><time>2026-04-18T07:51:15Z</time></trkpt><trkpt lat="39.5415118019275" lon="9.20723104100658"><ele>505.33333333333337</ele><time>2026-04-18T07:51:16Z</time></trkpt><trkpt lat="39.54159727948612" lon="9.207034158275372"><ele>500.6666666666667</ele><time>2026-04-18T07:51:17Z</time></trkpt><trkpt lat="39.54168307272384" lon="9.206830253795303"><ele>496.0</ele><time>2026-04-18T07:51:18Z</time></trkpt><trkpt lat="39.5417725564514" lon="9.206622775751269"><ele>488.6666666666667</ele><time>2026-04-18T07:51:19Z</time></trkpt><trkpt lat="39.54186448974856" lon="9.206417607937055"><ele>481.33333333333337</ele><time>2026-04-18T07:51:20Z</time></trkpt><trkpt lat="39.54195533655078" lon="9.206213425499714"><ele>474.0</ele><time>2026-04-18T07:51:21Z</time></trkpt><trkpt lat="39.542039182185405" lon="9.206019905326125"><ele>475.0</ele><time>2026-04-18T07:51:22Z</time></trkpt><trkpt lat="39.54213245128973" lon="9.205841656529012"><ele>476.0</ele><time>2026-04-18T07:51:23Z</time></trkpt><trkpt lat="39.542250834360715" lon="9.2056866845759"><ele>477.0</ele><time>2026-04-18T07:51:24Z</time></trkpt><trkpt lat="39.5423908866278" lon="9.205544141992918"><ele>477.0</ele><time>2026-04-18T07:51:25Z</time></trkpt><trkpt lat="39.54253600694364" lon="9.205411463765463"><ele>477.0</ele><time>2026-04-18T07:51:26Z</time></trkpt><trkpt lat="39.54267200877566" lon="9.205268435838734"><ele>477.0</ele><time>2026-04-18T07:51:27Z</time></trkpt><trkpt lat="39.54278818090522" lon="9.205096148551803"><ele>477.0</ele><time>2026-04-18T07:51:28Z</time></trkpt><trkpt lat="39.54287266181864" lon="9.20489095763845"><ele>477.0</ele><time>2026-04-18T07:51:29Z</time></trkpt><trkpt lat="39.542945363051956" lon="9.204663033314677"><ele>477.0</ele><time>2026-04-18T07:51:30Z</time></trkpt><trkpt lat="39.5430234247809" lon="9.204442560663706"><ele>479.0</ele><time>2026-04-18T07:51:31Z</time></trkpt><trkpt lat="39.54310570507134" lon="9.204228919757737"><ele>481.0</ele><time>2026-04-18T07:51:32Z</time></trkpt><trkpt lat="39.543179580105566" lon="9.204027069316469"><ele>483.0</ele><time>2026-04-18T07:51:33Z</time></trkpt><trkpt lat="39.54324491839938" lon="9.203846157227334"><ele>483.0</ele><time>2026-04-18T07:51:34Z</time></trkpt><trkpt lat="39.543286927693714" lon="9.203683100138159"><ele>483.0</ele><time>2026-04-18T07:51:35Z</time></trkpt><trkpt lat="39.543284743289554" lon="9.203530444715572"><ele>483.0</ele><time>2026-04-18T07:51:36Z</time></trkpt><trkpt lat="39.543239537231486" lon="9.203385551285574"><ele>483.0</ele><time>2026-04-18T07:51:37Z</time></trkpt><trkpt lat="39.54315372730315" lon="9.203257583210085"><ele>480.25</ele><time>2026-04-18T07:51:38Z</time></trkpt><trkpt lat="39.54304328396553" lon="9.203161185933451"><ele>477.5</ele><time>2026-04-18T07:51:39Z</time></trkpt><trkpt lat="39.5429131927873" lon="9.203128744283683"><ele>474.75</ele><time>2026-04-18T07:51:40Z</time></trkpt><trkpt lat="39.54276635233529" lon="9.203147425840866"><ele>472.0</ele><time>2026-04-18T07:51:41Z</time></trkpt><trkpt lat="39.542612876308944" lon="9.203166083598642"><ele>472.0</ele><time>2026-04-18T07:51:42Z</time></trkpt><trkpt lat="39.54244854512898" lon="9.203187497770267"><ele>472.0</ele><time>2026-04-18T07:51:43Z</time></trkpt><trkpt lat="39.5422764804935" lon="9.203232653700717"><ele>472.0</ele><time>2026-04-18T07:51:44Z</time></trkpt><trkpt lat="39.542098014429996" lon="9.20330715367235"><ele>475.0</ele><time>2026-04-18T07:51:45Z</time></trkpt><trkpt lat="39.541921632337164" lon="9.203414867108535"><ele>478.0</ele><time>2026-04-18T07:51:46Z</time></trkpt><trkpt lat="39.5417575073935" lon="9.20354420994167"><ele>481.0</ele><time>2026-04-18T07:51:47Z</time></trkpt><trkpt lat="39.54159731061143" lon="9.203660146221202"><ele>481.0</ele><time>2026-04-18T07:51:48Z</time></trkpt><trkpt lat="39.541450340056095" lon="9.203799250229801"><ele>481.0</ele><time>2026-04-18T07:51:49Z</time></trkpt><trkpt lat="39.54128894791747" lon="9.203878730206426"><ele>481.0</ele><time>2026-04-18T07:51:50Z</time></trkpt><trkpt lat="39.54111167968186" lon="9.203923961624445"><ele>484.0</ele><time>2026-04-18T07:51:51Z</time></trkpt><trkpt lat="39.540925250738624" lon="9.203968198781102"><ele>487.0</ele><time>2026-04-18T07:51:52Z</time></trkpt><trkpt lat="39.54073646751515" lon="9.204037121824703"><ele>490.0</ele><time>2026-04-18T07:51:53Z</time></trkpt><trkpt lat="39.540545969812904" lon="9.204118564312228"><ele>480.6666666666667</ele><time>2026-04-18T07:51:54Z</time></trkpt><trkpt lat="39.540384426635114" lon="9.204195459690704"><ele>471.33333333333337</ele><time>2026-04-18T07:51:55Z</time></trkpt><trkpt lat="39.540202410835775" lon="9.204288534761673"><ele>462.0</ele><time>2026-04-18T07:51:56Z</time></trkpt><trkpt lat="39.5400277643613" lon="9.20439429001977"><ele>462.0</ele><time>2026-04-18T07:51:57Z</time></trkpt><trkpt lat="39.5398561933592" lon="9.20448025756558"><ele>462.0</ele><time>2026-04-18T07:51:58Z</time></trkpt><trkpt lat="39.53970145393743" lon="9.204560688670735"><ele>462.0</ele><time>2026-04-18T07:51:59Z</time></trkpt><trkpt lat="39.539558957449806" lon="9.20463807617761"><ele>457.0</ele><time>2026-04-18T07:52:00Z</time></trkpt><trkpt lat="39.5394290749906" lon="9.20470040576524"><ele>452.0</ele><time>2026-04-18T07:52:01Z</time></trkpt><trkpt lat="39.539309185153705" lon="9.204706081725213"><ele>447.0</ele><time>2026-04-18T07:52:02Z</time></trkpt><trkpt lat="39.53920614492035" lon="9.204671577731482"><ele>442.0</ele><time>2026-04-18T07:52:03Z</time></trkpt><trkpt lat="39.53912627984883" lon="9.204589538249623"><ele>442.0</ele><time>2026-04-18T07:52:04Z</time></trkpt><trkpt lat="39.53907963816196" lon="9.204472275765333"><ele>442.0</ele><time>2026-04-18T07:52:05Z</time></trkpt><trkpt lat="39.53906539884558" lon="9.204339544177708"><ele>442.0</ele><time>2026-04-18T07:52:06Z</time></trkpt><trkpt lat="39.539055390703886" lon="9.204176549159262"><ele>442.0</ele><time>2026-04-18T07:52:07Z</time></trkpt><trkpt lat="39.539042255350694" lon="9.203988968800097"><ele>441.75</ele><time>2026-04-18T07:52:08Z</time></trkpt><trkpt lat="39.53902795168478" lon="9.203819908219774"><ele>441.5</ele><time>2026-04-18T07:52:09Z</time></trkpt><trkpt lat="39.5390048964857" lon="9.203646478995603"><ele>441.25</ele><time>2026-04-18T07:52:10Z</time></trkpt><trkpt lat="39.53899261886933" lon="9.203469824512744"><ele>441.0</ele><time>2026-04-18T07:52:11Z</time></trkpt><trkpt lat="39.53897351621708" lon="9.203294825709584"><ele>443.25</ele><time>2026-04-18T07:52:12Z</time></trkpt><trkpt lat="39.53893914824993" lon="9.203125257316984"><ele>445.5</ele><time>2026-04-18T07:52:13Z</time></trkpt><trkpt lat="39.538889599735484" lon="9.20296093255464"><ele>447.75</ele><time>2026-04-18T07:52:14Z</time></trkpt><trkpt lat="39.538820235555924" lon="9.20280956834884"><ele>450.0</ele><time>2026-04-18T07:52:15Z</time></trkpt><trkpt lat="39.53875124664974" lon="9.202664786489748"><ele>444.5</ele><time>2026-04-18T07:52:16Z</time></trkpt><trkpt lat="39.538680788542266" lon="9.202520809844826"><ele>439.0</ele><time>2026-04-18T07:52:17Z</time></trkpt><trkpt lat="39.53861404700256" lon="9.202378513390613"><ele>433.5</ele><time>2026-04-18T07:52:18Z</time></trkpt><trkpt lat="39.538552390036266" lon="9.202238124122049"><ele>428.0</ele><time>2026-04-18T07:52:19Z</time></trkpt><trkpt lat="39.53849219899517" lon="9.20209737725137"><ele>428.0</ele><time>2026-04-18T07:52:20Z</time></trkpt><trkpt lat="39.53843003085226" lon="9.201959119029098"><ele>428.0</ele><time>2026-04-18T07:52:21Z</time></trkpt><trkpt lat="39.53836383031376" lon="9.201822752646965"><ele>428.0</ele><time>2026-04-18T07:52:22Z</time></trkpt><trkpt lat="39.53830340403851" lon="9.201683552703189"><ele>428.0</ele><time>2026-04-18T07:52:23Z</time></trkpt><trkpt lat="39.538261180952034" lon="9.20153536623707"><ele>427.75</ele><time>2026-04-18T07:52:24Z</time></trkpt><trkpt lat="39.53823544992658" lon="9.201378813479852"><ele>427.5</ele><time>2026-04-18T07:52:25Z</time></trkpt><trkpt lat="39.53821391844407" lon="9.201222247596068"><ele>427.25</ele><time>2026-04-18T07:52:26Z</time></trkpt><trkpt lat="39.538194246999986" lon="9.201065075374746"><ele>427.0</ele><time>2026-04-18T07:52:27Z</time></trkpt><trkpt lat="39.53816898813357" lon="9.20091034572851"><ele>427.0</ele><time>2026-04-18T07:52:28Z</time></trkpt><trkpt lat="39.53813935576876" lon="9.20075822797788"><ele>427.0</ele><time>2026-04-18T07:52:29Z</time></trkpt><trkpt lat="39.53810867097569" lon="9.200610046670207"><ele>427.0</ele><time>2026-04-18T07:52:30Z</time></trkpt><trkpt lat="39.538077805090005" lon="9.200466285667517"><ele>427.0</ele><time>2026-04-18T07:52:31Z</time></trkpt><trkpt lat="39.53804432959811" lon="9.200332061960582"><ele>426.6</ele><time>2026-04-18T07:52:32Z</time></trkpt><trkpt lat="39.53799919727281" lon="9.200211593122797"><ele>426.20000000000005</ele><time>2026-04-18T07:52:33Z</time></trkpt><trkpt lat="39.53794061456774" lon="9.200105624288211"><ele>425.8</ele><time>2026-04-18T07:52:34Z</time></trkpt><trkpt lat="39.537886305634046" lon="9.199996126830346"><ele>425.4</ele><time>2026-04-18T07:52:35Z</time></trkpt><trkpt lat="39.53784994241678" lon="9.199876777115174"><ele>425.0</ele><time>2026-04-18T07:52:36Z</time></trkpt><trkpt lat="39.537820968268775" lon="9.199752954305016"><ele>422.8</ele><time>2026-04-18T07:52:37Z</time></trkpt><trkpt lat="39.53778862107502" lon="9.19963085056262"><ele>420.6</ele><time>2026-04-18T07:52:38Z</time></trkpt><trkpt lat="39.53775951022088" lon="9.199510174154033"><ele>418.4</ele><time>2026-04-18T07:52:39Z</time></trkpt><trkpt lat="39.53774013643219" lon="9.199389426778023"><ele>416.2</ele><time>2026-04-18T07:52:40Z</time></trkpt><trkpt lat="39.53773119878035" lon="9.199265025378145"><ele>414.0</ele><time>2026-04-18T07:52:41Z</time></trkpt><trkpt lat="39.53773128922334" lon="9.199140144939149"><ele>414.0</ele><time>2026-04-18T07:52:42Z</time></trkpt><trkpt lat="39.53775389232297" lon="9.199016667099821"><ele>414.0</ele><time>2026-04-18T07:52:43Z</time></trkpt><trkpt lat="39.537821118420894" lon="9.19890457119133"><ele>414.0</ele><time>2026-04-18T07:52:44Z</time></trkpt><trkpt lat="39.53786128246405" lon="9.198788061928433"><ele>414.0</ele><time>2026-04-18T07:52:45Z</time></trkpt><trkpt lat="39.5379139128979" lon="9.19868945442606"><ele>414.0</ele><time>2026-04-18T07:52:46Z</time></trkpt><trkpt lat="39.537958399497825" lon="9.198584247945051"><ele>413.6666666666667</ele><time>2026-04-18T07:52:47Z</time></trkpt><trkpt lat="39.537998876058964" lon="9.198475262487408"><ele>413.33333333333337</ele><time>2026-04-18T07:52:48Z</time></trkpt><trkpt lat="39.53804010044036" lon="9.198367265239595"><ele>413.0</ele><time>2026-04-18T07:52:49Z</time></trkpt><trkpt lat="39.53807821037862" lon="9.198261466232918"><ele>412.6666666666667</ele><time>2026-04-18T07:52:50Z</time></trkpt><trkpt lat="39.538111235949216" lon="9.19816968504019"><ele>412.33333333333337</ele><time>2026-04-18T07:52:51Z</time></trkpt><trkpt lat="39.53813170303301" lon="9.198075329933339"><ele>412.0</ele><time>2026-04-18T07:52:52Z</time></trkpt><trkpt lat="39.53813627044865" lon="9.197985654354317"><ele>411.33333333333337</ele><time>2026-04-18T07:52:53Z</time></trkpt><trkpt lat="39.53813860245728" lon="9.197848612311848"><ele>410.6666666666667</ele><time>2026-04-18T07:52:55Z</time></trkpt><trkpt lat="39.538184687240935" lon="9.197721525335876"><ele>410.0</ele><time>2026-04-18T07:52:57Z</time></trkpt><trkpt lat="39.538227395877584" lon="9.19766056784553"><ele>409.33333333333337</ele><time>2026-04-18T07:52:58Z</time></trkpt><trkpt lat="39.53827638285693" lon="9.19760381345525"><ele>408.6666666666667</ele><time>2026-04-18T07:52:59Z</time></trkpt><trkpt lat="39.538330550155955" lon="9.197549809854037"><ele>408.0</ele><time>2026-04-18T07:53:00Z</time></trkpt><trkpt lat="39.538394360443625" lon="9.197510063714306"><ele>408.0</ele><time>2026-04-18T07:53:01Z</time></trkpt><trkpt lat="39.538466836036974" lon="9.197480672256319"><ele>408.0</ele><time>2026-04-18T07:53:02Z</time></trkpt><trkpt lat="39.538539957184256" lon="9.197447242164003"><ele>408.0</ele><time>2026-04-18T07:53:03Z</time></trkpt><trkpt lat="39.5386118099761" lon="9.197395260074504"><ele>408.0</ele><time>2026-04-18T07:53:04Z</time></trkpt><trkpt lat="39.5386786528192" lon="9.197322612521196"><ele>408.0</ele><time>2026-04-18T07:53:05Z</time></trkpt><trkpt lat="39.53874283923963" lon="9.197241128212015"><ele>408.0</ele><time>2026-04-18T07:53:06Z</time></trkpt><trkpt lat="39.538806706626" lon="9.197154115300524"><ele>407.59999999999997</ele><time>2026-04-18T07:53:07Z</time></trkpt><trkpt lat="39.538869111349506" lon="9.197080651877826"><ele>407.2</ele><time>2026-04-18T07:53:08Z</time></trkpt><trkpt lat="39.538944042603426" lon="9.196991718290155"><ele>406.8</ele><time>2026-04-18T07:53:09Z</time></trkpt><trkpt lat="39.53901578791059" lon="9.196905867107874"><ele>406.4</ele><time>2026-04-18T07:53:10Z</time></trkpt><trkpt lat="39.539091142579466" lon="9.196823646744164"><ele>406.0</ele><time>2026-04-18T07:53:11Z</time></trkpt><trkpt lat="39.5391668017795" lon="9.19673522999613"><ele>406.0</ele><time>2026-04-18T07:53:12Z</time></trkpt><trkpt lat="39.53924732578278" lon="9.196658014422857"><ele>406.0</ele><time>2026-04-18T07:53:13Z</time></trkpt><trkpt lat="39.539327745602364" lon="9.19657722417042"><ele>406.0</ele><time>2026-04-18T07:53:14Z</time></trkpt><trkpt lat="39.53940921490554" lon="9.196501937920578"><ele>406.0</ele><time>2026-04-18T07:53:15Z</time></trkpt><trkpt lat="39.53949644417528" lon="9.196428330614633"><ele>406.0</ele><time>2026-04-18T07:53:16Z</time></trkpt><trkpt lat="39.53957812114318" lon="9.196344284230479"><ele>404.8</ele><time>2026-04-18T07:53:17Z</time></trkpt><trkpt lat="39.539662286425944" lon="9.196271641237614"><ele>403.6</ele><time>2026-04-18T07:53:18Z</time></trkpt><trkpt lat="39.53974328424062" lon="9.196196994581681"><ele>402.4</ele><time>2026-04-18T07:53:19Z</time></trkpt><trkpt lat="39.53981678041573" lon="9.196108900195712"><ele>401.2</ele><time>2026-04-18T07:53:20Z</time></trkpt><trkpt lat="39.539890347149054" lon="9.196022926461303"><ele>400.0</ele><time>2026-04-18T07:53:21Z</time></trkpt><trkpt lat="39.53997028426264" lon="9.195919342559552"><ele>400.0</ele><time>2026-04-18T07:53:22Z</time></trkpt><trkpt lat="39.5400580019561" lon="9.195814918447281"><ele>400.0</ele><time>2026-04-18T07:53:23Z</time></trkpt><trkpt lat="39.54014441929949" lon="9.195706624905187"><ele>400.0</ele><time>2026-04-18T07:53:24Z</time></trkpt><trkpt lat="39.54023680854805" lon="9.195598037019261"><ele>400.0</ele><time>2026-04-18T07:53:25Z</time></trkpt><trkpt lat="39.540324867998265" lon="9.195478122982887"><ele>399.0</ele><time>2026-04-18T07:53:26Z</time></trkpt><trkpt lat="39.54042232104055" lon="9.195361353626701"><ele>398.0</ele><time>2026-04-18T07:53:27Z</time></trkpt><trkpt lat="39.54052454537979" lon="9.195250787420562"><ele>397.0</ele><time>2026-04-18T07:53:28Z</time></trkpt><trkpt lat="39.54063346897234" lon="9.195154185826492"><ele>396.0</ele><time>2026-04-18T07:53:29Z</time></trkpt><trkpt lat="39.54074208037866" lon="9.195076319615248"><ele>396.0</ele><time>2026-04-18T07:53:30Z</time></trkpt><trkpt lat="39.54084296340091" lon="9.19503283449317"><ele>396.0</ele><time>2026-04-18T07:53:31Z</time></trkpt><trkpt lat="39.54092894920942" lon="9.19502183562719"><ele>396.0</ele><time>2026-04-18T07:53:32Z</time></trkpt><trkpt lat="39.54100301079089" lon="9.195040033844073"><ele>396.0</ele><time>2026-04-18T07:53:33Z</time></trkpt><trkpt lat="39.54106686075017" lon="9.195018986426145"><ele>396.0</ele><time>2026-04-18T07:53:34Z</time></trkpt><trkpt lat="39.54115488038712" lon="9.19498820278127"><ele>396.0</ele><time>2026-04-18T07:53:35Z</time></trkpt><trkpt lat="39.54124374377183" lon="9.194900340660936"><ele>393.5</ele><time>2026-04-18T07:53:36Z</time></trkpt><trkpt lat="39.541355246851595" lon="9.194824174396539"><ele>391.0</ele><time>2026-04-18T07:53:37Z</time></trkpt><trkpt lat="39.54147761492978" lon="9.194756245888446"><ele>388.5</ele><time>2026-04-18T07:53:38Z</time></trkpt><trkpt lat="39.541603873956994" lon="9.194694891343495"><ele>386.0</ele><time>2026-04-18T07:53:39Z</time></trkpt><trkpt lat="39.54172574220752" lon="9.194604217379213"><ele>386.0</ele><time>2026-04-18T07:53:40Z</time></trkpt><trkpt lat="39.541853527361894" lon="9.194508223670125"><ele>386.0</ele><time>2026-04-18T07:53:41Z</time></trkpt><trkpt lat="39.54198033601966" lon="9.194414110645017"><ele>386.0</ele><time>2026-04-18T07:53:42Z</time></trkpt><trkpt lat="39.54211068706533" lon="9.194319980421547"><ele>386.0</ele><time>2026-04-18T07:53:43Z</time></trkpt><trkpt lat="39.54223698927856" lon="9.194220047788251"><ele>386.75</ele><time>2026-04-18T07:53:44Z</time></trkpt><trkpt lat="39.54234912380183" lon="9.19410207242033"><ele>387.5</ele><time>2026-04-18T07:53:45Z</time></trkpt><trkpt lat="39.54243252882122" lon="9.193946046154847"><ele>388.25</ele><time>2026-04-18T07:53:46Z</time></trkpt><trkpt lat="39.54247501640933" lon="9.193753079873513"><ele>389.0</ele><time>2026-04-18T07:53:47Z</time></trkpt><trkpt lat="39.54248988628781" lon="9.193545802583476"><ele>389.0</ele><time>2026-04-18T07:53:48Z</time></trkpt><trkpt lat="39.54250581816668" lon="9.19334355826274"><ele>389.0</ele><time>2026-04-18T07:53:49Z</time></trkpt><trkpt lat="39.542529552416156" lon="9.193154963474315"><ele>389.0</ele><time>2026-04-18T07:53:50Z</time></trkpt><trkpt lat="39.54253712510785" lon="9.192978194063105"><ele>389.0</ele><time>2026-04-18T07:53:51Z</time></trkpt><trkpt lat="39.542501306814486" lon="9.192821003483418"><ele>389.0</ele><time>2026-04-18T07:53:52Z</time></trkpt><trkpt lat="39.54241495328202" lon="9.192703700644348"><ele>389.0</ele><time>2026-04-18T07:53:53Z</time></trkpt><trkpt lat="39.542305987466484" lon="9.192613682599523"><ele>389.0</ele><time>2026-04-18T07:53:54Z</time></trkpt><trkpt lat="39.54220229991855" lon="9.192516742876988"><ele>389.0</ele><time>2026-04-18T07:53:55Z</time></trkpt><trkpt lat="39.54212607975779" lon="9.192399250150478"><ele>388.2</ele><time>2026-04-18T07:53:56Z</time></trkpt><trkpt lat="39.54210196209824" lon="9.192279201392301"><ele>387.4</ele><time>2026-04-18T07:53:57Z</time></trkpt><trkpt lat="39.54213639026113" lon="9.192182092106465"><ele>386.6</ele><time>2026-04-18T07:53:58Z</time></trkpt><trkpt lat="39.54221526434663" lon="9.192108076147667"><ele>385.8</ele><time>2026-04-18T07:53:59Z</time></trkpt><trkpt lat="39.542328026257195" lon="9.192111828230907"><ele>385.0</ele><time>2026-04-18T07:54:00Z</time></trkpt><trkpt lat="39.54244674624187" lon="9.192077465133973"><ele>385.0</ele><time>2026-04-18T07:54:01Z</time></trkpt><trkpt lat="39.54257411669642" lon="9.192053142594004"><ele>385.0</ele><time>2026-04-18T07:54:02Z</time></trkpt><trkpt lat="39.54270096408793" lon="9.19201280517268"><ele>385.0</ele><time>2026-04-18T07:54:03Z</time></trkpt><trkpt lat="39.542834271981995" lon="9.191975552294204"><ele>385.0</ele><time>2026-04-18T07:54:04Z</time></trkpt><trkpt lat="39.54295978529912" lon="9.191943547001623"><ele>387.8</ele><time>2026-04-18T07:54:05Z</time></trkpt><trkpt lat="39.543061511260255" lon="9.191898099268014"><ele>390.6</ele><time>2026-04-18T07:54:06Z</time></trkpt><trkpt lat="39.54313121196423" lon="9.191806154858128"><ele>393.4</ele><time>2026-04-18T07:54:07Z</time></trkpt><trkpt lat="39.54315168670613" lon="9.19166873303758"><ele>396.2</ele><time>2026-04-18T07:54:08Z</time></trkpt><trkpt lat="39.5431239697888" lon="9.191518184347922"><ele>399.0</ele><time>2026-04-18T07:54:09Z</time></trkpt><trkpt lat="39.54305059474749" lon="9.191381340778422"><ele>399.25</ele><time>2026-04-18T07:54:10Z</time></trkpt><trkpt lat="39.542957542446565" lon="9.191259772142828"><ele>399.5</ele><time>2026-04-18T07:54:11Z</time></trkpt><trkpt lat="39.54285636562304" lon="9.19113963526889"><ele>399.75</ele><time>2026-04-18T07:54:12Z</time></trkpt><trkpt lat="39.542752070112705" lon="9.191013598039047"><ele>400.0</ele><time>2026-04-18T07:54:13Z</time></trkpt><trkpt lat="39.542651532953265" lon="9.190891210349525"><ele>396.5</ele><time>2026-04-18T07:54:14Z</time></trkpt><trkpt lat="39.542565608546184" lon="9.190776649430504"><ele>393.0</ele><time>2026-04-18T07:54:15Z</time></trkpt><trkpt lat="39.54252853229252" lon="9.190635191680206"><ele>389.5</ele><time>2026-04-18T07:54:16Z</time></trkpt><trkpt lat="39.54251617699479" lon="9.190482315340562"><ele>386.0</ele><time>2026-04-18T07:54:17Z</time></trkpt><trkpt lat="39.542532702118706" lon="9.19030998553477"><ele>386.0</ele><time>2026-04-18T07:54:18Z</time></trkpt><trkpt lat="39.54253575099507" lon="9.190112608671653"><ele>386.0</ele><time>2026-04-18T07:54:19Z</time></trkpt><trkpt lat="39.542552777958925" lon="9.189907131344855"><ele>386.0</ele><time>2026-04-18T07:54:20Z</time></trkpt><trkpt lat="39.542566123410765" lon="9.189701795424723"><ele>384.3333333333333</ele><time>2026-04-18T07:54:21Z</time></trkpt><trkpt lat="39.54258124349975" lon="9.189491242359262"><ele>382.66666666666663</ele><time>2026-04-18T07:54:22Z</time></trkpt><trkpt lat="39.54259985280485" lon="9.189277874326677"><ele>381.0</ele><time>2026-04-18T07:54:23Z</time></trkpt><trkpt lat="39.54261693027689" lon="9.189055368399371"><ele>380.3333333333333</ele><time>2026-04-18T07:54:24Z</time></trkpt><trkpt lat="39.542631552050764" lon="9.188829041428479"><ele>379.66666666666663</ele><time>2026-04-18T07:54:25Z</time></trkpt><trkpt lat="39.54264829384919" lon="9.1886006123827"><ele>379.0</ele><time>2026-04-18T07:54:26Z</time></trkpt><trkpt lat="39.542666976203016" lon="9.18836307308757"><ele>378.3333333333333</ele><time>2026-04-18T07:54:27Z</time></trkpt><trkpt lat="39.5426826864168" lon="9.188122564220953"><ele>377.6666666666667</ele><time>2026-04-18T07:54:28Z</time></trkpt><trkpt lat="39.54269839467013" lon="9.187870936656099"><ele>377.0</ele><time>2026-04-18T07:54:29Z</time></trkpt><trkpt lat="39.54271682406143" lon="9.187616583676109"><ele>377.0</ele><time>2026-04-18T07:54:30Z</time></trkpt><trkpt lat="39.54273742758779" lon="9.187361297845879"><ele>377.0</ele><time>2026-04-18T07:54:31Z</time></trkpt><trkpt lat="39.5427580735516" lon="9.187113951505522"><ele>377.0</ele><time>2026-04-18T07:54:32Z</time></trkpt><trkpt lat="39.54277422593696" lon="9.186868242999754"><ele>376.0</ele><time>2026-04-18T07:54:33Z</time></trkpt><trkpt lat="39.542782389075924" lon="9.186627659196125"><ele>375.0</ele><time>2026-04-18T07:54:34Z</time></trkpt><trkpt lat="39.542769556754024" lon="9.186387414303303"><ele>374.0</ele><time>2026-04-18T07:54:35Z</time></trkpt><trkpt lat="39.54275094493158" lon="9.186150195242716"><ele>372.6666666666667</ele><time>2026-04-18T07:54:36Z</time></trkpt><trkpt lat="39.54270577511477" lon="9.185920616750098"><ele>371.3333333333333</ele><time>2026-04-18T07:54:37Z</time></trkpt><trkpt lat="39.54263827483849" lon="9.185663309087328"><ele>370.0</ele><time>2026-04-18T07:54:38Z</time></trkpt><trkpt lat="39.542589452941456" lon="9.185429013573494"><ele>367.3333333333333</ele><time>2026-04-18T07:54:39Z</time></trkpt><trkpt lat="39.54254667300959" lon="9.185200258301752"><ele>364.6666666666667</ele><time>2026-04-18T07:54:40Z</time></trkpt><trkpt lat="39.54250619092281" lon="9.18497557542906"><ele>362.0</ele><time>2026-04-18T07:54:41Z</time></trkpt><trkpt lat="39.542473613703166" lon="9.184739843491009"><ele>360.33333333333337</ele><time>2026-04-18T07:54:42Z</time></trkpt><trkpt lat="39.542453044782626" lon="9.184496329404974"><ele>358.6666666666667</ele><time>2026-04-18T07:54:43Z</time></trkpt><trkpt lat="39.54243546785333" lon="9.184242959564841"><ele>357.0</ele><time>2026-04-18T07:54:44Z</time></trkpt><trkpt lat="39.54241841817773" lon="9.183992412274877"><ele>357.0</ele><time>2026-04-18T07:54:45Z</time></trkpt><trkpt lat="39.54240135191728" lon="9.183745286938473"><ele>357.0</ele><time>2026-04-18T07:54:46Z</time></trkpt><trkpt lat="39.54238487268459" lon="9.183501752593846"><ele>357.0</ele><time>2026-04-18T07:54:47Z</time></trkpt><trkpt lat="39.54236844381736" lon="9.183260477538973"><ele>357.0</ele><time>2026-04-18T07:54:48Z</time></trkpt><trkpt lat="39.54235254082139" lon="9.183032453619875"><ele>357.0</ele><time>2026-04-18T07:54:49Z</time></trkpt><trkpt lat="39.542314031240345" lon="9.182818297370105"><ele>357.0</ele><time>2026-04-18T07:54:50Z</time></trkpt><trkpt lat="39.54224374457911" lon="9.182623767174526"><ele>357.0</ele><time>2026-04-18T07:54:51Z</time></trkpt><trkpt lat="39.542166836596564" lon="9.182433409769923"><ele>357.0</ele><time>2026-04-18T07:54:52Z</time></trkpt><trkpt lat="39.54211058108151" lon="9.182229813200056"><ele>357.0</ele><time>2026-04-18T07:54:53Z</time></trkpt><trkpt lat="39.542063140296165" lon="9.182013968797"><ele>353.6666666666667</ele><time>2026-04-18T07:54:54Z</time></trkpt><trkpt lat="39.5420448145757" lon="9.18178586918801"><ele>350.33333333333337</ele><time>2026-04-18T07:54:55Z</time></trkpt><trkpt lat="39.5420363584301" lon="9.181553641495553"><ele>347.0</ele><time>2026-04-18T07:54:56Z</time></trkpt><trkpt lat="39.542030336749114" lon="9.181314025180471"><ele>346.0</ele><time>2026-04-18T07:54:57Z</time></trkpt><trkpt lat="39.542023977937085" lon="9.181076707641486"><ele>345.0</ele><time>2026-04-18T07:54:58Z</time></trkpt><trkpt lat="39.542018300306964" lon="9.180839894574788"><ele>344.0</ele><time>2026-04-18T07:54:59Z</time></trkpt><trkpt lat="39.54201726188371" lon="9.18061007687334"><ele>343.0</ele><time>2026-04-18T07:55:00Z</time></trkpt><trkpt lat="39.54203539719517" lon="9.180391521051597"><ele>342.0</ele><time>2026-04-18T07:55:01Z</time></trkpt><trkpt lat="39.54208701214791" lon="9.18018199495038"><ele>341.0</ele><time>2026-04-18T07:55:02Z</time></trkpt><trkpt lat="39.542149155941985" lon="9.179961855367665"><ele>336.33333333333337</ele><time>2026-04-18T07:55:03Z</time></trkpt><trkpt lat="39.54222747727096" lon="9.179748113363456"><ele>331.6666666666667</ele><time>2026-04-18T07:55:04Z</time></trkpt><trkpt lat="39.542321164206484" lon="9.179539167554381"><ele>327.0</ele><time>2026-04-18T07:55:05Z</time></trkpt><trkpt lat="39.54240153345873" lon="9.179336768079486"><ele>327.0</ele><time>2026-04-18T07:55:06Z</time></trkpt><trkpt lat="39.5424951945667" lon="9.179162295890446"><ele>327.0</ele><time>2026-04-18T07:55:07Z</time></trkpt><trkpt lat="39.54256173399505" lon="9.178968795983687"><ele>327.0</ele><time>2026-04-18T07:55:08Z</time></trkpt><trkpt lat="39.54259036500729" lon="9.178755564529654"><ele>324.0</ele><time>2026-04-18T07:55:09Z</time></trkpt><trkpt lat="39.542556432504675" lon="9.178502889165658"><ele>321.0</ele><time>2026-04-18T07:55:10Z</time></trkpt><trkpt lat="39.5425263058819" lon="9.17825609273196"><ele>318.0</ele><time>2026-04-18T07:55:11Z</time></trkpt><trkpt lat="39.54249925794783" lon="9.178003362171978"><ele>316.3333333333333</ele><time>2026-04-18T07:55:12Z</time></trkpt><trkpt lat="39.54248397586072" lon="9.177753137491864"><ele>314.66666666666663</ele><time>2026-04-18T07:55:13Z</time></trkpt><trkpt lat="39.54247029313307" lon="9.177512148165127"><ele>313.0</ele><time>2026-04-18T07:55:14Z</time></trkpt><trkpt lat="39.54244568821951" lon="9.177284162787629"><ele>313.0</ele><time>2026-04-18T07:55:15Z</time></trkpt><trkpt lat="39.54239961066783" lon="9.177065356775564"><ele>313.0</ele><time>2026-04-18T07:55:16Z</time></trkpt><trkpt lat="39.54230666806509" lon="9.176876289478944"><ele>313.0</ele><time>2026-04-18T07:55:17Z</time></trkpt><trkpt lat="39.542177929666536" lon="9.176727943944282"><ele>308.3333333333333</ele><time>2026-04-18T07:55:18Z</time></trkpt><trkpt lat="39.542040846764785" lon="9.176600676177602"><ele>303.6666666666667</ele><time>2026-04-18T07:55:19Z</time></trkpt><trkpt lat="39.541915407957454" lon="9.176480261813579"><ele>299.0</ele><time>2026-04-18T07:55:20Z</time></trkpt><trkpt lat="39.54184563381295" lon="9.176334124262462"><ele>299.0</ele><time>2026-04-18T07:55:21Z</time></trkpt><trkpt lat="39.54181838281893" lon="9.176189914244842"><ele>299.0</ele><time>2026-04-18T07:55:22Z</time></trkpt><trkpt lat="39.541813491614924" lon="9.176030478073901"><ele>299.0</ele><time>2026-04-18T07:55:23Z</time></trkpt><trkpt lat="39.54189988251083" lon="9.175864616511157"><ele>299.0</ele><time>2026-04-18T07:55:24Z</time></trkpt><trkpt lat="39.541977660067765" lon="9.175669127244893"><ele>299.0</ele><time>2026-04-18T07:55:25Z</time></trkpt><trkpt lat="39.542048136878925" lon="9.17546095486436"><ele>299.0</ele><time>2026-04-18T07:55:26Z</time></trkpt><trkpt lat="39.5421378339278" lon="9.175241039758873"><ele>299.0</ele><time>2026-04-18T07:55:27Z</time></trkpt><trkpt lat="39.542226397502354" lon="9.175019945165191"><ele>296.33333333333337</ele><time>2026-04-18T07:55:28Z</time></trkpt><trkpt lat="39.542313993249984" lon="9.17480348999594"><ele>293.6666666666667</ele><time>2026-04-18T07:55:29Z</time></trkpt><trkpt lat="39.54239909148336" lon="9.174591624289908"><ele>291.0</ele><time>2026-04-18T07:55:30Z</time></trkpt><trkpt lat="39.5424810882506" lon="9.174384457486324"><ele>291.0</ele><time>2026-04-18T07:55:31Z</time></trkpt><trkpt lat="39.54255979619062" lon="9.174203813328615"><ele>291.0</ele><time>2026-04-18T07:55:32Z</time></trkpt><trkpt lat="39.54267335486493" lon="9.174072848791246"><ele>291.0</ele><time>2026-04-18T07:55:33Z</time></trkpt><trkpt lat="39.542805536663124" lon="9.17398368658513"><ele>290.0</ele><time>2026-04-18T07:55:34Z</time></trkpt><trkpt lat="39.542943321924874" lon="9.173885279556607"><ele>289.0</ele><time>2026-04-18T07:55:35Z</time></trkpt><trkpt lat="39.54307721312006" lon="9.173812359299951"><ele>288.0</ele><time>2026-04-18T07:55:36Z</time></trkpt><trkpt lat="39.54316705245185" lon="9.173703999348808"><ele>287.0</ele><time>2026-04-18T07:55:37Z</time></trkpt><trkpt lat="39.54321044912477" lon="9.173551142226994"><ele>287.0</ele><time>2026-04-18T07:55:38Z</time></trkpt><trkpt lat="39.543202576610454" lon="9.173360193994288"><ele>287.0</ele><time>2026-04-18T07:55:39Z</time></trkpt><trkpt lat="39.54317045211162" lon="9.173152872036933"><ele>287.0</ele><time>2026-04-18T07:55:40Z</time></trkpt><trkpt lat="39.54316524020062" lon="9.17292530383683"><ele>286.33333333333337</ele><time>2026-04-18T07:55:41Z</time></trkpt><trkpt lat="39.54314996177789" lon="9.172712723293042"><ele>285.6666666666667</ele><time>2026-04-18T07:55:42Z</time></trkpt><trkpt lat="39.54314293603154" lon="9.172499042385786"><ele>285.0</ele><time>2026-04-18T07:55:43Z</time></trkpt><trkpt lat="39.54311266478372" lon="9.172297300554114"><ele>286.3333333333333</ele><time>2026-04-18T07:55:44Z</time></trkpt><trkpt lat="39.5430317449586" lon="9.172119275136899"><ele>287.66666666666663</ele><time>2026-04-18T07:55:45Z</time></trkpt><trkpt lat="39.54289600397774" lon="9.17197053286261"><ele>289.0</ele><time>2026-04-18T07:55:46Z</time></trkpt><trkpt lat="39.54274088527325" lon="9.17183114161612"><ele>288.3333333333333</ele><time>2026-04-18T07:55:47Z</time></trkpt><trkpt lat="39.54258448886962" lon="9.17167784596052"><ele>287.6666666666667</ele><time>2026-04-18T07:55:48Z</time></trkpt><trkpt lat="39.542428355903084" lon="9.171500762029384"><ele>287.0</ele><time>2026-04-18T07:55:49Z</time></trkpt><trkpt lat="39.54226646875052" lon="9.171314236762209"><ele>287.0</ele><time>2026-04-18T07:55:50Z</time></trkpt><trkpt lat="39.54210075656981" lon="9.171131023598779"><ele>287.0</ele><time>2026-04-18T07:55:51Z</time></trkpt><trkpt lat="39.54193554549771" lon="9.170953961468827"><ele>287.0</ele><time>2026-04-18T07:55:52Z</time></trkpt><trkpt lat="39.54177492047555" lon="9.170772639411954"><ele>284.33333333333337</ele><time>2026-04-18T07:55:53Z</time></trkpt><trkpt lat="39.54161178856897" lon="9.17058650249021"><ele>281.6666666666667</ele><time>2026-04-18T07:55:54Z</time></trkpt><trkpt lat="39.541457447286454" lon="9.170411982649188"><ele>279.0</ele><time>2026-04-18T07:55:55Z</time></trkpt><trkpt lat="39.54130822424291" lon="9.17025407204791"><ele>274.0</ele><time>2026-04-18T07:55:56Z</time></trkpt><trkpt lat="39.5411554705933" lon="9.170133217923924"><ele>269.0</ele><time>2026-04-18T07:55:57Z</time></trkpt><trkpt lat="39.541005968364" lon="9.170026267236947"><ele>264.0</ele><time>2026-04-18T07:55:58Z</time></trkpt><trkpt lat="39.54087792287747" lon="9.169889038006062"><ele>265.6666666666667</ele><time>2026-04-18T07:55:59Z</time></trkpt><trkpt lat="39.54078504476597" lon="9.169690837189986"><ele>267.33333333333337</ele><time>2026-04-18T07:56:00Z</time></trkpt><trkpt lat="39.540676919726764" lon="9.169503236074215"><ele>269.0</ele><time>2026-04-18T07:56:01Z</time></trkpt><trkpt lat="39.540571021256454" lon="9.169335226788512"><ele>269.0</ele><time>2026-04-18T07:56:02Z</time></trkpt><trkpt lat="39.54042537355637" lon="9.16923945984362"><ele>269.0</ele><time>2026-04-18T07:56:03Z</time></trkpt><trkpt lat="39.54025818063813" lon="9.169198276158122"><ele>269.0</ele><time>2026-04-18T07:56:04Z</time></trkpt><trkpt lat="39.54009242315277" lon="9.169165592438551"><ele>268.0</ele><time>2026-04-18T07:56:05Z</time></trkpt><trkpt lat="39.539946614254454" lon="9.16910752897352"><ele>267.0</ele><time>2026-04-18T07:56:06Z</time></trkpt><trkpt lat="39.53981932236672" lon="9.169004065493326"><ele>266.0</ele><time>2026-04-18T07:56:07Z</time></trkpt><trkpt lat="39.53972443882941" lon="9.1688332734734"><ele>266.0</ele><time>2026-04-18T07:56:08Z</time></trkpt><trkpt lat="39.539635328963556" lon="9.168637266942477"><ele>266.0</ele><time>2026-04-18T07:56:09Z</time></trkpt><trkpt lat="39.539535198042294" lon="9.16842588321746"><ele>266.0</ele><time>2026-04-18T07:56:10Z</time></trkpt><trkpt lat="39.53943313700511" lon="9.168217452043594"><ele>263.6666666666667</ele><time>2026-04-18T07:56:11Z</time></trkpt><trkpt lat="39.53929490504729" lon="9.168037090748513"><ele>261.3333333333333</ele><time>2026-04-18T07:56:12Z</time></trkpt><trkpt lat="39.53913925389712" lon="9.167871443333828"><ele>259.0</ele><time>2026-04-18T07:56:13Z</time></trkpt><trkpt lat="39.53900683948227" lon="9.16768299591239"><ele>259.0</ele><time>2026-04-18T07:56:14Z</time></trkpt><trkpt lat="39.53891802824547" lon="9.167437914176501"><ele>259.0</ele><time>2026-04-18T07:56:15Z</time></trkpt><trkpt lat="39.53880347281303" lon="9.167199618490592"><ele>259.0</ele><time>2026-04-18T07:56:16Z</time></trkpt><trkpt lat="39.53869965943301" lon="9.166954982699433"><ele>257.0</ele><time>2026-04-18T07:56:17Z</time></trkpt><trkpt lat="39.53860026305009" lon="9.166719255867887"><ele>255.0</ele><time>2026-04-18T07:56:18Z</time></trkpt><trkpt lat="39.53849639831482" lon="9.166497786602719"><ele>253.0</ele><time>2026-04-18T07:56:19Z</time></trkpt><trkpt lat="39.53836879279474" lon="9.16630107531874"><ele>253.0</ele><time>2026-04-18T07:56:20Z</time></trkpt><trkpt lat="39.53822149106453" lon="9.166138781049062"><ele>253.0</ele><time>2026-04-18T07:56:21Z</time></trkpt><trkpt lat="39.538083486222654" lon="9.16598859286235"><ele>253.0</ele><time>2026-04-18T07:56:22Z</time></trkpt><trkpt lat="39.53796759344591" lon="9.165819289293026"><ele>249.66666666666666</ele><time>2026-04-18T07:56:23Z</time></trkpt><trkpt lat="39.5378749631987" lon="9.165630891208869"><ele>246.33333333333331</ele><time>2026-04-18T07:56:24Z</time></trkpt><trkpt lat="39.537828434931896" lon="9.165412316012201"><ele>243.0</ele><time>2026-04-18T07:56:25Z</time></trkpt><trkpt lat="39.5377622793552" lon="9.165177371025845"><ele>243.0</ele><time>2026-04-18T07:56:26Z</time></trkpt><trkpt lat="39.53771513691467" lon="9.164921860932314"><ele>243.0</ele><time>2026-04-18T07:56:27Z</time></trkpt><trkpt lat="39.53766261085245" lon="9.164656369380756"><ele>243.0</ele><time>2026-04-18T07:56:28Z</time></trkpt><trkpt lat="39.537609219938076" lon="9.164385566383697"><ele>243.0</ele><time>2026-04-18T07:56:29Z</time></trkpt><trkpt lat="39.53755666862127" lon="9.16411036258107"><ele>243.0</ele><time>2026-04-18T07:56:30Z</time></trkpt><trkpt lat="39.537502501984584" lon="9.163831877029747"><ele>243.0</ele><time>2026-04-18T07:56:31Z</time></trkpt><trkpt lat="39.53744761998928" lon="9.163549270106417"><ele>242.5</ele><time>2026-04-18T07:56:32Z</time></trkpt><trkpt lat="39.537394033426196" lon="9.163267925391084"><ele>242.0</ele><time>2026-04-18T07:56:33Z</time></trkpt><trkpt lat="39.537340579062366" lon="9.162982154174356"><ele>240.5</ele><time>2026-04-18T07:56:34Z</time></trkpt><trkpt lat="39.53728703339312" lon="9.162696881458952"><ele>239.0</ele><time>2026-04-18T07:56:35Z</time></trkpt><trkpt lat="39.53723225860712" lon="9.162413116451585"><ele>237.33333333333334</ele><time>2026-04-18T07:56:36Z</time></trkpt><trkpt lat="39.53717509969199" lon="9.162137089897522"><ele>235.66666666666669</ele><time>2026-04-18T07:56:37Z</time></trkpt><trkpt lat="39.53713481872469" lon="9.161861572125053"><ele>234.0</ele><time>2026-04-18T07:56:38Z</time></trkpt><trkpt lat="39.537083348748915" lon="9.161595632657155"><ele>233.0</ele><time>2026-04-18T07:56:39Z</time></trkpt><trkpt lat="39.5370192746962" lon="9.161345405905047"><ele>232.0</ele><time>2026-04-18T07:56:40Z</time></trkpt><trkpt lat="39.53697644029214" lon="9.161099100855248"><ele>231.0</ele><time>2026-04-18T07:56:41Z</time></trkpt><trkpt lat="39.536966124308435" lon="9.160857174247719"><ele>228.66666666666669</ele><time>2026-04-18T07:56:42Z</time></trkpt><trkpt lat="39.53696705915162" lon="9.160618347303059"><ele>226.33333333333334</ele><time>2026-04-18T07:56:43Z</time></trkpt><trkpt lat="39.536987951274526" lon="9.160376273071005"><ele>224.0</ele><time>2026-04-18T07:56:44Z</time></trkpt><trkpt lat="39.536993901029554" lon="9.160131800976691"><ele>224.0</ele><time>2026-04-18T07:56:45Z</time></trkpt><trkpt lat="39.5370131266043" lon="9.159902000188705"><ele>224.0</ele><time>2026-04-18T07:56:46Z</time></trkpt><trkpt lat="39.5370101278088" lon="9.159666798437005"><ele>224.0</ele><time>2026-04-18T07:56:47Z</time></trkpt><trkpt lat="39.536970709033135" lon="9.159439091156813"><ele>223.0</ele><time>2026-04-18T07:56:48Z</time></trkpt><trkpt lat="39.53689990535913" lon="9.159212768203869"><ele>222.0</ele><time>2026-04-18T07:56:49Z</time></trkpt><trkpt lat="39.536810580205675" lon="9.158995556828359"><ele>221.0</ele><time>2026-04-18T07:56:50Z</time></trkpt><trkpt lat="39.53672133643786" lon="9.158783638420392"><ele>219.33333333333334</ele><time>2026-04-18T07:56:51Z</time></trkpt><trkpt lat="39.53663673126047" lon="9.158566744980574"><ele>217.66666666666669</ele><time>2026-04-18T07:56:52Z</time></trkpt><trkpt lat="39.53655673969168" lon="9.15834763371336"><ele>216.0</ele><time>2026-04-18T07:56:53Z</time></trkpt><trkpt lat="39.53647700082136" lon="9.158126748104358"><ele>214.0</ele><time>2026-04-18T07:56:54Z</time></trkpt><trkpt lat="39.536396629620704" lon="9.157902747953942"><ele>212.0</ele><time>2026-04-18T07:56:55Z</time></trkpt><trkpt lat="39.53631403816055" lon="9.157680140935557"><ele>210.0</ele><time>2026-04-18T07:56:56Z</time></trkpt><trkpt lat="39.5362331150058" lon="9.157462490843267"><ele>208.66666666666669</ele><time>2026-04-18T07:56:57Z</time></trkpt><trkpt lat="39.536154053230504" lon="9.157250499756499"><ele>207.33333333333334</ele><time>2026-04-18T07:56:58Z</time></trkpt><trkpt lat="39.53607852533466" lon="9.15704422245981"><ele>206.0</ele><time>2026-04-18T07:56:59Z</time></trkpt><trkpt lat="39.5360032425314" lon="9.156837273224681"><ele>206.0</ele><time>2026-04-18T07:57:00Z</time></trkpt><trkpt lat="39.535927615656085" lon="9.156631127693936"><ele>206.0</ele><time>2026-04-18T07:57:01Z</time></trkpt><trkpt lat="39.535856413409" lon="9.156427300943845"><ele>206.0</ele><time>2026-04-18T07:57:02Z</time></trkpt><trkpt lat="39.535783585161454" lon="9.156224705580138"><ele>205.0</ele><time>2026-04-18T07:57:03Z</time></trkpt><trkpt lat="39.535711544243" lon="9.156025342371434"><ele>204.0</ele><time>2026-04-18T07:57:04Z</time></trkpt><trkpt lat="39.535641218222814" lon="9.155831283910086"><ele>203.0</ele><time>2026-04-18T07:57:05Z</time></trkpt><trkpt lat="39.535572165584206" lon="9.1556464618202"><ele>202.75</ele><time>2026-04-18T07:57:06Z</time></trkpt><trkpt lat="39.53550770910984" lon="9.155472545390628"><ele>202.5</ele><time>2026-04-18T07:57:07Z</time></trkpt><trkpt lat="39.53544740271156" lon="9.155306852434665"><ele>202.25</ele><time>2026-04-18T07:57:08Z</time></trkpt><trkpt lat="39.53539258411299" lon="9.155159109008105"><ele>202.0</ele><time>2026-04-18T07:57:09Z</time></trkpt><trkpt lat="39.535341316244775" lon="9.155029925927698"><ele>201.99999999999997</ele><time>2026-04-18T07:57:10Z</time></trkpt><trkpt lat="39.53529617669688" lon="9.154914189670931"><ele>202.0</ele><time>2026-04-18T07:57:11Z</time></trkpt><trkpt lat="39.535263386620365" lon="9.154804985857304"><ele>202.0</ele><time>2026-04-18T07:57:12Z</time></trkpt><trkpt lat="39.53524024654173" lon="9.154701282602904"><ele>202.0</ele><time>2026-04-18T07:57:13Z</time></trkpt><trkpt lat="39.53519940907539" lon="9.154611086655004"><ele>201.99999999999997</ele><time>2026-04-18T07:57:14Z</time></trkpt><trkpt lat="39.53515445982884" lon="9.154506950226933"><ele>202.0</ele><time>2026-04-18T07:57:15Z</time></trkpt><trkpt lat="39.53511862513052" lon="9.154387049701466"><ele>202.0</ele><time>2026-04-18T07:57:16Z</time></trkpt><trkpt lat="39.53509107088542" lon="9.154250380697164"><ele>202.0</ele><time>2026-04-18T07:57:17Z</time></trkpt><trkpt lat="39.53506778185064" lon="9.15410651709143"><ele>202.0</ele><time>2026-04-18T07:57:18Z</time></trkpt><trkpt lat="39.53504174406547" lon="9.153963128300783"><ele>202.0</ele><time>2026-04-18T07:57:19Z</time></trkpt><trkpt lat="39.535010219336456" lon="9.153820953750344"><ele>201.0</ele><time>2026-04-18T07:57:20Z</time></trkpt><trkpt lat="39.534974656536264" lon="9.153672541646717"><ele>200.0</ele><time>2026-04-18T07:57:21Z</time></trkpt><trkpt lat="39.53494533642909" lon="9.15353449794255"><ele>199.0</ele><time>2026-04-18T07:57:22Z</time></trkpt><trkpt lat="39.53493487908409" lon="9.153395058577878"><ele>198.0</ele><time>2026-04-18T07:57:23Z</time></trkpt><trkpt lat="39.53494614426995" lon="9.153263676448537"><ele>197.0</ele><time>2026-04-18T07:57:24Z</time></trkpt><trkpt lat="39.53498624919735" lon="9.153117112756487"><ele>196.0</ele><time>2026-04-18T07:57:25Z</time></trkpt><trkpt lat="39.53503992857842" lon="9.15296417852993"><ele>195.0</ele><time>2026-04-18T07:57:26Z</time></trkpt><trkpt lat="39.53509698223472" lon="9.152796083564779"><ele>194.0</ele><time>2026-04-18T07:57:27Z</time></trkpt><trkpt lat="39.53515260143394" lon="9.152622883496635"><ele>193.0</ele><time>2026-04-18T07:57:28Z</time></trkpt><trkpt lat="39.53521164764763" lon="9.15244190922769"><ele>193.0</ele><time>2026-04-18T07:57:29Z</time></trkpt><trkpt lat="39.53527289673281" lon="9.152257493635807"><ele>193.0</ele><time>2026-04-18T07:57:30Z</time></trkpt><trkpt lat="39.53534514639175" lon="9.15206311680041"><ele>193.0</ele><time>2026-04-18T07:57:31Z</time></trkpt><trkpt lat="39.5354126573561" lon="9.151865832164543"><ele>193.0</ele><time>2026-04-18T07:57:32Z</time></trkpt><trkpt lat="39.53546328745894" lon="9.151664151071891"><ele>193.0</ele><time>2026-04-18T07:57:33Z</time></trkpt><trkpt lat="39.535490463253716" lon="9.15144054872287"><ele>193.0</ele><time>2026-04-18T07:57:34Z</time></trkpt><trkpt lat="39.53548862577593" lon="9.151206598071807"><ele>193.0</ele><time>2026-04-18T07:57:35Z</time></trkpt><trkpt lat="39.53545573027136" lon="9.15097184958218"><ele>193.0</ele><time>2026-04-18T07:57:36Z</time></trkpt><trkpt lat="39.53539659092012" lon="9.150735554462447"><ele>193.0</ele><time>2026-04-18T07:57:37Z</time></trkpt><trkpt lat="39.53533269448625" lon="9.150501581308752"><ele>193.0</ele><time>2026-04-18T07:57:38Z</time></trkpt><trkpt lat="39.535266917250304" lon="9.150267062082046"><ele>193.0</ele><time>2026-04-18T07:57:39Z</time></trkpt><trkpt lat="39.53520341369203" lon="9.150035239455786"><ele>193.0</ele><time>2026-04-18T07:57:40Z</time></trkpt><trkpt lat="39.5351390834896" lon="9.149800417932141"><ele>193.66666666666666</ele><time>2026-04-18T07:57:41Z</time></trkpt><trkpt lat="39.53507900784004" lon="9.149566676791498"><ele>194.33333333333331</ele><time>2026-04-18T07:57:42Z</time></trkpt><trkpt lat="39.535021921328685" lon="9.149332930757616"><ele>195.0</ele><time>2026-04-18T07:57:43Z</time></trkpt><trkpt lat="39.534960374948604" lon="9.149097966478678"><ele>196.33333333333331</ele><time>2026-04-18T07:57:44Z</time></trkpt><trkpt lat="39.53489480741006" lon="9.148859503198086"><ele>197.66666666666666</ele><time>2026-04-18T07:57:45Z</time></trkpt><trkpt lat="39.53483152805453" lon="9.148617546087971"><ele>199.0</ele><time>2026-04-18T07:57:46Z</time></trkpt><trkpt lat="39.53477144501769" lon="9.148369729182253"><ele>200.0</ele><time>2026-04-18T07:57:47Z</time></trkpt><trkpt lat="39.534707014427255" lon="9.148120247333145"><ele>201.0</ele><time>2026-04-18T07:57:48Z</time></trkpt><trkpt lat="39.53463667850316" lon="9.147871826702653"><ele>202.0</ele><time>2026-04-18T07:57:49Z</time></trkpt><trkpt lat="39.53456486315626" lon="9.147622823394418"><ele>201.33333333333331</ele><time>2026-04-18T07:57:50Z</time></trkpt><trkpt lat="39.53448294547093" lon="9.14737870520702"><ele>200.66666666666669</ele><time>2026-04-18T07:57:51Z</time></trkpt><trkpt lat="39.53437905613674" lon="9.14714689191936"><ele>200.0</ele><time>2026-04-18T07:57:52Z</time></trkpt><trkpt lat="39.53426379450323" lon="9.14692019572016"><ele>199.66666666666669</ele><time>2026-04-18T07:57:53Z</time></trkpt><trkpt lat="39.53415185222115" lon="9.14668881325035"><ele>199.33333333333331</ele><time>2026-04-18T07:57:54Z</time></trkpt><trkpt lat="39.53403823254347" lon="9.146450141136764"><ele>199.0</ele><time>2026-04-18T07:57:55Z</time></trkpt><trkpt lat="39.53392118867713" lon="9.146214752215473"><ele>199.0</ele><time>2026-04-18T07:57:56Z</time></trkpt><trkpt lat="39.533816823400244" lon="9.14596641957723"><ele>199.0</ele><time>2026-04-18T07:57:57Z</time></trkpt><trkpt lat="39.5336997059256" lon="9.145726112176664"><ele>199.0</ele><time>2026-04-18T07:57:58Z</time></trkpt><trkpt lat="39.53356875716123" lon="9.145496238101673"><ele>199.0</ele><time>2026-04-18T07:57:59Z</time></trkpt><trkpt lat="39.53345546209578" lon="9.145254347968162"><ele>199.0</ele><time>2026-04-18T07:58:00Z</time></trkpt><trkpt lat="39.53334241699584" lon="9.145016849488526"><ele>199.0</ele><time>2026-04-18T07:58:01Z</time></trkpt><trkpt lat="39.533231975288196" lon="9.144785024286069"><ele>200.0</ele><time>2026-04-18T07:58:02Z</time></trkpt><trkpt lat="39.53312357646071" lon="9.144558032282808"><ele>201.0</ele><time>2026-04-18T07:58:03Z</time></trkpt><trkpt lat="39.533019005389974" lon="9.144343402840667"><ele>202.0</ele><time>2026-04-18T07:58:04Z</time></trkpt><trkpt lat="39.53291674690448" lon="9.14413719686997"><ele>202.0</ele><time>2026-04-18T07:58:05Z</time></trkpt><trkpt lat="39.53281780452154" lon="9.14393924890006"><ele>202.0</ele><time>2026-04-18T07:58:06Z</time></trkpt><trkpt lat="39.53272446212238" lon="9.143751967758117"><ele>202.0</ele><time>2026-04-18T07:58:07Z</time></trkpt><trkpt lat="39.53263648576325" lon="9.143572197371235"><ele>202.0</ele><time>2026-04-18T07:58:08Z</time></trkpt><trkpt lat="39.53255406522236" lon="9.143394242815965"><ele>202.0</ele><time>2026-04-18T07:58:09Z</time></trkpt><trkpt lat="39.532486673766726" lon="9.143218830422953"><ele>202.0</ele><time>2026-04-18T07:58:10Z</time></trkpt><trkpt lat="39.53242995635555" lon="9.14303634036204"><ele>202.0</ele><time>2026-04-18T07:58:11Z</time></trkpt><trkpt lat="39.532387231013885" lon="9.142845748433393"><ele>202.0</ele><time>2026-04-18T07:58:12Z</time></trkpt><trkpt lat="39.532363389143335" lon="9.142651144959121"><ele>202.0</ele><time>2026-04-18T07:58:13Z</time></trkpt><trkpt lat="39.53235391244423" lon="9.142454693302303"><ele>202.0</ele><time>2026-04-18T07:58:14Z</time></trkpt><trkpt lat="39.53234665101391" lon="9.142258116927454"><ele>202.0</ele><time>2026-04-18T07:58:15Z</time></trkpt><trkpt lat="39.532337134479036" lon="9.142062354584887"><ele>202.0</ele><time>2026-04-18T07:58:16Z</time></trkpt><trkpt lat="39.532328436943764" lon="9.141866348150758"><ele>202.0</ele><time>2026-04-18T07:58:17Z</time></trkpt><trkpt lat="39.53231897131948" lon="9.141673195185781"><ele>202.0</ele><time>2026-04-18T07:58:18Z</time></trkpt><trkpt lat="39.532309123081745" lon="9.141481627456118"><ele>202.0</ele><time>2026-04-18T07:58:19Z</time></trkpt><trkpt lat="39.53229777592127" lon="9.141290710490305"><ele>202.0</ele><time>2026-04-18T07:58:20Z</time></trkpt><trkpt lat="39.53228677901067" lon="9.14110822092378"><ele>201.2</ele><time>2026-04-18T07:58:21Z</time></trkpt><trkpt lat="39.53227952355123" lon="9.140926787616012"><ele>200.39999999999998</ele><time>2026-04-18T07:58:22Z</time></trkpt><trkpt lat="39.532273937795395" lon="9.140755920985832"><ele>199.60000000000002</ele><time>2026-04-18T07:58:23Z</time></trkpt><trkpt lat="39.53226894507452" lon="9.140633597202282"><ele>198.8</ele><time>2026-04-18T07:58:24Z</time></trkpt><trkpt lat="39.5322654961474" lon="9.14052652447358"><ele>198.0</ele><time>2026-04-18T07:58:25Z</time></trkpt><trkpt lat="39.5322705875546" lon="9.140403126073743"><ele>197.5</ele><time>2026-04-18T07:58:27Z</time></trkpt><trkpt lat="39.53231999005307" lon="9.140333793782373"><ele>197.0</ele><time>2026-04-18T07:58:29Z</time></trkpt><trkpt lat="39.532386836259654" lon="9.140340434231417"><ele>196.5</ele><time>2026-04-18T07:58:30Z</time></trkpt><trkpt lat="39.532449521972865" lon="9.140296611258371"><ele>196.0</ele><time>2026-04-18T07:58:31Z</time></trkpt><trkpt lat="39.53252309503589" lon="9.140271503003353"><ele>195.5</ele><time>2026-04-18T07:58:32Z</time></trkpt><trkpt lat="39.532586814945" lon="9.140248517073093"><ele>195.0</ele><time>2026-04-18T07:58:33Z</time></trkpt><trkpt lat="39.53269655949749" lon="9.140207765603897"><ele>195.0</ele><time>2026-04-18T07:58:35Z</time></trkpt><trkpt lat="39.53276460334082" lon="9.140168397905784"><ele>195.0</ele><time>2026-04-18T07:58:36Z</time></trkpt><trkpt lat="39.53284464731472" lon="9.140113742475029"><ele>195.0</ele><time>2026-04-18T07:58:37Z</time></trkpt><trkpt lat="39.532932387477885" lon="9.14007949873321"><ele>195.0</ele><time>2026-04-18T07:58:38Z</time></trkpt><trkpt lat="39.533019607385775" lon="9.140014639625964"><ele>195.0</ele><time>2026-04-18T07:58:39Z</time></trkpt><trkpt lat="39.53309892214117" lon="9.139950180542982"><ele>195.2</ele><time>2026-04-18T07:58:40Z</time></trkpt><trkpt lat="39.533165916195145" lon="9.139888352100922"><ele>195.4</ele><time>2026-04-18T07:58:41Z</time></trkpt><trkpt lat="39.53321314727846" lon="9.139822532176117"><ele>195.60000000000002</ele><time>2026-04-18T07:58:42Z</time></trkpt><trkpt lat="39.5332651607948" lon="9.13977358750615"><ele>195.8</ele><time>2026-04-18T07:58:43Z</time></trkpt><trkpt lat="39.53336420170835" lon="9.139670308196767"><ele>196.0</ele><time>2026-04-18T07:58:45Z</time></trkpt><trkpt lat="39.53346308431263" lon="9.139598955793462"><ele>195.99999999999997</ele><time>2026-04-18T07:58:47Z</time></trkpt><trkpt lat="39.53356135745321" lon="9.139526200699807"><ele>196.0</ele><time>2026-04-18T07:58:49Z</time></trkpt><trkpt lat="39.53362083244428" lon="9.139492541749053"><ele>196.0</ele><time>2026-04-18T07:58:50Z</time></trkpt><trkpt lat="39.53369084363532" lon="9.139464393378095"><ele>196.0</ele><time>2026-04-18T07:58:51Z</time></trkpt><trkpt lat="39.53376957454242" lon="9.139444264109613"><ele>195.99999999999997</ele><time>2026-04-18T07:58:52Z</time></trkpt><trkpt lat="39.533853380952955" lon="9.139438158864708"><ele>196.0</ele><time>2026-04-18T07:58:53Z</time></trkpt><trkpt lat="39.533942246182804" lon="9.139436827157118"><ele>196.60000000000002</ele><time>2026-04-18T07:58:54Z</time></trkpt><trkpt lat="39.53403243972999" lon="9.139418235409801"><ele>197.2</ele><time>2026-04-18T07:58:55Z</time></trkpt><trkpt lat="39.53412483540179" lon="9.13940392841098"><ele>197.8</ele><time>2026-04-18T07:58:56Z</time></trkpt><trkpt lat="39.53421433806282" lon="9.139382504628037"><ele>198.39999999999998</ele><time>2026-04-18T07:58:57Z</time></trkpt><trkpt lat="39.534294876252275" lon="9.13933580138529"><ele>199.0</ele><time>2026-04-18T07:58:58Z</time></trkpt><trkpt lat="39.534366911507874" lon="9.139273304479396"><ele>198.99999999999997</ele><time>2026-04-18T07:58:59Z</time></trkpt><trkpt lat="39.534434264160865" lon="9.139205538350472"><ele>199.0</ele><time>2026-04-18T07:59:00Z</time></trkpt><trkpt lat="39.53451250182166" lon="9.139156690441489"><ele>199.0</ele><time>2026-04-18T07:59:01Z</time></trkpt><trkpt lat="39.53459264435357" lon="9.139107921516203"><ele>199.0</ele><time>2026-04-18T07:59:02Z</time></trkpt><trkpt lat="39.53467687537589" lon="9.13906289877899"><ele>198.99999999999997</ele><time>2026-04-18T07:59:03Z</time></trkpt><trkpt lat="39.53475654801279" lon="9.138998107220562"><ele>199.0</ele><time>2026-04-18T07:59:04Z</time></trkpt><trkpt lat="39.534849069527844" lon="9.138978058606813"><ele>199.79999999999998</ele><time>2026-04-18T07:59:05Z</time></trkpt><trkpt lat="39.53494026550847" lon="9.138944122023691"><ele>200.6</ele><time>2026-04-18T07:59:06Z</time></trkpt><trkpt lat="39.5350289404355" lon="9.13890967801908"><ele>201.4</ele><time>2026-04-18T07:59:07Z</time></trkpt><trkpt lat="39.53513297652476" lon="9.138875432487492"><ele>202.2</ele><time>2026-04-18T07:59:09Z</time></trkpt><trkpt lat="39.53524904457762" lon="9.138868148960801"><ele>203.0</ele><time>2026-04-18T07:59:11Z</time></trkpt><trkpt lat="39.53535148810821" lon="9.138865654940483"><ele>203.50000000000003</ele><time>2026-04-18T07:59:13Z</time></trkpt><trkpt lat="39.53543604911115" lon="9.138859132936586"><ele>204.0</ele><time>2026-04-18T07:59:15Z</time></trkpt><trkpt lat="39.53555061585866" lon="9.13883891106749"><ele>204.5</ele><time>2026-04-18T07:59:17Z</time></trkpt><trkpt lat="39.53562225607885" lon="9.138831263947647"><ele>205.0</ele><time>2026-04-18T07:59:18Z</time></trkpt><trkpt lat="39.535704797301435" lon="9.13881597160728"><ele>205.50000000000003</ele><time>2026-04-18T07:59:19Z</time></trkpt><trkpt lat="39.53579082230136" lon="9.138793626135973"><ele>206.0</ele><time>2026-04-18T07:59:20Z</time></trkpt><trkpt lat="39.53588237321156" lon="9.138756850640831"><ele>206.0</ele><time>2026-04-18T07:59:21Z</time></trkpt><trkpt lat="39.53597159477093" lon="9.138703578157603"><ele>206.0</ele><time>2026-04-18T07:59:22Z</time></trkpt><trkpt lat="39.536056975749396" lon="9.138641250259294"><ele>206.0</ele><time>2026-04-18T07:59:23Z</time></trkpt><trkpt lat="39.536130944646104" lon="9.138572666700552"><ele>206.0</ele><time>2026-04-18T07:59:24Z</time></trkpt><trkpt lat="39.53620480908413" lon="9.138506482434417"><ele>206.0</ele><time>2026-04-18T07:59:25Z</time></trkpt><trkpt lat="39.53627273002169" lon="9.138441460895244"><ele>205.83333333333334</ele><time>2026-04-18T07:59:26Z</time></trkpt><trkpt lat="39.536333294576366" lon="9.138366818570127"><ele>205.66666666666669</ele><time>2026-04-18T07:59:27Z</time></trkpt><trkpt lat="39.53640430168174" lon="9.138304655488453"><ele>205.5</ele><time>2026-04-18T07:59:28Z</time></trkpt><trkpt lat="39.53644996393639" lon="9.138203673400895"><ele>205.33333333333331</ele><time>2026-04-18T07:59:29Z</time></trkpt><trkpt lat="39.536517583226406" lon="9.13812990223709"><ele>205.16666666666666</ele><time>2026-04-18T07:59:30Z</time></trkpt><trkpt lat="39.53657429702558" lon="9.13804186553889"><ele>205.0</ele><time>2026-04-18T07:59:31Z</time></trkpt><trkpt lat="39.536622245990415" lon="9.137946875304177"><ele>204.66666666666666</ele><time>2026-04-18T07:59:32Z</time></trkpt><trkpt lat="39.536694113527965" lon="9.137881562922303"><ele>204.33333333333331</ele><time>2026-04-18T07:59:33Z</time></trkpt><trkpt lat="39.53677584344318" lon="9.137833672897786"><ele>204.0</ele><time>2026-04-18T07:59:34Z</time></trkpt><trkpt lat="39.53685456595584" lon="9.137787362601022"><ele>203.66666666666669</ele><time>2026-04-18T07:59:35Z</time></trkpt><trkpt lat="39.53692977240388" lon="9.137736007479308"><ele>203.33333333333334</ele><time>2026-04-18T07:59:36Z</time></trkpt><trkpt lat="39.53700368726687" lon="9.137685819509048"><ele>203.0</ele><time>2026-04-18T07:59:37Z</time></trkpt><trkpt lat="39.537075919641396" lon="9.137634475220485"><ele>202.66666666666669</ele><time>2026-04-18T07:59:38Z</time></trkpt><trkpt lat="39.53713492369544" lon="9.137588486629825"><ele>202.33333333333334</ele><time>2026-04-18T07:59:39Z</time></trkpt><trkpt lat="39.53723019671552" lon="9.137522994610807"><ele>202.0</ele><time>2026-04-18T07:59:41Z</time></trkpt><trkpt lat="39.537306252687195" lon="9.137472843819275"><ele>201.66666666666669</ele><time>2026-04-18T07:59:43Z</time></trkpt><trkpt lat="39.537387773410586" lon="9.137420387147722"><ele>201.33333333333334</ele><time>2026-04-18T07:59:45Z</time></trkpt><trkpt lat="39.53744500156361" lon="9.13738229275288"><ele>201.0</ele><time>2026-04-18T07:59:47Z</time></trkpt><trkpt lat="39.53750992400999" lon="9.137329896010865"><ele>201.0</ele><time>2026-04-18T07:59:51Z</time></trkpt><trkpt lat="39.53746832067758" lon="9.137218445017337"><ele>201.0</ele><time>2026-04-18T07:59:52Z</time></trkpt><trkpt lat="39.53742152030666" lon="9.137098973325726"><ele>201.0</ele><time>2026-04-18T07:59:54Z</time></trkpt><trkpt lat="39.53738956009263" lon="9.137013454367"><ele>201.0</ele><time>2026-04-18T07:59:55Z</time></trkpt><trkpt lat="39.5373550673467" lon="9.136924223648272"><ele>201.0</ele><time>2026-04-18T07:59:56Z</time></trkpt><trkpt lat="39.5373272074215" lon="9.136831001813455"><ele>201.0</ele><time>2026-04-18T07:59:57Z</time></trkpt><trkpt lat="39.53729911599923" lon="9.136726961884218"><ele>201.0</ele><time>2026-04-18T07:59:58Z</time></trkpt><trkpt lat="39.537270546340935" lon="9.136613566204824"><ele>201.0</ele><time>2026-04-18T07:59:59Z</time></trkpt><trkpt lat="39.53724374416693" lon="9.136499279715535"><ele>201.0</ele><time>2026-04-18T08:00:00Z</time></trkpt><trkpt lat="39.53721951978805" lon="9.136380848555815"><ele>201.0</ele><time>2026-04-18T08:00:01Z</time></trkpt><trkpt lat="39.53718421014246" lon="9.136266839642408"><ele>201.0</ele><time>2026-04-18T08:00:02Z</time></trkpt><trkpt lat="39.53712881979" lon="9.136155032868345"><ele>200.20000000000002</ele><time>2026-04-18T08:00:03Z</time></trkpt><trkpt lat="39.53706396810294" lon="9.136053904714652"><ele>199.4</ele><time>2026-04-18T08:00:04Z</time></trkpt><trkpt lat="39.53698655326651" lon="9.135962563390576"><ele>198.6</ele><time>2026-04-18T08:00:05Z</time></trkpt><trkpt lat="39.536897710622675" lon="9.135886505679743"><ele>197.8</ele><time>2026-04-18T08:00:06Z</time></trkpt><trkpt lat="39.53681348547635" lon="9.135800131981117"><ele>197.0</ele><time>2026-04-18T08:00:07Z</time></trkpt><trkpt lat="39.536710710936056" lon="9.135750005324484"><ele>197.0</ele><time>2026-04-18T08:00:08Z</time></trkpt><trkpt lat="39.53660428398491" lon="9.13573091625773"><ele>197.0</ele><time>2026-04-18T08:00:09Z</time></trkpt><trkpt lat="39.53650395994659" lon="9.135689795407375"><ele>197.0</ele><time>2026-04-18T08:00:10Z</time></trkpt><trkpt lat="39.53640311257634" lon="9.135649255521658"><ele>197.0</ele><time>2026-04-18T08:00:11Z</time></trkpt><trkpt lat="39.536302352468496" lon="9.135605110453334"><ele>197.0</ele><time>2026-04-18T08:00:12Z</time></trkpt><trkpt lat="39.53620532732291" lon="9.135552678551276"><ele>196.50000000000003</ele><time>2026-04-18T08:00:13Z</time></trkpt><trkpt lat="39.53611874883785" lon="9.135497355861544"><ele>196.0</ele><time>2026-04-18T08:00:14Z</time></trkpt><trkpt lat="39.53604596361593" lon="9.135436134356157"><ele>195.5</ele><time>2026-04-18T08:00:15Z</time></trkpt><trkpt lat="39.53598560899469" lon="9.135376908496118"><ele>195.0</ele><time>2026-04-18T08:00:16Z</time></trkpt><trkpt lat="39.535910743965694" lon="9.135283598853267"><ele>194.50000000000003</ele><time>2026-04-18T08:00:18Z</time></trkpt><trkpt lat="39.53587905701649" lon="9.135179371191395"><ele>194.0</ele><time>2026-04-18T08:00:21Z</time></trkpt><trkpt lat="39.53598237330453" lon="9.135090903475984"><ele>194.00000000000003</ele><time>2026-04-18T08:00:23Z</time></trkpt><trkpt lat="39.53606381011655" lon="9.135087515811726"><ele>194.0</ele><time>2026-04-18T08:00:24Z</time></trkpt><trkpt lat="39.53614253028005" lon="9.135062607210804"><ele>194.0</ele><time>2026-04-18T08:00:25Z</time></trkpt><trkpt lat="39.53622274856556" lon="9.135020253060084"><ele>194.0</ele><time>2026-04-18T08:00:26Z</time></trkpt><trkpt lat="39.536307002969814" lon="9.134964713675108"><ele>194.00000000000003</ele><time>2026-04-18T08:00:27Z</time></trkpt><trkpt lat="39.536376649990885" lon="9.13488693342762"><ele>194.0</ele><time>2026-04-18T08:00:28Z</time></trkpt><trkpt lat="39.536431367013634" lon="9.134766614266466"><ele>194.39999999999998</ele><time>2026-04-18T08:00:29Z</time></trkpt><trkpt lat="39.53648041982538" lon="9.134644845964472"><ele>194.8</ele><time>2026-04-18T08:00:30Z</time></trkpt><trkpt lat="39.536531408835664" lon="9.134528794021817"><ele>195.2</ele><time>2026-04-18T08:00:31Z</time></trkpt><trkpt lat="39.536585394684096" lon="9.134408822692645"><ele>195.60000000000002</ele><time>2026-04-18T08:00:32Z</time></trkpt><trkpt lat="39.536635585292785" lon="9.134291371226242"><ele>196.0</ele><time>2026-04-18T08:00:33Z</time></trkpt><trkpt lat="39.536682316407614" lon="9.134174233128423"><ele>196.0</ele><time>2026-04-18T08:00:34Z</time></trkpt><trkpt lat="39.53673073855877" lon="9.13405772100336"><ele>196.0</ele><time>2026-04-18T08:00:35Z</time></trkpt><trkpt lat="39.53677566402156" lon="9.133943161434551"><ele>196.0</ele><time>2026-04-18T08:00:36Z</time></trkpt><trkpt lat="39.5368352679399" lon="9.13384604547525"><ele>196.0</ele><time>2026-04-18T08:00:37Z</time></trkpt><trkpt lat="39.5368656253933" lon="9.133734969605527"><ele>196.0</ele><time>2026-04-18T08:00:38Z</time></trkpt><trkpt lat="39.536915948814986" lon="9.133642536469027"><ele>196.16666666666666</ele><time>2026-04-18T08:00:39Z</time></trkpt><trkpt lat="39.53695661377059" lon="9.13355576299641"><ele>196.33333333333331</ele><time>2026-04-18T08:00:40Z</time></trkpt><trkpt lat="39.53699964953002" lon="9.133457127651878"><ele>196.5</ele><time>2026-04-18T08:00:42Z</time></trkpt><trkpt lat="39.5370386844216" lon="9.133378155719837"><ele>196.66666666666669</ele><time>2026-04-18T08:00:44Z</time></trkpt><trkpt lat="39.537112313145876" lon="9.133244365313924"><ele>196.83333333333334</ele><time>2026-04-18T08:00:46Z</time></trkpt><trkpt lat="39.53715380426283" lon="9.133169749411573"><ele>197.0</ele><time>2026-04-18T08:00:47Z</time></trkpt><trkpt lat="39.537194985920564" lon="9.133094232432654"><ele>197.28571428571428</ele><time>2026-04-18T08:00:48Z</time></trkpt><trkpt lat="39.53724878600565" lon="9.133025621543878"><ele>197.57142857142858</ele><time>2026-04-18T08:00:49Z</time></trkpt><trkpt lat="39.53728380779182" lon="9.13294334816745"><ele>197.85714285714283</ele><time>2026-04-18T08:00:50Z</time></trkpt><trkpt lat="39.53729108863733" lon="9.132855145570952"><ele>198.14285714285714</ele><time>2026-04-18T08:00:51Z</time></trkpt><trkpt lat="39.537276378535005" lon="9.132767220075719"><ele>198.42857142857142</ele><time>2026-04-18T08:00:52Z</time></trkpt><trkpt lat="39.5372564473966" lon="9.132672590620837"><ele>198.7142857142857</ele><time>2026-04-18T08:00:53Z</time></trkpt><trkpt lat="39.53724315809927" lon="9.132570510517048"><ele>199.0</ele><time>2026-04-18T08:00:54Z</time></trkpt><trkpt lat="39.53723223678648" lon="9.132463459056048"><ele>198.99999999999997</ele><time>2026-04-18T08:00:55Z</time></trkpt><trkpt lat="39.53722175739752" lon="9.132351102332642"><ele>199.0</ele><time>2026-04-18T08:00:56Z</time></trkpt><trkpt lat="39.53720969516079" lon="9.132233549961954"><ele>199.0</ele><time>2026-04-18T08:00:57Z</time></trkpt><trkpt lat="39.53719532502447" lon="9.13211835286488"><ele>199.0</ele><time>2026-04-18T08:00:58Z</time></trkpt><trkpt lat="39.537182689794655" lon="9.132008123417588"><ele>198.99999999999997</ele><time>2026-04-18T08:00:59Z</time></trkpt><trkpt lat="39.53716948093671" lon="9.131900750204426"><ele>199.0</ele><time>2026-04-18T08:01:00Z</time></trkpt><trkpt lat="39.537154899092826" lon="9.13179656892361"><ele>198.99999999999997</ele><time>2026-04-18T08:01:01Z</time></trkpt><trkpt lat="39.537139842617" lon="9.13169307537081"><ele>199.0</ele><time>2026-04-18T08:01:02Z</time></trkpt><trkpt lat="39.53714074421657" lon="9.131586568828924"><ele>199.0</ele><time>2026-04-18T08:01:03Z</time></trkpt><trkpt lat="39.537129027957" lon="9.131483274467278"><ele>199.0</ele><time>2026-04-18T08:01:04Z</time></trkpt><trkpt lat="39.53711753732294" lon="9.131381969266974"><ele>198.99999999999997</ele><time>2026-04-18T08:01:05Z</time></trkpt><trkpt lat="39.53710637700318" lon="9.1312835762462"><ele>199.0</ele><time>2026-04-18T08:01:06Z</time></trkpt><trkpt lat="39.53709562204618" lon="9.131188757033367"><ele>198.99999999999997</ele><time>2026-04-18T08:01:07Z</time></trkpt><trkpt lat="39.53707166233547" lon="9.131096716144203"><ele>199.0</ele><time>2026-04-18T08:01:08Z</time></trkpt><trkpt lat="39.53706193935409" lon="9.130992128406154"><ele>199.0</ele><time>2026-04-18T08:01:09Z</time></trkpt><trkpt lat="39.537048336044556" lon="9.130890894285429"><ele>199.0</ele><time>2026-04-18T08:01:10Z</time></trkpt><trkpt lat="39.53703959741222" lon="9.13079986441037"><ele>198.99999999999997</ele><time>2026-04-18T08:01:11Z</time></trkpt><trkpt lat="39.53703629174734" lon="9.13067645010275"><ele>199.0</ele><time>2026-04-18T08:01:13Z</time></trkpt><trkpt lat="39.537037254793034" lon="9.130591444793222"><ele>199.16666666666666</ele><time>2026-04-18T08:01:20Z</time></trkpt><trkpt lat="39.537066288974955" lon="9.130512597465946"><ele>199.33333333333331</ele><time>2026-04-18T08:01:23Z</time></trkpt><trkpt lat="39.537189920573596" lon="9.130503058958917"><ele>199.5</ele><time>2026-04-18T08:01:25Z</time></trkpt><trkpt lat="39.53725586619182" lon="9.130502798139682"><ele>199.66666666666669</ele><time>2026-04-18T08:01:26Z</time></trkpt><trkpt lat="39.53732866387782" lon="9.130494955504894"><ele>199.83333333333334</ele><time>2026-04-18T08:01:27Z</time></trkpt><trkpt lat="39.537394222493205" lon="9.130494952852109"><ele>200.0</ele><time>2026-04-18T08:01:28Z</time></trkpt><trkpt lat="39.537503833338285" lon="9.130501297000269"><ele>200.00000000000003</ele><time>2026-04-18T08:01:30Z</time></trkpt><trkpt lat="39.53757872630905" lon="9.130499387857967"><ele>200.0</ele><time>2026-04-18T08:01:37Z</time></trkpt><trkpt lat="39.537610304072906" lon="9.130367889884925"><ele>200.0</ele><time>2026-04-18T08:01:40Z</time></trkpt><trkpt lat="39.537599471794934" lon="9.130274258096152"><ele>200.0</ele><time>2026-04-18T08:01:41Z</time></trkpt><trkpt lat="39.53756945912097" lon="9.130178899060423"><ele>200.00000000000003</ele><time>2026-04-18T08:01:42Z</time></trkpt><trkpt lat="39.53754062738316" lon="9.13006407166103"><ele>200.0</ele><time>2026-04-18T08:01:43Z</time></trkpt><trkpt lat="39.53751064032311" lon="9.129949398528153"><ele>200.4</ele><time>2026-04-18T08:01:44Z</time></trkpt><trkpt lat="39.53747879433349" lon="9.129828199067925"><ele>200.8</ele><time>2026-04-18T08:01:45Z</time></trkpt><trkpt lat="39.53745089296771" lon="9.129698444511895"><ele>201.2</ele><time>2026-04-18T08:01:46Z</time></trkpt><trkpt lat="39.53742225441123" lon="9.12956559897121"><ele>201.6</ele><time>2026-04-18T08:01:47Z</time></trkpt><trkpt lat="39.537393967996785" lon="9.12943343288103"><ele>202.0</ele><time>2026-04-18T08:01:48Z</time></trkpt><trkpt lat="39.53736229436685" lon="9.129292247389863"><ele>202.0</ele><time>2026-04-18T08:01:49Z</time></trkpt><trkpt lat="39.537330406837654" lon="9.129140304761268"><ele>202.0</ele><time>2026-04-18T08:01:50Z</time></trkpt><trkpt lat="39.53729303735123" lon="9.12899060007419"><ele>202.0</ele><time>2026-04-18T08:01:51Z</time></trkpt><trkpt lat="39.53725763766796" lon="9.128837158115124"><ele>202.0</ele><time>2026-04-18T08:01:52Z</time></trkpt><trkpt lat="39.53722923057001" lon="9.128689173131548"><ele>202.0</ele><time>2026-04-18T08:01:53Z</time></trkpt><trkpt lat="39.53720546913968" lon="9.128551295781152"><ele>202.0</ele><time>2026-04-18T08:01:54Z</time></trkpt><trkpt lat="39.53717631901532" lon="9.12842602128223"><ele>202.0</ele><time>2026-04-18T08:01:55Z</time></trkpt><trkpt lat="39.53714852134081" lon="9.12830599691626"><ele>202.0</ele><time>2026-04-18T08:01:56Z</time></trkpt><trkpt lat="39.5371116712638" lon="9.128186571542841"><ele>202.0</ele><time>2026-04-18T08:01:57Z</time></trkpt><trkpt lat="39.537063021177694" lon="9.128071959305851"><ele>202.66666666666666</ele><time>2026-04-18T08:01:58Z</time></trkpt><trkpt lat="39.537009944777715" lon="9.127966340219816"><ele>203.33333333333331</ele><time>2026-04-18T08:01:59Z</time></trkpt><trkpt lat="39.53695887984898" lon="9.12786692162687"><ele>204.0</ele><time>2026-04-18T08:02:00Z</time></trkpt><trkpt lat="39.53690938602669" lon="9.127775420095224"><ele>204.66666666666669</ele><time>2026-04-18T08:02:01Z</time></trkpt><trkpt lat="39.53686338554258" lon="9.127695766272279"><ele>205.33333333333334</ele><time>2026-04-18T08:02:02Z</time></trkpt><trkpt lat="39.53682405599799" lon="9.127626646349377"><ele>206.0</ele><time>2026-04-18T08:02:03Z</time></trkpt><trkpt lat="39.53675646293794" lon="9.127511842005346"><ele>206.0</ele><time>2026-04-18T08:02:05Z</time></trkpt><trkpt lat="39.536708835354545" lon="9.127420397553742"><ele>206.0</ele><time>2026-04-18T08:02:07Z</time></trkpt><trkpt lat="39.536659310142284" lon="9.127348806000242"><ele>206.0</ele><time>2026-04-18T08:02:09Z</time></trkpt><trkpt lat="39.53661277713089" lon="9.12729114795131"><ele>206.0</ele><time>2026-04-18T08:02:11Z</time></trkpt><trkpt lat="39.536437101674125" lon="9.127371830909825"><ele>206.0</ele><time>2026-04-18T08:02:16Z</time></trkpt><trkpt lat="39.53637919086514" lon="9.127460636005582"><ele>206.00000000000003</ele><time>2026-04-18T08:02:17Z</time></trkpt><trkpt lat="39.53633148219514" lon="9.12755015824265"><ele>206.0</ele><time>2026-04-18T08:02:18Z</time></trkpt><trkpt lat="39.53629665036306" lon="9.12763887936478"><ele>206.0</ele><time>2026-04-18T08:02:19Z</time></trkpt><trkpt lat="39.53626792152885" lon="9.127722231279696"><ele>206.0</ele><time>2026-04-18T08:02:20Z</time></trkpt><trkpt lat="39.536239379785485" lon="9.127865306766935"><ele>206.00000000000003</ele><time>2026-04-18T08:02:22Z</time></trkpt><trkpt lat="39.536210192130646" lon="9.127943727382208"><ele>206.0</ele><time>2026-04-18T08:02:24Z</time></trkpt><trkpt lat="39.536238026743476" lon="9.12783604610013"><ele>206.0</ele><time>2026-04-18T08:03:06Z</time></trkpt><trkpt lat="39.536264856122436" lon="9.12770803599498"><ele>206.0</ele><time>2026-04-18T08:03:08Z</time></trkpt><trkpt lat="39.53630266828064" lon="9.127576130928498"><ele>206.0</ele><time>2026-04-18T08:03:10Z</time></trkpt><trkpt lat="39.53633698201663" lon="9.127505113359625"><ele>206.0</ele><time>2026-04-18T08:03:11Z</time></trkpt><trkpt lat="39.536419129142224" lon="9.127388909250431"><ele>206.0</ele><time>2026-04-18T08:03:13Z</time></trkpt><trkpt lat="39.536497579769836" lon="9.127305273857248"><ele>206.00000000000003</ele><time>2026-04-18T08:03:15Z</time></trkpt><trkpt lat="39.53655751181533" lon="9.127240972608224"><ele>206.0</ele><time>2026-04-18T08:03:17Z</time></trkpt><trkpt lat="39.53662381030866" lon="9.127169841309525"><ele>206.0</ele><time>2026-04-18T08:03:19Z</time></trkpt><trkpt lat="39.53669298372467" lon="9.127095626286065"><ele>206.0</ele><time>2026-04-18T08:03:21Z</time></trkpt><trkpt lat="39.536762950335536" lon="9.12702056031735"><ele>206.00000000000003</ele><time>2026-04-18T08:03:23Z</time></trkpt><trkpt lat="39.53684141546388" lon="9.126936376282615"><ele>206.0</ele><time>2026-04-18T08:03:25Z</time></trkpt><trkpt lat="39.536892456176425" lon="9.126881615588417"><ele>206.0</ele><time>2026-04-18T08:03:26Z</time></trkpt><trkpt lat="39.5369834870393" lon="9.126783950025894"><ele>206.0</ele><time>2026-04-18T08:03:28Z</time></trkpt><trkpt lat="39.53704690892735" lon="9.126715905699786"><ele>206.0</ele><time>2026-04-18T08:03:30Z</time></trkpt><trkpt lat="39.536675665382916" lon="9.127100930806902"><ele>206.0</ele><time>2026-04-18T08:03:34Z</time></trkpt><trkpt lat="39.53713055340527" lon="9.126735169330583"><ele>206.0</ele><time>2026-04-18T08:03:37Z</time></trkpt><trkpt lat="39.53701690597656" lon="9.126653269035456"><ele>206.0</ele><time>2026-04-18T08:04:19Z</time></trkpt><trkpt lat="39.536932747859865" lon="9.12664433210827"><ele>206.0</ele><time>2026-04-18T08:04:20Z</time></trkpt><trkpt lat="39.536895591978414" lon="9.12690111398387"><ele>206.0</ele><time>2026-04-18T08:04:21Z</time></trkpt><trkpt lat="39.53683549673078" lon="9.12696827423156"><ele>206.00000000000003</ele><time>2026-04-18T08:04:22Z</time></trkpt><trkpt lat="39.53677552132312" lon="9.127029816931412"><ele>206.0</ele><time>2026-04-18T08:04:23Z</time></trkpt><trkpt lat="39.53668810163799" lon="9.127114081811174"><ele>206.0</ele><time>2026-04-18T08:04:25Z</time></trkpt><trkpt lat="39.5366200343376" lon="9.127136044062661"><ele>206.0</ele><time>2026-04-18T08:04:28Z</time></trkpt><trkpt lat="39.53657077842883" lon="9.12719863009242"><ele>206.00000000000003</ele><time>2026-04-18T08:04:32Z</time></trkpt><trkpt lat="39.53650185586402" lon="9.127114483696214"><ele>206.0</ele><time>2026-04-18T08:04:33Z</time></trkpt><trkpt lat="39.536423631317845" lon="9.127069985635302"><ele>206.00000000000003</ele><time>2026-04-18T08:04:36Z</time></trkpt><trkpt lat="39.536350004934555" lon="9.127055705697577"><ele>206.0</ele><time>2026-04-18T08:04:38Z</time></trkpt><trkpt lat="39.53625075666613" lon="9.12703516066796"><ele>206.0</ele><time>2026-04-18T08:04:40Z</time></trkpt><trkpt lat="39.5361522361714" lon="9.12701256827874"><ele>206.0</ele><time>2026-04-18T08:04:42Z</time></trkpt><trkpt lat="39.53607392220479" lon="9.12699460959468"><ele>206.00000000000003</ele><time>2026-04-18T08:04:52Z</time></trkpt><trkpt lat="39.53602082228661" lon="9.127072072938416"><ele>206.0</ele><time>2026-04-18T08:04:54Z</time></trkpt><trkpt lat="39.53599485716681" lon="9.127182125340418"><ele>205.20000000000002</ele><time>2026-04-18T08:04:56Z</time></trkpt><trkpt lat="39.53593411238996" lon="9.127311804447414"><ele>204.4</ele><time>2026-04-18T08:04:58Z</time></trkpt><trkpt lat="39.53589106821964" lon="9.127436159575515"><ele>203.6</ele><time>2026-04-18T08:05:00Z</time></trkpt><trkpt lat="39.53585979916499" lon="9.127526496265233"><ele>202.8</ele><time>2026-04-18T08:05:03Z</time></trkpt><trkpt lat="39.535833929487445" lon="9.127601233518504"><ele>202.0</ele><time>2026-04-18T08:05:07Z</time></trkpt><trkpt lat="39.53593016015426" lon="9.127709861388704"><ele>202.0</ele><time>2026-04-18T08:05:09Z</time></trkpt><trkpt lat="39.536002235912356" lon="9.127752143148285"><ele>202.0</ele><time>2026-04-18T08:05:10Z</time></trkpt><trkpt lat="39.53606901577407" lon="9.127808707089839"><ele>202.0</ele><time>2026-04-18T08:05:11Z</time></trkpt><trkpt lat="39.536132884625246" lon="9.127863621352711"><ele>202.0</ele><time>2026-04-18T08:05:12Z</time></trkpt><trkpt lat="39.53620261157547" lon="9.127907042101862"><ele>202.0</ele><time>2026-04-18T08:05:14Z</time></trkpt><trkpt lat="39.536306026538135" lon="9.127774086347193"><ele>202.8</ele><time>2026-04-18T08:05:20Z</time></trkpt><trkpt lat="39.53633607910154" lon="9.12763038987283"><ele>203.6</ele><time>2026-04-18T08:05:21Z</time></trkpt><trkpt lat="39.53638185838286" lon="9.127512467666847"><ele>204.4</ele><time>2026-04-18T08:05:22Z</time></trkpt><trkpt lat="39.53645031355494" lon="9.127409251352915"><ele>205.20000000000002</ele><time>2026-04-18T08:05:23Z</time></trkpt><trkpt lat="39.53652458039353" lon="9.127327295322655"><ele>206.0</ele><time>2026-04-18T08:05:24Z</time></trkpt><trkpt lat="39.53657250952013" lon="9.127262981670226"><ele>206.0</ele><time>2026-04-18T08:05:25Z</time></trkpt><trkpt lat="39.5366298712784" lon="9.127207109589122"><ele>206.0</ele><time>2026-04-18T08:05:27Z</time></trkpt><trkpt lat="39.536553263861634" lon="9.127102393480934"><ele>206.0</ele><time>2026-04-18T08:05:28Z</time></trkpt><trkpt lat="39.536441879049804" lon="9.127073524792268"><ele>206.0</ele><time>2026-04-18T08:05:30Z</time></trkpt><trkpt lat="39.53637026273668" lon="9.12705963472207"><ele>206.0</ele><time>2026-04-18T08:05:32Z</time></trkpt><trkpt lat="39.53624626743855" lon="9.127034131215296"><ele>205.16666666666669</ele><time>2026-04-18T08:05:34Z</time></trkpt><trkpt lat="39.53616626709047" lon="9.127015785798676"><ele>204.33333333333334</ele><time>2026-04-18T08:05:36Z</time></trkpt><trkpt lat="39.536094593163384" lon="9.126966636940042"><ele>203.5</ele><time>2026-04-18T08:05:42Z</time></trkpt><trkpt lat="39.536116555759435" lon="9.126796467556836"><ele>202.66666666666669</ele><time>2026-04-18T08:05:44Z</time></trkpt><trkpt lat="39.5361297228244" lon="9.126690882058659"><ele>201.83333333333334</ele><time>2026-04-18T08:05:45Z</time></trkpt><trkpt lat="39.53614168997456" lon="9.126604112305223"><ele>201.0</ele><time>2026-04-18T08:05:46Z</time></trkpt><trkpt lat="39.536154424401" lon="9.126511779442726"><ele>200.25</ele><time>2026-04-18T08:05:49Z</time></trkpt><trkpt lat="39.53599284710417" lon="9.126428425343608"><ele>199.5</ele><time>2026-04-18T08:05:52Z</time></trkpt><trkpt lat="39.53588603108904" lon="9.126397865579913"><ele>198.75</ele><time>2026-04-18T08:05:53Z</time></trkpt><trkpt lat="39.53577590643606" lon="9.126375473568912"><ele>198.0</ele><time>2026-04-18T08:05:54Z</time></trkpt><trkpt lat="39.535682680321784" lon="9.126356517583382"><ele>198.0</ele><time>2026-04-18T08:05:55Z</time></trkpt><trkpt lat="39.535619258375434" lon="9.126343621780672"><ele>198.0</ele><time>2026-04-18T08:05:56Z</time></trkpt><trkpt lat="39.53551231020082" lon="9.126321875754899"><ele>198.0</ele><time>2026-04-18T08:05:59Z</time></trkpt><trkpt lat="39.53544036595379" lon="9.126324688888678"><ele>198.0</ele><time>2026-04-18T08:06:00Z</time></trkpt><trkpt lat="39.535359523037066" lon="9.12631215764593"><ele>198.0</ele><time>2026-04-18T08:06:01Z</time></trkpt><trkpt lat="39.53526127372021" lon="9.126270543442875"><ele>198.0</ele><time>2026-04-18T08:06:02Z</time></trkpt><trkpt lat="39.53514422394577" lon="9.126246620932731"><ele>196.0</ele><time>2026-04-18T08:06:03Z</time></trkpt><trkpt lat="39.53502407167239" lon="9.126221660048314"><ele>194.0</ele><time>2026-04-18T08:06:04Z</time></trkpt><trkpt lat="39.53491232503328" lon="9.126198445392223"><ele>192.0</ele><time>2026-04-18T08:06:05Z</time></trkpt><trkpt lat="39.5348207226188" lon="9.126179415571423"><ele>190.0</ele><time>2026-04-18T08:06:06Z</time></trkpt><trkpt lat="39.53474598605897" lon="9.126185206103925"><ele>188.0</ele><time>2026-04-18T08:06:07Z</time></trkpt><trkpt lat="39.53466805098904" lon="9.126121727503435"><ele>188.0</ele><time>2026-04-18T08:06:10Z</time></trkpt><trkpt lat="39.5346147144189" lon="9.126000057114796"><ele>188.0</ele><time>2026-04-18T08:06:12Z</time></trkpt><trkpt lat="39.53459224037869" lon="9.125902240762192"><ele>188.0</ele><time>2026-04-18T08:06:13Z</time></trkpt><trkpt lat="39.53455741665765" lon="9.125788749200543"><ele>188.0</ele><time>2026-04-18T08:06:14Z</time></trkpt><trkpt lat="39.534520976330164" lon="9.125675247254547"><ele>188.0</ele><time>2026-04-18T08:06:15Z</time></trkpt><trkpt lat="39.53448012170743" lon="9.125561646656136"><ele>186.8</ele><time>2026-04-18T08:06:16Z</time></trkpt><trkpt lat="39.53443826107088" lon="9.125438165908625"><ele>185.60000000000002</ele><time>2026-04-18T08:06:17Z</time></trkpt><trkpt lat="39.53440206129137" lon="9.125307480397272"><ele>184.39999999999998</ele><time>2026-04-18T08:06:18Z</time></trkpt><trkpt lat="39.534368193349366" lon="9.125177465819647"><ele>183.2</ele><time>2026-04-18T08:06:19Z</time></trkpt><trkpt lat="39.53433490149959" lon="9.125061459486119"><ele>182.0</ele><time>2026-04-18T08:06:20Z</time></trkpt><trkpt lat="39.534305956498905" lon="9.12496034579407"><ele>182.0</ele><time>2026-04-18T08:06:21Z</time></trkpt><trkpt lat="39.53427860312832" lon="9.124849167522127"><ele>182.0</ele><time>2026-04-18T08:06:22Z</time></trkpt><trkpt lat="39.53424209468425" lon="9.124730077237166"><ele>182.0</ele><time>2026-04-18T08:06:23Z</time></trkpt><trkpt lat="39.53419849856696" lon="9.124614517287489"><ele>182.0</ele><time>2026-04-18T08:06:24Z</time></trkpt><trkpt lat="39.534159482795346" lon="9.1245068472224"><ele>182.0</ele><time>2026-04-18T08:06:25Z</time></trkpt><trkpt lat="39.53412507070541" lon="9.124395384715317"><ele>182.0</ele><time>2026-04-18T08:06:26Z</time></trkpt><trkpt lat="39.534093484645425" lon="9.124279414289079"><ele>182.0</ele><time>2026-04-18T08:06:27Z</time></trkpt><trkpt lat="39.534056865303576" lon="9.124152979185743"><ele>182.0</ele><time>2026-04-18T08:06:28Z</time></trkpt><trkpt lat="39.53401631717619" lon="9.124020053923463"><ele>182.0</ele><time>2026-04-18T08:06:29Z</time></trkpt><trkpt lat="39.533973096064194" lon="9.123881783246022"><ele>182.0</ele><time>2026-04-18T08:06:30Z</time></trkpt><trkpt lat="39.5339284929842" lon="9.1237370866615"><ele>182.25</ele><time>2026-04-18T08:06:31Z</time></trkpt><trkpt lat="39.53388334619113" lon="9.123587556370618"><ele>182.5</ele><time>2026-04-18T08:06:32Z</time></trkpt><trkpt lat="39.53383877143007" lon="9.123430386692277"><ele>182.75</ele><time>2026-04-18T08:06:33Z</time></trkpt><trkpt lat="39.533793323592484" lon="9.123273351738673"><ele>183.0</ele><time>2026-04-18T08:06:34Z</time></trkpt><trkpt lat="39.533745266512476" lon="9.12311042261055"><ele>180.75</ele><time>2026-04-18T08:06:35Z</time></trkpt><trkpt lat="39.533693288915266" lon="9.122947607532103"><ele>178.5</ele><time>2026-04-18T08:06:36Z</time></trkpt><trkpt lat="39.53364164951686" lon="9.122779088602941"><ele>176.25</ele><time>2026-04-18T08:06:37Z</time></trkpt><trkpt lat="39.533590356946604" lon="9.122610010995858"><ele>174.0</ele><time>2026-04-18T08:06:38Z</time></trkpt><trkpt lat="39.53354141907372" lon="9.122436285605666"><ele>174.75</ele><time>2026-04-18T08:06:39Z</time></trkpt><trkpt lat="39.53348650261741" lon="9.122262481933946"><ele>175.5</ele><time>2026-04-18T08:06:40Z</time></trkpt><trkpt lat="39.53342895881148" lon="9.122084823415053"><ele>176.25</ele><time>2026-04-18T08:06:41Z</time></trkpt><trkpt lat="39.53337543888477" lon="9.121903485487975"><ele>177.0</ele><time>2026-04-18T08:06:42Z</time></trkpt><trkpt lat="39.53332615049786" lon="9.12172540178062"><ele>176.0</ele><time>2026-04-18T08:06:43Z</time></trkpt><trkpt lat="39.53328378812859" lon="9.121536774378436"><ele>175.0</ele><time>2026-04-18T08:06:44Z</time></trkpt><trkpt lat="39.53325409523121" lon="9.121336544345075"><ele>174.0</ele><time>2026-04-18T08:06:45Z</time></trkpt><trkpt lat="39.53323075232809" lon="9.12113226110864"><ele>174.0</ele><time>2026-04-18T08:06:46Z</time></trkpt><trkpt lat="39.53321688859629" lon="9.12092085150287"><ele>174.0</ele><time>2026-04-18T08:06:47Z</time></trkpt><trkpt lat="39.53321983699805" lon="9.12070722173244"><ele>174.0</ele><time>2026-04-18T08:06:48Z</time></trkpt><trkpt lat="39.53324050362801" lon="9.120491610447338"><ele>173.0</ele><time>2026-04-18T08:06:49Z</time></trkpt><trkpt lat="39.53327383886066" lon="9.1202668582257"><ele>172.0</ele><time>2026-04-18T08:06:50Z</time></trkpt><trkpt lat="39.533311251593354" lon="9.120040984035615"><ele>171.0</ele><time>2026-04-18T08:06:51Z</time></trkpt><trkpt lat="39.53333212408061" lon="9.11982183725901"><ele>169.66666666666666</ele><time>2026-04-18T08:06:52Z</time></trkpt><trkpt lat="39.53337549129219" lon="9.119589892971257"><ele>168.33333333333331</ele><time>2026-04-18T08:06:53Z</time></trkpt><trkpt lat="39.533423080626186" lon="9.119361887827676"><ele>167.0</ele><time>2026-04-18T08:06:54Z</time></trkpt><trkpt lat="39.533467580686036" lon="9.119133699726062"><ele>167.0</ele><time>2026-04-18T08:06:55Z</time></trkpt><trkpt lat="39.53351043365365" lon="9.11890207661831"><ele>167.0</ele><time>2026-04-18T08:06:56Z</time></trkpt><trkpt lat="39.53355347802864" lon="9.118675217355385"><ele>167.0</ele><time>2026-04-18T08:06:57Z</time></trkpt><trkpt lat="39.53359380112511" lon="9.118450394992024"><ele>166.0</ele><time>2026-04-18T08:06:58Z</time></trkpt><trkpt lat="39.53363493733987" lon="9.118226825153181"><ele>165.0</ele><time>2026-04-18T08:06:59Z</time></trkpt><trkpt lat="39.533675678305116" lon="9.118003401402044"><ele>164.0</ele><time>2026-04-18T08:07:00Z</time></trkpt><trkpt lat="39.53372001823849" lon="9.1177786533325"><ele>165.0</ele><time>2026-04-18T08:07:01Z</time></trkpt><trkpt lat="39.53376178944115" lon="9.117551969897594"><ele>166.0</ele><time>2026-04-18T08:07:02Z</time></trkpt><trkpt lat="39.53380434160353" lon="9.117328311542465"><ele>167.0</ele><time>2026-04-18T08:07:03Z</time></trkpt><trkpt lat="39.53384585727499" lon="9.117108178966538"><ele>167.0</ele><time>2026-04-18T08:07:04Z</time></trkpt><trkpt lat="39.53388214029362" lon="9.116903906295923"><ele>167.0</ele><time>2026-04-18T08:07:05Z</time></trkpt><trkpt lat="39.53391572645992" lon="9.116724156977492"><ele>167.0</ele><time>2026-04-18T08:07:06Z</time></trkpt><trkpt lat="39.533943912622725" lon="9.116572515486009"><ele>167.0</ele><time>2026-04-18T08:07:07Z</time></trkpt><trkpt lat="39.533969458743925" lon="9.116440920883647"><ele>166.6</ele><time>2026-04-18T08:07:08Z</time></trkpt><trkpt lat="39.53399369257675" lon="9.116321099013769"><ele>166.2</ele><time>2026-04-18T08:07:09Z</time></trkpt><trkpt lat="39.53401734861859" lon="9.116219562751958"><ele>165.8</ele><time>2026-04-18T08:07:10Z</time></trkpt><trkpt lat="39.53405934494471" lon="9.116091606735615"><ele>165.4</ele><time>2026-04-18T08:07:12Z</time></trkpt><trkpt lat="39.53416078198167" lon="9.116012011567644"><ele>165.0</ele><time>2026-04-18T08:07:14Z</time></trkpt><trkpt lat="39.53424003760812" lon="9.115958551894401"><ele>165.0</ele><time>2026-04-18T08:07:15Z</time></trkpt><trkpt lat="39.534317483854274" lon="9.115907225002557"><ele>165.0</ele><time>2026-04-18T08:07:16Z</time></trkpt><trkpt lat="39.53437744978026" lon="9.115818539174876"><ele>165.0</ele><time>2026-04-18T08:07:17Z</time></trkpt><trkpt lat="39.53441302700503" lon="9.115714680927686"><ele>165.0</ele><time>2026-04-18T08:07:18Z</time></trkpt><trkpt lat="39.53442716198044" lon="9.11560162643498"><ele>165.0</ele><time>2026-04-18T08:07:19Z</time></trkpt><trkpt lat="39.534413731075624" lon="9.115489691673833"><ele>165.0</ele><time>2026-04-18T08:07:20Z</time></trkpt><trkpt lat="39.53438283151308" lon="9.115381959466967"><ele>164.25</ele><time>2026-04-18T08:07:21Z</time></trkpt><trkpt lat="39.534332761618586" lon="9.115274347568976"><ele>163.5</ele><time>2026-04-18T08:07:22Z</time></trkpt><trkpt lat="39.534270509702026" lon="9.115157358954434"><ele>162.75</ele><time>2026-04-18T08:07:23Z</time></trkpt><trkpt lat="39.534182417463526" lon="9.11512332958039"><ele>162.0</ele><time>2026-04-18T08:07:24Z</time></trkpt><trkpt lat="39.53426958467263" lon="9.114865179334696"><ele>161.25</ele><time>2026-04-18T08:07:25Z</time></trkpt><trkpt lat="39.53428843374972" lon="9.11468127291501"><ele>160.5</ele><time>2026-04-18T08:07:26Z</time></trkpt><trkpt lat="39.534338152832945" lon="9.11450891913144"><ele>159.75</ele><time>2026-04-18T08:07:27Z</time></trkpt><trkpt lat="39.53437114862195" lon="9.114317816857483"><ele>159.0</ele><time>2026-04-18T08:07:28Z</time></trkpt><trkpt lat="39.53440445386206" lon="9.114109261318111"><ele>159.0</ele><time>2026-04-18T08:07:29Z</time></trkpt><trkpt lat="39.53444162292669" lon="9.113891124620045"><ele>159.0</ele><time>2026-04-18T08:07:30Z</time></trkpt><trkpt lat="39.53448355325462" lon="9.11366767531085"><ele>159.0</ele><time>2026-04-18T08:07:31Z</time></trkpt><trkpt lat="39.53452613673235" lon="9.113444018601108"><ele>159.0</ele><time>2026-04-18T08:07:32Z</time></trkpt><trkpt lat="39.53456948137082" lon="9.113210909061939"><ele>159.0</ele><time>2026-04-18T08:07:33Z</time></trkpt><trkpt lat="39.5346117232555" lon="9.112978914847876"><ele>159.0</ele><time>2026-04-18T08:07:34Z</time></trkpt><trkpt lat="39.53465522799904" lon="9.112743729619629"><ele>159.0</ele><time>2026-04-18T08:07:35Z</time></trkpt><trkpt lat="39.5346993935412" lon="9.112501773483336"><ele>159.0</ele><time>2026-04-18T08:07:36Z</time></trkpt><trkpt lat="39.53474459762297" lon="9.112260464709305"><ele>159.0</ele><time>2026-04-18T08:07:37Z</time></trkpt><trkpt lat="39.534791963457465" lon="9.11201444779106"><ele>159.33333333333334</ele><time>2026-04-18T08:07:38Z</time></trkpt><trkpt lat="39.534839557932806" lon="9.11176593304287"><ele>159.66666666666669</ele><time>2026-04-18T08:07:39Z</time></trkpt><trkpt lat="39.53488589491961" lon="9.111515059435662"><ele>160.0</ele><time>2026-04-18T08:07:40Z</time></trkpt><trkpt lat="39.53493057147363" lon="9.111261285796125"><ele>160.33333333333334</ele><time>2026-04-18T08:07:41Z</time></trkpt><trkpt lat="39.5349753671353" lon="9.111006009534384"><ele>160.66666666666666</ele><time>2026-04-18T08:07:42Z</time></trkpt><trkpt lat="39.53502195977042" lon="9.110748035137519"><ele>161.0</ele><time>2026-04-18T08:07:43Z</time></trkpt><trkpt lat="39.53506946548104" lon="9.110490273220735"><ele>160.66666666666666</ele><time>2026-04-18T08:07:44Z</time></trkpt><trkpt lat="39.535119871910595" lon="9.11023280409462"><ele>160.33333333333334</ele><time>2026-04-18T08:07:45Z</time></trkpt><trkpt lat="39.53517055673718" lon="9.109971453147375"><ele>160.0</ele><time>2026-04-18T08:07:46Z</time></trkpt><trkpt lat="39.53521662519376" lon="9.10970605033711"><ele>160.0</ele><time>2026-04-18T08:07:47Z</time></trkpt><trkpt lat="39.53526074831364" lon="9.109434900378583"><ele>160.0</ele><time>2026-04-18T08:07:48Z</time></trkpt><trkpt lat="39.53530375426951" lon="9.109161817366235"><ele>160.0</ele><time>2026-04-18T08:07:49Z</time></trkpt><trkpt lat="39.535347063872514" lon="9.108888680125633"><ele>159.66666666666669</ele><time>2026-04-18T08:07:50Z</time></trkpt><trkpt lat="39.535391435822895" lon="9.108613013327327"><ele>159.33333333333334</ele><time>2026-04-18T08:07:51Z</time></trkpt><trkpt lat="39.53543586135141" lon="9.108336012623507"><ele>159.0</ele><time>2026-04-18T08:07:52Z</time></trkpt><trkpt lat="39.535480021416014" lon="9.108057899136556"><ele>159.0</ele><time>2026-04-18T08:07:53Z</time></trkpt><trkpt lat="39.53552414437443" lon="9.107779036589324"><ele>159.0</ele><time>2026-04-18T08:07:54Z</time></trkpt><trkpt lat="39.53556832472106" lon="9.107500745453384"><ele>159.0</ele><time>2026-04-18T08:07:55Z</time></trkpt><trkpt lat="39.53561211368324" lon="9.107220968949981"><ele>159.33333333333334</ele><time>2026-04-18T08:07:56Z</time></trkpt><trkpt lat="39.53565633999396" lon="9.10694110680991"><ele>159.66666666666669</ele><time>2026-04-18T08:07:57Z</time></trkpt><trkpt lat="39.53570216535822" lon="9.106663520731964"><ele>160.0</ele><time>2026-04-18T08:07:58Z</time></trkpt><trkpt lat="39.53574818548307" lon="9.106384162395159"><ele>160.0</ele><time>2026-04-18T08:07:59Z</time></trkpt><trkpt lat="39.53579347541425" lon="9.106099922889117"><ele>160.0</ele><time>2026-04-18T08:08:00Z</time></trkpt><trkpt lat="39.5358383661767" lon="9.10581938575385"><ele>160.0</ele><time>2026-04-18T08:08:01Z</time></trkpt><trkpt lat="39.535885581512225" lon="9.105531890348352"><ele>160.0</ele><time>2026-04-18T08:08:02Z</time></trkpt><trkpt lat="39.535932322688254" lon="9.105247496121637"><ele>160.0</ele><time>2026-04-18T08:08:03Z</time></trkpt><trkpt lat="39.53597902747077" lon="9.104958724967751"><ele>159.5</ele><time>2026-04-18T08:08:04Z</time></trkpt><trkpt lat="39.536023539114176" lon="9.104672520199447"><ele>159.0</ele><time>2026-04-18T08:08:05Z</time></trkpt><trkpt lat="39.536068797435846" lon="9.104384869951788"><ele>159.0</ele><time>2026-04-18T08:08:06Z</time></trkpt><trkpt lat="39.536113723626016" lon="9.1040969292545"><ele>159.0</ele><time>2026-04-18T08:08:07Z</time></trkpt><trkpt lat="39.53616051523147" lon="9.103812372330765"><ele>159.0</ele><time>2026-04-18T08:08:08Z</time></trkpt><trkpt lat="39.536205792115396" lon="9.103526678105128"><ele>159.0</ele><time>2026-04-18T08:08:09Z</time></trkpt><trkpt lat="39.536250950309636" lon="9.103241865462778"><ele>159.0</ele><time>2026-04-18T08:08:10Z</time></trkpt><trkpt lat="39.536295117874836" lon="9.102953103322395"><ele>160.0</ele><time>2026-04-18T08:08:11Z</time></trkpt><trkpt lat="39.53634380868964" lon="9.102668955456883"><ele>161.0</ele><time>2026-04-18T08:08:12Z</time></trkpt><trkpt lat="39.53638478855527" lon="9.102376337500056"><ele>161.0</ele><time>2026-04-18T08:08:13Z</time></trkpt><trkpt lat="39.536431382587395" lon="9.102089715032871"><ele>161.0</ele><time>2026-04-18T08:08:14Z</time></trkpt><trkpt lat="39.53647609593891" lon="9.10179624703009"><ele>161.5</ele><time>2026-04-18T08:08:15Z</time></trkpt><trkpt lat="39.536523908242884" lon="9.101509248990967"><ele>162.0</ele><time>2026-04-18T08:08:16Z</time></trkpt><trkpt lat="39.53657025401744" lon="9.101217942576364"><ele>162.0</ele><time>2026-04-18T08:08:17Z</time></trkpt><trkpt lat="39.536618225373935" lon="9.100925919177092"><ele>162.0</ele><time>2026-04-18T08:08:18Z</time></trkpt><trkpt lat="39.53666374051828" lon="9.100634134162906"><ele>161.0</ele><time>2026-04-18T08:08:19Z</time></trkpt><trkpt lat="39.53670916429889" lon="9.100338219597617"><ele>160.0</ele><time>2026-04-18T08:08:20Z</time></trkpt><trkpt lat="39.53675795379939" lon="9.1000442241061"><ele>159.0</ele><time>2026-04-18T08:08:21Z</time></trkpt><trkpt lat="39.53680609650679" lon="9.099751122075954"><ele>158.0</ele><time>2026-04-18T08:08:22Z</time></trkpt><trkpt lat="39.53685386815143" lon="9.099454596666984"><ele>158.0</ele><time>2026-04-18T08:08:23Z</time></trkpt><trkpt lat="39.53690015984089" lon="9.099158824359998"><ele>158.0</ele><time>2026-04-18T08:08:24Z</time></trkpt><trkpt lat="39.53694701691875" lon="9.098860192400888"><ele>157.5</ele><time>2026-04-18T08:08:25Z</time></trkpt><trkpt lat="39.536993094234944" lon="9.098562024840929"><ele>157.0</ele><time>2026-04-18T08:08:26Z</time></trkpt><trkpt lat="39.537040930922466" lon="9.098262401217141"><ele>158.0</ele><time>2026-04-18T08:08:27Z</time></trkpt><trkpt lat="39.5370891434678" lon="9.097959125666101"><ele>159.0</ele><time>2026-04-18T08:08:28Z</time></trkpt><trkpt lat="39.537137474499694" lon="9.097657425454837"><ele>158.5</ele><time>2026-04-18T08:08:29Z</time></trkpt><trkpt lat="39.53718551683033" lon="9.09735336519998"><ele>158.0</ele><time>2026-04-18T08:08:30Z</time></trkpt><trkpt lat="39.53723255959804" lon="9.097047770535847"><ele>158.0</ele><time>2026-04-18T08:08:31Z</time></trkpt><trkpt lat="39.53728042958392" lon="9.096747111492501"><ele>158.0</ele><time>2026-04-18T08:08:32Z</time></trkpt><trkpt lat="39.53732745258067" lon="9.096443822848002"><ele>158.5</ele><time>2026-04-18T08:08:33Z</time></trkpt><trkpt lat="39.53737514235521" lon="9.09614501974826"><ele>159.0</ele><time>2026-04-18T08:08:34Z</time></trkpt><trkpt lat="39.53742314780626" lon="9.095840201568103"><ele>159.0</ele><time>2026-04-18T08:08:35Z</time></trkpt><trkpt lat="39.53746978852882" lon="9.09554789740587"><ele>159.0</ele><time>2026-04-18T08:08:36Z</time></trkpt><trkpt lat="39.53751527682404" lon="9.095249531395059"><ele>159.0</ele><time>2026-04-18T08:08:37Z</time></trkpt><trkpt lat="39.53755972795915" lon="9.094948774262813"><ele>159.0</ele><time>2026-04-18T08:08:38Z</time></trkpt><trkpt lat="39.53760538516986" lon="9.094649233369298"><ele>159.5</ele><time>2026-04-18T08:08:39Z</time></trkpt><trkpt lat="39.53765401483867" lon="9.0943530978612"><ele>160.0</ele><time>2026-04-18T08:08:40Z</time></trkpt><trkpt lat="39.53770014177983" lon="9.094055885069885"><ele>160.0</ele><time>2026-04-18T08:08:41Z</time></trkpt><trkpt lat="39.53774892479732" lon="9.0937592824513"><ele>160.0</ele><time>2026-04-18T08:08:42Z</time></trkpt><trkpt lat="39.53779307327419" lon="9.093462238209616"><ele>160.5</ele><time>2026-04-18T08:08:43Z</time></trkpt><trkpt lat="39.53783927312542" lon="9.093171855246752"><ele>161.0</ele><time>2026-04-18T08:08:44Z</time></trkpt><trkpt lat="39.537882977479775" lon="9.092889902064956"><ele>161.66666666666666</ele><time>2026-04-18T08:08:45Z</time></trkpt><trkpt lat="39.53793147182256" lon="9.092612703207449"><ele>162.33333333333334</ele><time>2026-04-18T08:08:46Z</time></trkpt><trkpt lat="39.53798111860104" lon="9.09233661861714"><ele>163.0</ele><time>2026-04-18T08:08:47Z</time></trkpt><trkpt lat="39.53802906979881" lon="9.09206299456486"><ele>163.0</ele><time>2026-04-18T08:08:48Z</time></trkpt><trkpt lat="39.5380700947265" lon="9.091806136188298"><ele>163.0</ele><time>2026-04-18T08:08:49Z</time></trkpt><trkpt lat="39.538113617862386" lon="9.091555902598719"><ele>163.0</ele><time>2026-04-18T08:08:50Z</time></trkpt><trkpt lat="39.53816857083412" lon="9.091324369297746"><ele>163.0</ele><time>2026-04-18T08:08:51Z</time></trkpt><trkpt lat="39.53824254783859" lon="9.09111594493434"><ele>163.0</ele><time>2026-04-18T08:08:52Z</time></trkpt><trkpt lat="39.538338718395146" lon="9.090922654130313"><ele>163.0</ele><time>2026-04-18T08:08:53Z</time></trkpt><trkpt lat="39.53845175506646" lon="9.090735426986964"><ele>163.66666666666669</ele><time>2026-04-18T08:08:54Z</time></trkpt><trkpt lat="39.53857255987125" lon="9.090545138066354"><ele>164.33333333333334</ele><time>2026-04-18T08:08:55Z</time></trkpt><trkpt lat="39.538692643614105" lon="9.090350387384433"><ele>165.0</ele><time>2026-04-18T08:08:56Z</time></trkpt><trkpt lat="39.53881409679362" lon="9.090147920337431"><ele>165.0</ele><time>2026-04-18T08:08:57Z</time></trkpt><trkpt lat="39.53893349292124" lon="9.089943393675137"><ele>165.0</ele><time>2026-04-18T08:08:58Z</time></trkpt><trkpt lat="39.53904494210417" lon="9.089748212013912"><ele>165.0</ele><time>2026-04-18T08:08:59Z</time></trkpt><trkpt lat="39.539135390984036" lon="9.089553101200124"><ele>163.33333333333334</ele><time>2026-04-18T08:09:00Z</time></trkpt><trkpt lat="39.53919702935336" lon="9.089351240114171"><ele>161.66666666666669</ele><time>2026-04-18T08:09:01Z</time></trkpt><trkpt lat="39.539222738297944" lon="9.089139277153937"><ele>160.0</ele><time>2026-04-18T08:09:02Z</time></trkpt><trkpt lat="39.53922353907679" lon="9.08892669409944"><ele>159.5</ele><time>2026-04-18T08:09:03Z</time></trkpt><trkpt lat="39.53921742007884" lon="9.088728519320162"><ele>159.0</ele><time>2026-04-18T08:09:04Z</time></trkpt><trkpt lat="39.53922053454599" lon="9.088540464172416"><ele>158.5</ele><time>2026-04-18T08:09:05Z</time></trkpt><trkpt lat="39.5392255672525" lon="9.088367775818801"><ele>158.0</ele><time>2026-04-18T08:09:06Z</time></trkpt><trkpt lat="39.5392243384771" lon="9.088211768320134"><ele>158.0</ele><time>2026-04-18T08:09:07Z</time></trkpt><trkpt lat="39.53922349234051" lon="9.088076973798957"><ele>158.0</ele><time>2026-04-18T08:09:08Z</time></trkpt><trkpt lat="39.53922749124654" lon="9.087965444754424"><ele>158.0</ele><time>2026-04-18T08:09:09Z</time></trkpt><trkpt lat="39.53923663496439" lon="9.087880745420186"><ele>158.0</ele><time>2026-04-18T08:09:10Z</time></trkpt><trkpt lat="39.53928196406298" lon="9.087822236368652"><ele>158.0</ele><time>2026-04-18T08:09:13Z</time></trkpt><trkpt lat="39.53933513390064" lon="9.087871476992518"><ele>158.0</ele><time>2026-04-18T08:12:36Z</time></trkpt><trkpt lat="39.53940060334339" lon="9.087876748056106"><ele>158.00000000000003</ele><time>2026-04-18T08:12:42Z</time></trkpt><trkpt lat="39.53934395268813" lon="9.087835729719593"><ele>158.0</ele><time>2026-04-18T08:23:04Z</time></trkpt><trkpt lat="39.539277174694334" lon="9.087820771008186"><ele>158.0</ele><time>2026-04-18T08:35:06Z</time></trkpt><trkpt lat="39.53923680952129" lon="9.087750645149256"><ele>158.0</ele><time>2026-04-18T08:38:05Z</time></trkpt><trkpt lat="39.53924450821934" lon="9.08764833651389"><ele>158.0</ele><time>2026-04-18T08:38:08Z</time></trkpt><trkpt lat="39.539248107302775" lon="9.087543653919557"><ele>158.00000000000003</ele><time>2026-04-18T08:38:10.999Z</time></trkpt><trkpt lat="39.539247397200945" lon="9.08745718141972"><ele>158.0</ele><time>2026-04-18T08:38:12.999Z</time></trkpt><trkpt lat="39.53924180002164" lon="9.087372639040948"><ele>157.8</ele><time>2026-04-18T08:38:14.999Z</time></trkpt><trkpt lat="39.53924935693815" lon="9.087277536421489"><ele>157.60000000000002</ele><time>2026-04-18T08:38:16.999Z</time></trkpt><trkpt lat="39.539258639704116" lon="9.087164163959438"><ele>157.39999999999998</ele><time>2026-04-18T08:38:18.999Z</time></trkpt><trkpt lat="39.53926099946015" lon="9.087027309800986"><ele>157.2</ele><time>2026-04-18T08:38:20.999Z</time></trkpt><trkpt lat="39.53925610448641" lon="9.086885672714784"><ele>157.0</ele><time>2026-04-18T08:38:22.999Z</time></trkpt><trkpt lat="39.539257027977804" lon="9.086744805391236"><ele>157.0</ele><time>2026-04-18T08:38:24.999Z</time></trkpt><trkpt lat="39.53926011077477" lon="9.086600206043398"><ele>157.0</ele><time>2026-04-18T08:38:26.999Z</time></trkpt><trkpt lat="39.539259749196646" lon="9.086480079742254"><ele>157.0</ele><time>2026-04-18T08:38:28.999Z</time></trkpt><trkpt lat="39.53926221725327" lon="9.086357359322282"><ele>157.0</ele><time>2026-04-18T08:38:30.999Z</time></trkpt><trkpt lat="39.539264482328974" lon="9.08622291316388"><ele>157.0</ele><time>2026-04-18T08:38:32.999Z</time></trkpt><trkpt lat="39.539265261718704" lon="9.086078340568415"><ele>157.0</ele><time>2026-04-18T08:38:34.999Z</time></trkpt><trkpt lat="39.53926848914326" lon="9.085924430413165"><ele>157.0</ele><time>2026-04-18T08:38:36.999Z</time></trkpt><trkpt lat="39.53927194969695" lon="9.085836534165312"><ele>157.0</ele><time>2026-04-18T08:38:37.999Z</time></trkpt><trkpt lat="39.539272862259544" lon="9.085740852522886"><ele>157.0</ele><time>2026-04-18T08:38:38.999Z</time></trkpt><trkpt lat="39.5392723596225" lon="9.085637264118109"><ele>157.0</ele><time>2026-04-18T08:38:39.999Z</time></trkpt><trkpt lat="39.53927310154624" lon="9.085527103749701"><ele>157.0</ele><time>2026-04-18T08:38:40.999Z</time></trkpt><trkpt lat="39.539275346468045" lon="9.085417442673927"><ele>157.2</ele><time>2026-04-18T08:38:41.999Z</time></trkpt><trkpt lat="39.539276891951616" lon="9.085307964652019"><ele>157.39999999999998</ele><time>2026-04-18T08:38:42.999Z</time></trkpt><trkpt lat="39.539276540581604" lon="9.08519263513762"><ele>157.60000000000002</ele><time>2026-04-18T08:38:43.999Z</time></trkpt><trkpt lat="39.53927768923581" lon="9.085074969686762"><ele>157.8</ele><time>2026-04-18T08:38:44.999Z</time></trkpt><trkpt lat="39.539282313217036" lon="9.084953221966138"><ele>158.0</ele><time>2026-04-18T08:38:45.999Z</time></trkpt><trkpt lat="39.53928748762686" lon="9.084831396882795"><ele>159.0</ele><time>2026-04-18T08:38:46.999Z</time></trkpt><trkpt lat="39.539288184065875" lon="9.084706822060058"><ele>160.0</ele><time>2026-04-18T08:38:47.999Z</time></trkpt><trkpt lat="39.53928995614245" lon="9.084583072653027"><ele>161.0</ele><time>2026-04-18T08:38:48.999Z</time></trkpt><trkpt lat="39.539291681863276" lon="9.084459515485289"><ele>162.0</ele><time>2026-04-18T08:38:49.999Z</time></trkpt><trkpt lat="39.53929233171855" lon="9.084335056810874"><ele>163.0</ele><time>2026-04-18T08:38:50.999Z</time></trkpt><trkpt lat="39.53929388217393" lon="9.084212575228598"><ele>163.2</ele><time>2026-04-18T08:38:51.999Z</time></trkpt><trkpt lat="39.539295888826324" lon="9.084091243699884"><ele>163.4</ele><time>2026-04-18T08:38:52.999Z</time></trkpt><trkpt lat="39.53929880369116" lon="9.083969901913513"><ele>163.6</ele><time>2026-04-18T08:38:53.999Z</time></trkpt><trkpt lat="39.53930183252769" lon="9.083847919996897"><ele>163.79999999999998</ele><time>2026-04-18T08:38:54.999Z</time></trkpt><trkpt lat="39.53930167491246" lon="9.083721224904206"><ele>164.0</ele><time>2026-04-18T08:38:55.999Z</time></trkpt><trkpt lat="39.53930473173955" lon="9.083591711947157"><ele>164.0</ele><time>2026-04-18T08:38:56.999Z</time></trkpt><trkpt lat="39.539322066519006" lon="9.083472278416929"><ele>164.0</ele><time>2026-04-18T08:38:57.999Z</time></trkpt><trkpt lat="39.53935123424526" lon="9.083359580846693"><ele>164.0</ele><time>2026-04-18T08:38:58.999Z</time></trkpt><trkpt lat="39.539402318440374" lon="9.083259261862393"><ele>164.0</ele><time>2026-04-18T08:38:59.999Z</time></trkpt><trkpt lat="39.539470981382216" lon="9.0831770325686"><ele>164.0</ele><time>2026-04-18T08:39:00.999Z</time></trkpt><trkpt lat="39.539552117676784" lon="9.083115556217251"><ele>163.79999999999998</ele><time>2026-04-18T08:39:01.999Z</time></trkpt><trkpt lat="39.53964069468141" lon="9.083057751520483"><ele>163.6</ele><time>2026-04-18T08:39:02.999Z</time></trkpt><trkpt lat="39.53973487967182" lon="9.083000252013951"><ele>163.4</ele><time>2026-04-18T08:39:03.999Z</time></trkpt><trkpt lat="39.53983194250247" lon="9.082938032473928"><ele>163.2</ele><time>2026-04-18T08:39:04.999Z</time></trkpt><trkpt lat="39.53993322647559" lon="9.082878219701154"><ele>163.0</ele><time>2026-04-18T08:39:05.999Z</time></trkpt><trkpt lat="39.54003888175685" lon="9.082818590579713"><ele>163.0</ele><time>2026-04-18T08:39:06.999Z</time></trkpt><trkpt lat="39.54014513477812" lon="9.082755792869087"><ele>163.0</ele><time>2026-04-18T08:39:07.999Z</time></trkpt><trkpt lat="39.54025062825996" lon="9.082682292757791"><ele>163.0</ele><time>2026-04-18T08:39:08.999Z</time></trkpt><trkpt lat="39.54035259634343" lon="9.082598311945356"><ele>163.0</ele><time>2026-04-18T08:39:09.999Z</time></trkpt><trkpt lat="39.54045113203949" lon="9.082501940963047"><ele>163.75</ele><time>2026-04-18T08:39:10.999Z</time></trkpt><trkpt lat="39.54053992362258" lon="9.0823866916025"><ele>164.5</ele><time>2026-04-18T08:39:11.999Z</time></trkpt><trkpt lat="39.54062136420811" lon="9.082260184998505"><ele>165.25</ele><time>2026-04-18T08:39:12.999Z</time></trkpt><trkpt lat="39.54069907926076" lon="9.082127091715316"><ele>166.0</ele><time>2026-04-18T08:39:13.999Z</time></trkpt><trkpt lat="39.5407742385957" lon="9.08199125387236"><ele>166.0</ele><time>2026-04-18T08:39:14.999Z</time></trkpt><trkpt lat="39.54084814332938" lon="9.081857659072446"><ele>166.0</ele><time>2026-04-18T08:39:15.999Z</time></trkpt><trkpt lat="39.54092233448481" lon="9.081725976808794"><ele>166.0</ele><time>2026-04-18T08:39:16.999Z</time></trkpt><trkpt lat="39.540994096378974" lon="9.081597432906008"><ele>166.0</ele><time>2026-04-18T08:39:17.999Z</time></trkpt><trkpt lat="39.541062872444535" lon="9.08146831717239"><ele>165.25</ele><time>2026-04-18T08:39:18.999Z</time></trkpt><trkpt lat="39.541125791893606" lon="9.081340948671885"><ele>164.5</ele><time>2026-04-18T08:39:19.999Z</time></trkpt><trkpt lat="39.54118214535297" lon="9.081211716684516"><ele>163.75</ele><time>2026-04-18T08:39:20.999Z</time></trkpt><trkpt lat="39.54123192552374" lon="9.081079384623331"><ele>163.0</ele><time>2026-04-18T08:39:21.999Z</time></trkpt><trkpt lat="39.54127609856961" lon="9.080945398864241"><ele>163.75</ele><time>2026-04-18T08:39:22.999Z</time></trkpt><trkpt lat="39.54131270458186" lon="9.080808462319546"><ele>164.5</ele><time>2026-04-18T08:39:23.999Z</time></trkpt><trkpt lat="39.541339110300136" lon="9.080662432567562"><ele>165.25</ele><time>2026-04-18T08:39:24.999Z</time></trkpt><trkpt lat="39.541362050430195" lon="9.0805114545135"><ele>166.0</ele><time>2026-04-18T08:39:25.999Z</time></trkpt><trkpt lat="39.54138461711421" lon="9.080352562978968"><ele>166.0</ele><time>2026-04-18T08:39:26.999Z</time></trkpt><trkpt lat="39.54140688349133" lon="9.080190127989855"><ele>166.0</ele><time>2026-04-18T08:39:27.999Z</time></trkpt><trkpt lat="39.541429196602465" lon="9.080027904660295"><ele>166.0</ele><time>2026-04-18T08:39:28.999Z</time></trkpt><trkpt lat="39.54145281417632" lon="9.079857745862185"><ele>166.0</ele><time>2026-04-18T08:39:29.999Z</time></trkpt><trkpt lat="39.54147419232134" lon="9.079684742491375"><ele>166.0</ele><time>2026-04-18T08:39:30.999Z</time></trkpt><trkpt lat="39.541496783802984" lon="9.07950627499692"><ele>166.0</ele><time>2026-04-18T08:39:31.999Z</time></trkpt><trkpt lat="39.54151670047686" lon="9.079328244365689"><ele>166.0</ele><time>2026-04-18T08:39:32.999Z</time></trkpt><trkpt lat="39.541541420672466" lon="9.079147043036873"><ele>166.0</ele><time>2026-04-18T08:39:33.999Z</time></trkpt><trkpt lat="39.54156440504918" lon="9.078963189372402"><ele>166.0</ele><time>2026-04-18T08:39:34.999Z</time></trkpt><trkpt lat="39.541589373441575" lon="9.078776813520602"><ele>166.0</ele><time>2026-04-18T08:39:35.999Z</time></trkpt><trkpt lat="39.54161240353956" lon="9.078591716391857"><ele>166.0</ele><time>2026-04-18T08:39:36.999Z</time></trkpt><trkpt lat="39.54163590639728" lon="9.078404513872773"><ele>166.0</ele><time>2026-04-18T08:39:37.999Z</time></trkpt><trkpt lat="39.5416621626284" lon="9.078214527891554"><ele>165.66666666666669</ele><time>2026-04-18T08:39:38.999Z</time></trkpt><trkpt lat="39.54168887685378" lon="9.07802278997919"><ele>165.33333333333334</ele><time>2026-04-18T08:39:39.999Z</time></trkpt><trkpt lat="39.54171341382879" lon="9.077831090945205"><ele>165.0</ele><time>2026-04-18T08:39:40.999Z</time></trkpt><trkpt lat="39.54173532289617" lon="9.077638655329665"><ele>165.0</ele><time>2026-04-18T08:39:41.999Z</time></trkpt><trkpt lat="39.54176049293847" lon="9.07744470506856"><ele>165.0</ele><time>2026-04-18T08:39:42.999Z</time></trkpt><trkpt lat="39.54178796848128" lon="9.077250714252854"><ele>165.0</ele><time>2026-04-18T08:39:43.999Z</time></trkpt><trkpt lat="39.54181392164298" lon="9.077055477838245"><ele>164.66666666666666</ele><time>2026-04-18T08:39:44.999Z</time></trkpt><trkpt lat="39.541839347805855" lon="9.076858653327307"><ele>164.33333333333331</ele><time>2026-04-18T08:39:45.999Z</time></trkpt><trkpt lat="39.54186566375676" lon="9.076658536522777"><ele>164.0</ele><time>2026-04-18T08:39:46.999Z</time></trkpt><trkpt lat="39.54189107954322" lon="9.076460077149315"><ele>164.0</ele><time>2026-04-18T08:39:47.999Z</time></trkpt><trkpt lat="39.54191725344207" lon="9.076259871864698"><ele>164.0</ele><time>2026-04-18T08:39:48.999Z</time></trkpt><trkpt lat="39.54194808884031" lon="9.076058672109562"><ele>164.0</ele><time>2026-04-18T08:39:49.999Z</time></trkpt><trkpt lat="39.54198862198601" lon="9.075856731459076"><ele>164.0</ele><time>2026-04-18T08:39:50.999Z</time></trkpt><trkpt lat="39.54203366644199" lon="9.075653320532433"><ele>164.0</ele><time>2026-04-18T08:39:51.999Z</time></trkpt><trkpt lat="39.542081791108544" lon="9.075453251352231"><ele>164.0</ele><time>2026-04-18T08:39:52.999Z</time></trkpt><trkpt lat="39.54213441741179" lon="9.075253205828835"><ele>164.33333333333331</ele><time>2026-04-18T08:39:53.999Z</time></trkpt><trkpt lat="39.542192665291616" lon="9.075047132943462"><ele>164.66666666666666</ele><time>2026-04-18T08:39:54.999Z</time></trkpt><trkpt lat="39.54225724106305" lon="9.074845188194583"><ele>165.0</ele><time>2026-04-18T08:39:55.999Z</time></trkpt><trkpt lat="39.54232348180423" lon="9.07464313703496"><ele>165.0</ele><time>2026-04-18T08:39:56.999Z</time></trkpt><trkpt lat="39.54239152129364" lon="9.0744455726275"><ele>165.0</ele><time>2026-04-18T08:39:57.999Z</time></trkpt><trkpt lat="39.54246491141152" lon="9.074248481345533"><ele>165.0</ele><time>2026-04-18T08:39:58.999Z</time></trkpt><trkpt lat="39.54254647418233" lon="9.074053608959343"><ele>164.66666666666666</ele><time>2026-04-18T08:39:59.999Z</time></trkpt><trkpt lat="39.54263279508262" lon="9.07386067716057"><ele>164.33333333333331</ele><time>2026-04-18T08:40:00.999Z</time></trkpt><trkpt lat="39.54272299978295" lon="9.073670441937523"><ele>164.0</ele><time>2026-04-18T08:40:01.999Z</time></trkpt><trkpt lat="39.542816109743896" lon="9.073483115058403"><ele>164.33333333333331</ele><time>2026-04-18T08:40:02.999Z</time></trkpt><trkpt lat="39.54291193237749" lon="9.073298319920363"><ele>164.66666666666666</ele><time>2026-04-18T08:40:03.999Z</time></trkpt><trkpt lat="39.543007512342825" lon="9.07311277486097"><ele>165.0</ele><time>2026-04-18T08:40:04.999Z</time></trkpt><trkpt lat="39.54310402594026" lon="9.07292580057431"><ele>165.0</ele><time>2026-04-18T08:40:05.999Z</time></trkpt><trkpt lat="39.54320113495462" lon="9.072740641602286"><ele>165.0</ele><time>2026-04-18T08:40:06.999Z</time></trkpt><trkpt lat="39.54329853439892" lon="9.072556915247953"><ele>165.0</ele><time>2026-04-18T08:40:07.999Z</time></trkpt><trkpt lat="39.54339527249528" lon="9.072371860752444"><ele>165.0</ele><time>2026-04-18T08:40:08.999Z</time></trkpt><trkpt lat="39.543490421976706" lon="9.072187937273126"><ele>165.0</ele><time>2026-04-18T08:40:09.999Z</time></trkpt><trkpt lat="39.54358523843218" lon="9.072003823714256"><ele>165.0</ele><time>2026-04-18T08:40:10.999Z</time></trkpt><trkpt lat="39.54368201158419" lon="9.071823106215241"><ele>165.0</ele><time>2026-04-18T08:40:11.999Z</time></trkpt><trkpt lat="39.5437790206793" lon="9.071639478225222"><ele>165.0</ele><time>2026-04-18T08:40:12.999Z</time></trkpt><trkpt lat="39.543875463102445" lon="9.071455580429987"><ele>165.0</ele><time>2026-04-18T08:40:13.999Z</time></trkpt><trkpt lat="39.54397211159062" lon="9.071272305380482"><ele>164.66666666666666</ele><time>2026-04-18T08:40:15Z</time></trkpt><trkpt lat="39.544068068382785" lon="9.071089667202367"><ele>164.33333333333331</ele><time>2026-04-18T08:40:16Z</time></trkpt><trkpt lat="39.54416163189634" lon="9.070909157673052"><ele>164.0</ele><time>2026-04-18T08:40:17Z</time></trkpt><trkpt lat="39.54425498748341" lon="9.07072707664018"><ele>164.0</ele><time>2026-04-18T08:40:18Z</time></trkpt><trkpt lat="39.544348411378635" lon="9.07054608867523"><ele>164.0</ele><time>2026-04-18T08:40:19Z</time></trkpt><trkpt lat="39.5444437732976" lon="9.07036231148734"><ele>164.0</ele><time>2026-04-18T08:40:20Z</time></trkpt><trkpt lat="39.544538321722804" lon="9.07017867312259"><ele>164.0</ele><time>2026-04-18T08:40:21Z</time></trkpt><trkpt lat="39.54463052019802" lon="9.070000435019438"><ele>164.0</ele><time>2026-04-18T08:40:22Z</time></trkpt><trkpt lat="39.54472524929042" lon="9.069818733511312"><ele>164.0</ele><time>2026-04-18T08:40:23Z</time></trkpt><trkpt lat="39.544820957484255" lon="9.06963191049913"><ele>164.0</ele><time>2026-04-18T08:40:24Z</time></trkpt><trkpt lat="39.54491840661992" lon="9.069444784251987"><ele>164.0</ele><time>2026-04-18T08:40:25Z</time></trkpt><trkpt lat="39.545017557892905" lon="9.069257164079572"><ele>164.0</ele><time>2026-04-18T08:40:26Z</time></trkpt><trkpt lat="39.54511496227502" lon="9.06906894859265"><ele>164.0</ele><time>2026-04-18T08:40:27Z</time></trkpt><trkpt lat="39.54521269977003" lon="9.06887827516153"><ele>164.0</ele><time>2026-04-18T08:40:28Z</time></trkpt><trkpt lat="39.545313284604056" lon="9.06868970466718"><ele>164.0</ele><time>2026-04-18T08:40:29Z</time></trkpt><trkpt lat="39.54541268945363" lon="9.068498635609567"><ele>164.0</ele><time>2026-04-18T08:40:30Z</time></trkpt><trkpt lat="39.54551447057385" lon="9.068306605766313"><ele>164.0</ele><time>2026-04-18T08:40:31Z</time></trkpt><trkpt lat="39.54561246874986" lon="9.068116744581017"><ele>164.0</ele><time>2026-04-18T08:40:32Z</time></trkpt><trkpt lat="39.54570876953176" lon="9.067929939172743"><ele>164.0</ele><time>2026-04-18T08:40:33Z</time></trkpt><trkpt lat="39.54580518243318" lon="9.067742382399999"><ele>164.0</ele><time>2026-04-18T08:40:34Z</time></trkpt><trkpt lat="39.54590248458224" lon="9.067556281712257"><ele>164.0</ele><time>2026-04-18T08:40:35Z</time></trkpt><trkpt lat="39.54600000623118" lon="9.067380612614697"><ele>164.0</ele><time>2026-04-18T08:40:36Z</time></trkpt><trkpt lat="39.54609650853853" lon="9.067198062062017"><ele>164.0</ele><time>2026-04-18T08:40:37Z</time></trkpt><trkpt lat="39.54619773926415" lon="9.067011331551106"><ele>164.0</ele><time>2026-04-18T08:40:38Z</time></trkpt><trkpt lat="39.54629990780973" lon="9.066820914395432"><ele>164.0</ele><time>2026-04-18T08:40:39Z</time></trkpt><trkpt lat="39.546402343857395" lon="9.066626924376955"><ele>164.0</ele><time>2026-04-18T08:40:40Z</time></trkpt><trkpt lat="39.54650634995156" lon="9.06642934527072"><ele>164.0</ele><time>2026-04-18T08:40:41Z</time></trkpt><trkpt lat="39.546605996163144" lon="9.066226988072371"><ele>164.33333333333331</ele><time>2026-04-18T08:40:42Z</time></trkpt><trkpt lat="39.54671139203426" lon="9.066023377957512"><ele>164.66666666666666</ele><time>2026-04-18T08:40:43Z</time></trkpt><trkpt lat="39.54681814555709" lon="9.065818628235476"><ele>165.0</ele><time>2026-04-18T08:40:44Z</time></trkpt><trkpt lat="39.54692206270074" lon="9.06561325679282"><ele>165.0</ele><time>2026-04-18T08:40:45Z</time></trkpt><trkpt lat="39.54703010229164" lon="9.065409325965685"><ele>165.0</ele><time>2026-04-18T08:40:46Z</time></trkpt><trkpt lat="39.54713918531749" lon="9.065204835600948"><ele>165.0</ele><time>2026-04-18T08:40:47Z</time></trkpt><trkpt lat="39.547248301717666" lon="9.064998951352715"><ele>164.66666666666666</ele><time>2026-04-18T08:40:48Z</time></trkpt><trkpt lat="39.54735825279705" lon="9.064791857330876"><ele>164.33333333333331</ele><time>2026-04-18T08:40:49Z</time></trkpt><trkpt lat="39.54746845683337" lon="9.064579485100616"><ele>164.0</ele><time>2026-04-18T08:40:50Z</time></trkpt><trkpt lat="39.54757712805613" lon="9.064366246697368"><ele>164.0</ele><time>2026-04-18T08:40:51Z</time></trkpt><trkpt lat="39.54768778553497" lon="9.064154814879743"><ele>164.0</ele><time>2026-04-18T08:40:52Z</time></trkpt><trkpt lat="39.54779736656037" lon="9.06393989624901"><ele>164.0</ele><time>2026-04-18T08:40:53Z</time></trkpt><trkpt lat="39.54790664644548" lon="9.06372462422558"><ele>165.0</ele><time>2026-04-18T08:40:54Z</time></trkpt><trkpt lat="39.54801633199832" lon="9.063513486761606"><ele>166.0</ele><time>2026-04-18T08:40:55Z</time></trkpt><trkpt lat="39.5481272429699" lon="9.063300437347156"><ele>167.0</ele><time>2026-04-18T08:40:56Z</time></trkpt><trkpt lat="39.54823940020089" lon="9.063091431043034"><ele>167.0</ele><time>2026-04-18T08:40:57Z</time></trkpt><trkpt lat="39.548350005837634" lon="9.062882547482127"><ele>167.0</ele><time>2026-04-18T08:40:58Z</time></trkpt><trkpt lat="39.5484601246823" lon="9.062672965226751"><ele>167.0</ele><time>2026-04-18T08:40:59Z</time></trkpt><trkpt lat="39.54856877446102" lon="9.062466159509343"><ele>166.66666666666666</ele><time>2026-04-18T08:41:00Z</time></trkpt><trkpt lat="39.548676376391214" lon="9.062257114660117"><ele>166.33333333333334</ele><time>2026-04-18T08:41:01Z</time></trkpt><trkpt lat="39.548784828964024" lon="9.062049383807546"><ele>166.0</ele><time>2026-04-18T08:41:02Z</time></trkpt><trkpt lat="39.54889355859723" lon="9.0618435580122"><ele>166.0</ele><time>2026-04-18T08:41:03Z</time></trkpt><trkpt lat="39.54900117995395" lon="9.061637418830871"><ele>166.0</ele><time>2026-04-18T08:41:04Z</time></trkpt><trkpt lat="39.54910739546407" lon="9.061431259689842"><ele>166.0</ele><time>2026-04-18T08:41:05Z</time></trkpt><trkpt lat="39.549214110189695" lon="9.061225077914889"><ele>166.0</ele><time>2026-04-18T08:41:06Z</time></trkpt><trkpt lat="39.54932063905148" lon="9.061020517335422"><ele>166.0</ele><time>2026-04-18T08:41:07Z</time></trkpt><trkpt lat="39.54942638659319" lon="9.060817686050655"><ele>166.0</ele><time>2026-04-18T08:41:08Z</time></trkpt><trkpt lat="39.54953258625362" lon="9.060613159384651"><ele>166.66666666666669</ele><time>2026-04-18T08:41:09Z</time></trkpt><trkpt lat="39.54963915771045" lon="9.060409855522"><ele>167.33333333333334</ele><time>2026-04-18T08:41:10Z</time></trkpt><trkpt lat="39.549745406335596" lon="9.060204367195563"><ele>168.0</ele><time>2026-04-18T08:41:11Z</time></trkpt><trkpt lat="39.549854703411306" lon="9.059998255572843"><ele>168.0</ele><time>2026-04-18T08:41:12Z</time></trkpt><trkpt lat="39.54996185750622" lon="9.059791873765462"><ele>168.0</ele><time>2026-04-18T08:41:13Z</time></trkpt><trkpt lat="39.5500698695101" lon="9.059583425218475"><ele>168.0</ele><time>2026-04-18T08:41:14Z</time></trkpt><trkpt lat="39.55017782003764" lon="9.059375697462437"><ele>168.0</ele><time>2026-04-18T08:41:15Z</time></trkpt><trkpt lat="39.550286296105675" lon="9.059166092942226"><ele>168.0</ele><time>2026-04-18T08:41:16Z</time></trkpt><trkpt lat="39.55039557575207" lon="9.058957605600417"><ele>168.0</ele><time>2026-04-18T08:41:17Z</time></trkpt><trkpt lat="39.55050608004588" lon="9.058748889774945"><ele>168.0</ele><time>2026-04-18T08:41:18Z</time></trkpt><trkpt lat="39.55061662296054" lon="9.058537561472992"><ele>168.0</ele><time>2026-04-18T08:41:19Z</time></trkpt><trkpt lat="39.55072501926645" lon="9.058328043310674"><ele>168.0</ele><time>2026-04-18T08:41:20Z</time></trkpt><trkpt lat="39.55083112077858" lon="9.05811747196689"><ele>168.0</ele><time>2026-04-18T08:41:21Z</time></trkpt><trkpt lat="39.55093113342388" lon="9.057908651290118"><ele>168.0</ele><time>2026-04-18T08:41:22Z</time></trkpt><trkpt lat="39.55103695353517" lon="9.057697717515447"><ele>168.0</ele><time>2026-04-18T08:41:23Z</time></trkpt><trkpt lat="39.551146220051386" lon="9.057497077702005"><ele>168.66666666666666</ele><time>2026-04-18T08:41:24Z</time></trkpt><trkpt lat="39.55124762234514" lon="9.057293695604832"><ele>169.33333333333331</ele><time>2026-04-18T08:41:25Z</time></trkpt><trkpt lat="39.55135308907258" lon="9.05709467306663"><ele>170.0</ele><time>2026-04-18T08:41:26Z</time></trkpt><trkpt lat="39.551455402542416" lon="9.056891980910834"><ele>170.0</ele><time>2026-04-18T08:41:27Z</time></trkpt><trkpt lat="39.5515625921839" lon="9.056690978934686"><ele>170.0</ele><time>2026-04-18T08:41:28Z</time></trkpt><trkpt lat="39.55166473695218" lon="9.05648941765084"><ele>170.0</ele><time>2026-04-18T08:41:29Z</time></trkpt><trkpt lat="39.55176936222311" lon="9.056287225119823"><ele>170.33333333333331</ele><time>2026-04-18T08:41:30Z</time></trkpt><trkpt lat="39.551873760633825" lon="9.056080427893251"><ele>170.66666666666666</ele><time>2026-04-18T08:41:31Z</time></trkpt><trkpt lat="39.55198199978855" lon="9.055879874894293"><ele>171.0</ele><time>2026-04-18T08:41:32Z</time></trkpt><trkpt lat="39.55208875252968" lon="9.05567736305281"><ele>171.33333333333334</ele><time>2026-04-18T08:41:33Z</time></trkpt><trkpt lat="39.55219682717699" lon="9.05547191052569"><ele>171.66666666666669</ele><time>2026-04-18T08:41:34Z</time></trkpt><trkpt lat="39.55230231990795" lon="9.055263317924203"><ele>172.0</ele><time>2026-04-18T08:41:35Z</time></trkpt><trkpt lat="39.552410763780934" lon="9.055054650612929"><ele>172.0</ele><time>2026-04-18T08:41:36Z</time></trkpt><trkpt lat="39.55251857085487" lon="9.054844682338658"><ele>172.0</ele><time>2026-04-18T08:41:37Z</time></trkpt><trkpt lat="39.55262627037482" lon="9.05463499649433"><ele>172.0</ele><time>2026-04-18T08:41:38Z</time></trkpt><trkpt lat="39.55273572766828" lon="9.054424054931236"><ele>172.0</ele><time>2026-04-18T08:41:39Z</time></trkpt><trkpt lat="39.55284396025307" lon="9.05421443978939"><ele>172.0</ele><time>2026-04-18T08:41:40Z</time></trkpt><trkpt lat="39.552953665896595" lon="9.054005259077448"><ele>172.0</ele><time>2026-04-18T08:41:41Z</time></trkpt><trkpt lat="39.553063778507145" lon="9.053800003373532"><ele>173.33333333333334</ele><time>2026-04-18T08:41:42Z</time></trkpt><trkpt lat="39.55317153956446" lon="9.053594349190751"><ele>174.66666666666666</ele><time>2026-04-18T08:41:43Z</time></trkpt><trkpt lat="39.553278067594206" lon="9.053387324518582"><ele>176.0</ele><time>2026-04-18T08:41:44Z</time></trkpt><trkpt lat="39.553382649743455" lon="9.053179872156102"><ele>176.33333333333331</ele><time>2026-04-18T08:41:45Z</time></trkpt><trkpt lat="39.55348529634204" lon="9.05297698583281"><ele>176.66666666666666</ele><time>2026-04-18T08:41:46Z</time></trkpt><trkpt lat="39.55358967859616" lon="9.052778717609147"><ele>177.0</ele><time>2026-04-18T08:41:47Z</time></trkpt><trkpt lat="39.55369743196334" lon="9.052587178030524"><ele>178.0</ele><time>2026-04-18T08:41:48Z</time></trkpt><trkpt lat="39.55381781316382" lon="9.05240969135602"><ele>179.0</ele><time>2026-04-18T08:41:49Z</time></trkpt><trkpt lat="39.553957907842204" lon="9.052262141240147"><ele>180.0</ele><time>2026-04-18T08:41:50Z</time></trkpt><trkpt lat="39.554103833247915" lon="9.052117742761274"><ele>180.0</ele><time>2026-04-18T08:41:51Z</time></trkpt><trkpt lat="39.55425782974367" lon="9.051987656165815"><ele>180.0</ele><time>2026-04-18T08:41:52Z</time></trkpt><trkpt lat="39.554415880437546" lon="9.051864498767555"><ele>180.0</ele><time>2026-04-18T08:41:53Z</time></trkpt><trkpt lat="39.55457592071342" lon="9.051736895979937"><ele>182.33333333333334</ele><time>2026-04-18T08:41:54Z</time></trkpt><trkpt lat="39.55473576409781" lon="9.051610363248722"><ele>184.66666666666669</ele><time>2026-04-18T08:41:55Z</time></trkpt><trkpt lat="39.55489295949566" lon="9.05148290260051"><ele>187.0</ele><time>2026-04-18T08:41:56Z</time></trkpt><trkpt lat="39.55505002987142" lon="9.051360909973859"><ele>187.0</ele><time>2026-04-18T08:41:57Z</time></trkpt><trkpt lat="39.55520785258389" lon="9.05123481153537"><ele>187.0</ele><time>2026-04-18T08:41:58Z</time></trkpt><trkpt lat="39.55536862467639" lon="9.051110367076655"><ele>187.0</ele><time>2026-04-18T08:41:59Z</time></trkpt><trkpt lat="39.55552642654351" lon="9.050986297618271"><ele>187.33333333333334</ele><time>2026-04-18T08:42:00Z</time></trkpt><trkpt lat="39.55568176651482" lon="9.050864260664959"><ele>187.66666666666666</ele><time>2026-04-18T08:42:01Z</time></trkpt><trkpt lat="39.55583188696551" lon="9.0507464714969"><ele>188.0</ele><time>2026-04-18T08:42:02Z</time></trkpt><trkpt lat="39.555969398697286" lon="9.05063612294198"><ele>188.0</ele><time>2026-04-18T08:42:03Z</time></trkpt><trkpt lat="39.5560965797185" lon="9.050525556653408"><ele>188.0</ele><time>2026-04-18T08:42:04Z</time></trkpt><trkpt lat="39.55620338033503" lon="9.05040346413366"><ele>188.0</ele><time>2026-04-18T08:42:05Z</time></trkpt><trkpt lat="39.5562742679312" lon="9.050258778753477"><ele>188.0</ele><time>2026-04-18T08:42:06Z</time></trkpt><trkpt lat="39.55631577553229" lon="9.050087678728142"><ele>187.75</ele><time>2026-04-18T08:42:07Z</time></trkpt><trkpt lat="39.55633928028455" lon="9.049904509972919"><ele>187.5</ele><time>2026-04-18T08:42:08Z</time></trkpt><trkpt lat="39.55636618418374" lon="9.049718263937658"><ele>187.25</ele><time>2026-04-18T08:42:09Z</time></trkpt><trkpt lat="39.556403540927036" lon="9.049532937621901"><ele>187.0</ele><time>2026-04-18T08:42:10Z</time></trkpt><trkpt lat="39.5564498791754" lon="9.049352696913747"><ele>187.0</ele><time>2026-04-18T08:42:11Z</time></trkpt><trkpt lat="39.5565144801053" lon="9.04918426644389"><ele>187.0</ele><time>2026-04-18T08:42:12Z</time></trkpt><trkpt lat="39.556598622091805" lon="9.049027773314972"><ele>187.0</ele><time>2026-04-18T08:42:13Z</time></trkpt><trkpt lat="39.556692492384904" lon="9.048877814076066"><ele>187.0</ele><time>2026-04-18T08:42:14Z</time></trkpt><trkpt lat="39.55678747505258" lon="9.048727325068572"><ele>187.33333333333334</ele><time>2026-04-18T08:42:15Z</time></trkpt><trkpt lat="39.55688804801615" lon="9.048580180485006"><ele>187.66666666666666</ele><time>2026-04-18T08:42:16Z</time></trkpt><trkpt lat="39.55699729215741" lon="9.048439237256144"><ele>188.0</ele><time>2026-04-18T08:42:17Z</time></trkpt><trkpt lat="39.55711586299377" lon="9.048309098773169"><ele>191.5</ele><time>2026-04-18T08:42:18Z</time></trkpt><trkpt lat="39.55723535885836" lon="9.048184780051002"><ele>195.0</ele><time>2026-04-18T08:42:19Z</time></trkpt><trkpt lat="39.557350284747685" lon="9.048066811333786"><ele>198.5</ele><time>2026-04-18T08:42:20Z</time></trkpt><trkpt lat="39.557463928948245" lon="9.04796615841591"><ele>202.0</ele><time>2026-04-18T08:42:21Z</time></trkpt><trkpt lat="39.55758503109202" lon="9.047886653548748"><ele>202.0</ele><time>2026-04-18T08:42:22Z</time></trkpt><trkpt lat="39.55771533996048" lon="9.047819311240731"><ele>202.0</ele><time>2026-04-18T08:42:23Z</time></trkpt><trkpt lat="39.55784713563634" lon="9.047748928026124"><ele>202.0</ele><time>2026-04-18T08:42:24Z</time></trkpt><trkpt lat="39.557979419848365" lon="9.047670781177903"><ele>202.0</ele><time>2026-04-18T08:42:25Z</time></trkpt><trkpt lat="39.55810819623915" lon="9.047583791571823"><ele>202.5</ele><time>2026-04-18T08:42:26Z</time></trkpt><trkpt lat="39.55823223527944" lon="9.047485012793071"><ele>203.0</ele><time>2026-04-18T08:42:27Z</time></trkpt><trkpt lat="39.558351780997846" lon="9.047385554406107"><ele>203.5</ele><time>2026-04-18T08:42:28Z</time></trkpt><trkpt lat="39.55847197793434" lon="9.047288979695171"><ele>204.0</ele><time>2026-04-18T08:42:29Z</time></trkpt><trkpt lat="39.55858759740385" lon="9.04719232486685"><ele>204.0</ele><time>2026-04-18T08:42:30Z</time></trkpt><trkpt lat="39.558700270144975" lon="9.047096993709657"><ele>204.0</ele><time>2026-04-18T08:42:31Z</time></trkpt><trkpt lat="39.55880754424573" lon="9.047014629903265"><ele>204.0</ele><time>2026-04-18T08:42:32Z</time></trkpt><trkpt lat="39.55890127989078" lon="9.04693446126252"><ele>204.0</ele><time>2026-04-18T08:42:33Z</time></trkpt><trkpt lat="39.55896969829237" lon="9.046847939383882"><ele>203.83333333333334</ele><time>2026-04-18T08:42:34Z</time></trkpt><trkpt lat="39.55900620848225" lon="9.046751200051206"><ele>203.66666666666669</ele><time>2026-04-18T08:42:35Z</time></trkpt><trkpt lat="39.55900409973361" lon="9.046640409904647"><ele>203.5</ele><time>2026-04-18T08:42:36Z</time></trkpt><trkpt lat="39.55898632802811" lon="9.046522886428617"><ele>203.33333333333334</ele><time>2026-04-18T08:42:37Z</time></trkpt><trkpt lat="39.558971309483105" lon="9.046413710357672"><ele>203.16666666666669</ele><time>2026-04-18T08:42:38Z</time></trkpt><trkpt lat="39.55896136227596" lon="9.046310278204928"><ele>203.0</ele><time>2026-04-18T08:42:39Z</time></trkpt><trkpt lat="39.558949652534515" lon="9.046213206614567"><ele>203.33333333333334</ele><time>2026-04-18T08:42:40Z</time></trkpt><trkpt lat="39.55893004720643" lon="9.046110941627683"><ele>203.66666666666669</ele><time>2026-04-18T08:42:41Z</time></trkpt><trkpt lat="39.55892235925509" lon="9.046006630135185"><ele>204.0</ele><time>2026-04-18T08:42:42Z</time></trkpt><trkpt lat="39.55893773669194" lon="9.04590014968374"><ele>204.33333333333331</ele><time>2026-04-18T08:42:43Z</time></trkpt><trkpt lat="39.55897019596921" lon="9.045793728431207"><ele>204.66666666666666</ele><time>2026-04-18T08:42:44Z</time></trkpt><trkpt lat="39.55900927944935" lon="9.045686884498917"><ele>205.0</ele><time>2026-04-18T08:42:45Z</time></trkpt><trkpt lat="39.559049808726385" lon="9.045579762019196"><ele>204.99999999999997</ele><time>2026-04-18T08:42:46Z</time></trkpt><trkpt lat="39.55908652401496" lon="9.045467716554489"><ele>205.0</ele><time>2026-04-18T08:42:47Z</time></trkpt><trkpt lat="39.55912178927142" lon="9.045353381501913"><ele>205.0</ele><time>2026-04-18T08:42:48Z</time></trkpt><trkpt lat="39.55915150504454" lon="9.045245517530029"><ele>205.0</ele><time>2026-04-18T08:42:49Z</time></trkpt><trkpt lat="39.55917723873022" lon="9.045139329530738"><ele>204.99999999999997</ele><time>2026-04-18T08:42:50Z</time></trkpt><trkpt lat="39.55920043189423" lon="9.045032069046957"><ele>205.0</ele><time>2026-04-18T08:42:51Z</time></trkpt><trkpt lat="39.55922922286978" lon="9.044919631348526"><ele>205.2</ele><time>2026-04-18T08:42:52Z</time></trkpt><trkpt lat="39.5592540418655" lon="9.044799085375416"><ele>205.4</ele><time>2026-04-18T08:42:53Z</time></trkpt><trkpt lat="39.559279493154314" lon="9.044676039085"><ele>205.60000000000002</ele><time>2026-04-18T08:42:54Z</time></trkpt><trkpt lat="39.55930735995239" lon="9.044546714854361"><ele>205.8</ele><time>2026-04-18T08:42:55Z</time></trkpt><trkpt lat="39.559336873315694" lon="9.044413978196959"><ele>206.0</ele><time>2026-04-18T08:42:56Z</time></trkpt><trkpt lat="39.55936198180136" lon="9.04428919005584"><ele>206.0</ele><time>2026-04-18T08:42:57Z</time></trkpt><trkpt lat="39.559387974991836" lon="9.044169662219765"><ele>206.0</ele><time>2026-04-18T08:42:58Z</time></trkpt><trkpt lat="39.55941393399491" lon="9.04404947509545"><ele>206.0</ele><time>2026-04-18T08:42:59Z</time></trkpt><trkpt lat="39.55943772339498" lon="9.043928425689215"><ele>206.0</ele><time>2026-04-18T08:43:00Z</time></trkpt><trkpt lat="39.55946228946286" lon="9.043813440810851"><ele>206.0</ele><time>2026-04-18T08:43:01Z</time></trkpt><trkpt lat="39.559488312981415" lon="9.043704608159775"><ele>206.20000000000002</ele><time>2026-04-18T08:43:02Z</time></trkpt><trkpt lat="39.5595005518969" lon="9.043594631594496"><ele>206.4</ele><time>2026-04-18T08:43:03Z</time></trkpt><trkpt lat="39.55949930464434" lon="9.043476126508622"><ele>206.6</ele><time>2026-04-18T08:43:04Z</time></trkpt><trkpt lat="39.559483560033165" lon="9.043351061476328"><ele>206.8</ele><time>2026-04-18T08:43:05Z</time></trkpt><trkpt lat="39.55946022947791" lon="9.043219666493027"><ele>207.0</ele><time>2026-04-18T08:43:06Z</time></trkpt><trkpt lat="39.559435555946365" lon="9.043084082148212"><ele>207.25</ele><time>2026-04-18T08:43:07Z</time></trkpt><trkpt lat="39.55940563169296" lon="9.042940029441418"><ele>207.5</ele><time>2026-04-18T08:43:08Z</time></trkpt><trkpt lat="39.559374864203846" lon="9.042790586900992"><ele>207.75</ele><time>2026-04-18T08:43:09Z</time></trkpt><trkpt lat="39.55934290737429" lon="9.042636952212078"><ele>208.0</ele><time>2026-04-18T08:43:10Z</time></trkpt><trkpt lat="39.55931239152768" lon="9.042481281126902"><ele>207.5</ele><time>2026-04-18T08:43:11Z</time></trkpt><trkpt lat="39.55928071206801" lon="9.042330203593353"><ele>207.0</ele><time>2026-04-18T08:43:12Z</time></trkpt><trkpt lat="39.55925090157332" lon="9.042183860693251"><ele>206.5</ele><time>2026-04-18T08:43:13Z</time></trkpt><trkpt lat="39.55922106801202" lon="9.042042093593615"><ele>206.0</ele><time>2026-04-18T08:43:14Z</time></trkpt><trkpt lat="39.55919104539346" lon="9.041908615006012"><ele>206.0</ele><time>2026-04-18T08:43:15Z</time></trkpt><trkpt lat="39.559163802498794" lon="9.041779453148203"><ele>206.0</ele><time>2026-04-18T08:43:16Z</time></trkpt><trkpt lat="39.55913710034169" lon="9.041653592142413"><ele>206.0</ele><time>2026-04-18T08:43:17Z</time></trkpt><trkpt lat="39.55911047429927" lon="9.041525341825938"><ele>206.0</ele><time>2026-04-18T08:43:18Z</time></trkpt><trkpt lat="39.559086991832025" lon="9.041392762825598"><ele>206.0</ele><time>2026-04-18T08:43:19Z</time></trkpt><trkpt lat="39.559062419808356" lon="9.041254712854773"><ele>205.75</ele><time>2026-04-18T08:43:20Z</time></trkpt><trkpt lat="39.55903087539429" lon="9.04111465534787"><ele>205.5</ele><time>2026-04-18T08:43:21Z</time></trkpt><trkpt lat="39.558997312433" lon="9.040970470897596"><ele>205.25</ele><time>2026-04-18T08:43:22Z</time></trkpt><trkpt lat="39.558969096855684" lon="9.040818794383277"><ele>205.0</ele><time>2026-04-18T08:43:23Z</time></trkpt><trkpt lat="39.558941233979766" lon="9.040662794749126"><ele>204.0</ele><time>2026-04-18T08:43:24Z</time></trkpt><trkpt lat="39.558912773087194" lon="9.040502537554067"><ele>203.0</ele><time>2026-04-18T08:43:25Z</time></trkpt><trkpt lat="39.55887962766916" lon="9.040342162043048"><ele>202.0</ele><time>2026-04-18T08:43:26Z</time></trkpt><trkpt lat="39.55884550596724" lon="9.04018196573615"><ele>201.0</ele><time>2026-04-18T08:43:27Z</time></trkpt><trkpt lat="39.55881255128337" lon="9.040027172286095"><ele>200.0</ele><time>2026-04-18T08:43:28Z</time></trkpt><trkpt lat="39.558714739088906" lon="9.039589965201799"><ele>199.0</ele><time>2026-04-18T08:43:32Z</time></trkpt><trkpt lat="39.55870405174013" lon="9.039456431636955"><ele>200.0</ele><time>2026-04-18T08:43:35Z</time></trkpt><trkpt lat="39.558687701029676" lon="9.039374563628693"><ele>201.0</ele><time>2026-04-18T08:43:36Z</time></trkpt><trkpt lat="39.55865547520414" lon="9.039279259543312"><ele>202.0</ele><time>2026-04-18T08:43:37Z</time></trkpt><trkpt lat="39.558644515574414" lon="9.039158109211836"><ele>203.0</ele><time>2026-04-18T08:43:38Z</time></trkpt><trkpt lat="39.55860333255288" lon="9.039030681513584"><ele>204.0</ele><time>2026-04-18T08:43:39Z</time></trkpt><trkpt lat="39.55858074346413" lon="9.038894527152056"><ele>204.0</ele><time>2026-04-18T08:43:40Z</time></trkpt><trkpt lat="39.558555700142286" lon="9.038747628890935"><ele>204.0</ele><time>2026-04-18T08:43:41Z</time></trkpt><trkpt lat="39.55852753604677" lon="9.03859574612393"><ele>204.0</ele><time>2026-04-18T08:43:42Z</time></trkpt><trkpt lat="39.558494722818146" lon="9.038437551057973"><ele>204.0</ele><time>2026-04-18T08:43:43Z</time></trkpt><trkpt lat="39.55846257317317" lon="9.038273104620767"><ele>203.75</ele><time>2026-04-18T08:43:44Z</time></trkpt><trkpt lat="39.558427777825734" lon="9.038102546938003"><ele>203.5</ele><time>2026-04-18T08:43:45Z</time></trkpt><trkpt lat="39.55838873239662" lon="9.037929506007544"><ele>203.25</ele><time>2026-04-18T08:43:46Z</time></trkpt><trkpt lat="39.558350687997" lon="9.03775544536897"><ele>203.0</ele><time>2026-04-18T08:43:47Z</time></trkpt><trkpt lat="39.55831404859555" lon="9.037573533707098"><ele>204.0</ele><time>2026-04-18T08:43:48Z</time></trkpt><trkpt lat="39.5582771229938" lon="9.037386300407716"><ele>205.0</ele><time>2026-04-18T08:43:49Z</time></trkpt><trkpt lat="39.55823617806931" lon="9.03719468056789"><ele>206.0</ele><time>2026-04-18T08:43:50Z</time></trkpt><trkpt lat="39.558194252372196" lon="9.036998664115801"><ele>206.0</ele><time>2026-04-18T08:43:51Z</time></trkpt><trkpt lat="39.558153129594096" lon="9.036799630338868"><ele>206.0</ele><time>2026-04-18T08:43:52Z</time></trkpt><trkpt lat="39.558112709914795" lon="9.036600346811928"><ele>206.0</ele><time>2026-04-18T08:43:53Z</time></trkpt><trkpt lat="39.55807077403211" lon="9.036400287281554"><ele>206.33333333333334</ele><time>2026-04-18T08:43:54Z</time></trkpt><trkpt lat="39.55803104493073" lon="9.036199925040698"><ele>206.66666666666669</ele><time>2026-04-18T08:43:55Z</time></trkpt><trkpt lat="39.557986520734765" lon="9.035993974136801"><ele>207.0</ele><time>2026-04-18T08:43:56Z</time></trkpt><trkpt lat="39.55794035801812" lon="9.035787542789999"><ele>207.0</ele><time>2026-04-18T08:43:57Z</time></trkpt><trkpt lat="39.55789618128794" lon="9.03557823004689"><ele>207.0</ele><time>2026-04-18T08:43:58Z</time></trkpt><trkpt lat="39.55785318172733" lon="9.035368481508053"><ele>207.0</ele><time>2026-04-18T08:43:59Z</time></trkpt><trkpt lat="39.557811103919825" lon="9.035152820210245"><ele>207.33333333333331</ele><time>2026-04-18T08:44:00Z</time></trkpt><trkpt lat="39.55777051028716" lon="9.034937834929472"><ele>207.66666666666666</ele><time>2026-04-18T08:44:01Z</time></trkpt><trkpt lat="39.55772872190794" lon="9.034720700395566"><ele>208.0</ele><time>2026-04-18T08:44:02Z</time></trkpt><trkpt lat="39.55768374658638" lon="9.034508657239382"><ele>208.0</ele><time>2026-04-18T08:44:03Z</time></trkpt><trkpt lat="39.55763695446985" lon="9.03429599369901"><ele>208.0</ele><time>2026-04-18T08:44:04Z</time></trkpt><trkpt lat="39.55758982196428" lon="9.034080373455634"><ele>208.0</ele><time>2026-04-18T08:44:05Z</time></trkpt><trkpt lat="39.557545955144974" lon="9.033866558893354"><ele>208.66666666666666</ele><time>2026-04-18T08:44:06Z</time></trkpt><trkpt lat="39.55750405699196" lon="9.033647524724959"><ele>209.33333333333331</ele><time>2026-04-18T08:44:07Z</time></trkpt><trkpt lat="39.55746465880613" lon="9.033427458014069"><ele>210.0</ele><time>2026-04-18T08:44:08Z</time></trkpt><trkpt lat="39.55741956678667" lon="9.033205338236627"><ele>211.0</ele><time>2026-04-18T08:44:09Z</time></trkpt><trkpt lat="39.55737146774152" lon="9.03298075757017"><ele>212.0</ele><time>2026-04-18T08:44:10Z</time></trkpt><trkpt lat="39.55732318642244" lon="9.032755607674849"><ele>213.0</ele><time>2026-04-18T08:44:11Z</time></trkpt><trkpt lat="39.55728116277392" lon="9.032531630941898"><ele>213.0</ele><time>2026-04-18T08:44:12Z</time></trkpt><trkpt lat="39.557236599294036" lon="9.032306555888251"><ele>213.0</ele><time>2026-04-18T08:44:13Z</time></trkpt><trkpt lat="39.55719128836772" lon="9.032080758131235"><ele>213.0</ele><time>2026-04-18T08:44:14Z</time></trkpt><trkpt lat="39.55714453316879" lon="9.031859862176095"><ele>214.33333333333331</ele><time>2026-04-18T08:44:15Z</time></trkpt><trkpt lat="39.55709968927948" lon="9.0316309495998"><ele>215.66666666666666</ele><time>2026-04-18T08:44:16Z</time></trkpt><trkpt lat="39.557054846418055" lon="9.031403206192968"><ele>217.0</ele><time>2026-04-18T08:44:17Z</time></trkpt><trkpt lat="39.5570078886422" lon="9.031178649023785"><ele>217.0</ele><time>2026-04-18T08:44:18Z</time></trkpt><trkpt lat="39.556960892945916" lon="9.030950843106105"><ele>217.0</ele><time>2026-04-18T08:44:19Z</time></trkpt><trkpt lat="39.556914322800154" lon="9.030726655663367"><ele>217.0</ele><time>2026-04-18T08:44:20Z</time></trkpt><trkpt lat="39.55686581330159" lon="9.03051143074001"><ele>216.66666666666666</ele><time>2026-04-18T08:44:21Z</time></trkpt><trkpt lat="39.5567924172799" lon="9.030313238591146"><ele>216.33333333333331</ele><time>2026-04-18T08:44:22Z</time></trkpt><trkpt lat="39.55670845619183" lon="9.0301357873298"><ele>216.0</ele><time>2026-04-18T08:44:23Z</time></trkpt><trkpt lat="39.55662329908501" lon="9.02997158420255"><ele>215.25</ele><time>2026-04-18T08:44:24Z</time></trkpt><trkpt lat="39.556549748264594" lon="9.029803751809515"><ele>214.5</ele><time>2026-04-18T08:44:25Z</time></trkpt><trkpt lat="39.556498983381" lon="9.029623452389428"><ele>213.75</ele><time>2026-04-18T08:44:26Z</time></trkpt><trkpt lat="39.55648168798547" lon="9.029430400558217"><ele>213.0</ele><time>2026-04-18T08:44:27Z</time></trkpt><trkpt lat="39.55650152639236" lon="9.02923011243952"><ele>211.66666666666669</ele><time>2026-04-18T08:44:28Z</time></trkpt><trkpt lat="39.55654457563094" lon="9.029028479594631"><ele>210.33333333333334</ele><time>2026-04-18T08:44:29Z</time></trkpt><trkpt lat="39.55658869138355" lon="9.0288218750602"><ele>209.0</ele><time>2026-04-18T08:44:30Z</time></trkpt><trkpt lat="39.55661750389723" lon="9.02860322508219"><ele>209.0</ele><time>2026-04-18T08:44:31Z</time></trkpt><trkpt lat="39.55664318600428" lon="9.028375711284731"><ele>209.0</ele><time>2026-04-18T08:44:32Z</time></trkpt><trkpt lat="39.55664408720193" lon="9.028143574430535"><ele>209.0</ele><time>2026-04-18T08:44:33Z</time></trkpt><trkpt lat="39.556612650430175" lon="9.027909392261481"><ele>208.66666666666669</ele><time>2026-04-18T08:44:34Z</time></trkpt><trkpt lat="39.55656737157435" lon="9.027674763671564"><ele>208.33333333333331</ele><time>2026-04-18T08:44:35Z</time></trkpt><trkpt lat="39.55651613216243" lon="9.027435401135728"><ele>208.0</ele><time>2026-04-18T08:44:36Z</time></trkpt><trkpt lat="39.556461997943984" lon="9.027196227020017"><ele>207.33333333333331</ele><time>2026-04-18T08:44:37Z</time></trkpt><trkpt lat="39.556408086928656" lon="9.02695910974696"><ele>206.66666666666669</ele><time>2026-04-18T08:44:38Z</time></trkpt><trkpt lat="39.55635876487635" lon="9.02673060832121"><ele>206.0</ele><time>2026-04-18T08:44:39Z</time></trkpt><trkpt lat="39.556312250933054" lon="9.026511249760347"><ele>205.0</ele><time>2026-04-18T08:44:40Z</time></trkpt><trkpt lat="39.55626695562972" lon="9.0262980162538"><ele>204.0</ele><time>2026-04-18T08:44:41Z</time></trkpt><trkpt lat="39.55622639672764" lon="9.026091569824649"><ele>203.0</ele><time>2026-04-18T08:44:42Z</time></trkpt><trkpt lat="39.55620347161071" lon="9.025883396985847"><ele>202.33333333333334</ele><time>2026-04-18T08:44:43Z</time></trkpt><trkpt lat="39.55620550438863" lon="9.02566169671679"><ele>201.66666666666669</ele><time>2026-04-18T08:44:44Z</time></trkpt><trkpt lat="39.556229004297265" lon="9.025437956206456"><ele>201.0</ele><time>2026-04-18T08:44:45Z</time></trkpt><trkpt lat="39.5562532501858" lon="9.025212787786119"><ele>201.0</ele><time>2026-04-18T08:44:46Z</time></trkpt><trkpt lat="39.556252442318154" lon="9.024982313980194"><ele>201.0</ele><time>2026-04-18T08:44:47Z</time></trkpt><trkpt lat="39.556220777735625" lon="9.024750613853849"><ele>201.0</ele><time>2026-04-18T08:44:48Z</time></trkpt><trkpt lat="39.55615815650513" lon="9.024525177268666"><ele>197.66666666666666</ele><time>2026-04-18T08:44:49Z</time></trkpt><trkpt lat="39.55608755076205" lon="9.024300113614723"><ele>194.33333333333331</ele><time>2026-04-18T08:44:50Z</time></trkpt><trkpt lat="39.556020905860294" lon="9.02407542005889"><ele>191.0</ele><time>2026-04-18T08:44:51Z</time></trkpt><trkpt lat="39.55595672664281" lon="9.023854154476815"><ele>190.0</ele><time>2026-04-18T08:44:52Z</time></trkpt><trkpt lat="39.555908384646706" lon="9.023632120834254"><ele>189.0</ele><time>2026-04-18T08:44:53Z</time></trkpt><trkpt lat="39.55585409897566" lon="9.023425860874022"><ele>188.0</ele><time>2026-04-18T08:44:54Z</time></trkpt><trkpt lat="39.555807736717156" lon="9.023226929452287"><ele>187.0</ele><time>2026-04-18T08:44:55Z</time></trkpt><trkpt lat="39.55581369576034" lon="9.023018984921556"><ele>186.0</ele><time>2026-04-18T08:44:56Z</time></trkpt><trkpt lat="39.555861889643346" lon="9.022826407546082"><ele>185.0</ele><time>2026-04-18T08:44:57Z</time></trkpt><trkpt lat="39.55594388684787" lon="9.022638180475946"><ele>184.0</ele><time>2026-04-18T08:44:58Z</time></trkpt><trkpt lat="39.55602239260752" lon="9.022433546932453"><ele>183.0</ele><time>2026-04-18T08:44:59Z</time></trkpt><trkpt lat="39.556094333547996" lon="9.022213185902023"><ele>182.0</ele><time>2026-04-18T08:45:00Z</time></trkpt><trkpt lat="39.55613958386933" lon="9.021979345517602"><ele>182.0</ele><time>2026-04-18T08:45:01Z</time></trkpt><trkpt lat="39.556153457414354" lon="9.021729365122106"><ele>182.0</ele><time>2026-04-18T08:45:02Z</time></trkpt><trkpt lat="39.556160145207826" lon="9.021475286684636"><ele>182.0</ele><time>2026-04-18T08:45:03Z</time></trkpt><trkpt lat="39.55617088023506" lon="9.021214698544245"><ele>181.66666666666666</ele><time>2026-04-18T08:45:04Z</time></trkpt><trkpt lat="39.55617692144046" lon="9.020951461846268"><ele>181.33333333333334</ele><time>2026-04-18T08:45:05Z</time></trkpt><trkpt lat="39.556180122574794" lon="9.020687809370797"><ele>181.0</ele><time>2026-04-18T08:45:06Z</time></trkpt><trkpt lat="39.55618571933221" lon="9.020433663705688"><ele>181.0</ele><time>2026-04-18T08:45:07Z</time></trkpt><trkpt lat="39.55619236950579" lon="9.020179494781456"><ele>181.0</ele><time>2026-04-18T08:45:08Z</time></trkpt><trkpt lat="39.55619827894406" lon="9.019926270449167"><ele>181.0</ele><time>2026-04-18T08:45:09Z</time></trkpt><trkpt lat="39.55620536467086" lon="9.01967281677292"><ele>180.66666666666669</ele><time>2026-04-18T08:45:10Z</time></trkpt><trkpt lat="39.55621285861308" lon="9.01941712827511"><ele>180.33333333333334</ele><time>2026-04-18T08:45:11Z</time></trkpt><trkpt lat="39.556220947067224" lon="9.019158366203987"><ele>180.0</ele><time>2026-04-18T08:45:12Z</time></trkpt><trkpt lat="39.556229751419345" lon="9.01889721715617"><ele>180.0</ele><time>2026-04-18T08:45:13Z</time></trkpt><trkpt lat="39.55624139114777" lon="9.018633497824291"><ele>180.0</ele><time>2026-04-18T08:45:14Z</time></trkpt><trkpt lat="39.55626070481647" lon="9.018370111539221"><ele>180.0</ele><time>2026-04-18T08:45:15Z</time></trkpt><trkpt lat="39.55629389968287" lon="9.01810899636315"><ele>180.66666666666666</ele><time>2026-04-18T08:45:16Z</time></trkpt><trkpt lat="39.55633928496414" lon="9.017849526109124"><ele>181.33333333333331</ele><time>2026-04-18T08:45:17Z</time></trkpt><trkpt lat="39.55638689982551" lon="9.017588725876982"><ele>182.0</ele><time>2026-04-18T08:45:18Z</time></trkpt><trkpt lat="39.556432875449396" lon="9.01732615121347"><ele>183.33333333333331</ele><time>2026-04-18T08:45:19Z</time></trkpt><trkpt lat="39.55647759754354" lon="9.017064321458944"><ele>184.66666666666666</ele><time>2026-04-18T08:45:20Z</time></trkpt><trkpt lat="39.55652242315111" lon="9.016801754016626"><ele>186.0</ele><time>2026-04-18T08:45:21Z</time></trkpt><trkpt lat="39.55656360081211" lon="9.016539982001527"><ele>186.66666666666666</ele><time>2026-04-18T08:45:22Z</time></trkpt><trkpt lat="39.556595568481285" lon="9.016272738921185"><ele>187.33333333333331</ele><time>2026-04-18T08:45:23Z</time></trkpt><trkpt lat="39.55660692729193" lon="9.015999612950061"><ele>188.0</ele><time>2026-04-18T08:45:24Z</time></trkpt><trkpt lat="39.556591871636364" lon="9.01572573241288"><ele>188.33333333333331</ele><time>2026-04-18T08:45:25Z</time></trkpt><trkpt lat="39.55656417822353" lon="9.01544367936345"><ele>188.66666666666666</ele><time>2026-04-18T08:45:26Z</time></trkpt><trkpt lat="39.55653667588486" lon="9.01515835345632"><ele>189.0</ele><time>2026-04-18T08:45:27Z</time></trkpt><trkpt lat="39.55650910400657" lon="9.014908059392349"><ele>189.66666666666666</ele><time>2026-04-18T08:45:28Z</time></trkpt><trkpt lat="39.55648430554684" lon="9.014650721880262"><ele>190.33333333333331</ele><time>2026-04-18T08:45:29Z</time></trkpt><trkpt lat="39.55645881423243" lon="9.014400353191688"><ele>191.0</ele><time>2026-04-18T08:45:30Z</time></trkpt><trkpt lat="39.556440394513885" lon="9.014099131170862"><ele>192.0</ele><time>2026-04-18T08:45:31Z</time></trkpt><trkpt lat="39.556415193462094" lon="9.01382578850722"><ele>193.0</ele><time>2026-04-18T08:45:32Z</time></trkpt><trkpt lat="39.55638853357682" lon="9.013556773456328"><ele>194.0</ele><time>2026-04-18T08:45:33Z</time></trkpt><trkpt lat="39.55636373279628" lon="9.013290556446616"><ele>195.0</ele><time>2026-04-18T08:45:34Z</time></trkpt><trkpt lat="39.55634110676403" lon="9.013025299521097"><ele>196.0</ele><time>2026-04-18T08:45:35Z</time></trkpt><trkpt lat="39.556315825234314" lon="9.01275716291795"><ele>197.0</ele><time>2026-04-18T08:45:36Z</time></trkpt><trkpt lat="39.556289380454515" lon="9.012488214357608"><ele>197.33333333333334</ele><time>2026-04-18T08:45:37Z</time></trkpt><trkpt lat="39.55626206194338" lon="9.012222392369187"><ele>197.66666666666669</ele><time>2026-04-18T08:45:38Z</time></trkpt><trkpt lat="39.556236220562376" lon="9.011955266678642"><ele>198.0</ele><time>2026-04-18T08:45:39Z</time></trkpt><trkpt lat="39.55621352605628" lon="9.011684080960922"><ele>198.33333333333331</ele><time>2026-04-18T08:45:40Z</time></trkpt><trkpt lat="39.556189865682505" lon="9.011412534324974"><ele>198.66666666666666</ele><time>2026-04-18T08:45:41Z</time></trkpt><trkpt lat="39.556165875513926" lon="9.011137008690577"><ele>199.0</ele><time>2026-04-18T08:45:42Z</time></trkpt><trkpt lat="39.55614290116074" lon="9.010865938316623"><ele>198.66666666666666</ele><time>2026-04-18T08:45:43Z</time></trkpt><trkpt lat="39.55611648988636" lon="9.010595200202957"><ele>198.33333333333331</ele><time>2026-04-18T08:45:44Z</time></trkpt><trkpt lat="39.556088067580305" lon="9.010326488997631"><ele>198.0</ele><time>2026-04-18T08:45:45Z</time></trkpt><trkpt lat="39.555985410029486" lon="9.010071093932499"><ele>197.33333333333331</ele><time>2026-04-18T08:45:46Z</time></trkpt><trkpt lat="39.55593656258901" lon="9.009822307534737"><ele>196.66666666666666</ele><time>2026-04-18T08:45:47Z</time></trkpt><trkpt lat="39.55586017777712" lon="9.009601960666826"><ele>196.0</ele><time>2026-04-18T08:45:48Z</time></trkpt><trkpt lat="39.555767796560026" lon="9.009430548044179"><ele>196.0</ele><time>2026-04-18T08:45:49Z</time></trkpt><trkpt lat="39.555666795321095" lon="9.00923986118256"><ele>196.0</ele><time>2026-04-18T08:45:50Z</time></trkpt><trkpt lat="39.55555858492865" lon="9.009009558454377"><ele>196.0</ele><time>2026-04-18T08:45:51Z</time></trkpt><trkpt lat="39.555456320042204" lon="9.008758514977892"><ele>194.0</ele><time>2026-04-18T08:45:52Z</time></trkpt><trkpt lat="39.55538876119283" lon="9.008516219542312"><ele>192.0</ele><time>2026-04-18T08:45:53Z</time></trkpt><trkpt lat="39.55586535512931" lon="9.00783671712954"><ele>191.66666666666666</ele><time>2026-04-18T08:45:54Z</time></trkpt><trkpt lat="39.55583862347255" lon="9.007564946872714"><ele>191.33333333333331</ele><time>2026-04-18T08:45:55Z</time></trkpt><trkpt lat="39.55581312666928" lon="9.007298947357564"><ele>191.0</ele><time>2026-04-18T08:45:56Z</time></trkpt><trkpt lat="39.55578471924424" lon="9.007037007430654"><ele>190.66666666666666</ele><time>2026-04-18T08:45:57Z</time></trkpt><trkpt lat="39.55575673706872" lon="9.006763013218315"><ele>190.33333333333334</ele><time>2026-04-18T08:45:58Z</time></trkpt><trkpt lat="39.55573780107813" lon="9.006486734994354"><ele>190.0</ele><time>2026-04-18T08:45:59Z</time></trkpt><trkpt lat="39.55571824002753" lon="9.006217833524682"><ele>189.66666666666669</ele><time>2026-04-18T08:46:00Z</time></trkpt><trkpt lat="39.55569153771427" lon="9.005951790093787"><ele>189.33333333333334</ele><time>2026-04-18T08:46:01Z</time></trkpt><trkpt lat="39.55566400676467" lon="9.005678696974948"><ele>189.0</ele><time>2026-04-18T08:46:02Z</time></trkpt><trkpt lat="39.55564187386555" lon="9.00540456396348"><ele>188.33333333333334</ele><time>2026-04-18T08:46:03Z</time></trkpt><trkpt lat="39.555613848725486" lon="9.005134797221153"><ele>187.66666666666669</ele><time>2026-04-18T08:46:04Z</time></trkpt><trkpt lat="39.55558905772923" lon="9.004863503536935"><ele>187.0</ele><time>2026-04-18T08:46:05Z</time></trkpt><trkpt lat="39.55556456734253" lon="9.004593880163618"><ele>186.0</ele><time>2026-04-18T08:46:06Z</time></trkpt><trkpt lat="39.555540083490556" lon="9.00431911437387"><ele>185.0</ele><time>2026-04-18T08:46:07Z</time></trkpt><trkpt lat="39.55551340088236" lon="9.004044027391195"><ele>184.0</ele><time>2026-04-18T08:46:08Z</time></trkpt><trkpt lat="39.55549302208721" lon="9.003768268423263"><ele>183.66666666666669</ele><time>2026-04-18T08:46:09Z</time></trkpt><trkpt lat="39.55546717850869" lon="9.003499750680925"><ele>183.33333333333334</ele><time>2026-04-18T08:46:10Z</time></trkpt><trkpt lat="39.555442589476016" lon="9.003233783529842"><ele>183.0</ele><time>2026-04-18T08:46:11Z</time></trkpt><trkpt lat="39.55541337311539" lon="9.002971987385415"><ele>181.66666666666666</ele><time>2026-04-18T08:46:12Z</time></trkpt><trkpt lat="39.555370445763515" lon="9.002723711487508"><ele>180.33333333333331</ele><time>2026-04-18T08:46:13Z</time></trkpt><trkpt lat="39.55528987253352" lon="9.002493493843895"><ele>179.0</ele><time>2026-04-18T08:46:14Z</time></trkpt><trkpt lat="39.555177592639744" lon="9.002282362133737"><ele>179.0</ele><time>2026-04-18T08:46:15Z</time></trkpt><trkpt lat="39.55505939538642" lon="9.002079600141382"><ele>179.0</ele><time>2026-04-18T08:46:16Z</time></trkpt><trkpt lat="39.55494641393462" lon="9.001878016986412"><ele>179.0</ele><time>2026-04-18T08:46:17Z</time></trkpt><trkpt lat="39.55485175172892" lon="9.001675004840916"><ele>179.66666666666666</ele><time>2026-04-18T08:46:18Z</time></trkpt><trkpt lat="39.55478223882517" lon="9.001464289993272"><ele>180.33333333333334</ele><time>2026-04-18T08:46:19Z</time></trkpt><trkpt lat="39.55473007088017" lon="9.001245377244025"><ele>181.0</ele><time>2026-04-18T08:46:20Z</time></trkpt><trkpt lat="39.55467544137448" lon="9.001037573900327"><ele>181.0</ele><time>2026-04-18T08:46:21Z</time></trkpt><trkpt lat="39.55459154872365" lon="9.000858501569775"><ele>181.0</ele><time>2026-04-18T08:46:22Z</time></trkpt><trkpt lat="39.554466446481264" lon="9.000719648723129"><ele>181.0</ele><time>2026-04-18T08:46:23Z</time></trkpt><trkpt lat="39.55430966950406" lon="9.000624487652512"><ele>178.33333333333334</ele><time>2026-04-18T08:46:24Z</time></trkpt><trkpt lat="39.55414326700511" lon="9.00056187014643"><ele>175.66666666666666</ele><time>2026-04-18T08:46:25Z</time></trkpt><trkpt lat="39.55398937629704" lon="9.000485660010915"><ele>173.0</ele><time>2026-04-18T08:46:26Z</time></trkpt><trkpt lat="39.55385231199902" lon="9.000358911902262"><ele>173.0</ele><time>2026-04-18T08:46:27Z</time></trkpt><trkpt lat="39.55373451933127" lon="9.000195960761127"><ele>173.0</ele><time>2026-04-18T08:46:28Z</time></trkpt><trkpt lat="39.553643938255426" lon="9.0000080310835"><ele>173.0</ele><time>2026-04-18T08:46:29Z</time></trkpt><trkpt lat="39.55359043162494" lon="8.99980301234929"><ele>170.33333333333331</ele><time>2026-04-18T08:46:30Z</time></trkpt><trkpt lat="39.55357597390904" lon="8.999582928258455"><ele>167.66666666666666</ele><time>2026-04-18T08:46:31Z</time></trkpt><trkpt lat="39.55358052173375" lon="8.999356187742036"><ele>165.0</ele><time>2026-04-18T08:46:32Z</time></trkpt><trkpt lat="39.55357570961805" lon="8.999125423126396"><ele>164.33333333333334</ele><time>2026-04-18T08:46:33Z</time></trkpt><trkpt lat="39.5535610317204" lon="8.998891328297448"><ele>163.66666666666669</ele><time>2026-04-18T08:46:34Z</time></trkpt><trkpt lat="39.55354912728639" lon="8.998653723716005"><ele>163.0</ele><time>2026-04-18T08:46:35Z</time></trkpt><trkpt lat="39.553544013375266" lon="8.998424776786505"><ele>162.0</ele><time>2026-04-18T08:46:36Z</time></trkpt><trkpt lat="39.55355376758574" lon="8.99820162178169"><ele>161.0</ele><time>2026-04-18T08:46:37Z</time></trkpt><trkpt lat="39.55359591072435" lon="8.997979478288244"><ele>160.0</ele><time>2026-04-18T08:46:38Z</time></trkpt><trkpt lat="39.55367497336713" lon="8.997762718136805"><ele>161.0</ele><time>2026-04-18T08:46:39Z</time></trkpt><trkpt lat="39.55377924972867" lon="8.997556451203332"><ele>162.0</ele><time>2026-04-18T08:46:40Z</time></trkpt><trkpt lat="39.55388968088472" lon="8.997347568363834"><ele>163.0</ele><time>2026-04-18T08:46:41Z</time></trkpt><trkpt lat="39.55399287193943" lon="8.997132365839445"><ele>163.0</ele><time>2026-04-18T08:46:42Z</time></trkpt><trkpt lat="39.55408853043072" lon="8.996908637055704"><ele>163.0</ele><time>2026-04-18T08:46:43Z</time></trkpt><trkpt lat="39.554172547458116" lon="8.996676964779025"><ele>163.0</ele><time>2026-04-18T08:46:44Z</time></trkpt><trkpt lat="39.55424603533511" lon="8.99643438315263"><ele>161.0</ele><time>2026-04-18T08:46:45Z</time></trkpt><trkpt lat="39.55430832508943" lon="8.99618719720516"><ele>159.0</ele><time>2026-04-18T08:46:46Z</time></trkpt><trkpt lat="39.554366287219715" lon="8.995934043247333"><ele>157.0</ele><time>2026-04-18T08:46:47Z</time></trkpt><trkpt lat="39.5544265055516" lon="8.995679845647722"><ele>157.33333333333334</ele><time>2026-04-18T08:46:48Z</time></trkpt><trkpt lat="39.554491690138356" lon="8.995427859845723"><ele>157.66666666666666</ele><time>2026-04-18T08:46:49Z</time></trkpt><trkpt lat="39.55455810312946" lon="8.995176951671729"><ele>158.0</ele><time>2026-04-18T08:46:50Z</time></trkpt><trkpt lat="39.55462219608565" lon="8.994923466944904"><ele>158.0</ele><time>2026-04-18T08:46:51Z</time></trkpt><trkpt lat="39.554682299031946" lon="8.994674782009902"><ele>158.0</ele><time>2026-04-18T08:46:52Z</time></trkpt><trkpt lat="39.55473899010269" lon="8.994438153650716"><ele>158.0</ele><time>2026-04-18T08:46:53Z</time></trkpt><trkpt lat="39.554795238956004" lon="8.99421177298087"><ele>155.33333333333331</ele><time>2026-04-18T08:46:54Z</time></trkpt><trkpt lat="39.55485431649123" lon="8.99399840498515"><ele>152.66666666666666</ele><time>2026-04-18T08:46:55Z</time></trkpt><trkpt lat="39.55492889601468" lon="8.99379730965244"><ele>150.0</ele><time>2026-04-18T08:46:56Z</time></trkpt><trkpt lat="39.55503018118903" lon="8.99361941372262"><ele>150.0</ele><time>2026-04-18T08:46:57Z</time></trkpt><trkpt lat="39.55516694943959" lon="8.993470546180395"><ele>150.0</ele><time>2026-04-18T08:46:58Z</time></trkpt><trkpt lat="39.55532790728367" lon="8.993344469119286"><ele>150.0</ele><time>2026-04-18T08:46:59Z</time></trkpt><trkpt lat="39.5554913007995" lon="8.993219911992435"><ele>149.0</ele><time>2026-04-18T08:47:00Z</time></trkpt><trkpt lat="39.55564968527745" lon="8.99308184441162"><ele>148.0</ele><time>2026-04-18T08:47:01Z</time></trkpt><trkpt lat="39.555802822572154" lon="8.992930138096355"><ele>147.0</ele><time>2026-04-18T08:47:02Z</time></trkpt><trkpt lat="39.555941446801576" lon="8.992748725151392"><ele>147.0</ele><time>2026-04-18T08:47:03Z</time></trkpt><trkpt lat="39.55606982343234" lon="8.992545895603241"><ele>147.0</ele><time>2026-04-18T08:47:04Z</time></trkpt><trkpt lat="39.55619879789931" lon="8.992342732853439"><ele>147.0</ele><time>2026-04-18T08:47:05Z</time></trkpt><trkpt lat="39.55633016759553" lon="8.992140942543212"><ele>146.66666666666666</ele><time>2026-04-18T08:47:06Z</time></trkpt><trkpt lat="39.55645957750408" lon="8.991938908090505"><ele>146.33333333333331</ele><time>2026-04-18T08:47:07Z</time></trkpt><trkpt lat="39.55658660984535" lon="8.991733038262536"><ele>146.0</ele><time>2026-04-18T08:47:08Z</time></trkpt><trkpt lat="39.55671204004882" lon="8.99152996380007"><ele>147.0</ele><time>2026-04-18T08:47:09Z</time></trkpt><trkpt lat="39.55683658574616" lon="8.991329948101058"><ele>148.0</ele><time>2026-04-18T08:47:10Z</time></trkpt><trkpt lat="39.55696193500465" lon="8.99113192370724"><ele>149.0</ele><time>2026-04-18T08:47:11Z</time></trkpt><trkpt lat="39.55708596155371" lon="8.99094032570735"><ele>146.66666666666666</ele><time>2026-04-18T08:47:12Z</time></trkpt><trkpt lat="39.557204038561764" lon="8.99075621776298"><ele>144.33333333333334</ele><time>2026-04-18T08:47:13Z</time></trkpt><trkpt lat="39.557314291062" lon="8.99057798941607"><ele>142.0</ele><time>2026-04-18T08:47:14Z</time></trkpt><trkpt lat="39.55741897029969" lon="8.99040957768072"><ele>142.0</ele><time>2026-04-18T08:47:15Z</time></trkpt><trkpt lat="39.55752845686955" lon="8.990256313392305"><ele>142.0</ele><time>2026-04-18T08:47:16Z</time></trkpt><trkpt lat="39.55764977433529" lon="8.990130334695571"><ele>142.0</ele><time>2026-04-18T08:47:17Z</time></trkpt><trkpt lat="39.55779008284179" lon="8.990036148415896"><ele>141.75</ele><time>2026-04-18T08:47:18Z</time></trkpt><trkpt lat="39.55793662453797" lon="8.989969328328987"><ele>141.5</ele><time>2026-04-18T08:47:19Z</time></trkpt><trkpt lat="39.5580728589077" lon="8.989900154806287"><ele>141.25</ele><time>2026-04-18T08:47:20Z</time></trkpt><trkpt lat="39.55818886496032" lon="8.989808333063904"><ele>141.0</ele><time>2026-04-18T08:47:21Z</time></trkpt><trkpt lat="39.55829191297969" lon="8.989710135879106"><ele>141.0</ele><time>2026-04-18T08:47:22Z</time></trkpt><trkpt lat="39.55839622725036" lon="8.989633688733361"><ele>141.0</ele><time>2026-04-18T08:47:23Z</time></trkpt><trkpt lat="39.558487478781444" lon="8.989568572362483"><ele>141.0</ele><time>2026-04-18T08:47:24Z</time></trkpt><trkpt lat="39.558540965804724" lon="8.98947683742247"><ele>141.0</ele><time>2026-04-18T08:47:25Z</time></trkpt><trkpt lat="39.55855093019191" lon="8.989355027496893"><ele>141.0</ele><time>2026-04-18T08:47:26Z</time></trkpt><trkpt lat="39.55854189350257" lon="8.98921764075259"><ele>139.75</ele><time>2026-04-18T08:47:27Z</time></trkpt><trkpt lat="39.55855900371805" lon="8.98907733292427"><ele>138.5</ele><time>2026-04-18T08:47:28Z</time></trkpt><trkpt lat="39.55861850202605" lon="8.988932380086183"><ele>137.25</ele><time>2026-04-18T08:47:29Z</time></trkpt><trkpt lat="39.558696969572935" lon="8.988787274984377"><ele>136.0</ele><time>2026-04-18T08:47:30Z</time></trkpt><trkpt lat="39.558790366410285" lon="8.988650571633443"><ele>136.0</ele><time>2026-04-18T08:47:31Z</time></trkpt><trkpt lat="39.55889964074428" lon="8.988524374119967"><ele>136.0</ele><time>2026-04-18T08:47:32Z</time></trkpt><trkpt lat="39.55900742069128" lon="8.988398208435436"><ele>136.0</ele><time>2026-04-18T08:47:33Z</time></trkpt><trkpt lat="39.55911358570129" lon="8.988267177294572"><ele>136.0</ele><time>2026-04-18T08:47:34Z</time></trkpt><trkpt lat="39.55921889330105" lon="8.988133890953064"><ele>135.5</ele><time>2026-04-18T08:47:35Z</time></trkpt><trkpt lat="39.559326768372856" lon="8.987998113591258"><ele>135.0</ele><time>2026-04-18T08:47:36Z</time></trkpt><trkpt lat="39.55943097603312" lon="8.987860696452517"><ele>134.5</ele><time>2026-04-18T08:47:37Z</time></trkpt><trkpt lat="39.559528917401686" lon="8.98772443447477"><ele>134.0</ele><time>2026-04-18T08:47:38Z</time></trkpt><trkpt lat="39.559622124020116" lon="8.987581399261337"><ele>135.25</ele><time>2026-04-18T08:47:39Z</time></trkpt><trkpt lat="39.559713569657006" lon="8.987435576423811"><ele>136.5</ele><time>2026-04-18T08:47:40Z</time></trkpt><trkpt lat="39.55980156841773" lon="8.987285893504515"><ele>137.75</ele><time>2026-04-18T08:47:41Z</time></trkpt><trkpt lat="39.55988348667915" lon="8.987136376308722"><ele>139.0</ele><time>2026-04-18T08:47:42Z</time></trkpt><trkpt lat="39.55996089778207" lon="8.986990379280678"><ele>139.0</ele><time>2026-04-18T08:47:43Z</time></trkpt><trkpt lat="39.560036154193185" lon="8.986851145688442"><ele>139.0</ele><time>2026-04-18T08:47:44Z</time></trkpt><trkpt lat="39.56011181684434" lon="8.986716666294669"><ele>139.0</ele><time>2026-04-18T08:47:45Z</time></trkpt><trkpt lat="39.56018739206963" lon="8.986585868186754"><ele>139.0</ele><time>2026-04-18T08:47:46Z</time></trkpt><trkpt lat="39.5602650432668" lon="8.986457572873814"><ele>138.75</ele><time>2026-04-18T08:47:47Z</time></trkpt><trkpt lat="39.56033886122071" lon="8.986323053941954"><ele>138.5</ele><time>2026-04-18T08:47:48Z</time></trkpt><trkpt lat="39.56040823780955" lon="8.986183989921903"><ele>138.25</ele><time>2026-04-18T08:47:49Z</time></trkpt><trkpt lat="39.56047764156177" lon="8.986052511569497"><ele>138.0</ele><time>2026-04-18T08:47:50Z</time></trkpt><trkpt lat="39.56054768811447" lon="8.985928531656368"><ele>136.25</ele><time>2026-04-18T08:47:51Z</time></trkpt><trkpt lat="39.56061380169315" lon="8.985803987101072"><ele>134.5</ele><time>2026-04-18T08:47:52Z</time></trkpt><trkpt lat="39.56068307200801" lon="8.985681737701402"><ele>132.75</ele><time>2026-04-18T08:47:53Z</time></trkpt><trkpt lat="39.560761878221975" lon="8.98556116339625"><ele>131.0</ele><time>2026-04-18T08:47:54Z</time></trkpt><trkpt lat="39.56084318869109" lon="8.985429456739041"><ele>131.0</ele><time>2026-04-18T08:47:55Z</time></trkpt><trkpt lat="39.560919515960414" lon="8.98528857842298"><ele>131.0</ele><time>2026-04-18T08:47:56Z</time></trkpt><trkpt lat="39.56099783587978" lon="8.985148543134182"><ele>131.0</ele><time>2026-04-18T08:47:57Z</time></trkpt><trkpt lat="39.56108284259062" lon="8.985009261417586"><ele>131.0</ele><time>2026-04-18T08:47:58Z</time></trkpt><trkpt lat="39.56116799221678" lon="8.98487365803983"><ele>130.0</ele><time>2026-04-18T08:47:59Z</time></trkpt><trkpt lat="39.56125922276208" lon="8.984738960450523"><ele>129.0</ele><time>2026-04-18T08:48:00Z</time></trkpt><trkpt lat="39.56135959062158" lon="8.984612185464677"><ele>128.0</ele><time>2026-04-18T08:48:01Z</time></trkpt><trkpt lat="39.561468892788504" lon="8.984499417594854"><ele>127.0</ele><time>2026-04-18T08:48:02Z</time></trkpt><trkpt lat="39.561583731309824" lon="8.984388361019425"><ele>127.0</ele><time>2026-04-18T08:48:03Z</time></trkpt><trkpt lat="39.561700054813066" lon="8.98428088539826"><ele>127.0</ele><time>2026-04-18T08:48:04Z</time></trkpt><trkpt lat="39.56181580752292" lon="8.984171400169954"><ele>127.0</ele><time>2026-04-18T08:48:05Z</time></trkpt><trkpt lat="39.561929354426155" lon="8.984065663502356"><ele>127.0</ele><time>2026-04-18T08:48:06Z</time></trkpt><trkpt lat="39.5620399839795" lon="8.983962823285655"><ele>125.75</ele><time>2026-04-18T08:48:07Z</time></trkpt><trkpt lat="39.562148743425226" lon="8.983861471921141"><ele>124.5</ele><time>2026-04-18T08:48:08Z</time></trkpt><trkpt lat="39.56225790566921" lon="8.983771964038672"><ele>123.25</ele><time>2026-04-18T08:48:09Z</time></trkpt><trkpt lat="39.56236388173727" lon="8.983681634497646"><ele>122.0</ele><time>2026-04-18T08:48:10Z</time></trkpt><trkpt lat="39.56245493310952" lon="8.98358248055903"><ele>122.0</ele><time>2026-04-18T08:48:11Z</time></trkpt><trkpt lat="39.562534023990494" lon="8.983462966797331"><ele>122.0</ele><time>2026-04-18T08:48:12Z</time></trkpt><trkpt lat="39.56259325365815" lon="8.983323609262555"><ele>122.0</ele><time>2026-04-18T08:48:13Z</time></trkpt><trkpt lat="39.56263981064765" lon="8.983182866485956"><ele>122.0</ele><time>2026-04-18T08:48:14Z</time></trkpt><trkpt lat="39.562685276529194" lon="8.983048452038878"><ele>121.39999999999999</ele><time>2026-04-18T08:48:15Z</time></trkpt><trkpt lat="39.562758506492514" lon="8.982949944210734"><ele>120.79999999999998</ele><time>2026-04-18T08:48:16Z</time></trkpt><trkpt lat="39.56284710264382" lon="8.98288844734935"><ele>120.2</ele><time>2026-04-18T08:48:17Z</time></trkpt><trkpt lat="39.56294083758794" lon="8.982846566404795"><ele>119.6</ele><time>2026-04-18T08:48:18Z</time></trkpt><trkpt lat="39.56303675748284" lon="8.982805746405495"><ele>119.0</ele><time>2026-04-18T08:48:19Z</time></trkpt><trkpt lat="39.56313389426695" lon="8.982740101042694"><ele>119.0</ele><time>2026-04-18T08:48:20Z</time></trkpt><trkpt lat="39.563225107656336" lon="8.982650074347509"><ele>119.0</ele><time>2026-04-18T08:48:21Z</time></trkpt><trkpt lat="39.563301006697415" lon="8.98253575042485"><ele>119.0</ele><time>2026-04-18T08:48:22Z</time></trkpt><trkpt lat="39.56336232156139" lon="8.982401630405475"><ele>119.0</ele><time>2026-04-18T08:48:23Z</time></trkpt><trkpt lat="39.56341856438572" lon="8.982264903738454"><ele>118.25</ele><time>2026-04-18T08:48:24Z</time></trkpt><trkpt lat="39.56347668549704" lon="8.982121353866201"><ele>117.5</ele><time>2026-04-18T08:48:25Z</time></trkpt><trkpt lat="39.563534360585955" lon="8.981977749422747"><ele>116.75</ele><time>2026-04-18T08:48:26Z</time></trkpt><trkpt lat="39.56358417373065" lon="8.981839467083386"><ele>116.0</ele><time>2026-04-18T08:48:27Z</time></trkpt><trkpt lat="39.5636319400236" lon="8.98169530440178"><ele>115.75</ele><time>2026-04-18T08:48:28Z</time></trkpt><trkpt lat="39.56367466621079" lon="8.981545955298923"><ele>115.5</ele><time>2026-04-18T08:48:29Z</time></trkpt><trkpt lat="39.56371425941914" lon="8.981393992940996"><ele>115.25</ele><time>2026-04-18T08:48:30Z</time></trkpt><trkpt lat="39.56375563532165" lon="8.981241466153323"><ele>115.0</ele><time>2026-04-18T08:48:31Z</time></trkpt><trkpt lat="39.56380018499927" lon="8.981091821126661"><ele>114.75</ele><time>2026-04-18T08:48:32Z</time></trkpt><trkpt lat="39.563844421500264" lon="8.980944420615629"><ele>114.5</ele><time>2026-04-18T08:48:33Z</time></trkpt><trkpt lat="39.56388400988866" lon="8.980799381387564"><ele>114.25</ele><time>2026-04-18T08:48:34Z</time></trkpt><trkpt lat="39.56392534196107" lon="8.98065884703866"><ele>114.0</ele><time>2026-04-18T08:48:35Z</time></trkpt><trkpt lat="39.5639697639048" lon="8.980519979275881"><ele>113.75</ele><time>2026-04-18T08:48:36Z</time></trkpt><trkpt lat="39.56401089565742" lon="8.980376847342795"><ele>113.5</ele><time>2026-04-18T08:48:37Z</time></trkpt><trkpt lat="39.564048296480266" lon="8.98023053212901"><ele>113.25</ele><time>2026-04-18T08:48:38Z</time></trkpt><trkpt lat="39.564085981678964" lon="8.980082793773892"><ele>113.0</ele><time>2026-04-18T08:48:39Z</time></trkpt><trkpt lat="39.56412092938839" lon="8.979934462233363"><ele>113.0</ele><time>2026-04-18T08:48:40Z</time></trkpt><trkpt lat="39.564163936596096" lon="8.979785418275238"><ele>113.0</ele><time>2026-04-18T08:48:41Z</time></trkpt><trkpt lat="39.56420320659471" lon="8.979635689448292"><ele>113.0</ele><time>2026-04-18T08:48:42Z</time></trkpt><trkpt lat="39.56423965110025" lon="8.979488278456163"><ele>113.0</ele><time>2026-04-18T08:48:43Z</time></trkpt><trkpt lat="39.56428296837152" lon="8.979337482091887"><ele>113.5</ele><time>2026-04-18T08:48:44Z</time></trkpt><trkpt lat="39.56433041950977" lon="8.979183760644895"><ele>114.0</ele><time>2026-04-18T08:48:45Z</time></trkpt><trkpt lat="39.56437568944576" lon="8.979027823535487"><ele>114.5</ele><time>2026-04-18T08:48:46Z</time></trkpt><trkpt lat="39.564421766757626" lon="8.978867869296778"><ele>115.0</ele><time>2026-04-18T08:48:47Z</time></trkpt><trkpt lat="39.56446667907094" lon="8.978706694652452"><ele>115.0</ele><time>2026-04-18T08:48:48Z</time></trkpt><trkpt lat="39.56450221003423" lon="8.978542028125377"><ele>115.0</ele><time>2026-04-18T08:48:49Z</time></trkpt><trkpt lat="39.564533849875154" lon="8.9783834553006"><ele>115.0</ele><time>2026-04-18T08:48:50Z</time></trkpt><trkpt lat="39.56457020716352" lon="8.978226943007444"><ele>115.0</ele><time>2026-04-18T08:48:51Z</time></trkpt><trkpt lat="39.56460288680762" lon="8.978065777075276"><ele>113.5</ele><time>2026-04-18T08:48:52Z</time></trkpt><trkpt lat="39.56461446302972" lon="8.977896566923915"><ele>112.0</ele><time>2026-04-18T08:48:53Z</time></trkpt><trkpt lat="39.56461453088547" lon="8.97772256395002"><ele>110.5</ele><time>2026-04-18T08:48:54Z</time></trkpt><trkpt lat="39.56461107131921" lon="8.977543973683328"><ele>109.0</ele><time>2026-04-18T08:48:55Z</time></trkpt><trkpt lat="39.564609896590085" lon="8.977359530779095"><ele>108.75</ele><time>2026-04-18T08:48:56Z</time></trkpt><trkpt lat="39.56460941908404" lon="8.977170277964138"><ele>108.5</ele><time>2026-04-18T08:48:57Z</time></trkpt><trkpt lat="39.564603051504044" lon="8.976977264397851"><ele>108.25</ele><time>2026-04-18T08:48:58Z</time></trkpt><trkpt lat="39.564592377108134" lon="8.976785964640568"><ele>108.0</ele><time>2026-04-18T08:48:59Z</time></trkpt><trkpt lat="39.56458118076856" lon="8.976593853656176"><ele>107.75</ele><time>2026-04-18T08:49:00Z</time></trkpt><trkpt lat="39.56457271394445" lon="8.976405056829607"><ele>107.5</ele><time>2026-04-18T08:49:01Z</time></trkpt><trkpt lat="39.56456791054152" lon="8.97621376736551"><ele>107.25</ele><time>2026-04-18T08:49:02Z</time></trkpt><trkpt lat="39.56456367426044" lon="8.976021203894422"><ele>107.0</ele><time>2026-04-18T08:49:03Z</time></trkpt><trkpt lat="39.56455684766636" lon="8.975829684528339"><ele>106.66666666666666</ele><time>2026-04-18T08:49:04Z</time></trkpt><trkpt lat="39.56454771529141" lon="8.975634738050966"><ele>106.33333333333334</ele><time>2026-04-18T08:49:05Z</time></trkpt><trkpt lat="39.56454188634808" lon="8.975435485378268"><ele>106.0</ele><time>2026-04-18T08:49:06Z</time></trkpt><trkpt lat="39.56453851145518" lon="8.975229252261508"><ele>106.0</ele><time>2026-04-18T08:49:07Z</time></trkpt><trkpt lat="39.56453233924996" lon="8.975023949633968"><ele>106.0</ele><time>2026-04-18T08:49:08Z</time></trkpt><trkpt lat="39.56452204867752" lon="8.974812921353488"><ele>106.0</ele><time>2026-04-18T08:49:09Z</time></trkpt><trkpt lat="39.56451444613327" lon="8.974603550950823"><ele>108.33333333333334</ele><time>2026-04-18T08:49:10Z</time></trkpt><trkpt lat="39.5645099432426" lon="8.974395383812585"><ele>110.66666666666666</ele><time>2026-04-18T08:49:11Z</time></trkpt><trkpt lat="39.564506763680185" lon="8.97418664145809"><ele>113.0</ele><time>2026-04-18T08:49:12Z</time></trkpt><trkpt lat="39.56451699302597" lon="8.973972613096555"><ele>110.66666666666666</ele><time>2026-04-18T08:49:13Z</time></trkpt><trkpt lat="39.56455573793084" lon="8.973761612224143"><ele>108.33333333333334</ele><time>2026-04-18T08:49:14Z</time></trkpt><trkpt lat="39.56462428286472" lon="8.973562629929932"><ele>106.0</ele><time>2026-04-18T08:49:15Z</time></trkpt><trkpt lat="39.56470911894391" lon="8.97337211083583"><ele>105.66666666666667</ele><time>2026-04-18T08:49:16Z</time></trkpt><trkpt lat="39.564801825271836" lon="8.97318116910788"><ele>105.33333333333334</ele><time>2026-04-18T08:49:17Z</time></trkpt><trkpt lat="39.56489082120797" lon="8.972983937617572"><ele>105.0</ele><time>2026-04-18T08:49:18Z</time></trkpt><trkpt lat="39.564978575806094" lon="8.972783301586174"><ele>105.0</ele><time>2026-04-18T08:49:19Z</time></trkpt><trkpt lat="39.5650663878702" lon="8.97258223795177"><ele>105.0</ele><time>2026-04-18T08:49:20Z</time></trkpt><trkpt lat="39.56515455104967" lon="8.972392596723681"><ele>105.0</ele><time>2026-04-18T08:49:21Z</time></trkpt><trkpt lat="39.56523885810138" lon="8.972217824702389"><ele>105.0</ele><time>2026-04-18T08:49:22Z</time></trkpt><trkpt lat="39.56531605614931" lon="8.972057898977543"><ele>105.0</ele><time>2026-04-18T08:49:23Z</time></trkpt><trkpt lat="39.56538631256045" lon="8.971911997875912"><ele>105.0</ele><time>2026-04-18T08:49:24Z</time></trkpt><trkpt lat="39.56545871719106" lon="8.971765721637194"><ele>105.0</ele><time>2026-04-18T08:49:25Z</time></trkpt><trkpt lat="39.565536464353535" lon="8.971609085322044"><ele>105.0</ele><time>2026-04-18T08:49:26Z</time></trkpt><trkpt lat="39.565610031063464" lon="8.971441800084577"><ele>105.0</ele><time>2026-04-18T08:49:27Z</time></trkpt><trkpt lat="39.565680968180175" lon="8.971265479120765"><ele>105.0</ele><time>2026-04-18T08:49:28Z</time></trkpt><trkpt lat="39.565758792168275" lon="8.97108487211624"><ele>105.0</ele><time>2026-04-18T08:49:29Z</time></trkpt><trkpt lat="39.56584212859143" lon="8.970899086333509"><ele>105.0</ele><time>2026-04-18T08:49:30Z</time></trkpt><trkpt lat="39.5659217363662" lon="8.970707844300954"><ele>105.0</ele><time>2026-04-18T08:49:31Z</time></trkpt><trkpt lat="39.56600007572089" lon="8.970504090231884"><ele>104.66666666666666</ele><time>2026-04-18T08:49:32Z</time></trkpt><trkpt lat="39.566072849803355" lon="8.970303232704927"><ele>104.33333333333333</ele><time>2026-04-18T08:49:33Z</time></trkpt><trkpt lat="39.566146787977154" lon="8.970096449570075"><ele>104.0</ele><time>2026-04-18T08:49:34Z</time></trkpt><trkpt lat="39.56621977975326" lon="8.969885551231174"><ele>104.0</ele><time>2026-04-18T08:49:35Z</time></trkpt><trkpt lat="39.56629316355851" lon="8.969671686003798"><ele>104.0</ele><time>2026-04-18T08:49:36Z</time></trkpt><trkpt lat="39.566368751512094" lon="8.969451657426994"><ele>104.0</ele><time>2026-04-18T08:49:37Z</time></trkpt><trkpt lat="39.56644417445844" lon="8.969223402967046"><ele>104.0</ele><time>2026-04-18T08:49:38Z</time></trkpt><trkpt lat="39.56651850582518" lon="8.96898952710705"><ele>104.0</ele><time>2026-04-18T08:49:39Z</time></trkpt><trkpt lat="39.56659911686897" lon="8.968753827410163"><ele>104.0</ele><time>2026-04-18T08:49:40Z</time></trkpt><trkpt lat="39.56668180386944" lon="8.968516006373704"><ele>103.0</ele><time>2026-04-18T08:49:41Z</time></trkpt><trkpt lat="39.56676095941098" lon="8.968272373082103"><ele>102.0</ele><time>2026-04-18T08:49:42Z</time></trkpt><trkpt lat="39.56684279218865" lon="8.96802833306251"><ele>101.0</ele><time>2026-04-18T08:49:43Z</time></trkpt><trkpt lat="39.566926363685276" lon="8.96778437552582"><ele>101.0</ele><time>2026-04-18T08:49:44Z</time></trkpt><trkpt lat="39.5670106108386" lon="8.96753822571913"><ele>101.0</ele><time>2026-04-18T08:49:45Z</time></trkpt><trkpt lat="39.567093420160326" lon="8.967292564792908"><ele>101.0</ele><time>2026-04-18T08:49:46Z</time></trkpt><trkpt lat="39.567174823653005" lon="8.967043653091062"><ele>100.66666666666666</ele><time>2026-04-18T08:49:47Z</time></trkpt><trkpt lat="39.56725744850934" lon="8.966791950935255"><ele>100.33333333333334</ele><time>2026-04-18T08:49:48Z</time></trkpt><trkpt lat="39.567341175507806" lon="8.966541441477595"><ele>100.0</ele><time>2026-04-18T08:49:49Z</time></trkpt><trkpt lat="39.56742526448341" lon="8.966289277383254"><ele>100.0</ele><time>2026-04-18T08:49:50Z</time></trkpt><trkpt lat="39.56751202184204" lon="8.96603285575606"><ele>100.0</ele><time>2026-04-18T08:49:51Z</time></trkpt><trkpt lat="39.56760201059546" lon="8.965767778734191"><ele>100.0</ele><time>2026-04-18T08:49:52Z</time></trkpt><trkpt lat="39.567693923764374" lon="8.965495527758348"><ele>100.0</ele><time>2026-04-18T08:49:53Z</time></trkpt><trkpt lat="39.56776827825537" lon="8.965278259847413"><ele>100.0</ele><time>2026-04-18T08:49:54Z</time></trkpt><trkpt lat="39.567852945365715" lon="8.965021172590232"><ele>100.0</ele><time>2026-04-18T08:49:55Z</time></trkpt><trkpt lat="39.56793878477191" lon="8.964760677804222"><ele>100.0</ele><time>2026-04-18T08:49:56Z</time></trkpt><trkpt lat="39.56802465137973" lon="8.964500836801811"><ele>100.0</ele><time>2026-04-18T08:49:57Z</time></trkpt><trkpt lat="39.568110785662476" lon="8.964242655547123"><ele>100.0</ele><time>2026-04-18T08:49:58Z</time></trkpt><trkpt lat="39.568199406423325" lon="8.963983323774537"><ele>100.0</ele><time>2026-04-18T08:49:59Z</time></trkpt><trkpt lat="39.56828876567771" lon="8.963724636802734"><ele>100.0</ele><time>2026-04-18T08:50:00Z</time></trkpt><trkpt lat="39.568375649513186" lon="8.96346766555667"><ele>100.0</ele><time>2026-04-18T08:50:01Z</time></trkpt><trkpt lat="39.56846270163623" lon="8.963209000284659"><ele>101.0</ele><time>2026-04-18T08:50:02Z</time></trkpt><trkpt lat="39.56854893386036" lon="8.962956612959406"><ele>102.0</ele><time>2026-04-18T08:50:03Z</time></trkpt><trkpt lat="39.56863454718845" lon="8.962718283436413"><ele>103.0</ele><time>2026-04-18T08:50:04Z</time></trkpt><trkpt lat="39.56870992129608" lon="8.96249155756674"><ele>101.0</ele><time>2026-04-18T08:50:05Z</time></trkpt><trkpt lat="39.56877828657338" lon="8.962274246338024"><ele>99.0</ele><time>2026-04-18T08:50:06Z</time></trkpt><trkpt lat="39.568841348836784" lon="8.962068547436104"><ele>97.0</ele><time>2026-04-18T08:50:07Z</time></trkpt><trkpt lat="39.56888829312384" lon="8.961868613612515"><ele>97.33333333333334</ele><time>2026-04-18T08:50:08Z</time></trkpt><trkpt lat="39.56890265151291" lon="8.961667146140721"><ele>97.66666666666666</ele><time>2026-04-18T08:50:09Z</time></trkpt><trkpt lat="39.56887750332398" lon="8.961456368378796"><ele>98.0</ele><time>2026-04-18T08:50:10Z</time></trkpt><trkpt lat="39.568815256344834" lon="8.961242375175427"><ele>98.0</ele><time>2026-04-18T08:50:11Z</time></trkpt><trkpt lat="39.568740194646615" lon="8.961031739440486"><ele>98.0</ele><time>2026-04-18T08:50:12Z</time></trkpt><trkpt lat="39.56868640136724" lon="8.960807657586074"><ele>98.0</ele><time>2026-04-18T08:50:13Z</time></trkpt><trkpt lat="39.56865993420178" lon="8.960569648887438"><ele>98.0</ele><time>2026-04-18T08:50:14Z</time></trkpt><trkpt lat="39.56866066390472" lon="8.960329892583722"><ele>98.0</ele><time>2026-04-18T08:50:15Z</time></trkpt><trkpt lat="39.56873725131167" lon="8.960103863026971"><ele>98.0</ele><time>2026-04-18T08:50:16Z</time></trkpt><trkpt lat="39.56879114521493" lon="8.959876426454194"><ele>98.33333333333333</ele><time>2026-04-18T08:50:17Z</time></trkpt><trkpt lat="39.568856078860726" lon="8.959655230847869"><ele>98.66666666666666</ele><time>2026-04-18T08:50:18Z</time></trkpt><trkpt lat="39.56887514728998" lon="8.959415915454587"><ele>99.0</ele><time>2026-04-18T08:50:19Z</time></trkpt><trkpt lat="39.56887135966834" lon="8.959170569170078"><ele>99.0</ele><time>2026-04-18T08:50:20Z</time></trkpt><trkpt lat="39.568858184249706" lon="8.958922075629589"><ele>99.0</ele><time>2026-04-18T08:50:21Z</time></trkpt><trkpt lat="39.56884551166289" lon="8.958679988913456"><ele>99.0</ele><time>2026-04-18T08:50:22Z</time></trkpt><trkpt lat="39.56882063974034" lon="8.958451365665603"><ele>98.0</ele><time>2026-04-18T08:50:23Z</time></trkpt><trkpt lat="39.56877540413186" lon="8.958232726554963"><ele>97.0</ele><time>2026-04-18T08:50:24Z</time></trkpt><trkpt lat="39.56871339517783" lon="8.95802005293112"><ele>96.0</ele><time>2026-04-18T08:50:25Z</time></trkpt><trkpt lat="39.568634676545365" lon="8.957817039809825"><ele>98.66666666666666</ele><time>2026-04-18T08:50:26Z</time></trkpt><trkpt lat="39.56853867971639" lon="8.957626751796283"><ele>101.33333333333333</ele><time>2026-04-18T08:50:27Z</time></trkpt><trkpt lat="39.56843624463992" lon="8.957439394047062"><ele>104.0</ele><time>2026-04-18T08:50:28Z</time></trkpt><trkpt lat="39.568333930455026" lon="8.957248591224653"><ele>104.0</ele><time>2026-04-18T08:50:29Z</time></trkpt><trkpt lat="39.56823320427406" lon="8.957056262904507"><ele>104.0</ele><time>2026-04-18T08:50:30Z</time></trkpt><trkpt lat="39.56813224419999" lon="8.956866429167045"><ele>104.0</ele><time>2026-04-18T08:50:31Z</time></trkpt><trkpt lat="39.56803126603173" lon="8.956677251641088"><ele>103.0</ele><time>2026-04-18T08:50:32Z</time></trkpt><trkpt lat="39.56792972183612" lon="8.956486113862981"><ele>102.0</ele><time>2026-04-18T08:50:33Z</time></trkpt><trkpt lat="39.56782923529815" lon="8.956294706281788"><ele>101.0</ele><time>2026-04-18T08:50:34Z</time></trkpt><trkpt lat="39.567729719888554" lon="8.956106423707183"><ele>101.0</ele><time>2026-04-18T08:50:35Z</time></trkpt><trkpt lat="39.567631163478644" lon="8.955920014019842"><ele>101.0</ele><time>2026-04-18T08:50:36Z</time></trkpt><trkpt lat="39.56753306376583" lon="8.955734659391302"><ele>101.0</ele><time>2026-04-18T08:50:37Z</time></trkpt><trkpt lat="39.56743791941716" lon="8.955551668423213"><ele>100.0</ele><time>2026-04-18T08:50:38Z</time></trkpt><trkpt lat="39.56734324318529" lon="8.955370830975959"><ele>99.0</ele><time>2026-04-18T08:50:39Z</time></trkpt><trkpt lat="39.567248920932755" lon="8.955190681463641"><ele>98.0</ele><time>2026-04-18T08:50:40Z</time></trkpt><trkpt lat="39.56715359055169" lon="8.955009967573693"><ele>98.33333333333333</ele><time>2026-04-18T08:50:41Z</time></trkpt><trkpt lat="39.567058726700985" lon="8.954831602934101"><ele>98.66666666666666</ele><time>2026-04-18T08:50:42Z</time></trkpt><trkpt lat="39.56697815620921" lon="8.954644381287133"><ele>99.0</ele><time>2026-04-18T08:50:43Z</time></trkpt><trkpt lat="39.566885764202794" lon="8.954468294529073"><ele>99.0</ele><time>2026-04-18T08:50:44Z</time></trkpt><trkpt lat="39.566780293355656" lon="8.954303880901518"><ele>99.0</ele><time>2026-04-18T08:50:45Z</time></trkpt><trkpt lat="39.566690624206544" lon="8.954132401571506"><ele>99.0</ele><time>2026-04-18T08:50:46Z</time></trkpt><trkpt lat="39.56659976874848" lon="8.953957733313818"><ele>98.33333333333334</ele><time>2026-04-18T08:50:47Z</time></trkpt><trkpt lat="39.56650961096639" lon="8.953788160931651"><ele>97.66666666666667</ele><time>2026-04-18T08:50:48Z</time></trkpt><trkpt lat="39.5664207736906" lon="8.953620157095283"><ele>97.0</ele><time>2026-04-18T08:50:49Z</time></trkpt><trkpt lat="39.56633595548957" lon="8.953450949225635"><ele>97.25</ele><time>2026-04-18T08:50:50Z</time></trkpt><trkpt lat="39.5662534339032" lon="8.953286763955067"><ele>97.5</ele><time>2026-04-18T08:50:51Z</time></trkpt><trkpt lat="39.56616952426478" lon="8.953130008255943"><ele>97.75</ele><time>2026-04-18T08:50:52Z</time></trkpt><trkpt lat="39.56608809456301" lon="8.952984595687784"><ele>98.0</ele><time>2026-04-18T08:50:53Z</time></trkpt><trkpt lat="39.56601534609616" lon="8.952843362591272"><ele>98.0</ele><time>2026-04-18T08:50:54Z</time></trkpt><trkpt lat="39.56594378027101" lon="8.952707005947165"><ele>98.0</ele><time>2026-04-18T08:50:55Z</time></trkpt><trkpt lat="39.565873150075106" lon="8.952573836548606"><ele>98.0</ele><time>2026-04-18T08:50:56Z</time></trkpt><trkpt lat="39.56580304478222" lon="8.952438160331926"><ele>98.0</ele><time>2026-04-18T08:50:57Z</time></trkpt><trkpt lat="39.56573299482878" lon="8.952304135386774"><ele>97.5</ele><time>2026-04-18T08:50:58Z</time></trkpt><trkpt lat="39.56566234788972" lon="8.952166273447581"><ele>97.0</ele><time>2026-04-18T08:50:59Z</time></trkpt><trkpt lat="39.5655933010459" lon="8.952032278503669"><ele>96.5</ele><time>2026-04-18T08:51:00Z</time></trkpt><trkpt lat="39.56552943179926" lon="8.951907025005644"><ele>96.0</ele><time>2026-04-18T08:51:01Z</time></trkpt><trkpt lat="39.56546846463256" lon="8.951790318035682"><ele>96.0</ele><time>2026-04-18T08:51:02Z</time></trkpt><trkpt lat="39.56541688772413" lon="8.951684553283114"><ele>96.0</ele><time>2026-04-18T08:51:03Z</time></trkpt><trkpt lat="39.56538351099388" lon="8.95157968855821"><ele>96.0</ele><time>2026-04-18T08:51:04Z</time></trkpt><trkpt lat="39.5653723589899" lon="8.951466119500411"><ele>96.0</ele><time>2026-04-18T08:51:05Z</time></trkpt><trkpt lat="39.56539396938237" lon="8.95133646558446"><ele>96.0</ele><time>2026-04-18T08:51:06Z</time></trkpt><trkpt lat="39.56541886736523" lon="8.951199319813428"><ele>96.0</ele><time>2026-04-18T08:51:07Z</time></trkpt><trkpt lat="39.565431230480065" lon="8.951049214242207"><ele>96.0</ele><time>2026-04-18T08:51:08Z</time></trkpt><trkpt lat="39.565440930959284" lon="8.95088951513509"><ele>96.0</ele><time>2026-04-18T08:51:09Z</time></trkpt><trkpt lat="39.56544990065595" lon="8.950728059518015"><ele>96.0</ele><time>2026-04-18T08:51:10Z</time></trkpt><trkpt lat="39.56546186915653" lon="8.950569516734847"><ele>96.0</ele><time>2026-04-18T08:51:11Z</time></trkpt><trkpt lat="39.56547478111242" lon="8.950409449000253"><ele>96.0</ele><time>2026-04-18T08:51:12Z</time></trkpt><trkpt lat="39.5654867428321" lon="8.95024936241187"><ele>96.0</ele><time>2026-04-18T08:51:13Z</time></trkpt><trkpt lat="39.565497890800934" lon="8.950092422723934"><ele>96.0</ele><time>2026-04-18T08:51:14Z</time></trkpt><trkpt lat="39.56550510321506" lon="8.949938412113097"><ele>95.75</ele><time>2026-04-18T08:51:15Z</time></trkpt><trkpt lat="39.56552026197024" lon="8.949771496773328"><ele>95.5</ele><time>2026-04-18T08:51:16Z</time></trkpt><trkpt lat="39.565538395168666" lon="8.949601776787441"><ele>95.25</ele><time>2026-04-18T08:51:17Z</time></trkpt><trkpt lat="39.5655519978409" lon="8.949435515460296"><ele>95.0</ele><time>2026-04-18T08:51:18Z</time></trkpt><trkpt lat="39.56556464201045" lon="8.949269466214393"><ele>94.5</ele><time>2026-04-18T08:51:19Z</time></trkpt><trkpt lat="39.56557633803591" lon="8.949104252206912"><ele>94.0</ele><time>2026-04-18T08:51:20Z</time></trkpt><trkpt lat="39.565586245347866" lon="8.948945887445662"><ele>93.5</ele><time>2026-04-18T08:51:21Z</time></trkpt><trkpt lat="39.56561565285247" lon="8.948793980830079"><ele>93.0</ele><time>2026-04-18T08:51:22Z</time></trkpt><trkpt lat="39.56561262475373" lon="8.948644834736786"><ele>93.0</ele><time>2026-04-18T08:51:23Z</time></trkpt><trkpt lat="39.565624301797094" lon="8.94849580956962"><ele>93.0</ele><time>2026-04-18T08:51:24Z</time></trkpt><trkpt lat="39.565637112625126" lon="8.94833628538817"><ele>93.0</ele><time>2026-04-18T08:51:25Z</time></trkpt><trkpt lat="39.565643375187456" lon="8.948174385017538"><ele>93.0</ele><time>2026-04-18T08:51:26Z</time></trkpt><trkpt lat="39.56562857527292" lon="8.948016212059374"><ele>92.75</ele><time>2026-04-18T08:51:27Z</time></trkpt><trkpt lat="39.56558571978518" lon="8.947868540870266"><ele>92.5</ele><time>2026-04-18T08:51:28Z</time></trkpt><trkpt lat="39.5655176053251" lon="8.947733625265194"><ele>92.25</ele><time>2026-04-18T08:51:29Z</time></trkpt><trkpt lat="39.56544129216723" lon="8.94760139961545"><ele>92.0</ele><time>2026-04-18T08:51:30Z</time></trkpt><trkpt lat="39.56535670056693" lon="8.947477889126361"><ele>93.0</ele><time>2026-04-18T08:51:31Z</time></trkpt><trkpt lat="39.56527206293298" lon="8.947349471232036"><ele>94.0</ele><time>2026-04-18T08:51:32Z</time></trkpt><trkpt lat="39.56518246824483" lon="8.947220591816992"><ele>95.0</ele><time>2026-04-18T08:51:33Z</time></trkpt><trkpt lat="39.56510782791376" lon="8.947078458214756"><ele>96.0</ele><time>2026-04-18T08:51:34Z</time></trkpt><trkpt lat="39.565042305209886" lon="8.946942758173677"><ele>96.0</ele><time>2026-04-18T08:51:35Z</time></trkpt><trkpt lat="39.5649856449288" lon="8.94680408712349"><ele>96.0</ele><time>2026-04-18T08:51:36Z</time></trkpt><trkpt lat="39.564935082978664" lon="8.946669990869335"><ele>96.0</ele><time>2026-04-18T08:51:37Z</time></trkpt><trkpt lat="39.56488308261626" lon="8.946541745826448"><ele>96.0</ele><time>2026-04-18T08:51:38Z</time></trkpt><trkpt lat="39.56483255191408" lon="8.946418203919983"><ele>95.19999999999999</ele><time>2026-04-18T08:51:39Z</time></trkpt><trkpt lat="39.564783974627005" lon="8.946297928429367"><ele>94.39999999999999</ele><time>2026-04-18T08:51:40Z</time></trkpt><trkpt lat="39.564736287245545" lon="8.946176255989394"><ele>93.6</ele><time>2026-04-18T08:51:41Z</time></trkpt><trkpt lat="39.56469508684566" lon="8.946043863636598"><ele>92.8</ele><time>2026-04-18T08:51:42Z</time></trkpt><trkpt lat="39.56464868965737" lon="8.945894267202897"><ele>92.0</ele><time>2026-04-18T08:51:43Z</time></trkpt><trkpt lat="39.564607249503226" lon="8.945736098223223"><ele>91.5</ele><time>2026-04-18T08:51:44Z</time></trkpt><trkpt lat="39.564562892144465" lon="8.945574403079428"><ele>91.0</ele><time>2026-04-18T08:51:45Z</time></trkpt><trkpt lat="39.56451837312898" lon="8.945411330829863"><ele>90.5</ele><time>2026-04-18T08:51:46Z</time></trkpt><trkpt lat="39.56447333413173" lon="8.945250236188869"><ele>90.0</ele><time>2026-04-18T08:51:47Z</time></trkpt><trkpt lat="39.564423965845215" lon="8.945094615972618"><ele>90.25</ele><time>2026-04-18T08:51:48Z</time></trkpt><trkpt lat="39.564373343447805" lon="8.944943224956344"><ele>90.5</ele><time>2026-04-18T08:51:49Z</time></trkpt><trkpt lat="39.56432303608364" lon="8.944793371375862"><ele>90.75</ele><time>2026-04-18T08:51:50Z</time></trkpt><trkpt lat="39.564271881052804" lon="8.944646034100922"><ele>91.0</ele><time>2026-04-18T08:51:51Z</time></trkpt><trkpt lat="39.56421220300575" lon="8.944505502526779"><ele>91.0</ele><time>2026-04-18T08:51:52Z</time></trkpt><trkpt lat="39.56413405829651" lon="8.944379593517327"><ele>91.0</ele><time>2026-04-18T08:51:53Z</time></trkpt><trkpt lat="39.564039586582524" lon="8.94427024266454"><ele>91.0</ele><time>2026-04-18T08:51:54Z</time></trkpt><trkpt lat="39.56384370570152" lon="8.944094206644722"><ele>90.5</ele><time>2026-04-18T08:51:56Z</time></trkpt><trkpt lat="39.56375981478521" lon="8.943999286435677"><ele>90.0</ele><time>2026-04-18T08:51:57Z</time></trkpt><trkpt lat="39.56366288184216" lon="8.943923206269611"><ele>89.5</ele><time>2026-04-18T08:51:58Z</time></trkpt><trkpt lat="39.563555254240185" lon="8.943875828474193"><ele>89.0</ele><time>2026-04-18T08:51:59Z</time></trkpt><trkpt lat="39.563448699836044" lon="8.943826934567015"><ele>89.0</ele><time>2026-04-18T08:52:00Z</time></trkpt><trkpt lat="39.56332822428403" lon="8.943822696278804"><ele>89.0</ele><time>2026-04-18T08:52:01Z</time></trkpt><trkpt lat="39.563207953118784" lon="8.943838397295584"><ele>89.0</ele><time>2026-04-18T08:52:02Z</time></trkpt><trkpt lat="39.56308974060977" lon="8.943861912815347"><ele>89.0</ele><time>2026-04-18T08:52:03Z</time></trkpt><trkpt lat="39.56297534059488" lon="8.943862469883333"><ele>89.0</ele><time>2026-04-18T08:52:04Z</time></trkpt><trkpt lat="39.56287109443499" lon="8.943901265589966"><ele>89.0</ele><time>2026-04-18T08:52:05Z</time></trkpt><trkpt lat="39.562766636914674" lon="8.943913113333787"><ele>89.0</ele><time>2026-04-18T08:52:06Z</time></trkpt><trkpt lat="39.56265962021832" lon="8.943933097002327"><ele>89.0</ele><time>2026-04-18T08:52:07Z</time></trkpt><trkpt lat="39.56255792177521" lon="8.943929456035534"><ele>89.0</ele><time>2026-04-18T08:52:08Z</time></trkpt><trkpt lat="39.56247185654157" lon="8.943957449866947"><ele>89.0</ele><time>2026-04-18T08:52:09Z</time></trkpt><trkpt lat="39.56235097669084" lon="8.943961514455435"><ele>89.0</ele><time>2026-04-18T08:52:11Z</time></trkpt><trkpt lat="39.56227843857552" lon="8.943850208413979"><ele>89.0</ele><time>2026-04-18T08:52:12Z</time></trkpt><trkpt lat="39.56220063621715" lon="8.943772165277654"><ele>89.0</ele><time>2026-04-18T08:52:13Z</time></trkpt><trkpt lat="39.56211587497164" lon="8.943677345430558"><ele>89.0</ele><time>2026-04-18T08:52:14Z</time></trkpt><trkpt lat="39.56203011768175" lon="8.943573575538853"><ele>89.0</ele><time>2026-04-18T08:52:15Z</time></trkpt><trkpt lat="39.56195162705649" lon="8.943471433280724"><ele>89.0</ele><time>2026-04-18T08:52:16Z</time></trkpt><trkpt lat="39.56187363148691" lon="8.94335569943503"><ele>89.0</ele><time>2026-04-18T08:52:17Z</time></trkpt><trkpt lat="39.56180778682458" lon="8.94321736054584"><ele>89.0</ele><time>2026-04-18T08:52:18Z</time></trkpt><trkpt lat="39.56177146380522" lon="8.943055067539264"><ele>89.0</ele><time>2026-04-18T08:52:19Z</time></trkpt><trkpt lat="39.561769207484375" lon="8.94287742457057"><ele>89.0</ele><time>2026-04-18T08:52:20Z</time></trkpt><trkpt lat="39.56178952019902" lon="8.94269472480722"><ele>89.0</ele><time>2026-04-18T08:52:21Z</time></trkpt><trkpt lat="39.561824687427496" lon="8.942514036192378"><ele>89.0</ele><time>2026-04-18T08:52:22Z</time></trkpt><trkpt lat="39.56186353835912" lon="8.942340063605888"><ele>88.25</ele><time>2026-04-18T08:52:23Z</time></trkpt><trkpt lat="39.56190047405745" lon="8.942159627300397"><ele>87.5</ele><time>2026-04-18T08:52:24Z</time></trkpt><trkpt lat="39.561937541553924" lon="8.941973108190057"><ele>86.75</ele><time>2026-04-18T08:52:25Z</time></trkpt><trkpt lat="39.56197247056439" lon="8.941787621049205"><ele>86.0</ele><time>2026-04-18T08:52:26Z</time></trkpt><trkpt lat="39.56200512619026" lon="8.941612896695617"><ele>86.19999999999999</ele><time>2026-04-18T08:52:27Z</time></trkpt><trkpt lat="39.56203489016156" lon="8.941451338347488"><ele>86.39999999999999</ele><time>2026-04-18T08:52:28Z</time></trkpt><trkpt lat="39.56206363745059" lon="8.94130722942029"><ele>86.6</ele><time>2026-04-18T08:52:29Z</time></trkpt><trkpt lat="39.56209916108603" lon="8.941188572526801"><ele>86.8</ele><time>2026-04-18T08:52:30Z</time></trkpt><trkpt lat="39.56214586587366" lon="8.941097519592917"><ele>87.0</ele><time>2026-04-18T08:52:31Z</time></trkpt><trkpt lat="39.56218495286718" lon="8.94103299828928"><ele>87.0</ele><time>2026-04-18T08:52:32Z</time></trkpt><trkpt lat="39.562186481638726" lon="8.940935878237191"><ele>87.0</ele><time>2026-04-18T08:52:55Z</time></trkpt><trkpt lat="39.562145076893586" lon="8.940808409568817"><ele>87.0</ele><time>2026-04-18T08:52:57Z</time></trkpt><trkpt lat="39.56206147220577" lon="8.940761416428744"><ele>87.0</ele><time>2026-04-18T08:52:58Z</time></trkpt><trkpt lat="39.56197871410842" lon="8.940719381883207"><ele>87.0</ele><time>2026-04-18T08:52:59Z</time></trkpt><trkpt lat="39.56189645988011" lon="8.940663877922391"><ele>88.25</ele><time>2026-04-18T08:53:00Z</time></trkpt><trkpt lat="39.56180431274816" lon="8.94059800034142"><ele>89.5</ele><time>2026-04-18T08:53:01Z</time></trkpt><trkpt lat="39.56170827251038" lon="8.940524392810389"><ele>90.75</ele><time>2026-04-18T08:53:02Z</time></trkpt><trkpt lat="39.5616061674156" lon="8.940446454625214"><ele>92.0</ele><time>2026-04-18T08:53:03Z</time></trkpt><trkpt lat="39.56149909452968" lon="8.940364497708824"><ele>92.0</ele><time>2026-04-18T08:53:04Z</time></trkpt><trkpt lat="39.56138838609415" lon="8.940281929839788"><ele>92.0</ele><time>2026-04-18T08:53:05Z</time></trkpt><trkpt lat="39.56128131969373" lon="8.94020077677718"><ele>92.0</ele><time>2026-04-18T08:53:06Z</time></trkpt><trkpt lat="39.56117104447611" lon="8.94011549030518"><ele>92.0</ele><time>2026-04-18T08:53:07Z</time></trkpt><trkpt lat="39.56106134629976" lon="8.940025215180249"><ele>92.0</ele><time>2026-04-18T08:53:08Z</time></trkpt><trkpt lat="39.56095047590731" lon="8.939929979206267"><ele>92.0</ele><time>2026-04-18T08:53:09Z</time></trkpt><trkpt lat="39.56083668408743" lon="8.939837678999869"><ele>92.0</ele><time>2026-04-18T08:53:10Z</time></trkpt><trkpt lat="39.560722773761476" lon="8.939740117106224"><ele>92.0</ele><time>2026-04-18T08:53:11Z</time></trkpt><trkpt lat="39.56060865307018" lon="8.939641796977329"><ele>92.0</ele><time>2026-04-18T08:53:12Z</time></trkpt><trkpt lat="39.560493771311535" lon="8.939544903275896"><ele>92.0</ele><time>2026-04-18T08:53:13Z</time></trkpt><trkpt lat="39.56037853606735" lon="8.939448830314006"><ele>92.0</ele><time>2026-04-18T08:53:14Z</time></trkpt><trkpt lat="39.560265069137806" lon="8.939350849066923"><ele>92.0</ele><time>2026-04-18T08:53:15Z</time></trkpt><trkpt lat="39.56014998342862" lon="8.939252501713527"><ele>92.75</ele><time>2026-04-18T08:53:16Z</time></trkpt><trkpt lat="39.56003475275143" lon="8.939152774942867"><ele>93.5</ele><time>2026-04-18T08:53:17Z</time></trkpt><trkpt lat="39.559918073803686" lon="8.939050743478694"><ele>94.25</ele><time>2026-04-18T08:53:18Z</time></trkpt><trkpt lat="39.55980160796365" lon="8.938948412365622"><ele>95.0</ele><time>2026-04-18T08:53:19Z</time></trkpt><trkpt lat="39.55968574265844" lon="8.938842596038828"><ele>95.0</ele><time>2026-04-18T08:53:20Z</time></trkpt><trkpt lat="39.55957092256681" lon="8.938733290910154"><ele>95.0</ele><time>2026-04-18T08:53:21Z</time></trkpt><trkpt lat="39.5594588595392" lon="8.938620117210142"><ele>95.0</ele><time>2026-04-18T08:53:22Z</time></trkpt><trkpt lat="39.55934813151278" lon="8.938504154458121"><ele>95.0</ele><time>2026-04-18T08:53:23Z</time></trkpt><trkpt lat="39.55923847483119" lon="8.938388586011119"><ele>94.0</ele><time>2026-04-18T08:53:24Z</time></trkpt><trkpt lat="39.55909633390735" lon="8.93829359525018"><ele>93.0</ele><time>2026-04-18T08:53:25Z</time></trkpt><trkpt lat="39.55898136529614" lon="8.938187342495189"><ele>92.0</ele><time>2026-04-18T08:53:26Z</time></trkpt><trkpt lat="39.55887106431473" lon="8.93808473988847"><ele>91.0</ele><time>2026-04-18T08:53:27Z</time></trkpt><trkpt lat="39.55876494787428" lon="8.93798648692912"><ele>90.5</ele><time>2026-04-18T08:53:28Z</time></trkpt><trkpt lat="39.55866445706966" lon="8.93789107780997"><ele>90.0</ele><time>2026-04-18T08:53:29Z</time></trkpt><trkpt lat="39.5585694859504" lon="8.937797730793147"><ele>89.5</ele><time>2026-04-18T08:53:30Z</time></trkpt><trkpt lat="39.558478482882315" lon="8.937708173597036"><ele>89.0</ele><time>2026-04-18T08:53:31Z</time></trkpt><trkpt lat="39.558391447269194" lon="8.937622144088886"><ele>89.4</ele><time>2026-04-18T08:53:32Z</time></trkpt><trkpt lat="39.558307158500234" lon="8.937540958312669"><ele>89.80000000000001</ele><time>2026-04-18T08:53:33Z</time></trkpt><trkpt lat="39.55822493718031" lon="8.937461522641279"><ele>90.19999999999999</ele><time>2026-04-18T08:53:34Z</time></trkpt><trkpt lat="39.558145920957124" lon="8.937385135475152"><ele>90.6</ele><time>2026-04-18T08:53:35Z</time></trkpt><trkpt lat="39.5580692005121" lon="8.937311451854503"><ele>91.0</ele><time>2026-04-18T08:53:36Z</time></trkpt><trkpt lat="39.557994604217974" lon="8.937237997021642"><ele>91.0</ele><time>2026-04-18T08:53:37Z</time></trkpt><trkpt lat="39.557925047888276" lon="8.93716089400576"><ele>91.0</ele><time>2026-04-18T08:53:38Z</time></trkpt><trkpt lat="39.5578577646742" lon="8.937087972453593"><ele>91.0</ele><time>2026-04-18T08:53:39Z</time></trkpt><trkpt lat="39.55779528505158" lon="8.937016786820147"><ele>91.0</ele><time>2026-04-18T08:53:40Z</time></trkpt><trkpt lat="39.557743402546286" lon="8.936952263390179"><ele>91.0</ele><time>2026-04-18T08:53:41Z</time></trkpt><trkpt lat="39.55766639778504" lon="8.936853678294819"><ele>91.0</ele><time>2026-04-18T08:53:43Z</time></trkpt><trkpt lat="39.55764295174214" lon="8.936751663052515"><ele>90.83333333333333</ele><time>2026-04-18T08:53:46Z</time></trkpt><trkpt lat="39.55764689252704" lon="8.936668140843178"><ele>90.66666666666666</ele><time>2026-04-18T08:53:49Z</time></trkpt><trkpt lat="39.55765052418107" lon="8.936566793068655"><ele>90.5</ele><time>2026-04-18T08:53:51Z</time></trkpt><trkpt lat="39.5576674974989" lon="8.936465235406807"><ele>90.33333333333333</ele><time>2026-04-18T08:53:52Z</time></trkpt><trkpt lat="39.557694507481635" lon="8.93633586823587"><ele>90.16666666666667</ele><time>2026-04-18T08:53:53Z</time></trkpt><trkpt lat="39.55771785775555" lon="8.93619676636788"><ele>90.0</ele><time>2026-04-18T08:53:54Z</time></trkpt><trkpt lat="39.557740321731394" lon="8.936045872864062"><ele>90.0</ele><time>2026-04-18T08:53:55Z</time></trkpt><trkpt lat="39.55776676252741" lon="8.935893344713907"><ele>90.0</ele><time>2026-04-18T08:53:56Z</time></trkpt><trkpt lat="39.55779461811153" lon="8.93573779450835"><ele>90.0</ele><time>2026-04-18T08:53:57Z</time></trkpt><trkpt lat="39.55782137642349" lon="8.935594902208774"><ele>90.0</ele><time>2026-04-18T08:53:58Z</time></trkpt><trkpt lat="39.55784697056152" lon="8.935464085700913"><ele>90.2</ele><time>2026-04-18T08:53:59Z</time></trkpt><trkpt lat="39.557871610529084" lon="8.935335013720492"><ele>90.4</ele><time>2026-04-18T08:54:00Z</time></trkpt><trkpt lat="39.55789527705881" lon="8.935206454320104"><ele>90.6</ele><time>2026-04-18T08:54:01Z</time></trkpt><trkpt lat="39.55791791291798" lon="8.935087627573113"><ele>90.8</ele><time>2026-04-18T08:54:02Z</time></trkpt><trkpt lat="39.557938929727314" lon="8.934966854589598"><ele>91.0</ele><time>2026-04-18T08:54:03Z</time></trkpt><trkpt lat="39.55796077889029" lon="8.934849481220724"><ele>91.33333333333333</ele><time>2026-04-18T08:54:04Z</time></trkpt><trkpt lat="39.55798281887712" lon="8.934735589692364"><ele>91.66666666666666</ele><time>2026-04-18T08:54:05Z</time></trkpt><trkpt lat="39.558002563424715" lon="8.934628847680509"><ele>92.0</ele><time>2026-04-18T08:54:06Z</time></trkpt><trkpt lat="39.55802136528752" lon="8.93452454911754"><ele>92.33333333333333</ele><time>2026-04-18T08:54:07Z</time></trkpt><trkpt lat="39.558042391060745" lon="8.934411495363253"><ele>92.66666666666667</ele><time>2026-04-18T08:54:08Z</time></trkpt><trkpt lat="39.558066241252774" lon="8.934286956051555"><ele>93.0</ele><time>2026-04-18T08:54:09Z</time></trkpt><trkpt lat="39.5580875582573" lon="8.934154932270719"><ele>93.75</ele><time>2026-04-18T08:54:10Z</time></trkpt><trkpt lat="39.55811450356318" lon="8.93401509758863"><ele>94.5</ele><time>2026-04-18T08:54:11Z</time></trkpt><trkpt lat="39.55814367284759" lon="8.93386965144165"><ele>95.25</ele><time>2026-04-18T08:54:12Z</time></trkpt><trkpt lat="39.558169415244166" lon="8.933716821326476"><ele>96.0</ele><time>2026-04-18T08:54:13Z</time></trkpt><trkpt lat="39.55819799023137" lon="8.9335586664411"><ele>96.0</ele><time>2026-04-18T08:54:14Z</time></trkpt><trkpt lat="39.55822859574506" lon="8.933395124948625"><ele>96.0</ele><time>2026-04-18T08:54:15Z</time></trkpt><trkpt lat="39.5582580130227" lon="8.933226264602686"><ele>96.0</ele><time>2026-04-18T08:54:16Z</time></trkpt><trkpt lat="39.55828595821979" lon="8.933052339056186"><ele>96.0</ele><time>2026-04-18T08:54:17Z</time></trkpt><trkpt lat="39.5583165618705" lon="8.932873361381583"><ele>96.5</ele><time>2026-04-18T08:54:18Z</time></trkpt><trkpt lat="39.5583529314222" lon="8.932691583799329"><ele>97.0</ele><time>2026-04-18T08:54:19Z</time></trkpt><trkpt lat="39.558388162979895" lon="8.932505534251213"><ele>97.5</ele><time>2026-04-18T08:54:20Z</time></trkpt><trkpt lat="39.55842101147669" lon="8.9323122477395"><ele>98.0</ele><time>2026-04-18T08:54:21Z</time></trkpt><trkpt lat="39.55845524191836" lon="8.932116080661684"><ele>99.0</ele><time>2026-04-18T08:54:22Z</time></trkpt><trkpt lat="39.558490546872534" lon="8.931919500767346"><ele>100.0</ele><time>2026-04-18T08:54:23Z</time></trkpt><trkpt lat="39.55852946857534" lon="8.9317196302796"><ele>101.0</ele><time>2026-04-18T08:54:24Z</time></trkpt><trkpt lat="39.55856603451721" lon="8.931519783119017"><ele>102.0</ele><time>2026-04-18T08:54:25Z</time></trkpt><trkpt lat="39.55860279465422" lon="8.931317042799614"><ele>103.0</ele><time>2026-04-18T08:54:26Z</time></trkpt><trkpt lat="39.55864119625631" lon="8.931109283711082"><ele>104.0</ele><time>2026-04-18T08:54:27Z</time></trkpt><trkpt lat="39.558678136356015" lon="8.93090430477086"><ele>106.33333333333333</ele><time>2026-04-18T08:54:28Z</time></trkpt><trkpt lat="39.558713705589575" lon="8.930705600718479"><ele>108.66666666666666</ele><time>2026-04-18T08:54:29Z</time></trkpt><trkpt lat="39.558753438471875" lon="8.930496315761914"><ele>111.0</ele><time>2026-04-18T08:54:30Z</time></trkpt><trkpt lat="39.55879063009476" lon="8.930288068522541"><ele>111.0</ele><time>2026-04-18T08:54:31Z</time></trkpt><trkpt lat="39.558830985155794" lon="8.930070649506611"><ele>111.0</ele><time>2026-04-18T08:54:32Z</time></trkpt><trkpt lat="39.55887056435064" lon="8.929855360646203"><ele>111.0</ele><time>2026-04-18T08:54:33Z</time></trkpt><trkpt lat="39.55891226908442" lon="8.929632425757347"><ele>110.0</ele><time>2026-04-18T08:54:34Z</time></trkpt><trkpt lat="39.55895520555578" lon="8.929406774340759"><ele>109.0</ele><time>2026-04-18T08:54:35Z</time></trkpt><trkpt lat="39.55899940150369" lon="8.929178772954533"><ele>108.0</ele><time>2026-04-18T08:54:36Z</time></trkpt><trkpt lat="39.55904157782188" lon="8.928952665578983"><ele>106.66666666666666</ele><time>2026-04-18T08:54:37Z</time></trkpt><trkpt lat="39.55908356404487" lon="8.928720332656948"><ele>105.33333333333333</ele><time>2026-04-18T08:54:38Z</time></trkpt><trkpt lat="39.55912506653301" lon="8.928492123557144"><ele>104.0</ele><time>2026-04-18T08:54:39Z</time></trkpt><trkpt lat="39.55916835360185" lon="8.928260753439789"><ele>103.33333333333333</ele><time>2026-04-18T08:54:40Z</time></trkpt><trkpt lat="39.559210762379585" lon="8.928035511582504"><ele>102.66666666666666</ele><time>2026-04-18T08:54:41Z</time></trkpt><trkpt lat="39.55925298938703" lon="8.927809940664577"><ele>102.0</ele><time>2026-04-18T08:54:42Z</time></trkpt><trkpt lat="39.559295678458675" lon="8.927581299790864"><ele>102.33333333333334</ele><time>2026-04-18T08:54:43Z</time></trkpt><trkpt lat="39.55933883508601" lon="8.927356622727432"><ele>102.66666666666667</ele><time>2026-04-18T08:54:44Z</time></trkpt><trkpt lat="39.55939301431608" lon="8.927130752765539"><ele>103.0</ele><time>2026-04-18T08:54:45Z</time></trkpt><trkpt lat="39.55946092277769" lon="8.926911197950796"><ele>104.0</ele><time>2026-04-18T08:54:46Z</time></trkpt><trkpt lat="39.559535322459" lon="8.92669633725411"><ele>105.0</ele><time>2026-04-18T08:54:47Z</time></trkpt><trkpt lat="39.55961907168209" lon="8.926480206398882"><ele>106.0</ele><time>2026-04-18T08:54:48Z</time></trkpt><trkpt lat="39.559706949078326" lon="8.926269097316231"><ele>106.0</ele><time>2026-04-18T08:54:49Z</time></trkpt><trkpt lat="39.55979555193468" lon="8.926057291753084"><ele>106.0</ele><time>2026-04-18T08:54:50Z</time></trkpt><trkpt lat="39.55988646440526" lon="8.925843076983316"><ele>106.0</ele><time>2026-04-18T08:54:51Z</time></trkpt><trkpt lat="39.55997672575056" lon="8.9256327014105"><ele>107.66666666666667</ele><time>2026-04-18T08:54:52Z</time></trkpt><trkpt lat="39.56007028944401" lon="8.925422544752575"><ele>109.33333333333334</ele><time>2026-04-18T08:54:53Z</time></trkpt><trkpt lat="39.560165506377515" lon="8.92520870725053"><ele>111.0</ele><time>2026-04-18T08:54:54Z</time></trkpt><trkpt lat="39.560254987757254" lon="8.92499571170834"><ele>112.33333333333334</ele><time>2026-04-18T08:54:55Z</time></trkpt><trkpt lat="39.560346674999245" lon="8.924782701428636"><ele>113.66666666666667</ele><time>2026-04-18T08:54:56Z</time></trkpt><trkpt lat="39.56044142416729" lon="8.924572450802739"><ele>115.0</ele><time>2026-04-18T08:54:57Z</time></trkpt><trkpt lat="39.56053264535873" lon="8.924359736648004"><ele>116.66666666666667</ele><time>2026-04-18T08:54:58Z</time></trkpt><trkpt lat="39.56061478064358" lon="8.924144999655365"><ele>118.33333333333334</ele><time>2026-04-18T08:54:59Z</time></trkpt><trkpt lat="39.56067583997957" lon="8.923910066449958"><ele>120.0</ele><time>2026-04-18T08:55:00Z</time></trkpt><trkpt lat="39.56070478721418" lon="8.923669345995444"><ele>120.0</ele><time>2026-04-18T08:55:01Z</time></trkpt><trkpt lat="39.560708782231245" lon="8.923422722938028"><ele>120.0</ele><time>2026-04-18T08:55:02Z</time></trkpt><trkpt lat="39.56069380844915" lon="8.923175094893512"><ele>120.0</ele><time>2026-04-18T08:55:03Z</time></trkpt><trkpt lat="39.5606728607694" lon="8.922932301066652"><ele>120.66666666666666</ele><time>2026-04-18T08:55:04Z</time></trkpt><trkpt lat="39.56065632469746" lon="8.922690274716116"><ele>121.33333333333333</ele><time>2026-04-18T08:55:05Z</time></trkpt><trkpt lat="39.56064325027054" lon="8.922451965833414"><ele>122.0</ele><time>2026-04-18T08:55:06Z</time></trkpt><trkpt lat="39.56062013884762" lon="8.922216210128338"><ele>123.66666666666666</ele><time>2026-04-18T08:55:07Z</time></trkpt><trkpt lat="39.56056749430457" lon="8.921992054757899"><ele>125.33333333333334</ele><time>2026-04-18T08:55:08Z</time></trkpt><trkpt lat="39.560478379131844" lon="8.921777408763608"><ele>127.0</ele><time>2026-04-18T08:55:09Z</time></trkpt><trkpt lat="39.56036372643982" lon="8.921582777827584"><ele>127.33333333333334</ele><time>2026-04-18T08:55:10Z</time></trkpt><trkpt lat="39.56022897421885" lon="8.921408401671753"><ele>127.66666666666666</ele><time>2026-04-18T08:55:11Z</time></trkpt><trkpt lat="39.56008157883393" lon="8.92125884095276"><ele>128.0</ele><time>2026-04-18T08:55:12Z</time></trkpt><trkpt lat="39.55992982601057" lon="8.921131288344268"><ele>128.0</ele><time>2026-04-18T08:55:13Z</time></trkpt><trkpt lat="39.55978453853407" lon="8.921014057109486"><ele>128.0</ele><time>2026-04-18T08:55:14Z</time></trkpt><trkpt lat="39.559668700532626" lon="8.92085747674715"><ele>128.0</ele><time>2026-04-18T08:55:15Z</time></trkpt><trkpt lat="39.559545285486955" lon="8.920712112232593"><ele>130.0</ele><time>2026-04-18T08:55:16Z</time></trkpt><trkpt lat="39.559446797562124" lon="8.920529650643587"><ele>132.0</ele><time>2026-04-18T08:55:17Z</time></trkpt><trkpt lat="39.5593515596121" lon="8.920333061183072"><ele>134.0</ele><time>2026-04-18T08:55:18Z</time></trkpt><trkpt lat="39.559259920127516" lon="8.920125570526686"><ele>134.0</ele><time>2026-04-18T08:55:19Z</time></trkpt><trkpt lat="39.55917483671758" lon="8.91991223750631"><ele>134.0</ele><time>2026-04-18T08:55:20Z</time></trkpt><trkpt lat="39.559093292045844" lon="8.91969780132827"><ele>134.0</ele><time>2026-04-18T08:55:21Z</time></trkpt><trkpt lat="39.559011967393445" lon="8.919486872394563"><ele>134.0</ele><time>2026-04-18T08:55:22Z</time></trkpt><trkpt lat="39.558927414727805" lon="8.919280094156013"><ele>134.0</ele><time>2026-04-18T08:55:23Z</time></trkpt><trkpt lat="39.55884521185822" lon="8.919071915916858"><ele>134.0</ele><time>2026-04-18T08:55:24Z</time></trkpt><trkpt lat="39.55877404820135" lon="8.918861670947548"><ele>134.33333333333331</ele><time>2026-04-18T08:55:25Z</time></trkpt><trkpt lat="39.5587456440386" lon="8.918635538253598"><ele>134.66666666666666</ele><time>2026-04-18T08:55:26Z</time></trkpt><trkpt lat="39.55872665989604" lon="8.918411444209067"><ele>135.0</ele><time>2026-04-18T08:55:27Z</time></trkpt><trkpt lat="39.558714486710166" lon="8.918178522866455"><ele>135.33333333333334</ele><time>2026-04-18T08:55:28Z</time></trkpt><trkpt lat="39.558727089540874" lon="8.917941300328515"><ele>135.66666666666669</ele><time>2026-04-18T08:55:29Z</time></trkpt><trkpt lat="39.558742375476776" lon="8.917699708254696"><ele>136.0</ele><time>2026-04-18T08:55:30Z</time></trkpt><trkpt lat="39.55875841939191" lon="8.91745780991874"><ele>135.0</ele><time>2026-04-18T08:55:31Z</time></trkpt><trkpt lat="39.558772086776955" lon="8.917212980607113"><ele>134.0</ele><time>2026-04-18T08:55:32Z</time></trkpt><trkpt lat="39.55878153625649" lon="8.916962679132192"><ele>133.0</ele><time>2026-04-18T08:55:33Z</time></trkpt><trkpt lat="39.55879195433339" lon="8.916710258903022"><ele>132.0</ele><time>2026-04-18T08:55:34Z</time></trkpt><trkpt lat="39.558807266474126" lon="8.91645702070366"><ele>131.0</ele><time>2026-04-18T08:55:35Z</time></trkpt><trkpt lat="39.55882260813354" lon="8.916202326425612"><ele>130.0</ele><time>2026-04-18T08:55:36Z</time></trkpt><trkpt lat="39.55883574222931" lon="8.915947931945412"><ele>129.66666666666669</ele><time>2026-04-18T08:55:37Z</time></trkpt><trkpt lat="39.55884810142204" lon="8.915691632348214"><ele>129.33333333333334</ele><time>2026-04-18T08:55:38Z</time></trkpt><trkpt lat="39.558860336961374" lon="8.915433683263572"><ele>129.0</ele><time>2026-04-18T08:55:39Z</time></trkpt><trkpt lat="39.55886987737899" lon="8.91517497450876"><ele>128.66666666666666</ele><time>2026-04-18T08:55:40Z</time></trkpt><trkpt lat="39.558880465761966" lon="8.914914436386432"><ele>128.33333333333331</ele><time>2026-04-18T08:55:41Z</time></trkpt><trkpt lat="39.55889399686015" lon="8.914654197474304"><ele>128.0</ele><time>2026-04-18T08:55:42Z</time></trkpt><trkpt lat="39.55890735550834" lon="8.914393106559531"><ele>128.0</ele><time>2026-04-18T08:55:43Z</time></trkpt><trkpt lat="39.55892100914416" lon="8.914130270251517"><ele>128.0</ele><time>2026-04-18T08:55:44Z</time></trkpt><trkpt lat="39.55893322240656" lon="8.913868196814938"><ele>128.0</ele><time>2026-04-18T08:55:45Z</time></trkpt><trkpt lat="39.558946311301824" lon="8.913607235483141"><ele>128.66666666666666</ele><time>2026-04-18T08:55:46Z</time></trkpt><trkpt lat="39.558960459205565" lon="8.913347863249527"><ele>129.33333333333334</ele><time>2026-04-18T08:55:47Z</time></trkpt><trkpt lat="39.558973406529105" lon="8.913092998873255"><ele>130.0</ele><time>2026-04-18T08:55:48Z</time></trkpt><trkpt lat="39.55898542860808" lon="8.912846511421689"><ele>130.0</ele><time>2026-04-18T08:55:49Z</time></trkpt><trkpt lat="39.55899901360358" lon="8.912610449442822"><ele>130.0</ele><time>2026-04-18T08:55:50Z</time></trkpt><trkpt lat="39.55901706997942" lon="8.91238546397077"><ele>130.0</ele><time>2026-04-18T08:55:51Z</time></trkpt><trkpt lat="39.55905558195406" lon="8.91217409738978"><ele>130.0</ele><time>2026-04-18T08:55:52Z</time></trkpt><trkpt lat="39.55912933549407" lon="8.91198203633447"><ele>130.0</ele><time>2026-04-18T08:55:53Z</time></trkpt><trkpt lat="39.55923350209502" lon="8.91180744267812"><ele>130.0</ele><time>2026-04-18T08:55:54Z</time></trkpt><trkpt lat="39.55936386105877" lon="8.91164812158533"><ele>130.33333333333334</ele><time>2026-04-18T08:55:55Z</time></trkpt><trkpt lat="39.55950657935715" lon="8.911490061759164"><ele>130.66666666666666</ele><time>2026-04-18T08:55:56Z</time></trkpt><trkpt lat="39.559648348897966" lon="8.911322513193248"><ele>131.0</ele><time>2026-04-18T08:55:57Z</time></trkpt><trkpt lat="39.559786242254425" lon="8.911145978036984"><ele>131.0</ele><time>2026-04-18T08:55:58Z</time></trkpt><trkpt lat="39.559922832188384" lon="8.91096833406394"><ele>131.0</ele><time>2026-04-18T08:55:59Z</time></trkpt><trkpt lat="39.56005966985638" lon="8.910790936327974"><ele>131.0</ele><time>2026-04-18T08:56:00Z</time></trkpt><trkpt lat="39.56019482583366" lon="8.910610108967324"><ele>130.33333333333331</ele><time>2026-04-18T08:56:01Z</time></trkpt><trkpt lat="39.5603271179278" lon="8.91042455861149"><ele>129.66666666666666</ele><time>2026-04-18T08:56:02Z</time></trkpt><trkpt lat="39.56045625912277" lon="8.910244213612648"><ele>129.0</ele><time>2026-04-18T08:56:03Z</time></trkpt><trkpt lat="39.560582365417346" lon="8.910067211650578"><ele>129.0</ele><time>2026-04-18T08:56:04Z</time></trkpt><trkpt lat="39.56069271784835" lon="8.90987897539525"><ele>129.0</ele><time>2026-04-18T08:56:05Z</time></trkpt><trkpt lat="39.56077874059792" lon="8.90966907186475"><ele>129.0</ele><time>2026-04-18T08:56:06Z</time></trkpt><trkpt lat="39.56083565568323" lon="8.909444335906512"><ele>128.0</ele><time>2026-04-18T08:56:07Z</time></trkpt><trkpt lat="39.560864259219215" lon="8.909220965121074"><ele>127.0</ele><time>2026-04-18T08:56:08Z</time></trkpt><trkpt lat="39.5608793613124" lon="8.9090039854979"><ele>126.0</ele><time>2026-04-18T08:56:09Z</time></trkpt><trkpt lat="39.56089948766237" lon="8.908791994249167"><ele>126.0</ele><time>2026-04-18T08:56:10Z</time></trkpt><trkpt lat="39.56092382547401" lon="8.908592724260535"><ele>126.0</ele><time>2026-04-18T08:56:11Z</time></trkpt><trkpt lat="39.56094468393228" lon="8.908400332845206"><ele>126.0</ele><time>2026-04-18T08:56:12Z</time></trkpt><trkpt lat="39.560962967456035" lon="8.908216994524965"><ele>126.0</ele><time>2026-04-18T08:56:13Z</time></trkpt><trkpt lat="39.560982363500564" lon="8.908035620548672"><ele>126.19999999999999</ele><time>2026-04-18T08:56:14Z</time></trkpt><trkpt lat="39.56100260583789" lon="8.907862688207171"><ele>126.39999999999999</ele><time>2026-04-18T08:56:15Z</time></trkpt><trkpt lat="39.56102118659224" lon="8.90771167682475"><ele>126.6</ele><time>2026-04-18T08:56:16Z</time></trkpt><trkpt lat="39.56103495035224" lon="8.907579245678958"><ele>126.8</ele><time>2026-04-18T08:56:17Z</time></trkpt><trkpt lat="39.56104788987726" lon="8.907467089729472"><ele>127.0</ele><time>2026-04-18T08:56:18Z</time></trkpt><trkpt lat="39.5610629173219" lon="8.907356235080005"><ele>127.19999999999999</ele><time>2026-04-18T08:56:19Z</time></trkpt><trkpt lat="39.56107922325301" lon="8.90723628583452"><ele>127.39999999999999</ele><time>2026-04-18T08:56:20Z</time></trkpt><trkpt lat="39.561092343331104" lon="8.907111001615002"><ele>127.60000000000001</ele><time>2026-04-18T08:56:21Z</time></trkpt><trkpt lat="39.56110456860662" lon="8.906985632226316"><ele>127.80000000000001</ele><time>2026-04-18T08:56:22Z</time></trkpt><trkpt lat="39.5611179018301" lon="8.906854465735478"><ele>128.0</ele><time>2026-04-18T08:56:23Z</time></trkpt><trkpt lat="39.561130692389675" lon="8.90672083073376"><ele>128.6</ele><time>2026-04-18T08:56:24Z</time></trkpt><trkpt lat="39.56114872735626" lon="8.906583310692813"><ele>129.20000000000002</ele><time>2026-04-18T08:56:25Z</time></trkpt><trkpt lat="39.56116687140945" lon="8.906443980393934"><ele>129.8</ele><time>2026-04-18T08:56:26Z</time></trkpt><trkpt lat="39.561181962919946" lon="8.906300998649886"><ele>130.4</ele><time>2026-04-18T08:56:27Z</time></trkpt><trkpt lat="39.56120027180815" lon="8.906157875967956"><ele>131.0</ele><time>2026-04-18T08:56:28Z</time></trkpt><trkpt lat="39.56121938215184" lon="8.906010112516796"><ele>131.5</ele><time>2026-04-18T08:56:29Z</time></trkpt><trkpt lat="39.56123468667939" lon="8.905864846090989"><ele>132.0</ele><time>2026-04-18T08:56:30Z</time></trkpt><trkpt lat="39.56125141198229" lon="8.905718096672247"><ele>132.5</ele><time>2026-04-18T08:56:31Z</time></trkpt><trkpt lat="39.56126658666261" lon="8.905571730631015"><ele>133.0</ele><time>2026-04-18T08:56:32Z</time></trkpt><trkpt lat="39.56127990317234" lon="8.905425152912493"><ele>133.0</ele><time>2026-04-18T08:56:33Z</time></trkpt><trkpt lat="39.5612970338889" lon="8.905278313569681"><ele>133.0</ele><time>2026-04-18T08:56:34Z</time></trkpt><trkpt lat="39.56131164621214" lon="8.90513218987345"><ele>133.0</ele><time>2026-04-18T08:56:35Z</time></trkpt><trkpt lat="39.56132828852099" lon="8.904987452957952"><ele>133.0</ele><time>2026-04-18T08:56:36Z</time></trkpt><trkpt lat="39.56134235185913" lon="8.90484310812443"><ele>133.8</ele><time>2026-04-18T08:56:37Z</time></trkpt><trkpt lat="39.56135626864593" lon="8.90469963060004"><ele>134.60000000000002</ele><time>2026-04-18T08:56:38Z</time></trkpt><trkpt lat="39.56137330933448" lon="8.904558663224059"><ele>135.39999999999998</ele><time>2026-04-18T08:56:39Z</time></trkpt><trkpt lat="39.56138814793192" lon="8.904422912469055"><ele>136.2</ele><time>2026-04-18T08:56:40Z</time></trkpt><trkpt lat="39.56140020910824" lon="8.904294932714828"><ele>137.0</ele><time>2026-04-18T08:56:41Z</time></trkpt><trkpt lat="39.561414584394285" lon="8.904161653211235"><ele>137.4</ele><time>2026-04-18T08:56:42Z</time></trkpt><trkpt lat="39.56143026844259" lon="8.904037259165694"><ele>137.79999999999998</ele><time>2026-04-18T08:56:43Z</time></trkpt><trkpt lat="39.56144206302573" lon="8.903917110374497"><ele>138.2</ele><time>2026-04-18T08:56:44Z</time></trkpt><trkpt lat="39.56145498010171" lon="8.903795219213036"><ele>138.6</ele><time>2026-04-18T08:56:45Z</time></trkpt><trkpt lat="39.56147138971892" lon="8.90366813259074"><ele>139.0</ele><time>2026-04-18T08:56:46Z</time></trkpt><trkpt lat="39.56149267545601" lon="8.903538521740185"><ele>139.2</ele><time>2026-04-18T08:56:47Z</time></trkpt><trkpt lat="39.56151273350982" lon="8.903408808296216"><ele>139.4</ele><time>2026-04-18T08:56:48Z</time></trkpt><trkpt lat="39.56153450784929" lon="8.903276423467798"><ele>139.6</ele><time>2026-04-18T08:56:49Z</time></trkpt><trkpt lat="39.56156055366409" lon="8.903143709851626"><ele>139.8</ele><time>2026-04-18T08:56:50Z</time></trkpt><trkpt lat="39.561593199533746" lon="8.903012580369577"><ele>140.0</ele><time>2026-04-18T08:56:51Z</time></trkpt><trkpt lat="39.56162926138458" lon="8.902883187130545"><ele>140.0</ele><time>2026-04-18T08:56:52Z</time></trkpt><trkpt lat="39.5616685848353" lon="8.902752095017695"><ele>140.0</ele><time>2026-04-18T08:56:53Z</time></trkpt><trkpt lat="39.56170859671091" lon="8.902623677304023"><ele>140.0</ele><time>2026-04-18T08:56:54Z</time></trkpt><trkpt lat="39.56174922001246" lon="8.902498201408925"><ele>140.0</ele><time>2026-04-18T08:56:55Z</time></trkpt><trkpt lat="39.56178931462653" lon="8.902367298837014"><ele>140.0</ele><time>2026-04-18T08:56:56Z</time></trkpt><trkpt lat="39.56182845921668" lon="8.902237926899662"><ele>139.8</ele><time>2026-04-18T08:56:57Z</time></trkpt><trkpt lat="39.561869240450896" lon="8.902106437985303"><ele>139.6</ele><time>2026-04-18T08:56:58Z</time></trkpt><trkpt lat="39.561911559656124" lon="8.901972351726176"><ele>139.4</ele><time>2026-04-18T08:56:59Z</time></trkpt><trkpt lat="39.56195678175522" lon="8.901837392042193"><ele>139.2</ele><time>2026-04-18T08:57:00Z</time></trkpt><trkpt lat="39.56199993054235" lon="8.901705339319536"><ele>139.0</ele><time>2026-04-18T08:57:01Z</time></trkpt><trkpt lat="39.56204087855344" lon="8.901573645369991"><ele>140.2</ele><time>2026-04-18T08:57:02Z</time></trkpt><trkpt lat="39.562087972558565" lon="8.901444993264144"><ele>141.4</ele><time>2026-04-18T08:57:03Z</time></trkpt><trkpt lat="39.56213897385242" lon="8.901319388835956"><ele>142.6</ele><time>2026-04-18T08:57:04Z</time></trkpt><trkpt lat="39.562190098729616" lon="8.901193055324034"><ele>143.8</ele><time>2026-04-18T08:57:05Z</time></trkpt><trkpt lat="39.562238797736924" lon="8.90107161881081"><ele>145.0</ele><time>2026-04-18T08:57:06Z</time></trkpt><trkpt lat="39.562290230462956" lon="8.900946829354286"><ele>144.4</ele><time>2026-04-18T08:57:07Z</time></trkpt><trkpt lat="39.56234137649402" lon="8.900836314780756"><ele>143.8</ele><time>2026-04-18T08:57:08Z</time></trkpt><trkpt lat="39.56239717193768" lon="8.900736291836896"><ele>143.2</ele><time>2026-04-18T08:57:09Z</time></trkpt><trkpt lat="39.56245571576126" lon="8.90064587984008"><ele>142.6</ele><time>2026-04-18T08:57:10Z</time></trkpt><trkpt lat="39.5625130911916" lon="8.90056309390908"><ele>142.0</ele><time>2026-04-18T08:57:11Z</time></trkpt><trkpt lat="39.56257459300352" lon="8.900486021788007"><ele>142.0</ele><time>2026-04-18T08:57:12Z</time></trkpt><trkpt lat="39.56263728200789" lon="8.900410017009051"><ele>142.0</ele><time>2026-04-18T08:57:13Z</time></trkpt><trkpt lat="39.562704308061996" lon="8.900329423784541"><ele>142.0</ele><time>2026-04-18T08:57:14Z</time></trkpt><trkpt lat="39.5627660545497" lon="8.90025107930071"><ele>142.0</ele><time>2026-04-18T08:57:15Z</time></trkpt><trkpt lat="39.562821377077036" lon="8.900171446256094"><ele>142.0</ele><time>2026-04-18T08:57:16Z</time></trkpt><trkpt lat="39.56286692950936" lon="8.900088343955186"><ele>142.0</ele><time>2026-04-18T08:57:17Z</time></trkpt><trkpt lat="39.56290328514268" lon="8.900003217106963"><ele>142.2</ele><time>2026-04-18T08:57:18Z</time></trkpt><trkpt lat="39.562949045617636" lon="8.899873603781556"><ele>142.39999999999998</ele><time>2026-04-18T08:57:20Z</time></trkpt><trkpt lat="39.562975172693626" lon="8.899736801860673"><ele>142.60000000000002</ele><time>2026-04-18T08:57:27Z</time></trkpt><trkpt lat="39.562980749433436" lon="8.899628773978968"><ele>142.8</ele><time>2026-04-18T08:57:29Z</time></trkpt><trkpt lat="39.56289218453003" lon="8.899556545989215"><ele>143.0</ele><time>2026-04-18T08:57:32Z</time></trkpt><trkpt lat="39.56278123050527" lon="8.89958836625441"><ele>142.42857142857142</ele><time>2026-04-18T08:57:34Z</time></trkpt><trkpt lat="39.5627178613718" lon="8.899586533566143"><ele>141.85714285714286</ele><time>2026-04-18T08:57:35Z</time></trkpt><trkpt lat="39.56265010182052" lon="8.89956746744796"><ele>141.28571428571428</ele><time>2026-04-18T08:57:36Z</time></trkpt><trkpt lat="39.562583648312895" lon="8.899541485689708"><ele>140.71428571428572</ele><time>2026-04-18T08:57:37Z</time></trkpt><trkpt lat="39.562523110494794" lon="8.899514383068686"><ele>140.14285714285714</ele><time>2026-04-18T08:57:38Z</time></trkpt><trkpt lat="39.562461527171095" lon="8.899486308771172"><ele>139.57142857142856</ele><time>2026-04-18T08:57:39Z</time></trkpt><trkpt lat="39.56239839363894" lon="8.899462470727176"><ele>139.0</ele><time>2026-04-18T08:57:40Z</time></trkpt><trkpt lat="39.56233493197485" lon="8.899433683553156"><ele>139.0</ele><time>2026-04-18T08:57:41Z</time></trkpt><trkpt lat="39.56227403072969" lon="8.899404451618008"><ele>139.0</ele><time>2026-04-18T08:57:42Z</time></trkpt><trkpt lat="39.562173768141015" lon="8.89936323671787"><ele>139.0</ele><time>2026-04-18T08:57:44Z</time></trkpt><trkpt lat="39.56208682252542" lon="8.899329409856222"><ele>139.0</ele><time>2026-04-18T08:57:46Z</time></trkpt><trkpt lat="39.56201033731077" lon="8.899294580586474"><ele>139.0</ele><time>2026-04-18T08:57:48Z</time></trkpt><trkpt lat="39.5619651502323" lon="8.899227638019175"><ele>139.0</ele><time>2026-04-18T08:57:50Z</time></trkpt><trkpt lat="39.56198604290024" lon="8.8990986565266"><ele>139.4</ele><time>2026-04-18T08:57:52Z</time></trkpt><trkpt lat="39.56203541471705" lon="8.89895283484638"><ele>139.8</ele><time>2026-04-18T08:57:54Z</time></trkpt><trkpt lat="39.56206193378183" lon="8.898829260757347"><ele>140.2</ele><time>2026-04-18T08:57:56Z</time></trkpt><trkpt lat="39.56209363121468" lon="8.898741909941577"><ele>140.6</ele><time>2026-04-18T08:57:58Z</time></trkpt><trkpt lat="39.562134405110704" lon="8.898636762416272"><ele>141.0</ele><time>2026-04-18T08:58:00Z</time></trkpt><trkpt lat="39.56215638520143" lon="8.898534685753717"><ele>141.0</ele><time>2026-04-18T08:58:02Z</time></trkpt><trkpt lat="39.562198250110775" lon="8.898453754519407"><ele>141.0</ele><time>2026-04-18T08:58:04Z</time></trkpt><trkpt lat="39.56221708930121" lon="8.898332667363814"><ele>141.0</ele><time>2026-04-18T08:58:06Z</time></trkpt><trkpt lat="39.56224618855009" lon="8.898186325810512"><ele>141.0</ele><time>2026-04-18T08:58:08Z</time></trkpt><trkpt lat="39.562269341844704" lon="8.89804113553721"><ele>141.0</ele><time>2026-04-18T08:58:10Z</time></trkpt><trkpt lat="39.562309591310886" lon="8.897918573645768"><ele>141.0</ele><time>2026-04-18T08:58:12Z</time></trkpt><trkpt lat="39.5623605074722" lon="8.897809102011616"><ele>141.0</ele><time>2026-04-18T08:58:14Z</time></trkpt><trkpt lat="39.56239596024216" lon="8.897682623788482"><ele>141.0</ele><time>2026-04-18T08:58:16Z</time></trkpt><trkpt lat="39.56240950362495" lon="8.897594440153807"><ele>141.0</ele><time>2026-04-18T08:58:18Z</time></trkpt><trkpt lat="39.56236865092386" lon="8.897509287353701"><ele>141.0</ele><time>2026-04-18T08:58:20Z</time></trkpt><trkpt lat="39.562326578990515" lon="8.897394156847344"><ele>141.0</ele><time>2026-04-18T08:58:22Z</time></trkpt><trkpt lat="39.562340165285484" lon="8.897299892308814"><ele>140.4</ele><time>2026-04-18T08:58:25Z</time></trkpt><trkpt lat="39.562417132566786" lon="8.897207522646493"><ele>139.8</ele><time>2026-04-18T08:58:27Z</time></trkpt><trkpt lat="39.56246752053419" lon="8.897148934435583"><ele>139.20000000000002</ele><time>2026-04-18T08:58:29Z</time></trkpt><trkpt lat="39.56246914210951" lon="8.896960260923994"><ele>138.6</ele><time>2026-04-18T08:58:32Z</time></trkpt><trkpt lat="39.56241292274664" lon="8.896842292561011"><ele>138.0</ele><time>2026-04-18T08:58:34Z</time></trkpt><trkpt lat="39.56239926851077" lon="8.896755770692506"><ele>137.5</ele><time>2026-04-18T08:58:35Z</time></trkpt><trkpt lat="39.56234422646909" lon="8.896670429148221"><ele>137.0</ele><time>2026-04-18T08:58:36Z</time></trkpt><trkpt lat="39.56228856519904" lon="8.89659352183296"><ele>136.5</ele><time>2026-04-18T08:58:37Z</time></trkpt><trkpt lat="39.56223867229654" lon="8.896522330400787"><ele>136.0</ele><time>2026-04-18T08:58:38Z</time></trkpt><trkpt lat="39.562178143938" lon="8.896453954947484"><ele>135.5</ele><time>2026-04-18T08:58:39Z</time></trkpt><trkpt lat="39.56213670870992" lon="8.896359576249784"><ele>135.0</ele><time>2026-04-18T08:58:40Z</time></trkpt><trkpt lat="39.56208417520136" lon="8.89627513512801"><ele>135.0</ele><time>2026-04-18T08:58:41Z</time></trkpt><trkpt lat="39.562031174282666" lon="8.896198268955938"><ele>135.0</ele><time>2026-04-18T08:58:42Z</time></trkpt><trkpt lat="39.56194847370191" lon="8.896097202023503"><ele>135.0</ele><time>2026-04-18T08:58:44Z</time></trkpt><trkpt lat="39.56187772103467" lon="8.896038805458323"><ele>135.0</ele><time>2026-04-18T08:58:46Z</time></trkpt><trkpt lat="39.56200722868454" lon="8.895922225635154"><ele>135.0</ele><time>2026-04-18T08:58:51Z</time></trkpt><trkpt lat="39.56207274725388" lon="8.895879378992289"><ele>135.0</ele><time>2026-04-18T08:58:52Z</time></trkpt><trkpt lat="39.56215699843258" lon="8.895822019859866"><ele>135.0</ele><time>2026-04-18T08:58:53Z</time></trkpt><trkpt lat="39.562216343755445" lon="8.895785230194837"><ele>135.0</ele><time>2026-04-18T08:58:54Z</time></trkpt><trkpt lat="39.56228883948923" lon="8.895758859973101"><ele>135.0</ele><time>2026-04-18T08:58:55Z</time></trkpt><trkpt lat="39.56237221335249" lon="8.895712484225017"><ele>135.0</ele><time>2026-04-18T08:58:56Z</time></trkpt><trkpt lat="39.56245377135824" lon="8.89567213200011"><ele>135.0</ele><time>2026-04-18T08:58:57Z</time></trkpt><trkpt lat="39.56253447705446" lon="8.895635019061967"><ele>135.0</ele><time>2026-04-18T08:58:58Z</time></trkpt><trkpt lat="39.562609917241005" lon="8.895593214384153"><ele>135.0</ele><time>2026-04-18T08:58:59Z</time></trkpt><trkpt lat="39.56267455277899" lon="8.895541943891667"><ele>135.0</ele><time>2026-04-18T08:59:00Z</time></trkpt><trkpt lat="39.56277985909535" lon="8.895495210982512"><ele>135.0</ele><time>2026-04-18T08:59:02Z</time></trkpt><trkpt lat="39.562851948210586" lon="8.895469790189184"><ele>135.0</ele><time>2026-04-18T08:59:03Z</time></trkpt><trkpt lat="39.56292555912519" lon="8.89544039418116"><ele>135.0</ele><time>2026-04-18T08:59:04Z</time></trkpt><trkpt lat="39.562992341902984" lon="8.89540699830376"><ele>134.83333333333334</ele><time>2026-04-18T08:59:05Z</time></trkpt><trkpt lat="39.56307267501236" lon="8.895352441559725"><ele>134.66666666666666</ele><time>2026-04-18T08:59:07Z</time></trkpt><trkpt lat="39.563032162218235" lon="8.89526891168734"><ele>134.5</ele><time>2026-04-18T08:59:10Z</time></trkpt><trkpt lat="39.562981583693556" lon="8.895220027291119"><ele>134.33333333333331</ele><time>2026-04-18T08:59:11Z</time></trkpt><trkpt lat="39.56293044316396" lon="8.895154187734963"><ele>134.16666666666666</ele><time>2026-04-18T08:59:12Z</time></trkpt><trkpt lat="39.56287730867289" lon="8.895078251920577"><ele>134.0</ele><time>2026-04-18T08:59:13Z</time></trkpt><trkpt lat="39.562831105029254" lon="8.894973383486459"><ele>134.0</ele><time>2026-04-18T08:59:14Z</time></trkpt><trkpt lat="39.562777920704505" lon="8.894864822995856"><ele>134.0</ele><time>2026-04-18T08:59:15Z</time></trkpt><trkpt lat="39.562716918682106" lon="8.894756514924316"><ele>134.0</ele><time>2026-04-18T08:59:16Z</time></trkpt><trkpt lat="39.56265941747263" lon="8.894657621835051"><ele>134.0</ele><time>2026-04-18T08:59:17Z</time></trkpt><trkpt lat="39.56260568047565" lon="8.894571322063578"><ele>134.0</ele><time>2026-04-18T08:59:18Z</time></trkpt><trkpt lat="39.56256777361794" lon="8.894497827844415"><ele>134.0</ele><time>2026-04-18T08:59:19Z</time></trkpt><trkpt lat="39.56254182751447" lon="8.894353920129419"><ele>134.0</ele><time>2026-04-18T08:59:21Z</time></trkpt><trkpt lat="39.56254002598669" lon="8.894251582557473"><ele>134.0</ele><time>2026-04-18T08:59:24Z</time></trkpt><trkpt lat="39.562495952558265" lon="8.89413038007703"><ele>134.0</ele><time>2026-04-18T08:59:26Z</time></trkpt><trkpt lat="39.56244794829171" lon="8.89405897824609"><ele>134.0</ele><time>2026-04-18T08:59:27Z</time></trkpt><trkpt lat="39.56240157659486" lon="8.893982576246685"><ele>134.0</ele><time>2026-04-18T08:59:28Z</time></trkpt><trkpt lat="39.56235522738571" lon="8.893918719703969"><ele>133.8</ele><time>2026-04-18T08:59:29Z</time></trkpt><trkpt lat="39.56229736767409" lon="8.8938279182299"><ele>133.60000000000002</ele><time>2026-04-18T08:59:31Z</time></trkpt><trkpt lat="39.562175380154045" lon="8.893889219801343"><ele>133.4</ele><time>2026-04-18T08:59:35Z</time></trkpt><trkpt lat="39.56212562409206" lon="8.893953951947482"><ele>133.20000000000002</ele><time>2026-04-18T08:59:36Z</time></trkpt><trkpt lat="39.56205882712251" lon="8.894029064797621"><ele>133.0</ele><time>2026-04-18T08:59:37Z</time></trkpt><trkpt lat="39.56199819179899" lon="8.894104747970916"><ele>132.66666666666669</ele><time>2026-04-18T08:59:38Z</time></trkpt><trkpt lat="39.56194284834647" lon="8.894170166294673"><ele>132.33333333333334</ele><time>2026-04-18T08:59:39Z</time></trkpt><trkpt lat="39.56186415165238" lon="8.894225846216822"><ele>132.0</ele><time>2026-04-18T08:59:40Z</time></trkpt><trkpt lat="39.56179023163575" lon="8.89428860899096"><ele>131.66666666666666</ele><time>2026-04-18T08:59:41Z</time></trkpt><trkpt lat="39.5617187291121" lon="8.894359654534892"><ele>131.33333333333331</ele><time>2026-04-18T08:59:42Z</time></trkpt><trkpt lat="39.561663851390804" lon="8.894409217350463"><ele>131.0</ele><time>2026-04-18T08:59:43Z</time></trkpt><trkpt lat="39.56159370692054" lon="8.894308918269118"><ele>131.0</ele><time>2026-04-18T08:59:51Z</time></trkpt><trkpt lat="39.56157874995495" lon="8.894213898355392"><ele>131.0</ele><time>2026-04-18T08:59:53Z</time></trkpt><trkpt lat="39.56160401816604" lon="8.894080220292924"><ele>131.0</ele><time>2026-04-18T08:59:55Z</time></trkpt><trkpt lat="39.56162377038132" lon="8.89398039920976"><ele>131.0</ele><time>2026-04-18T08:59:56Z</time></trkpt><trkpt lat="39.561677155423446" lon="8.893930690243334"><ele>131.0</ele><time>2026-04-18T08:59:57Z</time></trkpt><trkpt lat="39.561614095319555" lon="8.89403552021826"><ele>131.0</ele><time>2026-04-18T09:00:20Z</time></trkpt><trkpt lat="39.56158297081382" lon="8.89412617277334"><ele>131.0</ele><time>2026-04-18T09:00:21Z</time></trkpt><trkpt lat="39.56157797697242" lon="8.89421202521582"><ele>131.0</ele><time>2026-04-18T09:00:22Z</time></trkpt><trkpt lat="39.56156215468982" lon="8.894310375712307"><ele>131.0</ele><time>2026-04-18T09:00:25Z</time></trkpt><trkpt lat="39.5615710218385" lon="8.894449601299495"><ele>131.0</ele><time>2026-04-18T09:00:27Z</time></trkpt><trkpt lat="39.56160026254887" lon="8.894540262318126"><ele>131.0</ele><time>2026-04-18T09:00:28Z</time></trkpt><trkpt lat="39.561574767041655" lon="8.894619250500806"><ele>131.0</ele><time>2026-04-18T09:00:30Z</time></trkpt><trkpt lat="39.56159491578488" lon="8.894745225334816"><ele>131.0</ele><time>2026-04-18T09:00:35Z</time></trkpt><trkpt lat="39.56165395655567" lon="8.894811024311423"><ele>131.0</ele><time>2026-04-18T09:00:36Z</time></trkpt><trkpt lat="39.56164296703355" lon="8.894919904520782"><ele>131.0</ele><time>2026-04-18T09:00:39Z</time></trkpt><trkpt lat="39.56152745055412" lon="8.89498736699337"><ele>131.0</ele><time>2026-04-18T09:00:41Z</time></trkpt><trkpt lat="39.56144561766148" lon="8.895028167000126"><ele>131.0</ele><time>2026-04-18T09:00:42Z</time></trkpt><trkpt lat="39.56137235354952" lon="8.895078786624396"><ele>130.8</ele><time>2026-04-18T09:00:43Z</time></trkpt><trkpt lat="39.561320263567694" lon="8.895125957291606"><ele>130.6</ele><time>2026-04-18T09:00:44Z</time></trkpt><trkpt lat="39.561251516080354" lon="8.895258419920747"><ele>130.4</ele><time>2026-04-18T09:00:46Z</time></trkpt><trkpt lat="39.56122014698218" lon="8.89537688181494"><ele>130.2</ele><time>2026-04-18T09:00:47Z</time></trkpt><trkpt lat="39.561189404084956" lon="8.895500339836817"><ele>130.0</ele><time>2026-04-18T09:00:48Z</time></trkpt><trkpt lat="39.561148114911155" lon="8.895623975070993"><ele>130.0</ele><time>2026-04-18T09:00:49Z</time></trkpt><trkpt lat="39.5610984964419" lon="8.89574573095123"><ele>130.0</ele><time>2026-04-18T09:00:50Z</time></trkpt><trkpt lat="39.56104196404295" lon="8.895850744091117"><ele>130.0</ele><time>2026-04-18T09:00:51Z</time></trkpt><trkpt lat="39.56103836034304" lon="8.895968150206283"><ele>130.0</ele><time>2026-04-18T09:00:52Z</time></trkpt><trkpt lat="39.56102529148483" lon="8.896070198889598"><ele>130.0</ele><time>2026-04-18T09:00:53Z</time></trkpt><trkpt lat="39.561013239805625" lon="8.896169025947696"><ele>129.8</ele><time>2026-04-18T09:00:54Z</time></trkpt><trkpt lat="39.56099831552771" lon="8.896261391164238"><ele>129.6</ele><time>2026-04-18T09:00:55Z</time></trkpt><trkpt lat="39.5609887488996" lon="8.896349822278284"><ele>129.4</ele><time>2026-04-18T09:00:56Z</time></trkpt><trkpt lat="39.561009571730715" lon="8.896509508743843"><ele>129.2</ele><time>2026-04-18T09:00:58Z</time></trkpt><trkpt lat="39.56095854548258" lon="8.896657478174385"><ele>129.0</ele><time>2026-04-18T09:01:00Z</time></trkpt><trkpt lat="39.56089849808068" lon="8.896725027578096"><ele>129.0</ele><time>2026-04-18T09:01:01Z</time></trkpt><trkpt lat="39.56085252167467" lon="8.896805639512953"><ele>129.0</ele><time>2026-04-18T09:01:02Z</time></trkpt><trkpt lat="39.56082343826131" lon="8.896884626601434"><ele>129.0</ele><time>2026-04-18T09:01:03Z</time></trkpt><trkpt lat="39.560803723759996" lon="8.896979002328846"><ele>129.0</ele><time>2026-04-18T09:01:04Z</time></trkpt><trkpt lat="39.560778711868444" lon="8.897087636835321"><ele>129.0</ele><time>2026-04-18T09:01:05Z</time></trkpt><trkpt lat="39.560748606189556" lon="8.897195755939544"><ele>129.0</ele><time>2026-04-18T09:01:06Z</time></trkpt><trkpt lat="39.5607102799083" lon="8.897279276587632"><ele>129.0</ele><time>2026-04-18T09:01:07Z</time></trkpt><trkpt lat="39.56064368293316" lon="8.897392297228597"><ele>129.0</ele><time>2026-04-18T09:01:09Z</time></trkpt><trkpt lat="39.56059607087682" lon="8.89749371466021"><ele>129.0</ele><time>2026-04-18T09:01:11Z</time></trkpt><trkpt lat="39.56050501222977" lon="8.897559328364943"><ele>129.0</ele><time>2026-04-18T09:01:13Z</time></trkpt><trkpt lat="39.5604229054905" lon="8.897614247992312"><ele>129.0</ele><time>2026-04-18T09:01:15Z</time></trkpt><trkpt lat="39.56035641640941" lon="8.897629700799541"><ele>128.6</ele><time>2026-04-18T09:01:18Z</time></trkpt><trkpt lat="39.560300540250225" lon="8.897518651182343"><ele>128.2</ele><time>2026-04-18T09:01:20Z</time></trkpt><trkpt lat="39.56026844889809" lon="8.897365057679686"><ele>127.79999999999998</ele><time>2026-04-18T09:01:22Z</time></trkpt><trkpt lat="39.560246564728445" lon="8.897276550547623"><ele>127.39999999999999</ele><time>2026-04-18T09:01:23Z</time></trkpt><trkpt lat="39.560232091431445" lon="8.897196537507773"><ele>127.0</ele><time>2026-04-18T09:01:24Z</time></trkpt><trkpt lat="39.56020696763313" lon="8.89706144320884"><ele>127.0</ele><time>2026-04-18T09:01:26Z</time></trkpt><trkpt lat="39.56018266350586" lon="8.89696914877456"><ele>126.99999999999999</ele><time>2026-04-18T09:01:28Z</time></trkpt><trkpt lat="39.56015008113615" lon="8.896823821289978"><ele>126.99999999999999</ele><time>2026-04-18T09:01:30Z</time></trkpt><trkpt lat="39.56011988925693" lon="8.896722278594504"><ele>127.0</ele><time>2026-04-18T09:01:31Z</time></trkpt><trkpt lat="39.56007456174933" lon="8.896619675151241"><ele>127.0</ele><time>2026-04-18T09:01:32Z</time></trkpt><trkpt lat="39.56001152418193" lon="8.896508863060358"><ele>127.0</ele><time>2026-04-18T09:01:33Z</time></trkpt><trkpt lat="39.55994333886573" lon="8.896397013811956"><ele>127.0</ele><time>2026-04-18T09:01:34Z</time></trkpt><trkpt lat="39.55987304165924" lon="8.89627382313729"><ele>127.0</ele><time>2026-04-18T09:01:35Z</time></trkpt><trkpt lat="39.559796914593804" lon="8.896144382406867"><ele>127.0</ele><time>2026-04-18T09:01:36Z</time></trkpt><trkpt lat="39.55972020858422" lon="8.896007114144172"><ele>127.0</ele><time>2026-04-18T09:01:37Z</time></trkpt><trkpt lat="39.55964286286064" lon="8.895866758386655"><ele>127.0</ele><time>2026-04-18T09:01:38Z</time></trkpt><trkpt lat="39.55956426217392" lon="8.895730807674774"><ele>127.0</ele><time>2026-04-18T09:01:39Z</time></trkpt><trkpt lat="39.5594826584582" lon="8.895599944841804"><ele>127.0</ele><time>2026-04-18T09:01:40Z</time></trkpt><trkpt lat="39.559423082126024" lon="8.895464671343547"><ele>126.83333333333334</ele><time>2026-04-18T09:01:41Z</time></trkpt><trkpt lat="39.55938469156039" lon="8.895323879195061"><ele>126.66666666666667</ele><time>2026-04-18T09:01:42Z</time></trkpt><trkpt lat="39.559374378908636" lon="8.895196366486807"><ele>126.5</ele><time>2026-04-18T09:01:43Z</time></trkpt><trkpt lat="39.55937163027909" lon="8.895092752468019"><ele>126.33333333333334</ele><time>2026-04-18T09:01:44Z</time></trkpt><trkpt lat="39.55936694960271" lon="8.894996156408618"><ele>126.16666666666667</ele><time>2026-04-18T09:01:45Z</time></trkpt><trkpt lat="39.559357658265995" lon="8.894903072974902"><ele>126.0</ele><time>2026-04-18T09:01:46Z</time></trkpt><trkpt lat="39.55934639354172" lon="8.894812402392189"><ele>125.83333333333333</ele><time>2026-04-18T09:01:47Z</time></trkpt><trkpt lat="39.55933446159771" lon="8.894721975588991"><ele>125.66666666666666</ele><time>2026-04-18T09:01:48Z</time></trkpt><trkpt lat="39.55932414862463" lon="8.894622952422955"><ele>125.5</ele><time>2026-04-18T09:01:49Z</time></trkpt><trkpt lat="39.55931528836652" lon="8.894513917687407"><ele>125.33333333333333</ele><time>2026-04-18T09:01:50Z</time></trkpt><trkpt lat="39.55929821116515" lon="8.894400691153209"><ele>125.16666666666666</ele><time>2026-04-18T09:01:51Z</time></trkpt><trkpt lat="39.55928503355511" lon="8.894280367336037"><ele>125.0</ele><time>2026-04-18T09:01:52Z</time></trkpt><trkpt lat="39.55927153040322" lon="8.894145364144682"><ele>125.0</ele><time>2026-04-18T09:01:53Z</time></trkpt><trkpt lat="39.559257093506254" lon="8.894011585423069"><ele>125.0</ele><time>2026-04-18T09:01:54Z</time></trkpt><trkpt lat="39.55924595761273" lon="8.893869974269853"><ele>125.0</ele><time>2026-04-18T09:01:55Z</time></trkpt><trkpt lat="39.559230704288254" lon="8.893726441377646"><ele>125.0</ele><time>2026-04-18T09:01:56Z</time></trkpt><trkpt lat="39.559222202888" lon="8.893578905217522"><ele>125.0</ele><time>2026-04-18T09:01:57Z</time></trkpt><trkpt lat="39.559220065605366" lon="8.89342862843744"><ele>124.75</ele><time>2026-04-18T09:01:58Z</time></trkpt><trkpt lat="39.55921737011597" lon="8.893277786724207"><ele>124.5</ele><time>2026-04-18T09:01:59Z</time></trkpt><trkpt lat="39.55921350347641" lon="8.8931204727931"><ele>124.25</ele><time>2026-04-18T09:02:00Z</time></trkpt><trkpt lat="39.55920945671867" lon="8.892963360778728"><ele>124.0</ele><time>2026-04-18T09:02:01Z</time></trkpt><trkpt lat="39.55920230373518" lon="8.892804270055564"><ele>124.0</ele><time>2026-04-18T09:02:02Z</time></trkpt><trkpt lat="39.55919663098518" lon="8.892641043071915"><ele>124.0</ele><time>2026-04-18T09:02:03Z</time></trkpt><trkpt lat="39.55919248069563" lon="8.89248140981954"><ele>124.0</ele><time>2026-04-18T09:02:04Z</time></trkpt><trkpt lat="39.55918598520065" lon="8.892331414496377"><ele>124.0</ele><time>2026-04-18T09:02:05Z</time></trkpt><trkpt lat="39.55918233844464" lon="8.892189839860858"><ele>123.80000000000001</ele><time>2026-04-18T09:02:06Z</time></trkpt><trkpt lat="39.559184525633505" lon="8.892054995032447"><ele>123.60000000000001</ele><time>2026-04-18T09:02:07Z</time></trkpt><trkpt lat="39.55919315446282" lon="8.891933763711435"><ele>123.4</ele><time>2026-04-18T09:02:08Z</time></trkpt><trkpt lat="39.55920475233102" lon="8.8918289603703"><ele>123.2</ele><time>2026-04-18T09:02:09Z</time></trkpt><trkpt lat="39.55922730038544" lon="8.891715745639157"><ele>123.0</ele><time>2026-04-18T09:02:11Z</time></trkpt><trkpt lat="39.559248240665994" lon="8.891591295273617"><ele>123.0</ele><time>2026-04-18T09:02:18Z</time></trkpt><trkpt lat="39.559281848735175" lon="8.891456144709837"><ele>123.00000000000001</ele><time>2026-04-18T09:02:20Z</time></trkpt><trkpt lat="39.55928333144638" lon="8.8913083901278"><ele>123.00000000000001</ele><time>2026-04-18T09:02:22Z</time></trkpt><trkpt lat="39.5592486340386" lon="8.891219061237638"><ele>123.0</ele><time>2026-04-18T09:02:23Z</time></trkpt><trkpt lat="39.55921200737163" lon="8.89112131351557"><ele>123.0</ele><time>2026-04-18T09:02:24Z</time></trkpt><trkpt lat="39.55918633634372" lon="8.891008749507634"><ele>123.0</ele><time>2026-04-18T09:02:25Z</time></trkpt><trkpt lat="39.55916828181113" lon="8.890906183163729"><ele>123.00000000000001</ele><time>2026-04-18T09:02:27Z</time></trkpt><trkpt lat="39.55915935491544" lon="8.890797951480494"><ele>123.00000000000001</ele><time>2026-04-18T09:02:28Z</time></trkpt><trkpt lat="39.559152520386824" lon="8.89065114583132"><ele>123.0</ele><time>2026-04-18T09:02:29Z</time></trkpt><trkpt lat="39.55914539098036" lon="8.890469792283785"><ele>123.0</ele><time>2026-04-18T09:02:30Z</time></trkpt><trkpt lat="39.55913779558257" lon="8.890282191711167"><ele>122.66666666666666</ele><time>2026-04-18T09:02:31Z</time></trkpt><trkpt lat="39.5591299544541" lon="8.89008003011368"><ele>122.33333333333333</ele><time>2026-04-18T09:02:32Z</time></trkpt><trkpt lat="39.55912409686332" lon="8.889860248087325"><ele>122.0</ele><time>2026-04-18T09:02:33Z</time></trkpt><trkpt lat="39.559116801536" lon="8.889637407638865"><ele>122.0</ele><time>2026-04-18T09:02:34Z</time></trkpt><trkpt lat="39.559106980407876" lon="8.889406007938877"><ele>122.0</ele><time>2026-04-18T09:02:35Z</time></trkpt><trkpt lat="39.559097295896365" lon="8.889164108405096"><ele>122.0</ele><time>2026-04-18T09:02:36Z</time></trkpt><trkpt lat="39.55909063559866" lon="8.888914762217336"><ele>121.66666666666666</ele><time>2026-04-18T09:02:37Z</time></trkpt><trkpt lat="39.559085812012384" lon="8.888659847822703"><ele>121.33333333333334</ele><time>2026-04-18T09:02:38Z</time></trkpt><trkpt lat="39.55907858036846" lon="8.888400459881023"><ele>121.0</ele><time>2026-04-18T09:02:39Z</time></trkpt><trkpt lat="39.55906510829112" lon="8.888134035651708"><ele>121.0</ele><time>2026-04-18T09:02:40Z</time></trkpt><trkpt lat="39.55905412645023" lon="8.887865490760346"><ele>121.0</ele><time>2026-04-18T09:02:41Z</time></trkpt><trkpt lat="39.55904258211457" lon="8.887593607201534"><ele>121.0</ele><time>2026-04-18T09:02:42Z</time></trkpt><trkpt lat="39.55904598261539" lon="8.887320133758104"><ele>120.66666666666667</ele><time>2026-04-18T09:02:43Z</time></trkpt><trkpt lat="39.5590326311422" lon="8.887073146918901"><ele>120.33333333333334</ele><time>2026-04-18T09:02:44Z</time></trkpt><trkpt lat="39.55902699517446" lon="8.886800723004812"><ele>120.0</ele><time>2026-04-18T09:02:45Z</time></trkpt><trkpt lat="39.559016990335785" lon="8.886531356076008"><ele>119.0</ele><time>2026-04-18T09:02:46Z</time></trkpt><trkpt lat="39.55900225371536" lon="8.886263880935587"><ele>118.0</ele><time>2026-04-18T09:02:47Z</time></trkpt><trkpt lat="39.55898912726998" lon="8.885998853926461"><ele>117.0</ele><time>2026-04-18T09:02:48Z</time></trkpt><trkpt lat="39.558982642442395" lon="8.88573676336241"><ele>117.0</ele><time>2026-04-18T09:02:49Z</time></trkpt><trkpt lat="39.55897736046458" lon="8.885478046519589"><ele>117.0</ele><time>2026-04-18T09:02:50Z</time></trkpt><trkpt lat="39.55897150553188" lon="8.8852185055499"><ele>117.0</ele><time>2026-04-18T09:02:51Z</time></trkpt><trkpt lat="39.5589683883099" lon="8.884960273584474"><ele>117.66666666666666</ele><time>2026-04-18T09:02:52Z</time></trkpt><trkpt lat="39.55895988398342" lon="8.884700656570299"><ele>118.33333333333333</ele><time>2026-04-18T09:02:53Z</time></trkpt><trkpt lat="39.55894418794805" lon="8.88443781610289"><ele>119.0</ele><time>2026-04-18T09:02:54Z</time></trkpt><trkpt lat="39.55892675654688" lon="8.88417201997356"><ele>119.66666666666666</ele><time>2026-04-18T09:02:55Z</time></trkpt><trkpt lat="39.5589033750026" lon="8.883906081275574"><ele>120.33333333333334</ele><time>2026-04-18T09:02:56Z</time></trkpt><trkpt lat="39.55887132060667" lon="8.8836418840386"><ele>121.0</ele><time>2026-04-18T09:02:57Z</time></trkpt><trkpt lat="39.558826377799846" lon="8.883375381300686"><ele>121.33333333333334</ele><time>2026-04-18T09:02:58Z</time></trkpt><trkpt lat="39.55877497159523" lon="8.883102757549713"><ele>121.66666666666666</ele><time>2026-04-18T09:02:59Z</time></trkpt><trkpt lat="39.55872031878945" lon="8.882828547523106"><ele>122.0</ele><time>2026-04-18T09:03:00Z</time></trkpt><trkpt lat="39.55865860177547" lon="8.88255384618258"><ele>121.33333333333333</ele><time>2026-04-18T09:03:01Z</time></trkpt><trkpt lat="39.55859490572195" lon="8.882281269798652"><ele>120.66666666666666</ele><time>2026-04-18T09:03:02Z</time></trkpt><trkpt lat="39.55853348999396" lon="8.882006912424696"><ele>120.0</ele><time>2026-04-18T09:03:03Z</time></trkpt><trkpt lat="39.5584728409422" lon="8.881729379523119"><ele>120.0</ele><time>2026-04-18T09:03:04Z</time></trkpt><trkpt lat="39.5584108043777" lon="8.88145178734528"><ele>120.0</ele><time>2026-04-18T09:03:05Z</time></trkpt><trkpt lat="39.55834963987187" lon="8.881168659796414"><ele>120.0</ele><time>2026-04-18T09:03:06Z</time></trkpt><trkpt lat="39.558289266445804" lon="8.8808901756607"><ele>119.0</ele><time>2026-04-18T09:03:07Z</time></trkpt><trkpt lat="39.558232640265906" lon="8.880607196950534"><ele>118.0</ele><time>2026-04-18T09:03:08Z</time></trkpt><trkpt lat="39.55817504273192" lon="8.88032224118803"><ele>117.5</ele><time>2026-04-18T09:03:09Z</time></trkpt><trkpt lat="39.55811142253241" lon="8.880036637693992"><ele>117.0</ele><time>2026-04-18T09:03:10Z</time></trkpt><trkpt lat="39.55804658032465" lon="8.879750000262197"><ele>117.0</ele><time>2026-04-18T09:03:11Z</time></trkpt><trkpt lat="39.55797889595112" lon="8.879463820103956"><ele>117.0</ele><time>2026-04-18T09:03:12Z</time></trkpt><trkpt lat="39.557911954301495" lon="8.879181789507863"><ele>118.0</ele><time>2026-04-18T09:03:13Z</time></trkpt><trkpt lat="39.55784947487791" lon="8.87889818561688"><ele>119.0</ele><time>2026-04-18T09:03:14Z</time></trkpt><trkpt lat="39.55778341139283" lon="8.878608060178946"><ele>118.5</ele><time>2026-04-18T09:03:15Z</time></trkpt><trkpt lat="39.5577206892067" lon="8.87832025962309"><ele>118.0</ele><time>2026-04-18T09:03:16Z</time></trkpt><trkpt lat="39.557656182673966" lon="8.878029232196397"><ele>118.0</ele><time>2026-04-18T09:03:17Z</time></trkpt><trkpt lat="39.55759217557411" lon="8.877736353953743"><ele>118.0</ele><time>2026-04-18T09:03:18Z</time></trkpt><trkpt lat="39.557527306602374" lon="8.877444849798136"><ele>117.5</ele><time>2026-04-18T09:03:19Z</time></trkpt><trkpt lat="39.557462777307585" lon="8.877153341565123"><ele>117.0</ele><time>2026-04-18T09:03:20Z</time></trkpt><trkpt lat="39.557395921217264" lon="8.876860643170787"><ele>116.0</ele><time>2026-04-18T09:03:21Z</time></trkpt><trkpt lat="39.55734499384672" lon="8.876565294560738"><ele>115.0</ele><time>2026-04-18T09:03:22Z</time></trkpt><trkpt lat="39.55728245166673" lon="8.876273913629623"><ele>115.0</ele><time>2026-04-18T09:03:23Z</time></trkpt><trkpt lat="39.55719589302759" lon="8.875991674169722"><ele>115.0</ele><time>2026-04-18T09:03:24Z</time></trkpt><trkpt lat="39.557134574541664" lon="8.875700883366862"><ele>115.0</ele><time>2026-04-18T09:03:25Z</time></trkpt><trkpt lat="39.557074491903464" lon="8.8754120129487"><ele>115.0</ele><time>2026-04-18T09:03:26Z</time></trkpt><trkpt lat="39.55701146192476" lon="8.87511946915852"><ele>113.5</ele><time>2026-04-18T09:03:27Z</time></trkpt><trkpt lat="39.55694911326589" lon="8.874828825234122"><ele>112.0</ele><time>2026-04-18T09:03:28Z</time></trkpt><trkpt lat="39.55688559776458" lon="8.874537412318878"><ele>111.0</ele><time>2026-04-18T09:03:29Z</time></trkpt><trkpt lat="39.55682330207756" lon="8.874244956413175"><ele>110.0</ele><time>2026-04-18T09:03:30Z</time></trkpt><trkpt lat="39.55676037086778" lon="8.873953106875527"><ele>110.0</ele><time>2026-04-18T09:03:31Z</time></trkpt><trkpt lat="39.55669725918132" lon="8.873660808335739"><ele>110.0</ele><time>2026-04-18T09:03:32Z</time></trkpt><trkpt lat="39.556632319263116" lon="8.873368706360733"><ele>110.0</ele><time>2026-04-18T09:03:33Z</time></trkpt><trkpt lat="39.556567521924826" lon="8.873077428121178"><ele>110.0</ele><time>2026-04-18T09:03:34Z</time></trkpt><trkpt lat="39.55650516194721" lon="8.872786921494196"><ele>109.5</ele><time>2026-04-18T09:03:35Z</time></trkpt><trkpt lat="39.556443702079356" lon="8.872495072165455"><ele>109.0</ele><time>2026-04-18T09:03:36Z</time></trkpt><trkpt lat="39.55638157536088" lon="8.872200611406788"><ele>109.0</ele><time>2026-04-18T09:03:37Z</time></trkpt><trkpt lat="39.55631758649584" lon="8.871906407431416"><ele>109.0</ele><time>2026-04-18T09:03:38Z</time></trkpt><trkpt lat="39.55625167527019" lon="8.871609896265674"><ele>107.5</ele><time>2026-04-18T09:03:39Z</time></trkpt><trkpt lat="39.55618619221856" lon="8.871314549541482"><ele>106.0</ele><time>2026-04-18T09:03:40Z</time></trkpt><trkpt lat="39.55612137075589" lon="8.871016300511723"><ele>104.5</ele><time>2026-04-18T09:03:41Z</time></trkpt><trkpt lat="39.55605703191114" lon="8.870715859112819"><ele>103.0</ele><time>2026-04-18T09:03:42Z</time></trkpt><trkpt lat="39.55599248593704" lon="8.870412957732515"><ele>103.0</ele><time>2026-04-18T09:03:43Z</time></trkpt><trkpt lat="39.55592770212845" lon="8.870109810745861"><ele>103.0</ele><time>2026-04-18T09:03:44Z</time></trkpt><trkpt lat="39.555861932774114" lon="8.869806099609159"><ele>103.0</ele><time>2026-04-18T09:03:45Z</time></trkpt><trkpt lat="39.555797162027815" lon="8.869504333224961"><ele>103.0</ele><time>2026-04-18T09:03:46Z</time></trkpt><trkpt lat="39.55573381411745" lon="8.869203515100518"><ele>102.5</ele><time>2026-04-18T09:03:47Z</time></trkpt><trkpt lat="39.555669726848855" lon="8.86890081814783"><ele>102.0</ele><time>2026-04-18T09:03:48Z</time></trkpt><trkpt lat="39.555603734105816" lon="8.868594542216968"><ele>101.5</ele><time>2026-04-18T09:03:49Z</time></trkpt><trkpt lat="39.55553773835171" lon="8.868286716441817"><ele>101.0</ele><time>2026-04-18T09:03:50Z</time></trkpt><trkpt lat="39.55547020887959" lon="8.867976601196153"><ele>101.0</ele><time>2026-04-18T09:03:51Z</time></trkpt><trkpt lat="39.5554020997995" lon="8.867665906654116"><ele>101.0</ele><time>2026-04-18T09:03:52Z</time></trkpt><trkpt lat="39.55533288850633" lon="8.867350916261294"><ele>100.5</ele><time>2026-04-18T09:03:53Z</time></trkpt><trkpt lat="39.55526581950125" lon="8.867037970331657"><ele>100.0</ele><time>2026-04-18T09:03:54Z</time></trkpt><trkpt lat="39.55519847130172" lon="8.866716151929785"><ele>100.0</ele><time>2026-04-18T09:03:55Z</time></trkpt><trkpt lat="39.5551324925819" lon="8.866400142441663"><ele>100.0</ele><time>2026-04-18T09:03:56Z</time></trkpt><trkpt lat="39.55506511054467" lon="8.866081155633232"><ele>100.0</ele><time>2026-04-18T09:03:57Z</time></trkpt><trkpt lat="39.55499554248002" lon="8.865762078338326"><ele>100.0</ele><time>2026-04-18T09:03:58Z</time></trkpt><trkpt lat="39.554927740119936" lon="8.86544602830646"><ele>100.0</ele><time>2026-04-18T09:03:59Z</time></trkpt><trkpt lat="39.55485790821892" lon="8.865128165917184"><ele>100.0</ele><time>2026-04-18T09:04:00Z</time></trkpt><trkpt lat="39.55478728705667" lon="8.86480010033261"><ele>100.0</ele><time>2026-04-18T09:04:01Z</time></trkpt><trkpt lat="39.554722399863095" lon="8.864499666726287"><ele>100.0</ele><time>2026-04-18T09:04:02Z</time></trkpt><trkpt lat="39.55465250366808" lon="8.864185962843699"><ele>100.0</ele><time>2026-04-18T09:04:03Z</time></trkpt><trkpt lat="39.554583673517314" lon="8.863877646141948"><ele>100.0</ele><time>2026-04-18T09:04:04Z</time></trkpt><trkpt lat="39.554516957012396" lon="8.863568167229829"><ele>99.0</ele><time>2026-04-18T09:04:05Z</time></trkpt><trkpt lat="39.55444564876833" lon="8.86326333102586"><ele>98.0</ele><time>2026-04-18T09:04:06Z</time></trkpt><trkpt lat="39.55438643774488" lon="8.862958591047668"><ele>98.0</ele><time>2026-04-18T09:04:07Z</time></trkpt><trkpt lat="39.554318663920135" lon="8.862655946918762"><ele>98.0</ele><time>2026-04-18T09:04:08Z</time></trkpt><trkpt lat="39.554255397677075" lon="8.862353601141942"><ele>98.0</ele><time>2026-04-18T09:04:09Z</time></trkpt><trkpt lat="39.55419159288175" lon="8.862053523601798"><ele>98.0</ele><time>2026-04-18T09:04:10Z</time></trkpt><trkpt lat="39.554126594530146" lon="8.861756264366393"><ele>99.0</ele><time>2026-04-18T09:04:11Z</time></trkpt><trkpt lat="39.55406247009452" lon="8.86146026890031"><ele>100.0</ele><time>2026-04-18T09:04:12Z</time></trkpt><trkpt lat="39.55400361340059" lon="8.861164638335257"><ele>100.5</ele><time>2026-04-18T09:04:13Z</time></trkpt><trkpt lat="39.553955798536684" lon="8.860869208067033"><ele>101.0</ele><time>2026-04-18T09:04:14Z</time></trkpt><trkpt lat="39.5539151329214" lon="8.860569734497464"><ele>101.0</ele><time>2026-04-18T09:04:15Z</time></trkpt><trkpt lat="39.55388026161561" lon="8.860269221848748"><ele>101.0</ele><time>2026-04-18T09:04:16Z</time></trkpt><trkpt lat="39.55385080351816" lon="8.859966393902635"><ele>100.5</ele><time>2026-04-18T09:04:17Z</time></trkpt><trkpt lat="39.55382606092531" lon="8.8596653613279"><ele>100.0</ele><time>2026-04-18T09:04:18Z</time></trkpt><trkpt lat="39.553800029604794" lon="8.85936138455084"><ele>99.0</ele><time>2026-04-18T09:04:19Z</time></trkpt><trkpt lat="39.55377490333408" lon="8.859056773012831"><ele>98.0</ele><time>2026-04-18T09:04:20Z</time></trkpt><trkpt lat="39.553748871977376" lon="8.85875345552272"><ele>98.0</ele><time>2026-04-18T09:04:21Z</time></trkpt><trkpt lat="39.55372466531339" lon="8.85845382898743"><ele>98.0</ele><time>2026-04-18T09:04:22Z</time></trkpt><trkpt lat="39.55370101267385" lon="8.858151841908448"><ele>96.5</ele><time>2026-04-18T09:04:23Z</time></trkpt><trkpt lat="39.55367633392307" lon="8.857864775094653"><ele>95.0</ele><time>2026-04-18T09:04:24Z</time></trkpt><trkpt lat="39.553650491855464" lon="8.857553475424837"><ele>94.5</ele><time>2026-04-18T09:04:25Z</time></trkpt><trkpt lat="39.553624595483896" lon="8.857261970001794"><ele>94.0</ele><time>2026-04-18T09:04:26Z</time></trkpt><trkpt lat="39.55359894076567" lon="8.85696728759344"><ele>93.5</ele><time>2026-04-18T09:04:27Z</time></trkpt><trkpt lat="39.5535714566862" lon="8.856672677882404"><ele>93.0</ele><time>2026-04-18T09:04:28Z</time></trkpt><trkpt lat="39.55354688734293" lon="8.856381612032147"><ele>93.0</ele><time>2026-04-18T09:04:29Z</time></trkpt><trkpt lat="39.55352019681841" lon="8.856090313685929"><ele>93.0</ele><time>2026-04-18T09:04:30Z</time></trkpt><trkpt lat="39.55349613436986" lon="8.855800951399875"><ele>92.0</ele><time>2026-04-18T09:04:31Z</time></trkpt><trkpt lat="39.553471925123986" lon="8.855511834624819"><ele>91.0</ele><time>2026-04-18T09:04:32Z</time></trkpt><trkpt lat="39.553447788718294" lon="8.855224449841177"><ele>90.0</ele><time>2026-04-18T09:04:33Z</time></trkpt><trkpt lat="39.55342148692325" lon="8.854936166194342"><ele>89.66666666666667</ele><time>2026-04-18T09:04:34Z</time></trkpt><trkpt lat="39.55339647535153" lon="8.854646234986333"><ele>89.33333333333334</ele><time>2026-04-18T09:04:35Z</time></trkpt><trkpt lat="39.553369852925144" lon="8.854357636026577"><ele>89.0</ele><time>2026-04-18T09:04:36Z</time></trkpt><trkpt lat="39.55334676238005" lon="8.854069326318568"><ele>89.0</ele><time>2026-04-18T09:04:37Z</time></trkpt><trkpt lat="39.553325406058896" lon="8.853780284953901"><ele>89.0</ele><time>2026-04-18T09:04:38Z</time></trkpt><trkpt lat="39.55329935566145" lon="8.853485436591145"><ele>89.5</ele><time>2026-04-18T09:04:39Z</time></trkpt><trkpt lat="39.553274363100805" lon="8.853190947909066"><ele>90.0</ele><time>2026-04-18T09:04:40Z</time></trkpt><trkpt lat="39.55325135595934" lon="8.852896055280889"><ele>90.0</ele><time>2026-04-18T09:04:41Z</time></trkpt><trkpt lat="39.553224120847766" lon="8.852599114930708"><ele>90.0</ele><time>2026-04-18T09:04:42Z</time></trkpt><trkpt lat="39.55319492425626" lon="8.852300816339929"><ele>90.0</ele><time>2026-04-18T09:04:43Z</time></trkpt><trkpt lat="39.553184154537064" lon="8.851998476693614"><ele>90.0</ele><time>2026-04-18T09:04:44Z</time></trkpt><trkpt lat="39.553158382929084" lon="8.85169537005642"><ele>89.5</ele><time>2026-04-18T09:04:45Z</time></trkpt><trkpt lat="39.553120594810856" lon="8.851393484495478"><ele>89.0</ele><time>2026-04-18T09:04:46Z</time></trkpt><trkpt lat="39.55309677478415" lon="8.851083578118075"><ele>89.5</ele><time>2026-04-18T09:04:47Z</time></trkpt><trkpt lat="39.553072091604676" lon="8.850773919487137"><ele>90.0</ele><time>2026-04-18T09:04:48Z</time></trkpt><trkpt lat="39.55304520772999" lon="8.850466678945576"><ele>90.0</ele><time>2026-04-18T09:04:49Z</time></trkpt><trkpt lat="39.55301746109913" lon="8.850155430896566"><ele>90.0</ele><time>2026-04-18T09:04:50Z</time></trkpt><trkpt lat="39.55298935150345" lon="8.849843086423302"><ele>90.0</ele><time>2026-04-18T09:04:51Z</time></trkpt><trkpt lat="39.55296138447919" lon="8.849529685292481"><ele>90.0</ele><time>2026-04-18T09:04:52Z</time></trkpt><trkpt lat="39.55293600519163" lon="8.849217852182027"><ele>90.0</ele><time>2026-04-18T09:04:53Z</time></trkpt><trkpt lat="39.55291094987935" lon="8.848907069034784"><ele>90.0</ele><time>2026-04-18T09:04:54Z</time></trkpt><trkpt lat="39.55288492387448" lon="8.848594704251257"><ele>88.0</ele><time>2026-04-18T09:04:55Z</time></trkpt><trkpt lat="39.55286093000922" lon="8.848286562015767"><ele>86.0</ele><time>2026-04-18T09:04:56Z</time></trkpt><trkpt lat="39.55283140566176" lon="8.847972021110051"><ele>86.0</ele><time>2026-04-18T09:04:57Z</time></trkpt><trkpt lat="39.552804090154844" lon="8.847656633958763"><ele>86.0</ele><time>2026-04-18T09:04:58Z</time></trkpt><trkpt lat="39.552776151010995" lon="8.847344114834852"><ele>86.0</ele><time>2026-04-18T09:04:59Z</time></trkpt><trkpt lat="39.55274653522545" lon="8.847029358713781"><ele>86.0</ele><time>2026-04-18T09:05:00Z</time></trkpt><trkpt lat="39.55272133719627" lon="8.846716191589616"><ele>86.0</ele><time>2026-04-18T09:05:01Z</time></trkpt><trkpt lat="39.5526964435656" lon="8.846399156846559"><ele>86.0</ele><time>2026-04-18T09:05:02Z</time></trkpt><trkpt lat="39.55267028694931" lon="8.846079056397526"><ele>85.5</ele><time>2026-04-18T09:05:03Z</time></trkpt><trkpt lat="39.552642592251814" lon="8.845760466278172"><ele>85.0</ele><time>2026-04-18T09:05:04Z</time></trkpt><trkpt lat="39.552615897183244" lon="8.845439444729783"><ele>85.0</ele><time>2026-04-18T09:05:05Z</time></trkpt><trkpt lat="39.55259006653349" lon="8.845116413568793"><ele>85.0</ele><time>2026-04-18T09:05:06Z</time></trkpt><trkpt lat="39.55256513274088" lon="8.844793498177319"><ele>85.0</ele><time>2026-04-18T09:05:07Z</time></trkpt><trkpt lat="39.55253669250105" lon="8.844466430653087"><ele>85.0</ele><time>2026-04-18T09:05:08Z</time></trkpt><trkpt lat="39.552508500875525" lon="8.8441431166335"><ele>85.5</ele><time>2026-04-18T09:05:09Z</time></trkpt><trkpt lat="39.55247782224803" lon="8.843813564355031"><ele>86.0</ele><time>2026-04-18T09:05:10Z</time></trkpt><trkpt lat="39.55245027590923" lon="8.843490967653368"><ele>85.0</ele><time>2026-04-18T09:05:11Z</time></trkpt><trkpt lat="39.552425219567645" lon="8.843167129960712"><ele>84.0</ele><time>2026-04-18T09:05:12Z</time></trkpt><trkpt lat="39.55239769030064" lon="8.842841833807393"><ele>83.0</ele><time>2026-04-18T09:05:13Z</time></trkpt><trkpt lat="39.55236980195386" lon="8.842514561349118"><ele>82.0</ele><time>2026-04-18T09:05:14Z</time></trkpt><trkpt lat="39.552342014868074" lon="8.84218528382547"><ele>82.0</ele><time>2026-04-18T09:05:15Z</time></trkpt><trkpt lat="39.552313744742676" lon="8.841854913946973"><ele>82.0</ele><time>2026-04-18T09:05:16Z</time></trkpt><trkpt lat="39.55228735693629" lon="8.841524368729537"><ele>83.5</ele><time>2026-04-18T09:05:17Z</time></trkpt><trkpt lat="39.55225887852271" lon="8.841193930102234"><ele>85.0</ele><time>2026-04-18T09:05:18Z</time></trkpt><trkpt lat="39.55223005403721" lon="8.840862885271747"><ele>85.0</ele><time>2026-04-18T09:05:19Z</time></trkpt><trkpt lat="39.55220072419288" lon="8.840529760264989"><ele>85.0</ele><time>2026-04-18T09:05:20Z</time></trkpt><trkpt lat="39.55217125573698" lon="8.840195600886451"><ele>84.0</ele><time>2026-04-18T09:05:21Z</time></trkpt><trkpt lat="39.55215038505858" lon="8.839868067773862"><ele>83.0</ele><time>2026-04-18T09:05:22Z</time></trkpt><trkpt lat="39.55212248676344" lon="8.839539677477678"><ele>83.0</ele><time>2026-04-18T09:05:23Z</time></trkpt><trkpt lat="39.55209384676387" lon="8.839211494983337"><ele>83.0</ele><time>2026-04-18T09:05:24Z</time></trkpt><trkpt lat="39.55206366115791" lon="8.838884248430775"><ele>82.5</ele><time>2026-04-18T09:05:25Z</time></trkpt><trkpt lat="39.55203290213149" lon="8.838558711595775"><ele>82.0</ele><time>2026-04-18T09:05:26Z</time></trkpt><trkpt lat="39.55200541779539" lon="8.838234336072418"><ele>82.0</ele><time>2026-04-18T09:05:27Z</time></trkpt><trkpt lat="39.55197852479646" lon="8.837908257149923"><ele>82.0</ele><time>2026-04-18T09:05:28Z</time></trkpt><trkpt lat="39.551948699401805" lon="8.83758033153901"><ele>81.5</ele><time>2026-04-18T09:05:29Z</time></trkpt><trkpt lat="39.551920308059756" lon="8.837254733095403"><ele>81.0</ele><time>2026-04-18T09:05:30Z</time></trkpt><trkpt lat="39.551890333871484" lon="8.836930048258836"><ele>81.0</ele><time>2026-04-18T09:05:31Z</time></trkpt><trkpt lat="39.55186356625353" lon="8.83660144902643"><ele>81.0</ele><time>2026-04-18T09:05:32Z</time></trkpt><trkpt lat="39.551837844592406" lon="8.836271856961787"><ele>80.5</ele><time>2026-04-18T09:05:33Z</time></trkpt><trkpt lat="39.55180786921446" lon="8.83593579668421"><ele>80.0</ele><time>2026-04-18T09:05:34Z</time></trkpt><trkpt lat="39.55177776371769" lon="8.835598410637628"><ele>80.0</ele><time>2026-04-18T09:05:35Z</time></trkpt><trkpt lat="39.55174952565113" lon="8.835258472741321"><ele>80.0</ele><time>2026-04-18T09:05:36Z</time></trkpt><trkpt lat="39.55172379089273" lon="8.834915880136014"><ele>79.5</ele><time>2026-04-18T09:05:37Z</time></trkpt><trkpt lat="39.55169558420001" lon="8.834571606920939"><ele>79.0</ele><time>2026-04-18T09:05:38Z</time></trkpt><trkpt lat="39.55166342851751" lon="8.834232925725805"><ele>78.5</ele><time>2026-04-18T09:05:39Z</time></trkpt><trkpt lat="39.55163247822991" lon="8.83389635318693"><ele>78.0</ele><time>2026-04-18T09:05:40Z</time></trkpt><trkpt lat="39.551603191752015" lon="8.833559356350033"><ele>77.0</ele><time>2026-04-18T09:05:41Z</time></trkpt><trkpt lat="39.55157428323456" lon="8.833228671921916"><ele>76.0</ele><time>2026-04-18T09:05:42Z</time></trkpt><trkpt lat="39.55154552553478" lon="8.832901333031128"><ele>76.0</ele><time>2026-04-18T09:05:43Z</time></trkpt><trkpt lat="39.55151710636434" lon="8.832577138140305"><ele>76.0</ele><time>2026-04-18T09:05:44Z</time></trkpt><trkpt lat="39.551490389470466" lon="8.832248834245068"><ele>76.0</ele><time>2026-04-18T09:05:45Z</time></trkpt><trkpt lat="39.55146282687093" lon="8.831923968931736"><ele>76.0</ele><time>2026-04-18T09:05:46Z</time></trkpt><trkpt lat="39.55143550777801" lon="8.831600224817857"><ele>76.0</ele><time>2026-04-18T09:05:47Z</time></trkpt><trkpt lat="39.551406997354995" lon="8.831271430029572"><ele>76.0</ele><time>2026-04-18T09:05:48Z</time></trkpt><trkpt lat="39.55138101017469" lon="8.830949316140623"><ele>74.5</ele><time>2026-04-18T09:05:49Z</time></trkpt><trkpt lat="39.5513561763793" lon="8.830624469804643"><ele>73.0</ele><time>2026-04-18T09:05:50Z</time></trkpt><trkpt lat="39.55132859754917" lon="8.830300127859644"><ele>73.0</ele><time>2026-04-18T09:05:51Z</time></trkpt><trkpt lat="39.55129773840047" lon="8.829970517092573"><ele>73.0</ele><time>2026-04-18T09:05:52Z</time></trkpt><trkpt lat="39.55127046264758" lon="8.829639611263701"><ele>73.5</ele><time>2026-04-18T09:05:53Z</time></trkpt><trkpt lat="39.551244018608195" lon="8.82930811256724"><ele>74.0</ele><time>2026-04-18T09:05:54Z</time></trkpt><trkpt lat="39.5512153376015" lon="8.828972713039587"><ele>74.0</ele><time>2026-04-18T09:05:55Z</time></trkpt><trkpt lat="39.55118722119347" lon="8.828633954994753"><ele>74.0</ele><time>2026-04-18T09:05:56Z</time></trkpt><trkpt lat="39.55115836177364" lon="8.828295075498943"><ele>73.5</ele><time>2026-04-18T09:05:57Z</time></trkpt><trkpt lat="39.551129678254966" lon="8.82795348763014"><ele>73.0</ele><time>2026-04-18T09:05:58Z</time></trkpt><trkpt lat="39.55109957920204" lon="8.827612576258252"><ele>72.0</ele><time>2026-04-18T09:05:59Z</time></trkpt><trkpt lat="39.55107035272842" lon="8.827275685099092"><ele>71.0</ele><time>2026-04-18T09:06:00Z</time></trkpt><trkpt lat="39.55104182741026" lon="8.8269509279671"><ele>70.5</ele><time>2026-04-18T09:06:01Z</time></trkpt><trkpt lat="39.55101309771817" lon="8.826641820566481"><ele>70.0</ele><time>2026-04-18T09:06:02Z</time></trkpt><trkpt lat="39.550987637428584" lon="8.826344640394334"><ele>70.0</ele><time>2026-04-18T09:06:03Z</time></trkpt><trkpt lat="39.55096319920921" lon="8.826052524732399"><ele>70.0</ele><time>2026-04-18T09:06:04Z</time></trkpt><trkpt lat="39.55094098372874" lon="8.825761815733511"><ele>70.0</ele><time>2026-04-18T09:06:05Z</time></trkpt><trkpt lat="39.550917559055776" lon="8.825481198316993"><ele>70.0</ele><time>2026-04-18T09:06:06Z</time></trkpt><trkpt lat="39.55089511745285" lon="8.825205169838567"><ele>70.0</ele><time>2026-04-18T09:06:07Z</time></trkpt><trkpt lat="39.55087295972665" lon="8.824928958882964"><ele>70.33333333333333</ele><time>2026-04-18T09:06:08Z</time></trkpt><trkpt lat="39.5508500293986" lon="8.824660093796064"><ele>70.66666666666667</ele><time>2026-04-18T09:06:09Z</time></trkpt><trkpt lat="39.55082793345573" lon="8.82438612864369"><ele>71.0</ele><time>2026-04-18T09:06:10Z</time></trkpt><trkpt lat="39.550805830682364" lon="8.82411077708149"><ele>70.33333333333334</ele><time>2026-04-18T09:06:11Z</time></trkpt><trkpt lat="39.55077979972891" lon="8.823837904263083"><ele>69.66666666666667</ele><time>2026-04-18T09:06:12Z</time></trkpt><trkpt lat="39.55075392064309" lon="8.823566169166966"><ele>69.0</ele><time>2026-04-18T09:06:13Z</time></trkpt><trkpt lat="39.55072891579279" lon="8.82329116517611"><ele>69.0</ele><time>2026-04-18T09:06:14Z</time></trkpt><trkpt lat="39.55070507994565" lon="8.823015926482032"><ele>69.0</ele><time>2026-04-18T09:06:15Z</time></trkpt><trkpt lat="39.550683333437114" lon="8.822741365919429"><ele>69.0</ele><time>2026-04-18T09:06:16Z</time></trkpt><trkpt lat="39.550661322313665" lon="8.822465151813283"><ele>69.0</ele><time>2026-04-18T09:06:17Z</time></trkpt><trkpt lat="39.55063846867174" lon="8.822186339373705"><ele>69.0</ele><time>2026-04-18T09:06:18Z</time></trkpt><trkpt lat="39.55061543355737" lon="8.821910271302025"><ele>69.0</ele><time>2026-04-18T09:06:19Z</time></trkpt><trkpt lat="39.55059112694244" lon="8.821632816469384"><ele>69.0</ele><time>2026-04-18T09:06:20Z</time></trkpt><trkpt lat="39.550567601676164" lon="8.821357610197586"><ele>69.0</ele><time>2026-04-18T09:06:21Z</time></trkpt><trkpt lat="39.55054436762817" lon="8.821080179085683"><ele>69.0</ele><time>2026-04-18T09:06:22Z</time></trkpt><trkpt lat="39.55052137648763" lon="8.820803189524014"><ele>69.0</ele><time>2026-04-18T09:06:23Z</time></trkpt><trkpt lat="39.550497702347066" lon="8.820526763213714"><ele>69.0</ele><time>2026-04-18T09:06:24Z</time></trkpt><trkpt lat="39.550472663010346" lon="8.820252828080045"><ele>69.0</ele><time>2026-04-18T09:06:25Z</time></trkpt><trkpt lat="39.55044697225903" lon="8.819977263836602"><ele>68.66666666666667</ele><time>2026-04-18T09:06:26Z</time></trkpt><trkpt lat="39.55042272267489" lon="8.819703364559365"><ele>68.33333333333334</ele><time>2026-04-18T09:06:27Z</time></trkpt><trkpt lat="39.5503985674982" lon="8.819431562734383"><ele>68.0</ele><time>2026-04-18T09:06:28Z</time></trkpt><trkpt lat="39.55037403360148" lon="8.819158835367228"><ele>67.66666666666667</ele><time>2026-04-18T09:06:29Z</time></trkpt><trkpt lat="39.55034860681841" lon="8.81888873713697"><ele>67.33333333333333</ele><time>2026-04-18T09:06:30Z</time></trkpt><trkpt lat="39.55032306676599" lon="8.818616611233411"><ele>67.0</ele><time>2026-04-18T09:06:31Z</time></trkpt><trkpt lat="39.550302705138435" lon="8.818346869858347"><ele>67.0</ele><time>2026-04-18T09:06:32Z</time></trkpt><trkpt lat="39.5502816256086" lon="8.818079001779873"><ele>67.0</ele><time>2026-04-18T09:06:33Z</time></trkpt><trkpt lat="39.55025932094589" lon="8.81780848094495"><ele>67.0</ele><time>2026-04-18T09:06:34Z</time></trkpt><trkpt lat="39.55023482584134" lon="8.817541408053614"><ele>67.0</ele><time>2026-04-18T09:06:35Z</time></trkpt><trkpt lat="39.55021193390779" lon="8.817272277900885"><ele>67.0</ele><time>2026-04-18T09:06:36Z</time></trkpt><trkpt lat="39.55018981525399" lon="8.817003431130683"><ele>67.0</ele><time>2026-04-18T09:06:37Z</time></trkpt><trkpt lat="39.55016641066994" lon="8.816737613402298"><ele>66.66666666666666</ele><time>2026-04-18T09:06:38Z</time></trkpt><trkpt lat="39.55014197559194" lon="8.816468414288911"><ele>66.33333333333333</ele><time>2026-04-18T09:06:39Z</time></trkpt><trkpt lat="39.55012086764938" lon="8.816199776869576"><ele>66.0</ele><time>2026-04-18T09:06:40Z</time></trkpt><trkpt lat="39.550101584185725" lon="8.815928312937988"><ele>66.0</ele><time>2026-04-18T09:06:41Z</time></trkpt><trkpt lat="39.550083335398924" lon="8.815656054442007"><ele>66.0</ele><time>2026-04-18T09:06:42Z</time></trkpt><trkpt lat="39.550067100800746" lon="8.815385988947265"><ele>66.0</ele><time>2026-04-18T09:06:43Z</time></trkpt><trkpt lat="39.550047416894984" lon="8.815112075773305"><ele>66.33333333333333</ele><time>2026-04-18T09:06:44Z</time></trkpt><trkpt lat="39.55002704943637" lon="8.814840385485725"><ele>66.66666666666666</ele><time>2026-04-18T09:06:45Z</time></trkpt><trkpt lat="39.55000515254714" lon="8.814570108835149"><ele>67.0</ele><time>2026-04-18T09:06:46Z</time></trkpt><trkpt lat="39.549980733262046" lon="8.814300202193564"><ele>66.33333333333333</ele><time>2026-04-18T09:06:47Z</time></trkpt><trkpt lat="39.549953388149355" lon="8.814030323224358"><ele>65.66666666666667</ele><time>2026-04-18T09:06:48Z</time></trkpt><trkpt lat="39.549925684752786" lon="8.813763926789314"><ele>65.0</ele><time>2026-04-18T09:06:49Z</time></trkpt><trkpt lat="39.549896858182734" lon="8.813498285687803"><ele>65.0</ele><time>2026-04-18T09:06:50Z</time></trkpt><trkpt lat="39.54986884967166" lon="8.813235379186453"><ele>65.0</ele><time>2026-04-18T09:06:51Z</time></trkpt><trkpt lat="39.54984324355196" lon="8.812975426729974"><ele>65.0</ele><time>2026-04-18T09:06:52Z</time></trkpt><trkpt lat="39.5498176197625" lon="8.812714413665969"><ele>65.33333333333334</ele><time>2026-04-18T09:06:53Z</time></trkpt><trkpt lat="39.54979429536602" lon="8.812454881885175"><ele>65.66666666666667</ele><time>2026-04-18T09:06:54Z</time></trkpt><trkpt lat="39.54976948352938" lon="8.812193004825154"><ele>66.0</ele><time>2026-04-18T09:06:55Z</time></trkpt><trkpt lat="39.54974657943307" lon="8.811930554763821"><ele>65.33333333333333</ele><time>2026-04-18T09:06:56Z</time></trkpt><trkpt lat="39.54972166905881" lon="8.811664678300502"><ele>64.66666666666666</ele><time>2026-04-18T09:06:57Z</time></trkpt><trkpt lat="39.54969750728523" lon="8.811397228691986"><ele>64.0</ele><time>2026-04-18T09:06:58Z</time></trkpt><trkpt lat="39.54967316560549" lon="8.811122764653327"><ele>63.666666666666664</ele><time>2026-04-18T09:06:59Z</time></trkpt><trkpt lat="39.54964957370518" lon="8.810852351323934"><ele>63.33333333333333</ele><time>2026-04-18T09:07:00Z</time></trkpt><trkpt lat="39.54962798668393" lon="8.810577452432986"><ele>63.0</ele><time>2026-04-18T09:07:01Z</time></trkpt><trkpt lat="39.54960376842125" lon="8.810301527714369"><ele>63.0</ele><time>2026-04-18T09:07:02Z</time></trkpt><trkpt lat="39.549578412811734" lon="8.81002344642806"><ele>63.0</ele><time>2026-04-18T09:07:03Z</time></trkpt><trkpt lat="39.549555082492006" lon="8.809744726536822"><ele>63.0</ele><time>2026-04-18T09:07:04Z</time></trkpt><trkpt lat="39.549532112224284" lon="8.809466115659715"><ele>63.0</ele><time>2026-04-18T09:07:05Z</time></trkpt><trkpt lat="39.549508494379275" lon="8.809189226235365"><ele>63.0</ele><time>2026-04-18T09:07:06Z</time></trkpt><trkpt lat="39.54948361352221" lon="8.808914274449616"><ele>63.0</ele><time>2026-04-18T09:07:07Z</time></trkpt><trkpt lat="39.54945718453038" lon="8.80864453968473"><ele>63.0</ele><time>2026-04-18T09:07:08Z</time></trkpt><trkpt lat="39.54943075391516" lon="8.808382700289307"><ele>63.0</ele><time>2026-04-18T09:07:09Z</time></trkpt><trkpt lat="39.54941285305493" lon="8.808127320300233"><ele>63.0</ele><time>2026-04-18T09:07:10Z</time></trkpt><trkpt lat="39.549386952889506" lon="8.80787771012538"><ele>62.66666666666667</ele><time>2026-04-18T09:07:11Z</time></trkpt><trkpt lat="39.54937015860504" lon="8.807635064138125"><ele>62.333333333333336</ele><time>2026-04-18T09:07:12Z</time></trkpt><trkpt lat="39.54934909925017" lon="8.80739346982958"><ele>62.0</ele><time>2026-04-18T09:07:13Z</time></trkpt><trkpt lat="39.5493267646014" lon="8.807160292400605"><ele>62.0</ele><time>2026-04-18T09:07:14Z</time></trkpt><trkpt lat="39.54930505079315" lon="8.80692849048215"><ele>62.0</ele><time>2026-04-18T09:07:15Z</time></trkpt><trkpt lat="39.54928646644737" lon="8.806707174236811"><ele>62.0</ele><time>2026-04-18T09:07:16Z</time></trkpt><trkpt lat="39.549266880302284" lon="8.806498321465162"><ele>62.0</ele><time>2026-04-18T09:07:17Z</time></trkpt><trkpt lat="39.54924746611581" lon="8.80630594422605"><ele>62.0</ele><time>2026-04-18T09:07:18Z</time></trkpt><trkpt lat="39.54923477656018" lon="8.806122998055574"><ele>62.0</ele><time>2026-04-18T09:07:19Z</time></trkpt><trkpt lat="39.549222466135696" lon="8.805949772699218"><ele>62.0</ele><time>2026-04-18T09:07:20Z</time></trkpt><trkpt lat="39.54921641056343" lon="8.805788438165655"><ele>62.0</ele><time>2026-04-18T09:07:21Z</time></trkpt><trkpt lat="39.549215062369974" lon="8.805640783783335"><ele>62.0</ele><time>2026-04-18T09:07:22Z</time></trkpt><trkpt lat="39.549223195461316" lon="8.805500179093382"><ele>62.0</ele><time>2026-04-18T09:07:23Z</time></trkpt><trkpt lat="39.54924227348947" lon="8.805370829258374"><ele>62.0</ele><time>2026-04-18T09:07:24Z</time></trkpt><trkpt lat="39.54927006543505" lon="8.805252220078371"><ele>62.0</ele><time>2026-04-18T09:07:25Z</time></trkpt><trkpt lat="39.54929192375456" lon="8.805132136564763"><ele>61.8</ele><time>2026-04-18T09:07:26Z</time></trkpt><trkpt lat="39.549299477729335" lon="8.8050065498086"><ele>61.6</ele><time>2026-04-18T09:07:27Z</time></trkpt><trkpt lat="39.54925895569752" lon="8.804893363660952"><ele>61.39999999999999</ele><time>2026-04-18T09:07:28Z</time></trkpt><trkpt lat="39.549190351604054" lon="8.804791883683123"><ele>61.199999999999996</ele><time>2026-04-18T09:07:29Z</time></trkpt><trkpt lat="39.5490977687401" lon="8.804723960325347"><ele>61.0</ele><time>2026-04-18T09:07:30Z</time></trkpt><trkpt lat="39.54898913066742" lon="8.80469736270229"><ele>61.0</ele><time>2026-04-18T09:07:31Z</time></trkpt><trkpt lat="39.548872932611296" lon="8.804699864141762"><ele>61.0</ele><time>2026-04-18T09:07:32Z</time></trkpt><trkpt lat="39.548753331918476" lon="8.804696713958672"><ele>61.0</ele><time>2026-04-18T09:07:33Z</time></trkpt><trkpt lat="39.54864216680099" lon="8.804636591133251"><ele>61.0</ele><time>2026-04-18T09:07:34Z</time></trkpt><trkpt lat="39.54856543865227" lon="8.804511714830433"><ele>60.75</ele><time>2026-04-18T09:07:35Z</time></trkpt><trkpt lat="39.54852228850814" lon="8.80435229919057"><ele>60.5</ele><time>2026-04-18T09:07:36Z</time></trkpt><trkpt lat="39.54846138888855" lon="8.804179716981766"><ele>60.25</ele><time>2026-04-18T09:07:37Z</time></trkpt><trkpt lat="39.54838379210055" lon="8.80401090750739"><ele>60.0</ele><time>2026-04-18T09:07:38Z</time></trkpt><trkpt lat="39.548296621495204" lon="8.803840262844288"><ele>60.0</ele><time>2026-04-18T09:07:39Z</time></trkpt><trkpt lat="39.54820106435414" lon="8.803662822253258"><ele>60.0</ele><time>2026-04-18T09:07:40Z</time></trkpt><trkpt lat="39.54810348239168" lon="8.803483537847686"><ele>60.0</ele><time>2026-04-18T09:07:41Z</time></trkpt><trkpt lat="39.547998889708126" lon="8.803301270018482"><ele>59.66666666666667</ele><time>2026-04-18T09:07:42Z</time></trkpt><trkpt lat="39.54789282709367" lon="8.803122896326627"><ele>59.333333333333336</ele><time>2026-04-18T09:07:43Z</time></trkpt><trkpt lat="39.5477802276143" lon="8.802944810142293"><ele>59.0</ele><time>2026-04-18T09:07:44Z</time></trkpt><trkpt lat="39.547659937705454" lon="8.802766870792233"><ele>59.0</ele><time>2026-04-18T09:07:45Z</time></trkpt><trkpt lat="39.547535726896406" lon="8.802589583159222"><ele>59.0</ele><time>2026-04-18T09:07:46Z</time></trkpt><trkpt lat="39.547409600267066" lon="8.802411743474753"><ele>59.0</ele><time>2026-04-18T09:07:47Z</time></trkpt><trkpt lat="39.54727667990557" lon="8.80222952891724"><ele>59.0</ele><time>2026-04-18T09:07:48Z</time></trkpt><trkpt lat="39.54713947921003" lon="8.80204442622705"><ele>59.0</ele><time>2026-04-18T09:07:49Z</time></trkpt><trkpt lat="39.547000122210925" lon="8.80186031756261"><ele>59.0</ele><time>2026-04-18T09:07:50Z</time></trkpt><trkpt lat="39.54685874862579" lon="8.801674391485838"><ele>59.333333333333336</ele><time>2026-04-18T09:07:51Z</time></trkpt><trkpt lat="39.54672289919548" lon="8.80148233892561"><ele>59.66666666666667</ele><time>2026-04-18T09:07:52Z</time></trkpt><trkpt lat="39.54658305721507" lon="8.801284532116487"><ele>60.0</ele><time>2026-04-18T09:07:53Z</time></trkpt><trkpt lat="39.54644120806106" lon="8.801086445060749"><ele>59.66666666666667</ele><time>2026-04-18T09:07:54Z</time></trkpt><trkpt lat="39.54629699194579" lon="8.800892444240116"><ele>59.333333333333336</ele><time>2026-04-18T09:07:55Z</time></trkpt><trkpt lat="39.54615026753058" lon="8.800693949889205"><ele>59.0</ele><time>2026-04-18T09:07:56Z</time></trkpt><trkpt lat="39.546002197305" lon="8.800493410367201"><ele>58.66666666666667</ele><time>2026-04-18T09:07:57Z</time></trkpt><trkpt lat="39.54585429797779" lon="8.800291249551163"><ele>58.33333333333333</ele><time>2026-04-18T09:07:58Z</time></trkpt><trkpt lat="39.545699617040434" lon="8.80008460284437"><ele>58.0</ele><time>2026-04-18T09:07:59Z</time></trkpt><trkpt lat="39.54554779712787" lon="8.799876284038328"><ele>58.0</ele><time>2026-04-18T09:08:00Z</time></trkpt><trkpt lat="39.5453951108244" lon="8.799667559256923"><ele>58.0</ele><time>2026-04-18T09:08:01Z</time></trkpt><trkpt lat="39.54524324918619" lon="8.799459584786856"><ele>58.0</ele><time>2026-04-18T09:08:02Z</time></trkpt><trkpt lat="39.545091577881514" lon="8.799250840659496"><ele>58.33333333333333</ele><time>2026-04-18T09:08:03Z</time></trkpt><trkpt lat="39.544941877911214" lon="8.79904400496017"><ele>58.66666666666667</ele><time>2026-04-18T09:08:04Z</time></trkpt><trkpt lat="39.54478790811274" lon="8.798836835671423"><ele>59.0</ele><time>2026-04-18T09:08:05Z</time></trkpt><trkpt lat="39.54463411118048" lon="8.798628141549237"><ele>59.0</ele><time>2026-04-18T09:08:06Z</time></trkpt><trkpt lat="39.54448096500291" lon="8.798417863489439"><ele>59.0</ele><time>2026-04-18T09:08:07Z</time></trkpt><trkpt lat="39.54432787606913" lon="8.7982095716809"><ele>59.0</ele><time>2026-04-18T09:08:08Z</time></trkpt><trkpt lat="39.54419007283808" lon="8.797978300652717"><ele>59.0</ele><time>2026-04-18T09:08:09Z</time></trkpt><trkpt lat="39.54403861061756" lon="8.797770383744645"><ele>59.0</ele><time>2026-04-18T09:08:10Z</time></trkpt><trkpt lat="39.54388619382888" lon="8.797562208031168"><ele>59.0</ele><time>2026-04-18T09:08:11Z</time></trkpt><trkpt lat="39.54373392017044" lon="8.797352707424094"><ele>59.0</ele><time>2026-04-18T09:08:12Z</time></trkpt><trkpt lat="39.54357273657601" lon="8.797157845243788"><ele>59.0</ele><time>2026-04-18T09:08:13Z</time></trkpt><trkpt lat="39.54341366795286" lon="8.79694365990234"><ele>59.0</ele><time>2026-04-18T09:08:14Z</time></trkpt><trkpt lat="39.543261158731234" lon="8.796733076057318"><ele>59.0</ele><time>2026-04-18T09:08:15Z</time></trkpt><trkpt lat="39.54310869437883" lon="8.796523109187854"><ele>59.0</ele><time>2026-04-18T09:08:16Z</time></trkpt><trkpt lat="39.54295800956925" lon="8.796314504639103"><ele>59.333333333333336</ele><time>2026-04-18T09:08:17Z</time></trkpt><trkpt lat="39.54280683525029" lon="8.796106115227706"><ele>59.66666666666667</ele><time>2026-04-18T09:08:18Z</time></trkpt><trkpt lat="39.542656492764536" lon="8.79590212031265"><ele>60.0</ele><time>2026-04-18T09:08:19Z</time></trkpt><trkpt lat="39.54250601094442" lon="8.795692389254974"><ele>58.5</ele><time>2026-04-18T09:08:20Z</time></trkpt><trkpt lat="39.5423475784345" lon="8.795488928961431"><ele>57.0</ele><time>2026-04-18T09:08:21Z</time></trkpt><trkpt lat="39.542203933452804" lon="8.795261699622571"><ele>56.0</ele><time>2026-04-18T09:08:22Z</time></trkpt><trkpt lat="39.54204982660535" lon="8.795050658908897"><ele>55.0</ele><time>2026-04-18T09:08:23Z</time></trkpt><trkpt lat="39.54189054300767" lon="8.794832241204613"><ele>55.0</ele><time>2026-04-18T09:08:24Z</time></trkpt><trkpt lat="39.541735660255945" lon="8.794621248725255"><ele>55.0</ele><time>2026-04-18T09:08:25Z</time></trkpt><trkpt lat="39.54158214949134" lon="8.794410171340935"><ele>55.0</ele><time>2026-04-18T09:08:26Z</time></trkpt><trkpt lat="39.54142698296132" lon="8.79419741761222"><ele>55.0</ele><time>2026-04-18T09:08:27Z</time></trkpt><trkpt lat="39.54127078793481" lon="8.793983463779991"><ele>55.0</ele><time>2026-04-18T09:08:28Z</time></trkpt><trkpt lat="39.541119793686676" lon="8.793776633851344"><ele>55.0</ele><time>2026-04-18T09:08:29Z</time></trkpt><trkpt lat="39.54096785775959" lon="8.79356851389686"><ele>54.33333333333333</ele><time>2026-04-18T09:08:30Z</time></trkpt><trkpt lat="39.54081645115854" lon="8.793361119163063"><ele>53.66666666666667</ele><time>2026-04-18T09:08:31Z</time></trkpt><trkpt lat="39.54066420044548" lon="8.793152568095826"><ele>53.0</ele><time>2026-04-18T09:08:32Z</time></trkpt><trkpt lat="39.540509936613795" lon="8.792941290468253"><ele>53.333333333333336</ele><time>2026-04-18T09:08:33Z</time></trkpt><trkpt lat="39.54035708079848" lon="8.7927321193624"><ele>53.66666666666667</ele><time>2026-04-18T09:08:34Z</time></trkpt><trkpt lat="39.540207035108146" lon="8.792522171030743"><ele>54.0</ele><time>2026-04-18T09:08:35Z</time></trkpt><trkpt lat="39.540064927260715" lon="8.792306987231802"><ele>54.0</ele><time>2026-04-18T09:08:36Z</time></trkpt><trkpt lat="39.53992846571443" lon="8.79208096826927"><ele>54.0</ele><time>2026-04-18T09:08:37Z</time></trkpt><trkpt lat="39.53979607526311" lon="8.791847734641042"><ele>54.0</ele><time>2026-04-18T09:08:38Z</time></trkpt><trkpt lat="39.53966910225393" lon="8.791605823252263"><ele>53.0</ele><time>2026-04-18T09:08:39Z</time></trkpt><trkpt lat="39.53954755058498" lon="8.79135923007003"><ele>52.0</ele><time>2026-04-18T09:08:40Z</time></trkpt><trkpt lat="39.539434845398844" lon="8.791104190362699"><ele>51.5</ele><time>2026-04-18T09:08:41Z</time></trkpt><trkpt lat="39.53932723873204" lon="8.790842494863318"><ele>51.0</ele><time>2026-04-18T09:08:42Z</time></trkpt><trkpt lat="39.53922901161543" lon="8.790579586312456"><ele>51.0</ele><time>2026-04-18T09:08:43Z</time></trkpt><trkpt lat="39.53913580074603" lon="8.790315367439312"><ele>51.0</ele><time>2026-04-18T09:08:44Z</time></trkpt><trkpt lat="39.5390504903179" lon="8.790049130155882"><ele>51.0</ele><time>2026-04-18T09:08:45Z</time></trkpt><trkpt lat="39.538974330836" lon="8.789773427862201"><ele>50.0</ele><time>2026-04-18T09:08:46Z</time></trkpt><trkpt lat="39.538905663999834" lon="8.789497429471337"><ele>49.0</ele><time>2026-04-18T09:08:47Z</time></trkpt><trkpt lat="39.53884110835834" lon="8.78921642306833"><ele>48.5</ele><time>2026-04-18T09:08:48Z</time></trkpt><trkpt lat="39.53878833051469" lon="8.788934886271532"><ele>48.0</ele><time>2026-04-18T09:08:49Z</time></trkpt><trkpt lat="39.5387401290848" lon="8.788648278350296"><ele>48.33333333333333</ele><time>2026-04-18T09:08:50Z</time></trkpt><trkpt lat="39.538702513026735" lon="8.788362754829746"><ele>48.666666666666664</ele><time>2026-04-18T09:08:51Z</time></trkpt><trkpt lat="39.53866913846896" lon="8.788072934743367"><ele>49.0</ele><time>2026-04-18T09:08:52Z</time></trkpt><trkpt lat="39.538638609411514" lon="8.787782929394362"><ele>50.0</ele><time>2026-04-18T09:08:53Z</time></trkpt><trkpt lat="39.53860819799065" lon="8.787492077171905"><ele>51.0</ele><time>2026-04-18T09:08:54Z</time></trkpt><trkpt lat="39.5385776311078" lon="8.787199052855314"><ele>51.0</ele><time>2026-04-18T09:08:55Z</time></trkpt><trkpt lat="39.5385478006078" lon="8.786912143976055"><ele>51.0</ele><time>2026-04-18T09:08:56Z</time></trkpt><trkpt lat="39.53851658752294" lon="8.78662319259231"><ele>51.0</ele><time>2026-04-18T09:08:57Z</time></trkpt><trkpt lat="39.538486524428016" lon="8.786337819085231"><ele>51.33333333333333</ele><time>2026-04-18T09:08:58Z</time></trkpt><trkpt lat="39.53845747745629" lon="8.786052693967385"><ele>51.666666666666664</ele><time>2026-04-18T09:08:59Z</time></trkpt><trkpt lat="39.53842793760933" lon="8.785775364067725"><ele>52.0</ele><time>2026-04-18T09:09:00Z</time></trkpt><trkpt lat="39.53838418481454" lon="8.78550238060184"><ele>52.0</ele><time>2026-04-18T09:09:01Z</time></trkpt><trkpt lat="39.538363032426695" lon="8.785228550187652"><ele>52.0</ele><time>2026-04-18T09:09:02Z</time></trkpt><trkpt lat="39.53835148220533" lon="8.78495463605414"><ele>52.0</ele><time>2026-04-18T09:09:03Z</time></trkpt><trkpt lat="39.538349756710275" lon="8.78467971593403"><ele>52.0</ele><time>2026-04-18T09:09:04Z</time></trkpt><trkpt lat="39.53834949037489" lon="8.784407674912655"><ele>52.0</ele><time>2026-04-18T09:09:05Z</time></trkpt><trkpt lat="39.53835505394243" lon="8.784157404285706"><ele>52.0</ele><time>2026-04-18T09:09:06Z</time></trkpt><trkpt lat="39.538366040165286" lon="8.783925115576555"><ele>51.33333333333333</ele><time>2026-04-18T09:09:07Z</time></trkpt><trkpt lat="39.53838036927071" lon="8.783710734210217"><ele>50.66666666666667</ele><time>2026-04-18T09:09:08Z</time></trkpt><trkpt lat="39.53839941177932" lon="8.783512549775637"><ele>50.0</ele><time>2026-04-18T09:09:09Z</time></trkpt><trkpt lat="39.5384170805665" lon="8.78333685856962"><ele>50.0</ele><time>2026-04-18T09:09:10Z</time></trkpt><trkpt lat="39.53844074727375" lon="8.78317706079829"><ele>50.0</ele><time>2026-04-18T09:09:11Z</time></trkpt><trkpt lat="39.53847295633287" lon="8.783040792294091"><ele>50.0</ele><time>2026-04-18T09:09:12Z</time></trkpt><trkpt lat="39.53851575840276" lon="8.782932771482045"><ele>50.0</ele><time>2026-04-18T09:09:13Z</time></trkpt><trkpt lat="39.53856850624764" lon="8.78285491209475"><ele>50.0</ele><time>2026-04-18T09:09:14Z</time></trkpt><trkpt lat="39.538637094650866" lon="8.782792522080024"><ele>50.0</ele><time>2026-04-18T09:09:15Z</time></trkpt><trkpt lat="39.538708487958296" lon="8.782741147627668"><ele>50.0</ele><time>2026-04-18T09:09:16Z</time></trkpt><trkpt lat="39.53877555965013" lon="8.782678792261907"><ele>50.0</ele><time>2026-04-18T09:09:17Z</time></trkpt><trkpt lat="39.53881423291774" lon="8.782576152647664"><ele>50.0</ele><time>2026-04-18T09:09:18Z</time></trkpt><trkpt lat="39.53882296706609" lon="8.782453024244115"><ele>50.0</ele><time>2026-04-18T09:09:19Z</time></trkpt><trkpt lat="39.53879162466198" lon="8.782324129266987"><ele>50.0</ele><time>2026-04-18T09:09:20Z</time></trkpt><trkpt lat="39.53874011818936" lon="8.782197966803867"><ele>50.0</ele><time>2026-04-18T09:09:21Z</time></trkpt><trkpt lat="39.53868887779977" lon="8.782067326519877"><ele>50.0</ele><time>2026-04-18T09:09:22Z</time></trkpt><trkpt lat="39.538691049994576" lon="8.781915304354461"><ele>50.0</ele><time>2026-04-18T09:09:23Z</time></trkpt><trkpt lat="39.53873489686533" lon="8.781750311955507"><ele>50.333333333333336</ele><time>2026-04-18T09:09:24Z</time></trkpt><trkpt lat="39.53879351074366" lon="8.781578267932922"><ele>50.66666666666667</ele><time>2026-04-18T09:09:25Z</time></trkpt><trkpt lat="39.53885294615041" lon="8.781394955037065"><ele>51.0</ele><time>2026-04-18T09:09:26Z</time></trkpt><trkpt lat="39.53891810047318" lon="8.781202002074131"><ele>51.0</ele><time>2026-04-18T09:09:27Z</time></trkpt><trkpt lat="39.538990401222804" lon="8.78100222897091"><ele>51.0</ele><time>2026-04-18T09:09:28Z</time></trkpt><trkpt lat="39.53906499157456" lon="8.780796843448456"><ele>51.0</ele><time>2026-04-18T09:09:29Z</time></trkpt><trkpt lat="39.53914212484406" lon="8.780577055267461"><ele>51.0</ele><time>2026-04-18T09:09:30Z</time></trkpt><trkpt lat="39.53922406911608" lon="8.780351800271012"><ele>51.0</ele><time>2026-04-18T09:09:31Z</time></trkpt><trkpt lat="39.53931135679163" lon="8.780120635860627"><ele>51.0</ele><time>2026-04-18T09:09:32Z</time></trkpt><trkpt lat="39.53940201996516" lon="8.779881937383015"><ele>51.0</ele><time>2026-04-18T09:09:33Z</time></trkpt><trkpt lat="39.53949217886436" lon="8.77963347280838"><ele>51.0</ele><time>2026-04-18T09:09:34Z</time></trkpt><trkpt lat="39.53958163417215" lon="8.779364544748281"><ele>51.0</ele><time>2026-04-18T09:09:35Z</time></trkpt><trkpt lat="39.53969450779468" lon="8.779076789221516"><ele>51.0</ele><time>2026-04-18T09:09:36Z</time></trkpt><trkpt lat="39.539811122847645" lon="8.77875988644392"><ele>51.0</ele><time>2026-04-18T09:09:37Z</time></trkpt><trkpt lat="39.539921680874905" lon="8.778418386753088"><ele>51.5</ele><time>2026-04-18T09:09:38Z</time></trkpt><trkpt lat="39.54005114790416" lon="8.778092365275851"><ele>52.0</ele><time>2026-04-18T09:09:39Z</time></trkpt><trkpt lat="39.54017138399845" lon="8.77777862546144"><ele>52.0</ele><time>2026-04-18T09:09:40Z</time></trkpt><trkpt lat="39.54028542620822" lon="8.77746674216782"><ele>52.0</ele><time>2026-04-18T09:09:41Z</time></trkpt><trkpt lat="39.54039883005089" lon="8.777156888566928"><ele>51.0</ele><time>2026-04-18T09:09:42Z</time></trkpt><trkpt lat="39.54051305928298" lon="8.776852524946966"><ele>50.0</ele><time>2026-04-18T09:09:43Z</time></trkpt><trkpt lat="39.54062609270674" lon="8.7765533503592"><ele>50.0</ele><time>2026-04-18T09:09:44Z</time></trkpt><trkpt lat="39.54073542670224" lon="8.776255564338998"><ele>50.0</ele><time>2026-04-18T09:09:45Z</time></trkpt><trkpt lat="39.5408407957756" lon="8.77596128980677"><ele>50.0</ele><time>2026-04-18T09:09:46Z</time></trkpt><trkpt lat="39.540943577040174" lon="8.775669417076557"><ele>50.0</ele><time>2026-04-18T09:09:47Z</time></trkpt><trkpt lat="39.54104849241484" lon="8.775378840812664"><ele>50.5</ele><time>2026-04-18T09:09:48Z</time></trkpt><trkpt lat="39.54115376764549" lon="8.77509062618861"><ele>51.0</ele><time>2026-04-18T09:09:49Z</time></trkpt><trkpt lat="39.54126102848215" lon="8.77480795182584"><ele>51.0</ele><time>2026-04-18T09:09:50Z</time></trkpt><trkpt lat="39.5413669251097" lon="8.774526860486672"><ele>51.0</ele><time>2026-04-18T09:09:51Z</time></trkpt><trkpt lat="39.54147171160903" lon="8.774242049486364"><ele>51.0</ele><time>2026-04-18T09:09:52Z</time></trkpt><trkpt lat="39.541571145718166" lon="8.773957262170002"><ele>51.0</ele><time>2026-04-18T09:09:53Z</time></trkpt><trkpt lat="39.54166458124434" lon="8.773670916536952"><ele>51.0</ele><time>2026-04-18T09:09:54Z</time></trkpt><trkpt lat="39.54175239171774" lon="8.773380812693048"><ele>51.0</ele><time>2026-04-18T09:09:55Z</time></trkpt><trkpt lat="39.54183014488799" lon="8.773084184557113"><ele>51.0</ele><time>2026-04-18T09:09:56Z</time></trkpt><trkpt lat="39.54190353128671" lon="8.772783473679516"><ele>51.0</ele><time>2026-04-18T09:09:57Z</time></trkpt><trkpt lat="39.541973288040275" lon="8.772476994313804"><ele>51.0</ele><time>2026-04-18T09:09:58Z</time></trkpt><trkpt lat="39.54203262153468" lon="8.772164414206259"><ele>51.0</ele><time>2026-04-18T09:09:59Z</time></trkpt><trkpt lat="39.542080584338315" lon="8.771847492281253"><ele>51.0</ele><time>2026-04-18T09:10:00Z</time></trkpt><trkpt lat="39.54212138372109" lon="8.771527607125464"><ele>51.0</ele><time>2026-04-18T09:10:01Z</time></trkpt><trkpt lat="39.54215580887526" lon="8.77120358768038"><ele>50.5</ele><time>2026-04-18T09:10:02Z</time></trkpt><trkpt lat="39.542178831522776" lon="8.770880776706976"><ele>50.0</ele><time>2026-04-18T09:10:03Z</time></trkpt><trkpt lat="39.542192656153794" lon="8.770553881743448"><ele>50.0</ele><time>2026-04-18T09:10:04Z</time></trkpt><trkpt lat="39.542199601162984" lon="8.770228030743935"><ele>50.0</ele><time>2026-04-18T09:10:05Z</time></trkpt><trkpt lat="39.54220114368062" lon="8.769901540707124"><ele>50.5</ele><time>2026-04-18T09:10:06Z</time></trkpt><trkpt lat="39.542191448022855" lon="8.769577861286285"><ele>51.0</ele><time>2026-04-18T09:10:07Z</time></trkpt><trkpt lat="39.542171388818794" lon="8.769255429490947"><ele>51.5</ele><time>2026-04-18T09:10:08Z</time></trkpt><trkpt lat="39.54214250991498" lon="8.76893726966967"><ele>52.0</ele><time>2026-04-18T09:10:09Z</time></trkpt><trkpt lat="39.542109241386704" lon="8.768620176929247"><ele>52.0</ele><time>2026-04-18T09:10:10Z</time></trkpt><trkpt lat="39.542067417374106" lon="8.768304695088103"><ele>52.0</ele><time>2026-04-18T09:10:11Z</time></trkpt><trkpt lat="39.54204561261549" lon="8.767984033659724"><ele>52.5</ele><time>2026-04-18T09:10:12Z</time></trkpt><trkpt lat="39.54201214622267" lon="8.76766562335056"><ele>53.0</ele><time>2026-04-18T09:10:13Z</time></trkpt><trkpt lat="39.541919861981384" lon="8.767359750806229"><ele>53.0</ele><time>2026-04-18T09:10:14Z</time></trkpt><trkpt lat="39.54187272324662" lon="8.76704951288623"><ele>53.0</ele><time>2026-04-18T09:10:15Z</time></trkpt><trkpt lat="39.541825815156756" lon="8.766740747976552"><ele>51.5</ele><time>2026-04-18T09:10:16Z</time></trkpt><trkpt lat="39.54178020609854" lon="8.766431153464422"><ele>50.0</ele><time>2026-04-18T09:10:17Z</time></trkpt><trkpt lat="39.541735721305095" lon="8.76611964824576"><ele>50.5</ele><time>2026-04-18T09:10:18Z</time></trkpt><trkpt lat="39.54169423497723" lon="8.765808916860792"><ele>51.0</ele><time>2026-04-18T09:10:19Z</time></trkpt><trkpt lat="39.5416524934847" lon="8.765496598033407"><ele>52.0</ele><time>2026-04-18T09:10:20Z</time></trkpt><trkpt lat="39.54160884034164" lon="8.765181772066768"><ele>53.0</ele><time>2026-04-18T09:10:21Z</time></trkpt><trkpt lat="39.5415615924447" lon="8.764868221813938"><ele>53.0</ele><time>2026-04-18T09:10:22Z</time></trkpt><trkpt lat="39.541511285672726" lon="8.764552192924175"><ele>53.0</ele><time>2026-04-18T09:10:23Z</time></trkpt><trkpt lat="39.54146092435549" lon="8.764234312436114"><ele>53.0</ele><time>2026-04-18T09:10:24Z</time></trkpt><trkpt lat="39.54141360080618" lon="8.763914385794005"><ele>53.0</ele><time>2026-04-18T09:10:25Z</time></trkpt><trkpt lat="39.54136858103452" lon="8.763592983420528"><ele>54.0</ele><time>2026-04-18T09:10:26Z</time></trkpt><trkpt lat="39.54132464182632" lon="8.763273025301134"><ele>55.0</ele><time>2026-04-18T09:10:27Z</time></trkpt><trkpt lat="39.54127788094688" lon="8.762955272247462"><ele>54.5</ele><time>2026-04-18T09:10:28Z</time></trkpt><trkpt lat="39.54123240246322" lon="8.762638148219917"><ele>54.0</ele><time>2026-04-18T09:10:29Z</time></trkpt><trkpt lat="39.54118785407642" lon="8.762321833640124"><ele>54.0</ele><time>2026-04-18T09:10:30Z</time></trkpt><trkpt lat="39.54114192167351" lon="8.762000143707649"><ele>54.0</ele><time>2026-04-18T09:10:31Z</time></trkpt><trkpt lat="39.54109653576965" lon="8.761684100664384"><ele>54.0</ele><time>2026-04-18T09:10:32Z</time></trkpt><trkpt lat="39.54104908766198" lon="8.761366000237228"><ele>54.0</ele><time>2026-04-18T09:10:33Z</time></trkpt><trkpt lat="39.541000773816656" lon="8.761047624097179"><ele>54.0</ele><time>2026-04-18T09:10:34Z</time></trkpt><trkpt lat="39.54095367165725" lon="8.76073159160957"><ele>54.0</ele><time>2026-04-18T09:10:35Z</time></trkpt><trkpt lat="39.540908939842645" lon="8.760414030617675"><ele>54.5</ele><time>2026-04-18T09:10:36Z</time></trkpt><trkpt lat="39.54086166267004" lon="8.760098029225835"><ele>55.0</ele><time>2026-04-18T09:10:37Z</time></trkpt><trkpt lat="39.54081591860815" lon="8.759779722930205"><ele>55.0</ele><time>2026-04-18T09:10:38Z</time></trkpt><trkpt lat="39.54077502193285" lon="8.759457474279339"><ele>55.0</ele><time>2026-04-18T09:10:39Z</time></trkpt><trkpt lat="39.54072092010066" lon="8.75913968629446"><ele>55.0</ele><time>2026-04-18T09:10:40Z</time></trkpt><trkpt lat="39.540675937953225" lon="8.758820817642192"><ele>55.0</ele><time>2026-04-18T09:10:41Z</time></trkpt><trkpt lat="39.54063068283996" lon="8.758502206360369"><ele>55.5</ele><time>2026-04-18T09:10:42Z</time></trkpt><trkpt lat="39.5405854426827" lon="8.758181850184464"><ele>56.0</ele><time>2026-04-18T09:10:43Z</time></trkpt><trkpt lat="39.54053947831948" lon="8.757860179219207"><ele>55.5</ele><time>2026-04-18T09:10:44Z</time></trkpt><trkpt lat="39.540494010802256" lon="8.757539461657396"><ele>55.0</ele><time>2026-04-18T09:10:45Z</time></trkpt><trkpt lat="39.540447914152466" lon="8.757219439577298"><ele>55.0</ele><time>2026-04-18T09:10:46Z</time></trkpt><trkpt lat="39.54040007960257" lon="8.756897149264322"><ele>55.0</ele><time>2026-04-18T09:10:47Z</time></trkpt><trkpt lat="39.54035172141089" lon="8.756578076124505"><ele>56.0</ele><time>2026-04-18T09:10:48Z</time></trkpt><trkpt lat="39.54030534648069" lon="8.756260169044596"><ele>57.0</ele><time>2026-04-18T09:10:49Z</time></trkpt><trkpt lat="39.540260658091384" lon="8.755941890223873"><ele>57.0</ele><time>2026-04-18T09:10:50Z</time></trkpt><trkpt lat="39.54021069495382" lon="8.755623867512602"><ele>57.0</ele><time>2026-04-18T09:10:51Z</time></trkpt><trkpt lat="39.54016579415063" lon="8.75530389901239"><ele>58.0</ele><time>2026-04-18T09:10:52Z</time></trkpt><trkpt lat="39.54011991857337" lon="8.7549847731935"><ele>59.0</ele><time>2026-04-18T09:10:53Z</time></trkpt><trkpt lat="39.54007308190153" lon="8.754663432864557"><ele>60.5</ele><time>2026-04-18T09:10:54Z</time></trkpt><trkpt lat="39.54002608005608" lon="8.75434571267827"><ele>62.0</ele><time>2026-04-18T09:10:55Z</time></trkpt><trkpt lat="39.539980899383494" lon="8.75402719862766"><ele>62.0</ele><time>2026-04-18T09:10:56Z</time></trkpt><trkpt lat="39.53992964841255" lon="8.753707738602175"><ele>62.0</ele><time>2026-04-18T09:10:57Z</time></trkpt><trkpt lat="39.53989437273676" lon="8.753390212356877"><ele>62.0</ele><time>2026-04-18T09:10:58Z</time></trkpt><trkpt lat="39.539838211635285" lon="8.75306728688451"><ele>62.0</ele><time>2026-04-18T09:10:59Z</time></trkpt><trkpt lat="39.53979430411124" lon="8.752754434915783"><ele>62.5</ele><time>2026-04-18T09:11:00Z</time></trkpt><trkpt lat="39.539747655133155" lon="8.752437057818959"><ele>63.0</ele><time>2026-04-18T09:11:01Z</time></trkpt><trkpt lat="39.53969691587104" lon="8.752115859026208"><ele>63.0</ele><time>2026-04-18T09:11:02Z</time></trkpt><trkpt lat="39.539640380660586" lon="8.75179380472617"><ele>63.0</ele><time>2026-04-18T09:11:03Z</time></trkpt><trkpt lat="39.53957631501449" lon="8.751468428804664"><ele>63.0</ele><time>2026-04-18T09:11:04Z</time></trkpt><trkpt lat="39.539508185249815" lon="8.751138781793605"><ele>63.0</ele><time>2026-04-18T09:11:05Z</time></trkpt><trkpt lat="39.53952086002765" lon="8.75086255704212"><ele>63.0</ele><time>2026-04-18T09:11:06Z</time></trkpt><trkpt lat="39.53947452476552" lon="8.750542574974553"><ele>63.0</ele><time>2026-04-18T09:11:07Z</time></trkpt><trkpt lat="39.53942673554811" lon="8.75021608208352"><ele>64.0</ele><time>2026-04-18T09:11:08Z</time></trkpt><trkpt lat="39.53937621916436" lon="8.749895389764315"><ele>65.0</ele><time>2026-04-18T09:11:09Z</time></trkpt><trkpt lat="39.53932773175118" lon="8.749573194062704"><ele>64.5</ele><time>2026-04-18T09:11:10Z</time></trkpt><trkpt lat="39.539278752229464" lon="8.74924938307221"><ele>64.0</ele><time>2026-04-18T09:11:11Z</time></trkpt><trkpt lat="39.53923197603507" lon="8.74891891324404"><ele>64.0</ele><time>2026-04-18T09:11:12Z</time></trkpt><trkpt lat="39.53918327064683" lon="8.748583801318134"><ele>64.0</ele><time>2026-04-18T09:11:13Z</time></trkpt><trkpt lat="39.53913538744765" lon="8.748242496495255"><ele>65.5</ele><time>2026-04-18T09:11:14Z</time></trkpt><trkpt lat="39.539080856847676" lon="8.747896476145565"><ele>67.0</ele><time>2026-04-18T09:11:15Z</time></trkpt><trkpt lat="39.53903184243112" lon="8.747540900506749"><ele>68.0</ele><time>2026-04-18T09:11:16Z</time></trkpt><trkpt lat="39.5389843053299" lon="8.74717445208347"><ele>69.0</ele><time>2026-04-18T09:11:17Z</time></trkpt><trkpt lat="39.53893449827718" lon="8.746803963847064"><ele>69.0</ele><time>2026-04-18T09:11:18Z</time></trkpt><trkpt lat="39.538882447357445" lon="8.74642856784302"><ele>69.0</ele><time>2026-04-18T09:11:19Z</time></trkpt><trkpt lat="39.538828541718516" lon="8.746054050370464"><ele>69.5</ele><time>2026-04-18T09:11:20Z</time></trkpt><trkpt lat="39.53877135151563" lon="8.74569003598518"><ele>70.0</ele><time>2026-04-18T09:11:21Z</time></trkpt><trkpt lat="39.53871404890509" lon="8.745326988695172"><ele>70.5</ele><time>2026-04-18T09:11:22Z</time></trkpt><trkpt lat="39.53866093426345" lon="8.744961188707057"><ele>71.0</ele><time>2026-04-18T09:11:23Z</time></trkpt><trkpt lat="39.538607549732276" lon="8.744594243840748"><ele>70.5</ele><time>2026-04-18T09:11:24Z</time></trkpt><trkpt lat="39.538556754594545" lon="8.744232941274921"><ele>70.0</ele><time>2026-04-18T09:11:25Z</time></trkpt><trkpt lat="39.538502817766165" lon="8.74387373601224"><ele>71.0</ele><time>2026-04-18T09:11:26Z</time></trkpt><trkpt lat="39.53844933473905" lon="8.743518273505302"><ele>72.0</ele><time>2026-04-18T09:11:27Z</time></trkpt><trkpt lat="39.53839896540224" lon="8.743165621105549"><ele>72.0</ele><time>2026-04-18T09:11:28Z</time></trkpt><trkpt lat="39.53834651857176" lon="8.74282111677741"><ele>72.0</ele><time>2026-04-18T09:11:29Z</time></trkpt><trkpt lat="39.53829578737045" lon="8.742468475530524"><ele>72.0</ele><time>2026-04-18T09:11:30Z</time></trkpt><trkpt lat="39.53824638227906" lon="8.742122089358155"><ele>72.0</ele><time>2026-04-18T09:11:31Z</time></trkpt><trkpt lat="39.53819651634107" lon="8.741772895638869"><ele>72.0</ele><time>2026-04-18T09:11:32Z</time></trkpt><trkpt lat="39.53814687065832" lon="8.741422728121286"><ele>72.0</ele><time>2026-04-18T09:11:33Z</time></trkpt><trkpt lat="39.538097269716694" lon="8.7410678100573"><ele>71.0</ele><time>2026-04-18T09:11:34Z</time></trkpt><trkpt lat="39.53804757484453" lon="8.740716494034537"><ele>70.0</ele><time>2026-04-18T09:11:35Z</time></trkpt><trkpt lat="39.537996510586666" lon="8.740353845955763"><ele>69.5</ele><time>2026-04-18T09:11:36Z</time></trkpt><trkpt lat="39.53793888099297" lon="8.739995342234955"><ele>69.0</ele><time>2026-04-18T09:11:37Z</time></trkpt><trkpt lat="39.537885299442806" lon="8.739620678929159"><ele>70.0</ele><time>2026-04-18T09:11:38Z</time></trkpt><trkpt lat="39.53783042638967" lon="8.739258035532547"><ele>71.0</ele><time>2026-04-18T09:11:39Z</time></trkpt><trkpt lat="39.53777512587403" lon="8.738892018372697"><ele>70.5</ele><time>2026-04-18T09:11:40Z</time></trkpt><trkpt lat="39.53772274959325" lon="8.738521969462312"><ele>70.0</ele><time>2026-04-18T09:11:41Z</time></trkpt><trkpt lat="39.53767128421278" lon="8.738160623913815"><ele>70.0</ele><time>2026-04-18T09:11:42Z</time></trkpt><trkpt lat="39.53762677588768" lon="8.737810032587008"><ele>70.0</ele><time>2026-04-18T09:11:43Z</time></trkpt><trkpt lat="39.53756817626052" lon="8.737464650538183"><ele>71.5</ele><time>2026-04-18T09:11:44Z</time></trkpt><trkpt lat="39.537521250726805" lon="8.737122423007175"><ele>73.0</ele><time>2026-04-18T09:11:45Z</time></trkpt><trkpt lat="39.53747566101884" lon="8.736784588934494"><ele>75.0</ele><time>2026-04-18T09:11:46Z</time></trkpt><trkpt lat="39.537431173987414" lon="8.736444581576434"><ele>77.0</ele><time>2026-04-18T09:11:47Z</time></trkpt><trkpt lat="39.53738212506794" lon="8.736112426170369"><ele>76.5</ele><time>2026-04-18T09:11:48Z</time></trkpt><trkpt lat="39.537331874273704" lon="8.735779544466947"><ele>76.0</ele><time>2026-04-18T09:11:49Z</time></trkpt><trkpt lat="39.537282297394036" lon="8.735450705366825"><ele>76.5</ele><time>2026-04-18T09:11:50Z</time></trkpt><trkpt lat="39.53723846760223" lon="8.735124349452137"><ele>77.0</ele><time>2026-04-18T09:11:51Z</time></trkpt><trkpt lat="39.537189968183725" lon="8.734804552796598"><ele>77.0</ele><time>2026-04-18T09:11:52Z</time></trkpt><trkpt lat="39.53714363191875" lon="8.734494310985676"><ele>77.0</ele><time>2026-04-18T09:11:53Z</time></trkpt><trkpt lat="39.53709599237739" lon="8.734187779241447"><ele>78.0</ele><time>2026-04-18T09:11:54Z</time></trkpt><trkpt lat="39.53704834143169" lon="8.733889079245602"><ele>79.0</ele><time>2026-04-18T09:11:55Z</time></trkpt><trkpt lat="39.53700412860763" lon="8.733604981360827"><ele>79.0</ele><time>2026-04-18T09:11:56Z</time></trkpt><trkpt lat="39.53696145393004" lon="8.733325459768457"><ele>79.0</ele><time>2026-04-18T09:11:57Z</time></trkpt><trkpt lat="39.536919334107715" lon="8.733049258793487"><ele>79.0</ele><time>2026-04-18T09:11:58Z</time></trkpt><trkpt lat="39.53688316446284" lon="8.732773256205887"><ele>80.0</ele><time>2026-04-18T09:11:59Z</time></trkpt><trkpt lat="39.53684848023815" lon="8.732484936680116"><ele>81.0</ele><time>2026-04-18T09:12:00Z</time></trkpt><trkpt lat="39.5368221847433" lon="8.732185606060874"><ele>81.0</ele><time>2026-04-18T09:12:01Z</time></trkpt><trkpt lat="39.53681534513822" lon="8.731867988362307"><ele>81.0</ele><time>2026-04-18T09:12:02Z</time></trkpt><trkpt lat="39.53682072152175" lon="8.731543755244758"><ele>81.0</ele><time>2026-04-18T09:12:03Z</time></trkpt><trkpt lat="39.536831164965754" lon="8.731225927363324"><ele>81.0</ele><time>2026-04-18T09:12:04Z</time></trkpt><trkpt lat="39.53684111928552" lon="8.73091611190491"><ele>82.0</ele><time>2026-04-18T09:12:05Z</time></trkpt><trkpt lat="39.53684381826514" lon="8.730611052757263"><ele>83.0</ele><time>2026-04-18T09:12:06Z</time></trkpt><trkpt lat="39.536841968566655" lon="8.730304817530428"><ele>84.0</ele><time>2026-04-18T09:12:07Z</time></trkpt><trkpt lat="39.53684544191335" lon="8.729999430457298"><ele>85.0</ele><time>2026-04-18T09:12:08Z</time></trkpt><trkpt lat="39.53685070940762" lon="8.729690797782819"><ele>85.5</ele><time>2026-04-18T09:12:09Z</time></trkpt><trkpt lat="39.53685671434881" lon="8.729382987922184"><ele>86.0</ele><time>2026-04-18T09:12:10Z</time></trkpt><trkpt lat="39.536861105215245" lon="8.729070967743398"><ele>86.0</ele><time>2026-04-18T09:12:11Z</time></trkpt><trkpt lat="39.53686673335321" lon="8.728758765198686"><ele>86.0</ele><time>2026-04-18T09:12:12Z</time></trkpt><trkpt lat="39.536871356387095" lon="8.728437622785869"><ele>86.5</ele><time>2026-04-18T09:12:13Z</time></trkpt><trkpt lat="39.536878517206176" lon="8.728115128833348"><ele>87.0</ele><time>2026-04-18T09:12:14Z</time></trkpt><trkpt lat="39.536886098504176" lon="8.72778674679823"><ele>87.0</ele><time>2026-04-18T09:12:15Z</time></trkpt><trkpt lat="39.53689474308448" lon="8.727463274851088"><ele>87.0</ele><time>2026-04-18T09:12:16Z</time></trkpt><trkpt lat="39.536902193090924" lon="8.7271404973132"><ele>88.0</ele><time>2026-04-18T09:12:17Z</time></trkpt><trkpt lat="39.53690631014926" lon="8.726822209377534"><ele>89.0</ele><time>2026-04-18T09:12:18Z</time></trkpt><trkpt lat="39.536910133143714" lon="8.726502699964794"><ele>89.0</ele><time>2026-04-18T09:12:19Z</time></trkpt><trkpt lat="39.536916723286126" lon="8.726186488850898"><ele>89.0</ele><time>2026-04-18T09:12:20Z</time></trkpt><trkpt lat="39.53692448244383" lon="8.725864153304059"><ele>89.0</ele><time>2026-04-18T09:12:21Z</time></trkpt><trkpt lat="39.536930330833314" lon="8.725538425928837"><ele>89.0</ele><time>2026-04-18T09:12:22Z</time></trkpt><trkpt lat="39.53693616955766" lon="8.725213403708837"><ele>89.0</ele><time>2026-04-18T09:12:23Z</time></trkpt><trkpt lat="39.53694141754106" lon="8.724886048219346"><ele>89.0</ele><time>2026-04-18T09:12:24Z</time></trkpt><trkpt lat="39.53694645682775" lon="8.724558455769056"><ele>88.5</ele><time>2026-04-18T09:12:25Z</time></trkpt><trkpt lat="39.53695103772372" lon="8.724227402771419"><ele>88.0</ele><time>2026-04-18T09:12:26Z</time></trkpt><trkpt lat="39.53695630447807" lon="8.723898523675263"><ele>88.0</ele><time>2026-04-18T09:12:27Z</time></trkpt><trkpt lat="39.53696392834402" lon="8.723571775334452"><ele>88.0</ele><time>2026-04-18T09:12:28Z</time></trkpt><trkpt lat="39.53697265225105" lon="8.723246753326489"><ele>88.0</ele><time>2026-04-18T09:12:29Z</time></trkpt><trkpt lat="39.53698099765081" lon="8.722920032314082"><ele>88.0</ele><time>2026-04-18T09:12:30Z</time></trkpt><trkpt lat="39.53698557266712" lon="8.722587725383665"><ele>88.0</ele><time>2026-04-18T09:12:31Z</time></trkpt><trkpt lat="39.53699261920385" lon="8.722254516870514"><ele>88.0</ele><time>2026-04-18T09:12:32Z</time></trkpt><trkpt lat="39.53699819654245" lon="8.721916462806332"><ele>88.5</ele><time>2026-04-18T09:12:33Z</time></trkpt><trkpt lat="39.53700566683543" lon="8.721582850346365"><ele>89.0</ele><time>2026-04-18T09:12:34Z</time></trkpt><trkpt lat="39.53700916577735" lon="8.721246337259476"><ele>89.0</ele><time>2026-04-18T09:12:35Z</time></trkpt><trkpt lat="39.53701517755571" lon="8.720903110865462"><ele>89.0</ele><time>2026-04-18T09:12:36Z</time></trkpt><trkpt lat="39.53701926983241" lon="8.720561916540696"><ele>89.5</ele><time>2026-04-18T09:12:37Z</time></trkpt><trkpt lat="39.537023662764014" lon="8.720224078610679"><ele>90.0</ele><time>2026-04-18T09:12:38Z</time></trkpt><trkpt lat="39.537029774576254" lon="8.719886789755602"><ele>90.0</ele><time>2026-04-18T09:12:39Z</time></trkpt><trkpt lat="39.53703811089841" lon="8.719559059374694"><ele>90.0</ele><time>2026-04-18T09:12:40Z</time></trkpt><trkpt lat="39.53704540005347" lon="8.719228848101048"><ele>90.5</ele><time>2026-04-18T09:12:41Z</time></trkpt><trkpt lat="39.53705014755668" lon="8.718901375554468"><ele>91.0</ele><time>2026-04-18T09:12:42Z</time></trkpt><trkpt lat="39.53705303875364" lon="8.718580463303027"><ele>90.5</ele><time>2026-04-18T09:12:43Z</time></trkpt><trkpt lat="39.53705581594324" lon="8.718260203271084"><ele>90.0</ele><time>2026-04-18T09:12:44Z</time></trkpt><trkpt lat="39.53706063272599" lon="8.717941581842902"><ele>89.5</ele><time>2026-04-18T09:12:45Z</time></trkpt><trkpt lat="39.537066120934725" lon="8.717624330224941"><ele>89.0</ele><time>2026-04-18T09:12:46Z</time></trkpt><trkpt lat="39.53707163894341" lon="8.717308695573234"><ele>89.0</ele><time>2026-04-18T09:12:47Z</time></trkpt><trkpt lat="39.53707640763864" lon="8.716993589416596"><ele>89.0</ele><time>2026-04-18T09:12:48Z</time></trkpt><trkpt lat="39.53708256079188" lon="8.716678686930265"><ele>89.0</ele><time>2026-04-18T09:12:49Z</time></trkpt><trkpt lat="39.537087505980786" lon="8.716362780331588"><ele>89.0</ele><time>2026-04-18T09:12:50Z</time></trkpt><trkpt lat="39.53709302349809" lon="8.716043118842006"><ele>89.5</ele><time>2026-04-18T09:12:51Z</time></trkpt><trkpt lat="39.537098972328344" lon="8.715725520280756"><ele>90.0</ele><time>2026-04-18T09:12:52Z</time></trkpt><trkpt lat="39.537104846110395" lon="8.715406540064697"><ele>90.5</ele><time>2026-04-18T09:12:53Z</time></trkpt><trkpt lat="39.537110963746116" lon="8.715086757696898"><ele>91.0</ele><time>2026-04-18T09:12:54Z</time></trkpt><trkpt lat="39.53711542632792" lon="8.714765728959707"><ele>91.0</ele><time>2026-04-18T09:12:55Z</time></trkpt><trkpt lat="39.53712156359002" lon="8.714444189944794"><ele>91.0</ele><time>2026-04-18T09:12:56Z</time></trkpt><trkpt lat="39.53712767044029" lon="8.714123788888278"><ele>91.0</ele><time>2026-04-18T09:12:57Z</time></trkpt><trkpt lat="39.53713586750181" lon="8.713807840705572"><ele>91.0</ele><time>2026-04-18T09:12:58Z</time></trkpt><trkpt lat="39.5371410995443" lon="8.713494231033225"><ele>91.5</ele><time>2026-04-18T09:12:59Z</time></trkpt><trkpt lat="39.53714662061853" lon="8.713182800622173"><ele>92.0</ele><time>2026-04-18T09:13:00Z</time></trkpt><trkpt lat="39.53715207936078" lon="8.712874424464061"><ele>93.0</ele><time>2026-04-18T09:13:01Z</time></trkpt><trkpt lat="39.53715693070885" lon="8.712566505035577"><ele>94.0</ele><time>2026-04-18T09:13:02Z</time></trkpt><trkpt lat="39.537160975864715" lon="8.712262039380038"><ele>94.0</ele><time>2026-04-18T09:13:03Z</time></trkpt><trkpt lat="39.53716495341132" lon="8.711958830035934"><ele>94.0</ele><time>2026-04-18T09:13:04Z</time></trkpt><trkpt lat="39.5371706593554" lon="8.71165612039317"><ele>93.5</ele><time>2026-04-18T09:13:05Z</time></trkpt><trkpt lat="39.537176100373955" lon="8.711356130183361"><ele>93.0</ele><time>2026-04-18T09:13:06Z</time></trkpt><trkpt lat="39.537182239836454" lon="8.711055492970853"><ele>93.0</ele><time>2026-04-18T09:13:07Z</time></trkpt><trkpt lat="39.53718690833278" lon="8.7107518577902"><ele>93.0</ele><time>2026-04-18T09:13:08Z</time></trkpt><trkpt lat="39.537191978265554" lon="8.710447702615564"><ele>94.0</ele><time>2026-04-18T09:13:09Z</time></trkpt><trkpt lat="39.53719634233228" lon="8.710142758296339"><ele>95.0</ele><time>2026-04-18T09:13:10Z</time></trkpt><trkpt lat="39.537202082390515" lon="8.709839399576921"><ele>95.0</ele><time>2026-04-18T09:13:11Z</time></trkpt><trkpt lat="39.53720603124672" lon="8.709537077889008"><ele>95.0</ele><time>2026-04-18T09:13:12Z</time></trkpt><trkpt lat="39.53720942909378" lon="8.709232778482098"><ele>94.5</ele><time>2026-04-18T09:13:13Z</time></trkpt><trkpt lat="39.537213699074485" lon="8.708926879969294"><ele>94.0</ele><time>2026-04-18T09:13:14Z</time></trkpt><trkpt lat="39.53722084818564" lon="8.708624876088438"><ele>93.5</ele><time>2026-04-18T09:13:15Z</time></trkpt><trkpt lat="39.537229840505674" lon="8.708320577028589"><ele>93.0</ele><time>2026-04-18T09:13:16Z</time></trkpt><trkpt lat="39.537237028177906" lon="8.708014334891194"><ele>94.0</ele><time>2026-04-18T09:13:17Z</time></trkpt><trkpt lat="39.537240637175145" lon="8.707711303080956"><ele>95.0</ele><time>2026-04-18T09:13:18Z</time></trkpt><trkpt lat="39.53724341354931" lon="8.707406952134932"><ele>95.0</ele><time>2026-04-18T09:13:19Z</time></trkpt><trkpt lat="39.53724823663257" lon="8.707105545625746"><ele>95.0</ele><time>2026-04-18T09:13:20Z</time></trkpt><trkpt lat="39.53725229657452" lon="8.706810679973447"><ele>95.0</ele><time>2026-04-18T09:13:21Z</time></trkpt><trkpt lat="39.53725473856414" lon="8.706528220165838"><ele>95.0</ele><time>2026-04-18T09:13:22Z</time></trkpt><trkpt lat="39.53726110551427" lon="8.706252148716452"><ele>95.0</ele><time>2026-04-18T09:13:23Z</time></trkpt><trkpt lat="39.53726640251992" lon="8.705988377586323"><ele>95.0</ele><time>2026-04-18T09:13:24Z</time></trkpt><trkpt lat="39.53727150163153" lon="8.705732683575294"><ele>95.0</ele><time>2026-04-18T09:13:25Z</time></trkpt><trkpt lat="39.53727635716554" lon="8.705483693854557"><ele>95.0</ele><time>2026-04-18T09:13:26Z</time></trkpt><trkpt lat="39.53728017130823" lon="8.705241495117162"><ele>95.0</ele><time>2026-04-18T09:13:27Z</time></trkpt><trkpt lat="39.53728270607738" lon="8.70499815274839"><ele>95.0</ele><time>2026-04-18T09:13:28Z</time></trkpt><trkpt lat="39.5372880818946" lon="8.704756043703512"><ele>95.0</ele><time>2026-04-18T09:13:29Z</time></trkpt><trkpt lat="39.537292543627146" lon="8.704518354749087"><ele>94.33333333333334</ele><time>2026-04-18T09:13:30Z</time></trkpt><trkpt lat="39.53729810036711" lon="8.704273454314826"><ele>93.66666666666667</ele><time>2026-04-18T09:13:31Z</time></trkpt><trkpt lat="39.537302909152075" lon="8.70402994072114"><ele>93.0</ele><time>2026-04-18T09:13:32Z</time></trkpt><trkpt lat="39.537308496208325" lon="8.703787480682779"><ele>94.0</ele><time>2026-04-18T09:13:33Z</time></trkpt><trkpt lat="39.537312924399636" lon="8.70354067169092"><ele>95.0</ele><time>2026-04-18T09:13:34Z</time></trkpt><trkpt lat="39.537319208626215" lon="8.703294518575042"><ele>96.0</ele><time>2026-04-18T09:13:35Z</time></trkpt><trkpt lat="39.53732317882916" lon="8.703044186716038"><ele>96.0</ele><time>2026-04-18T09:13:36Z</time></trkpt><trkpt lat="39.537328475122" lon="8.702795286981416"><ele>96.0</ele><time>2026-04-18T09:13:37Z</time></trkpt><trkpt lat="39.53733047248678" lon="8.702543616285826"><ele>96.0</ele><time>2026-04-18T09:13:38Z</time></trkpt><trkpt lat="39.53733347488636" lon="8.702293733240282"><ele>96.0</ele><time>2026-04-18T09:13:39Z</time></trkpt><trkpt lat="39.53733681429572" lon="8.702037668288444"><ele>96.0</ele><time>2026-04-18T09:13:40Z</time></trkpt><trkpt lat="39.53734286471821" lon="8.701783519364751"><ele>96.0</ele><time>2026-04-18T09:13:41Z</time></trkpt><trkpt lat="39.53734803310263" lon="8.701527076898918"><ele>96.0</ele><time>2026-04-18T09:13:42Z</time></trkpt><trkpt lat="39.53735268482554" lon="8.701270801189445"><ele>96.0</ele><time>2026-04-18T09:13:43Z</time></trkpt><trkpt lat="39.53735622636213" lon="8.701008603052365"><ele>96.0</ele><time>2026-04-18T09:13:44Z</time></trkpt><trkpt lat="39.537360019523504" lon="8.700746285692944"><ele>96.0</ele><time>2026-04-18T09:13:45Z</time></trkpt><trkpt lat="39.537364122355434" lon="8.700480506690768"><ele>96.0</ele><time>2026-04-18T09:13:46Z</time></trkpt><trkpt lat="39.537369032882125" lon="8.700216841179971"><ele>96.0</ele><time>2026-04-18T09:13:47Z</time></trkpt><trkpt lat="39.53737625794094" lon="8.699944974271464"><ele>96.0</ele><time>2026-04-18T09:13:48Z</time></trkpt><trkpt lat="39.537382304504334" lon="8.6996751284597"><ele>96.0</ele><time>2026-04-18T09:13:49Z</time></trkpt><trkpt lat="39.53738702865605" lon="8.69940126581823"><ele>96.0</ele><time>2026-04-18T09:13:50Z</time></trkpt><trkpt lat="39.53739033477136" lon="8.69913523687431"><ele>96.33333333333334</ele><time>2026-04-18T09:13:51Z</time></trkpt><trkpt lat="39.5373943230885" lon="8.69888310544438"><ele>96.66666666666667</ele><time>2026-04-18T09:13:52Z</time></trkpt><trkpt lat="39.53739569640305" lon="8.698647154272038"><ele>97.0</ele><time>2026-04-18T09:13:53Z</time></trkpt><trkpt lat="39.53740272806535" lon="8.6984347644186"><ele>97.33333333333334</ele><time>2026-04-18T09:13:54Z</time></trkpt><trkpt lat="39.53741039867999" lon="8.698235662469648"><ele>97.66666666666666</ele><time>2026-04-18T09:13:55Z</time></trkpt><trkpt lat="39.53741687288159" lon="8.698043156933766"><ele>98.0</ele><time>2026-04-18T09:13:56Z</time></trkpt><trkpt lat="39.53742191630708" lon="8.697850170293949"><ele>98.0</ele><time>2026-04-18T09:13:57Z</time></trkpt><trkpt lat="39.53742564770802" lon="8.697653290622734"><ele>98.0</ele><time>2026-04-18T09:13:58Z</time></trkpt><trkpt lat="39.53742882435583" lon="8.697459329807016"><ele>98.0</ele><time>2026-04-18T09:13:59Z</time></trkpt><trkpt lat="39.53743229025296" lon="8.69726703141279"><ele>98.0</ele><time>2026-04-18T09:14:00Z</time></trkpt><trkpt lat="39.53743491023178" lon="8.697082245482243"><ele>98.0</ele><time>2026-04-18T09:14:01Z</time></trkpt><trkpt lat="39.53743733682154" lon="8.696904315802717"><ele>98.0</ele><time>2026-04-18T09:14:02Z</time></trkpt><trkpt lat="39.53744116266749" lon="8.696740966274398"><ele>98.0</ele><time>2026-04-18T09:14:03Z</time></trkpt><trkpt lat="39.537444372092544" lon="8.696586682837186"><ele>98.0</ele><time>2026-04-18T09:14:04Z</time></trkpt><trkpt lat="39.53744737596162" lon="8.696435750075572"><ele>98.0</ele><time>2026-04-18T09:14:05Z</time></trkpt><trkpt lat="39.53745061876073" lon="8.696279454166842"><ele>98.0</ele><time>2026-04-18T09:14:06Z</time></trkpt><trkpt lat="39.537454246382914" lon="8.69612453555178"><ele>98.0</ele><time>2026-04-18T09:14:07Z</time></trkpt><trkpt lat="39.5374599441744" lon="8.695968703585217"><ele>98.0</ele><time>2026-04-18T09:14:08Z</time></trkpt><trkpt lat="39.537468321779436" lon="8.695813094057693"><ele>98.0</ele><time>2026-04-18T09:14:09Z</time></trkpt><trkpt lat="39.537480229974" lon="8.695661678073018"><ele>98.0</ele><time>2026-04-18T09:14:10Z</time></trkpt><trkpt lat="39.53749079914464" lon="8.69551536561258"><ele>98.0</ele><time>2026-04-18T09:14:11Z</time></trkpt><trkpt lat="39.5374940539052" lon="8.695381312335623"><ele>98.2</ele><time>2026-04-18T09:14:12Z</time></trkpt><trkpt lat="39.53749481270441" lon="8.695249204129682"><ele>98.4</ele><time>2026-04-18T09:14:13Z</time></trkpt><trkpt lat="39.5374953362684" lon="8.695113391917914"><ele>98.60000000000001</ele><time>2026-04-18T09:14:14Z</time></trkpt><trkpt lat="39.53749765244448" lon="8.694985994544496"><ele>98.80000000000001</ele><time>2026-04-18T09:14:15Z</time></trkpt><trkpt lat="39.53750049839743" lon="8.694867557850701"><ele>99.0</ele><time>2026-04-18T09:14:16Z</time></trkpt><trkpt lat="39.537505150360296" lon="8.694756884141585"><ele>99.0</ele><time>2026-04-18T09:14:17Z</time></trkpt><trkpt lat="39.53750460608073" lon="8.694664462644184"><ele>99.0</ele><time>2026-04-18T09:14:18Z</time></trkpt><trkpt lat="39.537508880632096" lon="8.694516138958969"><ele>99.0</ele><time>2026-04-18T09:14:20Z</time></trkpt><trkpt lat="39.537511775993295" lon="8.694358016696588"><ele>99.0</ele><time>2026-04-18T09:14:22Z</time></trkpt><trkpt lat="39.5375070433987" lon="8.694259845935196"><ele>99.0</ele><time>2026-04-18T09:14:23Z</time></trkpt><trkpt lat="39.53750292490987" lon="8.694151788840449"><ele>99.0</ele><time>2026-04-18T09:14:24Z</time></trkpt><trkpt lat="39.53749890199238" lon="8.694028475158238"><ele>99.0</ele><time>2026-04-18T09:14:25Z</time></trkpt><trkpt lat="39.5375060632225" lon="8.693890078362701"><ele>99.0</ele><time>2026-04-18T09:14:26Z</time></trkpt><trkpt lat="39.53751286681838" lon="8.69373751927743"><ele>99.0</ele><time>2026-04-18T09:14:27Z</time></trkpt><trkpt lat="39.53751571213803" lon="8.693563355059656"><ele>98.66666666666666</ele><time>2026-04-18T09:14:28Z</time></trkpt><trkpt lat="39.5375158684622" lon="8.693367944002643"><ele>98.33333333333333</ele><time>2026-04-18T09:14:29Z</time></trkpt><trkpt lat="39.537515663885465" lon="8.693158719695113"><ele>98.0</ele><time>2026-04-18T09:14:30Z</time></trkpt><trkpt lat="39.53751626380827" lon="8.692938772972427"><ele>97.66666666666666</ele><time>2026-04-18T09:14:31Z</time></trkpt><trkpt lat="39.53752022903005" lon="8.692706571091756"><ele>97.33333333333334</ele><time>2026-04-18T09:14:32Z</time></trkpt><trkpt lat="39.53752417963833" lon="8.692463024476373"><ele>97.0</ele><time>2026-04-18T09:14:33Z</time></trkpt><trkpt lat="39.53752578075449" lon="8.692211727364933"><ele>97.0</ele><time>2026-04-18T09:14:34Z</time></trkpt><trkpt lat="39.537530306040246" lon="8.691954731584747"><ele>97.0</ele><time>2026-04-18T09:14:35Z</time></trkpt><trkpt lat="39.53753476350063" lon="8.691698901640889"><ele>97.0</ele><time>2026-04-18T09:14:36Z</time></trkpt><trkpt lat="39.53753900271588" lon="8.691435194572792"><ele>97.66666666666667</ele><time>2026-04-18T09:14:37Z</time></trkpt><trkpt lat="39.53754333991412" lon="8.691173124618288"><ele>98.33333333333334</ele><time>2026-04-18T09:14:38Z</time></trkpt><trkpt lat="39.53754873367888" lon="8.690897268729906"><ele>99.0</ele><time>2026-04-18T09:14:39Z</time></trkpt><trkpt lat="39.53755320227607" lon="8.690616480558017"><ele>99.5</ele><time>2026-04-18T09:14:40Z</time></trkpt><trkpt lat="39.53755810842429" lon="8.690321444031039"><ele>100.0</ele><time>2026-04-18T09:14:41Z</time></trkpt><trkpt lat="39.53756493585627" lon="8.690010835583488"><ele>100.0</ele><time>2026-04-18T09:14:42Z</time></trkpt><trkpt lat="39.53757196020445" lon="8.689688311076996"><ele>100.0</ele><time>2026-04-18T09:14:43Z</time></trkpt><trkpt lat="39.53757801981165" lon="8.689351423820794"><ele>100.0</ele><time>2026-04-18T09:14:44Z</time></trkpt><trkpt lat="39.53758330197125" lon="8.689003601571505"><ele>100.0</ele><time>2026-04-18T09:14:45Z</time></trkpt><trkpt lat="39.537589237261585" lon="8.68865009416299"><ele>99.5</ele><time>2026-04-18T09:14:46Z</time></trkpt><trkpt lat="39.53759672379421" lon="8.688288270824923"><ele>99.0</ele><time>2026-04-18T09:14:47Z</time></trkpt><trkpt lat="39.5376045705773" lon="8.687922708429527"><ele>99.0</ele><time>2026-04-18T09:14:48Z</time></trkpt><trkpt lat="39.537612764900985" lon="8.687562302690827"><ele>99.0</ele><time>2026-04-18T09:14:49Z</time></trkpt><trkpt lat="39.53761749468881" lon="8.687201716538699"><ele>99.0</ele><time>2026-04-18T09:14:50Z</time></trkpt><trkpt lat="39.53762425047554" lon="8.686838730394289"><ele>99.0</ele><time>2026-04-18T09:14:51Z</time></trkpt><trkpt lat="39.53763272596165" lon="8.68647705146632"><ele>99.0</ele><time>2026-04-18T09:14:52Z</time></trkpt><trkpt lat="39.537640926709656" lon="8.686117144287191"><ele>99.0</ele><time>2026-04-18T09:14:53Z</time></trkpt><trkpt lat="39.537647380930856" lon="8.685763602863574"><ele>98.5</ele><time>2026-04-18T09:14:54Z</time></trkpt><trkpt lat="39.537653926773224" lon="8.685412410685823"><ele>98.0</ele><time>2026-04-18T09:14:55Z</time></trkpt><trkpt lat="39.537659646935836" lon="8.68506073615149"><ele>98.0</ele><time>2026-04-18T09:14:56Z</time></trkpt><trkpt lat="39.53766536000479" lon="8.684708273187862"><ele>98.0</ele><time>2026-04-18T09:14:57Z</time></trkpt><trkpt lat="39.53767119212417" lon="8.68435934164243"><ele>98.0</ele><time>2026-04-18T09:14:58Z</time></trkpt><trkpt lat="39.53767832949317" lon="8.684006678672862"><ele>98.0</ele><time>2026-04-18T09:14:59Z</time></trkpt><trkpt lat="39.53768535383102" lon="8.683657478559201"><ele>98.0</ele><time>2026-04-18T09:15:00Z</time></trkpt><trkpt lat="39.53769487323635" lon="8.683308519843573"><ele>98.0</ele><time>2026-04-18T09:15:01Z</time></trkpt><trkpt lat="39.537700293173295" lon="8.682961369864774"><ele>98.5</ele><time>2026-04-18T09:15:02Z</time></trkpt><trkpt lat="39.5377069321496" lon="8.682617343989854"><ele>99.0</ele><time>2026-04-18T09:15:03Z</time></trkpt><trkpt lat="39.53771428167024" lon="8.68227298664551"><ele>99.5</ele><time>2026-04-18T09:15:04Z</time></trkpt><trkpt lat="39.53772135729311" lon="8.681926282847762"><ele>100.0</ele><time>2026-04-18T09:15:05Z</time></trkpt><trkpt lat="39.53772785951946" lon="8.681577701412309"><ele>100.0</ele><time>2026-04-18T09:15:06Z</time></trkpt><trkpt lat="39.53773440273975" lon="8.681230421799073"><ele>100.0</ele><time>2026-04-18T09:15:07Z</time></trkpt><trkpt lat="39.53774090159312" lon="8.680876461330705"><ele>99.5</ele><time>2026-04-18T09:15:08Z</time></trkpt><trkpt lat="39.53774784555199" lon="8.680519807504652"><ele>99.0</ele><time>2026-04-18T09:15:09Z</time></trkpt><trkpt lat="39.53775494905397" lon="8.680157737846184"><ele>100.0</ele><time>2026-04-18T09:15:10Z</time></trkpt><trkpt lat="39.537760649114944" lon="8.67978848222591"><ele>101.0</ele><time>2026-04-18T09:15:11Z</time></trkpt><trkpt lat="39.53776613732314" lon="8.679418009153549"><ele>101.0</ele><time>2026-04-18T09:15:12Z</time></trkpt><trkpt lat="39.537771743754156" lon="8.67904845918636"><ele>101.0</ele><time>2026-04-18T09:15:13Z</time></trkpt><trkpt lat="39.5377793853702" lon="8.678679312156358"><ele>101.0</ele><time>2026-04-18T09:15:14Z</time></trkpt><trkpt lat="39.537787632629" lon="8.678308036931998"><ele>101.0</ele><time>2026-04-18T09:15:15Z</time></trkpt><trkpt lat="39.53779518088892" lon="8.677938424628273"><ele>101.5</ele><time>2026-04-18T09:15:16Z</time></trkpt><trkpt lat="39.537801810948515" lon="8.677565229206799"><ele>102.0</ele><time>2026-04-18T09:15:17Z</time></trkpt><trkpt lat="39.53780869466289" lon="8.677195060944456"><ele>102.0</ele><time>2026-04-18T09:15:18Z</time></trkpt><trkpt lat="39.537815562451705" lon="8.676827092288459"><ele>102.0</ele><time>2026-04-18T09:15:19Z</time></trkpt><trkpt lat="39.53782385802782" lon="8.676451768170867"><ele>102.0</ele><time>2026-04-18T09:15:20Z</time></trkpt><trkpt lat="39.53783109426897" lon="8.676071670108742"><ele>102.0</ele><time>2026-04-18T09:15:21Z</time></trkpt><trkpt lat="39.537834956748455" lon="8.675691519534825"><ele>102.0</ele><time>2026-04-18T09:15:22Z</time></trkpt><trkpt lat="39.53784333560831" lon="8.67531147395692"><ele>102.0</ele><time>2026-04-18T09:15:23Z</time></trkpt><trkpt lat="39.53785045863369" lon="8.674936405051879"><ele>102.0</ele><time>2026-04-18T09:15:24Z</time></trkpt><trkpt lat="39.537858500252" lon="8.674568953629308"><ele>102.0</ele><time>2026-04-18T09:15:25Z</time></trkpt><trkpt lat="39.537867406569596" lon="8.674204350956593"><ele>102.0</ele><time>2026-04-18T09:15:26Z</time></trkpt><trkpt lat="39.53787468642669" lon="8.673845324601068"><ele>102.0</ele><time>2026-04-18T09:15:27Z</time></trkpt><trkpt lat="39.53788081225001" lon="8.673490330034644"><ele>101.5</ele><time>2026-04-18T09:15:28Z</time></trkpt><trkpt lat="39.537886406614916" lon="8.673139938072621"><ele>101.0</ele><time>2026-04-18T09:15:29Z</time></trkpt><trkpt lat="39.53789090874578" lon="8.672808078714798"><ele>101.0</ele><time>2026-04-18T09:15:30Z</time></trkpt><trkpt lat="39.537895829030774" lon="8.67247228022187"><ele>101.0</ele><time>2026-04-18T09:15:31Z</time></trkpt><trkpt lat="39.537901383443796" lon="8.67213700192228"><ele>101.0</ele><time>2026-04-18T09:15:32Z</time></trkpt><trkpt lat="39.53790791280854" lon="8.671804067032044"><ele>101.0</ele><time>2026-04-18T09:15:33Z</time></trkpt><trkpt lat="39.537914094560215" lon="8.671468736223222"><ele>101.0</ele><time>2026-04-18T09:15:34Z</time></trkpt><trkpt lat="39.537920306829164" lon="8.671137141780479"><ele>101.0</ele><time>2026-04-18T09:15:35Z</time></trkpt><trkpt lat="39.537926040024324" lon="8.670804024066353"><ele>101.0</ele><time>2026-04-18T09:15:36Z</time></trkpt><trkpt lat="39.53793178225091" lon="8.670461337757885"><ele>101.0</ele><time>2026-04-18T09:15:37Z</time></trkpt><trkpt lat="39.53794016238909" lon="8.670131307570477"><ele>101.0</ele><time>2026-04-18T09:15:38Z</time></trkpt><trkpt lat="39.53794766976025" lon="8.669811767194162"><ele>101.0</ele><time>2026-04-18T09:15:39Z</time></trkpt><trkpt lat="39.53795251061203" lon="8.669496433486351"><ele>102.0</ele><time>2026-04-18T09:15:40Z</time></trkpt><trkpt lat="39.53795705544468" lon="8.66918322623074"><ele>103.0</ele><time>2026-04-18T09:15:41Z</time></trkpt><trkpt lat="39.53796155717649" lon="8.66887342149015"><ele>103.5</ele><time>2026-04-18T09:15:42Z</time></trkpt><trkpt lat="39.53796703360919" lon="8.668569079439855"><ele>104.0</ele><time>2026-04-18T09:15:43Z</time></trkpt><trkpt lat="39.53797435806835" lon="8.668268303262229"><ele>104.0</ele><time>2026-04-18T09:15:44Z</time></trkpt><trkpt lat="39.53798156039877" lon="8.667972418314449"><ele>104.0</ele><time>2026-04-18T09:15:45Z</time></trkpt><trkpt lat="39.5379883535069" lon="8.667683562653911"><ele>103.33333333333333</ele><time>2026-04-18T09:15:46Z</time></trkpt><trkpt lat="39.53799386362268" lon="8.667391406532747"><ele>102.66666666666666</ele><time>2026-04-18T09:15:47Z</time></trkpt><trkpt lat="39.53799948005302" lon="8.667103633411537"><ele>102.0</ele><time>2026-04-18T09:15:48Z</time></trkpt><trkpt lat="39.53800471363118" lon="8.666820771740472"><ele>101.0</ele><time>2026-04-18T09:15:49Z</time></trkpt><trkpt lat="39.538010098445746" lon="8.666537176613597"><ele>100.0</ele><time>2026-04-18T09:15:50Z</time></trkpt><trkpt lat="39.538014701601554" lon="8.666255532638656"><ele>99.0</ele><time>2026-04-18T09:15:51Z</time></trkpt><trkpt lat="39.53801928534312" lon="8.66597512649159"><ele>99.0</ele><time>2026-04-18T09:15:52Z</time></trkpt><trkpt lat="39.538024143160406" lon="8.665695394083292"><ele>99.0</ele><time>2026-04-18T09:15:53Z</time></trkpt><trkpt lat="39.53802989711978" lon="8.66541668813395"><ele>99.0</ele><time>2026-04-18T09:15:54Z</time></trkpt><trkpt lat="39.538035910877895" lon="8.665139064706372"><ele>99.0</ele><time>2026-04-18T09:15:55Z</time></trkpt><trkpt lat="39.53804089870105" lon="8.664856204929198"><ele>99.0</ele><time>2026-04-18T09:15:56Z</time></trkpt><trkpt lat="39.53804568134123" lon="8.664570870757"><ele>99.0</ele><time>2026-04-18T09:15:57Z</time></trkpt><trkpt lat="39.53805155197734" lon="8.664283489311767"><ele>99.0</ele><time>2026-04-18T09:15:58Z</time></trkpt><trkpt lat="39.538057060530576" lon="8.663998228222859"><ele>99.0</ele><time>2026-04-18T09:15:59Z</time></trkpt><trkpt lat="39.538062890775926" lon="8.663717118681797"><ele>99.0</ele><time>2026-04-18T09:16:00Z</time></trkpt><trkpt lat="39.53806800035741" lon="8.66344266195148"><ele>99.0</ele><time>2026-04-18T09:16:01Z</time></trkpt><trkpt lat="39.538072740602104" lon="8.663177220759115"><ele>99.0</ele><time>2026-04-18T09:16:02Z</time></trkpt><trkpt lat="39.53807797834296" lon="8.662915013822051"><ele>99.0</ele><time>2026-04-18T09:16:03Z</time></trkpt><trkpt lat="39.538083732886136" lon="8.662648121414797"><ele>98.66666666666666</ele><time>2026-04-18T09:16:04Z</time></trkpt><trkpt lat="39.53808826578501" lon="8.662379050555831"><ele>98.33333333333333</ele><time>2026-04-18T09:16:05Z</time></trkpt><trkpt lat="39.53809556928344" lon="8.662109707043854"><ele>98.0</ele><time>2026-04-18T09:16:06Z</time></trkpt><trkpt lat="39.538105189143764" lon="8.66183660005952"><ele>98.0</ele><time>2026-04-18T09:16:07Z</time></trkpt><trkpt lat="39.53811343476189" lon="8.661566038188266"><ele>98.0</ele><time>2026-04-18T09:16:08Z</time></trkpt><trkpt lat="39.538120877077866" lon="8.661297898328161"><ele>98.0</ele><time>2026-04-18T09:16:09Z</time></trkpt><trkpt lat="39.538128372346186" lon="8.66103095305287"><ele>98.0</ele><time>2026-04-18T09:16:10Z</time></trkpt><trkpt lat="39.5381404368199" lon="8.660767346959897"><ele>98.0</ele><time>2026-04-18T09:16:11Z</time></trkpt><trkpt lat="39.53816637319018" lon="8.660521084350096"><ele>98.0</ele><time>2026-04-18T09:16:12Z</time></trkpt><trkpt lat="39.538199445002206" lon="8.660286189595197"><ele>98.0</ele><time>2026-04-18T09:16:13Z</time></trkpt><trkpt lat="39.53825841698766" lon="8.660073453236583"><ele>98.0</ele><time>2026-04-18T09:16:14Z</time></trkpt><trkpt lat="39.53831045959565" lon="8.659861135986606"><ele>98.0</ele><time>2026-04-18T09:16:15Z</time></trkpt><trkpt lat="39.53836140012234" lon="8.659651717735553"><ele>98.33333333333333</ele><time>2026-04-18T09:16:16Z</time></trkpt><trkpt lat="39.538415472338" lon="8.659444095348576"><ele>98.66666666666666</ele><time>2026-04-18T09:16:17Z</time></trkpt><trkpt lat="39.538473982989764" lon="8.659226701126899"><ele>99.0</ele><time>2026-04-18T09:16:18Z</time></trkpt><trkpt lat="39.538531215656725" lon="8.659004094195684"><ele>99.0</ele><time>2026-04-18T09:16:19Z</time></trkpt><trkpt lat="39.538584202566184" lon="8.658773026306687"><ele>99.0</ele><time>2026-04-18T09:16:20Z</time></trkpt><trkpt lat="39.53863128517815" lon="8.658533223584605"><ele>99.0</ele><time>2026-04-18T09:16:21Z</time></trkpt><trkpt lat="39.53866904113954" lon="8.658284874177221"><ele>100.0</ele><time>2026-04-18T09:16:22Z</time></trkpt><trkpt lat="39.53869011939187" lon="8.65804513232994"><ele>101.0</ele><time>2026-04-18T09:16:23Z</time></trkpt><trkpt lat="39.53869719197216" lon="8.657792348743262"><ele>102.0</ele><time>2026-04-18T09:16:24Z</time></trkpt><trkpt lat="39.53869456179222" lon="8.657540008313925"><ele>102.0</ele><time>2026-04-18T09:16:25Z</time></trkpt><trkpt lat="39.53869078770122" lon="8.657285979935228"><ele>102.0</ele><time>2026-04-18T09:16:26Z</time></trkpt><trkpt lat="39.53868682535986" lon="8.657030076430834"><ele>102.0</ele><time>2026-04-18T09:16:27Z</time></trkpt><trkpt lat="39.538679090592424" lon="8.656773552918278"><ele>102.0</ele><time>2026-04-18T09:16:28Z</time></trkpt><trkpt lat="39.538667156491755" lon="8.656511170835504"><ele>102.0</ele><time>2026-04-18T09:16:29Z</time></trkpt><trkpt lat="39.53865809809168" lon="8.656249202146142"><ele>102.0</ele><time>2026-04-18T09:16:30Z</time></trkpt><trkpt lat="39.53865154553226" lon="8.655981406832908"><ele>102.0</ele><time>2026-04-18T09:16:31Z</time></trkpt><trkpt lat="39.5386444930805" lon="8.655717991752315"><ele>102.0</ele><time>2026-04-18T09:16:32Z</time></trkpt><trkpt lat="39.538636223173626" lon="8.655454704589083"><ele>102.0</ele><time>2026-04-18T09:16:33Z</time></trkpt><trkpt lat="39.53862867070422" lon="8.655191504796456"><ele>102.0</ele><time>2026-04-18T09:16:34Z</time></trkpt><trkpt lat="39.53862413119769" lon="8.654930133064779"><ele>102.0</ele><time>2026-04-18T09:16:35Z</time></trkpt><trkpt lat="39.538621738129905" lon="8.654675834947875"><ele>102.0</ele><time>2026-04-18T09:16:36Z</time></trkpt><trkpt lat="39.53861348513732" lon="8.654431630132116"><ele>102.33333333333334</ele><time>2026-04-18T09:16:37Z</time></trkpt><trkpt lat="39.53859561371608" lon="8.654196029325549"><ele>102.66666666666667</ele><time>2026-04-18T09:16:38Z</time></trkpt><trkpt lat="39.53856237458655" lon="8.653965788477711"><ele>103.0</ele><time>2026-04-18T09:16:39Z</time></trkpt><trkpt lat="39.5385102611994" lon="8.653751624667372"><ele>102.66666666666667</ele><time>2026-04-18T09:16:40Z</time></trkpt><trkpt lat="39.538433174896504" lon="8.653551720567005"><ele>102.33333333333334</ele><time>2026-04-18T09:16:41Z</time></trkpt><trkpt lat="39.53835698595549" lon="8.653345623828766"><ele>102.0</ele><time>2026-04-18T09:16:42Z</time></trkpt><trkpt lat="39.53826517071757" lon="8.65314791119449"><ele>102.0</ele><time>2026-04-18T09:16:43Z</time></trkpt><trkpt lat="39.538158496058045" lon="8.652959271403539"><ele>102.0</ele><time>2026-04-18T09:16:44Z</time></trkpt><trkpt lat="39.53806628608369" lon="8.652754690027882"><ele>102.0</ele><time>2026-04-18T09:16:45Z</time></trkpt><trkpt lat="39.53796906494976" lon="8.652546353022219"><ele>102.0</ele><time>2026-04-18T09:16:46Z</time></trkpt><trkpt lat="39.53787067143063" lon="8.652335202584853"><ele>102.0</ele><time>2026-04-18T09:16:47Z</time></trkpt><trkpt lat="39.53776980545334" lon="8.652118607215058"><ele>102.0</ele><time>2026-04-18T09:16:48Z</time></trkpt><trkpt lat="39.537667352047386" lon="8.651901440285561"><ele>102.0</ele><time>2026-04-18T09:16:49Z</time></trkpt><trkpt lat="39.53755812156275" lon="8.651686675747449"><ele>102.0</ele><time>2026-04-18T09:16:50Z</time></trkpt><trkpt lat="39.53743941658394" lon="8.651477454753792"><ele>102.0</ele><time>2026-04-18T09:16:51Z</time></trkpt><trkpt lat="39.53731599805695" lon="8.65127814943058"><ele>102.33333333333334</ele><time>2026-04-18T09:16:52Z</time></trkpt><trkpt lat="39.53719149034135" lon="8.65108136378973"><ele>102.66666666666667</ele><time>2026-04-18T09:16:53Z</time></trkpt><trkpt lat="39.53706757810926" lon="8.650885805161407"><ele>103.0</ele><time>2026-04-18T09:16:54Z</time></trkpt><trkpt lat="39.536955507329445" lon="8.650675004603473"><ele>103.0</ele><time>2026-04-18T09:16:55Z</time></trkpt><trkpt lat="39.53683157597123" lon="8.65047780891741"><ele>103.0</ele><time>2026-04-18T09:16:56Z</time></trkpt><trkpt lat="39.536707963416106" lon="8.650283780864193"><ele>103.0</ele><time>2026-04-18T09:16:57Z</time></trkpt><trkpt lat="39.536569690155126" lon="8.650101260959225"><ele>102.66666666666667</ele><time>2026-04-18T09:16:58Z</time></trkpt><trkpt lat="39.5364388716814" lon="8.649913420505946"><ele>102.33333333333334</ele><time>2026-04-18T09:16:59Z</time></trkpt><trkpt lat="39.53630848945099" lon="8.649732399321145"><ele>102.0</ele><time>2026-04-18T09:17:00Z</time></trkpt><trkpt lat="39.53618593431095" lon="8.649548569774481"><ele>103.0</ele><time>2026-04-18T09:17:01Z</time></trkpt><trkpt lat="39.536075730245884" lon="8.649349331110495"><ele>104.0</ele><time>2026-04-18T09:17:02Z</time></trkpt><trkpt lat="39.535978111379116" lon="8.649139687189386"><ele>105.0</ele><time>2026-04-18T09:17:03Z</time></trkpt><trkpt lat="39.53588305409532" lon="8.6489258729149"><ele>105.0</ele><time>2026-04-18T09:17:04Z</time></trkpt><trkpt lat="39.535791598932406" lon="8.648708806242077"><ele>105.0</ele><time>2026-04-18T09:17:05Z</time></trkpt><trkpt lat="39.53570702250614" lon="8.648487112839057"><ele>105.0</ele><time>2026-04-18T09:17:06Z</time></trkpt><trkpt lat="39.5356266046319" lon="8.648261084432349"><ele>104.33333333333334</ele><time>2026-04-18T09:17:07Z</time></trkpt><trkpt lat="39.53555285492006" lon="8.648031374619626"><ele>103.66666666666667</ele><time>2026-04-18T09:17:08Z</time></trkpt><trkpt lat="39.53548552501575" lon="8.647801330310406"><ele>103.0</ele><time>2026-04-18T09:17:09Z</time></trkpt><trkpt lat="39.5354232924399" lon="8.64756994364254"><ele>103.66666666666667</ele><time>2026-04-18T09:17:10Z</time></trkpt><trkpt lat="39.5353635837325" lon="8.647341086703298"><ele>104.33333333333334</ele><time>2026-04-18T09:17:11Z</time></trkpt><trkpt lat="39.53530804106267" lon="8.647116023792812"><ele>105.0</ele><time>2026-04-18T09:17:12Z</time></trkpt><trkpt lat="39.535259908254844" lon="8.646892746616773"><ele>105.0</ele><time>2026-04-18T09:17:13Z</time></trkpt><trkpt lat="39.53521257265806" lon="8.64666569389677"><ele>105.0</ele><time>2026-04-18T09:17:14Z</time></trkpt><trkpt lat="39.53516277245909" lon="8.646441111006803"><ele>105.0</ele><time>2026-04-18T09:17:15Z</time></trkpt><trkpt lat="39.535114844971" lon="8.646215886501398"><ele>105.33333333333334</ele><time>2026-04-18T09:17:16Z</time></trkpt><trkpt lat="39.53507445298851" lon="8.64598393799272"><ele>105.66666666666667</ele><time>2026-04-18T09:17:17Z</time></trkpt><trkpt lat="39.535044740210175" lon="8.645754480318837"><ele>106.0</ele><time>2026-04-18T09:17:18Z</time></trkpt><trkpt lat="39.535035918946384" lon="8.645517048187834"><ele>107.0</ele><time>2026-04-18T09:17:19Z</time></trkpt><trkpt lat="39.535045158358336" lon="8.64528106880712"><ele>108.0</ele><time>2026-04-18T09:17:20Z</time></trkpt><trkpt lat="39.53506456903326" lon="8.645044290472063"><ele>109.0</ele><time>2026-04-18T09:17:21Z</time></trkpt><trkpt lat="39.53507875396527" lon="8.644809754110055"><ele>109.0</ele><time>2026-04-18T09:17:22Z</time></trkpt><trkpt lat="39.535090064244436" lon="8.644571443950086"><ele>109.0</ele><time>2026-04-18T09:17:23Z</time></trkpt><trkpt lat="39.53510078474994" lon="8.644335425376894"><ele>109.0</ele><time>2026-04-18T09:17:24Z</time></trkpt><trkpt lat="39.53511096641293" lon="8.644101401952392"><ele>109.0</ele><time>2026-04-18T09:17:25Z</time></trkpt><trkpt lat="39.535120895418736" lon="8.6438712627897"><ele>109.0</ele><time>2026-04-18T09:17:26Z</time></trkpt><trkpt lat="39.53513318011215" lon="8.64364482499819"><ele>109.0</ele><time>2026-04-18T09:17:27Z</time></trkpt><trkpt lat="39.53514744890729" lon="8.643417380158674"><ele>109.0</ele><time>2026-04-18T09:17:28Z</time></trkpt><trkpt lat="39.53516230765837" lon="8.643198164594256"><ele>109.0</ele><time>2026-04-18T09:17:29Z</time></trkpt><trkpt lat="39.53518805047993" lon="8.642985452999719"><ele>109.0</ele><time>2026-04-18T09:17:30Z</time></trkpt><trkpt lat="39.53523195775486" lon="8.642785305626607"><ele>109.33333333333334</ele><time>2026-04-18T09:17:31Z</time></trkpt><trkpt lat="39.535289960301164" lon="8.642598477762359"><ele>109.66666666666666</ele><time>2026-04-18T09:17:32Z</time></trkpt><trkpt lat="39.53534735472332" lon="8.642430639273472"><ele>110.0</ele><time>2026-04-18T09:17:33Z</time></trkpt><trkpt lat="39.535441763756104" lon="8.642144048166363"><ele>109.99999999999999</ele><time>2026-04-18T09:17:35Z</time></trkpt><trkpt lat="39.535481208179704" lon="8.642026391170988"><ele>110.0</ele><time>2026-04-18T09:17:36Z</time></trkpt><trkpt lat="39.5355128744196" lon="8.641926967001773"><ele>110.0</ele><time>2026-04-18T09:17:37Z</time></trkpt><trkpt lat="39.53554240447733" lon="8.641831624657316"><ele>110.0</ele><time>2026-04-18T09:17:38Z</time></trkpt><trkpt lat="39.53557105611341" lon="8.641747668988659"><ele>109.99999999999999</ele><time>2026-04-18T09:17:39Z</time></trkpt><trkpt lat="39.53561039695909" lon="8.641628967479656"><ele>110.0</ele><time>2026-04-18T09:17:41Z</time></trkpt><trkpt lat="39.535649812805374" lon="8.64151366750973"><ele>110.0</ele><time>2026-04-18T09:17:43Z</time></trkpt><trkpt lat="39.53571139424268" lon="8.64135587746101"><ele>110.0</ele><time>2026-04-18T09:17:45Z</time></trkpt><trkpt lat="39.53573947361454" lon="8.641255259238848"><ele>110.0</ele><time>2026-04-18T09:17:46Z</time></trkpt><trkpt lat="39.535770395550465" lon="8.641144467952294"><ele>110.0</ele><time>2026-04-18T09:17:47Z</time></trkpt><trkpt lat="39.53580580406405" lon="8.64102399069267"><ele>110.0</ele><time>2026-04-18T09:17:48Z</time></trkpt><trkpt lat="39.53584645174739" lon="8.640896242805882"><ele>110.5</ele><time>2026-04-18T09:17:49Z</time></trkpt><trkpt lat="39.53589132900258" lon="8.640761486658263"><ele>111.0</ele><time>2026-04-18T09:17:50Z</time></trkpt><trkpt lat="39.53593454917807" lon="8.64062075736914"><ele>111.5</ele><time>2026-04-18T09:17:51Z</time></trkpt><trkpt lat="39.53597579048825" lon="8.64047401710601"><ele>112.0</ele><time>2026-04-18T09:17:52Z</time></trkpt><trkpt lat="39.536016971877096" lon="8.640329584556133"><ele>113.25</ele><time>2026-04-18T09:17:53Z</time></trkpt><trkpt lat="39.536060438556284" lon="8.640189198690836"><ele>114.5</ele><time>2026-04-18T09:17:54Z</time></trkpt><trkpt lat="39.53610244629174" lon="8.640050307169359"><ele>115.75</ele><time>2026-04-18T09:17:55Z</time></trkpt><trkpt lat="39.53614566442056" lon="8.639915946519402"><ele>117.0</ele><time>2026-04-18T09:17:56Z</time></trkpt><trkpt lat="39.53619091227338" lon="8.639786267317168"><ele>115.6</ele><time>2026-04-18T09:17:57Z</time></trkpt><trkpt lat="39.536239674008904" lon="8.639669995450278"><ele>114.19999999999999</ele><time>2026-04-18T09:17:58Z</time></trkpt><trkpt lat="39.53629918204131" lon="8.639569744040656"><ele>112.8</ele><time>2026-04-18T09:17:59Z</time></trkpt><trkpt lat="39.53636971014494" lon="8.639490977581884"><ele>111.4</ele><time>2026-04-18T09:18:00Z</time></trkpt><trkpt lat="39.53644595655132" lon="8.639423923157924"><ele>110.0</ele><time>2026-04-18T09:18:01Z</time></trkpt><trkpt lat="39.536528349594235" lon="8.639367757217482"><ele>109.83333333333333</ele><time>2026-04-18T09:18:02Z</time></trkpt><trkpt lat="39.53660481210616" lon="8.639320951669681"><ele>109.66666666666666</ele><time>2026-04-18T09:18:03Z</time></trkpt><trkpt lat="39.53665680925932" lon="8.639260981525192"><ele>109.5</ele><time>2026-04-18T09:18:04Z</time></trkpt><trkpt lat="39.53665633286061" lon="8.639108747557742"><ele>109.33333333333334</ele><time>2026-04-18T09:18:06Z</time></trkpt><trkpt lat="39.536620893573655" lon="8.639026167759221"><ele>109.16666666666667</ele><time>2026-04-18T09:18:07Z</time></trkpt><trkpt lat="39.53656816170441" lon="8.638944014285613"><ele>109.0</ele><time>2026-04-18T09:18:08Z</time></trkpt><trkpt lat="39.53652614249894" lon="8.638842887429048"><ele>109.0</ele><time>2026-04-18T09:18:09Z</time></trkpt><trkpt lat="39.53650640382266" lon="8.638722374776473"><ele>109.0</ele><time>2026-04-18T09:18:10Z</time></trkpt><trkpt lat="39.53651443533186" lon="8.63859132713977"><ele>109.0</ele><time>2026-04-18T09:18:11Z</time></trkpt><trkpt lat="39.53654298881572" lon="8.638454232659504"><ele>109.0</ele><time>2026-04-18T09:18:12Z</time></trkpt><trkpt lat="39.536580669752915" lon="8.638318061957667"><ele>109.0</ele><time>2026-04-18T09:18:13Z</time></trkpt><trkpt lat="39.53662293118412" lon="8.638173834725084"><ele>110.0</ele><time>2026-04-18T09:18:14Z</time></trkpt><trkpt lat="39.536665259041605" lon="8.638023279465326"><ele>111.0</ele><time>2026-04-18T09:18:15Z</time></trkpt><trkpt lat="39.536706949181564" lon="8.637864550678644"><ele>112.0</ele><time>2026-04-18T09:18:16Z</time></trkpt><trkpt lat="39.536748869284224" lon="8.637701848902474"><ele>113.0</ele><time>2026-04-18T09:18:17Z</time></trkpt><trkpt lat="39.536791282757484" lon="8.637538185863333"><ele>113.25</ele><time>2026-04-18T09:18:18Z</time></trkpt><trkpt lat="39.53683462560013" lon="8.63737668497229"><ele>113.5</ele><time>2026-04-18T09:18:19Z</time></trkpt><trkpt lat="39.53687678566833" lon="8.637221690568492"><ele>113.75</ele><time>2026-04-18T09:18:20Z</time></trkpt><trkpt lat="39.53691691943133" lon="8.637072508220838"><ele>114.0</ele><time>2026-04-18T09:18:21Z</time></trkpt><trkpt lat="39.53695573997752" lon="8.636928081060882"><ele>114.4</ele><time>2026-04-18T09:18:22Z</time></trkpt><trkpt lat="39.53699401468084" lon="8.636789383394765"><ele>114.80000000000001</ele><time>2026-04-18T09:18:23Z</time></trkpt><trkpt lat="39.53703173835154" lon="8.636660058153392"><ele>115.19999999999999</ele><time>2026-04-18T09:18:24Z</time></trkpt><trkpt lat="39.537062326777544" lon="8.636545107139526"><ele>115.6</ele><time>2026-04-18T09:18:25Z</time></trkpt><trkpt lat="39.53708272949926" lon="8.63645814078273"><ele>116.0</ele><time>2026-04-18T09:18:26Z</time></trkpt><trkpt lat="39.537108974476865" lon="8.636361918175037"><ele>116.6</ele><time>2026-04-18T09:18:28Z</time></trkpt><trkpt lat="39.537151744031675" lon="8.6361899030792"><ele>117.19999999999999</ele><time>2026-04-18T09:18:59Z</time></trkpt><trkpt lat="39.537179245024596" lon="8.636088785740595"><ele>117.80000000000001</ele><time>2026-04-18T09:19:00Z</time></trkpt><trkpt lat="39.53720210700667" lon="8.635969435915102"><ele>118.4</ele><time>2026-04-18T09:19:01Z</time></trkpt><trkpt lat="39.53723394021857" lon="8.635862930322784"><ele>119.0</ele><time>2026-04-18T09:19:02Z</time></trkpt><trkpt lat="39.537263740844296" lon="8.635767131914278"><ele>119.33333333333333</ele><time>2026-04-18T09:19:03Z</time></trkpt><trkpt lat="39.53728846461426" lon="8.635673568621211"><ele>119.66666666666666</ele><time>2026-04-18T09:19:04Z</time></trkpt><trkpt lat="39.53731247256088" lon="8.635578022753256"><ele>120.0</ele><time>2026-04-18T09:19:05Z</time></trkpt><trkpt lat="39.53733869961558" lon="8.635474546731828"><ele>120.33333333333334</ele><time>2026-04-18T09:19:06Z</time></trkpt><trkpt lat="39.53736637052018" lon="8.6353713573269"><ele>120.66666666666667</ele><time>2026-04-18T09:19:07Z</time></trkpt><trkpt lat="39.53739877776035" lon="8.635270467797843"><ele>121.0</ele><time>2026-04-18T09:19:08Z</time></trkpt><trkpt lat="39.537429823116845" lon="8.635173217138913"><ele>121.00000000000001</ele><time>2026-04-18T09:19:09Z</time></trkpt><trkpt lat="39.537457875522385" lon="8.635074506050218"><ele>121.0</ele><time>2026-04-18T09:19:10Z</time></trkpt><trkpt lat="39.53748095349207" lon="8.63497045050466"><ele>121.0</ele><time>2026-04-18T09:19:11Z</time></trkpt><trkpt lat="39.53750257037312" lon="8.634863716567716"><ele>121.0</ele><time>2026-04-18T09:19:12Z</time></trkpt><trkpt lat="39.53752842469563" lon="8.63475477571951"><ele>121.00000000000001</ele><time>2026-04-18T09:19:13Z</time></trkpt><trkpt lat="39.53757212966869" lon="8.63465452325186"><ele>121.0</ele><time>2026-04-18T09:19:14Z</time></trkpt><trkpt lat="39.53760066774906" lon="8.634551154124207"><ele>120.83333333333334</ele><time>2026-04-18T09:19:15Z</time></trkpt><trkpt lat="39.537611290396" lon="8.634452176989184"><ele>120.66666666666667</ele><time>2026-04-18T09:19:16Z</time></trkpt><trkpt lat="39.53764883916584" lon="8.634376525918624"><ele>120.5</ele><time>2026-04-18T09:19:17Z</time></trkpt><trkpt lat="39.537676512866824" lon="8.634273825136994"><ele>120.33333333333334</ele><time>2026-04-18T09:19:19Z</time></trkpt><trkpt lat="39.53768977382846" lon="8.634162708092031"><ele>120.16666666666667</ele><time>2026-04-18T09:19:26Z</time></trkpt><trkpt lat="39.5377457267686" lon="8.634016527116918"><ele>120.0</ele><time>2026-04-18T09:19:29Z</time></trkpt><trkpt lat="39.537766958683356" lon="8.633937181994973"><ele>120.0</ele><time>2026-04-18T09:19:30Z</time></trkpt><trkpt lat="39.53779737263789" lon="8.633823527095817"><ele>120.0</ele><time>2026-04-18T09:19:31Z</time></trkpt><trkpt lat="39.53782700098665" lon="8.63370480540923"><ele>120.0</ele><time>2026-04-18T09:19:32Z</time></trkpt><trkpt lat="39.53785898752492" lon="8.633577556597483"><ele>120.0</ele><time>2026-04-18T09:19:33Z</time></trkpt><trkpt lat="39.537892341242895" lon="8.63344422918517"><ele>120.0</ele><time>2026-04-18T09:19:34Z</time></trkpt><trkpt lat="39.53792626933843" lon="8.633308608753095"><ele>120.5</ele><time>2026-04-18T09:19:35Z</time></trkpt><trkpt lat="39.53791950326672" lon="8.633147213118468"><ele>121.0</ele><time>2026-04-18T09:19:36Z</time></trkpt><trkpt lat="39.53795787568218" lon="8.63300227187264"><ele>121.5</ele><time>2026-04-18T09:19:37Z</time></trkpt><trkpt lat="39.537997484061265" lon="8.632853404046203"><ele>122.0</ele><time>2026-04-18T09:19:38Z</time></trkpt><trkpt lat="39.53804132105041" lon="8.632706242439452"><ele>122.25</ele><time>2026-04-18T09:19:39Z</time></trkpt><trkpt lat="39.538086106701584" lon="8.632562807392816"><ele>122.5</ele><time>2026-04-18T09:19:40Z</time></trkpt><trkpt lat="39.538124597348286" lon="8.632418874766769"><ele>122.75</ele><time>2026-04-18T09:19:41Z</time></trkpt><trkpt lat="39.53817009771706" lon="8.63228903873534"><ele>123.0</ele><time>2026-04-18T09:19:42Z</time></trkpt><trkpt lat="39.53821190219541" lon="8.632159840176936"><ele>123.0</ele><time>2026-04-18T09:19:43Z</time></trkpt><trkpt lat="39.538245880078854" lon="8.63202598054558"><ele>123.00000000000001</ele><time>2026-04-18T09:19:44Z</time></trkpt><trkpt lat="39.53827661318038" lon="8.631906018510303"><ele>123.00000000000001</ele><time>2026-04-18T09:19:45Z</time></trkpt><trkpt lat="39.53830778206453" lon="8.631785990081905"><ele>123.0</ele><time>2026-04-18T09:19:46Z</time></trkpt><trkpt lat="39.538338733890605" lon="8.631667965260124"><ele>123.0</ele><time>2026-04-18T09:19:47Z</time></trkpt><trkpt lat="39.53836411941606" lon="8.631556365485803"><ele>123.0</ele><time>2026-04-18T09:19:48Z</time></trkpt><trkpt lat="39.53838318097318" lon="8.631468685425142"><ele>123.0</ele><time>2026-04-18T09:19:49Z</time></trkpt><trkpt lat="39.53839386120097" lon="8.631376944499262"><ele>123.0</ele><time>2026-04-18T09:20:11Z</time></trkpt><trkpt lat="39.538423335027254" lon="8.631269297834859"><ele>123.0</ele><time>2026-04-18T09:20:13Z</time></trkpt><trkpt lat="39.538450260322385" lon="8.631155311512401"><ele>123.0</ele><time>2026-04-18T09:20:15Z</time></trkpt><trkpt lat="39.538482888851924" lon="8.631016155175367"><ele>123.0</ele><time>2026-04-18T09:20:17Z</time></trkpt><trkpt lat="39.53850470420655" lon="8.630934632593137"><ele>123.0</ele><time>2026-04-18T09:20:18Z</time></trkpt><trkpt lat="39.53852538495103" lon="8.630855877412642"><ele>123.0</ele><time>2026-04-18T09:20:19Z</time></trkpt><trkpt lat="39.5385640187472" lon="8.630696698515763"><ele>123.0</ele><time>2026-04-18T09:20:21Z</time></trkpt><trkpt lat="39.538583220497394" lon="8.630607677268289"><ele>123.0</ele><time>2026-04-18T09:20:22Z</time></trkpt><trkpt lat="39.53860459646296" lon="8.630523606837473"><ele>123.0</ele><time>2026-04-18T09:20:23Z</time></trkpt><trkpt lat="39.53862915172865" lon="8.63038083390303"><ele>123.0</ele><time>2026-04-18T09:20:25Z</time></trkpt><trkpt lat="39.53867392940445" lon="8.630216257362157"><ele>123.2</ele><time>2026-04-18T09:20:27Z</time></trkpt><trkpt lat="39.53870932599792" lon="8.630113364669771"><ele>123.4</ele><time>2026-04-18T09:20:28Z</time></trkpt><trkpt lat="39.53873911700166" lon="8.62999619026509"><ele>123.60000000000001</ele><time>2026-04-18T09:20:29Z</time></trkpt><trkpt lat="39.538770516044906" lon="8.629872536551714"><ele>123.80000000000001</ele><time>2026-04-18T09:20:30Z</time></trkpt><trkpt lat="39.53880164106867" lon="8.629739995787073"><ele>124.0</ele><time>2026-04-18T09:20:31Z</time></trkpt><trkpt lat="39.53883338245576" lon="8.629603197989658"><ele>124.33333333333334</ele><time>2026-04-18T09:20:32Z</time></trkpt><trkpt lat="39.53886759840437" lon="8.629474456209717"><ele>124.66666666666667</ele><time>2026-04-18T09:20:33Z</time></trkpt><trkpt lat="39.53889654945431" lon="8.629362952359429"><ele>125.0</ele><time>2026-04-18T09:20:34Z</time></trkpt><trkpt lat="39.538915489853" lon="8.62925741551325"><ele>125.33333333333334</ele><time>2026-04-18T09:20:35Z</time></trkpt><trkpt lat="39.53893205123129" lon="8.629167690531743"><ele>125.66666666666667</ele><time>2026-04-18T09:20:36Z</time></trkpt><trkpt lat="39.53894840462627" lon="8.629085155141716"><ele>126.0</ele><time>2026-04-18T09:20:37Z</time></trkpt><trkpt lat="39.53897295675156" lon="8.628936023813237"><ele>126.0</ele><time>2026-04-18T09:20:39Z</time></trkpt><trkpt lat="39.538994173110694" lon="8.628853153638353"><ele>126.0</ele><time>2026-04-18T09:20:40Z</time></trkpt><trkpt lat="39.53901498994468" lon="8.628768448502763"><ele>126.0</ele><time>2026-04-18T09:20:41Z</time></trkpt><trkpt lat="39.53901758484992" lon="8.628680161213024"><ele>126.0</ele><time>2026-04-18T09:20:42Z</time></trkpt><trkpt lat="39.53903411242006" lon="8.628600031938722"><ele>126.0</ele><time>2026-04-18T09:20:43Z</time></trkpt><trkpt lat="39.53905090206442" lon="8.628518434278496"><ele>126.0</ele><time>2026-04-18T09:20:44Z</time></trkpt><trkpt lat="39.53907671533761" lon="8.628366997990947"><ele>126.8</ele><time>2026-04-18T09:20:46Z</time></trkpt><trkpt lat="39.539090525263795" lon="8.628223992043173"><ele>127.6</ele><time>2026-04-18T09:20:48Z</time></trkpt><trkpt lat="39.53909666806815" lon="8.628139719367843"><ele>128.4</ele><time>2026-04-18T09:20:49Z</time></trkpt><trkpt lat="39.53909719766014" lon="8.628057841728735"><ele>129.2</ele><time>2026-04-18T09:20:50Z</time></trkpt><trkpt lat="39.53910988535978" lon="8.627897815495135"><ele>130.0</ele><time>2026-04-18T09:20:52Z</time></trkpt><trkpt lat="39.53914122096364" lon="8.627743179983101"><ele>131.0</ele><time>2026-04-18T09:20:54Z</time></trkpt><trkpt lat="39.539181557702406" lon="8.62758482557582"><ele>132.0</ele><time>2026-04-18T09:20:56Z</time></trkpt><trkpt lat="39.53922531648163" lon="8.627450380218615"><ele>133.0</ele><time>2026-04-18T09:20:58Z</time></trkpt><trkpt lat="39.53928683617439" lon="8.627336895901147"><ele>134.0</ele><time>2026-04-18T09:21:00Z</time></trkpt><trkpt lat="39.539346758172705" lon="8.62720889764069"><ele>134.0</ele><time>2026-04-18T09:21:02Z</time></trkpt><trkpt lat="39.53936367547002" lon="8.62712442468999"><ele>134.0</ele><time>2026-04-18T09:21:03Z</time></trkpt><trkpt lat="39.53938154341033" lon="8.627038309843263"><ele>134.0</ele><time>2026-04-18T09:21:04Z</time></trkpt><trkpt lat="39.53940234667849" lon="8.626944024283304"><ele>134.0</ele><time>2026-04-18T09:21:05Z</time></trkpt><trkpt lat="39.53942153761079" lon="8.626853773216277"><ele>134.0</ele><time>2026-04-18T09:21:06Z</time></trkpt><trkpt lat="39.539440922261704" lon="8.626763921604473"><ele>134.0</ele><time>2026-04-18T09:21:07Z</time></trkpt><trkpt lat="39.53946226576697" lon="8.626680975672794"><ele>134.0</ele><time>2026-04-18T09:21:08Z</time></trkpt><trkpt lat="39.53949494870021" lon="8.626525579866577"><ele>134.0</ele><time>2026-04-18T09:21:10Z</time></trkpt><trkpt lat="39.53952934412783" lon="8.626388822025907"><ele>134.0</ele><time>2026-04-18T09:21:12Z</time></trkpt><trkpt lat="39.53956059302298" lon="8.626269805587292"><ele>134.0</ele><time>2026-04-18T09:21:14Z</time></trkpt><trkpt lat="39.53958256764605" lon="8.626172660917227"><ele>134.0</ele><time>2026-04-18T09:21:16Z</time></trkpt><trkpt lat="39.53961246925514" lon="8.626075573954163"><ele>134.0</ele><time>2026-04-18T09:21:19Z</time></trkpt><trkpt lat="39.5396440671623" lon="8.625996010402162"><ele>134.0</ele><time>2026-04-18T09:21:33Z</time></trkpt><trkpt lat="39.53968063981673" lon="8.625898707510782"><ele>133.4</ele><time>2026-04-18T09:21:35Z</time></trkpt><trkpt lat="39.53972849896243" lon="8.625802498367763"><ele>132.8</ele><time>2026-04-18T09:21:37Z</time></trkpt><trkpt lat="39.539770541439886" lon="8.625696084134196"><ele>132.2</ele><time>2026-04-18T09:21:39Z</time></trkpt><trkpt lat="39.5398181920608" lon="8.625574592471475"><ele>131.6</ele><time>2026-04-18T09:21:41Z</time></trkpt><trkpt lat="39.53986752136397" lon="8.62543099517541"><ele>131.0</ele><time>2026-04-18T09:21:43Z</time></trkpt><trkpt lat="39.53987990708084" lon="8.625347086389526"><ele>132.0</ele><time>2026-04-18T09:21:44Z</time></trkpt><trkpt lat="39.53988590533246" lon="8.625251245518147"><ele>133.0</ele><time>2026-04-18T09:21:45Z</time></trkpt><trkpt lat="39.53990759883186" lon="8.625128057922723"><ele>134.0</ele><time>2026-04-18T09:21:46Z</time></trkpt><trkpt lat="39.53992448559833" lon="8.624964996918328"><ele>135.0</ele><time>2026-04-18T09:21:47Z</time></trkpt><trkpt lat="39.53994197874933" lon="8.624776311719089"><ele>136.0</ele><time>2026-04-18T09:21:48Z</time></trkpt><trkpt lat="39.5400019797619" lon="8.624639784447666"><ele>136.0</ele><time>2026-04-18T09:21:49Z</time></trkpt><trkpt lat="39.540084949507815" lon="8.624536221930748"><ele>136.0</ele><time>2026-04-18T09:21:50Z</time></trkpt><trkpt lat="39.54016622828454" lon="8.624442338840854"><ele>136.0</ele><time>2026-04-18T09:21:51Z</time></trkpt><trkpt lat="39.540250828985656" lon="8.624342926492538"><ele>136.0</ele><time>2026-04-18T09:21:52Z</time></trkpt><trkpt lat="39.54032765767002" lon="8.624240759263255"><ele>136.0</ele><time>2026-04-18T09:21:53Z</time></trkpt><trkpt lat="39.54039331052792" lon="8.624139594109284"><ele>137.0</ele><time>2026-04-18T09:21:54Z</time></trkpt><trkpt lat="39.54045002250404" lon="8.624026690199381"><ele>138.0</ele><time>2026-04-18T09:21:55Z</time></trkpt><trkpt lat="39.540495857957616" lon="8.62390858093606"><ele>139.0</ele><time>2026-04-18T09:21:56Z</time></trkpt><trkpt lat="39.54052674494453" lon="8.623784843008874"><ele>140.0</ele><time>2026-04-18T09:21:57Z</time></trkpt><trkpt lat="39.540536637002184" lon="8.62364847958772"><ele>141.0</ele><time>2026-04-18T09:21:58Z</time></trkpt><trkpt lat="39.54053192831" lon="8.623503568633959"><ele>142.25</ele><time>2026-04-18T09:21:59Z</time></trkpt><trkpt lat="39.54053406242299" lon="8.62335527846106"><ele>143.5</ele><time>2026-04-18T09:22:00Z</time></trkpt><trkpt lat="39.54052342001958" lon="8.623199576097868"><ele>144.75</ele><time>2026-04-18T09:22:01Z</time></trkpt><trkpt lat="39.54052788236383" lon="8.62304981121819"><ele>146.0</ele><time>2026-04-18T09:22:02Z</time></trkpt><trkpt lat="39.54054651875317" lon="8.62290906082749"><ele>146.8</ele><time>2026-04-18T09:22:03Z</time></trkpt><trkpt lat="39.5405982818979" lon="8.622782350638522"><ele>147.6</ele><time>2026-04-18T09:22:04Z</time></trkpt><trkpt lat="39.540666093526006" lon="8.622676044224754"><ele>148.4</ele><time>2026-04-18T09:22:05Z</time></trkpt><trkpt lat="39.540750521419504" lon="8.622599668648302"><ele>149.2</ele><time>2026-04-18T09:22:06Z</time></trkpt><trkpt lat="39.540841990071335" lon="8.622542441877089"><ele>150.0</ele><time>2026-04-18T09:22:07Z</time></trkpt><trkpt lat="39.54091342927136" lon="8.62245630191661"><ele>150.0</ele><time>2026-04-18T09:22:08Z</time></trkpt><trkpt lat="39.54096111274176" lon="8.622340143450094"><ele>150.0</ele><time>2026-04-18T09:22:09Z</time></trkpt><trkpt lat="39.5409799160007" lon="8.622208337112978"><ele>150.0</ele><time>2026-04-18T09:22:10Z</time></trkpt><trkpt lat="39.54097177689584" lon="8.622070359098041"><ele>150.0</ele><time>2026-04-18T09:22:11Z</time></trkpt><trkpt lat="39.540960170958755" lon="8.621934887672168"><ele>150.0</ele><time>2026-04-18T09:22:12Z</time></trkpt><trkpt lat="39.54095707665272" lon="8.62180781494827"><ele>150.8</ele><time>2026-04-18T09:22:13Z</time></trkpt><trkpt lat="39.540965831676985" lon="8.621678295051863"><ele>151.6</ele><time>2026-04-18T09:22:14Z</time></trkpt><trkpt lat="39.54100784837399" lon="8.621578641495713"><ele>152.4</ele><time>2026-04-18T09:22:15Z</time></trkpt><trkpt lat="39.54104456852621" lon="8.621473825624681"><ele>153.2</ele><time>2026-04-18T09:22:16Z</time></trkpt><trkpt lat="39.541129468908274" lon="8.621400680188133"><ele>154.0</ele><time>2026-04-18T09:22:17Z</time></trkpt><trkpt lat="39.54122412003752" lon="8.621319740865575"><ele>154.0</ele><time>2026-04-18T09:22:18Z</time></trkpt><trkpt lat="39.54131754472176" lon="8.621224620511036"><ele>154.0</ele><time>2026-04-18T09:22:19Z</time></trkpt><trkpt lat="39.541410179422066" lon="8.621120417118624"><ele>154.0</ele><time>2026-04-18T09:22:20Z</time></trkpt><trkpt lat="39.54150169760944" lon="8.621013108086776"><ele>154.0</ele><time>2026-04-18T09:22:21Z</time></trkpt><trkpt lat="39.54158365971195" lon="8.620910895025267"><ele>155.2</ele><time>2026-04-18T09:22:22Z</time></trkpt><trkpt lat="39.54163860432468" lon="8.620806575706641"><ele>156.4</ele><time>2026-04-18T09:22:23Z</time></trkpt><trkpt lat="39.5416514405209" lon="8.620690193502991"><ele>157.6</ele><time>2026-04-18T09:22:24Z</time></trkpt><trkpt lat="39.5416103092848" lon="8.620580596975135"><ele>158.8</ele><time>2026-04-18T09:22:25Z</time></trkpt><trkpt lat="39.54152668301031" lon="8.620485260400173"><ele>160.0</ele><time>2026-04-18T09:22:26Z</time></trkpt><trkpt lat="39.541421295085996" lon="8.620409413377477"><ele>161.25</ele><time>2026-04-18T09:22:27Z</time></trkpt><trkpt lat="39.54133164239163" lon="8.620302190276309"><ele>162.5</ele><time>2026-04-18T09:22:28Z</time></trkpt><trkpt lat="39.5412360667505" lon="8.620202104663793"><ele>163.75</ele><time>2026-04-18T09:22:29Z</time></trkpt><trkpt lat="39.54114414775733" lon="8.620098630156203"><ele>165.0</ele><time>2026-04-18T09:22:30Z</time></trkpt><trkpt lat="39.54106260701477" lon="8.620001530428627"><ele>165.0</ele><time>2026-04-18T09:22:31Z</time></trkpt><trkpt lat="39.54105363541197" lon="8.619848653589072"><ele>165.0</ele><time>2026-04-18T09:22:32Z</time></trkpt><trkpt lat="39.54104490231491" lon="8.619685001220379"><ele>165.0</ele><time>2026-04-18T09:22:33Z</time></trkpt><trkpt lat="39.541065508020445" lon="8.61949737910602"><ele>165.0</ele><time>2026-04-18T09:22:34Z</time></trkpt><trkpt lat="39.54107236733419" lon="8.619301531849732"><ele>166.0</ele><time>2026-04-18T09:22:35Z</time></trkpt><trkpt lat="39.541075673097964" lon="8.619108269214918"><ele>167.0</ele><time>2026-04-18T09:22:36Z</time></trkpt><trkpt lat="39.541084654219766" lon="8.618917712257455"><ele>168.0</ele><time>2026-04-18T09:22:37Z</time></trkpt><trkpt lat="39.54109166504162" lon="8.618729877064863"><ele>169.0</ele><time>2026-04-18T09:22:38Z</time></trkpt><trkpt lat="39.54107194614428" lon="8.618542769923067"><ele>169.66666666666669</ele><time>2026-04-18T09:22:39Z</time></trkpt><trkpt lat="39.54101280324898" lon="8.618354310533448"><ele>170.33333333333334</ele><time>2026-04-18T09:22:40Z</time></trkpt><trkpt lat="39.5409319933891" lon="8.618161584048119"><ele>171.0</ele><time>2026-04-18T09:22:41Z</time></trkpt><trkpt lat="39.540861540099584" lon="8.61797348336937"><ele>173.0</ele><time>2026-04-18T09:22:42Z</time></trkpt><trkpt lat="39.54078885126012" lon="8.617781465377277"><ele>175.0</ele><time>2026-04-18T09:22:43Z</time></trkpt><trkpt lat="39.540713835778405" lon="8.617608345849288"><ele>177.0</ele><time>2026-04-18T09:22:44Z</time></trkpt><trkpt lat="39.540692225668266" lon="8.617409775510636"><ele>177.0</ele><time>2026-04-18T09:22:45Z</time></trkpt><trkpt lat="39.54069644172842" lon="8.617207235267836"><ele>177.0</ele><time>2026-04-18T09:22:46Z</time></trkpt><trkpt lat="39.54071608742338" lon="8.61699765907741"><ele>177.0</ele><time>2026-04-18T09:22:47Z</time></trkpt><trkpt lat="39.54074301161285" lon="8.616812621869913"><ele>178.75</ele><time>2026-04-18T09:22:48Z</time></trkpt><trkpt lat="39.54078111540971" lon="8.61665682517412"><ele>180.5</ele><time>2026-04-18T09:22:49Z</time></trkpt><trkpt lat="39.54084877356909" lon="8.616535811773277"><ele>182.25</ele><time>2026-04-18T09:22:50Z</time></trkpt><trkpt lat="39.540941741863534" lon="8.616467133483825"><ele>184.0</ele><time>2026-04-18T09:22:51Z</time></trkpt><trkpt lat="39.54105950453618" lon="8.616449136763263"><ele>184.0</ele><time>2026-04-18T09:22:52Z</time></trkpt><trkpt lat="39.541198351143386" lon="8.616451775550074"><ele>184.0</ele><time>2026-04-18T09:22:53Z</time></trkpt><trkpt lat="39.541340641941" lon="8.616436512765837"><ele>184.0</ele><time>2026-04-18T09:22:54Z</time></trkpt><trkpt lat="39.541480848172775" lon="8.616421689743715"><ele>184.0</ele><time>2026-04-18T09:22:55Z</time></trkpt><trkpt lat="39.54160425853069" lon="8.616434040814648"><ele>185.25</ele><time>2026-04-18T09:22:56Z</time></trkpt><trkpt lat="39.54169583800091" lon="8.616509707695082"><ele>186.5</ele><time>2026-04-18T09:22:57Z</time></trkpt><trkpt lat="39.54174665403002" lon="8.616636493209816"><ele>187.75</ele><time>2026-04-18T09:22:58Z</time></trkpt><trkpt lat="39.541785035173795" lon="8.616799356149553"><ele>189.0</ele><time>2026-04-18T09:22:59Z</time></trkpt><trkpt lat="39.54182059613861" lon="8.616973478654659"><ele>187.75</ele><time>2026-04-18T09:23:00Z</time></trkpt><trkpt lat="39.54186459832732" lon="8.617150277147626"><ele>186.5</ele><time>2026-04-18T09:23:01Z</time></trkpt><trkpt lat="39.54191087144544" lon="8.617321365036027"><ele>185.25</ele><time>2026-04-18T09:23:02Z</time></trkpt><trkpt lat="39.54195961697274" lon="8.617461591318833"><ele>184.0</ele><time>2026-04-18T09:23:03Z</time></trkpt><trkpt lat="39.542031316771684" lon="8.617546732624653"><ele>185.39999999999998</ele><time>2026-04-18T09:23:04Z</time></trkpt><trkpt lat="39.54211308591932" lon="8.617563088828486"><ele>186.8</ele><time>2026-04-18T09:23:05Z</time></trkpt><trkpt lat="39.54217602775202" lon="8.617518095821072"><ele>188.2</ele><time>2026-04-18T09:23:06Z</time></trkpt><trkpt lat="39.54223014098873" lon="8.617416911644062"><ele>189.60000000000002</ele><time>2026-04-18T09:23:07Z</time></trkpt><trkpt lat="39.54226139991536" lon="8.617290919815554"><ele>191.0</ele><time>2026-04-18T09:23:08Z</time></trkpt><trkpt lat="39.54229667111747" lon="8.617147998914623"><ele>191.0</ele><time>2026-04-18T09:23:09Z</time></trkpt><trkpt lat="39.54233481045519" lon="8.616990445359155"><ele>191.0</ele><time>2026-04-18T09:23:10Z</time></trkpt><trkpt lat="39.54237938244136" lon="8.61682341904329"><ele>191.0</ele><time>2026-04-18T09:23:11Z</time></trkpt><trkpt lat="39.542423999481294" lon="8.61664689996454"><ele>191.0</ele><time>2026-04-18T09:23:12Z</time></trkpt><trkpt lat="39.54246717354883" lon="8.61646845728637"><ele>192.25</ele><time>2026-04-18T09:23:13Z</time></trkpt><trkpt lat="39.54250516310701" lon="8.616291736592045"><ele>193.5</ele><time>2026-04-18T09:23:14Z</time></trkpt><trkpt lat="39.54252595754912" lon="8.616117844791125"><ele>194.75</ele><time>2026-04-18T09:23:15Z</time></trkpt><trkpt lat="39.54251277857714" lon="8.615944025533391"><ele>196.0</ele><time>2026-04-18T09:23:16Z</time></trkpt><trkpt lat="39.54245904003172" lon="8.615769893354116"><ele>197.5</ele><time>2026-04-18T09:23:17Z</time></trkpt><trkpt lat="39.54240204040778" lon="8.615593683213282"><ele>199.0</ele><time>2026-04-18T09:23:18Z</time></trkpt><trkpt lat="39.542331330625075" lon="8.615449054875631"><ele>200.5</ele><time>2026-04-18T09:23:19Z</time></trkpt><trkpt lat="39.54230985641299" lon="8.615304275806086"><ele>202.0</ele><time>2026-04-18T09:23:20Z</time></trkpt><trkpt lat="39.542338059524894" lon="8.615181688826759"><ele>204.5</ele><time>2026-04-18T09:23:21Z</time></trkpt><trkpt lat="39.54241032808692" lon="8.615089877146646"><ele>207.0</ele><time>2026-04-18T09:23:22Z</time></trkpt><trkpt lat="39.54250469858964" lon="8.615007927513766"><ele>209.5</ele><time>2026-04-18T09:23:23Z</time></trkpt><trkpt lat="39.54259811786128" lon="8.614898077401877"><ele>212.0</ele><time>2026-04-18T09:23:24Z</time></trkpt><trkpt lat="39.54267104107821" lon="8.614748119987917"><ele>212.0</ele><time>2026-04-18T09:23:25Z</time></trkpt><trkpt lat="39.54274540559356" lon="8.614576366390361"><ele>212.0</ele><time>2026-04-18T09:23:26Z</time></trkpt><trkpt lat="39.542820940131534" lon="8.614395667324427"><ele>212.0</ele><time>2026-04-18T09:23:27Z</time></trkpt><trkpt lat="39.542897316516964" lon="8.614224554282407"><ele>211.66666666666669</ele><time>2026-04-18T09:23:28Z</time></trkpt><trkpt lat="39.54297166248507" lon="8.614039987736058"><ele>211.33333333333331</ele><time>2026-04-18T09:23:29Z</time></trkpt><trkpt lat="39.543053375685396" lon="8.613852708537172"><ele>211.0</ele><time>2026-04-18T09:23:30Z</time></trkpt><trkpt lat="39.5431380799517" lon="8.613667326178456"><ele>214.0</ele><time>2026-04-18T09:23:31Z</time></trkpt><trkpt lat="39.5432178155855" lon="8.613486845950804"><ele>217.0</ele><time>2026-04-18T09:23:32Z</time></trkpt><trkpt lat="39.543289118857935" lon="8.613324324865266"><ele>220.0</ele><time>2026-04-18T09:23:33Z</time></trkpt><trkpt lat="39.54335979598963" lon="8.613178107150405"><ele>223.0</ele><time>2026-04-18T09:23:34Z</time></trkpt><trkpt lat="39.54343478877468" lon="8.613062619322422"><ele>223.0</ele><time>2026-04-18T09:23:35Z</time></trkpt><trkpt lat="39.54352446030483" lon="8.613001994579903"><ele>223.0</ele><time>2026-04-18T09:23:36Z</time></trkpt><trkpt lat="39.54363441849496" lon="8.613006433794329"><ele>223.0</ele><time>2026-04-18T09:23:37Z</time></trkpt><trkpt lat="39.54375134349224" lon="8.613057718843125"><ele>223.0</ele><time>2026-04-18T09:23:38Z</time></trkpt><trkpt lat="39.54391686506342" lon="8.612664244236782"><ele>225.99999999999997</ele><time>2026-04-18T09:23:49.337Z</time></trkpt><trkpt lat="39.54385035740255" lon="8.612651845673668"><ele>229.0</ele><time>2026-04-18T09:23:49.947Z</time></trkpt><trkpt lat="39.54376777737161" lon="8.61261737002898"><ele>232.0</ele><time>2026-04-18T09:23:50.577Z</time></trkpt><trkpt lat="39.54368610808281" lon="8.612585673704743"><ele>235.0</ele><time>2026-04-18T09:23:51.201Z</time></trkpt><trkpt lat="39.543603586222176" lon="8.612559117652285"><ele>237.99999999999997</ele><time>2026-04-18T09:23:51.801Z</time></trkpt><trkpt lat="39.54351786797731" lon="8.612533845853793"><ele>241.0</ele><time>2026-04-18T09:23:52.401Z</time></trkpt><trkpt lat="39.543385117155516" lon="8.612511407099147"><ele>241.0</ele><time>2026-04-18T09:23:53.301Z</time></trkpt><trkpt lat="39.54326138181891" lon="8.612437258914413"><ele>241.0</ele><time>2026-04-18T09:23:54.201Z</time></trkpt><trkpt lat="39.54314817090514" lon="8.612339489706201"><ele>241.0</ele><time>2026-04-18T09:23:55.101Z</time></trkpt><trkpt lat="39.54306277628346" lon="8.612213786357966"><ele>241.0</ele><time>2026-04-18T09:23:56.001Z</time></trkpt><trkpt lat="39.543012502676646" lon="8.612149100420341"><ele>241.0</ele><time>2026-04-18T09:23:56.501Z</time></trkpt><trkpt lat="39.5428988228383" lon="8.612068957103693"><ele>241.0</ele><time>2026-04-18T09:23:57.501Z</time></trkpt><trkpt lat="39.542772900658655" lon="8.61208042140674"><ele>241.0</ele><time>2026-04-18T09:23:58.501Z</time></trkpt><trkpt lat="39.54265285955474" lon="8.61211544635995"><ele>241.0</ele><time>2026-04-18T09:23:59.501Z</time></trkpt><trkpt lat="39.54253061831081" lon="8.612168781062836"><ele>240.0</ele><time>2026-04-18T09:24:00.501Z</time></trkpt><trkpt lat="39.54240359584289" lon="8.612188044464117"><ele>239.0</ele><time>2026-04-18T09:24:01.501Z</time></trkpt><trkpt lat="39.54224074208563" lon="8.612133622166944"><ele>238.0</ele><time>2026-04-18T09:24:03.001Z</time></trkpt><trkpt lat="39.54212209581532" lon="8.61197969272404"><ele>242.0</ele><time>2026-04-18T09:24:04.501Z</time></trkpt><trkpt lat="39.54207045142367" lon="8.611852796837516"><ele>246.0</ele><time>2026-04-18T09:24:05.501Z</time></trkpt><trkpt lat="39.54212052098671" lon="8.611637523140372"><ele>250.0</ele><time>2026-04-18T09:24:07.001Z</time></trkpt><trkpt lat="39.54215589061681" lon="8.611508105400175"><ele>254.0</ele><time>2026-04-18T09:24:08.001Z</time></trkpt><trkpt lat="39.542151474427044" lon="8.611381848526563"><ele>254.0</ele><time>2026-04-18T09:24:09.001Z</time></trkpt><trkpt lat="39.54210462841552" lon="8.611204264599976"><ele>254.0</ele><time>2026-04-18T09:24:10.501Z</time></trkpt><trkpt lat="39.54197907088166" lon="8.611073877884879"><ele>254.0</ele><time>2026-04-18T09:24:12.001Z</time></trkpt><trkpt lat="39.54182028069613" lon="8.611031134163696"><ele>255.79999999999998</ele><time>2026-04-18T09:24:13.451Z</time></trkpt><trkpt lat="39.54172451099375" lon="8.610976109907657"><ele>257.59999999999997</ele><time>2026-04-18T09:24:14.401Z</time></trkpt><trkpt lat="39.54163283565998" lon="8.610909057815846"><ele>259.4</ele><time>2026-04-18T09:24:15.351Z</time></trkpt><trkpt lat="39.54155730008385" lon="8.610810498016074"><ele>261.2</ele><time>2026-04-18T09:24:16.301Z</time></trkpt><trkpt lat="39.5414882871245" lon="8.610689968981115"><ele>263.0</ele><time>2026-04-18T09:24:17.251Z</time></trkpt><trkpt lat="39.54140605250908" lon="8.610571638599462"><ele>263.0</ele><time>2026-04-18T09:24:18.201Z</time></trkpt><trkpt lat="39.541296045917" lon="8.610473433276596"><ele>263.0</ele><time>2026-04-18T09:24:19.151Z</time></trkpt><trkpt lat="39.54117778280709" lon="8.610412253298504"><ele>263.0</ele><time>2026-04-18T09:24:20.101Z</time></trkpt><trkpt lat="39.541067802422155" lon="8.610377679455512"><ele>263.0</ele><time>2026-04-18T09:24:21.051Z</time></trkpt><trkpt lat="39.54094799312518" lon="8.610361555191021"><ele>261.5</ele><time>2026-04-18T09:24:22.001Z</time></trkpt><trkpt lat="39.5408233307508" lon="8.61034663036697"><ele>260.0</ele><time>2026-04-18T09:24:23.001Z</time></trkpt><trkpt lat="39.54070769390112" lon="8.610313827627614"><ele>258.5</ele><time>2026-04-18T09:24:24.001Z</time></trkpt><trkpt lat="39.54062946223659" lon="8.610193564401442"><ele>257.0</ele><time>2026-04-18T09:24:25.001Z</time></trkpt><trkpt lat="39.54055675673191" lon="8.610058374388428"><ele>259.5</ele><time>2026-04-18T09:24:26.001Z</time></trkpt><trkpt lat="39.54046772741097" lon="8.609922550234668"><ele>262.0</ele><time>2026-04-18T09:24:27.001Z</time></trkpt><trkpt lat="39.54034686472103" lon="8.609817863776266"><ele>264.5</ele><time>2026-04-18T09:24:28.001Z</time></trkpt><trkpt lat="39.54022615186555" lon="8.60970813842074"><ele>267.0</ele><time>2026-04-18T09:24:29.001Z</time></trkpt><trkpt lat="39.54009589010264" lon="8.609615459333614"><ele>267.0</ele><time>2026-04-18T09:24:30.001Z</time></trkpt><trkpt lat="39.53996568518159" lon="8.60952732813158"><ele>267.0</ele><time>2026-04-18T09:24:31.001Z</time></trkpt><trkpt lat="39.53986032572855" lon="8.609438744711067"><ele>267.0</ele><time>2026-04-18T09:24:32.001Z</time></trkpt><trkpt lat="39.539762191494624" lon="8.609364307980746"><ele>267.0</ele><time>2026-04-18T09:24:33.001Z</time></trkpt><trkpt lat="39.53965970662615" lon="8.609327875288589"><ele>266.6</ele><time>2026-04-18T09:24:34.001Z</time></trkpt><trkpt lat="39.539551703289746" lon="8.60934204836368"><ele>266.2</ele><time>2026-04-18T09:24:35.001Z</time></trkpt><trkpt lat="39.539446450826645" lon="8.609400692095136"><ele>265.8</ele><time>2026-04-18T09:24:36.001Z</time></trkpt><trkpt lat="39.53934985831639" lon="8.609443988972853"><ele>265.4</ele><time>2026-04-18T09:24:37.001Z</time></trkpt><trkpt lat="39.5392685670138" lon="8.60948037741664"><ele>265.0</ele><time>2026-04-18T09:24:38.001Z</time></trkpt><trkpt lat="39.53920458671364" lon="8.609493431720304"><ele>268.6</ele><time>2026-04-18T09:24:39.001Z</time></trkpt><trkpt lat="39.53911984971802" lon="8.60937198684792"><ele>272.2</ele><time>2026-04-18T09:24:41.001Z</time></trkpt><trkpt lat="39.539163425368336" lon="8.609273260679958"><ele>275.8</ele><time>2026-04-18T09:24:42.001Z</time></trkpt><trkpt lat="39.539254947245595" lon="8.609203263918433"><ele>279.4</ele><time>2026-04-18T09:24:43.001Z</time></trkpt><trkpt lat="39.53936130776171" lon="8.609154130660865"><ele>283.0</ele><time>2026-04-18T09:24:44.001Z</time></trkpt><trkpt lat="39.539461091246025" lon="8.609056561984962"><ele>283.0</ele><time>2026-04-18T09:24:45.001Z</time></trkpt><trkpt lat="39.53961106093756" lon="8.608975387921262"><ele>283.0</ele><time>2026-04-18T09:24:46.001Z</time></trkpt><trkpt lat="39.53978624652736" lon="8.608948218093454"><ele>283.0</ele><time>2026-04-18T09:24:47.001Z</time></trkpt><trkpt lat="39.53997159080795" lon="8.60898054272403"><ele>283.0</ele><time>2026-04-18T09:24:48.001Z</time></trkpt><trkpt lat="39.54015346162091" lon="8.609040739098116"><ele>283.0</ele><time>2026-04-18T09:24:49.001Z</time></trkpt><trkpt lat="39.5403254934397" lon="8.609092785388027"><ele>283.0</ele><time>2026-04-18T09:24:50.001Z</time></trkpt><trkpt lat="39.54047284430225" lon="8.609151658028651"><ele>281.0</ele><time>2026-04-18T09:24:51.001Z</time></trkpt><trkpt lat="39.54060358006363" lon="8.609256352412578"><ele>279.0</ele><time>2026-04-18T09:24:52.001Z</time></trkpt><trkpt lat="39.540713177642616" lon="8.609414780728596"><ele>277.0</ele><time>2026-04-18T09:24:53.001Z</time></trkpt><trkpt lat="39.54081501900732" lon="8.609569664363427"><ele>277.0</ele><time>2026-04-18T09:24:54.001Z</time></trkpt><trkpt lat="39.54090944627187" lon="8.609689815768014"><ele>277.0</ele><time>2026-04-18T09:24:55.001Z</time></trkpt><trkpt lat="39.54102323852821" lon="8.609756608032042"><ele>277.0</ele><time>2026-04-18T09:24:56.001Z</time></trkpt><trkpt lat="39.54116016165858" lon="8.609754903533725"><ele>277.0</ele><time>2026-04-18T09:24:57.001Z</time></trkpt><trkpt lat="39.541309808267165" lon="8.6096976392098"><ele>279.25</ele><time>2026-04-18T09:24:58.001Z</time></trkpt><trkpt lat="39.541463597947505" lon="8.609620359020859"><ele>281.5</ele><time>2026-04-18T09:24:59.001Z</time></trkpt><trkpt lat="39.541612582059024" lon="8.60957033599992"><ele>283.75</ele><time>2026-04-18T09:25:00.001Z</time></trkpt><trkpt lat="39.541741221675515" lon="8.609585036398366"><ele>286.0</ele><time>2026-04-18T09:25:01.001Z</time></trkpt><trkpt lat="39.541847694747986" lon="8.609658191369848"><ele>286.0</ele><time>2026-04-18T09:25:02.001Z</time></trkpt><trkpt lat="39.541936289609765" lon="8.609734933751902"><ele>286.0</ele><time>2026-04-18T09:25:03.001Z</time></trkpt><trkpt lat="39.54201458293605" lon="8.60974297426806"><ele>286.0</ele><time>2026-04-18T09:25:04.001Z</time></trkpt><trkpt lat="39.542067464468204" lon="8.609671841579988"><ele>286.0</ele><time>2026-04-18T09:25:05.001Z</time></trkpt><trkpt lat="39.54207006758363" lon="8.609559160961341"><ele>286.0</ele><time>2026-04-18T09:25:06.001Z</time></trkpt><trkpt lat="39.54201598121707" lon="8.609460995261756"><ele>286.0</ele><time>2026-04-18T09:25:07.001Z</time></trkpt><trkpt lat="39.54190898970964" lon="8.609403392301296"><ele>293.25</ele><time>2026-04-18T09:25:08.001Z</time></trkpt><trkpt lat="39.54178163936133" lon="8.609363446178945"><ele>300.5</ele><time>2026-04-18T09:25:09.001Z</time></trkpt><trkpt lat="39.54163425314867" lon="8.609341240210638"><ele>307.75</ele><time>2026-04-18T09:25:10.001Z</time></trkpt><trkpt lat="39.54148789382976" lon="8.609321030543178"><ele>315.0</ele><time>2026-04-18T09:25:11.001Z</time></trkpt><trkpt lat="39.5413367367213" lon="8.609316036251743"><ele>311.0</ele><time>2026-04-18T09:25:12.001Z</time></trkpt><trkpt lat="39.54120053532814" lon="8.609299941916964"><ele>307.0</ele><time>2026-04-18T09:25:13.001Z</time></trkpt><trkpt lat="39.5410819457285" lon="8.609225573075006"><ele>303.0</ele><time>2026-04-18T09:25:14.001Z</time></trkpt><trkpt lat="39.540984880138595" lon="8.609097875984926"><ele>299.0</ele><time>2026-04-18T09:25:15.001Z</time></trkpt><trkpt lat="39.54090190164156" lon="8.608945050235475"><ele>299.0</ele><time>2026-04-18T09:25:16.001Z</time></trkpt><trkpt lat="39.54081281375517" lon="8.608762493671112"><ele>299.0</ele><time>2026-04-18T09:25:17.001Z</time></trkpt><trkpt lat="39.54073349686775" lon="8.608569226937375"><ele>299.0</ele><time>2026-04-18T09:25:18.001Z</time></trkpt><trkpt lat="39.540652028858986" lon="8.608373427029086"><ele>304.75</ele><time>2026-04-18T09:25:19.001Z</time></trkpt><trkpt lat="39.540585000301384" lon="8.608180321187719"><ele>310.5</ele><time>2026-04-18T09:25:20.001Z</time></trkpt><trkpt lat="39.540531918373986" lon="8.607996112692229"><ele>316.25</ele><time>2026-04-18T09:25:21.001Z</time></trkpt><trkpt lat="39.540487607224925" lon="8.607840089124881"><ele>322.0</ele><time>2026-04-18T09:25:22.001Z</time></trkpt><trkpt lat="39.54042666546098" lon="8.607723508585407"><ele>324.75</ele><time>2026-04-18T09:25:23.001Z</time></trkpt><trkpt lat="39.5403333463095" lon="8.607662469379902"><ele>327.5</ele><time>2026-04-18T09:25:24.001Z</time></trkpt><trkpt lat="39.54022397159816" lon="8.607678922088676"><ele>330.25</ele><time>2026-04-18T09:25:25.001Z</time></trkpt><trkpt lat="39.540120475763494" lon="8.60775103957943"><ele>333.0</ele><time>2026-04-18T09:25:26.001Z</time></trkpt><trkpt lat="39.54000865160058" lon="8.607814490060385"><ele>333.0</ele><time>2026-04-18T09:25:27.001Z</time></trkpt><trkpt lat="39.539873617958115" lon="8.607775779038926"><ele>333.0</ele><time>2026-04-18T09:25:28.001Z</time></trkpt><trkpt lat="39.539735882194755" lon="8.607707403073894"><ele>333.0</ele><time>2026-04-18T09:25:29.001Z</time></trkpt><trkpt lat="39.5395789259434" lon="8.607635812554506"><ele>334.3333333333333</ele><time>2026-04-18T09:25:30.001Z</time></trkpt><trkpt lat="39.53941299754003" lon="8.607638935289735"><ele>335.66666666666663</ele><time>2026-04-18T09:25:31.001Z</time></trkpt><trkpt lat="39.53925186575584" lon="8.607687591178012"><ele>337.0</ele><time>2026-04-18T09:25:32.001Z</time></trkpt><trkpt lat="39.53909658232702" lon="8.607758457361598"><ele>337.0</ele><time>2026-04-18T09:25:33.001Z</time></trkpt><trkpt lat="39.53894716663151" lon="8.607726413891717"><ele>337.0</ele><time>2026-04-18T09:25:34.001Z</time></trkpt><trkpt lat="39.53880213801555" lon="8.607639632770438"><ele>337.0</ele><time>2026-04-18T09:25:35.001Z</time></trkpt><trkpt lat="39.538648491737185" lon="8.607642853611344"><ele>337.25</ele><time>2026-04-18T09:25:36.001Z</time></trkpt><trkpt lat="39.538502515574386" lon="8.607695344945663"><ele>337.5</ele><time>2026-04-18T09:25:37.001Z</time></trkpt><trkpt lat="39.53835945222364" lon="8.607772545857442"><ele>337.75</ele><time>2026-04-18T09:25:38.001Z</time></trkpt><trkpt lat="39.53822165684003" lon="8.607782605166705"><ele>338.0</ele><time>2026-04-18T09:25:39.001Z</time></trkpt><trkpt lat="39.53809325598475" lon="8.607754312148895"><ele>338.0</ele><time>2026-04-18T09:25:40.001Z</time></trkpt><trkpt lat="39.53798361661023" lon="8.607681459993398"><ele>338.0</ele><time>2026-04-18T09:25:41.001Z</time></trkpt><trkpt lat="39.53791123365053" lon="8.60754122283646"><ele>338.0</ele><time>2026-04-18T09:25:42.001Z</time></trkpt><trkpt lat="39.53780709305403" lon="8.607420635307022"><ele>338.0</ele><time>2026-04-18T09:25:43.001Z</time></trkpt><trkpt lat="39.53769546516399" lon="8.607380292500896"><ele>339.0</ele><time>2026-04-18T09:25:44.001Z</time></trkpt><trkpt lat="39.53756508639657" lon="8.607431022270003"><ele>340.0</ele><time>2026-04-18T09:25:45.001Z</time></trkpt><trkpt lat="39.537433979962344" lon="8.60753697927143"><ele>341.0</ele><time>2026-04-18T09:25:46.001Z</time></trkpt><trkpt lat="39.537284450715596" lon="8.607550379298251"><ele>342.0</ele><time>2026-04-18T09:25:47.001Z</time></trkpt><trkpt lat="39.5371209223055" lon="8.607608770117677"><ele>338.6666666666667</ele><time>2026-04-18T09:25:48.001Z</time></trkpt><trkpt lat="39.536980500547685" lon="8.607729358051255"><ele>335.33333333333337</ele><time>2026-04-18T09:25:49.001Z</time></trkpt><trkpt lat="39.53682263643547" lon="8.60784890466818"><ele>332.0</ele><time>2026-04-18T09:25:50.001Z</time></trkpt><trkpt lat="39.53666487135407" lon="8.607976167310504"><ele>332.0</ele><time>2026-04-18T09:25:51.001Z</time></trkpt><trkpt lat="39.53649941523339" lon="8.608110458479407"><ele>332.0</ele><time>2026-04-18T09:25:52.001Z</time></trkpt><trkpt lat="39.536337955025466" lon="8.608244752067232"><ele>332.0</ele><time>2026-04-18T09:25:53.001Z</time></trkpt><trkpt lat="39.53617079781282" lon="8.608386870250227"><ele>333.0</ele><time>2026-04-18T09:25:54.001Z</time></trkpt><trkpt lat="39.53601132592077" lon="8.608536067513233"><ele>334.0</ele><time>2026-04-18T09:25:55.001Z</time></trkpt><trkpt lat="39.53586730922959" lon="8.608687677967309"><ele>335.0</ele><time>2026-04-18T09:25:56.001Z</time></trkpt><trkpt lat="39.53574066369189" lon="8.608839781970142"><ele>335.0</ele><time>2026-04-18T09:25:57Z</time></trkpt><trkpt lat="39.535623171958335" lon="8.60897646628067"><ele>335.0</ele><time>2026-04-18T09:25:58Z</time></trkpt><trkpt lat="39.535497177543654" lon="8.609095490336994"><ele>335.0</ele><time>2026-04-18T09:25:59Z</time></trkpt><trkpt lat="39.53535141573385" lon="8.609156147090046"><ele>341.33333333333337</ele><time>2026-04-18T09:26:00Z</time></trkpt><trkpt lat="39.53517687212385" lon="8.609212489852833"><ele>347.6666666666667</ele><time>2026-04-18T09:26:01Z</time></trkpt><trkpt lat="39.535011358168155" lon="8.609248241983527"><ele>354.0</ele><time>2026-04-18T09:26:02Z</time></trkpt><trkpt lat="39.53484709848451" lon="8.609258580813655"><ele>354.0</ele><time>2026-04-18T09:26:03Z</time></trkpt><trkpt lat="39.534689854441375" lon="8.609216458683687"><ele>354.0</ele><time>2026-04-18T09:26:04Z</time></trkpt><trkpt lat="39.5345363319065" lon="8.6092188636099"><ele>354.0</ele><time>2026-04-18T09:26:05Z</time></trkpt><trkpt lat="39.53438337103349" lon="8.609286416866821"><ele>352.6666666666667</ele><time>2026-04-18T09:26:06Z</time></trkpt><trkpt lat="39.534245354876155" lon="8.609402685174068"><ele>351.33333333333337</ele><time>2026-04-18T09:26:07Z</time></trkpt><trkpt lat="39.53413681240272" lon="8.60956094921528"><ele>350.0</ele><time>2026-04-18T09:26:08Z</time></trkpt><trkpt lat="39.53400498008527" lon="8.609767346687331"><ele>350.0</ele><time>2026-04-18T09:26:09Z</time></trkpt><trkpt lat="39.53386875590483" lon="8.609947593582802"><ele>350.0</ele><time>2026-04-18T09:26:10Z</time></trkpt><trkpt lat="39.533729716306574" lon="8.610126922394885"><ele>350.0</ele><time>2026-04-18T09:26:11Z</time></trkpt><trkpt lat="39.533604703642446" lon="8.610302176970956"><ele>354.0</ele><time>2026-04-18T09:26:12Z</time></trkpt><trkpt lat="39.53351073577856" lon="8.610479697660777"><ele>358.0</ele><time>2026-04-18T09:26:13Z</time></trkpt><trkpt lat="39.53343471135539" lon="8.61063916045846"><ele>362.0</ele><time>2026-04-18T09:26:14Z</time></trkpt><trkpt lat="39.5333358408718" lon="8.610757142189216"><ele>366.0</ele><time>2026-04-18T09:26:15Z</time></trkpt><trkpt lat="39.53320268507601" lon="8.61079144219169"><ele>366.0</ele><time>2026-04-18T09:26:16Z</time></trkpt><trkpt lat="39.5330516595757" lon="8.610808237948719"><ele>366.0</ele><time>2026-04-18T09:26:17Z</time></trkpt><trkpt lat="39.53289714040454" lon="8.61084863639957"><ele>366.0</ele><time>2026-04-18T09:26:18Z</time></trkpt><trkpt lat="39.53275822163202" lon="8.610900868341716"><ele>366.3333333333333</ele><time>2026-04-18T09:26:19Z</time></trkpt><trkpt lat="39.53264266170852" lon="8.611017749112138"><ele>366.66666666666663</ele><time>2026-04-18T09:26:20Z</time></trkpt><trkpt lat="39.532547785777666" lon="8.61117201966347"><ele>367.0</ele><time>2026-04-18T09:26:21Z</time></trkpt><trkpt lat="39.53245528925434" lon="8.611334775467078"><ele>367.0</ele><time>2026-04-18T09:26:22Z</time></trkpt><trkpt lat="39.53233887990302" lon="8.611466843831803"><ele>367.0</ele><time>2026-04-18T09:26:23Z</time></trkpt><trkpt lat="39.532235922482954" lon="8.611597837821671"><ele>367.0</ele><time>2026-04-18T09:26:24Z</time></trkpt><trkpt lat="39.53213374424535" lon="8.611693870511155"><ele>367.0</ele><time>2026-04-18T09:26:25Z</time></trkpt><trkpt lat="39.532031797342974" lon="8.611716100162663"><ele>369.20000000000005</ele><time>2026-04-18T09:26:26Z</time></trkpt><trkpt lat="39.53192488849919" lon="8.611696714245221"><ele>371.4</ele><time>2026-04-18T09:26:27Z</time></trkpt><trkpt lat="39.531813558420275" lon="8.611669212151266"><ele>373.6</ele><time>2026-04-18T09:26:28Z</time></trkpt><trkpt lat="39.531720085141615" lon="8.611658878966246"><ele>375.79999999999995</ele><time>2026-04-18T09:26:29Z</time></trkpt><trkpt lat="39.53164053448905" lon="8.611622931688366"><ele>378.0</ele><time>2026-04-18T09:26:30Z</time></trkpt><trkpt lat="39.53156631630902" lon="8.611588268565152"><ele>378.0</ele><time>2026-04-18T09:26:31Z</time></trkpt><trkpt lat="39.53149021286381" lon="8.611549047587541"><ele>378.0</ele><time>2026-04-18T09:26:32Z</time></trkpt><trkpt lat="39.53141651228276" lon="8.611513009626528"><ele>378.0</ele><time>2026-04-18T09:26:33Z</time></trkpt><trkpt lat="39.53134360141588" lon="8.611478710518448"><ele>378.0</ele><time>2026-04-18T09:26:34Z</time></trkpt><trkpt lat="39.531278103467294" lon="8.611425563608275"><ele>378.0</ele><time>2026-04-18T09:26:35Z</time></trkpt><trkpt lat="39.53122289858192" lon="8.611346737462865"><ele>378.0</ele><time>2026-04-18T09:26:36Z</time></trkpt><trkpt lat="39.53119911016905" lon="8.611237176182614"><ele>377.0</ele><time>2026-04-18T09:26:37Z</time></trkpt><trkpt lat="39.53116940005473" lon="8.611134549818003"><ele>376.0</ele><time>2026-04-18T09:26:38Z</time></trkpt><trkpt lat="39.53112532448244" lon="8.611035443324734"><ele>375.0</ele><time>2026-04-18T09:26:39Z</time></trkpt><trkpt lat="39.53109261899724" lon="8.610927502238845"><ele>374.0</ele><time>2026-04-18T09:26:40Z</time></trkpt><trkpt lat="39.53105100041143" lon="8.610824312452666"><ele>373.0</ele><time>2026-04-18T09:26:41Z</time></trkpt><trkpt lat="39.53100374448301" lon="8.610725914572884"><ele>372.0</ele><time>2026-04-18T09:26:42Z</time></trkpt><trkpt lat="39.530943194805474" lon="8.610629150343094"><ele>372.0</ele><time>2026-04-18T09:26:43Z</time></trkpt><trkpt lat="39.53087098865302" lon="8.61054049300621"><ele>372.0</ele><time>2026-04-18T09:26:44Z</time></trkpt><trkpt lat="39.530794248700055" lon="8.61046246871499"><ele>372.0</ele><time>2026-04-18T09:26:45Z</time></trkpt><trkpt lat="39.53071392372903" lon="8.610383450512142"><ele>372.0</ele><time>2026-04-18T09:26:46Z</time></trkpt><trkpt lat="39.530634063416365" lon="8.610298634552285"><ele>372.0</ele><time>2026-04-18T09:26:47Z</time></trkpt><trkpt lat="39.53055540391815" lon="8.610212198719255"><ele>372.40000000000003</ele><time>2026-04-18T09:26:48Z</time></trkpt><trkpt lat="39.530476609810286" lon="8.610123599895614"><ele>372.8</ele><time>2026-04-18T09:26:49Z</time></trkpt><trkpt lat="39.53039642840461" lon="8.610035476574124"><ele>373.2</ele><time>2026-04-18T09:26:50Z</time></trkpt><trkpt lat="39.530315185286476" lon="8.609946559916347"><ele>373.6</ele><time>2026-04-18T09:26:51Z</time></trkpt><trkpt lat="39.53023355273431" lon="8.609856204803588"><ele>374.0</ele><time>2026-04-18T09:26:52Z</time></trkpt><trkpt lat="39.53015024063708" lon="8.609765433973621"><ele>372.0</ele><time>2026-04-18T09:26:53Z</time></trkpt><trkpt lat="39.53006624508729" lon="8.609674155015332"><ele>370.0</ele><time>2026-04-18T09:26:54Z</time></trkpt><trkpt lat="39.52998193752623" lon="8.609582397763926"><ele>368.0</ele><time>2026-04-18T09:26:55Z</time></trkpt><trkpt lat="39.52990122244974" lon="8.609484610971121"><ele>366.0</ele><time>2026-04-18T09:26:56Z</time></trkpt><trkpt lat="39.52981854590994" lon="8.609389291719388"><ele>364.0</ele><time>2026-04-18T09:26:57Z</time></trkpt><trkpt lat="39.529732431677346" lon="8.609298756021598"><ele>364.0</ele><time>2026-04-18T09:26:58Z</time></trkpt><trkpt lat="39.5296455278155" lon="8.609208544473079"><ele>364.0</ele><time>2026-04-18T09:26:59Z</time></trkpt><trkpt lat="39.529559459730734" lon="8.609115267625373"><ele>364.0</ele><time>2026-04-18T09:27:00Z</time></trkpt><trkpt lat="39.52947328529664" lon="8.609017990278792"><ele>364.0</ele><time>2026-04-18T09:27:01Z</time></trkpt><trkpt lat="39.52938393240894" lon="8.60892440606095"><ele>362.5</ele><time>2026-04-18T09:27:02Z</time></trkpt><trkpt lat="39.529294287146605" lon="8.608831607791053"><ele>361.0</ele><time>2026-04-18T09:27:03Z</time></trkpt><trkpt lat="39.529204309049554" lon="8.608735540580602"><ele>359.5</ele><time>2026-04-18T09:27:04Z</time></trkpt><trkpt lat="39.52911336522877" lon="8.608641514157714"><ele>358.0</ele><time>2026-04-18T09:27:05Z</time></trkpt><trkpt lat="39.52902867609915" lon="8.608547496950575"><ele>358.0</ele><time>2026-04-18T09:27:06Z</time></trkpt><trkpt lat="39.528952074909846" lon="8.608452461710502"><ele>358.0</ele><time>2026-04-18T09:27:07.001Z</time></trkpt><trkpt lat="39.52887268762535" lon="8.608361656789155"><ele>358.0</ele><time>2026-04-18T09:27:08.001Z</time></trkpt><trkpt lat="39.52879206127214" lon="8.608273152017016"><ele>358.0</ele><time>2026-04-18T09:27:09.001Z</time></trkpt><trkpt lat="39.52871335590724" lon="8.608184142134752"><ele>358.0</ele><time>2026-04-18T09:27:10.001Z</time></trkpt><trkpt lat="39.528635328165876" lon="8.60809191122633"><ele>356.4</ele><time>2026-04-18T09:27:11.001Z</time></trkpt><trkpt lat="39.52856456837087" lon="8.607989230855216"><ele>354.79999999999995</ele><time>2026-04-18T09:27:12.001Z</time></trkpt><trkpt lat="39.52849404290001" lon="8.607879736613352"><ele>353.2</ele><time>2026-04-18T09:27:13.001Z</time></trkpt><trkpt lat="39.52843213216999" lon="8.607762547004578"><ele>351.6</ele><time>2026-04-18T09:27:14.001Z</time></trkpt><trkpt lat="39.52837321602929" lon="8.607638096103328"><ele>350.0</ele><time>2026-04-18T09:27:15.001Z</time></trkpt><trkpt lat="39.52831358450379" lon="8.607514527678653"><ele>349.75</ele><time>2026-04-18T09:27:16.001Z</time></trkpt><trkpt lat="39.52825393655842" lon="8.607390845405087"><ele>349.5</ele><time>2026-04-18T09:27:17.001Z</time></trkpt><trkpt lat="39.52819236289817" lon="8.607266504127256"><ele>349.25</ele><time>2026-04-18T09:27:18.001Z</time></trkpt><trkpt lat="39.528131055644195" lon="8.607142294294851"><ele>349.0</ele><time>2026-04-18T09:27:19.001Z</time></trkpt><trkpt lat="39.52807273307992" lon="8.607015605888822"><ele>348.6</ele><time>2026-04-18T09:27:20.001Z</time></trkpt><trkpt lat="39.52801255074224" lon="8.60689191517819"><ele>348.2</ele><time>2026-04-18T09:27:21.001Z</time></trkpt><trkpt lat="39.52795206133764" lon="8.606769068098416"><ele>347.8</ele><time>2026-04-18T09:27:22.001Z</time></trkpt><trkpt lat="39.52789254202207" lon="8.606651500827603"><ele>347.40000000000003</ele><time>2026-04-18T09:27:23.001Z</time></trkpt><trkpt lat="39.527834780266275" lon="8.606537046617746"><ele>347.0</ele><time>2026-04-18T09:27:24.001Z</time></trkpt><trkpt lat="39.52778462518961" lon="8.606424869657156"><ele>346.0</ele><time>2026-04-18T09:27:25.001Z</time></trkpt><trkpt lat="39.527741947927694" lon="8.606312152182683"><ele>345.0</ele><time>2026-04-18T09:27:26.001Z</time></trkpt><trkpt lat="39.52770236394817" lon="8.606198754084376"><ele>344.0</ele><time>2026-04-18T09:27:27.001Z</time></trkpt><trkpt lat="39.527669996407575" lon="8.606081717667308"><ele>343.0</ele><time>2026-04-18T09:27:28.001Z</time></trkpt><trkpt lat="39.5276475433391" lon="8.605973648578072"><ele>342.0</ele><time>2026-04-18T09:27:29.001Z</time></trkpt><trkpt lat="39.52762445159391" lon="8.60585667622588"><ele>341.3333333333333</ele><time>2026-04-18T09:27:30.001Z</time></trkpt><trkpt lat="39.52760442327234" lon="8.605739463361253"><ele>340.6666666666667</ele><time>2026-04-18T09:27:31.001Z</time></trkpt><trkpt lat="39.527585316065654" lon="8.605621178280492"><ele>340.0</ele><time>2026-04-18T09:27:32.001Z</time></trkpt><trkpt lat="39.527570063079175" lon="8.605504286604534"><ele>339.33333333333337</ele><time>2026-04-18T09:27:33.001Z</time></trkpt><trkpt lat="39.52756303051618" lon="8.605403513645673"><ele>338.6666666666667</ele><time>2026-04-18T09:27:34.001Z</time></trkpt><trkpt lat="39.52756209065712" lon="8.605314216248386"><ele>338.0</ele><time>2026-04-18T09:27:35.001Z</time></trkpt><trkpt lat="39.527575933187535" lon="8.605183752943846"><ele>337.0</ele><time>2026-04-18T09:27:37.001Z</time></trkpt><trkpt lat="39.52761425350764" lon="8.605108938384204"><ele>336.0</ele><time>2026-04-18T09:27:40.001Z</time></trkpt><trkpt lat="39.527546167955" lon="8.604967824452368"><ele>335.0</ele><time>2026-04-18T09:27:44.001Z</time></trkpt><trkpt lat="39.52745511282114" lon="8.604922400039849"><ele>334.0</ele><time>2026-04-18T09:27:46.001Z</time></trkpt><trkpt lat="39.52734953982983" lon="8.604866157894204"><ele>333.0</ele><time>2026-04-18T09:27:48.001Z</time></trkpt><trkpt lat="39.52729087143731" lon="8.604829973026666"><ele>333.0</ele><time>2026-04-18T09:27:49.001Z</time></trkpt><trkpt lat="39.52722656612977" lon="8.604793116231921"><ele>333.0</ele><time>2026-04-18T09:27:50.001Z</time></trkpt><trkpt lat="39.52716783229873" lon="8.604753773755695"><ele>333.0</ele><time>2026-04-18T09:27:51.001Z</time></trkpt><trkpt lat="39.52709987332626" lon="8.60474590140387"><ele>333.0</ele><time>2026-04-18T09:27:52.001Z</time></trkpt><trkpt lat="39.5270372077826" lon="8.604771420599876"><ele>333.0</ele><time>2026-04-18T09:27:53.001Z</time></trkpt><trkpt lat="39.526986083437606" lon="8.604831725365353"><ele>333.0</ele><time>2026-04-18T09:27:54.001Z</time></trkpt><trkpt lat="39.52692926551668" lon="8.604891614579492"><ele>333.0</ele><time>2026-04-18T09:27:55.001Z</time></trkpt><trkpt lat="39.52688190448253" lon="8.604969378198117"><ele>332.3333333333333</ele><time>2026-04-18T09:27:56.001Z</time></trkpt><trkpt lat="39.526832726136334" lon="8.605048398992183"><ele>331.6666666666667</ele><time>2026-04-18T09:27:57.001Z</time></trkpt><trkpt lat="39.52677844410597" lon="8.605133467652585"><ele>331.0</ele><time>2026-04-18T09:27:58.001Z</time></trkpt><trkpt lat="39.52672268274423" lon="8.605220854946692"><ele>330.33333333333337</ele><time>2026-04-18T09:27:59.001Z</time></trkpt><trkpt lat="39.5266761596991" lon="8.605321235022133"><ele>329.6666666666667</ele><time>2026-04-18T09:28:00.001Z</time></trkpt><trkpt lat="39.526621357075655" lon="8.605406357540843"><ele>329.0</ele><time>2026-04-18T09:28:01.001Z</time></trkpt><trkpt lat="39.5265575771719" lon="8.605478065914308"><ele>329.0</ele><time>2026-04-18T09:28:02.001Z</time></trkpt><trkpt lat="39.52650670029968" lon="8.605557256533691"><ele>329.0</ele><time>2026-04-18T09:28:03Z</time></trkpt><trkpt lat="39.52645584714574" lon="8.605637992406482"><ele>329.0</ele><time>2026-04-18T09:28:04Z</time></trkpt><trkpt lat="39.526417498454784" lon="8.605729844837095"><ele>329.0</ele><time>2026-04-18T09:28:05Z</time></trkpt><trkpt lat="39.5263536341514" lon="8.605798667588207"><ele>329.0</ele><time>2026-04-18T09:28:06Z</time></trkpt><trkpt lat="39.526278977732275" lon="8.605849098890523"><ele>329.0</ele><time>2026-04-18T09:28:07Z</time></trkpt><trkpt lat="39.526193668803245" lon="8.60587390137176"><ele>329.2</ele><time>2026-04-18T09:28:08Z</time></trkpt><trkpt lat="39.52610507426644" lon="8.60588104093131"><ele>329.4</ele><time>2026-04-18T09:28:09Z</time></trkpt><trkpt lat="39.5260176923398" lon="8.6058525079665"><ele>329.6</ele><time>2026-04-18T09:28:10Z</time></trkpt><trkpt lat="39.52592197787942" lon="8.60585352242117"><ele>329.8</ele><time>2026-04-18T09:28:11Z</time></trkpt><trkpt lat="39.52582870422101" lon="8.605816965973755"><ele>330.0</ele><time>2026-04-18T09:28:12Z</time></trkpt><trkpt lat="39.52573539460319" lon="8.605766393365078"><ele>330.0</ele><time>2026-04-18T09:28:13Z</time></trkpt><trkpt lat="39.52564786681803" lon="8.605695289632743"><ele>330.0</ele><time>2026-04-18T09:28:14Z</time></trkpt><trkpt lat="39.52557536145517" lon="8.60561470836502"><ele>330.0</ele><time>2026-04-18T09:28:15Z</time></trkpt><trkpt lat="39.52551773473433" lon="8.605536885368616"><ele>330.0</ele><time>2026-04-18T09:28:16Z</time></trkpt><trkpt lat="39.5254903753842" lon="8.605457934306529"><ele>330.0</ele><time>2026-04-18T09:28:17Z</time></trkpt><trkpt lat="39.52542431822798" lon="8.605369104041761"><ele>330.0</ele><time>2026-04-18T09:28:19Z</time></trkpt><trkpt lat="39.52541398857343" lon="8.605262886064299"><ele>328.6</ele><time>2026-04-18T09:28:23Z</time></trkpt><trkpt lat="39.525454074943184" lon="8.605145460608021"><ele>327.2</ele><time>2026-04-18T09:28:26Z</time></trkpt><trkpt lat="39.525504523650284" lon="8.605069001426084"><ele>325.79999999999995</ele><time>2026-04-18T09:28:27Z</time></trkpt><trkpt lat="39.52554851015543" lon="8.604953857537108"><ele>324.4</ele><time>2026-04-18T09:28:28Z</time></trkpt><trkpt lat="39.52559776123734" lon="8.604817159562264"><ele>323.0</ele><time>2026-04-18T09:28:29Z</time></trkpt><trkpt lat="39.525648863670256" lon="8.604679849750033"><ele>323.0</ele><time>2026-04-18T09:28:30Z</time></trkpt><trkpt lat="39.52570361568899" lon="8.604536022863897"><ele>323.0</ele><time>2026-04-18T09:28:31Z</time></trkpt><trkpt lat="39.525758079045964" lon="8.604388851987938"><ele>323.0</ele><time>2026-04-18T09:28:32Z</time></trkpt><trkpt lat="39.52580883160323" lon="8.604248235638911"><ele>323.0</ele><time>2026-04-18T09:28:33Z</time></trkpt><trkpt lat="39.52585390379111" lon="8.604116507159128"><ele>322.79999999999995</ele><time>2026-04-18T09:28:34Z</time></trkpt><trkpt lat="39.52589423557051" lon="8.603987135210021"><ele>322.6</ele><time>2026-04-18T09:28:35Z</time></trkpt><trkpt lat="39.5259412367119" lon="8.60386904604964"><ele>322.4</ele><time>2026-04-18T09:28:36Z</time></trkpt><trkpt lat="39.52599189220095" lon="8.603755461026168"><ele>322.20000000000005</ele><time>2026-04-18T09:28:37Z</time></trkpt><trkpt lat="39.52603718244303" lon="8.603641990822554"><ele>322.0</ele><time>2026-04-18T09:28:38Z</time></trkpt><trkpt lat="39.52607829489496" lon="8.603530516562572"><ele>322.0</ele><time>2026-04-18T09:28:39Z</time></trkpt><trkpt lat="39.52611883844388" lon="8.603423015729756"><ele>322.0</ele><time>2026-04-18T09:28:40Z</time></trkpt><trkpt lat="39.52615765231849" lon="8.603319293506049"><ele>322.0</ele><time>2026-04-18T09:28:41Z</time></trkpt><trkpt lat="39.52619707178157" lon="8.603215788048061"><ele>322.0</ele><time>2026-04-18T09:28:42Z</time></trkpt><trkpt lat="39.526234846354214" lon="8.603117574648207"><ele>322.0</ele><time>2026-04-18T09:28:43Z</time></trkpt><trkpt lat="39.52627252114037" lon="8.603018287288595"><ele>322.0</ele><time>2026-04-18T09:28:44Z</time></trkpt><trkpt lat="39.52631600857026" lon="8.602915086953185"><ele>320.14285714285717</ele><time>2026-04-18T09:28:45Z</time></trkpt><trkpt lat="39.52635337260302" lon="8.602811062487525"><ele>318.2857142857143</ele><time>2026-04-18T09:28:46Z</time></trkpt><trkpt lat="39.52637023202106" lon="8.602713803513186"><ele>316.42857142857144</ele><time>2026-04-18T09:28:47Z</time></trkpt><trkpt lat="39.52637182446402" lon="8.602625103554395"><ele>314.57142857142856</ele><time>2026-04-18T09:28:48Z</time></trkpt><trkpt lat="39.52636683890611" lon="8.602535689134308"><ele>312.7142857142857</ele><time>2026-04-18T09:28:49Z</time></trkpt><trkpt lat="39.526351287428355" lon="8.60244627609418"><ele>310.8571428571429</ele><time>2026-04-18T09:28:50Z</time></trkpt><trkpt lat="39.52632500001546" lon="8.602359136186896"><ele>309.0</ele><time>2026-04-18T09:28:51Z</time></trkpt><trkpt lat="39.526296644229355" lon="8.60226562067643"><ele>309.0</ele><time>2026-04-18T09:28:52Z</time></trkpt><trkpt lat="39.526260679199524" lon="8.602164114619656"><ele>309.0</ele><time>2026-04-18T09:28:53Z</time></trkpt><trkpt lat="39.526223759160246" lon="8.602056883207284"><ele>309.0</ele><time>2026-04-18T09:28:54Z</time></trkpt><trkpt lat="39.526194170374986" lon="8.601945490544022"><ele>309.0</ele><time>2026-04-18T09:28:55Z</time></trkpt><trkpt lat="39.526172625438264" lon="8.601833486572351"><ele>309.0</ele><time>2026-04-18T09:28:56Z</time></trkpt><trkpt lat="39.526169297086845" lon="8.601721193954237"><ele>309.0</ele><time>2026-04-18T09:28:57Z</time></trkpt><trkpt lat="39.52616091937822" lon="8.601614527167236"><ele>309.0</ele><time>2026-04-18T09:28:58Z</time></trkpt><trkpt lat="39.52612820317118" lon="8.601517692231859"><ele>309.0</ele><time>2026-04-18T09:28:59Z</time></trkpt><trkpt lat="39.52606845538379" lon="8.601444292708825"><ele>309.0</ele><time>2026-04-18T09:29:00Z</time></trkpt><trkpt lat="39.526005085893765" lon="8.601381392793087"><ele>309.0</ele><time>2026-04-18T09:29:01Z</time></trkpt><trkpt lat="39.52594007618633" lon="8.601311706620688"><ele>309.0</ele><time>2026-04-18T09:29:02Z</time></trkpt><trkpt lat="39.52587813705748" lon="8.601233654521863"><ele>309.0</ele><time>2026-04-18T09:29:03Z</time></trkpt><trkpt lat="39.52581672816701" lon="8.601130673889841"><ele>307.4</ele><time>2026-04-18T09:29:04Z</time></trkpt><trkpt lat="39.525730399839375" lon="8.601044545044147"><ele>305.79999999999995</ele><time>2026-04-18T09:29:05Z</time></trkpt><trkpt lat="39.5256303938891" lon="8.600991417463334"><ele>304.20000000000005</ele><time>2026-04-18T09:29:06Z</time></trkpt><trkpt lat="39.52553806185685" lon="8.60095864073397"><ele>302.6</ele><time>2026-04-18T09:29:07Z</time></trkpt><trkpt lat="39.52546257860052" lon="8.600898966501653"><ele>301.0</ele><time>2026-04-18T09:29:08Z</time></trkpt><trkpt lat="39.52540166852494" lon="8.600822873507342"><ele>300.66666666666663</ele><time>2026-04-18T09:29:09Z</time></trkpt><trkpt lat="39.525350672825255" lon="8.600732799254674"><ele>300.3333333333333</ele><time>2026-04-18T09:29:10Z</time></trkpt><trkpt lat="39.52531093602312" lon="8.600643868034904"><ele>300.0</ele><time>2026-04-18T09:29:11Z</time></trkpt><trkpt lat="39.52528544644337" lon="8.600549639348133"><ele>299.6666666666667</ele><time>2026-04-18T09:29:12Z</time></trkpt><trkpt lat="39.52528170796416" lon="8.600440260388362"><ele>299.33333333333337</ele><time>2026-04-18T09:29:13Z</time></trkpt><trkpt lat="39.52527649151822" lon="8.60034175378917"><ele>299.0</ele><time>2026-04-18T09:29:14Z</time></trkpt><trkpt lat="39.52524915626553" lon="8.600261053339143"><ele>296.6666666666667</ele><time>2026-04-18T09:29:15Z</time></trkpt><trkpt lat="39.52520250529429" lon="8.600193837673514"><ele>294.33333333333337</ele><time>2026-04-18T09:29:16Z</time></trkpt><trkpt lat="39.52514314493169" lon="8.600126925340255"><ele>292.0</ele><time>2026-04-18T09:29:17Z</time></trkpt><trkpt lat="39.525079854003636" lon="8.600057184093478"><ele>289.6666666666667</ele><time>2026-04-18T09:29:18Z</time></trkpt><trkpt lat="39.525017027761656" lon="8.599978458227223"><ele>287.3333333333333</ele><time>2026-04-18T09:29:19Z</time></trkpt><trkpt lat="39.5249513396979" lon="8.599894663570556"><ele>285.0</ele><time>2026-04-18T09:29:20Z</time></trkpt><trkpt lat="39.524887038430485" lon="8.599801735356388"><ele>285.0</ele><time>2026-04-18T09:29:21Z</time></trkpt><trkpt lat="39.52482301876308" lon="8.59970445959943"><ele>285.0</ele><time>2026-04-18T09:29:22Z</time></trkpt><trkpt lat="39.5247593995402" lon="8.599607071320909"><ele>285.0</ele><time>2026-04-18T09:29:23Z</time></trkpt><trkpt lat="39.524690259432745" lon="8.599511996160524"><ele>285.0</ele><time>2026-04-18T09:29:24Z</time></trkpt><trkpt lat="39.524609929999905" lon="8.599440031501844"><ele>285.0</ele><time>2026-04-18T09:29:25Z</time></trkpt><trkpt lat="39.52451377181928" lon="8.599408116092894"><ele>283.4</ele><time>2026-04-18T09:29:26Z</time></trkpt><trkpt lat="39.52441396993308" lon="8.599403153580122"><ele>281.8</ele><time>2026-04-18T09:29:27Z</time></trkpt><trkpt lat="39.52431275330166" lon="8.599409677493885"><ele>280.2</ele><time>2026-04-18T09:29:28Z</time></trkpt><trkpt lat="39.52421625010461" lon="8.599383542808775"><ele>278.6</ele><time>2026-04-18T09:29:29Z</time></trkpt><trkpt lat="39.524119949852036" lon="8.599375594543892"><ele>277.0</ele><time>2026-04-18T09:29:30Z</time></trkpt><trkpt lat="39.524024594213145" lon="8.5993680790472"><ele>277.0</ele><time>2026-04-18T09:29:31Z</time></trkpt><trkpt lat="39.52392517580272" lon="8.599360243318307"><ele>277.0</ele><time>2026-04-18T09:29:32Z</time></trkpt><trkpt lat="39.52382566104121" lon="8.599352399984726"><ele>277.0</ele><time>2026-04-18T09:29:33Z</time></trkpt><trkpt lat="39.5237259369445" lon="8.599344540171787"><ele>277.0</ele><time>2026-04-18T09:29:34Z</time></trkpt><trkpt lat="39.52362312451866" lon="8.59933514354287"><ele>277.0</ele><time>2026-04-18T09:29:35Z</time></trkpt><trkpt lat="39.5235206783549" lon="8.599325644619416"><ele>275.6</ele><time>2026-04-18T09:29:36Z</time></trkpt><trkpt lat="39.52342138327736" lon="8.599296720895444"><ele>274.2</ele><time>2026-04-18T09:29:37Z</time></trkpt><trkpt lat="39.523322895868695" lon="8.599254255348988"><ele>272.8</ele><time>2026-04-18T09:29:38Z</time></trkpt><trkpt lat="39.52321995505819" lon="8.599218024372588"><ele>271.4</ele><time>2026-04-18T09:29:39Z</time></trkpt><trkpt lat="39.523125104327356" lon="8.599150526503633"><ele>270.0</ele><time>2026-04-18T09:29:40Z</time></trkpt><trkpt lat="39.523033649449324" lon="8.599072907001077"><ele>270.0</ele><time>2026-04-18T09:29:41Z</time></trkpt><trkpt lat="39.52296464540039" lon="8.598974092535196"><ele>270.0</ele><time>2026-04-18T09:29:42Z</time></trkpt><trkpt lat="39.522896788597244" lon="8.598911193156914"><ele>270.0</ele><time>2026-04-18T09:29:43Z</time></trkpt><trkpt lat="39.52285706980614" lon="8.598842252741564"><ele>270.0</ele><time>2026-04-18T09:29:44Z</time></trkpt><trkpt lat="39.52281880099633" lon="8.598772804227895"><ele>270.0</ele><time>2026-04-18T09:29:45Z</time></trkpt><trkpt lat="39.522772719919494" lon="8.59867417725493"><ele>270.0</ele><time>2026-04-18T09:29:47Z</time></trkpt><trkpt lat="39.5227087503678" lon="8.598554945762862"><ele>268.1428571428571</ele><time>2026-04-18T09:29:49Z</time></trkpt><trkpt lat="39.522673905155905" lon="8.598482921543766"><ele>266.2857142857143</ele><time>2026-04-18T09:29:50Z</time></trkpt><trkpt lat="39.522651691695124" lon="8.598391378916892"><ele>264.42857142857144</ele><time>2026-04-18T09:29:51Z</time></trkpt><trkpt lat="39.52259098672549" lon="8.5983346011306"><ele>262.57142857142856</ele><time>2026-04-18T09:29:52Z</time></trkpt><trkpt lat="39.52254486781592" lon="8.598254471780535"><ele>260.7142857142857</ele><time>2026-04-18T09:29:53Z</time></trkpt><trkpt lat="39.52249852815945" lon="8.598185249953186"><ele>258.85714285714283</ele><time>2026-04-18T09:29:54Z</time></trkpt><trkpt lat="39.52245289598583" lon="8.598107782552692"><ele>257.0</ele><time>2026-04-18T09:29:55Z</time></trkpt><trkpt lat="39.52243669480811" lon="8.59801204239695"><ele>257.0</ele><time>2026-04-18T09:29:56Z</time></trkpt><trkpt lat="39.52244083266658" lon="8.597911162322918"><ele>257.0</ele><time>2026-04-18T09:29:57Z</time></trkpt><trkpt lat="39.52244600874907" lon="8.597806729184699"><ele>257.0</ele><time>2026-04-18T09:29:58Z</time></trkpt><trkpt lat="39.52245040014745" lon="8.597700579886178"><ele>257.0</ele><time>2026-04-18T09:29:59Z</time></trkpt><trkpt lat="39.522457186296585" lon="8.597590636748192"><ele>257.0</ele><time>2026-04-18T09:30:00Z</time></trkpt><trkpt lat="39.5224596855558" lon="8.597479409266478"><ele>257.0</ele><time>2026-04-18T09:30:01Z</time></trkpt><trkpt lat="39.52245910607259" lon="8.59735306676291"><ele>257.83333333333337</ele><time>2026-04-18T09:30:02Z</time></trkpt><trkpt lat="39.52244133501118" lon="8.597245343159384"><ele>258.6666666666667</ele><time>2026-04-18T09:30:03Z</time></trkpt><trkpt lat="39.52240019773801" lon="8.597161239364384"><ele>259.5</ele><time>2026-04-18T09:30:04Z</time></trkpt><trkpt lat="39.52235162541077" lon="8.597086070156005"><ele>260.3333333333333</ele><time>2026-04-18T09:30:05Z</time></trkpt><trkpt lat="39.5222725242246" lon="8.597007588488879"><ele>261.16666666666663</ele><time>2026-04-18T09:30:06Z</time></trkpt><trkpt lat="39.52222024847602" lon="8.59692470243254"><ele>262.0</ele><time>2026-04-18T09:30:07Z</time></trkpt><trkpt lat="39.52217344884159" lon="8.59685234031007"><ele>263.2</ele><time>2026-04-18T09:30:08Z</time></trkpt><trkpt lat="39.522116921008404" lon="8.596689827275789"><ele>264.4</ele><time>2026-04-18T09:30:10Z</time></trkpt><trkpt lat="39.52210742421103" lon="8.596582109602068"><ele>265.6</ele><time>2026-04-18T09:30:11Z</time></trkpt><trkpt lat="39.52207962666027" lon="8.596480733238486"><ele>266.8</ele><time>2026-04-18T09:30:12Z</time></trkpt><trkpt lat="39.522089686421054" lon="8.596390324183522"><ele>268.0</ele><time>2026-04-18T09:30:13Z</time></trkpt><trkpt lat="39.5220970577343" lon="8.596264730067325"><ele>267.8</ele><time>2026-04-18T09:30:15Z</time></trkpt><trkpt lat="39.52211319232067" lon="8.59616343697496"><ele>267.6</ele><time>2026-04-18T09:30:17Z</time></trkpt><trkpt lat="39.52220999360423" lon="8.596062479408403"><ele>267.4</ele><time>2026-04-18T09:30:19Z</time></trkpt><trkpt lat="39.52230681725932" lon="8.596052082700728"><ele>267.2</ele><time>2026-04-18T09:30:20Z</time></trkpt><trkpt lat="39.52239943007034" lon="8.596029126889473"><ele>267.0</ele><time>2026-04-18T09:30:21Z</time></trkpt><trkpt lat="39.52249453647795" lon="8.59600541418495"><ele>267.0</ele><time>2026-04-18T09:30:22Z</time></trkpt><trkpt lat="39.52258673292393" lon="8.595983012646496"><ele>267.0</ele><time>2026-04-18T09:30:23Z</time></trkpt><trkpt lat="39.52267030370373" lon="8.595964541124753"><ele>267.0</ele><time>2026-04-18T09:30:24Z</time></trkpt><trkpt lat="39.52274631746826" lon="8.595935565545902"><ele>267.0</ele><time>2026-04-18T09:30:25Z</time></trkpt><trkpt lat="39.52280889113811" lon="8.595886367492001"><ele>267.0</ele><time>2026-04-18T09:30:26Z</time></trkpt><trkpt lat="39.52285739669813" lon="8.595816493172837"><ele>267.0</ele><time>2026-04-18T09:30:27Z</time></trkpt><trkpt lat="39.52290700148342" lon="8.595736829293044"><ele>268.3333333333333</ele><time>2026-04-18T09:30:28Z</time></trkpt><trkpt lat="39.52296628960187" lon="8.59565868142749"><ele>269.6666666666667</ele><time>2026-04-18T09:30:29Z</time></trkpt><trkpt lat="39.523023080837646" lon="8.595576900548688"><ele>271.0</ele><time>2026-04-18T09:30:30Z</time></trkpt><trkpt lat="39.52308335951941" lon="8.595495837436387"><ele>272.33333333333337</ele><time>2026-04-18T09:30:31Z</time></trkpt><trkpt lat="39.52314972996701" lon="8.595432609455406"><ele>273.6666666666667</ele><time>2026-04-18T09:30:32Z</time></trkpt><trkpt lat="39.52321943101123" lon="8.59539864412959"><ele>275.0</ele><time>2026-04-18T09:30:33Z</time></trkpt><trkpt lat="39.523282000769974" lon="8.595382361947504"><ele>275.0</ele><time>2026-04-18T09:30:34Z</time></trkpt><trkpt lat="39.5233667742756" lon="8.595359232148857"><ele>275.0</ele><time>2026-04-18T09:30:36Z</time></trkpt><trkpt lat="39.523429711940345" lon="8.595342190051957"><ele>275.0</ele><time>2026-04-18T09:30:40Z</time></trkpt><trkpt lat="39.523509907420156" lon="8.595339973523462"><ele>275.0</ele><time>2026-04-18T09:30:43Z</time></trkpt><trkpt lat="39.523528571587896" lon="8.59517908318053"><ele>275.0</ele><time>2026-04-18T09:30:44Z</time></trkpt><trkpt lat="39.52354282158156" lon="8.595080902892972"><ele>275.0</ele><time>2026-04-18T09:30:45Z</time></trkpt><trkpt lat="39.52357967253919" lon="8.594996842768765"><ele>273.57142857142856</ele><time>2026-04-18T09:30:46Z</time></trkpt><trkpt lat="39.523603634825854" lon="8.594899180351398"><ele>272.1428571428571</ele><time>2026-04-18T09:30:47Z</time></trkpt><trkpt lat="39.52362547226265" lon="8.594799838594387"><ele>270.71428571428567</ele><time>2026-04-18T09:30:48Z</time></trkpt><trkpt lat="39.52363361443109" lon="8.59470139770085"><ele>269.2857142857143</ele><time>2026-04-18T09:30:49Z</time></trkpt><trkpt lat="39.52366606754201" lon="8.594620810128955"><ele>267.85714285714283</ele><time>2026-04-18T09:30:50Z</time></trkpt><trkpt lat="39.52370685677529" lon="8.594546847908425"><ele>266.4285714285714</ele><time>2026-04-18T09:30:51Z</time></trkpt><trkpt lat="39.523758550056776" lon="8.594484133277774"><ele>265.0</ele><time>2026-04-18T09:30:52Z</time></trkpt><trkpt lat="39.52381273131795" lon="8.594424032980905"><ele>263.8333333333333</ele><time>2026-04-18T09:30:53Z</time></trkpt><trkpt lat="39.52387729269065" lon="8.594376976897795"><ele>262.66666666666663</ele><time>2026-04-18T09:30:54Z</time></trkpt><trkpt lat="39.52395041897851" lon="8.594339029659022"><ele>261.5</ele><time>2026-04-18T09:30:55Z</time></trkpt><trkpt lat="39.52402474617012" lon="8.594305523042244"><ele>260.3333333333333</ele><time>2026-04-18T09:30:56Z</time></trkpt><trkpt lat="39.52410409687828" lon="8.59427790691792"><ele>259.1666666666667</ele><time>2026-04-18T09:30:57Z</time></trkpt><trkpt lat="39.524184154470056" lon="8.59424589522011"><ele>258.0</ele><time>2026-04-18T09:30:58Z</time></trkpt><trkpt lat="39.52426740317628" lon="8.594216982854093"><ele>258.0</ele><time>2026-04-18T09:30:59Z</time></trkpt><trkpt lat="39.52435003222171" lon="8.594182259255497"><ele>258.0</ele><time>2026-04-18T09:31:00Z</time></trkpt><trkpt lat="39.524433845460386" lon="8.594142142916128"><ele>258.0</ele><time>2026-04-18T09:31:01Z</time></trkpt><trkpt lat="39.52452240799774" lon="8.594110658861656"><ele>258.0</ele><time>2026-04-18T09:31:02Z</time></trkpt><trkpt lat="39.5246105075462" lon="8.59408516942956"><ele>258.0</ele><time>2026-04-18T09:31:03Z</time></trkpt><trkpt lat="39.52469990847801" lon="8.59408235569506"><ele>258.0</ele><time>2026-04-18T09:31:04Z</time></trkpt><trkpt lat="39.52478596093921" lon="8.59407877135139"><ele>258.0</ele><time>2026-04-18T09:31:05Z</time></trkpt><trkpt lat="39.524867169516824" lon="8.594074610646434"><ele>258.0</ele><time>2026-04-18T09:31:06Z</time></trkpt><trkpt lat="39.52494691894553" lon="8.59410501729172"><ele>258.0</ele><time>2026-04-18T09:31:07Z</time></trkpt><trkpt lat="39.52502803671863" lon="8.594098289106764"><ele>258.0</ele><time>2026-04-18T09:31:08Z</time></trkpt><trkpt lat="39.52510421229459" lon="8.59410608766687"><ele>258.0</ele><time>2026-04-18T09:31:09Z</time></trkpt><trkpt lat="39.525174443026344" lon="8.59410516514462"><ele>258.0</ele><time>2026-04-18T09:31:10Z</time></trkpt><trkpt lat="39.52529087168895" lon="8.594079753542603"><ele>258.0</ele><time>2026-04-18T09:31:12Z</time></trkpt><trkpt lat="39.52535444382442" lon="8.594051793342242"><ele>258.0</ele><time>2026-04-18T09:31:13Z</time></trkpt><trkpt lat="39.52539751647647" lon="8.593977918703704"><ele>258.0</ele><time>2026-04-18T09:31:14Z</time></trkpt><trkpt lat="39.52538997967845" lon="8.59386821499216"><ele>258.0</ele><time>2026-04-18T09:31:15Z</time></trkpt><trkpt lat="39.52540197402106" lon="8.59377027586699"><ele>258.0</ele><time>2026-04-18T09:31:16Z</time></trkpt><trkpt lat="39.525404005759285" lon="8.593660567167396"><ele>258.0</ele><time>2026-04-18T09:31:17Z</time></trkpt><trkpt lat="39.52541463103328" lon="8.593556333250872"><ele>257.2</ele><time>2026-04-18T09:31:18Z</time></trkpt><trkpt lat="39.52543975958103" lon="8.593454880304241"><ele>256.4</ele><time>2026-04-18T09:31:19Z</time></trkpt><trkpt lat="39.525464588651396" lon="8.593367471792037"><ele>255.59999999999997</ele><time>2026-04-18T09:31:20Z</time></trkpt><trkpt lat="39.52551494148987" lon="8.593207142083026"><ele>254.79999999999998</ele><time>2026-04-18T09:31:22Z</time></trkpt><trkpt lat="39.5255489514765" lon="8.593113079107274"><ele>254.0</ele><time>2026-04-18T09:31:23Z</time></trkpt><trkpt lat="39.52558479449323" lon="8.593017047998305"><ele>254.00000000000003</ele><time>2026-04-18T09:31:24Z</time></trkpt><trkpt lat="39.525622570079186" lon="8.592918734800667"><ele>254.0</ele><time>2026-04-18T09:31:25Z</time></trkpt><trkpt lat="39.525660767374006" lon="8.592820093788736"><ele>254.0</ele><time>2026-04-18T09:31:26Z</time></trkpt><trkpt lat="39.52569855342331" lon="8.592722514786171"><ele>254.0</ele><time>2026-04-18T09:31:27Z</time></trkpt><trkpt lat="39.525736108665896" lon="8.592625320032452"><ele>254.00000000000003</ele><time>2026-04-18T09:31:28Z</time></trkpt><trkpt lat="39.52576291283526" lon="8.592518876561353"><ele>254.0</ele><time>2026-04-18T09:31:29Z</time></trkpt><trkpt lat="39.525804210481105" lon="8.592427889555196"><ele>255.0</ele><time>2026-04-18T09:31:30Z</time></trkpt><trkpt lat="39.52583183558519" lon="8.592343801611033"><ele>256.0</ele><time>2026-04-18T09:31:31Z</time></trkpt><trkpt lat="39.52585179157138" lon="8.592258383319562"><ele>257.0</ele><time>2026-04-18T09:31:32Z</time></trkpt><trkpt lat="39.5258635355582" lon="8.592171166957627"><ele>258.0</ele><time>2026-04-18T09:31:33Z</time></trkpt><trkpt lat="39.52585612948365" lon="8.592084958873123"><ele>259.0</ele><time>2026-04-18T09:31:34Z</time></trkpt><trkpt lat="39.52583351241289" lon="8.592005039530168"><ele>260.0</ele><time>2026-04-18T09:31:35Z</time></trkpt><trkpt lat="39.52579688551471" lon="8.591929760069178"><ele>261.0</ele><time>2026-04-18T09:31:36Z</time></trkpt><trkpt lat="39.52574818337048" lon="8.591855362356908"><ele>261.3333333333333</ele><time>2026-04-18T09:31:37Z</time></trkpt><trkpt lat="39.52571442295819" lon="8.591767853133433"><ele>261.6666666666667</ele><time>2026-04-18T09:31:38Z</time></trkpt><trkpt lat="39.525653603322475" lon="8.591706719687783"><ele>262.0</ele><time>2026-04-18T09:31:39Z</time></trkpt><trkpt lat="39.52559835878411" lon="8.591622316056336"><ele>262.33333333333337</ele><time>2026-04-18T09:31:40Z</time></trkpt><trkpt lat="39.525537070897414" lon="8.59153220746747"><ele>262.6666666666667</ele><time>2026-04-18T09:31:41Z</time></trkpt><trkpt lat="39.525476651646926" lon="8.591443365648436"><ele>263.0</ele><time>2026-04-18T09:31:42Z</time></trkpt><trkpt lat="39.52541807902876" lon="8.591357041244391"><ele>262.0</ele><time>2026-04-18T09:31:43Z</time></trkpt><trkpt lat="39.52535640112838" lon="8.591267231375909"><ele>261.0</ele><time>2026-04-18T09:31:44Z</time></trkpt><trkpt lat="39.525293461438466" lon="8.59117609376422"><ele>260.0</ele><time>2026-04-18T09:31:45Z</time></trkpt><trkpt lat="39.52523043541562" lon="8.59108736896344"><ele>259.0</ele><time>2026-04-18T09:31:46Z</time></trkpt><trkpt lat="39.525155642045156" lon="8.591023917677052"><ele>258.0</ele><time>2026-04-18T09:31:47Z</time></trkpt><trkpt lat="39.525089679005816" lon="8.590950324317177"><ele>257.2</ele><time>2026-04-18T09:31:48Z</time></trkpt><trkpt lat="39.525086044695314" lon="8.590789513271249"><ele>256.4</ele><time>2026-04-18T09:31:49Z</time></trkpt><trkpt lat="39.525070915884896" lon="8.590660394765026"><ele>255.59999999999997</ele><time>2026-04-18T09:31:50Z</time></trkpt><trkpt lat="39.525083676893445" lon="8.590526749637657"><ele>254.79999999999998</ele><time>2026-04-18T09:31:51Z</time></trkpt><trkpt lat="39.52510938703422" lon="8.590381406616569"><ele>254.0</ele><time>2026-04-18T09:31:52Z</time></trkpt><trkpt lat="39.52513410236029" lon="8.59023888276149"><ele>253.39999999999998</ele><time>2026-04-18T09:31:53Z</time></trkpt><trkpt lat="39.525154484792175" lon="8.590100787670407"><ele>252.79999999999998</ele><time>2026-04-18T09:31:54Z</time></trkpt><trkpt lat="39.525172751084696" lon="8.589970511756714"><ele>252.20000000000002</ele><time>2026-04-18T09:31:55Z</time></trkpt><trkpt lat="39.5251820755054" lon="8.589846767093672"><ele>251.60000000000002</ele><time>2026-04-18T09:31:56Z</time></trkpt><trkpt lat="39.525173088729574" lon="8.589728229087127"><ele>251.0</ele><time>2026-04-18T09:31:57Z</time></trkpt><trkpt lat="39.52512660111425" lon="8.589631963490213"><ele>251.0</ele><time>2026-04-18T09:31:58Z</time></trkpt><trkpt lat="39.525054233620885" lon="8.589563404943837"><ele>251.00000000000003</ele><time>2026-04-18T09:31:59Z</time></trkpt><trkpt lat="39.52498111571053" lon="8.589487249043259"><ele>251.00000000000003</ele><time>2026-04-18T09:32:00Z</time></trkpt><trkpt lat="39.52489934175195" lon="8.589425206235067"><ele>251.0</ele><time>2026-04-18T09:32:01Z</time></trkpt><trkpt lat="39.524824888011395" lon="8.589365686284964"><ele>251.0</ele><time>2026-04-18T09:32:02Z</time></trkpt><trkpt lat="39.524745667080936" lon="8.589314610453313"><ele>251.0</ele><time>2026-04-18T09:32:03Z</time></trkpt><trkpt lat="39.52469252371728" lon="8.589225041639327"><ele>251.00000000000003</ele><time>2026-04-18T09:32:04Z</time></trkpt><trkpt lat="39.52465581342601" lon="8.58912088859206"><ele>251.00000000000003</ele><time>2026-04-18T09:32:05Z</time></trkpt><trkpt lat="39.52463937066863" lon="8.589006286479965"><ele>251.0</ele><time>2026-04-18T09:32:06Z</time></trkpt><trkpt lat="39.5246366613128" lon="8.588887107260794"><ele>251.0</ele><time>2026-04-18T09:32:07Z</time></trkpt><trkpt lat="39.52464980464435" lon="8.588761760579885"><ele>251.0</ele><time>2026-04-18T09:32:08Z</time></trkpt><trkpt lat="39.52467466066936" lon="8.588633880157452"><ele>251.00000000000003</ele><time>2026-04-18T09:32:09Z</time></trkpt><trkpt lat="39.52470101371475" lon="8.58850995535189"><ele>251.00000000000003</ele><time>2026-04-18T09:32:10Z</time></trkpt><trkpt lat="39.52472431204667" lon="8.58838700583886"><ele>251.0</ele><time>2026-04-18T09:32:11Z</time></trkpt><trkpt lat="39.524740652950214" lon="8.588268720752406"><ele>251.0</ele><time>2026-04-18T09:32:12Z</time></trkpt><trkpt lat="39.52474238896959" lon="8.588153628083461"><ele>251.0</ele><time>2026-04-18T09:32:13Z</time></trkpt><trkpt lat="39.52471613001809" lon="8.588042764116706"><ele>251.00000000000003</ele><time>2026-04-18T09:32:14Z</time></trkpt><trkpt lat="39.52465807740987" lon="8.58793950555163"><ele>251.00000000000003</ele><time>2026-04-18T09:32:15Z</time></trkpt><trkpt lat="39.52458014412364" lon="8.587872969474207"><ele>251.0</ele><time>2026-04-18T09:32:16Z</time></trkpt><trkpt lat="39.524490847549984" lon="8.587842373809966"><ele>251.0</ele><time>2026-04-18T09:32:17Z</time></trkpt><trkpt lat="39.52441302400811" lon="8.587835658178872"><ele>249.00000000000003</ele><time>2026-04-18T09:32:18Z</time></trkpt><trkpt lat="39.52433895251995" lon="8.58787092903601"><ele>247.0</ele><time>2026-04-18T09:32:19Z</time></trkpt><trkpt lat="39.52426250923685" lon="8.587913475485534"><ele>245.0</ele><time>2026-04-18T09:32:20Z</time></trkpt><trkpt lat="39.524205410773774" lon="8.587981815135974"><ele>243.0</ele><time>2026-04-18T09:32:21Z</time></trkpt><trkpt lat="39.52415090298276" lon="8.588048734676239"><ele>241.00000000000003</ele><time>2026-04-18T09:32:22Z</time></trkpt><trkpt lat="39.52408974885111" lon="8.588109102800528"><ele>239.0</ele><time>2026-04-18T09:32:23Z</time></trkpt><trkpt lat="39.52402033510994" lon="8.588155101448699"><ele>239.0</ele><time>2026-04-18T09:32:24Z</time></trkpt><trkpt lat="39.52394741113656" lon="8.588176533240524"><ele>238.99999999999997</ele><time>2026-04-18T09:32:25Z</time></trkpt><trkpt lat="39.52386365315572" lon="8.58816865028451"><ele>238.99999999999997</ele><time>2026-04-18T09:32:26Z</time></trkpt><trkpt lat="39.52373804351784" lon="8.588146605600373"><ele>239.0</ele><time>2026-04-18T09:32:27Z</time></trkpt><trkpt lat="39.52358120259216" lon="8.58811778895935"><ele>239.0</ele><time>2026-04-18T09:32:28Z</time></trkpt><trkpt lat="39.52341870330329" lon="8.588084126530623"><ele>240.75</ele><time>2026-04-18T09:32:29Z</time></trkpt><trkpt lat="39.523279043209605" lon="8.588069558836866"><ele>242.5</ele><time>2026-04-18T09:32:30Z</time></trkpt><trkpt lat="39.52316458361259" lon="8.588019763877986"><ele>244.25</ele><time>2026-04-18T09:32:31Z</time></trkpt><trkpt lat="39.52307003593148" lon="8.587921350658123"><ele>246.0</ele><time>2026-04-18T09:32:32Z</time></trkpt><trkpt lat="39.52299652919272" lon="8.587776707845066"><ele>246.0</ele><time>2026-04-18T09:32:33Z</time></trkpt><trkpt lat="39.52295084700704" lon="8.587596222867058"><ele>246.0</ele><time>2026-04-18T09:32:34Z</time></trkpt><trkpt lat="39.52290838097089" lon="8.58741619222539"><ele>246.0</ele><time>2026-04-18T09:32:35Z</time></trkpt><trkpt lat="39.52286334022236" lon="8.58723676545327"><ele>246.0</ele><time>2026-04-18T09:32:36Z</time></trkpt><trkpt lat="39.52285246317147" lon="8.5870411116799"><ele>248.75</ele><time>2026-04-18T09:32:37Z</time></trkpt><trkpt lat="39.52288148258314" lon="8.586834352950241"><ele>251.5</ele><time>2026-04-18T09:32:38Z</time></trkpt><trkpt lat="39.52289927082915" lon="8.586657955358218"><ele>254.25</ele><time>2026-04-18T09:32:39Z</time></trkpt><trkpt lat="39.52287710738373" lon="8.586514341992366"><ele>257.0</ele><time>2026-04-18T09:32:40Z</time></trkpt><trkpt lat="39.52280674495229" lon="8.586409480954048"><ele>257.0</ele><time>2026-04-18T09:32:41Z</time></trkpt><trkpt lat="39.52270372844477" lon="8.5863574643745"><ele>257.0</ele><time>2026-04-18T09:32:42Z</time></trkpt><trkpt lat="39.522584931344156" lon="8.586363873843856"><ele>257.0</ele><time>2026-04-18T09:32:43Z</time></trkpt><trkpt lat="39.52246740623552" lon="8.586425665405095"><ele>257.0</ele><time>2026-04-18T09:32:44Z</time></trkpt><trkpt lat="39.52233521339687" lon="8.58644776256724"><ele>257.0</ele><time>2026-04-18T09:32:45Z</time></trkpt><trkpt lat="39.5222138655035" lon="8.586454421221662"><ele>257.0</ele><time>2026-04-18T09:32:46Z</time></trkpt><trkpt lat="39.52210028989678" lon="8.586415148537878"><ele>257.0</ele><time>2026-04-18T09:32:47Z</time></trkpt><trkpt lat="39.521987866787725" lon="8.5863205086208"><ele>257.0</ele><time>2026-04-18T09:32:48Z</time></trkpt><trkpt lat="39.52187165648925" lon="8.586212592348618"><ele>258.4</ele><time>2026-04-18T09:32:49Z</time></trkpt><trkpt lat="39.521808862677865" lon="8.586094820201975"><ele>259.79999999999995</ele><time>2026-04-18T09:32:50Z</time></trkpt><trkpt lat="39.52179055600684" lon="8.58597211589804"><ele>261.2</ele><time>2026-04-18T09:32:51Z</time></trkpt><trkpt lat="39.52182273181434" lon="8.585841006474462"><ele>262.59999999999997</ele><time>2026-04-18T09:32:52Z</time></trkpt><trkpt lat="39.52188298318311" lon="8.585697202758002"><ele>264.0</ele><time>2026-04-18T09:32:53Z</time></trkpt><trkpt lat="39.52194209207728" lon="8.585535354317916"><ele>264.0</ele><time>2026-04-18T09:32:54Z</time></trkpt><trkpt lat="39.52200056717634" lon="8.585353658393338"><ele>264.0</ele><time>2026-04-18T09:32:55Z</time></trkpt><trkpt lat="39.52206916513985" lon="8.585149336911657"><ele>264.0</ele><time>2026-04-18T09:32:56Z</time></trkpt><trkpt lat="39.522134731761945" lon="8.58494261990355"><ele>267.5</ele><time>2026-04-18T09:32:57Z</time></trkpt><trkpt lat="39.52219018279916" lon="8.584750356436015"><ele>271.0</ele><time>2026-04-18T09:32:58Z</time></trkpt><trkpt lat="39.52222294193159" lon="8.584577845666871"><ele>274.5</ele><time>2026-04-18T09:32:59Z</time></trkpt><trkpt lat="39.52220589045178" lon="8.58441686244645"><ele>278.0</ele><time>2026-04-18T09:33:00Z</time></trkpt><trkpt lat="39.52213731711432" lon="8.584265367193591"><ele>277.33333333333337</ele><time>2026-04-18T09:33:01Z</time></trkpt><trkpt lat="39.52201848894158" lon="8.584118304466358"><ele>276.6666666666667</ele><time>2026-04-18T09:33:02Z</time></trkpt><trkpt lat="39.521905306492634" lon="8.58395432975734"><ele>276.0</ele><time>2026-04-18T09:33:03Z</time></trkpt><trkpt lat="39.5217790167731" lon="8.583794962230721"><ele>279.0</ele><time>2026-04-18T09:33:04Z</time></trkpt><trkpt lat="39.5216310758317" lon="8.583636076652745"><ele>282.0</ele><time>2026-04-18T09:33:05Z</time></trkpt><trkpt lat="39.521488085144824" lon="8.583455947212903"><ele>285.0</ele><time>2026-04-18T09:33:06Z</time></trkpt><trkpt lat="39.521340116578116" lon="8.58326979799101"><ele>285.3333333333333</ele><time>2026-04-18T09:33:07Z</time></trkpt><trkpt lat="39.521185103475425" lon="8.583076283426024"><ele>285.66666666666663</ele><time>2026-04-18T09:33:08Z</time></trkpt><trkpt lat="39.52102800651003" lon="8.582878469198132"><ele>286.0</ele><time>2026-04-18T09:33:09Z</time></trkpt><trkpt lat="39.52087297934622" lon="8.582685846459695"><ele>286.0</ele><time>2026-04-18T09:33:10Z</time></trkpt><trkpt lat="39.520739467121096" lon="8.582489223060433"><ele>286.0</ele><time>2026-04-18T09:33:11Z</time></trkpt><trkpt lat="39.5205923666623" lon="8.58233367847564"><ele>286.0</ele><time>2026-04-18T09:33:12Z</time></trkpt><trkpt lat="39.52048111205543" lon="8.582163317371313"><ele>284.75</ele><time>2026-04-18T09:33:13Z</time></trkpt><trkpt lat="39.52037581874443" lon="8.582026620873322"><ele>283.5</ele><time>2026-04-18T09:33:14Z</time></trkpt><trkpt lat="39.5202835844682" lon="8.581901539494515"><ele>282.25</ele><time>2026-04-18T09:33:15Z</time></trkpt><trkpt lat="39.5202761744022" lon="8.581729627897849"><ele>281.0</ele><time>2026-04-18T09:33:16Z</time></trkpt><trkpt lat="39.520299090599224" lon="8.581557319978304"><ele>284.33333333333337</ele><time>2026-04-18T09:33:17Z</time></trkpt><trkpt lat="39.52031567177468" lon="8.581363766912403"><ele>287.6666666666667</ele><time>2026-04-18T09:33:18Z</time></trkpt><trkpt lat="39.520343783934045" lon="8.581162930526718"><ele>291.0</ele><time>2026-04-18T09:33:19Z</time></trkpt><trkpt lat="39.520345020061704" lon="8.580955676997398"><ele>294.0</ele><time>2026-04-18T09:33:20Z</time></trkpt><trkpt lat="39.52029958048363" lon="8.580742045332935"><ele>297.0</ele><time>2026-04-18T09:33:21Z</time></trkpt><trkpt lat="39.52022180476521" lon="8.580532298476173"><ele>300.0</ele><time>2026-04-18T09:33:22Z</time></trkpt><trkpt lat="39.520152343514674" lon="8.580330523545744"><ele>302.0</ele><time>2026-04-18T09:33:23Z</time></trkpt><trkpt lat="39.5201013311181" lon="8.580138701434889"><ele>304.0</ele><time>2026-04-18T09:33:24Z</time></trkpt><trkpt lat="39.52007347306658" lon="8.579952280713712"><ele>306.0</ele><time>2026-04-18T09:33:25Z</time></trkpt><trkpt lat="39.5200661230427" lon="8.579765903196153"><ele>308.0</ele><time>2026-04-18T09:33:26Z</time></trkpt><trkpt lat="39.52007005907333" lon="8.579560942355188"><ele>307.6666666666667</ele><time>2026-04-18T09:33:27Z</time></trkpt><trkpt lat="39.52006233246954" lon="8.579343655951654"><ele>307.3333333333333</ele><time>2026-04-18T09:33:28Z</time></trkpt><trkpt lat="39.520050745443534" lon="8.579121718834289"><ele>307.0</ele><time>2026-04-18T09:33:29Z</time></trkpt><trkpt lat="39.52002566438798" lon="8.578896120290297"><ele>307.0</ele><time>2026-04-18T09:33:30Z</time></trkpt><trkpt lat="39.519979082758354" lon="8.578686985759777"><ele>307.0</ele><time>2026-04-18T09:33:31Z</time></trkpt><trkpt lat="39.51993456570369" lon="8.578501706119079"><ele>307.0</ele><time>2026-04-18T09:33:32Z</time></trkpt><trkpt lat="39.51990245204919" lon="8.578333401394886"><ele>307.0</ele><time>2026-04-18T09:33:33Z</time></trkpt><trkpt lat="39.51990409236585" lon="8.57818561504086"><ele>307.0</ele><time>2026-04-18T09:33:34Z</time></trkpt><trkpt lat="39.51995175195165" lon="8.578049146386796"><ele>307.0</ele><time>2026-04-18T09:33:35Z</time></trkpt><trkpt lat="39.520035594570395" lon="8.57791884074"><ele>307.0</ele><time>2026-04-18T09:33:36Z</time></trkpt><trkpt lat="39.52013442515008" lon="8.577766791473689"><ele>303.0</ele><time>2026-04-18T09:33:37Z</time></trkpt><trkpt lat="39.52021650395643" lon="8.5775803052124"><ele>299.0</ele><time>2026-04-18T09:33:38Z</time></trkpt><trkpt lat="39.52025904885285" lon="8.577359378233885"><ele>295.0</ele><time>2026-04-18T09:33:39Z</time></trkpt><trkpt lat="39.520285449907476" lon="8.577110105707748"><ele>293.0</ele><time>2026-04-18T09:33:40Z</time></trkpt><trkpt lat="39.520314120475184" lon="8.57684135075582"><ele>291.0</ele><time>2026-04-18T09:33:41Z</time></trkpt><trkpt lat="39.520341363486715" lon="8.576598230030728"><ele>289.0</ele><time>2026-04-18T09:33:42Z</time></trkpt><trkpt lat="39.520371383511204" lon="8.576376088296412"><ele>289.66666666666663</ele><time>2026-04-18T09:33:43Z</time></trkpt><trkpt lat="39.52038631386512" lon="8.576174169473793"><ele>290.3333333333333</ele><time>2026-04-18T09:33:44Z</time></trkpt><trkpt lat="39.520359830173625" lon="8.575986017461922"><ele>291.0</ele><time>2026-04-18T09:33:45Z</time></trkpt><trkpt lat="39.52027712398389" lon="8.57580631814515"><ele>291.0</ele><time>2026-04-18T09:33:46Z</time></trkpt><trkpt lat="39.52015936365419" lon="8.57564307940753"><ele>291.0</ele><time>2026-04-18T09:33:47Z</time></trkpt><trkpt lat="39.520042477325845" lon="8.575469941652806"><ele>291.0</ele><time>2026-04-18T09:33:48Z</time></trkpt><trkpt lat="39.51994668198424" lon="8.575282428527675"><ele>294.6666666666667</ele><time>2026-04-18T09:33:49Z</time></trkpt><trkpt lat="39.5198478178802" lon="8.575117267327876"><ele>298.33333333333337</ele><time>2026-04-18T09:33:50Z</time></trkpt><trkpt lat="39.51976913713893" lon="8.574958448513666"><ele>302.0</ele><time>2026-04-18T09:33:51Z</time></trkpt><trkpt lat="39.51970663489482" lon="8.574790556567546"><ele>302.0</ele><time>2026-04-18T09:33:52Z</time></trkpt><trkpt lat="39.519694836721875" lon="8.574616500532283"><ele>302.0</ele><time>2026-04-18T09:33:53Z</time></trkpt><trkpt lat="39.519729395053496" lon="8.574467758350004"><ele>302.0</ele><time>2026-04-18T09:33:54Z</time></trkpt><trkpt lat="39.5198084670618" lon="8.574351003404937"><ele>302.0</ele><time>2026-04-18T09:33:55Z</time></trkpt><trkpt lat="39.519929087967256" lon="8.574255572782603"><ele>300.75</ele><time>2026-04-18T09:33:56Z</time></trkpt><trkpt lat="39.520009051742896" lon="8.574132475481319"><ele>299.5</ele><time>2026-04-18T09:33:57Z</time></trkpt><trkpt lat="39.52003533760162" lon="8.573970731769178"><ele>298.25</ele><time>2026-04-18T09:33:58Z</time></trkpt><trkpt lat="39.520010340097194" lon="8.57378607970981"><ele>297.0</ele><time>2026-04-18T09:33:59Z</time></trkpt><trkpt lat="39.52000446732886" lon="8.573585910259755"><ele>294.0</ele><time>2026-04-18T09:34:00Z</time></trkpt><trkpt lat="39.520053215893405" lon="8.573372937754174"><ele>291.0</ele><time>2026-04-18T09:34:01Z</time></trkpt><trkpt lat="39.520120822364156" lon="8.573155235951255"><ele>288.0</ele><time>2026-04-18T09:34:02Z</time></trkpt><trkpt lat="39.52022204908081" lon="8.57294498930651"><ele>287.3333333333333</ele><time>2026-04-18T09:34:03Z</time></trkpt><trkpt lat="39.52034748018336" lon="8.572744993549314"><ele>286.66666666666663</ele><time>2026-04-18T09:34:04Z</time></trkpt><trkpt lat="39.520473650510915" lon="8.572544659537407"><ele>286.0</ele><time>2026-04-18T09:34:05Z</time></trkpt><trkpt lat="39.52058243057235" lon="8.572359872820796"><ele>289.0</ele><time>2026-04-18T09:34:06Z</time></trkpt><trkpt lat="39.52068235476781" lon="8.572193215707479"><ele>292.0</ele><time>2026-04-18T09:34:07Z</time></trkpt><trkpt lat="39.520768237655325" lon="8.572048240241044"><ele>295.0</ele><time>2026-04-18T09:34:08Z</time></trkpt><trkpt lat="39.52083018937313" lon="8.57192140363139"><ele>298.0</ele><time>2026-04-18T09:34:09Z</time></trkpt><trkpt lat="39.520850925410265" lon="8.571804622332975"><ele>298.0</ele><time>2026-04-18T09:34:10Z</time></trkpt><trkpt lat="39.52081496548371" lon="8.571694766490037"><ele>298.0</ele><time>2026-04-18T09:34:11Z</time></trkpt><trkpt lat="39.52072480401862" lon="8.571621601659913"><ele>298.0</ele><time>2026-04-18T09:34:12Z</time></trkpt><trkpt lat="39.52060749518088" lon="8.571627278458074"><ele>298.0</ele><time>2026-04-18T09:34:13Z</time></trkpt><trkpt lat="39.520488506569066" lon="8.571677594589291"><ele>298.0</ele><time>2026-04-18T09:34:14Z</time></trkpt><trkpt lat="39.52036114439509" lon="8.571769523524987"><ele>299.66666666666663</ele><time>2026-04-18T09:34:15Z</time></trkpt><trkpt lat="39.52021775141791" lon="8.571838124444271"><ele>301.3333333333333</ele><time>2026-04-18T09:34:16Z</time></trkpt><trkpt lat="39.52008675473428" lon="8.571914574052885"><ele>303.0</ele><time>2026-04-18T09:34:17Z</time></trkpt><trkpt lat="39.51993770666172" lon="8.571965772876137"><ele>303.0</ele><time>2026-04-18T09:34:18Z</time></trkpt><trkpt lat="39.51977271984327" lon="8.571980336115363"><ele>303.0</ele><time>2026-04-18T09:34:19Z</time></trkpt><trkpt lat="39.5195981142248" lon="8.571986186364219"><ele>303.0</ele><time>2026-04-18T09:34:20Z</time></trkpt><trkpt lat="39.519447812196105" lon="8.571941714356406"><ele>304.25</ele><time>2026-04-18T09:34:21Z</time></trkpt><trkpt lat="39.51929492439386" lon="8.571884944464497"><ele>305.5</ele><time>2026-04-18T09:34:22Z</time></trkpt><trkpt lat="39.51914799925994" lon="8.57189897882319"><ele>306.75</ele><time>2026-04-18T09:34:23Z</time></trkpt><trkpt lat="39.51900856514785" lon="8.57189000178701"><ele>308.0</ele><time>2026-04-18T09:34:24Z</time></trkpt><trkpt lat="39.518897922783914" lon="8.571888047127405"><ele>308.0</ele><time>2026-04-18T09:34:25Z</time></trkpt><trkpt lat="39.51882575807903" lon="8.571847439400361"><ele>308.0</ele><time>2026-04-18T09:34:26Z</time></trkpt><trkpt lat="39.51879832745211" lon="8.571743414369157"><ele>308.0</ele><time>2026-04-18T09:34:27Z</time></trkpt><trkpt lat="39.51880520698353" lon="8.571613429885693"><ele>308.0</ele><time>2026-04-18T09:34:28Z</time></trkpt><trkpt lat="39.5188027646837" lon="8.571457145125127"><ele>308.0</ele><time>2026-04-18T09:34:29Z</time></trkpt><trkpt lat="39.51876308377178" lon="8.571317261860868"><ele>307.5</ele><time>2026-04-18T09:34:30Z</time></trkpt><trkpt lat="39.5186778198319" lon="8.571227279413755"><ele>307.0</ele><time>2026-04-18T09:34:31Z</time></trkpt><trkpt lat="39.51855879208537" lon="8.571194050689899"><ele>306.5</ele><time>2026-04-18T09:34:32Z</time></trkpt><trkpt lat="39.51843755076809" lon="8.571164190919761"><ele>306.0</ele><time>2026-04-18T09:34:33Z</time></trkpt><trkpt lat="39.51834230837397" lon="8.571109239009912"><ele>307.25</ele><time>2026-04-18T09:34:34Z</time></trkpt><trkpt lat="39.51828210367118" lon="8.571012644336136"><ele>308.5</ele><time>2026-04-18T09:34:35Z</time></trkpt><trkpt lat="39.51825742924381" lon="8.570879741937981"><ele>309.75</ele><time>2026-04-18T09:34:36Z</time></trkpt><trkpt lat="39.5182432131277" lon="8.570710929352803"><ele>311.0</ele><time>2026-04-18T09:34:37Z</time></trkpt><trkpt lat="39.51821960828447" lon="8.570521784378524"><ele>311.0</ele><time>2026-04-18T09:34:38Z</time></trkpt><trkpt lat="39.51819401273136" lon="8.570304816194763"><ele>311.0</ele><time>2026-04-18T09:34:39Z</time></trkpt><trkpt lat="39.51816742890098" lon="8.570079406007318"><ele>311.0</ele><time>2026-04-18T09:34:40Z</time></trkpt><trkpt lat="39.51814011856057" lon="8.569843386407163"><ele>311.0</ele><time>2026-04-18T09:34:41Z</time></trkpt><trkpt lat="39.518112024722875" lon="8.56959801884816"><ele>311.0</ele><time>2026-04-18T09:34:42Z</time></trkpt><trkpt lat="39.518084008645005" lon="8.569347503641485"><ele>311.0</ele><time>2026-04-18T09:34:43Z</time></trkpt><trkpt lat="39.51805576402174" lon="8.569109518250055"><ele>310.33333333333337</ele><time>2026-04-18T09:34:44Z</time></trkpt><trkpt lat="39.51803072486207" lon="8.56888711427084"><ele>309.6666666666667</ele><time>2026-04-18T09:34:45Z</time></trkpt><trkpt lat="39.51801935124635" lon="8.568669838879837"><ele>309.0</ele><time>2026-04-18T09:34:46Z</time></trkpt><trkpt lat="39.51803277887785" lon="8.568444684937552"><ele>309.0</ele><time>2026-04-18T09:34:47Z</time></trkpt><trkpt lat="39.518060999988215" lon="8.568231721272321"><ele>309.0</ele><time>2026-04-18T09:34:48Z</time></trkpt><trkpt lat="39.51810070499103" lon="8.568031304739632"><ele>309.0</ele><time>2026-04-18T09:34:49Z</time></trkpt><trkpt lat="39.518174051314205" lon="8.56783728792921"><ele>308.0</ele><time>2026-04-18T09:34:50Z</time></trkpt><trkpt lat="39.5182800047182" lon="8.567652760783409"><ele>307.0</ele><time>2026-04-18T09:34:51Z</time></trkpt><trkpt lat="39.51838276778447" lon="8.5674556726841"><ele>306.0</ele><time>2026-04-18T09:34:52Z</time></trkpt><trkpt lat="39.51846481688693" lon="8.567272604421262"><ele>306.0</ele><time>2026-04-18T09:34:53Z</time></trkpt><trkpt lat="39.51852715099899" lon="8.56706021107051"><ele>306.0</ele><time>2026-04-18T09:34:54Z</time></trkpt><trkpt lat="39.51856495867436" lon="8.566833322448858"><ele>306.0</ele><time>2026-04-18T09:34:55Z</time></trkpt><trkpt lat="39.5185623164076" lon="8.566626358003452"><ele>305.0</ele><time>2026-04-18T09:34:56Z</time></trkpt><trkpt lat="39.51853598433373" lon="8.56639028316217"><ele>304.0</ele><time>2026-04-18T09:34:57Z</time></trkpt><trkpt lat="39.518525386847855" lon="8.56614403615364"><ele>303.0</ele><time>2026-04-18T09:34:58Z</time></trkpt><trkpt lat="39.51850588714959" lon="8.565900868474884"><ele>303.0</ele><time>2026-04-18T09:34:59Z</time></trkpt><trkpt lat="39.518474812700966" lon="8.565658931370383"><ele>303.0</ele><time>2026-04-18T09:35:00Z</time></trkpt><trkpt lat="39.518480234850806" lon="8.565437427083204"><ele>303.0</ele><time>2026-04-18T09:35:01Z</time></trkpt><trkpt lat="39.518518170617234" lon="8.565229169977174"><ele>303.75</ele><time>2026-04-18T09:35:02Z</time></trkpt><trkpt lat="39.5185454832148" lon="8.56506561798803"><ele>304.5</ele><time>2026-04-18T09:35:03Z</time></trkpt><trkpt lat="39.51854407613532" lon="8.564934605820488"><ele>305.25</ele><time>2026-04-18T09:35:04Z</time></trkpt><trkpt lat="39.51844631662433" lon="8.564841381254205"><ele>306.0</ele><time>2026-04-18T09:35:05Z</time></trkpt><trkpt lat="39.51832520011714" lon="8.564775053298368"><ele>306.0</ele><time>2026-04-18T09:35:06Z</time></trkpt><trkpt lat="39.51818295842276" lon="8.564709265457095"><ele>306.0</ele><time>2026-04-18T09:35:07Z</time></trkpt><trkpt lat="39.51803764563404" lon="8.564615754385848"><ele>306.0</ele><time>2026-04-18T09:35:08Z</time></trkpt><trkpt lat="39.5178929014363" lon="8.564545459399461"><ele>307.5</ele><time>2026-04-18T09:35:09Z</time></trkpt><trkpt lat="39.51775177015196" lon="8.564476919256045"><ele>309.0</ele><time>2026-04-18T09:35:10Z</time></trkpt><trkpt lat="39.51761682136104" lon="8.564411381678616"><ele>310.5</ele><time>2026-04-18T09:35:11Z</time></trkpt><trkpt lat="39.517490535381164" lon="8.564350051030615"><ele>312.0</ele><time>2026-04-18T09:35:12Z</time></trkpt><trkpt lat="39.51737130444262" lon="8.564289648582536"><ele>312.0</ele><time>2026-04-18T09:35:13Z</time></trkpt><trkpt lat="39.51726216877898" lon="8.564224821680734"><ele>312.0</ele><time>2026-04-18T09:35:14Z</time></trkpt><trkpt lat="39.51717417751812" lon="8.564137616899005"><ele>312.0</ele><time>2026-04-18T09:35:15Z</time></trkpt><trkpt lat="39.51710430861597" lon="8.564026106154268"><ele>312.0</ele><time>2026-04-18T09:35:16Z</time></trkpt><trkpt lat="39.51705401725876" lon="8.563892584388542"><ele>311.5</ele><time>2026-04-18T09:35:17Z</time></trkpt><trkpt lat="39.517001425790625" lon="8.563755219618791"><ele>311.0</ele><time>2026-04-18T09:35:18Z</time></trkpt><trkpt lat="39.51694857211633" lon="8.563612420863763"><ele>310.5</ele><time>2026-04-18T09:35:19Z</time></trkpt><trkpt lat="39.516899566331794" lon="8.563470434325424"><ele>310.0</ele><time>2026-04-18T09:35:20Z</time></trkpt><trkpt lat="39.51685993940092" lon="8.56332635445858"><ele>310.0</ele><time>2026-04-18T09:35:21Z</time></trkpt><trkpt lat="39.51680749540868" lon="8.563179311651265"><ele>310.0</ele><time>2026-04-18T09:35:22Z</time></trkpt><trkpt lat="39.516775996608104" lon="8.563025865070788"><ele>310.0</ele><time>2026-04-18T09:35:23Z</time></trkpt><trkpt lat="39.51673994709606" lon="8.562882632506303"><ele>310.0</ele><time>2026-04-18T09:35:24Z</time></trkpt><trkpt lat="39.51670654982189" lon="8.562741434719872"><ele>311.25</ele><time>2026-04-18T09:35:25Z</time></trkpt><trkpt lat="39.51667250742218" lon="8.56259070048513"><ele>312.5</ele><time>2026-04-18T09:35:26Z</time></trkpt><trkpt lat="39.51662142571505" lon="8.562444455328414"><ele>313.75</ele><time>2026-04-18T09:35:27Z</time></trkpt><trkpt lat="39.516538912212624" lon="8.562314404095451"><ele>315.0</ele><time>2026-04-18T09:35:28Z</time></trkpt><trkpt lat="39.51643462146915" lon="8.562148858058373"><ele>314.6666666666667</ele><time>2026-04-18T09:35:29Z</time></trkpt><trkpt lat="39.51629671444489" lon="8.561981740729399"><ele>314.33333333333337</ele><time>2026-04-18T09:35:30Z</time></trkpt><trkpt lat="39.51616223481822" lon="8.56182135311711"><ele>314.0</ele><time>2026-04-18T09:35:31Z</time></trkpt><trkpt lat="39.516032663876324" lon="8.56169436364216"><ele>314.0</ele><time>2026-04-18T09:35:32Z</time></trkpt><trkpt lat="39.515939198081156" lon="8.561545801061577"><ele>314.0</ele><time>2026-04-18T09:35:33Z</time></trkpt><trkpt lat="39.51585062645489" lon="8.561397468942493"><ele>314.0</ele><time>2026-04-18T09:35:34Z</time></trkpt><trkpt lat="39.51582786084502" lon="8.561195403759397"><ele>314.25</ele><time>2026-04-18T09:35:35Z</time></trkpt><trkpt lat="39.51579941140665" lon="8.56100705692191"><ele>314.5</ele><time>2026-04-18T09:35:36Z</time></trkpt><trkpt lat="39.515814255201086" lon="8.560817395170615"><ele>314.75</ele><time>2026-04-18T09:35:37Z</time></trkpt><trkpt lat="39.51587496981314" lon="8.560637963663412"><ele>315.0</ele><time>2026-04-18T09:35:38Z</time></trkpt><trkpt lat="39.51596037763755" lon="8.560466587602313"><ele>313.3333333333333</ele><time>2026-04-18T09:35:39Z</time></trkpt><trkpt lat="39.51605702001012" lon="8.560300242275696"><ele>311.66666666666663</ele><time>2026-04-18T09:35:40.001Z</time></trkpt><trkpt lat="39.51615419701397" lon="8.56013708086122"><ele>310.0</ele><time>2026-04-18T09:35:41.001Z</time></trkpt><trkpt lat="39.51624300770795" lon="8.559974733677656"><ele>311.5</ele><time>2026-04-18T09:35:42.001Z</time></trkpt><trkpt lat="39.516330282033664" lon="8.559822272511418"><ele>313.0</ele><time>2026-04-18T09:35:43.001Z</time></trkpt><trkpt lat="39.51641754414235" lon="8.5596742379145"><ele>314.5</ele><time>2026-04-18T09:35:44.001Z</time></trkpt><trkpt lat="39.51651161691883" lon="8.559530442564219"><ele>316.0</ele><time>2026-04-18T09:35:45.001Z</time></trkpt><trkpt lat="39.51660758434715" lon="8.559401327857614"><ele>316.0</ele><time>2026-04-18T09:35:46.001Z</time></trkpt><trkpt lat="39.516706122514684" lon="8.559281840298242"><ele>316.0</ele><time>2026-04-18T09:35:47.001Z</time></trkpt><trkpt lat="39.51680361410384" lon="8.559167608344227"><ele>316.0</ele><time>2026-04-18T09:35:48.001Z</time></trkpt><trkpt lat="39.5168991256452" lon="8.559054598960367"><ele>316.0</ele><time>2026-04-18T09:35:49.001Z</time></trkpt><trkpt lat="39.51699330816976" lon="8.55894219816079"><ele>317.0</ele><time>2026-04-18T09:35:50.001Z</time></trkpt><trkpt lat="39.51709430239195" lon="8.558833196497421"><ele>318.0</ele><time>2026-04-18T09:35:51.001Z</time></trkpt><trkpt lat="39.51720651773157" lon="8.558736461335979"><ele>319.0</ele><time>2026-04-18T09:35:52.001Z</time></trkpt><trkpt lat="39.51732314456601" lon="8.558651378977618"><ele>320.0</ele><time>2026-04-18T09:35:53.001Z</time></trkpt><trkpt lat="39.51743104504003" lon="8.55857255228537"><ele>320.0</ele><time>2026-04-18T09:35:54.001Z</time></trkpt><trkpt lat="39.51753114827477" lon="8.558498725565121"><ele>320.0</ele><time>2026-04-18T09:35:55.001Z</time></trkpt><trkpt lat="39.51762706380278" lon="8.558432271295683"><ele>320.0</ele><time>2026-04-18T09:35:56.001Z</time></trkpt><trkpt lat="39.51771714148339" lon="8.558367007779298"><ele>320.0</ele><time>2026-04-18T09:35:57.001Z</time></trkpt><trkpt lat="39.51781067483876" lon="8.558303514739643"><ele>320.0</ele><time>2026-04-18T09:35:58.001Z</time></trkpt><trkpt lat="39.51791021381736" lon="8.558243829310817"><ele>320.4</ele><time>2026-04-18T09:35:59.001Z</time></trkpt><trkpt lat="39.51799931852036" lon="8.558162555826373"><ele>320.8</ele><time>2026-04-18T09:36:00.001Z</time></trkpt><trkpt lat="39.51806266451827" lon="8.558069435576666"><ele>321.20000000000005</ele><time>2026-04-18T09:36:01.001Z</time></trkpt><trkpt lat="39.5180936706857" lon="8.55795464254897"><ele>321.6</ele><time>2026-04-18T09:36:02.001Z</time></trkpt><trkpt lat="39.51809335278806" lon="8.557837947620625"><ele>322.0</ele><time>2026-04-18T09:36:03.001Z</time></trkpt><trkpt lat="39.51805935991983" lon="8.557730747055531"><ele>322.0</ele><time>2026-04-18T09:36:04.001Z</time></trkpt><trkpt lat="39.518019486456176" lon="8.557631546910715"><ele>322.0</ele><time>2026-04-18T09:36:05.001Z</time></trkpt><trkpt lat="39.51796616123972" lon="8.557529376132848"><ele>322.0</ele><time>2026-04-18T09:36:06.001Z</time></trkpt><trkpt lat="39.517892802592485" lon="8.557431739332618"><ele>322.0</ele><time>2026-04-18T09:36:07.001Z</time></trkpt><trkpt lat="39.51777528356656" lon="8.557409751237634"><ele>322.0</ele><time>2026-04-18T09:36:08.001Z</time></trkpt><trkpt lat="39.51767077629816" lon="8.55741251204135"><ele>322.0</ele><time>2026-04-18T09:36:09.001Z</time></trkpt><trkpt lat="39.517563880166044" lon="8.55743209590005"><ele>322.0</ele><time>2026-04-18T09:36:10.001Z</time></trkpt><trkpt lat="39.517453161651034" lon="8.55743822158804"><ele>322.0</ele><time>2026-04-18T09:36:11.001Z</time></trkpt><trkpt lat="39.5173046190142" lon="8.557475028927655"><ele>322.0</ele><time>2026-04-18T09:36:12.001Z</time></trkpt><trkpt lat="39.517124343046746" lon="8.557543403424905"><ele>327.0</ele><time>2026-04-18T09:36:13.001Z</time></trkpt><trkpt lat="39.516958796839845" lon="8.557630682752793"><ele>332.0</ele><time>2026-04-18T09:36:14.001Z</time></trkpt><trkpt lat="39.516788683751464" lon="8.557727797012372"><ele>337.0</ele><time>2026-04-18T09:36:15.001Z</time></trkpt><trkpt lat="39.51664375201493" lon="8.557819706916684"><ele>337.0</ele><time>2026-04-18T09:36:16.001Z</time></trkpt><trkpt lat="39.516492962950814" lon="8.557824856781325"><ele>337.0</ele><time>2026-04-18T09:36:17.001Z</time></trkpt><trkpt lat="39.51636181734641" lon="8.557843079017843"><ele>337.0</ele><time>2026-04-18T09:36:18.001Z</time></trkpt><trkpt lat="39.51624588237602" lon="8.557873885314988"><ele>337.0</ele><time>2026-04-18T09:36:19.001Z</time></trkpt><trkpt lat="39.51614163480838" lon="8.557913909387889"><ele>335.3333333333333</ele><time>2026-04-18T09:36:20.001Z</time></trkpt><trkpt lat="39.51604405763717" lon="8.557954943771946"><ele>333.66666666666663</ele><time>2026-04-18T09:36:21.001Z</time></trkpt><trkpt lat="39.51595178145225" lon="8.557994216260193"><ele>332.0</ele><time>2026-04-18T09:36:22.001Z</time></trkpt><trkpt lat="39.5158685707846" lon="8.558025100989529"><ele>330.3333333333333</ele><time>2026-04-18T09:36:23.001Z</time></trkpt><trkpt lat="39.51578646733501" lon="8.5580501149638"><ele>328.6666666666667</ele><time>2026-04-18T09:36:24.001Z</time></trkpt><trkpt lat="39.51570923933012" lon="8.558034570714819"><ele>327.0</ele><time>2026-04-18T09:36:25.001Z</time></trkpt><trkpt lat="39.51563991021736" lon="8.557986240905414"><ele>327.0</ele><time>2026-04-18T09:36:26.001Z</time></trkpt><trkpt lat="39.515589995581784" lon="8.557924804378857"><ele>327.0</ele><time>2026-04-18T09:36:27Z</time></trkpt><trkpt lat="39.51552971310444" lon="8.557859149069019"><ele>327.0</ele><time>2026-04-18T09:36:28Z</time></trkpt><trkpt lat="39.51546991609482" lon="8.557792880308702"><ele>327.0</ele><time>2026-04-18T09:36:29Z</time></trkpt><trkpt lat="39.51540774542921" lon="8.557723981179379"><ele>327.0</ele><time>2026-04-18T09:36:30Z</time></trkpt><trkpt lat="39.51533737005263" lon="8.557645989155144"><ele>327.0</ele><time>2026-04-18T09:36:31Z</time></trkpt><trkpt lat="39.51526523311772" lon="8.55756604497257"><ele>329.8333333333333</ele><time>2026-04-18T09:36:32Z</time></trkpt><trkpt lat="39.51520269960547" lon="8.557498249241121"><ele>332.6666666666667</ele><time>2026-04-18T09:36:33Z</time></trkpt><trkpt lat="39.5151415229" lon="8.557450029678549"><ele>335.5</ele><time>2026-04-18T09:36:34Z</time></trkpt><trkpt lat="39.51507103675222" lon="8.557428381706806"><ele>338.33333333333337</ele><time>2026-04-18T09:36:35Z</time></trkpt><trkpt lat="39.514988168634865" lon="8.55745486275703"><ele>341.1666666666667</ele><time>2026-04-18T09:36:36Z</time></trkpt><trkpt lat="39.51493686411523" lon="8.557534498793276"><ele>344.0</ele><time>2026-04-18T09:36:37Z</time></trkpt><trkpt lat="39.51489697054113" lon="8.557620320848894"><ele>344.00000000000006</ele><time>2026-04-18T09:36:38Z</time></trkpt><trkpt lat="39.51488946601027" lon="8.557715329063155"><ele>344.0</ele><time>2026-04-18T09:36:39Z</time></trkpt><trkpt lat="39.514858412971115" lon="8.557787472209885"><ele>344.0</ele><time>2026-04-18T09:36:40Z</time></trkpt><trkpt lat="39.514840360847494" lon="8.557874307285761"><ele>344.0</ele><time>2026-04-18T09:36:41Z</time></trkpt><trkpt lat="39.51482163254997" lon="8.557964156794645"><ele>344.0</ele><time>2026-04-18T09:36:42Z</time></trkpt><trkpt lat="39.51479844279652" lon="8.558057268000018"><ele>344.00000000000006</ele><time>2026-04-18T09:36:43Z</time></trkpt><trkpt lat="39.51475926570566" lon="8.558156568222946"><ele>344.0</ele><time>2026-04-18T09:36:44Z</time></trkpt><trkpt lat="39.51468601914488" lon="8.558218122653996"><ele>344.4</ele><time>2026-04-18T09:36:45Z</time></trkpt><trkpt lat="39.51459880019479" lon="8.558268510000213"><ele>344.79999999999995</ele><time>2026-04-18T09:36:46Z</time></trkpt><trkpt lat="39.51450544176483" lon="8.558300645498967"><ele>345.20000000000005</ele><time>2026-04-18T09:36:47Z</time></trkpt><trkpt lat="39.514408926831436" lon="8.558332484413324"><ele>345.6</ele><time>2026-04-18T09:36:48Z</time></trkpt><trkpt lat="39.51431192612348" lon="8.558355138461282"><ele>346.0</ele><time>2026-04-18T09:36:49Z</time></trkpt><trkpt lat="39.51421073363697" lon="8.558358394200688"><ele>346.0</ele><time>2026-04-18T09:36:50Z</time></trkpt><trkpt lat="39.514106391030694" lon="8.558340174076088"><ele>346.0</ele><time>2026-04-18T09:36:51Z</time></trkpt><trkpt lat="39.51399538725451" lon="8.558320343276852"><ele>346.0</ele><time>2026-04-18T09:36:52Z</time></trkpt><trkpt lat="39.51388415276902" lon="8.558299734842505"><ele>346.0</ele><time>2026-04-18T09:36:53Z</time></trkpt><trkpt lat="39.51377211892494" lon="8.558284778312874"><ele>346.0</ele><time>2026-04-18T09:36:54Z</time></trkpt><trkpt lat="39.51365558975718" lon="8.558319448089131"><ele>348.4</ele><time>2026-04-18T09:36:55Z</time></trkpt><trkpt lat="39.513548938947565" lon="8.558381369186025"><ele>350.8</ele><time>2026-04-18T09:36:56Z</time></trkpt><trkpt lat="39.513461542849015" lon="8.558445639603015"><ele>353.2</ele><time>2026-04-18T09:36:57Z</time></trkpt><trkpt lat="39.51338042048351" lon="8.558500387350072"><ele>355.59999999999997</ele><time>2026-04-18T09:36:58Z</time></trkpt><trkpt lat="39.5132942320671" lon="8.558541842595128"><ele>358.0</ele><time>2026-04-18T09:36:59Z</time></trkpt><trkpt lat="39.51320571120274" lon="8.558544088009333"><ele>358.0</ele><time>2026-04-18T09:37:00Z</time></trkpt><trkpt lat="39.513113585080255" lon="8.558522325861857"><ele>358.0</ele><time>2026-04-18T09:37:01Z</time></trkpt><trkpt lat="39.513029214926476" lon="8.558492979540246"><ele>358.0</ele><time>2026-04-18T09:37:02Z</time></trkpt><trkpt lat="39.51294604588394" lon="8.558476335093351"><ele>358.0</ele><time>2026-04-18T09:37:03Z</time></trkpt><trkpt lat="39.512856561056424" lon="8.558485630436342"><ele>358.0</ele><time>2026-04-18T09:37:04Z</time></trkpt><trkpt lat="39.51278153915674" lon="8.558567397966177"><ele>359.0</ele><time>2026-04-18T09:37:05Z</time></trkpt><trkpt lat="39.51269295489935" lon="8.558669973433178"><ele>360.0</ele><time>2026-04-18T09:37:06Z</time></trkpt><trkpt lat="39.51260061789508" lon="8.558827751732723"><ele>361.0</ele><time>2026-04-18T09:37:07Z</time></trkpt><trkpt lat="39.51248815658117" lon="8.559024035672463"><ele>361.0</ele><time>2026-04-18T09:37:08Z</time></trkpt><trkpt lat="39.512362845534895" lon="8.559209641599583"><ele>361.0</ele><time>2026-04-18T09:37:09Z</time></trkpt><trkpt lat="39.51224706248748" lon="8.559344544382716"><ele>361.0</ele><time>2026-04-18T09:37:10Z</time></trkpt><trkpt lat="39.51213713401518" lon="8.55944557621708"><ele>362.8</ele><time>2026-04-18T09:37:11Z</time></trkpt><trkpt lat="39.512042564066604" lon="8.55949899934207"><ele>364.6</ele><time>2026-04-18T09:37:12Z</time></trkpt><trkpt lat="39.51193855590402" lon="8.559520756864195"><ele>366.4</ele><time>2026-04-18T09:37:13Z</time></trkpt><trkpt lat="39.51183114062634" lon="8.559489104620972"><ele>368.2</ele><time>2026-04-18T09:37:14Z</time></trkpt><trkpt lat="39.511724718331415" lon="8.559442027413196"><ele>370.0</ele><time>2026-04-18T09:37:15Z</time></trkpt><trkpt lat="39.51162856171346" lon="8.559381660210962"><ele>370.0</ele><time>2026-04-18T09:37:16Z</time></trkpt><trkpt lat="39.51154139768506" lon="8.559312316849672"><ele>370.0</ele><time>2026-04-18T09:37:17Z</time></trkpt><trkpt lat="39.51147366606671" lon="8.559207435470334"><ele>370.0</ele><time>2026-04-18T09:37:18Z</time></trkpt><trkpt lat="39.51142109460281" lon="8.559078908893596"><ele>370.0</ele><time>2026-04-18T09:37:19Z</time></trkpt><trkpt lat="39.51138062835843" lon="8.558942917153669"><ele>370.0</ele><time>2026-04-18T09:37:20Z</time></trkpt><trkpt lat="39.511337194191135" lon="8.55880709997995"><ele>372.0</ele><time>2026-04-18T09:37:21Z</time></trkpt><trkpt lat="39.5112931986964" lon="8.558676966397794"><ele>374.0</ele><time>2026-04-18T09:37:22Z</time></trkpt><trkpt lat="39.511248289839344" lon="8.558549118680284"><ele>376.0</ele><time>2026-04-18T09:37:23Z</time></trkpt><trkpt lat="39.51118406525127" lon="8.558439475033047"><ele>378.0</ele><time>2026-04-18T09:37:24Z</time></trkpt><trkpt lat="39.51109503812393" lon="8.558358144449178"><ele>380.0</ele><time>2026-04-18T09:37:25Z</time></trkpt><trkpt lat="39.51098895862066" lon="8.558316610399379"><ele>380.0</ele><time>2026-04-18T09:37:26Z</time></trkpt><trkpt lat="39.51088050433015" lon="8.558282390212138"><ele>380.0</ele><time>2026-04-18T09:37:27Z</time></trkpt><trkpt lat="39.51077252416462" lon="8.558245179124667"><ele>380.0</ele><time>2026-04-18T09:37:28Z</time></trkpt><trkpt lat="39.51066566200868" lon="8.5581963918547"><ele>380.0</ele><time>2026-04-18T09:37:29Z</time></trkpt><trkpt lat="39.510551286772746" lon="8.558125473501866"><ele>380.0</ele><time>2026-04-18T09:37:30Z</time></trkpt><trkpt lat="39.51043362180369" lon="8.557967496807724"><ele>380.0</ele><time>2026-04-18T09:37:31Z</time></trkpt><trkpt lat="39.51030024951625" lon="8.557803417192432"><ele>380.0</ele><time>2026-04-18T09:37:32Z</time></trkpt><trkpt lat="39.5101606184624" lon="8.557627222800228"><ele>383.0</ele><time>2026-04-18T09:37:33Z</time></trkpt><trkpt lat="39.51001100088992" lon="8.557442760571368"><ele>386.0</ele><time>2026-04-18T09:37:34Z</time></trkpt><trkpt lat="39.50985841953431" lon="8.557265935173474"><ele>389.0</ele><time>2026-04-18T09:37:35Z</time></trkpt><trkpt lat="39.509711701637244" lon="8.55707961140169"><ele>390.66666666666663</ele><time>2026-04-18T09:37:36Z</time></trkpt><trkpt lat="39.50957678864114" lon="8.556913598835683"><ele>392.33333333333337</ele><time>2026-04-18T09:37:37Z</time></trkpt><trkpt lat="39.50945192945661" lon="8.556766263806107"><ele>394.0</ele><time>2026-04-18T09:37:38Z</time></trkpt><trkpt lat="39.50933857262157" lon="8.556625413978544"><ele>394.0</ele><time>2026-04-18T09:37:39Z</time></trkpt><trkpt lat="39.50924883336814" lon="8.556478411878809"><ele>394.0</ele><time>2026-04-18T09:37:40Z</time></trkpt><trkpt lat="39.509195283703065" lon="8.55631481906003"><ele>394.0</ele><time>2026-04-18T09:37:41Z</time></trkpt><trkpt lat="39.50917678899429" lon="8.556114977403396"><ele>394.0</ele><time>2026-04-18T09:37:42Z</time></trkpt><trkpt lat="39.509178067281155" lon="8.555885538986642"><ele>393.6666666666667</ele><time>2026-04-18T09:37:43Z</time></trkpt><trkpt lat="39.50917117532268" lon="8.555640868281735"><ele>393.33333333333337</ele><time>2026-04-18T09:37:44Z</time></trkpt><trkpt lat="39.509157051368206" lon="8.555377936676743"><ele>393.0</ele><time>2026-04-18T09:37:45Z</time></trkpt><trkpt lat="39.50914344363583" lon="8.555103425760628"><ele>392.33333333333337</ele><time>2026-04-18T09:37:46Z</time></trkpt><trkpt lat="39.50913415544021" lon="8.554834209931116"><ele>391.6666666666667</ele><time>2026-04-18T09:37:47Z</time></trkpt><trkpt lat="39.50912679756859" lon="8.554574002988687"><ele>391.0</ele><time>2026-04-18T09:37:48Z</time></trkpt><trkpt lat="39.50911746224275" lon="8.554328365549518"><ele>389.33333333333337</ele><time>2026-04-18T09:37:49Z</time></trkpt><trkpt lat="39.50910604943786" lon="8.554091180777204"><ele>387.66666666666663</ele><time>2026-04-18T09:37:50Z</time></trkpt><trkpt lat="39.509100451689044" lon="8.553867748537158"><ele>386.0</ele><time>2026-04-18T09:37:51Z</time></trkpt><trkpt lat="39.509111958110445" lon="8.553657725129108"><ele>385.0</ele><time>2026-04-18T09:37:52Z</time></trkpt><trkpt lat="39.509160330632746" lon="8.553462514004444"><ele>384.0</ele><time>2026-04-18T09:37:53Z</time></trkpt><trkpt lat="39.50925518936797" lon="8.55327525894536"><ele>383.0</ele><time>2026-04-18T09:37:54Z</time></trkpt><trkpt lat="39.50937478274711" lon="8.553079122358431"><ele>383.6666666666667</ele><time>2026-04-18T09:37:55Z</time></trkpt><trkpt lat="39.50947944496723" lon="8.552849064765066"><ele>384.33333333333337</ele><time>2026-04-18T09:37:56Z</time></trkpt><trkpt lat="39.50956323832232" lon="8.55258058788525"><ele>385.0</ele><time>2026-04-18T09:37:57Z</time></trkpt><trkpt lat="39.50964264847587" lon="8.552293399147255"><ele>381.5</ele><time>2026-04-18T09:37:58Z</time></trkpt><trkpt lat="39.509725619089394" lon="8.552012515587949"><ele>378.0</ele><time>2026-04-18T09:37:59Z</time></trkpt><trkpt lat="39.50980714705027" lon="8.551746706748222"><ele>378.0</ele><time>2026-04-18T09:38:00Z</time></trkpt><trkpt lat="39.509881254625554" lon="8.551500524789342"><ele>378.0</ele><time>2026-04-18T09:38:01Z</time></trkpt><trkpt lat="39.50994460923729" lon="8.551291072275788"><ele>378.0</ele><time>2026-04-18T09:38:02Z</time></trkpt><trkpt lat="39.509998345835996" lon="8.551088656369242"><ele>376.3333333333333</ele><time>2026-04-18T09:38:03Z</time></trkpt><trkpt lat="39.510015340432936" lon="8.550877307955533"><ele>374.66666666666663</ele><time>2026-04-18T09:38:04Z</time></trkpt><trkpt lat="39.50999158676935" lon="8.550630149812022"><ele>373.0</ele><time>2026-04-18T09:38:05Z</time></trkpt><trkpt lat="39.509950928680446" lon="8.5503891884655"><ele>373.3333333333333</ele><time>2026-04-18T09:38:06Z</time></trkpt><trkpt lat="39.50991267508884" lon="8.550162707795705"><ele>373.6666666666667</ele><time>2026-04-18T09:38:07Z</time></trkpt><trkpt lat="39.5098799055887" lon="8.549959590891936"><ele>374.0</ele><time>2026-04-18T09:38:08Z</time></trkpt><trkpt lat="39.50983252751551" lon="8.549796951410453"><ele>374.0</ele><time>2026-04-18T09:38:09Z</time></trkpt><trkpt lat="39.50975822309039" lon="8.549676486076999"><ele>374.0</ele><time>2026-04-18T09:38:10Z</time></trkpt><trkpt lat="39.50964820792696" lon="8.549615432772557"><ele>374.0</ele><time>2026-04-18T09:38:11Z</time></trkpt><trkpt lat="39.50950755545279" lon="8.549615758249407"><ele>374.0</ele><time>2026-04-18T09:38:12Z</time></trkpt><trkpt lat="39.50934761778164" lon="8.549652130691447"><ele>374.33333333333337</ele><time>2026-04-18T09:38:13Z</time></trkpt><trkpt lat="39.50916994138304" lon="8.549661348957"><ele>374.6666666666667</ele><time>2026-04-18T09:38:14Z</time></trkpt><trkpt lat="39.5089806969038" lon="8.549702711388111"><ele>375.0</ele><time>2026-04-18T09:38:15Z</time></trkpt><trkpt lat="39.508816020459314" lon="8.54971980949052"><ele>375.25</ele><time>2026-04-18T09:38:16Z</time></trkpt><trkpt lat="39.50866970300116" lon="8.549723328106838"><ele>375.5</ele><time>2026-04-18T09:38:17Z</time></trkpt><trkpt lat="39.50854765299981" lon="8.549676970779958"><ele>375.75</ele><time>2026-04-18T09:38:18Z</time></trkpt><trkpt lat="39.508459330966" lon="8.549574467143723"><ele>376.0</ele><time>2026-04-18T09:38:19Z</time></trkpt><trkpt lat="39.5084074546873" lon="8.54940244720151"><ele>378.3333333333333</ele><time>2026-04-18T09:38:20Z</time></trkpt><trkpt lat="39.50831961721399" lon="8.54921267080089"><ele>380.6666666666667</ele><time>2026-04-18T09:38:21Z</time></trkpt><trkpt lat="39.50823850211812" lon="8.548994871378301"><ele>383.0</ele><time>2026-04-18T09:38:22Z</time></trkpt><trkpt lat="39.50815532599149" lon="8.54877555731961"><ele>384.33333333333337</ele><time>2026-04-18T09:38:23Z</time></trkpt><trkpt lat="39.50807481994064" lon="8.54859026743692"><ele>385.6666666666667</ele><time>2026-04-18T09:38:24Z</time></trkpt><trkpt lat="39.50797469310179" lon="8.548450083885431"><ele>387.0</ele><time>2026-04-18T09:38:25Z</time></trkpt><trkpt lat="39.5078304686257" lon="8.548348468173815"><ele>387.0</ele><time>2026-04-18T09:38:26Z</time></trkpt><trkpt lat="39.50765164922678" lon="8.548289991801939"><ele>387.0</ele><time>2026-04-18T09:38:27Z</time></trkpt><trkpt lat="39.5074806058311" lon="8.548256919439357"><ele>387.0</ele><time>2026-04-18T09:38:28Z</time></trkpt><trkpt lat="39.50733336593715" lon="8.548212672273168"><ele>387.0</ele><time>2026-04-18T09:38:29Z</time></trkpt><trkpt lat="39.50720958203889" lon="8.548155167765627"><ele>387.0</ele><time>2026-04-18T09:38:30Z</time></trkpt><trkpt lat="39.507114624015045" lon="8.548051139914314"><ele>387.0</ele><time>2026-04-18T09:38:31Z</time></trkpt><trkpt lat="39.50708639844179" lon="8.547884776446217"><ele>387.0</ele><time>2026-04-18T09:38:32Z</time></trkpt><trkpt lat="39.50705804778086" lon="8.547677067784976"><ele>387.0</ele><time>2026-04-18T09:38:33Z</time></trkpt><trkpt lat="39.50702056987611" lon="8.547437168307964"><ele>387.0</ele><time>2026-04-18T09:38:34Z</time></trkpt><trkpt lat="39.50698401543023" lon="8.547179960793349"><ele>387.0</ele><time>2026-04-18T09:38:35Z</time></trkpt><trkpt lat="39.506948194698985" lon="8.546930338115372"><ele>388.66666666666663</ele><time>2026-04-18T09:38:36Z</time></trkpt><trkpt lat="39.50691730508517" lon="8.546706644216854"><ele>390.3333333333333</ele><time>2026-04-18T09:38:37Z</time></trkpt><trkpt lat="39.50686952702904" lon="8.546500218121261"><ele>392.0</ele><time>2026-04-18T09:38:38Z</time></trkpt><trkpt lat="39.50678251131586" lon="8.546293213681434"><ele>393.66666666666663</ele><time>2026-04-18T09:38:39Z</time></trkpt><trkpt lat="39.506663153383485" lon="8.546077996971817"><ele>395.33333333333337</ele><time>2026-04-18T09:38:40Z</time></trkpt><trkpt lat="39.50656116322488" lon="8.545852636579216"><ele>397.0</ele><time>2026-04-18T09:38:41Z</time></trkpt><trkpt lat="39.5064394090567" lon="8.545654953868299"><ele>397.0</ele><time>2026-04-18T09:38:42Z</time></trkpt><trkpt lat="39.506339543614494" lon="8.545446176936792"><ele>397.0</ele><time>2026-04-18T09:38:43Z</time></trkpt><trkpt lat="39.50625761783739" lon="8.5452297379698"><ele>397.0</ele><time>2026-04-18T09:38:44Z</time></trkpt><trkpt lat="39.50619923099773" lon="8.545002621729182"><ele>396.33333333333337</ele><time>2026-04-18T09:38:45Z</time></trkpt><trkpt lat="39.506147893693345" lon="8.544769247624965"><ele>395.66666666666663</ele><time>2026-04-18T09:38:46Z</time></trkpt><trkpt lat="39.50608970681657" lon="8.544532701523098"><ele>395.0</ele><time>2026-04-18T09:38:47Z</time></trkpt><trkpt lat="39.50602858127186" lon="8.544290232753056"><ele>395.0</ele><time>2026-04-18T09:38:48Z</time></trkpt><trkpt lat="39.50597001735163" lon="8.544061758821279"><ele>395.0</ele><time>2026-04-18T09:38:49Z</time></trkpt><trkpt lat="39.50591943390759" lon="8.543844788104744"><ele>395.0</ele><time>2026-04-18T09:38:50Z</time></trkpt><trkpt lat="39.50589164050222" lon="8.543628459320297"><ele>395.3333333333333</ele><time>2026-04-18T09:38:51Z</time></trkpt><trkpt lat="39.50590182062002" lon="8.543401696063588"><ele>395.66666666666663</ele><time>2026-04-18T09:38:52Z</time></trkpt><trkpt lat="39.505948432077155" lon="8.543167944430536"><ele>396.0</ele><time>2026-04-18T09:38:53Z</time></trkpt><trkpt lat="39.50599959276358" lon="8.542944213423283"><ele>396.33333333333337</ele><time>2026-04-18T09:38:54Z</time></trkpt><trkpt lat="39.50604200828229" lon="8.542728168926114"><ele>396.6666666666667</ele><time>2026-04-18T09:38:55Z</time></trkpt><trkpt lat="39.506068827040664" lon="8.542516676401116"><ele>397.0</ele><time>2026-04-18T09:38:56Z</time></trkpt><trkpt lat="39.506077231115114" lon="8.54230356881849"><ele>397.0</ele><time>2026-04-18T09:38:57Z</time></trkpt><trkpt lat="39.506005568382264" lon="8.542082280016203"><ele>397.0</ele><time>2026-04-18T09:38:58Z</time></trkpt><trkpt lat="39.50592211941263" lon="8.541852896813957"><ele>397.0</ele><time>2026-04-18T09:38:59Z</time></trkpt><trkpt lat="39.50583001202922" lon="8.541611091673714"><ele>397.33333333333337</ele><time>2026-04-18T09:39:00Z</time></trkpt><trkpt lat="39.505739311949924" lon="8.541357834206728"><ele>397.66666666666663</ele><time>2026-04-18T09:39:01Z</time></trkpt><trkpt lat="39.50564552596212" lon="8.541093070074592"><ele>398.0</ele><time>2026-04-18T09:39:02Z</time></trkpt><trkpt lat="39.50554537002916" lon="8.540820011152029"><ele>399.0</ele><time>2026-04-18T09:39:03Z</time></trkpt><trkpt lat="39.50544006851796" lon="8.540534627309349"><ele>400.0</ele><time>2026-04-18T09:39:04Z</time></trkpt><trkpt lat="39.505334920915566" lon="8.540242078424837"><ele>400.6666666666667</ele><time>2026-04-18T09:39:05Z</time></trkpt><trkpt lat="39.50524050991319" lon="8.53997007776484"><ele>401.33333333333337</ele><time>2026-04-18T09:39:06Z</time></trkpt><trkpt lat="39.50515104355749" lon="8.539714555196896"><ele>402.0</ele><time>2026-04-18T09:39:07Z</time></trkpt><trkpt lat="39.50506491045476" lon="8.539475138865342"><ele>403.33333333333337</ele><time>2026-04-18T09:39:08Z</time></trkpt><trkpt lat="39.504984506621625" lon="8.539261409313053"><ele>404.6666666666667</ele><time>2026-04-18T09:39:09Z</time></trkpt><trkpt lat="39.504897733135145" lon="8.539085913585906"><ele>406.0</ele><time>2026-04-18T09:39:10Z</time></trkpt><trkpt lat="39.50477382969656" lon="8.538952278454571"><ele>406.0</ele><time>2026-04-18T09:39:11Z</time></trkpt><trkpt lat="39.504607789629155" lon="8.538843779886315"><ele>406.0</ele><time>2026-04-18T09:39:12Z</time></trkpt><trkpt lat="39.50441182393337" lon="8.538765750439365"><ele>406.0</ele><time>2026-04-18T09:39:13Z</time></trkpt><trkpt lat="39.50423117752733" lon="8.538675056693386"><ele>407.6666666666667</ele><time>2026-04-18T09:39:14Z</time></trkpt><trkpt lat="39.50406938222668" lon="8.538589047255913"><ele>409.33333333333337</ele><time>2026-04-18T09:39:15Z</time></trkpt><trkpt lat="39.50392210254142" lon="8.538515342244912"><ele>411.0</ele><time>2026-04-18T09:39:16Z</time></trkpt><trkpt lat="39.503794721371605" lon="8.538433831348593"><ele>409.33333333333337</ele><time>2026-04-18T09:39:17Z</time></trkpt><trkpt lat="39.50368912552271" lon="8.538324936062477"><ele>407.6666666666667</ele><time>2026-04-18T09:39:18Z</time></trkpt><trkpt lat="39.503602258473" lon="8.538166638515406"><ele>406.0</ele><time>2026-04-18T09:39:19Z</time></trkpt><trkpt lat="39.503521116314914" lon="8.537968435059703"><ele>407.6666666666667</ele><time>2026-04-18T09:39:20Z</time></trkpt><trkpt lat="39.50343124825479" lon="8.537753561735375"><ele>409.33333333333337</ele><time>2026-04-18T09:39:21Z</time></trkpt><trkpt lat="39.503346676984485" lon="8.537553153869535"><ele>411.0</ele><time>2026-04-18T09:39:22Z</time></trkpt><trkpt lat="39.50327722556123" lon="8.53737178417918"><ele>411.0</ele><time>2026-04-18T09:39:23Z</time></trkpt><trkpt lat="39.503243697180004" lon="8.537170380550572"><ele>411.0</ele><time>2026-04-18T09:39:24Z</time></trkpt><trkpt lat="39.50325770867159" lon="8.536934348343243"><ele>411.0</ele><time>2026-04-18T09:39:25Z</time></trkpt><trkpt lat="39.50328304040273" lon="8.536688997757619"><ele>412.33333333333337</ele><time>2026-04-18T09:39:26Z</time></trkpt><trkpt lat="39.50330530606752" lon="8.536425663795079"><ele>413.6666666666667</ele><time>2026-04-18T09:39:27Z</time></trkpt><trkpt lat="39.50332769185404" lon="8.536148345649087"><ele>415.0</ele><time>2026-04-18T09:39:28Z</time></trkpt><trkpt lat="39.503351143659344" lon="8.535889451405914"><ele>415.0</ele><time>2026-04-18T09:39:29Z</time></trkpt><trkpt lat="39.503374915962546" lon="8.535650403226239"><ele>415.0</ele><time>2026-04-18T09:39:30Z</time></trkpt><trkpt lat="39.50342282279827" lon="8.535431655342654"><ele>415.0</ele><time>2026-04-18T09:39:31Z</time></trkpt><trkpt lat="39.503507677776064" lon="8.535235304716272"><ele>414.33333333333337</ele><time>2026-04-18T09:39:32Z</time></trkpt><trkpt lat="39.503588306950725" lon="8.535052382838668"><ele>413.66666666666663</ele><time>2026-04-18T09:39:33Z</time></trkpt><trkpt lat="39.50361913990645" lon="8.534852227749207"><ele>413.0</ele><time>2026-04-18T09:39:34Z</time></trkpt><trkpt lat="39.5035990125694" lon="8.534633054557002"><ele>411.66666666666663</ele><time>2026-04-18T09:39:35Z</time></trkpt><trkpt lat="39.503551027399965" lon="8.53441775697308"><ele>410.33333333333337</ele><time>2026-04-18T09:39:36Z</time></trkpt><trkpt lat="39.503519907220536" lon="8.534212457412375"><ele>409.0</ele><time>2026-04-18T09:39:37Z</time></trkpt><trkpt lat="39.50352252417212" lon="8.534016963202472"><ele>409.0</ele><time>2026-04-18T09:39:38Z</time></trkpt><trkpt lat="39.503591122511224" lon="8.533839910800735"><ele>409.0</ele><time>2026-04-18T09:39:39Z</time></trkpt><trkpt lat="39.50369432900669" lon="8.533708508444269"><ele>409.0</ele><time>2026-04-18T09:39:40Z</time></trkpt><trkpt lat="39.503812157814494" lon="8.533548392270971"><ele>409.75</ele><time>2026-04-18T09:39:41Z</time></trkpt><trkpt lat="39.503931810582856" lon="8.533406469653665"><ele>410.5</ele><time>2026-04-18T09:39:42Z</time></trkpt><trkpt lat="39.50402935714893" lon="8.53327693629587"><ele>411.25</ele><time>2026-04-18T09:39:43Z</time></trkpt><trkpt lat="39.50409830368896" lon="8.533147630843454"><ele>412.0</ele><time>2026-04-18T09:39:44Z</time></trkpt><trkpt lat="39.504110738955326" lon="8.532996833192321"><ele>410.6666666666667</ele><time>2026-04-18T09:39:45Z</time></trkpt><trkpt lat="39.504067944471934" lon="8.532822591743004"><ele>409.33333333333337</ele><time>2026-04-18T09:39:46Z</time></trkpt><trkpt lat="39.5039940236348" lon="8.532647026070496"><ele>408.0</ele><time>2026-04-18T09:39:47Z</time></trkpt><trkpt lat="39.503905964091814" lon="8.532466200212275"><ele>408.0</ele><time>2026-04-18T09:39:48Z</time></trkpt><trkpt lat="39.50378035543906" lon="8.532307449487122"><ele>408.0</ele><time>2026-04-18T09:39:49Z</time></trkpt><trkpt lat="39.50362538696836" lon="8.532191721849637"><ele>408.0</ele><time>2026-04-18T09:39:50Z</time></trkpt><trkpt lat="39.50345956657538" lon="8.532067680175505"><ele>409.0</ele><time>2026-04-18T09:39:51Z</time></trkpt><trkpt lat="39.50329277600141" lon="8.53192567376755"><ele>410.0</ele><time>2026-04-18T09:39:52Z</time></trkpt><trkpt lat="39.50311741505176" lon="8.531789709389502"><ele>411.0</ele><time>2026-04-18T09:39:53Z</time></trkpt><trkpt lat="39.50293190097798" lon="8.531672348408032"><ele>412.0</ele><time>2026-04-18T09:39:54Z</time></trkpt><trkpt lat="39.502726689849816" lon="8.531591486321004"><ele>413.0</ele><time>2026-04-18T09:39:55Z</time></trkpt><trkpt lat="39.50251937771546" lon="8.531538131956204"><ele>414.0</ele><time>2026-04-18T09:39:56Z</time></trkpt><trkpt lat="39.502318295478545" lon="8.531453582739491"><ele>414.0</ele><time>2026-04-18T09:39:57Z</time></trkpt><trkpt lat="39.502118479111836" lon="8.531410421814146"><ele>414.0</ele><time>2026-04-18T09:39:58.001Z</time></trkpt><trkpt lat="39.50193817775747" lon="8.531350496560036"><ele>414.0</ele><time>2026-04-18T09:39:59Z</time></trkpt><trkpt lat="39.501768242044456" lon="8.531298712842275"><ele>413.5</ele><time>2026-04-18T09:40:00Z</time></trkpt><trkpt lat="39.50161192210694" lon="8.531242140904833"><ele>413.0</ele><time>2026-04-18T09:40:01Z</time></trkpt><trkpt lat="39.50148088366609" lon="8.531161421666956"><ele>412.5</ele><time>2026-04-18T09:40:02Z</time></trkpt><trkpt lat="39.501398079694944" lon="8.531035321924692"><ele>412.0</ele><time>2026-04-18T09:40:03Z</time></trkpt><trkpt lat="39.50136613404454" lon="8.530891686563562"><ele>412.0</ele><time>2026-04-18T09:40:04Z</time></trkpt><trkpt lat="39.50130407271035" lon="8.530711220955641"><ele>412.0</ele><time>2026-04-18T09:40:05Z</time></trkpt><trkpt lat="39.501240894027035" lon="8.530511893413172"><ele>412.0</ele><time>2026-04-18T09:40:06Z</time></trkpt><trkpt lat="39.501129881062255" lon="8.530326914847057"><ele>412.0</ele><time>2026-04-18T09:40:07Z</time></trkpt><trkpt lat="39.50100169594551" lon="8.53012880643928"><ele>412.0</ele><time>2026-04-18T09:40:08Z</time></trkpt><trkpt lat="39.50087556909161" lon="8.529909333277612"><ele>412.0</ele><time>2026-04-18T09:40:09Z</time></trkpt><trkpt lat="39.50075273100159" lon="8.529701496870265"><ele>412.6666666666667</ele><time>2026-04-18T09:40:10Z</time></trkpt><trkpt lat="39.500636374541884" lon="8.529514485689882"><ele>413.33333333333337</ele><time>2026-04-18T09:40:11Z</time></trkpt><trkpt lat="39.500518936484795" lon="8.529345096339922"><ele>414.0</ele><time>2026-04-18T09:40:12Z</time></trkpt><trkpt lat="39.5003807863805" lon="8.529228404887547"><ele>414.0</ele><time>2026-04-18T09:40:13Z</time></trkpt><trkpt lat="39.50023986793699" lon="8.52916133275592"><ele>414.0</ele><time>2026-04-18T09:40:14Z</time></trkpt><trkpt lat="39.50015276472695" lon="8.529034728148499"><ele>414.0</ele><time>2026-04-18T09:40:15Z</time></trkpt><trkpt lat="39.500096323466444" lon="8.528871193327504"><ele>414.0</ele><time>2026-04-18T09:40:16Z</time></trkpt><trkpt lat="39.500010890850355" lon="8.528689500615258"><ele>415.66666666666663</ele><time>2026-04-18T09:40:17Z</time></trkpt><trkpt lat="39.49993112042227" lon="8.52848053647693"><ele>417.3333333333333</ele><time>2026-04-18T09:40:18Z</time></trkpt><trkpt lat="39.49984149734962" lon="8.52826203822149"><ele>419.0</ele><time>2026-04-18T09:40:19Z</time></trkpt><trkpt lat="39.499765677836216" lon="8.528021819222664"><ele>418.66666666666663</ele><time>2026-04-18T09:40:20Z</time></trkpt><trkpt lat="39.49967523519476" lon="8.5277910458626"><ele>418.33333333333337</ele><time>2026-04-18T09:40:21Z</time></trkpt><trkpt lat="39.49958384871064" lon="8.527592908347927"><ele>418.0</ele><time>2026-04-18T09:40:22Z</time></trkpt><trkpt lat="39.499516089902166" lon="8.527408763756227"><ele>418.0</ele><time>2026-04-18T09:40:23Z</time></trkpt><trkpt lat="39.49946341394906" lon="8.527270319620495"><ele>418.0</ele><time>2026-04-18T09:40:24Z</time></trkpt><trkpt lat="39.499374962623854" lon="8.527177264367959"><ele>418.0</ele><time>2026-04-18T09:40:25Z</time></trkpt><trkpt lat="39.49925821286918" lon="8.527192517880748"><ele>418.0</ele><time>2026-04-18T09:40:26Z</time></trkpt><trkpt lat="39.499146811868826" lon="8.52724661443344"><ele>418.0</ele><time>2026-04-18T09:40:27Z</time></trkpt><trkpt lat="39.499016275073615" lon="8.527323239771189"><ele>418.0</ele><time>2026-04-18T09:40:28Z</time></trkpt><trkpt lat="39.498877527038495" lon="8.527416090899688"><ele>418.0</ele><time>2026-04-18T09:40:29Z</time></trkpt><trkpt lat="39.498733613131634" lon="8.527508570183555"><ele>418.75</ele><time>2026-04-18T09:40:30Z</time></trkpt><trkpt lat="39.49860153099162" lon="8.52757970825825"><ele>419.5</ele><time>2026-04-18T09:40:31Z</time></trkpt><trkpt lat="39.49846028085724" lon="8.527543304385992"><ele>420.25</ele><time>2026-04-18T09:40:32Z</time></trkpt><trkpt lat="39.498308140026126" lon="8.52747696906786"><ele>421.0</ele><time>2026-04-18T09:40:33Z</time></trkpt><trkpt lat="39.498146153807184" lon="8.52739990027362"><ele>421.0</ele><time>2026-04-18T09:40:34Z</time></trkpt><trkpt lat="39.49799247745948" lon="8.527326400732601"><ele>421.0</ele><time>2026-04-18T09:40:35Z</time></trkpt><trkpt lat="39.49785491644514" lon="8.527255243069048"><ele>421.0</ele><time>2026-04-18T09:40:36Z</time></trkpt><trkpt lat="39.497741694813534" lon="8.52715991647412"><ele>421.0</ele><time>2026-04-18T09:40:37Z</time></trkpt><trkpt lat="39.497656619003955" lon="8.52703177149782"><ele>420.0</ele><time>2026-04-18T09:40:38Z</time></trkpt><trkpt lat="39.49761876370387" lon="8.526849880582331"><ele>419.0</ele><time>2026-04-18T09:40:39Z</time></trkpt><trkpt lat="39.49760216412528" lon="8.526634848875059"><ele>418.0</ele><time>2026-04-18T09:40:40Z</time></trkpt><trkpt lat="39.49759621893615" lon="8.52640616297975"><ele>417.6666666666667</ele><time>2026-04-18T09:40:41Z</time></trkpt><trkpt lat="39.49761426963467" lon="8.526175423738126"><ele>417.33333333333337</ele><time>2026-04-18T09:40:42Z</time></trkpt><trkpt lat="39.497666570379515" lon="8.525927443525262"><ele>417.0</ele><time>2026-04-18T09:40:43Z</time></trkpt><trkpt lat="39.49774697075104" lon="8.525674416119166"><ele>417.0</ele><time>2026-04-18T09:40:44Z</time></trkpt><trkpt lat="39.497827362506904" lon="8.525407553064749"><ele>417.0</ele><time>2026-04-18T09:40:45Z</time></trkpt><trkpt lat="39.497904750436724" lon="8.52514017964698"><ele>417.0</ele><time>2026-04-18T09:40:46Z</time></trkpt><trkpt lat="39.49798158922741" lon="8.524877193642073"><ele>418.66666666666663</ele><time>2026-04-18T09:40:47Z</time></trkpt><trkpt lat="39.49805582809053" lon="8.52463546992549"><ele>420.3333333333333</ele><time>2026-04-18T09:40:48Z</time></trkpt><trkpt lat="39.49812461587132" lon="8.524415047097964"><ele>422.0</ele><time>2026-04-18T09:40:49Z</time></trkpt><trkpt lat="39.498185319727575" lon="8.524210989833136"><ele>422.0</ele><time>2026-04-18T09:40:50Z</time></trkpt><trkpt lat="39.49822039831031" lon="8.52401878580471"><ele>422.0</ele><time>2026-04-18T09:40:51Z</time></trkpt><trkpt lat="39.49820850930483" lon="8.523824420099645"><ele>422.0</ele><time>2026-04-18T09:40:52Z</time></trkpt><trkpt lat="39.49815323781689" lon="8.523612271680681"><ele>424.0</ele><time>2026-04-18T09:40:53Z</time></trkpt><trkpt lat="39.498070184431846" lon="8.523403668616947"><ele>426.0</ele><time>2026-04-18T09:40:54Z</time></trkpt><trkpt lat="39.497982007802534" lon="8.523239136501934"><ele>428.0</ele><time>2026-04-18T09:40:55Z</time></trkpt><trkpt lat="39.49786644370275" lon="8.523128929508871"><ele>428.0</ele><time>2026-04-18T09:40:56Z</time></trkpt><trkpt lat="39.4977086586399" lon="8.523064506200848"><ele>428.0</ele><time>2026-04-18T09:40:57Z</time></trkpt><trkpt lat="39.49752620335226" lon="8.523019929884962"><ele>428.0</ele><time>2026-04-18T09:40:58Z</time></trkpt><trkpt lat="39.49732633591601" lon="8.522972308188788"><ele>428.0</ele><time>2026-04-18T09:40:59Z</time></trkpt><trkpt lat="39.49711463511119" lon="8.522916090869831"><ele>428.0</ele><time>2026-04-18T09:41:00Z</time></trkpt><trkpt lat="39.49689708728307" lon="8.52285465713123"><ele>428.0</ele><time>2026-04-18T09:41:01Z</time></trkpt><trkpt lat="39.496677451026045" lon="8.5227926163132"><ele>429.5</ele><time>2026-04-18T09:41:02Z</time></trkpt><trkpt lat="39.49644347419844" lon="8.522730121164951"><ele>431.0</ele><time>2026-04-18T09:41:03Z</time></trkpt><trkpt lat="39.49620037586735" lon="8.522663529528108"><ele>433.0</ele><time>2026-04-18T09:41:04Z</time></trkpt><trkpt lat="39.49595187563552" lon="8.522593542906534"><ele>435.0</ele><time>2026-04-18T09:41:05Z</time></trkpt><trkpt lat="39.49570245554863" lon="8.522523372205082"><ele>435.0</ele><time>2026-04-18T09:41:06Z</time></trkpt><trkpt lat="39.49547247497023" lon="8.522458661668344"><ele>435.0</ele><time>2026-04-18T09:41:07Z</time></trkpt><trkpt lat="39.4952565256189" lon="8.522398093092436"><ele>436.0</ele><time>2026-04-18T09:41:08Z</time></trkpt><trkpt lat="39.49505087758692" lon="8.522341641437084"><ele>437.0</ele><time>2026-04-18T09:41:09Z</time></trkpt><trkpt lat="39.49485434001219" lon="8.522287446151873"><ele>438.0</ele><time>2026-04-18T09:41:10Z</time></trkpt><trkpt lat="39.49466658631052" lon="8.522215373536914"><ele>437.66666666666663</ele><time>2026-04-18T09:41:11Z</time></trkpt><trkpt lat="39.494487375560496" lon="8.522100773722663"><ele>437.3333333333333</ele><time>2026-04-18T09:41:12Z</time></trkpt><trkpt lat="39.49432488032878" lon="8.52192897846265"><ele>437.0</ele><time>2026-04-18T09:41:13Z</time></trkpt><trkpt lat="39.49415184527493" lon="8.52178365875757"><ele>438.3333333333333</ele><time>2026-04-18T09:41:14Z</time></trkpt><trkpt lat="39.49401222294284" lon="8.52161531542217"><ele>439.66666666666663</ele><time>2026-04-18T09:41:15Z</time></trkpt><trkpt lat="39.49390485275223" lon="8.521429322645842"><ele>441.0</ele><time>2026-04-18T09:41:16Z</time></trkpt><trkpt lat="39.49380896009825" lon="8.521210887738727"><ele>440.0</ele><time>2026-04-18T09:41:17Z</time></trkpt><trkpt lat="39.493711588629516" lon="8.520968482034311"><ele>439.0</ele><time>2026-04-18T09:41:18Z</time></trkpt><trkpt lat="39.49360655948971" lon="8.520712072260881"><ele>438.0</ele><time>2026-04-18T09:41:19Z</time></trkpt><trkpt lat="39.493497866305574" lon="8.5204488764892"><ele>438.0</ele><time>2026-04-18T09:41:20Z</time></trkpt><trkpt lat="39.49339170788787" lon="8.520190787880754"><ele>438.0</ele><time>2026-04-18T09:41:21Z</time></trkpt><trkpt lat="39.49328440348856" lon="8.519938783226811"><ele>438.0</ele><time>2026-04-18T09:41:22Z</time></trkpt><trkpt lat="39.493175385714935" lon="8.519685470860905"><ele>439.0</ele><time>2026-04-18T09:41:23Z</time></trkpt><trkpt lat="39.49306772492677" lon="8.519428506783472"><ele>440.0</ele><time>2026-04-18T09:41:24Z</time></trkpt><trkpt lat="39.49296042167098" lon="8.519167461179626"><ele>440.0</ele><time>2026-04-18T09:41:25Z</time></trkpt><trkpt lat="39.49285132609265" lon="8.518903593701523"><ele>440.0</ele><time>2026-04-18T09:41:26Z</time></trkpt><trkpt lat="39.49274121194366" lon="8.518632995530002"><ele>440.0</ele><time>2026-04-18T09:41:27Z</time></trkpt><trkpt lat="39.49263313043336" lon="8.518367346234042"><ele>440.0</ele><time>2026-04-18T09:41:28Z</time></trkpt><trkpt lat="39.49252485867763" lon="8.518119926784408"><ele>440.0</ele><time>2026-04-18T09:41:29Z</time></trkpt><trkpt lat="39.49240277564388" lon="8.517905434929151"><ele>440.0</ele><time>2026-04-18T09:41:30Z</time></trkpt><trkpt lat="39.492249641338645" lon="8.51771961204255"><ele>440.0</ele><time>2026-04-18T09:41:31Z</time></trkpt><trkpt lat="39.4920682157015" lon="8.51754967070085"><ele>441.0</ele><time>2026-04-18T09:41:32Z</time></trkpt><trkpt lat="39.491875637953235" lon="8.517386774274087"><ele>442.0</ele><time>2026-04-18T09:41:33Z</time></trkpt><trkpt lat="39.49168030208113" lon="8.517225793056204"><ele>443.33333333333337</ele><time>2026-04-18T09:41:34Z</time></trkpt><trkpt lat="39.491488155597516" lon="8.517068935354638"><ele>444.66666666666663</ele><time>2026-04-18T09:41:35Z</time></trkpt><trkpt lat="39.49130347477001" lon="8.516931474973893"><ele>446.0</ele><time>2026-04-18T09:41:36Z</time></trkpt><trkpt lat="39.49111109060608" lon="8.516826505047902"><ele>446.3333333333333</ele><time>2026-04-18T09:41:37Z</time></trkpt><trkpt lat="39.49090423202651" lon="8.516761863474475"><ele>446.66666666666663</ele><time>2026-04-18T09:41:38Z</time></trkpt><trkpt lat="39.49069193150244" lon="8.516748555045158"><ele>447.0</ele><time>2026-04-18T09:41:39Z</time></trkpt><trkpt lat="39.490473516453925" lon="8.51678690550367"><ele>450.0</ele><time>2026-04-18T09:41:40Z</time></trkpt><trkpt lat="39.490253439799794" lon="8.51686977149525"><ele>453.0</ele><time>2026-04-18T09:41:41Z</time></trkpt><trkpt lat="39.49002782660697" lon="8.516976541254175"><ele>453.0</ele><time>2026-04-18T09:41:42Z</time></trkpt><trkpt lat="39.48979605083084" lon="8.51706133804393"><ele>453.0</ele><time>2026-04-18T09:41:43Z</time></trkpt><trkpt lat="39.48957417793813" lon="8.517162654785544"><ele>453.0</ele><time>2026-04-18T09:41:44Z</time></trkpt><trkpt lat="39.48936155877685" lon="8.517266086205332"><ele>453.0</ele><time>2026-04-18T09:41:45Z</time></trkpt><trkpt lat="39.4891722069712" lon="8.517393854194582"><ele>453.0</ele><time>2026-04-18T09:41:46Z</time></trkpt><trkpt lat="39.4889862413501" lon="8.517489662165886"><ele>453.0</ele><time>2026-04-18T09:41:47Z</time></trkpt><trkpt lat="39.4888197534001" lon="8.517591679207806"><ele>453.0</ele><time>2026-04-18T09:41:48Z</time></trkpt><trkpt lat="39.48867156009499" lon="8.517704213336009"><ele>453.0</ele><time>2026-04-18T09:41:49Z</time></trkpt><trkpt lat="39.488524086045174" lon="8.517785510385306"><ele>455.33333333333337</ele><time>2026-04-18T09:41:50Z</time></trkpt><trkpt lat="39.48837292634755" lon="8.51783679228596"><ele>457.6666666666667</ele><time>2026-04-18T09:41:51Z</time></trkpt><trkpt lat="39.48821666380575" lon="8.517873267166827"><ele>460.0</ele><time>2026-04-18T09:41:52Z</time></trkpt><trkpt lat="39.48805039950443" lon="8.517883408218266"><ele>460.33333333333337</ele><time>2026-04-18T09:41:53Z</time></trkpt><trkpt lat="39.487875897034264" lon="8.517837901457382"><ele>460.66666666666663</ele><time>2026-04-18T09:41:54Z</time></trkpt><trkpt lat="39.48770833809968" lon="8.517758791262159"><ele>461.0</ele><time>2026-04-18T09:41:55Z</time></trkpt><trkpt lat="39.48754034437884" lon="8.517632191969179"><ele>461.0</ele><time>2026-04-18T09:41:56Z</time></trkpt><trkpt lat="39.48736400108228" lon="8.51748826311248"><ele>461.0</ele><time>2026-04-18T09:41:57Z</time></trkpt><trkpt lat="39.48718330907558" lon="8.51734527889724"><ele>461.0</ele><time>2026-04-18T09:41:58Z</time></trkpt><trkpt lat="39.48701205956457" lon="8.517213319008995"><ele>461.66666666666663</ele><time>2026-04-18T09:41:59Z</time></trkpt><trkpt lat="39.486849446612936" lon="8.517088993157934"><ele>462.33333333333337</ele><time>2026-04-18T09:42:00Z</time></trkpt><trkpt lat="39.486705355324695" lon="8.516965868825679"><ele>463.0</ele><time>2026-04-18T09:42:01Z</time></trkpt><trkpt lat="39.486578636060656" lon="8.516829420872444"><ele>463.0</ele><time>2026-04-18T09:42:02Z</time></trkpt><trkpt lat="39.486469555690256" lon="8.516658458253652"><ele>463.0</ele><time>2026-04-18T09:42:03Z</time></trkpt><trkpt lat="39.48637875797496" lon="8.516469587855047"><ele>463.0</ele><time>2026-04-18T09:42:04Z</time></trkpt><trkpt lat="39.48629192301049" lon="8.516257758165969"><ele>459.6666666666667</ele><time>2026-04-18T09:42:05Z</time></trkpt><trkpt lat="39.48621037922882" lon="8.516025614364187"><ele>456.33333333333337</ele><time>2026-04-18T09:42:06Z</time></trkpt><trkpt lat="39.48613295730553" lon="8.515777631011686"><ele>453.0</ele><time>2026-04-18T09:42:07Z</time></trkpt><trkpt lat="39.486059561548345" lon="8.51552898525477"><ele>452.0</ele><time>2026-04-18T09:42:08Z</time></trkpt><trkpt lat="39.48598687565046" lon="8.515289251273803"><ele>451.0</ele><time>2026-04-18T09:42:09Z</time></trkpt><trkpt lat="39.485914159416424" lon="8.515058729357017"><ele>450.0</ele><time>2026-04-18T09:42:10Z</time></trkpt><trkpt lat="39.485849964683936" lon="8.514824027195644"><ele>450.0</ele><time>2026-04-18T09:42:11Z</time></trkpt><trkpt lat="39.48581102224879" lon="8.51458265367045"><ele>450.0</ele><time>2026-04-18T09:42:12Z</time></trkpt><trkpt lat="39.48579534633897" lon="8.51434410721156"><ele>450.0</ele><time>2026-04-18T09:42:13Z</time></trkpt><trkpt lat="39.4857638750305" lon="8.514127424107393"><ele>449.25</ele><time>2026-04-18T09:42:14Z</time></trkpt><trkpt lat="39.48570862961877" lon="8.513948317293664"><ele>448.5</ele><time>2026-04-18T09:42:15Z</time></trkpt><trkpt lat="39.485671766528164" lon="8.513785581760851"><ele>447.75</ele><time>2026-04-18T09:42:16Z</time></trkpt><trkpt lat="39.485696510160416" lon="8.513601087542316"><ele>447.0</ele><time>2026-04-18T09:42:17Z</time></trkpt><trkpt lat="39.48575507460556" lon="8.513398794266907"><ele>447.0</ele><time>2026-04-18T09:42:18Z</time></trkpt><trkpt lat="39.485805640853144" lon="8.513210350791232"><ele>447.0</ele><time>2026-04-18T09:42:19Z</time></trkpt><trkpt lat="39.485824346244485" lon="8.513040638734449"><ele>447.0</ele><time>2026-04-18T09:42:20Z</time></trkpt><trkpt lat="39.48579357272526" lon="8.512894324657175"><ele>447.0</ele><time>2026-04-18T09:42:21Z</time></trkpt><trkpt lat="39.485712238131434" lon="8.512776355127773"><ele>447.0</ele><time>2026-04-18T09:42:22Z</time></trkpt><trkpt lat="39.48559297287943" lon="8.512686556286232"><ele>447.0</ele><time>2026-04-18T09:42:23Z</time></trkpt><trkpt lat="39.48547236059287" lon="8.51258859834681"><ele>447.0</ele><time>2026-04-18T09:42:24Z</time></trkpt><trkpt lat="39.48535950208227" lon="8.512438007053092"><ele>447.0</ele><time>2026-04-18T09:42:25Z</time></trkpt><trkpt lat="39.48524995938944" lon="8.512260167217713"><ele>443.66666666666663</ele><time>2026-04-18T09:42:26Z</time></trkpt><trkpt lat="39.485112172922015" lon="8.512085782289509"><ele>440.3333333333333</ele><time>2026-04-18T09:42:27Z</time></trkpt><trkpt lat="39.4849466946922" lon="8.511917943931477"><ele>437.0</ele><time>2026-04-18T09:42:28Z</time></trkpt><trkpt lat="39.48479703142465" lon="8.51173477490385"><ele>437.0</ele><time>2026-04-18T09:42:29Z</time></trkpt><trkpt lat="39.48463592993861" lon="8.51156855505626"><ele>437.0</ele><time>2026-04-18T09:42:30Z</time></trkpt><trkpt lat="39.484471615114984" lon="8.511425523895111"><ele>437.0</ele><time>2026-04-18T09:42:31Z</time></trkpt><trkpt lat="39.484337482599166" lon="8.511258832967973"><ele>432.66666666666663</ele><time>2026-04-18T09:42:32Z</time></trkpt><trkpt lat="39.48420595586869" lon="8.511112827798073"><ele>428.33333333333337</ele><time>2026-04-18T09:42:33Z</time></trkpt><trkpt lat="39.48408064992252" lon="8.510965689744236"><ele>424.0</ele><time>2026-04-18T09:42:34Z</time></trkpt><trkpt lat="39.48399595614742" lon="8.51078252588536"><ele>424.0</ele><time>2026-04-18T09:42:35Z</time></trkpt><trkpt lat="39.48393233479923" lon="8.51058640303875"><ele>424.0</ele><time>2026-04-18T09:42:36Z</time></trkpt><trkpt lat="39.48389642898267" lon="8.510386987259572"><ele>424.0</ele><time>2026-04-18T09:42:37Z</time></trkpt><trkpt lat="39.48389715608279" lon="8.510167252655451"><ele>423.0</ele><time>2026-04-18T09:42:38Z</time></trkpt><trkpt lat="39.483926599294506" lon="8.509937450018061"><ele>422.0</ele><time>2026-04-18T09:42:39Z</time></trkpt><trkpt lat="39.48396849524819" lon="8.509721550851776"><ele>421.0</ele><time>2026-04-18T09:42:40Z</time></trkpt><trkpt lat="39.48403959602651" lon="8.50951753394467"><ele>416.6666666666667</ele><time>2026-04-18T09:42:41Z</time></trkpt><trkpt lat="39.48414096132482" lon="8.509339929250478"><ele>412.33333333333337</ele><time>2026-04-18T09:42:42Z</time></trkpt><trkpt lat="39.484254179567735" lon="8.50919253102332"><ele>408.0</ele><time>2026-04-18T09:42:43Z</time></trkpt><trkpt lat="39.484334996460746" lon="8.50902930693234"><ele>408.0</ele><time>2026-04-18T09:42:44Z</time></trkpt><trkpt lat="39.48437015149773" lon="8.508817715867464"><ele>408.0</ele><time>2026-04-18T09:42:45Z</time></trkpt><trkpt lat="39.48437657399857" lon="8.508584412747766"><ele>408.0</ele><time>2026-04-18T09:42:46Z</time></trkpt><trkpt lat="39.48438887815522" lon="8.508334712776255"><ele>405.0</ele><time>2026-04-18T09:42:47Z</time></trkpt><trkpt lat="39.48440618916895" lon="8.508072316418241"><ele>402.0</ele><time>2026-04-18T09:42:48Z</time></trkpt><trkpt lat="39.48442195210795" lon="8.507799503629537"><ele>399.0</ele><time>2026-04-18T09:42:49Z</time></trkpt><trkpt lat="39.48443880642482" lon="8.50751570538269"><ele>397.66666666666663</ele><time>2026-04-18T09:42:50Z</time></trkpt><trkpt lat="39.48446060220736" lon="8.507237598703057"><ele>396.3333333333333</ele><time>2026-04-18T09:42:51Z</time></trkpt><trkpt lat="39.484483821145766" lon="8.5069743015821"><ele>395.0</ele><time>2026-04-18T09:42:52Z</time></trkpt><trkpt lat="39.48450332134713" lon="8.506718509722923"><ele>392.66666666666663</ele><time>2026-04-18T09:42:53Z</time></trkpt><trkpt lat="39.4845146306666" lon="8.506478426474738"><ele>390.33333333333337</ele><time>2026-04-18T09:42:54Z</time></trkpt><trkpt lat="39.48450845969389" lon="8.50625334873731"><ele>388.0</ele><time>2026-04-18T09:42:55Z</time></trkpt><trkpt lat="39.48449382232462" lon="8.506032985141191"><ele>387.0</ele><time>2026-04-18T09:42:56Z</time></trkpt><trkpt lat="39.484508783683566" lon="8.505820554043694"><ele>386.0</ele><time>2026-04-18T09:42:57Z</time></trkpt><trkpt lat="39.48456028225958" lon="8.505624868596385"><ele>385.0</ele><time>2026-04-18T09:42:58Z</time></trkpt><trkpt lat="39.48462106360731" lon="8.5054669644063"><ele>385.25</ele><time>2026-04-18T09:42:59Z</time></trkpt><trkpt lat="39.48466627958841" lon="8.505320777014589"><ele>385.5</ele><time>2026-04-18T09:43:00Z</time></trkpt><trkpt lat="39.48470196992312" lon="8.505185699765377"><ele>385.75</ele><time>2026-04-18T09:43:01Z</time></trkpt><trkpt lat="39.48462820915891" lon="8.505043527735308"><ele>386.0</ele><time>2026-04-18T09:43:02Z</time></trkpt><trkpt lat="39.484544990865935" lon="8.504956043287207"><ele>386.0</ele><time>2026-04-18T09:43:03Z</time></trkpt><trkpt lat="39.48443677706144" lon="8.504930435410772"><ele>386.0</ele><time>2026-04-18T09:43:04Z</time></trkpt><trkpt lat="39.48431980105899" lon="8.504971052220823"><ele>386.0</ele><time>2026-04-18T09:43:05Z</time></trkpt><trkpt lat="39.484211997580765" lon="8.50508090257718"><ele>386.0</ele><time>2026-04-18T09:43:06Z</time></trkpt><trkpt lat="39.484103093325466" lon="8.50526141218043"><ele>385.66666666666663</ele><time>2026-04-18T09:43:07Z</time></trkpt><trkpt lat="39.483990937248365" lon="8.50544139072688"><ele>385.33333333333337</ele><time>2026-04-18T09:43:08Z</time></trkpt><trkpt lat="39.483880261421035" lon="8.50561742550449"><ele>385.0</ele><time>2026-04-18T09:43:09Z</time></trkpt><trkpt lat="39.48377397523276" lon="8.505779208864286"><ele>383.6666666666667</ele><time>2026-04-18T09:43:10Z</time></trkpt><trkpt lat="39.48366623301858" lon="8.505920259567334"><ele>382.33333333333337</ele><time>2026-04-18T09:43:11Z</time></trkpt><trkpt lat="39.4835309686215" lon="8.506029719606667"><ele>381.0</ele><time>2026-04-18T09:43:12Z</time></trkpt><trkpt lat="39.48335874529246" lon="8.506109256526456"><ele>381.0</ele><time>2026-04-18T09:43:13Z</time></trkpt><trkpt lat="39.4831730116053" lon="8.506176861238554"><ele>381.0</ele><time>2026-04-18T09:43:14Z</time></trkpt><trkpt lat="39.48297869437731" lon="8.506237722678296"><ele>381.0</ele><time>2026-04-18T09:43:15Z</time></trkpt><trkpt lat="39.482794815427646" lon="8.506267706432272"><ele>378.25</ele><time>2026-04-18T09:43:16Z</time></trkpt><trkpt lat="39.482633521203184" lon="8.506284759396705"><ele>375.5</ele><time>2026-04-18T09:43:17Z</time></trkpt><trkpt lat="39.48249515048388" lon="8.506294787077591"><ele>372.75</ele><time>2026-04-18T09:43:18Z</time></trkpt><trkpt lat="39.482393167349" lon="8.50627309434617"><ele>370.0</ele><time>2026-04-18T09:43:19Z</time></trkpt><trkpt lat="39.48232317637083" lon="8.506189078881047"><ele>369.5</ele><time>2026-04-18T09:43:20Z</time></trkpt><trkpt lat="39.48229820971518" lon="8.506065639672483"><ele>369.0</ele><time>2026-04-18T09:43:21Z</time></trkpt><trkpt lat="39.48234708806837" lon="8.505934238305793"><ele>368.5</ele><time>2026-04-18T09:43:22Z</time></trkpt><trkpt lat="39.48243113786535" lon="8.505795604719806"><ele>368.0</ele><time>2026-04-18T09:43:23Z</time></trkpt><trkpt lat="39.48251369276882" lon="8.505614192485737"><ele>368.0</ele><time>2026-04-18T09:43:24Z</time></trkpt><trkpt lat="39.482612451580174" lon="8.505421861122052"><ele>368.0</ele><time>2026-04-18T09:43:25Z</time></trkpt><trkpt lat="39.48272538769525" lon="8.505267905862908"><ele>368.0</ele><time>2026-04-18T09:43:26Z</time></trkpt><trkpt lat="39.4828536979648" lon="8.505164383896066"><ele>371.25</ele><time>2026-04-18T09:43:27Z</time></trkpt><trkpt lat="39.48295595797128" lon="8.50505789215906"><ele>374.5</ele><time>2026-04-18T09:43:28Z</time></trkpt><trkpt lat="39.48303063852769" lon="8.504956820135074"><ele>377.75</ele><time>2026-04-18T09:43:29Z</time></trkpt><trkpt lat="39.483042838950134" lon="8.504822223788333"><ele>381.0</ele><time>2026-04-18T09:43:30Z</time></trkpt><trkpt lat="39.482973539229356" lon="8.504695516760782"><ele>364.3333333333333</ele><time>2026-04-18T09:43:31Z</time></trkpt><trkpt lat="39.48290685515689" lon="8.504522079313517"><ele>347.66666666666663</ele><time>2026-04-18T09:43:32Z</time></trkpt><trkpt lat="39.48283437848915" lon="8.50433473563189"><ele>331.0</ele><time>2026-04-18T09:43:33Z</time></trkpt><trkpt lat="39.48277545744311" lon="8.504124472926293"><ele>331.0</ele><time>2026-04-18T09:43:34Z</time></trkpt><trkpt lat="39.4827367356169" lon="8.503932017600098"><ele>331.0</ele><time>2026-04-18T09:43:35Z</time></trkpt><trkpt lat="39.482719448938674" lon="8.503767056615379"><ele>331.0</ele><time>2026-04-18T09:43:36Z</time></trkpt><trkpt lat="39.48275319525398" lon="8.503626653677365"><ele>331.0</ele><time>2026-04-18T09:43:37Z</time></trkpt><trkpt lat="39.48283745801762" lon="8.503501667352225"><ele>339.0</ele><time>2026-04-18T09:43:38Z</time></trkpt><trkpt lat="39.48293211662126" lon="8.503342983687684"><ele>347.0</ele><time>2026-04-18T09:43:39Z</time></trkpt><trkpt lat="39.483046702622346" lon="8.50319576176133"><ele>355.0</ele><time>2026-04-18T09:43:40Z</time></trkpt><trkpt lat="39.48314565902732" lon="8.503066153731334"><ele>355.0</ele><time>2026-04-18T09:43:41Z</time></trkpt><trkpt lat="39.48324441966863" lon="8.502986632586447"><ele>355.0</ele><time>2026-04-18T09:43:42Z</time></trkpt><trkpt lat="39.48336151331529" lon="8.5029613674132"><ele>355.0</ele><time>2026-04-18T09:43:43Z</time></trkpt><trkpt lat="39.48351355556574" lon="8.502959542303227"><ele>355.0</ele><time>2026-04-18T09:43:44Z</time></trkpt><trkpt lat="39.483681162182414" lon="8.502947716879804"><ele>355.75</ele><time>2026-04-18T09:43:45Z</time></trkpt><trkpt lat="39.48383521386514" lon="8.502934632835933"><ele>356.5</ele><time>2026-04-18T09:43:46Z</time></trkpt><trkpt lat="39.483960567467456" lon="8.502917824169073"><ele>357.25</ele><time>2026-04-18T09:43:47Z</time></trkpt><trkpt lat="39.48405800925029" lon="8.50287326601225"><ele>358.0</ele><time>2026-04-18T09:43:48Z</time></trkpt><trkpt lat="39.48410933565297" lon="8.502783483579412"><ele>358.0</ele><time>2026-04-18T09:43:49Z</time></trkpt><trkpt lat="39.48413822222831" lon="8.502659379043783"><ele>358.0</ele><time>2026-04-18T09:43:50Z</time></trkpt><trkpt lat="39.48405955479628" lon="8.502504730805752"><ele>358.0</ele><time>2026-04-18T09:43:51Z</time></trkpt><trkpt lat="39.483965453548734" lon="8.502352084578982"><ele>358.0</ele><time>2026-04-18T09:43:52Z</time></trkpt><trkpt lat="39.48387157628696" lon="8.502176182295141"><ele>357.25</ele><time>2026-04-18T09:43:53Z</time></trkpt><trkpt lat="39.48376940613163" lon="8.502017403232713"><ele>356.5</ele><time>2026-04-18T09:43:54Z</time></trkpt><trkpt lat="39.48366368586572" lon="8.501901676806854"><ele>355.75</ele><time>2026-04-18T09:43:55Z</time></trkpt><trkpt lat="39.48356984598953" lon="8.501806844960521"><ele>355.0</ele><time>2026-04-18T09:43:56Z</time></trkpt><trkpt lat="39.4835215591251" lon="8.501703681149499"><ele>355.0</ele><time>2026-04-18T09:43:57Z</time></trkpt><trkpt lat="39.483526163137654" lon="8.501591088275402"><ele>355.0</ele><time>2026-04-18T09:43:58Z</time></trkpt><trkpt lat="39.48360550793468" lon="8.501506710660777"><ele>355.0</ele><time>2026-04-18T09:43:59Z</time></trkpt><trkpt lat="39.483700304858935" lon="8.50143410291916"><ele>355.0</ele><time>2026-04-18T09:44:00Z</time></trkpt><trkpt lat="39.48381149606249" lon="8.50131952240285"><ele>355.0</ele><time>2026-04-18T09:44:01Z</time></trkpt><trkpt lat="39.483926335831605" lon="8.501208732438826"><ele>352.0</ele><time>2026-04-18T09:44:02Z</time></trkpt><trkpt lat="39.48399669052522" lon="8.501085619930318"><ele>349.0</ele><time>2026-04-18T09:44:03Z</time></trkpt><trkpt lat="39.48403579364917" lon="8.500950300054736"><ele>346.0</ele><time>2026-04-18T09:44:04Z</time></trkpt><trkpt lat="39.48399326699804" lon="8.500813896102779"><ele>343.0</ele><time>2026-04-18T09:44:05Z</time></trkpt><trkpt lat="39.48387599379363" lon="8.500719538143045"><ele>343.0</ele><time>2026-04-18T09:44:06Z</time></trkpt><trkpt lat="39.48378428359631" lon="8.500596977581186"><ele>343.0</ele><time>2026-04-18T09:44:07Z</time></trkpt><trkpt lat="39.483731387336476" lon="8.500447022658397"><ele>343.0</ele><time>2026-04-18T09:44:08Z</time></trkpt><trkpt lat="39.48371927246309" lon="8.500288562689187"><ele>343.0</ele><time>2026-04-18T09:44:09Z</time></trkpt><trkpt lat="39.48375428502091" lon="8.500144693724353"><ele>342.25</ele><time>2026-04-18T09:44:10Z</time></trkpt><trkpt lat="39.483834212792445" lon="8.500013216456695"><ele>341.5</ele><time>2026-04-18T09:44:11Z</time></trkpt><trkpt lat="39.483879105422936" lon="8.499841016863474"><ele>340.75</ele><time>2026-04-18T09:44:12Z</time></trkpt><trkpt lat="39.48389414424529" lon="8.499648714863447"><ele>340.0</ele><time>2026-04-18T09:44:13Z</time></trkpt><trkpt lat="39.48388221276973" lon="8.499442009729165"><ele>339.25</ele><time>2026-04-18T09:44:14Z</time></trkpt><trkpt lat="39.48388575741654" lon="8.49925378040393"><ele>338.5</ele><time>2026-04-18T09:44:15Z</time></trkpt><trkpt lat="39.48388522121543" lon="8.499094298869839"><ele>337.75</ele><time>2026-04-18T09:44:16Z</time></trkpt><trkpt lat="39.48383864321151" lon="8.498968912724326"><ele>337.0</ele><time>2026-04-18T09:44:17Z</time></trkpt><trkpt lat="39.483770270151595" lon="8.498864643701133"><ele>332.0</ele><time>2026-04-18T09:44:18Z</time></trkpt><trkpt lat="39.48364123600482" lon="8.49884579028536"><ele>327.0</ele><time>2026-04-18T09:44:19Z</time></trkpt><trkpt lat="39.483493709697655" lon="8.498857493005717"><ele>322.0</ele><time>2026-04-18T09:44:20Z</time></trkpt><trkpt lat="39.48333839961044" lon="8.49890274800598"><ele>317.0</ele><time>2026-04-18T09:44:21Z</time></trkpt><trkpt lat="39.483200146418945" lon="8.498968980898594"><ele>317.0</ele><time>2026-04-18T09:44:22Z</time></trkpt><trkpt lat="39.48306217741397" lon="8.499007898587044"><ele>317.0</ele><time>2026-04-18T09:44:23Z</time></trkpt><trkpt lat="39.482920002140546" lon="8.499003564707596"><ele>317.0</ele><time>2026-04-18T09:44:24Z</time></trkpt><trkpt lat="39.4827702513514" lon="8.498948722699884"><ele>317.0</ele><time>2026-04-18T09:44:25Z</time></trkpt><trkpt lat="39.48261559372014" lon="8.498851466383284"><ele>322.6666666666667</ele><time>2026-04-18T09:44:26Z</time></trkpt><trkpt lat="39.48246269066362" lon="8.498764006796659"><ele>328.3333333333333</ele><time>2026-04-18T09:44:27Z</time></trkpt><trkpt lat="39.482303835033626" lon="8.498677244022865"><ele>334.0</ele><time>2026-04-18T09:44:28Z</time></trkpt><trkpt lat="39.48216021326544" lon="8.49859851484447"><ele>325.0</ele><time>2026-04-18T09:44:29Z</time></trkpt><trkpt lat="39.482030502607415" lon="8.49850492184643"><ele>316.0</ele><time>2026-04-18T09:44:30Z</time></trkpt><trkpt lat="39.4819285460122" lon="8.498375606604284"><ele>307.0</ele><time>2026-04-18T09:44:31Z</time></trkpt><trkpt lat="39.48186107429784" lon="8.498204687953606"><ele>298.0</ele><time>2026-04-18T09:44:32Z</time></trkpt><trkpt lat="39.481812062389665" lon="8.498015037599828"><ele>305.66666666666663</ele><time>2026-04-18T09:44:33Z</time></trkpt><trkpt lat="39.48173926767729" lon="8.497838102023952"><ele>313.3333333333333</ele><time>2026-04-18T09:44:34Z</time></trkpt><trkpt lat="39.481635750554275" lon="8.497691051424608"><ele>321.0</ele><time>2026-04-18T09:44:35Z</time></trkpt><trkpt lat="39.481510565370975" lon="8.49759467596755"><ele>321.0</ele><time>2026-04-18T09:44:36Z</time></trkpt><trkpt lat="39.481363728458284" lon="8.497550199179404"><ele>321.0</ele><time>2026-04-18T09:44:37Z</time></trkpt><trkpt lat="39.48119999521439" lon="8.497563758031246"><ele>321.0</ele><time>2026-04-18T09:44:38Z</time></trkpt><trkpt lat="39.4810254535007" lon="8.49760047896258"><ele>317.0</ele><time>2026-04-18T09:44:39Z</time></trkpt><trkpt lat="39.48083782031196" lon="8.497620101775503"><ele>313.0</ele><time>2026-04-18T09:44:40Z</time></trkpt><trkpt lat="39.48064917744446" lon="8.497632377045594"><ele>309.0</ele><time>2026-04-18T09:44:41Z</time></trkpt><trkpt lat="39.48046382399224" lon="8.497646013090014"><ele>305.3333333333333</ele><time>2026-04-18T09:44:42Z</time></trkpt><trkpt lat="39.480288956860534" lon="8.497637424614906"><ele>301.66666666666663</ele><time>2026-04-18T09:44:43Z</time></trkpt><trkpt lat="39.480127818450796" lon="8.497644842264508"><ele>298.0</ele><time>2026-04-18T09:44:44Z</time></trkpt><trkpt lat="39.479991106956625" lon="8.497562749988347"><ele>298.0</ele><time>2026-04-18T09:44:45Z</time></trkpt><trkpt lat="39.479897869859634" lon="8.497437847370879"><ele>298.0</ele><time>2026-04-18T09:44:46Z</time></trkpt><trkpt lat="39.47984023280865" lon="8.497277233033982"><ele>298.0</ele><time>2026-04-18T09:44:47Z</time></trkpt><trkpt lat="39.479820666214025" lon="8.497097394917425"><ele>298.0</ele><time>2026-04-18T09:44:48Z</time></trkpt><trkpt lat="39.479845757994" lon="8.496919625292723"><ele>298.25</ele><time>2026-04-18T09:44:49Z</time></trkpt><trkpt lat="39.47991340584158" lon="8.496739626080412"><ele>298.5</ele><time>2026-04-18T09:44:50Z</time></trkpt><trkpt lat="39.47997712701525" lon="8.496561418130199"><ele>298.75</ele><time>2026-04-18T09:44:51Z</time></trkpt><trkpt lat="39.480016409159276" lon="8.496384142849466"><ele>299.0</ele><time>2026-04-18T09:44:52Z</time></trkpt><trkpt lat="39.48001103144867" lon="8.496214858064551"><ele>302.75</ele><time>2026-04-18T09:44:53Z</time></trkpt><trkpt lat="39.47995857424577" lon="8.496063309455312"><ele>306.5</ele><time>2026-04-18T09:44:54Z</time></trkpt><trkpt lat="39.47987402994984" lon="8.495943143262409"><ele>310.25</ele><time>2026-04-18T09:44:55Z</time></trkpt><trkpt lat="39.479763861069905" lon="8.495852920035132"><ele>314.0</ele><time>2026-04-18T09:44:56Z</time></trkpt><trkpt lat="39.47965953419433" lon="8.495806759521352"><ele>312.5</ele><time>2026-04-18T09:44:57Z</time></trkpt><trkpt lat="39.47954862724648" lon="8.495839795941894"><ele>311.0</ele><time>2026-04-18T09:44:58Z</time></trkpt><trkpt lat="39.47942424187604" lon="8.495932832819683"><ele>309.5</ele><time>2026-04-18T09:44:59Z</time></trkpt><trkpt lat="39.47928246282696" lon="8.49603380928529"><ele>308.0</ele><time>2026-04-18T09:45:00Z</time></trkpt><trkpt lat="39.47912399635126" lon="8.496155076037946"><ele>301.6666666666667</ele><time>2026-04-18T09:45:01Z</time></trkpt><trkpt lat="39.47897583176085" lon="8.496313426626566"><ele>295.3333333333333</ele><time>2026-04-18T09:45:02Z</time></trkpt><trkpt lat="39.47881763663574" lon="8.49646752917759"><ele>289.0</ele><time>2026-04-18T09:45:03Z</time></trkpt><trkpt lat="39.47865679980766" lon="8.496620869020377"><ele>289.0</ele><time>2026-04-18T09:45:04Z</time></trkpt><trkpt lat="39.47849829842635" lon="8.496765728534156"><ele>289.0</ele><time>2026-04-18T09:45:05Z</time></trkpt><trkpt lat="39.478344061153436" lon="8.49690611303403"><ele>289.0</ele><time>2026-04-18T09:45:06Z</time></trkpt><trkpt lat="39.47819982924791" lon="8.497051189521791"><ele>282.66666666666663</ele><time>2026-04-18T09:45:07Z</time></trkpt><trkpt lat="39.47807442830287" lon="8.497206465300403"><ele>276.3333333333333</ele><time>2026-04-18T09:45:08Z</time></trkpt><trkpt lat="39.477919047348124" lon="8.497288231204228"><ele>270.0</ele><time>2026-04-18T09:45:09Z</time></trkpt><trkpt lat="39.477775778769995" lon="8.497358308519093"><ele>270.0</ele><time>2026-04-18T09:45:10Z</time></trkpt><trkpt lat="39.47764807873757" lon="8.497415790232589"><ele>270.0</ele><time>2026-04-18T09:45:11Z</time></trkpt><trkpt lat="39.47750575495" lon="8.497404804198291"><ele>270.0</ele><time>2026-04-18T09:45:12Z</time></trkpt><trkpt lat="39.47737040425669" lon="8.497358105701542"><ele>270.0</ele><time>2026-04-18T09:45:13Z</time></trkpt><trkpt lat="39.47726756066201" lon="8.49728663239121"><ele>270.0</ele><time>2026-04-18T09:45:14Z</time></trkpt><trkpt lat="39.477201582333365" lon="8.497171560374493"><ele>270.0</ele><time>2026-04-18T09:45:15Z</time></trkpt><trkpt lat="39.477169181414666" lon="8.497009200005786"><ele>270.0</ele><time>2026-04-18T09:45:16Z</time></trkpt><trkpt lat="39.4771805956275" lon="8.496826367603221"><ele>270.0</ele><time>2026-04-18T09:45:17Z</time></trkpt><trkpt lat="39.47723499036917" lon="8.496631113065092"><ele>271.0</ele><time>2026-04-18T09:45:18Z</time></trkpt><trkpt lat="39.47729516675311" lon="8.496462961090849"><ele>272.0</ele><time>2026-04-18T09:45:19Z</time></trkpt><trkpt lat="39.47732466884484" lon="8.496317921843676"><ele>273.0</ele><time>2026-04-18T09:45:20Z</time></trkpt><trkpt lat="39.47729812180673" lon="8.49618200493859"><ele>274.0</ele><time>2026-04-18T09:45:21Z</time></trkpt><trkpt lat="39.47722789438857" lon="8.496057845046684"><ele>274.0</ele><time>2026-04-18T09:45:22Z</time></trkpt><trkpt lat="39.47717733417568" lon="8.49592807209785"><ele>274.0</ele><time>2026-04-18T09:45:23Z</time></trkpt><trkpt lat="39.47719130111166" lon="8.49578968468538"><ele>274.0</ele><time>2026-04-18T09:45:24Z</time></trkpt><trkpt lat="39.47726026648365" lon="8.495678345068374"><ele>274.0</ele><time>2026-04-18T09:45:25Z</time></trkpt><trkpt lat="39.477362609152095" lon="8.49561770962004"><ele>274.0</ele><time>2026-04-18T09:45:26Z</time></trkpt><trkpt lat="39.47746815760152" lon="8.495569627643446"><ele>274.0</ele><time>2026-04-18T09:45:27Z</time></trkpt><trkpt lat="39.477518682807826" lon="8.49545151438049"><ele>274.0</ele><time>2026-04-18T09:45:28Z</time></trkpt><trkpt lat="39.47751758754916" lon="8.4952941761915"><ele>274.0</ele><time>2026-04-18T09:45:29Z</time></trkpt><trkpt lat="39.47747517165007" lon="8.495123186009279"><ele>274.0</ele><time>2026-04-18T09:45:30Z</time></trkpt><trkpt lat="39.477380806030034" lon="8.494996487351656"><ele>274.0</ele><time>2026-04-18T09:45:31Z</time></trkpt><trkpt lat="39.47726288169026" lon="8.494924360401527"><ele>274.0</ele><time>2026-04-18T09:45:32Z</time></trkpt><trkpt lat="39.47713590796528" lon="8.494853142949303"><ele>274.0</ele><time>2026-04-18T09:45:33Z</time></trkpt><trkpt lat="39.47704352749854" lon="8.494719689414413"><ele>274.0</ele><time>2026-04-18T09:45:34Z</time></trkpt><trkpt lat="39.47699028626703" lon="8.494544686197889"><ele>267.25</ele><time>2026-04-18T09:45:35Z</time></trkpt><trkpt lat="39.47699360087176" lon="8.494363477030706"><ele>260.5</ele><time>2026-04-18T09:45:36Z</time></trkpt><trkpt lat="39.477031362830566" lon="8.494175781009528"><ele>253.75</ele><time>2026-04-18T09:45:37Z</time></trkpt><trkpt lat="39.47706005296545" lon="8.49398791355069"><ele>247.0</ele><time>2026-04-18T09:45:38Z</time></trkpt><trkpt lat="39.47705467894983" lon="8.493820617845214"><ele>253.25</ele><time>2026-04-18T09:45:39Z</time></trkpt><trkpt lat="39.47703229166653" lon="8.49368676798149"><ele>259.5</ele><time>2026-04-18T09:45:40Z</time></trkpt><trkpt lat="39.47699028181351" lon="8.493567549383885"><ele>265.75</ele><time>2026-04-18T09:45:41Z</time></trkpt><trkpt lat="39.47687399692219" lon="8.493521405402435"><ele>272.0</ele><time>2026-04-18T09:45:42Z</time></trkpt><trkpt lat="39.47675084416377" lon="8.493586645218274"><ele>272.0</ele><time>2026-04-18T09:45:43Z</time></trkpt><trkpt lat="39.47662734323843" lon="8.493664854910248"><ele>272.0</ele><time>2026-04-18T09:45:44Z</time></trkpt><trkpt lat="39.476506875384835" lon="8.49372608126091"><ele>272.0</ele><time>2026-04-18T09:45:45Z</time></trkpt><trkpt lat="39.47638540248692" lon="8.493728599274593"><ele>272.0</ele><time>2026-04-18T09:45:46Z</time></trkpt><trkpt lat="39.476287098431946" lon="8.493663831712881"><ele>271.5</ele><time>2026-04-18T09:45:47Z</time></trkpt><trkpt lat="39.476183581299985" lon="8.49357887091215"><ele>271.0</ele><time>2026-04-18T09:45:48Z</time></trkpt><trkpt lat="39.47606013199096" lon="8.4935548895031"><ele>270.5</ele><time>2026-04-18T09:45:49Z</time></trkpt><trkpt lat="39.475944599176" lon="8.493593950575217"><ele>270.0</ele><time>2026-04-18T09:45:50Z</time></trkpt><trkpt lat="39.47585290270918" lon="8.493698219631213"><ele>263.25</ele><time>2026-04-18T09:45:51Z</time></trkpt><trkpt lat="39.47578293241583" lon="8.493855336095143"><ele>256.5</ele><time>2026-04-18T09:45:52Z</time></trkpt><trkpt lat="39.47572216012042" lon="8.494046159954541"><ele>249.75</ele><time>2026-04-18T09:45:53Z</time></trkpt><trkpt lat="39.475651642577176" lon="8.494209530771487"><ele>243.0</ele><time>2026-04-18T09:45:54Z</time></trkpt><trkpt lat="39.475549077224414" lon="8.494315030910592"><ele>243.0</ele><time>2026-04-18T09:45:55Z</time></trkpt><trkpt lat="39.47545412506014" lon="8.49439624792876"><ele>243.0</ele><time>2026-04-18T09:45:56Z</time></trkpt><trkpt lat="39.47533161970591" lon="8.494403317880899"><ele>243.0</ele><time>2026-04-18T09:45:57Z</time></trkpt><trkpt lat="39.47519493738989" lon="8.494356400476356"><ele>243.0</ele><time>2026-04-18T09:45:58Z</time></trkpt><trkpt lat="39.47505373227023" lon="8.494294762272341"><ele>244.0</ele><time>2026-04-18T09:45:59Z</time></trkpt><trkpt lat="39.474893788575" lon="8.494246385737652"><ele>245.0</ele><time>2026-04-18T09:46:00Z</time></trkpt><trkpt lat="39.47472968680881" lon="8.494177884465849"><ele>246.0</ele><time>2026-04-18T09:46:01Z</time></trkpt><trkpt lat="39.47455474106831" lon="8.494118354138115"><ele>240.33333333333331</ele><time>2026-04-18T09:46:02Z</time></trkpt><trkpt lat="39.47438301277522" lon="8.494059641069944"><ele>234.66666666666666</ele><time>2026-04-18T09:46:03Z</time></trkpt><trkpt lat="39.474213118794516" lon="8.493999230511324"><ele>229.0</ele><time>2026-04-18T09:46:04Z</time></trkpt><trkpt lat="39.474066871697495" lon="8.493869992288255"><ele>228.0</ele><time>2026-04-18T09:46:05Z</time></trkpt><trkpt lat="39.47392874434417" lon="8.493746551756532"><ele>227.0</ele><time>2026-04-18T09:46:06Z</time></trkpt><trkpt lat="39.473793123747726" lon="8.493686625990184"><ele>226.0</ele><time>2026-04-18T09:46:07Z</time></trkpt><trkpt lat="39.473649086157735" lon="8.493688562375546"><ele>226.0</ele><time>2026-04-18T09:46:08Z</time></trkpt><trkpt lat="39.47350085986953" lon="8.493661438030443"><ele>226.0</ele><time>2026-04-18T09:46:09Z</time></trkpt><trkpt lat="39.4733669877724" lon="8.493576934274602"><ele>226.0</ele><time>2026-04-18T09:46:10Z</time></trkpt><trkpt lat="39.473267550426286" lon="8.493458457888897"><ele>226.0</ele><time>2026-04-18T09:46:11Z</time></trkpt><trkpt lat="39.47321722971263" lon="8.493315399038375"><ele>226.0</ele><time>2026-04-18T09:46:12Z</time></trkpt><trkpt lat="39.4732226673658" lon="8.493141573170517"><ele>226.0</ele><time>2026-04-18T09:46:13Z</time></trkpt><trkpt lat="39.47324705679982" lon="8.492947417285006"><ele>226.0</ele><time>2026-04-18T09:46:14Z</time></trkpt><trkpt lat="39.473247771645994" lon="8.492778168213748"><ele>226.0</ele><time>2026-04-18T09:46:15Z</time></trkpt><trkpt lat="39.47319892817364" lon="8.49262533282762"><ele>229.5</ele><time>2026-04-18T09:46:16Z</time></trkpt><trkpt lat="39.47310913712576" lon="8.492503380370355"><ele>233.0</ele><time>2026-04-18T09:46:17Z</time></trkpt><trkpt lat="39.472988807018226" lon="8.492401577254581"><ele>236.5</ele><time>2026-04-18T09:46:18Z</time></trkpt><trkpt lat="39.472888589166494" lon="8.492278390726018"><ele>240.0</ele><time>2026-04-18T09:46:19Z</time></trkpt><trkpt lat="39.47283100999712" lon="8.492099069088491"><ele>231.66666666666669</ele><time>2026-04-18T09:46:20Z</time></trkpt><trkpt lat="39.472786652903935" lon="8.491903347362607"><ele>223.33333333333334</ele><time>2026-04-18T09:46:21Z</time></trkpt><trkpt lat="39.472796319369074" lon="8.491696068847657"><ele>215.0</ele><time>2026-04-18T09:46:22Z</time></trkpt><trkpt lat="39.472795439605186" lon="8.491511066688318"><ele>215.0</ele><time>2026-04-18T09:46:23Z</time></trkpt><trkpt lat="39.47278640842028" lon="8.491355008788222"><ele>215.0</ele><time>2026-04-18T09:46:24Z</time></trkpt><trkpt lat="39.47273035105567" lon="8.491229559956643"><ele>215.0</ele><time>2026-04-18T09:46:25Z</time></trkpt><trkpt lat="39.47262937840058" lon="8.491163383096373"><ele>215.0</ele><time>2026-04-18T09:46:26Z</time></trkpt><trkpt lat="39.47248711683655" lon="8.491151087484711"><ele>218.33333333333334</ele><time>2026-04-18T09:46:27Z</time></trkpt><trkpt lat="39.472330615410726" lon="8.491145127414935"><ele>221.66666666666669</ele><time>2026-04-18T09:46:28Z</time></trkpt><trkpt lat="39.47216650217971" lon="8.491117990764314"><ele>225.0</ele><time>2026-04-18T09:46:29Z</time></trkpt><trkpt lat="39.47198961544075" lon="8.491086011405878"><ele>225.0</ele><time>2026-04-18T09:46:30Z</time></trkpt><trkpt lat="39.47180019793389" lon="8.491051314202164"><ele>225.0</ele><time>2026-04-18T09:46:31Z</time></trkpt><trkpt lat="39.47160237756735" lon="8.491007796685537"><ele>225.0</ele><time>2026-04-18T09:46:32Z</time></trkpt><trkpt lat="39.47140158044415" lon="8.490996400641023"><ele>224.33333333333331</ele><time>2026-04-18T09:46:33Z</time></trkpt><trkpt lat="39.47120903962576" lon="8.491019806812414"><ele>223.66666666666666</ele><time>2026-04-18T09:46:34Z</time></trkpt><trkpt lat="39.47103314094412" lon="8.491074375087141"><ele>223.0</ele><time>2026-04-18T09:46:35Z</time></trkpt><trkpt lat="39.47085948569942" lon="8.491089198263834"><ele>223.0</ele><time>2026-04-18T09:46:36Z</time></trkpt><trkpt lat="39.47069004626873" lon="8.491070013747438"><ele>223.0</ele><time>2026-04-18T09:46:37Z</time></trkpt><trkpt lat="39.47051118195385" lon="8.49100515053987"><ele>223.0</ele><time>2026-04-18T09:46:38Z</time></trkpt><trkpt lat="39.470331161113315" lon="8.490934029185334"><ele>217.33333333333331</ele><time>2026-04-18T09:46:39Z</time></trkpt><trkpt lat="39.47017073539945" lon="8.490846663373771"><ele>211.66666666666669</ele><time>2026-04-18T09:46:40Z</time></trkpt><trkpt lat="39.47003555984754" lon="8.490708967939904"><ele>206.0</ele><time>2026-04-18T09:46:41Z</time></trkpt><trkpt lat="39.46993963564603" lon="8.490529289138392"><ele>201.0</ele><time>2026-04-18T09:46:42Z</time></trkpt><trkpt lat="39.46985599389871" lon="8.49031979408699"><ele>196.0</ele><time>2026-04-18T09:46:43Z</time></trkpt><trkpt lat="39.46973405634918" lon="8.490130108882473"><ele>191.0</ele><time>2026-04-18T09:46:44Z</time></trkpt><trkpt lat="39.46956646361496" lon="8.489976797667968"><ele>191.0</ele><time>2026-04-18T09:46:45Z</time></trkpt><trkpt lat="39.469378630971676" lon="8.489851859612806"><ele>191.0</ele><time>2026-04-18T09:46:46Z</time></trkpt><trkpt lat="39.46919811857478" lon="8.489722701645443"><ele>191.0</ele><time>2026-04-18T09:46:47Z</time></trkpt><trkpt lat="39.469024144858" lon="8.489597104670978"><ele>190.0</ele><time>2026-04-18T09:46:48Z</time></trkpt><trkpt lat="39.46887035634694" lon="8.489463704689868"><ele>189.0</ele><time>2026-04-18T09:46:49Z</time></trkpt><trkpt lat="39.468726840709124" lon="8.489358558128576"><ele>188.0</ele><time>2026-04-18T09:46:50Z</time></trkpt><trkpt lat="39.46859789167181" lon="8.489276729718316"><ele>188.0</ele><time>2026-04-18T09:46:51Z</time></trkpt><trkpt lat="39.468500375815466" lon="8.4891441346487"><ele>188.0</ele><time>2026-04-18T09:46:52Z</time></trkpt><trkpt lat="39.46846244747314" lon="8.48899146145501"><ele>188.0</ele><time>2026-04-18T09:46:53Z</time></trkpt><trkpt lat="39.468474297201574" lon="8.488810859088266"><ele>188.0</ele><time>2026-04-18T09:46:54Z</time></trkpt><trkpt lat="39.46851710054308" lon="8.488607912577077"><ele>188.5</ele><time>2026-04-18T09:46:55Z</time></trkpt><trkpt lat="39.46855542755809" lon="8.488401815800842"><ele>189.0</ele><time>2026-04-18T09:46:56Z</time></trkpt><trkpt lat="39.46856734577288" lon="8.48822013225457"><ele>189.5</ele><time>2026-04-18T09:46:57Z</time></trkpt><trkpt lat="39.468545777207275" lon="8.488053566693981"><ele>190.0</ele><time>2026-04-18T09:46:58Z</time></trkpt><trkpt lat="39.468472722897424" lon="8.487930106742864"><ele>186.5</ele><time>2026-04-18T09:46:59Z</time></trkpt><trkpt lat="39.46837609481942" lon="8.48787266858614"><ele>183.0</ele><time>2026-04-18T09:47:00Z</time></trkpt><trkpt lat="39.46824273837509" lon="8.487870755003893"><ele>179.5</ele><time>2026-04-18T09:47:01Z</time></trkpt><trkpt lat="39.46809730107142" lon="8.487911736480921"><ele>176.0</ele><time>2026-04-18T09:47:02Z</time></trkpt><trkpt lat="39.467935345681866" lon="8.487969604361203"><ele>176.0</ele><time>2026-04-18T09:47:03Z</time></trkpt><trkpt lat="39.46775605464251" lon="8.488012278980129"><ele>176.0</ele><time>2026-04-18T09:47:04Z</time></trkpt><trkpt lat="39.467578101840886" lon="8.488064508853403"><ele>176.0</ele><time>2026-04-18T09:47:05Z</time></trkpt><trkpt lat="39.467424953114445" lon="8.488131902333663"><ele>176.0</ele><time>2026-04-18T09:47:06Z</time></trkpt><trkpt lat="39.46730648265245" lon="8.488224885364893"><ele>176.0</ele><time>2026-04-18T09:47:07Z</time></trkpt><trkpt lat="39.467197671253366" lon="8.488299928260972"><ele>176.0</ele><time>2026-04-18T09:47:08Z</time></trkpt><trkpt lat="39.4670759910183" lon="8.488324491997137"><ele>176.0</ele><time>2026-04-18T09:47:09Z</time></trkpt><trkpt lat="39.4669582751795" lon="8.48826005959451"><ele>173.75</ele><time>2026-04-18T09:47:10Z</time></trkpt><trkpt lat="39.46684256959915" lon="8.48816243235349"><ele>171.5</ele><time>2026-04-18T09:47:11Z</time></trkpt><trkpt lat="39.46673872279862" lon="8.488078682307759"><ele>169.25</ele><time>2026-04-18T09:47:12Z</time></trkpt><trkpt lat="39.4666937131139" lon="8.4879596263438"><ele>167.0</ele><time>2026-04-18T09:47:13Z</time></trkpt><trkpt lat="39.46670599718214" lon="8.487819185494471"><ele>167.0</ele><time>2026-04-18T09:47:14Z</time></trkpt><trkpt lat="39.46676453151253" lon="8.487670273304632"><ele>167.0</ele><time>2026-04-18T09:47:15Z</time></trkpt><trkpt lat="39.46681057940552" lon="8.487517567120621"><ele>167.0</ele><time>2026-04-18T09:47:16Z</time></trkpt><trkpt lat="39.46681117947539" lon="8.48735924546355"><ele>167.0</ele><time>2026-04-18T09:47:17Z</time></trkpt><trkpt lat="39.466723061513896" lon="8.48721248402824"><ele>166.25</ele><time>2026-04-18T09:47:18Z</time></trkpt><trkpt lat="39.466658019094965" lon="8.487062060197575"><ele>165.5</ele><time>2026-04-18T09:47:19Z</time></trkpt><trkpt lat="39.466675160729345" lon="8.486905964173019"><ele>164.75</ele><time>2026-04-18T09:47:20Z</time></trkpt><trkpt lat="39.46671256585468" lon="8.486751327294611"><ele>164.0</ele><time>2026-04-18T09:47:21Z</time></trkpt><trkpt lat="39.466788292367724" lon="8.486592776101034"><ele>164.0</ele><time>2026-04-18T09:47:22Z</time></trkpt><trkpt lat="39.46681494934423" lon="8.486429601121218"><ele>164.0</ele><time>2026-04-18T09:47:23Z</time></trkpt><trkpt lat="39.46677796901347" lon="8.486280185227255"><ele>164.0</ele><time>2026-04-18T09:47:24Z</time></trkpt><trkpt lat="39.46669145492396" lon="8.486178505241583"><ele>164.0</ele><time>2026-04-18T09:47:25Z</time></trkpt><trkpt lat="39.46657406567769" lon="8.486144574269614"><ele>165.75</ele><time>2026-04-18T09:47:26Z</time></trkpt><trkpt lat="39.4664536021914" lon="8.486146499605516"><ele>167.5</ele><time>2026-04-18T09:47:27Z</time></trkpt><trkpt lat="39.46636776780179" lon="8.486079768962215"><ele>169.25</ele><time>2026-04-18T09:47:28Z</time></trkpt><trkpt lat="39.466329449174175" lon="8.485957246616165"><ele>171.0</ele><time>2026-04-18T09:47:29Z</time></trkpt><trkpt lat="39.466346179606745" lon="8.485786099562581"><ele>171.0</ele><time>2026-04-18T09:47:30Z</time></trkpt><trkpt lat="39.466320661855235" lon="8.485621519973375"><ele>171.0</ele><time>2026-04-18T09:47:31Z</time></trkpt><trkpt lat="39.46625094982073" lon="8.48549980856684"><ele>171.0</ele><time>2026-04-18T09:47:32Z</time></trkpt><trkpt lat="39.466140646122014" lon="8.485408174339018"><ele>171.0</ele><time>2026-04-18T09:47:33Z</time></trkpt><trkpt lat="39.4660331736334" lon="8.485293248696973"><ele>165.33333333333334</ele><time>2026-04-18T09:47:34Z</time></trkpt><trkpt lat="39.46594972785199" lon="8.485120396483573"><ele>159.66666666666669</ele><time>2026-04-18T09:47:35Z</time></trkpt><trkpt lat="39.46588575347187" lon="8.484907990910225"><ele>154.0</ele><time>2026-04-18T09:47:36Z</time></trkpt><trkpt lat="39.465823323038116" lon="8.484703780208086"><ele>151.0</ele><time>2026-04-18T09:47:37Z</time></trkpt><trkpt lat="39.465709146451786" lon="8.484557954512669"><ele>148.0</ele><time>2026-04-18T09:47:38Z</time></trkpt><trkpt lat="39.465544161576815" lon="8.484459221668999"><ele>145.0</ele><time>2026-04-18T09:47:39Z</time></trkpt><trkpt lat="39.46536401173243" lon="8.484384362306635"><ele>145.0</ele><time>2026-04-18T09:47:40Z</time></trkpt><trkpt lat="39.46519198327328" lon="8.484309100431108"><ele>145.0</ele><time>2026-04-18T09:47:41Z</time></trkpt><trkpt lat="39.465050728378785" lon="8.48422564911919"><ele>145.0</ele><time>2026-04-18T09:47:42Z</time></trkpt><trkpt lat="39.4649456960047" lon="8.484149516478539"><ele>145.0</ele><time>2026-04-18T09:47:43Z</time></trkpt><trkpt lat="39.46487990414739" lon="8.484022497968747"><ele>145.0</ele><time>2026-04-18T09:47:44Z</time></trkpt><trkpt lat="39.4648463926783" lon="8.483895435968027"><ele>145.0</ele><time>2026-04-18T09:47:45Z</time></trkpt><trkpt lat="39.46486396914121" lon="8.483746790685057"><ele>145.0</ele><time>2026-04-18T09:47:46Z</time></trkpt><trkpt lat="39.464951251279984" lon="8.483577466349272"><ele>143.25</ele><time>2026-04-18T09:47:47Z</time></trkpt><trkpt lat="39.46504913272833" lon="8.483419903870004"><ele>141.5</ele><time>2026-04-18T09:47:48Z</time></trkpt><trkpt lat="39.465171320083115" lon="8.483308254790725"><ele>139.75</ele><time>2026-04-18T09:47:49Z</time></trkpt><trkpt lat="39.46527805711152" lon="8.483224875566155"><ele>138.0</ele><time>2026-04-18T09:47:50Z</time></trkpt><trkpt lat="39.46534606648607" lon="8.483088654935381"><ele>138.0</ele><time>2026-04-18T09:47:51Z</time></trkpt><trkpt lat="39.46534370091291" lon="8.482939485251647"><ele>138.0</ele><time>2026-04-18T09:47:52Z</time></trkpt><trkpt lat="39.465289225644995" lon="8.482809281490736"><ele>138.0</ele><time>2026-04-18T09:47:53Z</time></trkpt><trkpt lat="39.46520664936755" lon="8.482680438559356"><ele>138.0</ele><time>2026-04-18T09:47:54Z</time></trkpt><trkpt lat="39.46518355143322" lon="8.482532613943786"><ele>139.5</ele><time>2026-04-18T09:47:55Z</time></trkpt><trkpt lat="39.46521469330619" lon="8.482381880674417"><ele>141.0</ele><time>2026-04-18T09:47:56Z</time></trkpt><trkpt lat="39.46530492817244" lon="8.482235421700176"><ele>142.5</ele><time>2026-04-18T09:47:57Z</time></trkpt><trkpt lat="39.465426612467574" lon="8.482126854032696"><ele>144.0</ele><time>2026-04-18T09:47:58Z</time></trkpt><trkpt lat="39.465563672887484" lon="8.482043881621326"><ele>144.0</ele><time>2026-04-18T09:47:59Z</time></trkpt><trkpt lat="39.46567618771005" lon="8.481955312469461"><ele>144.0</ele><time>2026-04-18T09:48:00Z</time></trkpt><trkpt lat="39.465751697711305" lon="8.481839111341639"><ele>144.0</ele><time>2026-04-18T09:48:01Z</time></trkpt><trkpt lat="39.46578384420264" lon="8.481710419935743"><ele>144.0</ele><time>2026-04-18T09:48:02Z</time></trkpt><trkpt lat="39.46575746533846" lon="8.481592007488041"><ele>144.0</ele><time>2026-04-18T09:48:03Z</time></trkpt><trkpt lat="39.465682821059715" lon="8.481512842612702"><ele>144.0</ele><time>2026-04-18T09:48:04Z</time></trkpt><trkpt lat="39.46556459650104" lon="8.481438617412989"><ele>144.0</ele><time>2026-04-18T09:48:05Z</time></trkpt><trkpt lat="39.465419424378254" lon="8.481391216201935"><ele>144.0</ele><time>2026-04-18T09:48:06Z</time></trkpt><trkpt lat="39.465247892254915" lon="8.48138149316262"><ele>136.66666666666666</ele><time>2026-04-18T09:48:07Z</time></trkpt><trkpt lat="39.4650748686312" lon="8.481398151732455"><ele>129.33333333333331</ele><time>2026-04-18T09:48:08Z</time></trkpt><trkpt lat="39.4649044523033" lon="8.481450528190948"><ele>122.0</ele><time>2026-04-18T09:48:09Z</time></trkpt><trkpt lat="39.46474282077123" lon="8.481466403794645"><ele>117.0</ele><time>2026-04-18T09:48:10Z</time></trkpt><trkpt lat="39.464609645106066" lon="8.481495480003398"><ele>112.0</ele><time>2026-04-18T09:48:11Z</time></trkpt><trkpt lat="39.46450296858788" lon="8.481506337424232"><ele>107.0</ele><time>2026-04-18T09:48:12Z</time></trkpt><trkpt lat="39.46441511837094" lon="8.481442604896271"><ele>102.0</ele><time>2026-04-18T09:48:13Z</time></trkpt><trkpt lat="39.464366166966315" lon="8.481314844562993"><ele>104.0</ele><time>2026-04-18T09:48:14Z</time></trkpt><trkpt lat="39.464358781699964" lon="8.481156023086394"><ele>106.0</ele><time>2026-04-18T09:48:15Z</time></trkpt><trkpt lat="39.46439918794979" lon="8.48098760628981"><ele>108.0</ele><time>2026-04-18T09:48:16Z</time></trkpt><trkpt lat="39.46441703355962" lon="8.480826685285141"><ele>110.0</ele><time>2026-04-18T09:48:17Z</time></trkpt><trkpt lat="39.46439052620065" lon="8.480702279403527"><ele>110.0</ele><time>2026-04-18T09:48:18Z</time></trkpt><trkpt lat="39.46431292777025" lon="8.480621592296217"><ele>110.0</ele><time>2026-04-18T09:48:19Z</time></trkpt><trkpt lat="39.464190365064745" lon="8.480594707414618"><ele>110.0</ele><time>2026-04-18T09:48:20Z</time></trkpt><trkpt lat="39.4640429867451" lon="8.480605460485418"><ele>110.0</ele><time>2026-04-18T09:48:21Z</time></trkpt><trkpt lat="39.4638850230229" lon="8.48060470250277"><ele>105.5</ele><time>2026-04-18T09:48:22Z</time></trkpt><trkpt lat="39.46372090147347" lon="8.480601718064783"><ele>101.0</ele><time>2026-04-18T09:48:23Z</time></trkpt><trkpt lat="39.46357729889377" lon="8.480598398210075"><ele>96.5</ele><time>2026-04-18T09:48:24Z</time></trkpt><trkpt lat="39.46345491125698" lon="8.480567895233314"><ele>92.0</ele><time>2026-04-18T09:48:25Z</time></trkpt><trkpt lat="39.46335838513699" lon="8.480480888051066"><ele>97.66666666666667</ele><time>2026-04-18T09:48:26Z</time></trkpt><trkpt lat="39.46328683773501" lon="8.48032558503467"><ele>103.33333333333334</ele><time>2026-04-18T09:48:27Z</time></trkpt><trkpt lat="39.46320903115679" lon="8.480138869706964"><ele>109.0</ele><time>2026-04-18T09:48:28Z</time></trkpt><trkpt lat="39.46311854418768" lon="8.479954290402103"><ele>109.0</ele><time>2026-04-18T09:48:29Z</time></trkpt><trkpt lat="39.463022551846144" lon="8.479754297272533"><ele>109.0</ele><time>2026-04-18T09:48:30Z</time></trkpt><trkpt lat="39.46292392942275" lon="8.47955696051722"><ele>109.0</ele><time>2026-04-18T09:48:31Z</time></trkpt><trkpt lat="39.46282407139771" lon="8.479364587569153"><ele>104.0</ele><time>2026-04-18T09:48:32Z</time></trkpt><trkpt lat="39.46273356702249" lon="8.479190197959996"><ele>99.0</ele><time>2026-04-18T09:48:33Z</time></trkpt><trkpt lat="39.46267306396618" lon="8.479040154457776"><ele>94.0</ele><time>2026-04-18T09:48:34Z</time></trkpt><trkpt lat="39.4626637973467" lon="8.478904420200998"><ele>89.0</ele><time>2026-04-18T09:48:35Z</time></trkpt><trkpt lat="39.462712261341395" lon="8.47878298757319"><ele>87.33333333333334</ele><time>2026-04-18T09:48:36Z</time></trkpt><trkpt lat="39.46281099268857" lon="8.478662976386916"><ele>85.66666666666667</ele><time>2026-04-18T09:48:37Z</time></trkpt><trkpt lat="39.46292033629871" lon="8.478522311408245"><ele>84.0</ele><time>2026-04-18T09:48:38Z</time></trkpt><trkpt lat="39.46302449122922" lon="8.47835234745519"><ele>89.33333333333334</ele><time>2026-04-18T09:48:39Z</time></trkpt><trkpt lat="39.46314220675564" lon="8.478175201663143"><ele>94.66666666666667</ele><time>2026-04-18T09:48:40Z</time></trkpt><trkpt lat="39.463254750354615" lon="8.478017750903712"><ele>100.0</ele><time>2026-04-18T09:48:41Z</time></trkpt><trkpt lat="39.463352432625534" lon="8.477875918232417"><ele>100.0</ele><time>2026-04-18T09:48:42Z</time></trkpt><trkpt lat="39.46342686367013" lon="8.477750359438993"><ele>100.0</ele><time>2026-04-18T09:48:43Z</time></trkpt><trkpt lat="39.46346062639816" lon="8.477624061714122"><ele>100.0</ele><time>2026-04-18T09:48:44Z</time></trkpt><trkpt lat="39.46344138977547" lon="8.477497104187842"><ele>100.0</ele><time>2026-04-18T09:48:45Z</time></trkpt><trkpt lat="39.463395134458096" lon="8.477389000755192"><ele>100.0</ele><time>2026-04-18T09:48:46Z</time></trkpt><trkpt lat="39.46328072826052" lon="8.477355386408036"><ele>100.0</ele><time>2026-04-18T09:48:47Z</time></trkpt><trkpt lat="39.46317093806984" lon="8.477425764893264"><ele>100.0</ele><time>2026-04-18T09:48:48Z</time></trkpt><trkpt lat="39.463085119519384" lon="8.477560703364896"><ele>100.0</ele><time>2026-04-18T09:48:49Z</time></trkpt><trkpt lat="39.462959901018586" lon="8.477665820108827"><ele>100.0</ele><time>2026-04-18T09:48:50Z</time></trkpt><trkpt lat="39.462825675341094" lon="8.47777362222923"><ele>100.0</ele><time>2026-04-18T09:48:51Z</time></trkpt><trkpt lat="39.46267494764834" lon="8.477875491635455"><ele>100.0</ele><time>2026-04-18T09:48:52Z</time></trkpt><trkpt lat="39.462525635655204" lon="8.477956211194456"><ele>100.0</ele><time>2026-04-18T09:48:53Z</time></trkpt><trkpt lat="39.462359669457435" lon="8.478007344145833"><ele>95.66666666666667</ele><time>2026-04-18T09:48:54Z</time></trkpt><trkpt lat="39.46219409028762" lon="8.478038948246777"><ele>91.33333333333334</ele><time>2026-04-18T09:48:55Z</time></trkpt><trkpt lat="39.46205583581342" lon="8.47812823061962"><ele>87.0</ele><time>2026-04-18T09:48:56Z</time></trkpt><trkpt lat="39.46193231422561" lon="8.478263006601232"><ele>87.0</ele><time>2026-04-18T09:48:57Z</time></trkpt><trkpt lat="39.46182171999892" lon="8.478440252812385"><ele>87.0</ele><time>2026-04-18T09:48:58Z</time></trkpt><trkpt lat="39.461720034913824" lon="8.478642374887709"><ele>87.0</ele><time>2026-04-18T09:48:59Z</time></trkpt><trkpt lat="39.46160613896327" lon="8.47883887347922"><ele>82.33333333333333</ele><time>2026-04-18T09:49:00Z</time></trkpt><trkpt lat="39.46149813316033" lon="8.47902706433259"><ele>77.66666666666666</ele><time>2026-04-18T09:49:01Z</time></trkpt><trkpt lat="39.46138803934922" lon="8.479199309897664"><ele>73.0</ele><time>2026-04-18T09:49:02Z</time></trkpt><trkpt lat="39.4612901869269" lon="8.47937260433247"><ele>73.75</ele><time>2026-04-18T09:49:03Z</time></trkpt><trkpt lat="39.46119121520729" lon="8.479530057157165"><ele>74.5</ele><time>2026-04-18T09:49:04Z</time></trkpt><trkpt lat="39.46108892148738" lon="8.479641762982626"><ele>75.25</ele><time>2026-04-18T09:49:05Z</time></trkpt><trkpt lat="39.46098382195729" lon="8.479713698849551"><ele>76.0</ele><time>2026-04-18T09:49:06Z</time></trkpt><trkpt lat="39.46087337244063" lon="8.479738455847677"><ele>76.0</ele><time>2026-04-18T09:49:07Z</time></trkpt><trkpt lat="39.46076703633651" lon="8.47968912528127"><ele>76.0</ele><time>2026-04-18T09:49:08Z</time></trkpt><trkpt lat="39.46065874834308" lon="8.479596042800333"><ele>76.0</ele><time>2026-04-18T09:49:09Z</time></trkpt><trkpt lat="39.46051844351431" lon="8.479478476951883"><ele>76.0</ele><time>2026-04-18T09:49:10Z</time></trkpt><trkpt lat="39.46037099137582" lon="8.479354771952591"><ele>71.33333333333333</ele><time>2026-04-18T09:49:11Z</time></trkpt><trkpt lat="39.46021387278168" lon="8.479222272310283"><ele>66.66666666666667</ele><time>2026-04-18T09:49:12Z</time></trkpt><trkpt lat="39.46007549147658" lon="8.47908816784831"><ele>62.0</ele><time>2026-04-18T09:49:13Z</time></trkpt><trkpt lat="39.459983691556396" lon="8.478933902636676"><ele>62.0</ele><time>2026-04-18T09:49:14Z</time></trkpt><trkpt lat="39.45989743238353" lon="8.478790787414558"><ele>62.0</ele><time>2026-04-18T09:49:15Z</time></trkpt><trkpt lat="39.45982128820353" lon="8.478671050159491"><ele>62.0</ele><time>2026-04-18T09:49:16Z</time></trkpt><trkpt lat="39.45965847022776" lon="8.478682710045556"><ele>62.0</ele><time>2026-04-18T09:49:17Z</time></trkpt><trkpt lat="39.4595086403561" lon="8.47870697274776"><ele>63.333333333333336</ele><time>2026-04-18T09:49:18Z</time></trkpt><trkpt lat="39.459342068686205" lon="8.478730160492095"><ele>64.66666666666667</ele><time>2026-04-18T09:49:19Z</time></trkpt><trkpt lat="39.459165872532175" lon="8.478734710419051"><ele>66.0</ele><time>2026-04-18T09:49:20Z</time></trkpt><trkpt lat="39.45897257423861" lon="8.478722762318414"><ele>63.0</ele><time>2026-04-18T09:49:21Z</time></trkpt><trkpt lat="39.458768252361374" lon="8.478694402155238"><ele>60.0</ele><time>2026-04-18T09:49:22Z</time></trkpt><trkpt lat="39.45855939217259" lon="8.478647932791626"><ele>57.0</ele><time>2026-04-18T09:49:23Z</time></trkpt><trkpt lat="39.45834565180475" lon="8.478564670987048"><ele>57.0</ele><time>2026-04-18T09:49:24Z</time></trkpt><trkpt lat="39.45812097642092" lon="8.478489436292103"><ele>57.0</ele><time>2026-04-18T09:49:25Z</time></trkpt><trkpt lat="39.45789778266134" lon="8.478415773132857"><ele>54.33333333333333</ele><time>2026-04-18T09:49:26Z</time></trkpt><trkpt lat="39.45768976603652" lon="8.478348775882914"><ele>51.666666666666664</ele><time>2026-04-18T09:49:27Z</time></trkpt><trkpt lat="39.45748957136575" lon="8.478302880994162"><ele>49.0</ele><time>2026-04-18T09:49:28Z</time></trkpt><trkpt lat="39.457300170721496" lon="8.478266309366816"><ele>48.0</ele><time>2026-04-18T09:49:29Z</time></trkpt><trkpt lat="39.45711431953473" lon="8.47828259603372"><ele>47.0</ele><time>2026-04-18T09:49:30Z</time></trkpt><trkpt lat="39.45693363967145" lon="8.478395286143636"><ele>46.0</ele><time>2026-04-18T09:49:31Z</time></trkpt><trkpt lat="39.45674380979125" lon="8.478489609411099"><ele>46.0</ele><time>2026-04-18T09:49:32Z</time></trkpt><trkpt lat="39.456557394838185" lon="8.478508052882196"><ele>46.0</ele><time>2026-04-18T09:49:33Z</time></trkpt><trkpt lat="39.45637881647384" lon="8.478492544830448"><ele>46.0</ele><time>2026-04-18T09:49:34Z</time></trkpt><trkpt lat="39.456181381950884" lon="8.478469202084911"><ele>44.66666666666667</ele><time>2026-04-18T09:49:35Z</time></trkpt><trkpt lat="39.455970850777554" lon="8.4784637253034"><ele>43.333333333333336</ele><time>2026-04-18T09:49:36Z</time></trkpt><trkpt lat="39.45575924926191" lon="8.478438237740722"><ele>42.0</ele><time>2026-04-18T09:49:37Z</time></trkpt><trkpt lat="39.45553367044761" lon="8.478439350159881"><ele>40.5</ele><time>2026-04-18T09:49:38Z</time></trkpt><trkpt lat="39.455306169321865" lon="8.478445647662909"><ele>39.0</ele><time>2026-04-18T09:49:39Z</time></trkpt><trkpt lat="39.45507359539514" lon="8.478453572751546"><ele>39.0</ele><time>2026-04-18T09:49:40Z</time></trkpt><trkpt lat="39.4548418502011" lon="8.478455195538608"><ele>39.0</ele><time>2026-04-18T09:49:41Z</time></trkpt><trkpt lat="39.45461716677582" lon="8.4784537820146"><ele>39.0</ele><time>2026-04-18T09:49:42Z</time></trkpt><trkpt lat="39.45440373886974" lon="8.47845380276733"><ele>39.0</ele><time>2026-04-18T09:49:43Z</time></trkpt><trkpt lat="39.454206162411396" lon="8.478458347177183"><ele>39.0</ele><time>2026-04-18T09:49:44Z</time></trkpt><trkpt lat="39.454019904481115" lon="8.478462285124202"><ele>39.0</ele><time>2026-04-18T09:49:45Z</time></trkpt><trkpt lat="39.45385385205009" lon="8.478479681909027"><ele>39.0</ele><time>2026-04-18T09:49:46Z</time></trkpt><trkpt lat="39.45372687992308" lon="8.478512362486338"><ele>39.0</ele><time>2026-04-18T09:49:47Z</time></trkpt><trkpt lat="39.4536006460173" lon="8.478515092018066"><ele>39.0</ele><time>2026-04-18T09:49:48Z</time></trkpt><trkpt lat="39.453526205625906" lon="8.478736906848539"><ele>39.0</ele><time>2026-04-18T09:49:49Z</time></trkpt><trkpt lat="39.453438477969264" lon="8.478900206194401"><ele>39.0</ele><time>2026-04-18T09:49:50Z</time></trkpt><trkpt lat="39.4533340471718" lon="8.479058092061159"><ele>39.0</ele><time>2026-04-18T09:49:51Z</time></trkpt><trkpt lat="39.45322278906548" lon="8.479224044514751"><ele>39.0</ele><time>2026-04-18T09:49:52Z</time></trkpt><trkpt lat="39.45312068239106" lon="8.479396822090994"><ele>39.0</ele><time>2026-04-18T09:49:53Z</time></trkpt><trkpt lat="39.45302532722637" lon="8.479595111672372"><ele>39.0</ele><time>2026-04-18T09:49:54Z</time></trkpt><trkpt lat="39.452944159439916" lon="8.479814245657707"><ele>39.666666666666664</ele><time>2026-04-18T09:49:55Z</time></trkpt><trkpt lat="39.45287032352838" lon="8.480050170649799"><ele>40.33333333333333</ele><time>2026-04-18T09:49:56Z</time></trkpt><trkpt lat="39.452799443983025" lon="8.480295413342716"><ele>41.0</ele><time>2026-04-18T09:49:57Z</time></trkpt><trkpt lat="39.45272707351986" lon="8.480544880493264"><ele>41.0</ele><time>2026-04-18T09:49:58Z</time></trkpt><trkpt lat="39.45265432451149" lon="8.480798054183344"><ele>41.0</ele><time>2026-04-18T09:49:59Z</time></trkpt><trkpt lat="39.45257912147211" lon="8.481054996060656"><ele>41.0</ele><time>2026-04-18T09:50:00Z</time></trkpt><trkpt lat="39.45249363722098" lon="8.481311518258995"><ele>45.0</ele><time>2026-04-18T09:50:01Z</time></trkpt><trkpt lat="39.45239299600775" lon="8.481567349814151"><ele>49.0</ele><time>2026-04-18T09:50:02Z</time></trkpt><trkpt lat="39.45228546221851" lon="8.48181769648534"><ele>53.0</ele><time>2026-04-18T09:50:03Z</time></trkpt><trkpt lat="39.45218084989191" lon="8.482048140540039"><ele>49.333333333333336</ele><time>2026-04-18T09:50:04Z</time></trkpt><trkpt lat="39.45207611816303" lon="8.482255023506287"><ele>45.66666666666667</ele><time>2026-04-18T09:50:05Z</time></trkpt><trkpt lat="39.45193458357228" lon="8.482423673974948"><ele>42.0</ele><time>2026-04-18T09:50:06Z</time></trkpt><trkpt lat="39.451798258981604" lon="8.482626445152547"><ele>42.0</ele><time>2026-04-18T09:50:07Z</time></trkpt><trkpt lat="39.45164889782117" lon="8.482804379198452"><ele>42.0</ele><time>2026-04-18T09:50:08Z</time></trkpt><trkpt lat="39.451520926912345" lon="8.482965390356398"><ele>42.0</ele><time>2026-04-18T09:50:09Z</time></trkpt><trkpt lat="39.45139830555654" lon="8.483106179812909"><ele>42.75</ele><time>2026-04-18T09:50:10Z</time></trkpt><trkpt lat="39.45125799148464" lon="8.483183034519914"><ele>43.5</ele><time>2026-04-18T09:50:11Z</time></trkpt><trkpt lat="39.45112106977033" lon="8.483209739136644"><ele>44.25</ele><time>2026-04-18T09:50:12Z</time></trkpt><trkpt lat="39.450968108131775" lon="8.483203380017622"><ele>45.0</ele><time>2026-04-18T09:50:13Z</time></trkpt><trkpt lat="39.45079635832517" lon="8.483196187705827"><ele>45.0</ele><time>2026-04-18T09:50:14Z</time></trkpt><trkpt lat="39.45060651409774" lon="8.483201987366943"><ele>45.0</ele><time>2026-04-18T09:50:15Z</time></trkpt><trkpt lat="39.45040518349853" lon="8.483194774850922"><ele>45.0</ele><time>2026-04-18T09:50:16Z</time></trkpt><trkpt lat="39.45019485658227" lon="8.48318514615845"><ele>44.666666666666664</ele><time>2026-04-18T09:50:17Z</time></trkpt><trkpt lat="39.449977807978605" lon="8.483173028220103"><ele>44.33333333333333</ele><time>2026-04-18T09:50:18Z</time></trkpt><trkpt lat="39.44976175210692" lon="8.483142122700674"><ele>44.0</ele><time>2026-04-18T09:50:19Z</time></trkpt><trkpt lat="39.4495405617936" lon="8.483126031661802"><ele>44.0</ele><time>2026-04-18T09:50:20Z</time></trkpt><trkpt lat="39.44930718712094" lon="8.483090858734572"><ele>44.0</ele><time>2026-04-18T09:50:21Z</time></trkpt><trkpt lat="39.44907817620965" lon="8.483071032422641"><ele>44.0</ele><time>2026-04-18T09:50:22Z</time></trkpt><trkpt lat="39.448858836106965" lon="8.48304094428361"><ele>44.0</ele><time>2026-04-18T09:50:23Z</time></trkpt><trkpt lat="39.44864910636795" lon="8.483016115809724"><ele>44.0</ele><time>2026-04-18T09:50:24Z</time></trkpt><trkpt lat="39.44844079751972" lon="8.482989764881006"><ele>45.33333333333333</ele><time>2026-04-18T09:50:25Z</time></trkpt><trkpt lat="39.44822669451014" lon="8.482977084593966"><ele>46.666666666666664</ele><time>2026-04-18T09:50:26Z</time></trkpt><trkpt lat="39.44800587226316" lon="8.482987141935258"><ele>48.0</ele><time>2026-04-18T09:50:27Z</time></trkpt><trkpt lat="39.44778299782053" lon="8.4830122902583"><ele>48.66666666666667</ele><time>2026-04-18T09:50:28Z</time></trkpt><trkpt lat="39.447564718594116" lon="8.483042165521592"><ele>49.333333333333336</ele><time>2026-04-18T09:50:29Z</time></trkpt><trkpt lat="39.44735609460086" lon="8.483073852905614"><ele>50.0</ele><time>2026-04-18T09:50:30Z</time></trkpt><trkpt lat="39.44716333528322" lon="8.483111196251498"><ele>48.333333333333336</ele><time>2026-04-18T09:50:31Z</time></trkpt><trkpt lat="39.44698705251409" lon="8.483177937678555"><ele>46.66666666666667</ele><time>2026-04-18T09:50:32Z</time></trkpt><trkpt lat="39.446820409827204" lon="8.483281067127235"><ele>45.0</ele><time>2026-04-18T09:50:33Z</time></trkpt><trkpt lat="39.44666671067631" lon="8.483386027123084"><ele>45.0</ele><time>2026-04-18T09:50:34Z</time></trkpt><trkpt lat="39.446542789530376" lon="8.483511723990357"><ele>45.0</ele><time>2026-04-18T09:50:35Z</time></trkpt><trkpt lat="39.44644053862418" lon="8.483675983464417"><ele>45.0</ele><time>2026-04-18T09:50:36Z</time></trkpt><trkpt lat="39.44636576659375" lon="8.483873474299665"><ele>44.666666666666664</ele><time>2026-04-18T09:50:37Z</time></trkpt><trkpt lat="39.4462863616437" lon="8.484061773796297"><ele>44.33333333333333</ele><time>2026-04-18T09:50:38Z</time></trkpt><trkpt lat="39.44615401130545" lon="8.484206481161335"><ele>44.0</ele><time>2026-04-18T09:50:39Z</time></trkpt><trkpt lat="39.446011689602464" lon="8.484349216495565"><ele>44.0</ele><time>2026-04-18T09:50:40Z</time></trkpt><trkpt lat="39.44586722038541" lon="8.484500090245144"><ele>44.0</ele><time>2026-04-18T09:50:41Z</time></trkpt><trkpt lat="39.44571587421729" lon="8.48465815603023"><ele>44.0</ele><time>2026-04-18T09:50:42Z</time></trkpt><trkpt lat="39.445571614475135" lon="8.484830157297935"><ele>44.666666666666664</ele><time>2026-04-18T09:50:43Z</time></trkpt><trkpt lat="39.44541169435661" lon="8.48498425795205"><ele>45.333333333333336</ele><time>2026-04-18T09:50:44Z</time></trkpt><trkpt lat="39.44525832865943" lon="8.485150218062515"><ele>46.0</ele><time>2026-04-18T09:50:45Z</time></trkpt><trkpt lat="39.44510646879817" lon="8.485316100785992"><ele>46.66666666666667</ele><time>2026-04-18T09:50:46Z</time></trkpt><trkpt lat="39.44495840131507" lon="8.485471296069205"><ele>47.333333333333336</ele><time>2026-04-18T09:50:47Z</time></trkpt><trkpt lat="39.444816125269234" lon="8.485631250353304"><ele>48.0</ele><time>2026-04-18T09:50:48Z</time></trkpt><trkpt lat="39.44469745443753" lon="8.48582694477393"><ele>47.666666666666664</ele><time>2026-04-18T09:50:49Z</time></trkpt><trkpt lat="39.44458489803215" lon="8.486040092410972"><ele>47.33333333333333</ele><time>2026-04-18T09:50:50Z</time></trkpt><trkpt lat="39.44446905895884" lon="8.486253245819539"><ele>47.0</ele><time>2026-04-18T09:50:51Z</time></trkpt><trkpt lat="39.44434566059194" lon="8.486467353465702"><ele>47.0</ele><time>2026-04-18T09:50:52Z</time></trkpt><trkpt lat="39.44421812114058" lon="8.486683069983187"><ele>47.0</ele><time>2026-04-18T09:50:53Z</time></trkpt><trkpt lat="39.44408865965952" lon="8.48690421978481"><ele>47.0</ele><time>2026-04-18T09:50:54Z</time></trkpt><trkpt lat="39.443959440583825" lon="8.48712790096823"><ele>47.33333333333333</ele><time>2026-04-18T09:50:55Z</time></trkpt><trkpt lat="39.44383429396783" lon="8.487349692334838"><ele>47.666666666666664</ele><time>2026-04-18T09:50:56Z</time></trkpt><trkpt lat="39.44371458137603" lon="8.487558276984272"><ele>48.0</ele><time>2026-04-18T09:50:57Z</time></trkpt><trkpt lat="39.44359009021501" lon="8.48774240723155"><ele>48.0</ele><time>2026-04-18T09:50:58Z</time></trkpt><trkpt lat="39.44346009206098" lon="8.487904316054124"><ele>48.0</ele><time>2026-04-18T09:50:59Z</time></trkpt><trkpt lat="39.44333432300822" lon="8.488050821126897"><ele>48.0</ele><time>2026-04-18T09:51:00Z</time></trkpt><trkpt lat="39.44321667878623" lon="8.488191388909836"><ele>48.33333333333333</ele><time>2026-04-18T09:51:01Z</time></trkpt><trkpt lat="39.44310394085382" lon="8.48832910950656"><ele>48.666666666666664</ele><time>2026-04-18T09:51:02Z</time></trkpt><trkpt lat="39.442989304166346" lon="8.488469097092391"><ele>49.0</ele><time>2026-04-18T09:51:03Z</time></trkpt><trkpt lat="39.442879873269504" lon="8.488612997568474"><ele>50.0</ele><time>2026-04-18T09:51:04Z</time></trkpt><trkpt lat="39.44277621470016" lon="8.488768807128794"><ele>51.0</ele><time>2026-04-18T09:51:05Z</time></trkpt><trkpt lat="39.44267685209985" lon="8.488943067052796"><ele>52.0</ele><time>2026-04-18T09:51:06Z</time></trkpt><trkpt lat="39.442581653102884" lon="8.489123096289036"><ele>52.0</ele><time>2026-04-18T09:51:07Z</time></trkpt><trkpt lat="39.442485259515266" lon="8.489304035322052"><ele>52.0</ele><time>2026-04-18T09:51:08Z</time></trkpt><trkpt lat="39.44239522832799" lon="8.489468877848504"><ele>52.0</ele><time>2026-04-18T09:51:09Z</time></trkpt><trkpt lat="39.44231544693092" lon="8.489614482724397"><ele>52.2</ele><time>2026-04-18T09:51:10Z</time></trkpt><trkpt lat="39.442246309414365" lon="8.48973988911159"><ele>52.400000000000006</ele><time>2026-04-18T09:51:11Z</time></trkpt><trkpt lat="39.44218658022885" lon="8.48983828110933"><ele>52.599999999999994</ele><time>2026-04-18T09:51:12Z</time></trkpt><trkpt lat="39.44214161647082" lon="8.489901107586515"><ele>52.8</ele><time>2026-04-18T09:51:13Z</time></trkpt><trkpt lat="39.44205354566132" lon="8.489864115134269"><ele>53.0</ele><time>2026-04-18T09:51:16Z</time></trkpt><trkpt lat="39.4419568011523" lon="8.489753843766426"><ele>53.0</ele><time>2026-04-18T09:51:18Z</time></trkpt><trkpt lat="39.4418819912723" lon="8.489655727445426"><ele>53.0</ele><time>2026-04-18T09:51:19Z</time></trkpt><trkpt lat="39.44179276011525" lon="8.489567498265618"><ele>53.0</ele><time>2026-04-18T09:51:20Z</time></trkpt><trkpt lat="39.4416949561871" lon="8.489464094342923"><ele>53.0</ele><time>2026-04-18T09:51:21Z</time></trkpt><trkpt lat="39.4415911878107" lon="8.489352799400997"><ele>52.25</ele><time>2026-04-18T09:51:22Z</time></trkpt><trkpt lat="39.44150008519859" lon="8.489218309593396"><ele>51.5</ele><time>2026-04-18T09:51:23Z</time></trkpt><trkpt lat="39.44139197374647" lon="8.489113145767577"><ele>50.75</ele><time>2026-04-18T09:51:24Z</time></trkpt><trkpt lat="39.44129050374191" lon="8.48901350395953"><ele>50.0</ele><time>2026-04-18T09:51:25Z</time></trkpt><trkpt lat="39.44120416111352" lon="8.488921874888566"><ele>50.0</ele><time>2026-04-18T09:51:26Z</time></trkpt><trkpt lat="39.44113477635628" lon="8.488852202248156"><ele>50.0</ele><time>2026-04-18T09:51:27Z</time></trkpt><trkpt lat="39.4410711460482" lon="8.488778374716704"><ele>50.0</ele><time>2026-04-18T09:51:29Z</time></trkpt><trkpt lat="39.44098024732573" lon="8.48877864155212"><ele>50.0</ele><time>2026-04-18T09:51:32Z</time></trkpt><trkpt lat="39.440895413139124" lon="8.488813735545595"><ele>50.0</ele><time>2026-04-18T09:51:33Z</time></trkpt><trkpt lat="39.44079229624214" lon="8.488842470322904"><ele>50.0</ele><time>2026-04-18T09:51:34Z</time></trkpt><trkpt lat="39.44069962597911" lon="8.488911423976308"><ele>50.0</ele><time>2026-04-18T09:51:35Z</time></trkpt><trkpt lat="39.44060975522938" lon="8.488967562392986"><ele>50.0</ele><time>2026-04-18T09:51:36Z</time></trkpt><trkpt lat="39.4405375380749" lon="8.489032448439776"><ele>50.0</ele><time>2026-04-18T09:51:37Z</time></trkpt><trkpt lat="39.440476021799256" lon="8.489119114805648"><ele>50.0</ele><time>2026-04-18T09:51:38Z</time></trkpt><trkpt lat="39.44043775081306" lon="8.489224427120433"><ele>52.0</ele><time>2026-04-18T09:51:39Z</time></trkpt><trkpt lat="39.44041915102497" lon="8.489349821481493"><ele>54.0</ele><time>2026-04-18T09:51:40Z</time></trkpt><trkpt lat="39.44040327558091" lon="8.489503161218181"><ele>56.0</ele><time>2026-04-18T09:51:41Z</time></trkpt><trkpt lat="39.440398678042165" lon="8.489655461627061"><ele>58.0</ele><time>2026-04-18T09:51:42Z</time></trkpt><trkpt lat="39.44039377937936" lon="8.489817737225945"><ele>58.0</ele><time>2026-04-18T09:51:43Z</time></trkpt><trkpt lat="39.44038609509295" lon="8.489977801181066"><ele>58.0</ele><time>2026-04-18T09:51:44Z</time></trkpt><trkpt lat="39.44036254059194" lon="8.490129899358251"><ele>58.0</ele><time>2026-04-18T09:51:45Z</time></trkpt><trkpt lat="39.440338586894846" lon="8.490269961214832"><ele>58.0</ele><time>2026-04-18T09:51:46Z</time></trkpt><trkpt lat="39.44034265226196" lon="8.490391590892882"><ele>58.0</ele><time>2026-04-18T09:51:47Z</time></trkpt><trkpt lat="39.4403230125217" lon="8.490482098645098"><ele>57.166666666666664</ele><time>2026-04-18T09:51:48Z</time></trkpt><trkpt lat="39.440309366943154" lon="8.490599299392194"><ele>56.33333333333333</ele><time>2026-04-18T09:51:50Z</time></trkpt><trkpt lat="39.440243444132896" lon="8.490613198584393"><ele>55.5</ele><time>2026-04-18T09:51:51Z</time></trkpt><trkpt lat="39.44017811081919" lon="8.490672805015336"><ele>54.66666666666667</ele><time>2026-04-18T09:51:52Z</time></trkpt><trkpt lat="39.44009954645199" lon="8.490751018605144"><ele>53.833333333333336</ele><time>2026-04-18T09:51:53Z</time></trkpt><trkpt lat="39.440018676805884" lon="8.490849090507217"><ele>53.0</ele><time>2026-04-18T09:51:54Z</time></trkpt><trkpt lat="39.43994118001228" lon="8.4909554467688"><ele>53.0</ele><time>2026-04-18T09:51:55Z</time></trkpt><trkpt lat="39.43986800867307" lon="8.49106879342081"><ele>53.0</ele><time>2026-04-18T09:51:56Z</time></trkpt><trkpt lat="39.439806441672445" lon="8.491190596210705"><ele>53.0</ele><time>2026-04-18T09:51:57Z</time></trkpt><trkpt lat="39.43974952120039" lon="8.491323145891645"><ele>53.0</ele><time>2026-04-18T09:51:58.001Z</time></trkpt><trkpt lat="39.439699579264186" lon="8.491469180617289"><ele>52.75</ele><time>2026-04-18T09:51:59Z</time></trkpt><trkpt lat="39.439651391856636" lon="8.491625637387768"><ele>52.5</ele><time>2026-04-18T09:52:00Z</time></trkpt><trkpt lat="39.43960304823647" lon="8.491783907745518"><ele>52.25</ele><time>2026-04-18T09:52:01Z</time></trkpt><trkpt lat="39.4395451797256" lon="8.491928224161883"><ele>52.0</ele><time>2026-04-18T09:52:02Z</time></trkpt><trkpt lat="39.439484942481556" lon="8.492061713842673"><ele>52.75</ele><time>2026-04-18T09:52:03Z</time></trkpt><trkpt lat="39.439442824339345" lon="8.492210554128711"><ele>53.5</ele><time>2026-04-18T09:52:04Z</time></trkpt><trkpt lat="39.43943560099006" lon="8.492374068577874"><ele>54.25</ele><time>2026-04-18T09:52:05Z</time></trkpt><trkpt lat="39.439399113205404" lon="8.492530666400809"><ele>55.0</ele><time>2026-04-18T09:52:06Z</time></trkpt><trkpt lat="39.43937302343186" lon="8.492684635024016"><ele>55.0</ele><time>2026-04-18T09:52:07Z</time></trkpt><trkpt lat="39.43935804791643" lon="8.492823069237083"><ele>55.0</ele><time>2026-04-18T09:52:08Z</time></trkpt><trkpt lat="39.4392811738303" lon="8.492923090531463"><ele>55.0</ele><time>2026-04-18T09:52:09Z</time></trkpt><trkpt lat="39.43920020901865" lon="8.493031545515256"><ele>55.0</ele><time>2026-04-18T09:52:10Z</time></trkpt><trkpt lat="39.439120721885786" lon="8.49315622407867"><ele>55.25</ele><time>2026-04-18T09:52:11Z</time></trkpt><trkpt lat="39.43900542414975" lon="8.493233522254528"><ele>55.5</ele><time>2026-04-18T09:52:12Z</time></trkpt><trkpt lat="39.438900569421456" lon="8.493334324709782"><ele>55.75</ele><time>2026-04-18T09:52:13Z</time></trkpt><trkpt lat="39.438788758771636" lon="8.49339042860693"><ele>56.0</ele><time>2026-04-18T09:52:14Z</time></trkpt><trkpt lat="39.438692543275685" lon="8.493435045162027"><ele>56.00000000000001</ele><time>2026-04-18T09:52:15Z</time></trkpt><trkpt lat="39.438612159547134" lon="8.493475534758371"><ele>56.0</ele><time>2026-04-18T09:52:16Z</time></trkpt><trkpt lat="39.438552321814186" lon="8.493510881597702"><ele>56.0</ele><time>2026-04-18T09:52:17Z</time></trkpt><trkpt lat="39.43848733754761" lon="8.493531477887059"><ele>56.0</ele><time>2026-04-18T09:52:19Z</time></trkpt><trkpt lat="39.43841981940769" lon="8.493537818337122"><ele>56.00000000000001</ele><time>2026-04-18T09:52:22Z</time></trkpt><trkpt lat="39.4383498836787" lon="8.493535851273673"><ele>56.0</ele><time>2026-04-18T09:52:25Z</time></trkpt><trkpt lat="39.43825377713084" lon="8.49355630859526"><ele>56.0</ele><time>2026-04-18T09:52:29Z</time></trkpt><trkpt lat="39.43819135629452" lon="8.49359485742483"><ele>55.99999999999999</ele><time>2026-04-18T09:52:30Z</time></trkpt><trkpt lat="39.438118007860474" lon="8.493675140011936"><ele>55.99999999999999</ele><time>2026-04-18T09:52:31Z</time></trkpt><trkpt lat="39.43804096725678" lon="8.493771144195698"><ele>56.0</ele><time>2026-04-18T09:52:32Z</time></trkpt><trkpt lat="39.437968644081785" lon="8.49389359870117"><ele>56.0</ele><time>2026-04-18T09:52:33Z</time></trkpt><trkpt lat="39.43788772131251" lon="8.494034616173227"><ele>56.5</ele><time>2026-04-18T09:52:34Z</time></trkpt><trkpt lat="39.437793265563975" lon="8.494180880444459"><ele>57.0</ele><time>2026-04-18T09:52:35Z</time></trkpt><trkpt lat="39.43769938889399" lon="8.494329831663375"><ele>57.5</ele><time>2026-04-18T09:52:36Z</time></trkpt><trkpt lat="39.43760474817399" lon="8.49447962294811"><ele>58.0</ele><time>2026-04-18T09:52:37Z</time></trkpt><trkpt lat="39.43751249153911" lon="8.494604201037689"><ele>58.0</ele><time>2026-04-18T09:52:38Z</time></trkpt><trkpt lat="39.43742971065694" lon="8.494720917495696"><ele>58.0</ele><time>2026-04-18T09:52:39Z</time></trkpt><trkpt lat="39.43736823591925" lon="8.494836415025679"><ele>58.0</ele><time>2026-04-18T09:52:40Z</time></trkpt><trkpt lat="39.43733600772765" lon="8.49495439935807"><ele>58.0</ele><time>2026-04-18T09:52:41Z</time></trkpt><trkpt lat="39.43733633882531" lon="8.495081699426088"><ele>58.0</ele><time>2026-04-18T09:52:42Z</time></trkpt><trkpt lat="39.43735591079169" lon="8.495226595690582"><ele>58.0</ele><time>2026-04-18T09:52:43Z</time></trkpt><trkpt lat="39.43737019832644" lon="8.495380365561761"><ele>58.0</ele><time>2026-04-18T09:52:44Z</time></trkpt><trkpt lat="39.43736160598748" lon="8.49553390432948"><ele>58.0</ele><time>2026-04-18T09:52:45Z</time></trkpt><trkpt lat="39.43733248696379" lon="8.49568932338906"><ele>58.0</ele><time>2026-04-18T09:52:46Z</time></trkpt><trkpt lat="39.4372888790312" lon="8.49584955555476"><ele>58.4</ele><time>2026-04-18T09:52:47Z</time></trkpt><trkpt lat="39.43726347743054" lon="8.495997763322762"><ele>58.8</ele><time>2026-04-18T09:52:48Z</time></trkpt><trkpt lat="39.4372355565401" lon="8.496128291059323"><ele>59.2</ele><time>2026-04-18T09:52:49Z</time></trkpt><trkpt lat="39.43718907031863" lon="8.496236075643239"><ele>59.6</ele><time>2026-04-18T09:52:50Z</time></trkpt><trkpt lat="39.437121451366416" lon="8.496338206545628"><ele>60.0</ele><time>2026-04-18T09:52:51Z</time></trkpt><trkpt lat="39.437036599139134" lon="8.49643490406679"><ele>60.0</ele><time>2026-04-18T09:52:52Z</time></trkpt><trkpt lat="39.436939952671615" lon="8.496527552818328"><ele>60.0</ele><time>2026-04-18T09:52:53Z</time></trkpt><trkpt lat="39.43683484893564" lon="8.496606043172157"><ele>60.0</ele><time>2026-04-18T09:52:54Z</time></trkpt><trkpt lat="39.43673169185459" lon="8.496677313433135"><ele>60.0</ele><time>2026-04-18T09:52:55Z</time></trkpt><trkpt lat="39.43663456724338" lon="8.49674553533392"><ele>60.0</ele><time>2026-04-18T09:52:56Z</time></trkpt><trkpt lat="39.43653585912524" lon="8.496825317344872"><ele>60.0</ele><time>2026-04-18T09:52:57Z</time></trkpt><trkpt lat="39.43643894456158" lon="8.496915875926986"><ele>60.0</ele><time>2026-04-18T09:52:58Z</time></trkpt><trkpt lat="39.43635038432774" lon="8.497022883469063"><ele>60.0</ele><time>2026-04-18T09:52:59Z</time></trkpt><trkpt lat="39.43627528951606" lon="8.497139683900222"><ele>60.6</ele><time>2026-04-18T09:53:00Z</time></trkpt><trkpt lat="39.436211901237336" lon="8.497255684955979"><ele>61.2</ele><time>2026-04-18T09:53:01Z</time></trkpt><trkpt lat="39.43615645184949" lon="8.497363404193894"><ele>61.8</ele><time>2026-04-18T09:53:02Z</time></trkpt><trkpt lat="39.43610166111244" lon="8.497460432730989"><ele>62.4</ele><time>2026-04-18T09:53:03Z</time></trkpt><trkpt lat="39.4360573695872" lon="8.49754662047866"><ele>63.0</ele><time>2026-04-18T09:53:04Z</time></trkpt><trkpt lat="39.43601970563378" lon="8.49762045211476"><ele>63.0</ele><time>2026-04-18T09:53:05Z</time></trkpt><trkpt lat="39.43597069681119" lon="8.497700978305922"><ele>63.0</ele><time>2026-04-18T09:53:06Z</time></trkpt><trkpt lat="39.435914468702656" lon="8.497784098565248"><ele>63.0</ele><time>2026-04-18T09:53:07Z</time></trkpt><trkpt lat="39.43585191739756" lon="8.497872575760411"><ele>63.0</ele><time>2026-04-18T09:53:08Z</time></trkpt><trkpt lat="39.43578801680723" lon="8.497962811132382"><ele>63.0</ele><time>2026-04-18T09:53:09Z</time></trkpt><trkpt lat="39.4357261041591" lon="8.498048220696607"><ele>63.0</ele><time>2026-04-18T09:53:10Z</time></trkpt><trkpt lat="39.435669518725376" lon="8.498129039326187"><ele>62.714285714285715</ele><time>2026-04-18T09:53:11Z</time></trkpt><trkpt lat="39.43561759571101" lon="8.49819963665406"><ele>62.42857142857143</ele><time>2026-04-18T09:53:12Z</time></trkpt><trkpt lat="39.43556927841022" lon="8.498267489053982"><ele>62.14285714285714</ele><time>2026-04-18T09:53:13Z</time></trkpt><trkpt lat="39.43552120639097" lon="8.498336358311073"><ele>61.857142857142854</ele><time>2026-04-18T09:53:14Z</time></trkpt><trkpt lat="39.435469929664535" lon="8.498405716618954"><ele>61.57142857142857</ele><time>2026-04-18T09:53:15Z</time></trkpt><trkpt lat="39.43541287784125" lon="8.49846815805845"><ele>61.28571428571428</ele><time>2026-04-18T09:53:16Z</time></trkpt><trkpt lat="39.435364773385345" lon="8.498521158189488"><ele>60.99999999999999</ele><time>2026-04-18T09:53:17Z</time></trkpt><trkpt lat="39.435325079199394" lon="8.498632163922412"><ele>62.199999999999996</ele><time>2026-04-18T09:53:19Z</time></trkpt><trkpt lat="39.43539506942124" lon="8.498715173953162"><ele>63.39999999999999</ele><time>2026-04-18T09:53:21Z</time></trkpt><trkpt lat="39.43548096428649" lon="8.49882220249601"><ele>64.6</ele><time>2026-04-18T09:53:23Z</time></trkpt><trkpt lat="39.4355567114117" lon="8.498932741330027"><ele>65.8</ele><time>2026-04-18T09:53:25Z</time></trkpt><trkpt lat="39.43559790128659" lon="8.499040272363686"><ele>67.0</ele><time>2026-04-18T09:53:27Z</time></trkpt><trkpt lat="39.43563542984258" lon="8.499136753722777"><ele>67.0</ele><time>2026-04-18T09:53:34Z</time></trkpt><trkpt lat="39.43559278603371" lon="8.499274474860744"><ele>67.0</ele><time>2026-04-18T09:53:37Z</time></trkpt><trkpt lat="39.43553726492571" lon="8.499377274731893"><ele>67.0</ele><time>2026-04-18T09:53:38Z</time></trkpt><trkpt lat="39.43548519876332" lon="8.499457916164314"><ele>67.0</ele><time>2026-04-18T09:53:39Z</time></trkpt><trkpt lat="39.43542306763585" lon="8.499535590528694"><ele>67.0</ele><time>2026-04-18T09:53:40Z</time></trkpt><trkpt lat="39.43536125069182" lon="8.499598009167851"><ele>66.42857142857143</ele><time>2026-04-18T09:53:41Z</time></trkpt><trkpt lat="39.43530754604096" lon="8.499655643121537"><ele>65.85714285714286</ele><time>2026-04-18T09:53:42Z</time></trkpt><trkpt lat="39.43525447483746" lon="8.499713017624117"><ele>65.28571428571428</ele><time>2026-04-18T09:53:43Z</time></trkpt><trkpt lat="39.43520123801948" lon="8.499776198672954"><ele>64.71428571428572</ele><time>2026-04-18T09:53:44Z</time></trkpt><trkpt lat="39.43513224078215" lon="8.499816878623543"><ele>64.14285714285714</ele><time>2026-04-18T09:53:45Z</time></trkpt><trkpt lat="39.43507933855379" lon="8.49987450033752"><ele>63.57142857142857</ele><time>2026-04-18T09:53:46Z</time></trkpt><trkpt lat="39.43503208626467" lon="8.49993094586654"><ele>63.0</ele><time>2026-04-18T09:53:47Z</time></trkpt><trkpt lat="39.43498588948931" lon="8.499986392875716"><ele>63.0</ele><time>2026-04-18T09:53:48Z</time></trkpt><trkpt lat="39.43494952999752" lon="8.500053489804118"><ele>63.0</ele><time>2026-04-18T09:53:49Z</time></trkpt><trkpt lat="39.43484247792784" lon="8.500116353238331"><ele>63.0</ele><time>2026-04-18T09:53:51Z</time></trkpt><trkpt lat="39.434728719499354" lon="8.500142407588545"><ele>63.0</ele><time>2026-04-18T09:53:53Z</time></trkpt><trkpt lat="39.43466243543363" lon="8.50012946461089"><ele>63.0</ele><time>2026-04-18T09:53:54Z</time></trkpt><trkpt lat="39.43459615554654" lon="8.500115871972188"><ele>63.0</ele><time>2026-04-18T09:53:55Z</time></trkpt><trkpt lat="39.434529813569476" lon="8.500104748766269"><ele>63.333333333333336</ele><time>2026-04-18T09:53:56Z</time></trkpt><trkpt lat="39.434467406397715" lon="8.500072688118241"><ele>63.66666666666667</ele><time>2026-04-18T09:53:57Z</time></trkpt><trkpt lat="39.434403293224854" lon="8.500056438037465"><ele>64.0</ele><time>2026-04-18T09:53:58Z</time></trkpt><trkpt lat="39.4343378246912" lon="8.500058789146468"><ele>64.33333333333334</ele><time>2026-04-18T09:53:59Z</time></trkpt><trkpt lat="39.43421968494833" lon="8.500030729635677"><ele>64.66666666666667</ele><time>2026-04-18T09:54:01Z</time></trkpt><trkpt lat="39.43415538293412" lon="8.500018895339073"><ele>65.0</ele><time>2026-04-18T09:54:02Z</time></trkpt><trkpt lat="39.434083499775824" lon="8.500008152551917"><ele>65.0</ele><time>2026-04-18T09:54:03Z</time></trkpt><trkpt lat="39.43401123535132" lon="8.50002352909685"><ele>65.0</ele><time>2026-04-18T09:54:04Z</time></trkpt><trkpt lat="39.43394082993598" lon="8.50006553139147"><ele>65.0</ele><time>2026-04-18T09:54:05Z</time></trkpt><trkpt lat="39.43388064370889" lon="8.500114495720153"><ele>65.0</ele><time>2026-04-18T09:54:06Z</time></trkpt><trkpt lat="39.43382390992754" lon="8.50015892162843"><ele>65.0</ele><time>2026-04-18T09:54:07Z</time></trkpt><trkpt lat="39.4337707493763" lon="8.500203414526576"><ele>65.0</ele><time>2026-04-18T09:54:08Z</time></trkpt><trkpt lat="39.4336752883214" lon="8.500287930792513"><ele>65.33333333333334</ele><time>2026-04-18T09:54:10Z</time></trkpt><trkpt lat="39.433590230262226" lon="8.50040529597362"><ele>65.66666666666667</ele><time>2026-04-18T09:54:12Z</time></trkpt><trkpt lat="39.43354424183185" lon="8.500476939041398"><ele>66.0</ele><time>2026-04-18T09:54:13Z</time></trkpt><trkpt lat="39.4335032555372" lon="8.500556672766505"><ele>66.33333333333333</ele><time>2026-04-18T09:54:14Z</time></trkpt><trkpt lat="39.43346937036106" lon="8.500637065724145"><ele>66.66666666666666</ele><time>2026-04-18T09:54:15Z</time></trkpt><trkpt lat="39.43344190418329" lon="8.500711521591908"><ele>67.0</ele><time>2026-04-18T09:54:16Z</time></trkpt><trkpt lat="39.4333832437735" lon="8.500856783399014"><ele>67.0</ele><time>2026-04-18T09:54:18Z</time></trkpt><trkpt lat="39.43335189966571" lon="8.500939823301037"><ele>67.0</ele><time>2026-04-18T09:54:19Z</time></trkpt><trkpt lat="39.43331933030356" lon="8.501020340841439"><ele>67.0</ele><time>2026-04-18T09:54:20Z</time></trkpt><trkpt lat="39.43322955574064" lon="8.501124424392403"><ele>67.0</ele><time>2026-04-18T09:54:22Z</time></trkpt><trkpt lat="39.43316649544623" lon="8.50115420100602"><ele>67.0</ele><time>2026-04-18T09:54:23Z</time></trkpt><trkpt lat="39.433092489501774" lon="8.501173406574312"><ele>67.0</ele><time>2026-04-18T09:54:24Z</time></trkpt><trkpt lat="39.433018556690456" lon="8.50117244501136"><ele>67.66666666666666</ele><time>2026-04-18T09:54:25Z</time></trkpt><trkpt lat="39.432953099546104" lon="8.50114418294804"><ele>68.33333333333333</ele><time>2026-04-18T09:54:26Z</time></trkpt><trkpt lat="39.432888780746865" lon="8.50109962914925"><ele>69.0</ele><time>2026-04-18T09:54:27Z</time></trkpt><trkpt lat="39.4328234889171" lon="8.50104770937757"><ele>69.66666666666667</ele><time>2026-04-18T09:54:28Z</time></trkpt><trkpt lat="39.43275929265402" lon="8.500990102998106"><ele>70.33333333333334</ele><time>2026-04-18T09:54:29Z</time></trkpt><trkpt lat="39.43269326250742" lon="8.500931767178418"><ele>71.0</ele><time>2026-04-18T09:54:30Z</time></trkpt><trkpt lat="39.432621885944286" lon="8.500876111986901"><ele>71.0</ele><time>2026-04-18T09:54:31Z</time></trkpt><trkpt lat="39.43254572755622" lon="8.500825190301297"><ele>71.0</ele><time>2026-04-18T09:54:32Z</time></trkpt><trkpt lat="39.43246409119627" lon="8.50078214320806"><ele>71.0</ele><time>2026-04-18T09:54:33Z</time></trkpt><trkpt lat="39.43238324470367" lon="8.50074258913488"><ele>71.0</ele><time>2026-04-18T09:54:34Z</time></trkpt><trkpt lat="39.43229648089251" lon="8.500700500022853"><ele>71.0</ele><time>2026-04-18T09:54:35Z</time></trkpt><trkpt lat="39.43220002039762" lon="8.500647192546424"><ele>70.75</ele><time>2026-04-18T09:54:36Z</time></trkpt><trkpt lat="39.43209493562329" lon="8.50058676797961"><ele>70.5</ele><time>2026-04-18T09:54:37Z</time></trkpt><trkpt lat="39.4319843691261" lon="8.500536568033702"><ele>70.25</ele><time>2026-04-18T09:54:38Z</time></trkpt><trkpt lat="39.43187629820029" lon="8.5004930797861"><ele>70.0</ele><time>2026-04-18T09:54:39Z</time></trkpt><trkpt lat="39.43177328568496" lon="8.500452322050391"><ele>74.0</ele><time>2026-04-18T09:54:40Z</time></trkpt><trkpt lat="39.43166838445241" lon="8.500415141997196"><ele>78.0</ele><time>2026-04-18T09:54:41Z</time></trkpt><trkpt lat="39.43155775791298" lon="8.500380344669013"><ele>82.0</ele><time>2026-04-18T09:54:42Z</time></trkpt><trkpt lat="39.431445086882825" lon="8.500341241891405"><ele>86.0</ele><time>2026-04-18T09:54:43Z</time></trkpt><trkpt lat="39.43133063240162" lon="8.50030261525554"><ele>86.0</ele><time>2026-04-18T09:54:44Z</time></trkpt><trkpt lat="39.43121711993287" lon="8.500271193117074"><ele>86.0</ele><time>2026-04-18T09:54:45Z</time></trkpt><trkpt lat="39.43110844038755" lon="8.500240120144952"><ele>86.0</ele><time>2026-04-18T09:54:46Z</time></trkpt><trkpt lat="39.43101080528502" lon="8.500216593677553"><ele>86.0</ele><time>2026-04-18T09:54:47Z</time></trkpt><trkpt lat="39.43091292718741" lon="8.500222982119524"><ele>86.0</ele><time>2026-04-18T09:54:48Z</time></trkpt><trkpt lat="39.430816660250784" lon="8.500271294352792"><ele>86.0</ele><time>2026-04-18T09:54:49Z</time></trkpt><trkpt lat="39.4307227530624" lon="8.50034627175674"><ele>86.0</ele><time>2026-04-18T09:54:50Z</time></trkpt><trkpt lat="39.43062530627043" lon="8.500432689597526"><ele>86.0</ele><time>2026-04-18T09:54:51Z</time></trkpt><trkpt lat="39.430524261963456" lon="8.500524853759103"><ele>86.0</ele><time>2026-04-18T09:54:52Z</time></trkpt><trkpt lat="39.43041101688639" lon="8.500617592604279"><ele>83.25</ele><time>2026-04-18T09:54:53Z</time></trkpt><trkpt lat="39.430295014181894" lon="8.500707635749182"><ele>80.5</ele><time>2026-04-18T09:54:54Z</time></trkpt><trkpt lat="39.43019171112041" lon="8.500798761332405"><ele>77.75</ele><time>2026-04-18T09:54:55Z</time></trkpt><trkpt lat="39.43011157027267" lon="8.500895895961307"><ele>75.0</ele><time>2026-04-18T09:54:56Z</time></trkpt><trkpt lat="39.43007633971598" lon="8.500994077616452"><ele>75.0</ele><time>2026-04-18T09:54:57Z</time></trkpt><trkpt lat="39.43005446320672" lon="8.50110210742128"><ele>75.0</ele><time>2026-04-18T09:54:58Z</time></trkpt><trkpt lat="39.43008977922861" lon="8.501224867867327"><ele>75.0</ele><time>2026-04-18T09:54:59Z</time></trkpt><trkpt lat="39.43010701977396" lon="8.501347598941907"><ele>75.0</ele><time>2026-04-18T09:55:00Z</time></trkpt><trkpt lat="39.43010668254025" lon="8.501461098333426"><ele>75.0</ele><time>2026-04-18T09:55:01Z</time></trkpt><trkpt lat="39.4300807832448" lon="8.501574174003649"><ele>74.2</ele><time>2026-04-18T09:55:02Z</time></trkpt><trkpt lat="39.43002797723793" lon="8.501676704758236"><ele>73.4</ele><time>2026-04-18T09:55:03Z</time></trkpt><trkpt lat="39.42995177058336" lon="8.501747350431874"><ele>72.6</ele><time>2026-04-18T09:55:04Z</time></trkpt><trkpt lat="39.42985741292693" lon="8.501776242632342"><ele>71.8</ele><time>2026-04-18T09:55:05Z</time></trkpt><trkpt lat="39.429755380363424" lon="8.501766036969661"><ele>71.0</ele><time>2026-04-18T09:55:06Z</time></trkpt><trkpt lat="39.429647905494214" lon="8.501736213977397"><ele>74.25</ele><time>2026-04-18T09:55:07Z</time></trkpt><trkpt lat="39.42953215712928" lon="8.501729227378517"><ele>77.5</ele><time>2026-04-18T09:55:08Z</time></trkpt><trkpt lat="39.42941264663118" lon="8.501762119903402"><ele>80.75</ele><time>2026-04-18T09:55:09Z</time></trkpt><trkpt lat="39.42929060955788" lon="8.501805283287792"><ele>84.0</ele><time>2026-04-18T09:55:10Z</time></trkpt><trkpt lat="39.42916000217278" lon="8.501854936577107"><ele>84.0</ele><time>2026-04-18T09:55:11Z</time></trkpt><trkpt lat="39.429019612216756" lon="8.501922945660489"><ele>84.0</ele><time>2026-04-18T09:55:12Z</time></trkpt><trkpt lat="39.428845508930266" lon="8.50201271558377"><ele>84.0</ele><time>2026-04-18T09:55:13Z</time></trkpt><trkpt lat="39.42866801007507" lon="8.502157536911065"><ele>84.33333333333333</ele><time>2026-04-18T09:55:14Z</time></trkpt><trkpt lat="39.42848395770743" lon="8.502280006051553"><ele>84.66666666666666</ele><time>2026-04-18T09:55:15Z</time></trkpt><trkpt lat="39.42830420727603" lon="8.502416759176446"><ele>85.0</ele><time>2026-04-18T09:55:16Z</time></trkpt><trkpt lat="39.42812090820504" lon="8.502549630344603"><ele>93.0</ele><time>2026-04-18T09:55:17Z</time></trkpt><trkpt lat="39.427934186769" lon="8.502663176220862"><ele>101.0</ele><time>2026-04-18T09:55:18Z</time></trkpt><trkpt lat="39.42774047799701" lon="8.502731774121745"><ele>109.0</ele><time>2026-04-18T09:55:19Z</time></trkpt><trkpt lat="39.42755128173257" lon="8.502779325780327"><ele>109.0</ele><time>2026-04-18T09:55:20Z</time></trkpt><trkpt lat="39.42737853882888" lon="8.502859396644736"><ele>109.0</ele><time>2026-04-18T09:55:21Z</time></trkpt><trkpt lat="39.42722925220867" lon="8.502999438624862"><ele>109.0</ele><time>2026-04-18T09:55:22Z</time></trkpt><trkpt lat="39.4270984757106" lon="8.503193771452715"><ele>105.66666666666667</ele><time>2026-04-18T09:55:23Z</time></trkpt><trkpt lat="39.42696414216934" lon="8.503388294186774"><ele>102.33333333333334</ele><time>2026-04-18T09:55:24Z</time></trkpt><trkpt lat="39.42680942369943" lon="8.503557784736065"><ele>99.0</ele><time>2026-04-18T09:55:25Z</time></trkpt><trkpt lat="39.426644210650025" lon="8.503698414814751"><ele>97.25</ele><time>2026-04-18T09:55:26Z</time></trkpt><trkpt lat="39.42648673415715" lon="8.5038212808792"><ele>95.5</ele><time>2026-04-18T09:55:27Z</time></trkpt><trkpt lat="39.42636663191526" lon="8.503914952215176"><ele>93.75</ele><time>2026-04-18T09:55:28Z</time></trkpt><trkpt lat="39.426246860333954" lon="8.503948806738538"><ele>92.0</ele><time>2026-04-18T09:55:29Z</time></trkpt><trkpt lat="39.42614284299914" lon="8.503915423643553"><ele>92.0</ele><time>2026-04-18T09:55:30Z</time></trkpt><trkpt lat="39.426084505535485" lon="8.503791428141303"><ele>92.0</ele><time>2026-04-18T09:55:31Z</time></trkpt><trkpt lat="39.426036990273516" lon="8.503644950311617"><ele>92.0</ele><time>2026-04-18T09:55:32Z</time></trkpt><trkpt lat="39.4259730718783" lon="8.503464834530403"><ele>92.0</ele><time>2026-04-18T09:55:33Z</time></trkpt><trkpt lat="39.425904219530636" lon="8.50327342590875"><ele>91.33333333333334</ele><time>2026-04-18T09:55:34Z</time></trkpt><trkpt lat="39.425856313118125" lon="8.50307276902713"><ele>90.66666666666667</ele><time>2026-04-18T09:55:35Z</time></trkpt><trkpt lat="39.42587414719922" lon="8.502862222121898"><ele>90.0</ele><time>2026-04-18T09:55:36Z</time></trkpt><trkpt lat="39.42591089473248" lon="8.502646766676854"><ele>92.0</ele><time>2026-04-18T09:55:37Z</time></trkpt><trkpt lat="39.42594928016944" lon="8.50241478626977"><ele>94.0</ele><time>2026-04-18T09:55:38Z</time></trkpt><trkpt lat="39.425988726238494" lon="8.502181928001104"><ele>96.0</ele><time>2026-04-18T09:55:39Z</time></trkpt><trkpt lat="39.42601705763555" lon="8.50197545804002"><ele>98.33333333333334</ele><time>2026-04-18T09:55:40Z</time></trkpt><trkpt lat="39.42601432061078" lon="8.501781941161104"><ele>100.66666666666667</ele><time>2026-04-18T09:55:41Z</time></trkpt><trkpt lat="39.42596018460062" lon="8.501594716132344"><ele>103.0</ele><time>2026-04-18T09:55:42Z</time></trkpt><trkpt lat="39.42587831153387" lon="8.501418438731847"><ele>103.0</ele><time>2026-04-18T09:55:43Z</time></trkpt><trkpt lat="39.425795772504365" lon="8.501276484305485"><ele>103.0</ele><time>2026-04-18T09:55:44Z</time></trkpt><trkpt lat="39.425688974015564" lon="8.50120398209876"><ele>103.0</ele><time>2026-04-18T09:55:45Z</time></trkpt><trkpt lat="39.42555929733758" lon="8.501198069949805"><ele>103.0</ele><time>2026-04-18T09:55:46Z</time></trkpt><trkpt lat="39.425424191110075" lon="8.501202905448226"><ele>104.0</ele><time>2026-04-18T09:55:47Z</time></trkpt><trkpt lat="39.42528309123998" lon="8.501147238285432"><ele>105.0</ele><time>2026-04-18T09:55:48Z</time></trkpt><trkpt lat="39.425129163645" lon="8.501094917802689"><ele>106.0</ele><time>2026-04-18T09:55:49Z</time></trkpt><trkpt lat="39.42498567616565" lon="8.500997399984948"><ele>106.0</ele><time>2026-04-18T09:55:50Z</time></trkpt><trkpt lat="39.424849474679874" lon="8.500862863632932"><ele>106.0</ele><time>2026-04-18T09:55:51Z</time></trkpt><trkpt lat="39.42473968936981" lon="8.500680031133292"><ele>106.0</ele><time>2026-04-18T09:55:52Z</time></trkpt><trkpt lat="39.424631232333674" lon="8.500479052121655"><ele>107.33333333333334</ele><time>2026-04-18T09:55:53Z</time></trkpt><trkpt lat="39.42451918748334" lon="8.500299115807207"><ele>108.66666666666666</ele><time>2026-04-18T09:55:54Z</time></trkpt><trkpt lat="39.42443824372782" lon="8.500131692302471"><ele>110.0</ele><time>2026-04-18T09:55:55Z</time></trkpt><trkpt lat="39.42436631584166" lon="8.500009779780894"><ele>110.0</ele><time>2026-04-18T09:55:56Z</time></trkpt><trkpt lat="39.424276843945535" lon="8.499942400571095"><ele>110.0</ele><time>2026-04-18T09:55:57Z</time></trkpt><trkpt lat="39.424171146669416" lon="8.499956231025246"><ele>110.0</ele><time>2026-04-18T09:55:58Z</time></trkpt><trkpt lat="39.424056988859874" lon="8.500043380520337"><ele>110.0</ele><time>2026-04-18T09:55:59Z</time></trkpt><trkpt lat="39.42392629949578" lon="8.500132640895949"><ele>109.0</ele><time>2026-04-18T09:56:00Z</time></trkpt><trkpt lat="39.423795326474156" lon="8.500237135987934"><ele>108.0</ele><time>2026-04-18T09:56:01Z</time></trkpt><trkpt lat="39.423692650862804" lon="8.50033282114101"><ele>107.0</ele><time>2026-04-18T09:56:02Z</time></trkpt><trkpt lat="39.423577588953975" lon="8.500403797306863"><ele>106.0</ele><time>2026-04-18T09:56:03Z</time></trkpt><trkpt lat="39.42346886669415" lon="8.500453368963797"><ele>106.0</ele><time>2026-04-18T09:56:04Z</time></trkpt><trkpt lat="39.423351441710075" lon="8.500483068999324"><ele>106.0</ele><time>2026-04-18T09:56:05Z</time></trkpt><trkpt lat="39.42322921095315" lon="8.500501975320466"><ele>106.0</ele><time>2026-04-18T09:56:06Z</time></trkpt><trkpt lat="39.42310876259615" lon="8.500540829389058"><ele>106.0</ele><time>2026-04-18T09:56:07Z</time></trkpt><trkpt lat="39.422983579418194" lon="8.500607945018597"><ele>105.5</ele><time>2026-04-18T09:56:08Z</time></trkpt><trkpt lat="39.422857279727786" lon="8.500685588134235"><ele>105.0</ele><time>2026-04-18T09:56:09Z</time></trkpt><trkpt lat="39.422735269363784" lon="8.500748225093858"><ele>104.5</ele><time>2026-04-18T09:56:10Z</time></trkpt><trkpt lat="39.42262163151381" lon="8.500760474826993"><ele>104.0</ele><time>2026-04-18T09:56:11Z</time></trkpt><trkpt lat="39.42253206451668" lon="8.50070843600757"><ele>104.0</ele><time>2026-04-18T09:56:12Z</time></trkpt><trkpt lat="39.422479752819214" lon="8.500609386687403"><ele>104.0</ele><time>2026-04-18T09:56:13Z</time></trkpt><trkpt lat="39.42246971490275" lon="8.500470702553075"><ele>104.0</ele><time>2026-04-18T09:56:14Z</time></trkpt><trkpt lat="39.422513892012226" lon="8.500314985793816"><ele>104.0</ele><time>2026-04-18T09:56:15Z</time></trkpt><trkpt lat="39.42258019867558" lon="8.500162468112094"><ele>106.0</ele><time>2026-04-18T09:56:16Z</time></trkpt><trkpt lat="39.422605921143955" lon="8.500005653033188"><ele>108.0</ele><time>2026-04-18T09:56:17Z</time></trkpt><trkpt lat="39.42257403511853" lon="8.499853706592074"><ele>110.0</ele><time>2026-04-18T09:56:18Z</time></trkpt><trkpt lat="39.42249790486939" lon="8.499708639969693"><ele>112.0</ele><time>2026-04-18T09:56:19Z</time></trkpt><trkpt lat="39.422415016196176" lon="8.499562062946973"><ele>114.5</ele><time>2026-04-18T09:56:20Z</time></trkpt><trkpt lat="39.422344846317394" lon="8.49941227000679"><ele>117.0</ele><time>2026-04-18T09:56:21Z</time></trkpt><trkpt lat="39.422293675667134" lon="8.499247848912063"><ele>119.5</ele><time>2026-04-18T09:56:22Z</time></trkpt><trkpt lat="39.4222497687932" lon="8.499065087666136"><ele>122.0</ele><time>2026-04-18T09:56:23Z</time></trkpt><trkpt lat="39.42221776406459" lon="8.498884165039025"><ele>124.5</ele><time>2026-04-18T09:56:24Z</time></trkpt><trkpt lat="39.42219397447315" lon="8.498707211326595"><ele>127.0</ele><time>2026-04-18T09:56:25Z</time></trkpt><trkpt lat="39.42217585382213" lon="8.49853466709799"><ele>129.5</ele><time>2026-04-18T09:56:26Z</time></trkpt><trkpt lat="39.42214933188061" lon="8.498365777680796"><ele>132.0</ele><time>2026-04-18T09:56:27Z</time></trkpt><trkpt lat="39.42210505723389" lon="8.498202045323048"><ele>125.0</ele><time>2026-04-18T09:56:28Z</time></trkpt><trkpt lat="39.422047006607116" lon="8.498031390543694"><ele>118.0</ele><time>2026-04-18T09:56:29Z</time></trkpt><trkpt lat="39.42192945954549" lon="8.497890943340215"><ele>111.0</ele><time>2026-04-18T09:56:30Z</time></trkpt><trkpt lat="39.421812379475554" lon="8.497740910404847"><ele>111.0</ele><time>2026-04-18T09:56:31Z</time></trkpt><trkpt lat="39.42169864939408" lon="8.497587174087395"><ele>111.0</ele><time>2026-04-18T09:56:32Z</time></trkpt><trkpt lat="39.42161323320173" lon="8.497414527126573"><ele>111.0</ele><time>2026-04-18T09:56:33Z</time></trkpt><trkpt lat="39.42156945078092" lon="8.4972207326858"><ele>113.33333333333334</ele><time>2026-04-18T09:56:34Z</time></trkpt><trkpt lat="39.42156815981178" lon="8.497011531538227"><ele>115.66666666666667</ele><time>2026-04-18T09:56:35Z</time></trkpt><trkpt lat="39.4216017372315" lon="8.496795907087744"><ele>118.0</ele><time>2026-04-18T09:56:36Z</time></trkpt><trkpt lat="39.42163147002108" lon="8.496586909722891"><ele>118.0</ele><time>2026-04-18T09:56:37Z</time></trkpt><trkpt lat="39.421649457478544" lon="8.496382391494771"><ele>118.0</ele><time>2026-04-18T09:56:38Z</time></trkpt><trkpt lat="39.421636228956714" lon="8.496199097397726"><ele>118.0</ele><time>2026-04-18T09:56:39Z</time></trkpt><trkpt lat="39.42160202773248" lon="8.496041776091447"><ele>118.0</ele><time>2026-04-18T09:56:40Z</time></trkpt><trkpt lat="39.421538877787256" lon="8.495923436075147"><ele>116.5</ele><time>2026-04-18T09:56:41Z</time></trkpt><trkpt lat="39.42144689714851" lon="8.495857366342399"><ele>115.0</ele><time>2026-04-18T09:56:42Z</time></trkpt><trkpt lat="39.42133250418382" lon="8.495841558159967"><ele>113.5</ele><time>2026-04-18T09:56:43Z</time></trkpt><trkpt lat="39.42121157046196" lon="8.495858996338992"><ele>112.0</ele><time>2026-04-18T09:56:44Z</time></trkpt><trkpt lat="39.4210893429062" lon="8.495854620606458"><ele>112.0</ele><time>2026-04-18T09:56:45Z</time></trkpt><trkpt lat="39.42099708676391" lon="8.49578032931227"><ele>112.0</ele><time>2026-04-18T09:56:46Z</time></trkpt><trkpt lat="39.42093900413731" lon="8.495640298484027"><ele>112.0</ele><time>2026-04-18T09:56:47Z</time></trkpt><trkpt lat="39.420889632215726" lon="8.49546981919291"><ele>112.0</ele><time>2026-04-18T09:56:48Z</time></trkpt><trkpt lat="39.420806769236286" lon="8.495313939454995"><ele>112.0</ele><time>2026-04-18T09:56:49Z</time></trkpt><trkpt lat="39.420700336915914" lon="8.495181767147782"><ele>112.0</ele><time>2026-04-18T09:56:50Z</time></trkpt><trkpt lat="39.42057537379775" lon="8.495047772195306"><ele>112.0</ele><time>2026-04-18T09:56:51Z</time></trkpt><trkpt lat="39.42043529498554" lon="8.49492229050273"><ele>112.0</ele><time>2026-04-18T09:56:52Z</time></trkpt><trkpt lat="39.42028381608507" lon="8.494811397633178"><ele>112.0</ele><time>2026-04-18T09:56:53Z</time></trkpt><trkpt lat="39.42012628036183" lon="8.494708318815377"><ele>112.0</ele><time>2026-04-18T09:56:54Z</time></trkpt><trkpt lat="39.41998475929815" lon="8.494582867518183"><ele>115.25</ele><time>2026-04-18T09:56:55Z</time></trkpt><trkpt lat="39.419844434122055" lon="8.494497668391245"><ele>118.5</ele><time>2026-04-18T09:56:56Z</time></trkpt><trkpt lat="39.41974060239201" lon="8.49437784010864"><ele>121.75</ele><time>2026-04-18T09:56:57Z</time></trkpt><trkpt lat="39.419680020078744" lon="8.494229673440454"><ele>125.0</ele><time>2026-04-18T09:56:58Z</time></trkpt><trkpt lat="39.41966622155531" lon="8.494060598112227"><ele>125.0</ele><time>2026-04-18T09:56:59Z</time></trkpt><trkpt lat="39.41968566357275" lon="8.49387816882639"><ele>125.0</ele><time>2026-04-18T09:57:00Z</time></trkpt><trkpt lat="39.41968456820944" lon="8.493699538763959"><ele>125.0</ele><time>2026-04-18T09:57:01Z</time></trkpt><trkpt lat="39.41962635598328" lon="8.49352333559888"><ele>125.0</ele><time>2026-04-18T09:57:02Z</time></trkpt><trkpt lat="39.41953355544583" lon="8.493378715863578"><ele>124.0</ele><time>2026-04-18T09:57:03Z</time></trkpt><trkpt lat="39.4194193350592" lon="8.493274986447798"><ele>123.0</ele><time>2026-04-18T09:57:04Z</time></trkpt><trkpt lat="39.41931671149582" lon="8.49317893178312"><ele>122.0</ele><time>2026-04-18T09:57:05Z</time></trkpt><trkpt lat="39.41926828769712" lon="8.493047806748649"><ele>121.0</ele><time>2026-04-18T09:57:06Z</time></trkpt><trkpt lat="39.41927589791898" lon="8.492912712241171"><ele>121.0</ele><time>2026-04-18T09:57:07Z</time></trkpt><trkpt lat="39.41934556408013" lon="8.492815491041263"><ele>121.0</ele><time>2026-04-18T09:57:08Z</time></trkpt><trkpt lat="39.41943607618007" lon="8.492698938804645"><ele>121.0</ele><time>2026-04-18T09:57:09Z</time></trkpt><trkpt lat="39.419499522223965" lon="8.492569781160388"><ele>121.0</ele><time>2026-04-18T09:57:10Z</time></trkpt><trkpt lat="39.41951887902131" lon="8.492421377791194"><ele>121.0</ele><time>2026-04-18T09:57:11Z</time></trkpt><trkpt lat="39.419478308069785" lon="8.492257358646649"><ele>121.0</ele><time>2026-04-18T09:57:12Z</time></trkpt><trkpt lat="39.41940831281094" lon="8.492092776288613"><ele>121.0</ele><time>2026-04-18T09:57:13Z</time></trkpt><trkpt lat="39.41931964531889" lon="8.49193139301445"><ele>121.0</ele><time>2026-04-18T09:57:14Z</time></trkpt><trkpt lat="39.41920893748653" lon="8.491796945903985"><ele>122.0</ele><time>2026-04-18T09:57:15Z</time></trkpt><trkpt lat="39.41906914437952" lon="8.491692243001246"><ele>123.0</ele><time>2026-04-18T09:57:16Z</time></trkpt><trkpt lat="39.41891774783364" lon="8.491626356085877"><ele>124.0</ele><time>2026-04-18T09:57:17Z</time></trkpt><trkpt lat="39.418772185772816" lon="8.491554833423374"><ele>124.0</ele><time>2026-04-18T09:57:18Z</time></trkpt><trkpt lat="39.41863904552214" lon="8.491500339435131"><ele>124.0</ele><time>2026-04-18T09:57:19Z</time></trkpt><trkpt lat="39.41853409844946" lon="8.491459554474163"><ele>124.0</ele><time>2026-04-18T09:57:20Z</time></trkpt><trkpt lat="39.41847364136603" lon="8.491341266982277"><ele>124.0</ele><time>2026-04-18T09:57:21Z</time></trkpt><trkpt lat="39.41844887291381" lon="8.491193421043667"><ele>124.75</ele><time>2026-04-18T09:57:22Z</time></trkpt><trkpt lat="39.41848401101365" lon="8.4910495235635"><ele>125.5</ele><time>2026-04-18T09:57:23Z</time></trkpt><trkpt lat="39.41853316797223" lon="8.490892022769431"><ele>126.25</ele><time>2026-04-18T09:57:24Z</time></trkpt><trkpt lat="39.41857689733392" lon="8.490717538269006"><ele>127.0</ele><time>2026-04-18T09:57:25Z</time></trkpt><trkpt lat="39.41862205761237" lon="8.490540104312181"><ele>127.5</ele><time>2026-04-18T09:57:26Z</time></trkpt><trkpt lat="39.41866293581953" lon="8.490371665714031"><ele>128.0</ele><time>2026-04-18T09:57:27Z</time></trkpt><trkpt lat="39.41867328899891" lon="8.490212931837453"><ele>128.5</ele><time>2026-04-18T09:57:28Z</time></trkpt><trkpt lat="39.41863884454504" lon="8.490050251560145"><ele>129.0</ele><time>2026-04-18T09:57:29Z</time></trkpt><trkpt lat="39.41856441964143" lon="8.489881323770701"><ele>129.0</ele><time>2026-04-18T09:57:30Z</time></trkpt><trkpt lat="39.41849077319035" lon="8.48972236017697"><ele>129.0</ele><time>2026-04-18T09:57:31Z</time></trkpt><trkpt lat="39.41841623155821" lon="8.48960410921264"><ele>129.0</ele><time>2026-04-18T09:57:32Z</time></trkpt><trkpt lat="39.41831392571213" lon="8.489545399415547"><ele>129.0</ele><time>2026-04-18T09:57:33Z</time></trkpt><trkpt lat="39.41818880719422" lon="8.489544132308108"><ele>129.25</ele><time>2026-04-18T09:57:34Z</time></trkpt><trkpt lat="39.41804826635034" lon="8.489585322849894"><ele>129.5</ele><time>2026-04-18T09:57:35Z</time></trkpt><trkpt lat="39.41790821117394" lon="8.489666867905092"><ele>129.75</ele><time>2026-04-18T09:57:36Z</time></trkpt><trkpt lat="39.4177901458994" lon="8.48978434269581"><ele>130.0</ele><time>2026-04-18T09:57:37Z</time></trkpt><trkpt lat="39.417677475520705" lon="8.489852860081157"><ele>130.0</ele><time>2026-04-18T09:57:38Z</time></trkpt><trkpt lat="39.41757822640501" lon="8.48989598276967"><ele>130.0</ele><time>2026-04-18T09:57:39Z</time></trkpt><trkpt lat="39.417475448801426" lon="8.489858692409333"><ele>130.0</ele><time>2026-04-18T09:57:40Z</time></trkpt><trkpt lat="39.41740457320027" lon="8.489764622720287"><ele>130.0</ele><time>2026-04-18T09:57:41Z</time></trkpt><trkpt lat="39.417358856267164" lon="8.489619279828656"><ele>130.0</ele><time>2026-04-18T09:57:42Z</time></trkpt><trkpt lat="39.41732881038884" lon="8.489441382980777"><ele>130.66666666666669</ele><time>2026-04-18T09:57:43Z</time></trkpt><trkpt lat="39.4172528107317" lon="8.489275477802378"><ele>131.33333333333334</ele><time>2026-04-18T09:57:44Z</time></trkpt><trkpt lat="39.41714379395407" lon="8.489129296885155"><ele>132.0</ele><time>2026-04-18T09:57:45Z</time></trkpt><trkpt lat="39.41702936620552" lon="8.489015461600722"><ele>132.0</ele><time>2026-04-18T09:57:46Z</time></trkpt><trkpt lat="39.416919171137195" lon="8.488908855949822"><ele>132.0</ele><time>2026-04-18T09:57:47Z</time></trkpt><trkpt lat="39.416866343182775" lon="8.488787877658998"><ele>132.0</ele><time>2026-04-18T09:57:48Z</time></trkpt><trkpt lat="39.416876308466286" lon="8.488681072291847"><ele>132.0</ele><time>2026-04-18T09:57:49Z</time></trkpt><trkpt lat="39.41695679760112" lon="8.488634845365734"><ele>132.0</ele><time>2026-04-18T09:57:50Z</time></trkpt><trkpt lat="39.41703474055517" lon="8.488515618787718"><ele>132.5</ele><time>2026-04-18T09:57:51Z</time></trkpt><trkpt lat="39.41710664909677" lon="8.488396100887863"><ele>133.0</ele><time>2026-04-18T09:57:52Z</time></trkpt><trkpt lat="39.41713927655718" lon="8.488243312510749"><ele>133.5</ele><time>2026-04-18T09:57:53Z</time></trkpt><trkpt lat="39.417122761251896" lon="8.488076492624332"><ele>134.0</ele><time>2026-04-18T09:57:54Z</time></trkpt><trkpt lat="39.417066775463155" lon="8.487906597894343"><ele>134.75</ele><time>2026-04-18T09:57:55Z</time></trkpt><trkpt lat="39.41698561660656" lon="8.48776108578151"><ele>135.5</ele><time>2026-04-18T09:57:56Z</time></trkpt><trkpt lat="39.41688478233575" lon="8.487637872800887"><ele>136.25</ele><time>2026-04-18T09:57:57Z</time></trkpt><trkpt lat="39.416768089281945" lon="8.487522420673326"><ele>137.0</ele><time>2026-04-18T09:57:58Z</time></trkpt><trkpt lat="39.416655912544805" lon="8.487416210793201"><ele>137.0</ele><time>2026-04-18T09:57:59Z</time></trkpt><trkpt lat="39.4165460027495" lon="8.487292050037954"><ele>137.0</ele><time>2026-04-18T09:58:00Z</time></trkpt><trkpt lat="39.41644679189767" lon="8.487134882195074"><ele>137.0</ele><time>2026-04-18T09:58:01Z</time></trkpt><trkpt lat="39.41635058007585" lon="8.486957039832765"><ele>141.0</ele><time>2026-04-18T09:58:02Z</time></trkpt><trkpt lat="39.41625439903836" lon="8.48677328695855"><ele>145.0</ele><time>2026-04-18T09:58:03Z</time></trkpt><trkpt lat="39.416142802840604" lon="8.486599119864865"><ele>149.0</ele><time>2026-04-18T09:58:04Z</time></trkpt><trkpt lat="39.41600938419573" lon="8.486442217499771"><ele>149.0</ele><time>2026-04-18T09:58:05Z</time></trkpt><trkpt lat="39.41585186550886" lon="8.486303451541586"><ele>149.0</ele><time>2026-04-18T09:58:06Z</time></trkpt><trkpt lat="39.41569239345176" lon="8.48617219890298"><ele>149.0</ele><time>2026-04-18T09:58:07Z</time></trkpt><trkpt lat="39.41553331616819" lon="8.486035683580786"><ele>149.66666666666666</ele><time>2026-04-18T09:58:08Z</time></trkpt><trkpt lat="39.415373519202994" lon="8.485899815354447"><ele>150.33333333333334</ele><time>2026-04-18T09:58:09Z</time></trkpt><trkpt lat="39.41521587217244" lon="8.48577065892688"><ele>151.0</ele><time>2026-04-18T09:58:10Z</time></trkpt><trkpt lat="39.41506346899383" lon="8.485642437152853"><ele>151.0</ele><time>2026-04-18T09:58:11Z</time></trkpt><trkpt lat="39.41492763868892" lon="8.485490406131806"><ele>151.0</ele><time>2026-04-18T09:58:12Z</time></trkpt><trkpt lat="39.41480600376237" lon="8.485314988319425"><ele>151.0</ele><time>2026-04-18T09:58:13Z</time></trkpt><trkpt lat="39.41469608097886" lon="8.485129494082232"><ele>151.66666666666669</ele><time>2026-04-18T09:58:14Z</time></trkpt><trkpt lat="39.41461336070587" lon="8.484943467556489"><ele>152.33333333333334</ele><time>2026-04-18T09:58:15Z</time></trkpt><trkpt lat="39.41457379167739" lon="8.484748144659306"><ele>153.0</ele><time>2026-04-18T09:58:16Z</time></trkpt><trkpt lat="39.41456602950984" lon="8.48453378087361"><ele>153.0</ele><time>2026-04-18T09:58:17Z</time></trkpt><trkpt lat="39.414556343402616" lon="8.484303270715886"><ele>153.0</ele><time>2026-04-18T09:58:18Z</time></trkpt><trkpt lat="39.414532654975694" lon="8.484069070643775"><ele>153.0</ele><time>2026-04-18T09:58:19Z</time></trkpt><trkpt lat="39.41451211216022" lon="8.48383079772013"><ele>153.66666666666666</ele><time>2026-04-18T09:58:20Z</time></trkpt><trkpt lat="39.414503899904766" lon="8.48360142487734"><ele>154.33333333333331</ele><time>2026-04-18T09:58:21Z</time></trkpt><trkpt lat="39.414522226758514" lon="8.48339262937923"><ele>155.0</ele><time>2026-04-18T09:58:22Z</time></trkpt><trkpt lat="39.414565138155666" lon="8.48320460592325"><ele>155.0</ele><time>2026-04-18T09:58:23Z</time></trkpt><trkpt lat="39.414589478335564" lon="8.483009407718777"><ele>155.0</ele><time>2026-04-18T09:58:24Z</time></trkpt><trkpt lat="39.41456256368093" lon="8.482812665483085"><ele>155.0</ele><time>2026-04-18T09:58:25Z</time></trkpt><trkpt lat="39.41450365487742" lon="8.482634528145974"><ele>155.25</ele><time>2026-04-18T09:58:26Z</time></trkpt><trkpt lat="39.414415376203564" lon="8.482486328809275"><ele>155.5</ele><time>2026-04-18T09:58:27Z</time></trkpt><trkpt lat="39.41430232297004" lon="8.482362141783849"><ele>155.75</ele><time>2026-04-18T09:58:28Z</time></trkpt><trkpt lat="39.41420391671801" lon="8.48221122342845"><ele>156.0</ele><time>2026-04-18T09:58:29Z</time></trkpt><trkpt lat="39.41413297985085" lon="8.482017579811762"><ele>161.33333333333334</ele><time>2026-04-18T09:58:30Z</time></trkpt><trkpt lat="39.41406698918469" lon="8.481803002895132"><ele>166.66666666666669</ele><time>2026-04-18T09:58:31Z</time></trkpt><trkpt lat="39.41399897688629" lon="8.481573894120528"><ele>172.0</ele><time>2026-04-18T09:58:32Z</time></trkpt><trkpt lat="39.41392383415992" lon="8.481342414940146"><ele>175.66666666666669</ele><time>2026-04-18T09:58:33Z</time></trkpt><trkpt lat="39.41386495664179" lon="8.481090759174414"><ele>179.33333333333334</ele><time>2026-04-18T09:58:34Z</time></trkpt><trkpt lat="39.41379702241244" lon="8.480851700222638"><ele>183.0</ele><time>2026-04-18T09:58:35Z</time></trkpt><trkpt lat="39.413748772561505" lon="8.480632270675697"><ele>178.25</ele><time>2026-04-18T09:58:36Z</time></trkpt><trkpt lat="39.4137425722177" lon="8.480416930173108"><ele>173.5</ele><time>2026-04-18T09:58:37Z</time></trkpt><trkpt lat="39.41372349394164" lon="8.480227868044116"><ele>168.75</ele><time>2026-04-18T09:58:38Z</time></trkpt><trkpt lat="39.413663169008295" lon="8.480070652920698"><ele>164.0</ele><time>2026-04-18T09:58:39Z</time></trkpt><trkpt lat="39.413570860917034" lon="8.479923124331242"><ele>164.0</ele><time>2026-04-18T09:58:40Z</time></trkpt><trkpt lat="39.413476910243055" lon="8.479776631352317"><ele>164.0</ele><time>2026-04-18T09:58:41Z</time></trkpt><trkpt lat="39.413366641934076" lon="8.479657195097772"><ele>164.0</ele><time>2026-04-18T09:58:42Z</time></trkpt><trkpt lat="39.41322261726146" lon="8.47959262218752"><ele>164.0</ele><time>2026-04-18T09:58:43Z</time></trkpt><trkpt lat="39.41307098530878" lon="8.479562192050318"><ele>164.5</ele><time>2026-04-18T09:58:44Z</time></trkpt><trkpt lat="39.41293672639109" lon="8.479509483528744"><ele>165.0</ele><time>2026-04-18T09:58:45Z</time></trkpt><trkpt lat="39.412826936378316" lon="8.479427321594402"><ele>165.5</ele><time>2026-04-18T09:58:46Z</time></trkpt><trkpt lat="39.41275652887093" lon="8.47931241807286"><ele>166.0</ele><time>2026-04-18T09:58:47Z</time></trkpt><trkpt lat="39.412724743048166" lon="8.479169751997782"><ele>166.0</ele><time>2026-04-18T09:58:48Z</time></trkpt><trkpt lat="39.41275305288159" lon="8.479020102740346"><ele>166.0</ele><time>2026-04-18T09:58:49Z</time></trkpt><trkpt lat="39.41276961655735" lon="8.478840246071249"><ele>166.0</ele><time>2026-04-18T09:58:50Z</time></trkpt><trkpt lat="39.412776432001465" lon="8.478663995694422"><ele>166.0</ele><time>2026-04-18T09:58:51Z</time></trkpt><trkpt lat="39.41275563506949" lon="8.478492771851622"><ele>166.75</ele><time>2026-04-18T09:58:52Z</time></trkpt><trkpt lat="39.412692185268845" lon="8.478346818403118"><ele>167.5</ele><time>2026-04-18T09:58:53Z</time></trkpt><trkpt lat="39.41260354060937" lon="8.478232812310013"><ele>168.25</ele><time>2026-04-18T09:58:54Z</time></trkpt><trkpt lat="39.41253953471" lon="8.478112688253452"><ele>169.0</ele><time>2026-04-18T09:58:55Z</time></trkpt><trkpt lat="39.41255696454354" lon="8.47796264414956"><ele>169.5</ele><time>2026-04-18T09:58:56Z</time></trkpt><trkpt lat="39.412596171377665" lon="8.477810833187114"><ele>170.0</ele><time>2026-04-18T09:58:57Z</time></trkpt><trkpt lat="39.41262227268962" lon="8.477661177451832"><ele>170.5</ele><time>2026-04-18T09:58:58Z</time></trkpt><trkpt lat="39.41260502684614" lon="8.477517032076134"><ele>171.0</ele><time>2026-04-18T09:58:59Z</time></trkpt><trkpt lat="39.41254521520652" lon="8.4774090594972"><ele>171.0</ele><time>2026-04-18T09:59:00Z</time></trkpt><trkpt lat="39.41242363741352" lon="8.477346594235463"><ele>171.0</ele><time>2026-04-18T09:59:01Z</time></trkpt><trkpt lat="39.41230276647135" lon="8.477266603999167"><ele>171.0</ele><time>2026-04-18T09:59:02Z</time></trkpt><trkpt lat="39.412174697099964" lon="8.477166414932839"><ele>171.0</ele><time>2026-04-18T09:59:03Z</time></trkpt><trkpt lat="39.41204534309702" lon="8.477073236945145"><ele>174.66666666666666</ele><time>2026-04-18T09:59:04Z</time></trkpt><trkpt lat="39.41190061641747" lon="8.477008112712664"><ele>178.33333333333331</ele><time>2026-04-18T09:59:05Z</time></trkpt><trkpt lat="39.41174254833542" lon="8.476965219269436"><ele>182.0</ele><time>2026-04-18T09:59:06Z</time></trkpt><trkpt lat="39.41158679623721" lon="8.476915021309997"><ele>182.0</ele><time>2026-04-18T09:59:07Z</time></trkpt><trkpt lat="39.41143924094713" lon="8.476844468156692"><ele>182.0</ele><time>2026-04-18T09:59:08Z</time></trkpt><trkpt lat="39.41130089799343" lon="8.476764176283703"><ele>182.0</ele><time>2026-04-18T09:59:09Z</time></trkpt><trkpt lat="39.41117266418082" lon="8.476657996519675"><ele>181.0</ele><time>2026-04-18T09:59:10Z</time></trkpt><trkpt lat="39.41108583319028" lon="8.476490226892759"><ele>180.0</ele><time>2026-04-18T09:59:11Z</time></trkpt><trkpt lat="39.41098571730291" lon="8.476330015799972"><ele>179.0</ele><time>2026-04-18T09:59:12Z</time></trkpt><trkpt lat="39.41088227159462" lon="8.476176335045007"><ele>183.33333333333331</ele><time>2026-04-18T09:59:13Z</time></trkpt><trkpt lat="39.41076299229923" lon="8.476041784974676"><ele>187.66666666666666</ele><time>2026-04-18T09:59:14Z</time></trkpt><trkpt lat="39.41060719113753" lon="8.475953710125202"><ele>192.0</ele><time>2026-04-18T09:59:15Z</time></trkpt><trkpt lat="39.410434819838976" lon="8.47590386313096"><ele>192.0</ele><time>2026-04-18T09:59:16Z</time></trkpt><trkpt lat="39.41025430299065" lon="8.475881599755366"><ele>192.0</ele><time>2026-04-18T09:59:17Z</time></trkpt><trkpt lat="39.410072273284136" lon="8.475863310777017"><ele>192.0</ele><time>2026-04-18T09:59:18Z</time></trkpt><trkpt lat="39.40990173612484" lon="8.475843726040452"><ele>192.0</ele><time>2026-04-18T09:59:19Z</time></trkpt><trkpt lat="39.40975238394942" lon="8.475823894231821"><ele>192.0</ele><time>2026-04-18T09:59:20Z</time></trkpt><trkpt lat="39.40962258681703" lon="8.475798515147627"><ele>192.0</ele><time>2026-04-18T09:59:21Z</time></trkpt><trkpt lat="39.409524791433" lon="8.475715264479788"><ele>192.0</ele><time>2026-04-18T09:59:22Z</time></trkpt><trkpt lat="39.40948220433097" lon="8.475609548926176"><ele>192.8</ele><time>2026-04-18T09:59:23Z</time></trkpt><trkpt lat="39.40946973262697" lon="8.475524955469044"><ele>193.6</ele><time>2026-04-18T09:59:24Z</time></trkpt><trkpt lat="39.40955651937471" lon="8.475428587644881"><ele>194.4</ele><time>2026-04-18T09:59:25Z</time></trkpt><trkpt lat="39.40958072031222" lon="8.475280604621585"><ele>195.20000000000002</ele><time>2026-04-18T09:59:26Z</time></trkpt><trkpt lat="39.409602518814154" lon="8.475111476365315"><ele>196.0</ele><time>2026-04-18T09:59:27Z</time></trkpt><trkpt lat="39.4095667122111" lon="8.47492583757698"><ele>196.66666666666666</ele><time>2026-04-18T09:59:28Z</time></trkpt><trkpt lat="39.40949274642865" lon="8.474763979763072"><ele>197.33333333333331</ele><time>2026-04-18T09:59:29Z</time></trkpt><trkpt lat="39.40937188033594" lon="8.474631544368906"><ele>198.0</ele><time>2026-04-18T09:59:30Z</time></trkpt><trkpt lat="39.40921656352372" lon="8.474516805910627"><ele>200.0</ele><time>2026-04-18T09:59:31Z</time></trkpt><trkpt lat="39.40904783252928" lon="8.47440755091171"><ele>202.0</ele><time>2026-04-18T09:59:32Z</time></trkpt><trkpt lat="39.4088679952243" lon="8.474303678668726"><ele>204.0</ele><time>2026-04-18T09:59:33Z</time></trkpt><trkpt lat="39.408677922351764" lon="8.474226751810257"><ele>204.0</ele><time>2026-04-18T09:59:34Z</time></trkpt><trkpt lat="39.40848327153954" lon="8.474175739261874"><ele>204.0</ele><time>2026-04-18T09:59:35Z</time></trkpt><trkpt lat="39.40830747501676" lon="8.474113914722937"><ele>204.0</ele><time>2026-04-18T09:59:36Z</time></trkpt><trkpt lat="39.408148037535625" lon="8.47405896259631"><ele>204.0</ele><time>2026-04-18T09:59:37Z</time></trkpt><trkpt lat="39.40800267679843" lon="8.474010404044481"><ele>204.0</ele><time>2026-04-18T09:59:38Z</time></trkpt><trkpt lat="39.40786988464303" lon="8.473969184881973"><ele>204.0</ele><time>2026-04-18T09:59:39Z</time></trkpt><trkpt lat="39.407752184445705" lon="8.473905312061428"><ele>204.0</ele><time>2026-04-18T09:59:40Z</time></trkpt><trkpt lat="39.407648509877596" lon="8.473801413217108"><ele>206.25</ele><time>2026-04-18T09:59:41Z</time></trkpt><trkpt lat="39.40758399799966" lon="8.473662631678312"><ele>208.5</ele><time>2026-04-18T09:59:42Z</time></trkpt><trkpt lat="39.40757700091996" lon="8.473492823988835"><ele>210.75</ele><time>2026-04-18T09:59:43Z</time></trkpt><trkpt lat="39.40761730649352" lon="8.473314413789012"><ele>213.0</ele><time>2026-04-18T09:59:44Z</time></trkpt><trkpt lat="39.40766445093736" lon="8.473125328764786"><ele>216.75</ele><time>2026-04-18T09:59:45Z</time></trkpt><trkpt lat="39.40768875020002" lon="8.472933137484745"><ele>220.5</ele><time>2026-04-18T09:59:46Z</time></trkpt><trkpt lat="39.40767057578439" lon="8.472754156254215"><ele>224.25</ele><time>2026-04-18T09:59:47Z</time></trkpt><trkpt lat="39.40761220120768" lon="8.47260034867528"><ele>228.0</ele><time>2026-04-18T09:59:48Z</time></trkpt><trkpt lat="39.40751434070785" lon="8.472465007316249"><ele>228.0</ele><time>2026-04-18T09:59:49Z</time></trkpt><trkpt lat="39.407399356542555" lon="8.47234036569777"><ele>228.0</ele><time>2026-04-18T09:59:50Z</time></trkpt><trkpt lat="39.40729556567931" lon="8.47219433561134"><ele>228.0</ele><time>2026-04-18T09:59:51Z</time></trkpt><trkpt lat="39.40722511406061" lon="8.472063342017465"><ele>228.0</ele><time>2026-04-18T09:59:52Z</time></trkpt><trkpt lat="39.40720813250428" lon="8.471920352736117"><ele>231.5</ele><time>2026-04-18T09:59:53Z</time></trkpt><trkpt lat="39.40724349284725" lon="8.471777202043258"><ele>235.0</ele><time>2026-04-18T09:59:54Z</time></trkpt><trkpt lat="39.4072979086413" lon="8.471633902529224"><ele>238.5</ele><time>2026-04-18T09:59:55Z</time></trkpt><trkpt lat="39.40729427038425" lon="8.471474716138083"><ele>242.0</ele><time>2026-04-18T09:59:56Z</time></trkpt><trkpt lat="39.40722480960374" lon="8.471316420869616"><ele>240.25</ele><time>2026-04-18T09:59:57Z</time></trkpt><trkpt lat="39.40712407390775" lon="8.471181826537226"><ele>238.5</ele><time>2026-04-18T09:59:58Z</time></trkpt><trkpt lat="39.40700089097065" lon="8.471094411002108"><ele>236.75</ele><time>2026-04-18T09:59:59Z</time></trkpt><trkpt lat="39.40685386464087" lon="8.471060226811847"><ele>235.0</ele><time>2026-04-18T10:00:00Z</time></trkpt><trkpt lat="39.40669009786793" lon="8.471070364317328"><ele>235.0</ele><time>2026-04-18T10:00:01Z</time></trkpt><trkpt lat="39.40652616898946" lon="8.471071875264307"><ele>235.0</ele><time>2026-04-18T10:00:02Z</time></trkpt><trkpt lat="39.40637454843607" lon="8.471015386210267"><ele>235.0</ele><time>2026-04-18T10:00:03Z</time></trkpt><trkpt lat="39.406240037468244" lon="8.470911343475532"><ele>236.5</ele><time>2026-04-18T10:00:04Z</time></trkpt><trkpt lat="39.406113410944236" lon="8.470833435502545"><ele>238.0</ele><time>2026-04-18T10:00:05Z</time></trkpt><trkpt lat="39.40597371931886" lon="8.47083899853828"><ele>239.5</ele><time>2026-04-18T10:00:06Z</time></trkpt><trkpt lat="39.4058223900126" lon="8.470915474389995"><ele>241.0</ele><time>2026-04-18T10:00:07Z</time></trkpt><trkpt lat="39.4056703144032" lon="8.471023983914758"><ele>241.0</ele><time>2026-04-18T10:00:08Z</time></trkpt><trkpt lat="39.40552013759875" lon="8.471128479829762"><ele>241.0</ele><time>2026-04-18T10:00:09Z</time></trkpt><trkpt lat="39.40537975454036" lon="8.471216148187832"><ele>241.0</ele><time>2026-04-18T10:00:10Z</time></trkpt><trkpt lat="39.40525326163747" lon="8.471274136270324"><ele>239.5</ele><time>2026-04-18T10:00:11Z</time></trkpt><trkpt lat="39.40512760736855" lon="8.471281191903866"><ele>238.0</ele><time>2026-04-18T10:00:12Z</time></trkpt><trkpt lat="39.40499750796396" lon="8.47121409653725"><ele>236.5</ele><time>2026-04-18T10:00:13Z</time></trkpt><trkpt lat="39.40487391889235" lon="8.471158627034189"><ele>235.0</ele><time>2026-04-18T10:00:14Z</time></trkpt><trkpt lat="39.40475228726083" lon="8.471180979401117"><ele>240.66666666666666</ele><time>2026-04-18T10:00:15Z</time></trkpt><trkpt lat="39.404637077880075" lon="8.471280337067025"><ele>246.33333333333331</ele><time>2026-04-18T10:00:16Z</time></trkpt><trkpt lat="39.40452414988248" lon="8.471443030127737"><ele>252.0</ele><time>2026-04-18T10:00:17Z</time></trkpt><trkpt lat="39.404458850886215" lon="8.471627954658059"><ele>252.0</ele><time>2026-04-18T10:00:18Z</time></trkpt><trkpt lat="39.404443847966824" lon="8.471826270101856"><ele>252.0</ele><time>2026-04-18T10:00:19Z</time></trkpt><trkpt lat="39.40444077196827" lon="8.472024980501256"><ele>252.0</ele><time>2026-04-18T10:00:20Z</time></trkpt><trkpt lat="39.40443228183906" lon="8.47218868700793"><ele>252.0</ele><time>2026-04-18T10:00:21Z</time></trkpt><trkpt lat="39.404398403999906" lon="8.472307189103386"><ele>248.75</ele><time>2026-04-18T10:00:22Z</time></trkpt><trkpt lat="39.40433340221117" lon="8.472382209351837"><ele>245.5</ele><time>2026-04-18T10:00:23Z</time></trkpt><trkpt lat="39.40423808268864" lon="8.472396713878329"><ele>242.25</ele><time>2026-04-18T10:00:24Z</time></trkpt><trkpt lat="39.404105292344035" lon="8.472370516805775"><ele>239.0</ele><time>2026-04-18T10:00:25Z</time></trkpt><trkpt lat="39.40396067525837" lon="8.472299380444554"><ele>245.0</ele><time>2026-04-18T10:00:26Z</time></trkpt><trkpt lat="39.40381347272208" lon="8.472321701066146"><ele>251.0</ele><time>2026-04-18T10:00:27Z</time></trkpt><trkpt lat="39.40367037404939" lon="8.472407764554521"><ele>257.0</ele><time>2026-04-18T10:00:28Z</time></trkpt><trkpt lat="39.403554011921955" lon="8.472528911480467"><ele>257.0</ele><time>2026-04-18T10:00:29Z</time></trkpt><trkpt lat="39.403456741718394" lon="8.472702048505193"><ele>257.0</ele><time>2026-04-18T10:00:30Z</time></trkpt><trkpt lat="39.403373089858086" lon="8.472899374259713"><ele>257.0</ele><time>2026-04-18T10:00:31Z</time></trkpt><trkpt lat="39.40326521997712" lon="8.473074144109347"><ele>255.5</ele><time>2026-04-18T10:00:32Z</time></trkpt><trkpt lat="39.403182605887004" lon="8.473232904638273"><ele>254.0</ele><time>2026-04-18T10:00:33Z</time></trkpt><trkpt lat="39.40310776130209" lon="8.473375617348353"><ele>252.5</ele><time>2026-04-18T10:00:34Z</time></trkpt><trkpt lat="39.40303645251136" lon="8.473497787904709"><ele>251.0</ele><time>2026-04-18T10:00:35Z</time></trkpt><trkpt lat="39.40296554221373" lon="8.473579894547987"><ele>251.0</ele><time>2026-04-18T10:00:36Z</time></trkpt><trkpt lat="39.40288854566573" lon="8.473586873667815"><ele>251.00000000000003</ele><time>2026-04-18T10:00:37Z</time></trkpt><trkpt lat="39.4028312505089" lon="8.473508632024174"><ele>251.00000000000003</ele><time>2026-04-18T10:00:38Z</time></trkpt><trkpt lat="39.40282327604081" lon="8.473391725937024"><ele>251.0</ele><time>2026-04-18T10:00:39Z</time></trkpt><trkpt lat="39.40283246964233" lon="8.47324079650738"><ele>251.0</ele><time>2026-04-18T10:00:40Z</time></trkpt><trkpt lat="39.402789413770925" lon="8.473098204907542"><ele>251.0</ele><time>2026-04-18T10:00:41Z</time></trkpt><trkpt lat="39.40270892196144" lon="8.47298912439144"><ele>251.0</ele><time>2026-04-18T10:00:42Z</time></trkpt><trkpt lat="39.40258025460779" lon="8.472931662588056"><ele>251.0</ele><time>2026-04-18T10:00:43Z</time></trkpt><trkpt lat="39.40246249423871" lon="8.47290859400462"><ele>251.0</ele><time>2026-04-18T10:00:44Z</time></trkpt><trkpt lat="39.40236129684907" lon="8.473002303825309"><ele>251.0</ele><time>2026-04-18T10:00:45Z</time></trkpt><trkpt lat="39.40227110766661" lon="8.473111995961544"><ele>251.0</ele><time>2026-04-18T10:00:46Z</time></trkpt><trkpt lat="39.40218250393359" lon="8.473208645201845"><ele>251.0</ele><time>2026-04-18T10:00:47Z</time></trkpt><trkpt lat="39.40208735109049" lon="8.473209345052705"><ele>251.0</ele><time>2026-04-18T10:00:48Z</time></trkpt><trkpt lat="39.40201238111717" lon="8.473090739637813"><ele>252.25</ele><time>2026-04-18T10:00:49Z</time></trkpt><trkpt lat="39.401936057692204" lon="8.472978909693264"><ele>253.5</ele><time>2026-04-18T10:00:50Z</time></trkpt><trkpt lat="39.40183435105998" lon="8.47290651970574"><ele>254.75</ele><time>2026-04-18T10:00:51Z</time></trkpt><trkpt lat="39.40170612636766" lon="8.472871617487238"><ele>256.0</ele><time>2026-04-18T10:00:52Z</time></trkpt><trkpt lat="39.40156680578703" lon="8.472911256309983"><ele>256.0</ele><time>2026-04-18T10:00:53Z</time></trkpt><trkpt lat="39.401450351422845" lon="8.47303288391536"><ele>256.0</ele><time>2026-04-18T10:00:54Z</time></trkpt><trkpt lat="39.40135068050161" lon="8.473095899064095"><ele>256.0</ele><time>2026-04-18T10:00:55Z</time></trkpt><trkpt lat="39.401238522586766" lon="8.473108172284736"><ele>256.0</ele><time>2026-04-18T10:00:56Z</time></trkpt><trkpt lat="39.401151095170405" lon="8.473007360027442"><ele>264.0</ele><time>2026-04-18T10:00:57Z</time></trkpt><trkpt lat="39.40103121128906" lon="8.472939204525167"><ele>272.0</ele><time>2026-04-18T10:00:58Z</time></trkpt><trkpt lat="39.4008990432209" lon="8.47287746662825"><ele>280.0</ele><time>2026-04-18T10:00:59Z</time></trkpt><trkpt lat="39.40074064755181" lon="8.472877506152042"><ele>288.0</ele><time>2026-04-18T10:01:00Z</time></trkpt><trkpt lat="39.4005773908609" lon="8.472934877170745"><ele>280.5</ele><time>2026-04-18T10:01:01Z</time></trkpt><trkpt lat="39.400431303671" lon="8.473036302998066"><ele>273.0</ele><time>2026-04-18T10:01:02Z</time></trkpt><trkpt lat="39.4002939544191" lon="8.473099385739141"><ele>265.5</ele><time>2026-04-18T10:01:03Z</time></trkpt><trkpt lat="39.400176803618315" lon="8.47314289095757"><ele>258.0</ele><time>2026-04-18T10:01:04Z</time></trkpt><trkpt lat="39.40006349025603" lon="8.473152899506381"><ele>258.0</ele><time>2026-04-18T10:01:05Z</time></trkpt><trkpt lat="39.399960433280675" lon="8.473034813350958"><ele>258.0</ele><time>2026-04-18T10:01:06Z</time></trkpt><trkpt lat="39.39986250955022" lon="8.472899686618847"><ele>258.0</ele><time>2026-04-18T10:01:07Z</time></trkpt><trkpt lat="39.39977987817433" lon="8.472748032011332"><ele>258.0</ele><time>2026-04-18T10:01:08Z</time></trkpt><trkpt lat="39.39968897463419" lon="8.472658278569268"><ele>261.25</ele><time>2026-04-18T10:01:09Z</time></trkpt><trkpt lat="39.39958807384538" lon="8.472608626388062"><ele>264.5</ele><time>2026-04-18T10:01:10Z</time></trkpt><trkpt lat="39.39946814164308" lon="8.472626539518124"><ele>267.75</ele><time>2026-04-18T10:01:11Z</time></trkpt><trkpt lat="39.39935287967647" lon="8.472689094551452"><ele>271.0</ele><time>2026-04-18T10:01:12Z</time></trkpt><trkpt lat="39.399235233005825" lon="8.4727539696892"><ele>271.0</ele><time>2026-04-18T10:01:13Z</time></trkpt><trkpt lat="39.399104808085404" lon="8.472810943993705"><ele>271.0</ele><time>2026-04-18T10:01:14Z</time></trkpt><trkpt lat="39.398967079023215" lon="8.47286661786241"><ele>271.0</ele><time>2026-04-18T10:01:15Z</time></trkpt><trkpt lat="39.39882663322142" lon="8.472934810244634"><ele>271.0</ele><time>2026-04-18T10:01:16Z</time></trkpt><trkpt lat="39.39870150484842" lon="8.473015664991905"><ele>268.75</ele><time>2026-04-18T10:01:17Z</time></trkpt><trkpt lat="39.3985931302422" lon="8.473092069933776"><ele>266.5</ele><time>2026-04-18T10:01:18Z</time></trkpt><trkpt lat="39.39848336758631" lon="8.473096285938237"><ele>264.25</ele><time>2026-04-18T10:01:19Z</time></trkpt><trkpt lat="39.39837211283613" lon="8.473058978321886"><ele>262.0</ele><time>2026-04-18T10:01:20Z</time></trkpt><trkpt lat="39.39828150239637" lon="8.472954679809169"><ele>268.5</ele><time>2026-04-18T10:01:21Z</time></trkpt><trkpt lat="39.3982152681761" lon="8.472798134819678"><ele>275.0</ele><time>2026-04-18T10:01:22Z</time></trkpt><trkpt lat="39.39812781381767" lon="8.472695367514628"><ele>281.5</ele><time>2026-04-18T10:01:23Z</time></trkpt><trkpt lat="39.39800859148632" lon="8.47260637350108"><ele>288.0</ele><time>2026-04-18T10:01:24Z</time></trkpt><trkpt lat="39.39788241912947" lon="8.472648738598387"><ele>288.5</ele><time>2026-04-18T10:01:25Z</time></trkpt><trkpt lat="39.397751715297865" lon="8.472748260684893"><ele>289.0</ele><time>2026-04-18T10:01:26Z</time></trkpt><trkpt lat="39.39764121607685" lon="8.472881305464755"><ele>289.5</ele><time>2026-04-18T10:01:27Z</time></trkpt><trkpt lat="39.39756501968938" lon="8.473031196131892"><ele>290.0</ele><time>2026-04-18T10:01:28Z</time></trkpt><trkpt lat="39.39748005356691" lon="8.473150019562521"><ele>285.25</ele><time>2026-04-18T10:01:29Z</time></trkpt><trkpt lat="39.39738155753344" lon="8.473195790912845"><ele>280.5</ele><time>2026-04-18T10:01:30Z</time></trkpt><trkpt lat="39.39727932416537" lon="8.473126604632702"><ele>275.75</ele><time>2026-04-18T10:01:31Z</time></trkpt><trkpt lat="39.39714800382336" lon="8.473093742693955"><ele>271.0</ele><time>2026-04-18T10:01:32Z</time></trkpt><trkpt lat="39.397002420287635" lon="8.473066774408482"><ele>271.0</ele><time>2026-04-18T10:01:33Z</time></trkpt><trkpt lat="39.396826682145154" lon="8.473109189927957"><ele>271.0</ele><time>2026-04-18T10:01:34Z</time></trkpt><trkpt lat="39.39664343297929" lon="8.473162273970381"><ele>271.0</ele><time>2026-04-18T10:01:35Z</time></trkpt><trkpt lat="39.3964541518153" lon="8.473207791617012"><ele>272.66666666666663</ele><time>2026-04-18T10:01:36Z</time></trkpt><trkpt lat="39.39625725309847" lon="8.4732591988934"><ele>274.3333333333333</ele><time>2026-04-18T10:01:37Z</time></trkpt><trkpt lat="39.39605207919644" lon="8.473318358225834"><ele>276.0</ele><time>2026-04-18T10:01:38Z</time></trkpt><trkpt lat="39.39583783093022" lon="8.473383943608162"><ele>276.0</ele><time>2026-04-18T10:01:39Z</time></trkpt><trkpt lat="39.395620581906364" lon="8.47344589776319"><ele>276.0</ele><time>2026-04-18T10:01:40Z</time></trkpt><trkpt lat="39.39540817764876" lon="8.47350491676865"><ele>276.0</ele><time>2026-04-18T10:01:41Z</time></trkpt><trkpt lat="39.39519247375568" lon="8.473570700354266"><ele>276.3333333333333</ele><time>2026-04-18T10:01:42Z</time></trkpt><trkpt lat="39.394976126520326" lon="8.473649678085778"><ele>276.66666666666663</ele><time>2026-04-18T10:01:43Z</time></trkpt><trkpt lat="39.39476972569869" lon="8.473727662904253"><ele>277.0</ele><time>2026-04-18T10:01:44Z</time></trkpt><trkpt lat="39.39457822760487" lon="8.473800201698914"><ele>277.0</ele><time>2026-04-18T10:01:45Z</time></trkpt><trkpt lat="39.39439678754732" lon="8.47387201017526"><ele>277.0</ele><time>2026-04-18T10:01:46Z</time></trkpt><trkpt lat="39.394218946616576" lon="8.473960762512114"><ele>277.0</ele><time>2026-04-18T10:01:47Z</time></trkpt><trkpt lat="39.39404311672062" lon="8.474066711844692"><ele>277.0</ele><time>2026-04-18T10:01:48Z</time></trkpt><trkpt lat="39.393875497985725" lon="8.47415869006469"><ele>277.0</ele><time>2026-04-18T10:01:49Z</time></trkpt><trkpt lat="39.39371485226248" lon="8.474251677499806"><ele>277.0</ele><time>2026-04-18T10:01:50Z</time></trkpt><trkpt lat="39.39357052886105" lon="8.474366896473187"><ele>279.0</ele><time>2026-04-18T10:01:51Z</time></trkpt><trkpt lat="39.39343854170647" lon="8.474502115045548"><ele>281.0</ele><time>2026-04-18T10:01:52Z</time></trkpt><trkpt lat="39.39332335463123" lon="8.474666626700447"><ele>283.0</ele><time>2026-04-18T10:01:53Z</time></trkpt><trkpt lat="39.3932326145515" lon="8.474849684583068"><ele>283.0</ele><time>2026-04-18T10:01:54Z</time></trkpt><trkpt lat="39.393176759691244" lon="8.475036428347934"><ele>283.0</ele><time>2026-04-18T10:01:55Z</time></trkpt><trkpt lat="39.393157470514865" lon="8.475248613872049"><ele>283.0</ele><time>2026-04-18T10:01:56Z</time></trkpt><trkpt lat="39.393153108186574" lon="8.4754715864391"><ele>283.0</ele><time>2026-04-18T10:01:57Z</time></trkpt><trkpt lat="39.39316604537386" lon="8.4756688149998"><ele>283.0</ele><time>2026-04-18T10:01:58Z</time></trkpt><trkpt lat="39.39321258452023" lon="8.475845752641495"><ele>283.0</ele><time>2026-04-18T10:01:59Z</time></trkpt><trkpt lat="39.39328493558097" lon="8.475995801716548"><ele>283.0</ele><time>2026-04-18T10:02:00Z</time></trkpt><trkpt lat="39.39332910739055" lon="8.476131283475567"><ele>282.6</ele><time>2026-04-18T10:02:01Z</time></trkpt><trkpt lat="39.39333622856492" lon="8.476270852877771"><ele>282.20000000000005</ele><time>2026-04-18T10:02:02Z</time></trkpt><trkpt lat="39.39330595592246" lon="8.476383149050752"><ele>281.8</ele><time>2026-04-18T10:02:03Z</time></trkpt><trkpt lat="39.39323109507909" lon="8.476454635302378"><ele>281.40000000000003</ele><time>2026-04-18T10:02:04Z</time></trkpt><trkpt lat="39.39312171598133" lon="8.476497127098833"><ele>281.0</ele><time>2026-04-18T10:02:05Z</time></trkpt><trkpt lat="39.392998095099024" lon="8.476532149602253"><ele>285.25</ele><time>2026-04-18T10:02:06Z</time></trkpt><trkpt lat="39.392869039215746" lon="8.476573071087145"><ele>289.5</ele><time>2026-04-18T10:02:07Z</time></trkpt><trkpt lat="39.39274471631853" lon="8.476620332277085"><ele>293.75</ele><time>2026-04-18T10:02:08Z</time></trkpt><trkpt lat="39.39265076631678" lon="8.476681602173924"><ele>298.0</ele><time>2026-04-18T10:02:09Z</time></trkpt><trkpt lat="39.392605580531516" lon="8.476779475983918"><ele>298.0</ele><time>2026-04-18T10:02:10Z</time></trkpt><trkpt lat="39.392608002488224" lon="8.476909261055454"><ele>298.0</ele><time>2026-04-18T10:02:11Z</time></trkpt><trkpt lat="39.39265847649652" lon="8.477044290931866"><ele>298.0</ele><time>2026-04-18T10:02:12Z</time></trkpt><trkpt lat="39.39273642518385" lon="8.477169826713192"><ele>298.0</ele><time>2026-04-18T10:02:13Z</time></trkpt><trkpt lat="39.39277625655694" lon="8.477306314942382"><ele>298.75</ele><time>2026-04-18T10:02:14Z</time></trkpt><trkpt lat="39.39277818378789" lon="8.477469107951393"><ele>299.5</ele><time>2026-04-18T10:02:15Z</time></trkpt><trkpt lat="39.39275550168428" lon="8.477635644094025"><ele>300.25</ele><time>2026-04-18T10:02:16Z</time></trkpt><trkpt lat="39.39269756428549" lon="8.477775042408293"><ele>301.0</ele><time>2026-04-18T10:02:17Z</time></trkpt><trkpt lat="39.39260562295493" lon="8.477872660114867"><ele>299.25</ele><time>2026-04-18T10:02:18Z</time></trkpt><trkpt lat="39.39248506018595" lon="8.477937104966287"><ele>297.5</ele><time>2026-04-18T10:02:19Z</time></trkpt><trkpt lat="39.39237989636351" lon="8.478029911534529"><ele>295.75</ele><time>2026-04-18T10:02:20Z</time></trkpt><trkpt lat="39.39229499097709" lon="8.478179876048728"><ele>294.0</ele><time>2026-04-18T10:02:21Z</time></trkpt><trkpt lat="39.39222328287203" lon="8.478357229314646"><ele>294.0</ele><time>2026-04-18T10:02:22Z</time></trkpt><trkpt lat="39.39218006814059" lon="8.478549473440882"><ele>294.0</ele><time>2026-04-18T10:02:23Z</time></trkpt><trkpt lat="39.39217543305026" lon="8.478768963353897"><ele>294.0</ele><time>2026-04-18T10:02:24Z</time></trkpt><trkpt lat="39.392194575075266" lon="8.479002566050026"><ele>294.0</ele><time>2026-04-18T10:02:25Z</time></trkpt><trkpt lat="39.39219086026011" lon="8.479224448421537"><ele>294.0</ele><time>2026-04-18T10:02:26Z</time></trkpt><trkpt lat="39.39220695385598" lon="8.479432295169884"><ele>294.0</ele><time>2026-04-18T10:02:27Z</time></trkpt><trkpt lat="39.39218194089623" lon="8.479616287091815"><ele>302.0</ele><time>2026-04-18T10:02:28Z</time></trkpt><trkpt lat="39.39212750319762" lon="8.479793349106092"><ele>310.0</ele><time>2026-04-18T10:02:29Z</time></trkpt><trkpt lat="39.392032548989285" lon="8.479975946311525"><ele>318.0</ele><time>2026-04-18T10:02:30Z</time></trkpt><trkpt lat="39.39193546824869" lon="8.480163370274274"><ele>318.0</ele><time>2026-04-18T10:02:31Z</time></trkpt><trkpt lat="39.39184174075639" lon="8.48036089003379"><ele>318.0</ele><time>2026-04-18T10:02:32Z</time></trkpt><trkpt lat="39.39175392794826" lon="8.480539914271818"><ele>318.0</ele><time>2026-04-18T10:02:33Z</time></trkpt><trkpt lat="39.391669114925996" lon="8.480696312496038"><ele>319.5</ele><time>2026-04-18T10:02:34Z</time></trkpt><trkpt lat="39.39157781613834" lon="8.480822707370788"><ele>321.0</ele><time>2026-04-18T10:02:35Z</time></trkpt><trkpt lat="39.39146757569242" lon="8.480912842050653"><ele>322.5</ele><time>2026-04-18T10:02:36Z</time></trkpt><trkpt lat="39.3913267119384" lon="8.480967042338666"><ele>324.0</ele><time>2026-04-18T10:02:37Z</time></trkpt><trkpt lat="39.39116269337355" lon="8.480998373296416"><ele>324.0</ele><time>2026-04-18T10:02:38Z</time></trkpt><trkpt lat="39.39098882727714" lon="8.481031803226871"><ele>324.0</ele><time>2026-04-18T10:02:39Z</time></trkpt><trkpt lat="39.39080534985663" lon="8.481078243477487"><ele>324.0</ele><time>2026-04-18T10:02:40Z</time></trkpt><trkpt lat="39.39062648091674" lon="8.481117946431052"><ele>325.3333333333333</ele><time>2026-04-18T10:02:41Z</time></trkpt><trkpt lat="39.390444896324034" lon="8.481142902164818"><ele>326.66666666666663</ele><time>2026-04-18T10:02:42Z</time></trkpt><trkpt lat="39.39025715117418" lon="8.481154262788097"><ele>328.0</ele><time>2026-04-18T10:02:43Z</time></trkpt><trkpt lat="39.39008211182957" lon="8.481146703581159"><ele>328.0</ele><time>2026-04-18T10:02:44Z</time></trkpt><trkpt lat="39.38991876385238" lon="8.481130413808064"><ele>328.0</ele><time>2026-04-18T10:02:45Z</time></trkpt><trkpt lat="39.389763392710314" lon="8.481100577785725"><ele>328.0</ele><time>2026-04-18T10:02:46Z</time></trkpt><trkpt lat="39.38962808203453" lon="8.481031703113084"><ele>323.66666666666663</ele><time>2026-04-18T10:02:47Z</time></trkpt><trkpt lat="39.38950847191554" lon="8.480924986353196"><ele>319.3333333333333</ele><time>2026-04-18T10:02:48Z</time></trkpt><trkpt lat="39.38939278756181" lon="8.480773865381321"><ele>315.0</ele><time>2026-04-18T10:02:49Z</time></trkpt><trkpt lat="39.389284963085196" lon="8.480613382732614"><ele>315.0</ele><time>2026-04-18T10:02:50Z</time></trkpt><trkpt lat="39.38917814490342" lon="8.480481345544932"><ele>315.0</ele><time>2026-04-18T10:02:51Z</time></trkpt><trkpt lat="39.38906143592312" lon="8.480410721635499"><ele>315.0</ele><time>2026-04-18T10:02:52Z</time></trkpt><trkpt lat="39.388935409934845" lon="8.480417993228546"><ele>315.0</ele><time>2026-04-18T10:02:53Z</time></trkpt><trkpt lat="39.38880653918196" lon="8.480506023498103"><ele>318.5</ele><time>2026-04-18T10:02:54Z</time></trkpt><trkpt lat="39.38866051547791" lon="8.480531537685744"><ele>322.0</ele><time>2026-04-18T10:02:55Z</time></trkpt><trkpt lat="39.38853637499006" lon="8.480569891395918"><ele>325.5</ele><time>2026-04-18T10:02:56Z</time></trkpt><trkpt lat="39.38845758152163" lon="8.480600835936132"><ele>329.0</ele><time>2026-04-18T10:02:57Z</time></trkpt><trkpt lat="39.38849329039432" lon="8.48096905851964"><ele>329.0</ele><time>2026-04-18T10:02:58Z</time></trkpt><trkpt lat="39.38853555619932" lon="8.481095864826388"><ele>329.0</ele><time>2026-04-18T10:02:59Z</time></trkpt><trkpt lat="39.38862727085462" lon="8.481186133210244"><ele>329.0</ele><time>2026-04-18T10:03:00Z</time></trkpt><trkpt lat="39.38873595203186" lon="8.481272997155592"><ele>329.0</ele><time>2026-04-18T10:03:01Z</time></trkpt><trkpt lat="39.38881798268319" lon="8.481409090962371"><ele>325.0</ele><time>2026-04-18T10:03:02Z</time></trkpt><trkpt lat="39.38889460121443" lon="8.481578374921773"><ele>321.0</ele><time>2026-04-18T10:03:03Z</time></trkpt><trkpt lat="39.388980744673795" lon="8.481760525049365"><ele>317.0</ele><time>2026-04-18T10:03:04Z</time></trkpt><trkpt lat="39.38903582535029" lon="8.48194058217891"><ele>317.0</ele><time>2026-04-18T10:03:05Z</time></trkpt><trkpt lat="39.38910170913214" lon="8.482077141489473"><ele>317.0</ele><time>2026-04-18T10:03:06Z</time></trkpt><trkpt lat="39.389194489538816" lon="8.482149097300809"><ele>317.0</ele><time>2026-04-18T10:03:07Z</time></trkpt><trkpt lat="39.38931761786177" lon="8.482172473608777"><ele>317.0</ele><time>2026-04-18T10:03:08Z</time></trkpt><trkpt lat="39.38947092678806" lon="8.48221410163073"><ele>319.33333333333337</ele><time>2026-04-18T10:03:09Z</time></trkpt><trkpt lat="39.38962473659175" lon="8.48228324267802"><ele>321.6666666666667</ele><time>2026-04-18T10:03:10Z</time></trkpt><trkpt lat="39.3897889488212" lon="8.482366748330424"><ele>324.0</ele><time>2026-04-18T10:03:11Z</time></trkpt><trkpt lat="39.3899547631636" lon="8.482450514851886"><ele>324.0</ele><time>2026-04-18T10:03:12Z</time></trkpt><trkpt lat="39.3901028964463" lon="8.482530419944652"><ele>324.0</ele><time>2026-04-18T10:03:13Z</time></trkpt><trkpt lat="39.390246596740795" lon="8.482586229494654"><ele>324.0</ele><time>2026-04-18T10:03:14Z</time></trkpt><trkpt lat="39.39039697475522" lon="8.482594648864598"><ele>322.8</ele><time>2026-04-18T10:03:15Z</time></trkpt><trkpt lat="39.39052873388749" lon="8.482569887037636"><ele>321.59999999999997</ele><time>2026-04-18T10:03:16Z</time></trkpt><trkpt lat="39.390630081698" lon="8.482577120520265"><ele>320.4</ele><time>2026-04-18T10:03:17Z</time></trkpt><trkpt lat="39.39070905402021" lon="8.48265014252754"><ele>319.2</ele><time>2026-04-18T10:03:18Z</time></trkpt><trkpt lat="39.39073681207674" lon="8.482762756450708"><ele>318.0</ele><time>2026-04-18T10:03:19Z</time></trkpt><trkpt lat="39.390704074578665" lon="8.482869037103113"><ele>317.0</ele><time>2026-04-18T10:03:20Z</time></trkpt><trkpt lat="39.39062120434409" lon="8.482962654644083"><ele>316.0</ele><time>2026-04-18T10:03:21Z</time></trkpt><trkpt lat="39.39052254590745" lon="8.483067178827215"><ele>315.0</ele><time>2026-04-18T10:03:22Z</time></trkpt><trkpt lat="39.39041980236658" lon="8.483181850006057"><ele>314.0</ele><time>2026-04-18T10:03:23Z</time></trkpt><trkpt lat="39.390294691765895" lon="8.48323263554418"><ele>320.6666666666667</ele><time>2026-04-18T10:03:24Z</time></trkpt><trkpt lat="39.390145023864676" lon="8.483271145394793"><ele>327.3333333333333</ele><time>2026-04-18T10:03:25Z</time></trkpt><trkpt lat="39.38999422252481" lon="8.483358585704114"><ele>334.0</ele><time>2026-04-18T10:03:26Z</time></trkpt><trkpt lat="39.38985253623247" lon="8.483502992178149"><ele>334.0</ele><time>2026-04-18T10:03:27Z</time></trkpt><trkpt lat="39.38970574732858" lon="8.483650904619951"><ele>334.0</ele><time>2026-04-18T10:03:28Z</time></trkpt><trkpt lat="39.38955070908154" lon="8.4837748939451"><ele>334.0</ele><time>2026-04-18T10:03:29Z</time></trkpt><trkpt lat="39.389376927228675" lon="8.48389336511679"><ele>337.0</ele><time>2026-04-18T10:03:30Z</time></trkpt><trkpt lat="39.38921280851773" lon="8.48397690720792"><ele>340.0</ele><time>2026-04-18T10:03:31Z</time></trkpt><trkpt lat="39.38906227299368" lon="8.484064979038902"><ele>343.0</ele><time>2026-04-18T10:03:32Z</time></trkpt><trkpt lat="39.388935948213785" lon="8.48419228279054"><ele>345.25</ele><time>2026-04-18T10:03:33Z</time></trkpt><trkpt lat="39.388837411681166" lon="8.484341980566626"><ele>347.5</ele><time>2026-04-18T10:03:34Z</time></trkpt><trkpt lat="39.38873874679715" lon="8.484482940356017"><ele>349.75</ele><time>2026-04-18T10:03:35Z</time></trkpt><trkpt lat="39.388626879731866" lon="8.484596218860387"><ele>352.0</ele><time>2026-04-18T10:03:36Z</time></trkpt><trkpt lat="39.388505827402035" lon="8.484703415234252"><ele>352.0</ele><time>2026-04-18T10:03:37Z</time></trkpt><trkpt lat="39.38838926665787" lon="8.484789994988889"><ele>352.0</ele><time>2026-04-18T10:03:38Z</time></trkpt><trkpt lat="39.38828144007608" lon="8.484869689529425"><ele>352.0</ele><time>2026-04-18T10:03:39Z</time></trkpt><trkpt lat="39.38817711031761" lon="8.484945953964807"><ele>352.0</ele><time>2026-04-18T10:03:40Z</time></trkpt><trkpt lat="39.388101627680534" lon="8.485001203951619"><ele>352.0</ele><time>2026-04-18T10:03:41Z</time></trkpt><trkpt lat="39.38804071814877" lon="8.485043121719194"><ele>352.0</ele><time>2026-04-18T10:03:42Z</time></trkpt><trkpt lat="39.38798231996271" lon="8.485085900282117"><ele>352.0</ele><time>2026-04-18T10:03:43Z</time></trkpt><trkpt lat="39.38793067993942" lon="8.485136576213662"><ele>352.0</ele><time>2026-04-18T10:03:44Z</time></trkpt><trkpt lat="39.38788835594577" lon="8.485209117269275"><ele>352.0</ele><time>2026-04-18T10:03:45Z</time></trkpt><trkpt lat="39.38787112856642" lon="8.485312759900935"><ele>352.0</ele><time>2026-04-18T10:03:46Z</time></trkpt><trkpt lat="39.38789290211448" lon="8.48542013601691"><ele>352.0</ele><time>2026-04-18T10:03:47Z</time></trkpt><trkpt lat="39.38795900243679" lon="8.485511476381589"><ele>352.75</ele><time>2026-04-18T10:03:48Z</time></trkpt><trkpt lat="39.38805053889423" lon="8.48558382572386"><ele>353.5</ele><time>2026-04-18T10:03:49Z</time></trkpt><trkpt lat="39.38815064479363" lon="8.485658714504892"><ele>354.25</ele><time>2026-04-18T10:03:50Z</time></trkpt><trkpt lat="39.38824411969433" lon="8.485748388254194"><ele>355.0</ele><time>2026-04-18T10:03:51Z</time></trkpt><trkpt lat="39.38831690008062" lon="8.485867419073047"><ele>355.0</ele><time>2026-04-18T10:03:52Z</time></trkpt><trkpt lat="39.3883642367779" lon="8.486016831515798"><ele>355.0</ele><time>2026-04-18T10:03:53Z</time></trkpt><trkpt lat="39.38839447056088" lon="8.486177705608725"><ele>355.0</ele><time>2026-04-18T10:03:54Z</time></trkpt><trkpt lat="39.38840750372625" lon="8.486336175112173"><ele>355.0</ele><time>2026-04-18T10:03:55Z</time></trkpt><trkpt lat="39.38840017780676" lon="8.486498289154484"><ele>357.0</ele><time>2026-04-18T10:03:56Z</time></trkpt><trkpt lat="39.38836730836846" lon="8.486648081588495"><ele>359.0</ele><time>2026-04-18T10:03:57Z</time></trkpt><trkpt lat="39.38830430088645" lon="8.48677703736712"><ele>361.0</ele><time>2026-04-18T10:03:58Z</time></trkpt><trkpt lat="39.38822411885046" lon="8.486880678639814"><ele>363.0</ele><time>2026-04-18T10:03:59Z</time></trkpt><trkpt lat="39.388159734975126" lon="8.486971989393183"><ele>365.0</ele><time>2026-04-18T10:04:00Z</time></trkpt><trkpt lat="39.38811543012381" lon="8.487088123191368"><ele>364.6</ele><time>2026-04-18T10:04:01Z</time></trkpt><trkpt lat="39.38810493145864" lon="8.487218329311874"><ele>364.2</ele><time>2026-04-18T10:04:02Z</time></trkpt><trkpt lat="39.38812679620947" lon="8.487348612643368"><ele>363.79999999999995</ele><time>2026-04-18T10:04:03Z</time></trkpt><trkpt lat="39.38815960354599" lon="8.487481442110786"><ele>363.4</ele><time>2026-04-18T10:04:04Z</time></trkpt><trkpt lat="39.38819677628058" lon="8.487615156115869"><ele>363.0</ele><time>2026-04-18T10:04:05Z</time></trkpt><trkpt lat="39.38821697398369" lon="8.487741907870435"><ele>363.0</ele><time>2026-04-18T10:04:06Z</time></trkpt><trkpt lat="39.388199071493126" lon="8.487857340174267"><ele>363.0</ele><time>2026-04-18T10:04:07Z</time></trkpt><trkpt lat="39.388141449067035" lon="8.487939754684215"><ele>363.0</ele><time>2026-04-18T10:04:08Z</time></trkpt><trkpt lat="39.38805208570984" lon="8.487967677786598"><ele>363.0</ele><time>2026-04-18T10:04:09Z</time></trkpt><trkpt lat="39.38796129952528" lon="8.487930663483809"><ele>363.0</ele><time>2026-04-18T10:04:10Z</time></trkpt><trkpt lat="39.387887075497005" lon="8.48784092297766"><ele>366.2</ele><time>2026-04-18T10:04:11Z</time></trkpt><trkpt lat="39.38783166303988" lon="8.487728103586107"><ele>369.4</ele><time>2026-04-18T10:04:12Z</time></trkpt><trkpt lat="39.3877826957461" lon="8.487607615426105"><ele>372.59999999999997</ele><time>2026-04-18T10:04:13Z</time></trkpt><trkpt lat="39.387742084720735" lon="8.487467533290388"><ele>375.79999999999995</ele><time>2026-04-18T10:04:14Z</time></trkpt><trkpt lat="39.38770718220441" lon="8.487329746211048"><ele>379.0</ele><time>2026-04-18T10:04:15Z</time></trkpt><trkpt lat="39.38764694472002" lon="8.487227828674076"><ele>379.0</ele><time>2026-04-18T10:04:16Z</time></trkpt><trkpt lat="39.387559637384406" lon="8.487159303722684"><ele>379.0</ele><time>2026-04-18T10:04:17Z</time></trkpt><trkpt lat="39.38745907767022" lon="8.487148696725129"><ele>379.0</ele><time>2026-04-18T10:04:18Z</time></trkpt><trkpt lat="39.38736225350995" lon="8.487191978671406"><ele>379.0</ele><time>2026-04-18T10:04:19Z</time></trkpt><trkpt lat="39.3872945450358" lon="8.48728498509021"><ele>379.0</ele><time>2026-04-18T10:04:20Z</time></trkpt><trkpt lat="39.387258628885355" lon="8.48741293548431"><ele>379.0</ele><time>2026-04-18T10:04:21Z</time></trkpt><trkpt lat="39.38724355370176" lon="8.487564398167203"><ele>379.0</ele><time>2026-04-18T10:04:22Z</time></trkpt><trkpt lat="39.38723521168195" lon="8.48771814843708"><ele>379.0</ele><time>2026-04-18T10:04:23Z</time></trkpt><trkpt lat="39.387218527064356" lon="8.487869632867808"><ele>379.0</ele><time>2026-04-18T10:04:24Z</time></trkpt><trkpt lat="39.387199616463924" lon="8.488013976355083"><ele>376.79999999999995</ele><time>2026-04-18T10:04:25Z</time></trkpt><trkpt lat="39.3871798980972" lon="8.48814090701264"><ele>374.59999999999997</ele><time>2026-04-18T10:04:26Z</time></trkpt><trkpt lat="39.38714959506881" lon="8.488248097355507"><ele>372.4</ele><time>2026-04-18T10:04:27Z</time></trkpt><trkpt lat="39.38709002570877" lon="8.488329210937321"><ele>370.2</ele><time>2026-04-18T10:04:28Z</time></trkpt><trkpt lat="39.38699882850402" lon="8.488381131508461"><ele>368.0</ele><time>2026-04-18T10:04:29Z</time></trkpt><trkpt lat="39.38688834474683" lon="8.488423333562038"><ele>370.0</ele><time>2026-04-18T10:04:30Z</time></trkpt><trkpt lat="39.38676349350145" lon="8.488488641262247"><ele>372.0</ele><time>2026-04-18T10:04:31Z</time></trkpt><trkpt lat="39.38660897697092" lon="8.48861148205941"><ele>374.0</ele><time>2026-04-18T10:04:32Z</time></trkpt><trkpt lat="39.38644106564606" lon="8.488768140401122"><ele>381.0</ele><time>2026-04-18T10:04:33Z</time></trkpt><trkpt lat="39.386285809866266" lon="8.488880429178671"><ele>388.0</ele><time>2026-04-18T10:04:34Z</time></trkpt><trkpt lat="39.38613687518254" lon="8.488955467438503"><ele>395.0</ele><time>2026-04-18T10:04:35Z</time></trkpt><trkpt lat="39.38599336725014" lon="8.488988462990553"><ele>395.0</ele><time>2026-04-18T10:04:36Z</time></trkpt><trkpt lat="39.38584422969297" lon="8.488945694186066"><ele>395.0</ele><time>2026-04-18T10:04:37Z</time></trkpt><trkpt lat="39.38569676349793" lon="8.488865660431268"><ele>395.0</ele><time>2026-04-18T10:04:38Z</time></trkpt><trkpt lat="39.38557501121065" lon="8.488814533134907"><ele>395.0</ele><time>2026-04-18T10:04:39Z</time></trkpt><trkpt lat="39.38547552543684" lon="8.488819955560949"><ele>400.75</ele><time>2026-04-18T10:04:40Z</time></trkpt><trkpt lat="39.38539452768956" lon="8.488883541581268"><ele>406.5</ele><time>2026-04-18T10:04:41Z</time></trkpt><trkpt lat="39.385320415978725" lon="8.488992695388188"><ele>412.25</ele><time>2026-04-18T10:04:42Z</time></trkpt><trkpt lat="39.3853303678332" lon="8.489178559261504"><ele>418.0</ele><time>2026-04-18T10:04:43Z</time></trkpt><trkpt lat="39.385331014094085" lon="8.48936470502853"><ele>418.0</ele><time>2026-04-18T10:04:44Z</time></trkpt><trkpt lat="39.38531213411277" lon="8.489547832098506"><ele>418.0</ele><time>2026-04-18T10:04:45Z</time></trkpt><trkpt lat="39.38532862214745" lon="8.489704209987991"><ele>418.0</ele><time>2026-04-18T10:04:46Z</time></trkpt><trkpt lat="39.385390555650574" lon="8.489815263404042"><ele>418.0</ele><time>2026-04-18T10:04:47Z</time></trkpt><trkpt lat="39.38550462383094" lon="8.489879935605298"><ele>413.6666666666667</ele><time>2026-04-18T10:04:48Z</time></trkpt><trkpt lat="39.385641314553325" lon="8.489935313662208"><ele>409.33333333333337</ele><time>2026-04-18T10:04:49Z</time></trkpt><trkpt lat="39.38580476472204" lon="8.489966121985812"><ele>405.0</ele><time>2026-04-18T10:04:50Z</time></trkpt><trkpt lat="39.3859935358842" lon="8.490002132843317"><ele>405.0</ele><time>2026-04-18T10:04:51Z</time></trkpt><trkpt lat="39.386187497616746" lon="8.490044836041054"><ele>405.0</ele><time>2026-04-18T10:04:52Z</time></trkpt><trkpt lat="39.386354608528514" lon="8.490092596642167"><ele>405.0</ele><time>2026-04-18T10:04:53Z</time></trkpt><trkpt lat="39.38650614660019" lon="8.490162891055059"><ele>406.0</ele><time>2026-04-18T10:04:54Z</time></trkpt><trkpt lat="39.38660015546213" lon="8.490312139725663"><ele>407.0</ele><time>2026-04-18T10:04:55Z</time></trkpt><trkpt lat="39.386673748449496" lon="8.49046535535336"><ele>408.0</ele><time>2026-04-18T10:04:56Z</time></trkpt><trkpt lat="39.38668979974459" lon="8.490613156354119"><ele>409.0</ele><time>2026-04-18T10:04:57Z</time></trkpt><trkpt lat="39.38666106288625" lon="8.490736382108143"><ele>409.0</ele><time>2026-04-18T10:04:58Z</time></trkpt><trkpt lat="39.38658396737806" lon="8.490846529339859"><ele>409.0</ele><time>2026-04-18T10:04:59Z</time></trkpt><trkpt lat="39.38648390110213" lon="8.490987336118764"><ele>409.0</ele><time>2026-04-18T10:05:00Z</time></trkpt><trkpt lat="39.38642644409559" lon="8.491174956437046"><ele>409.0</ele><time>2026-04-18T10:05:01Z</time></trkpt><trkpt lat="39.38637667854691" lon="8.49135682285393"><ele>411.6</ele><time>2026-04-18T10:05:02Z</time></trkpt><trkpt lat="39.38631770454085" lon="8.491501395875883"><ele>414.2</ele><time>2026-04-18T10:05:03Z</time></trkpt><trkpt lat="39.386239957056894" lon="8.491586840568608"><ele>416.8</ele><time>2026-04-18T10:05:04Z</time></trkpt><trkpt lat="39.38615036769301" lon="8.491593862631138"><ele>419.40000000000003</ele><time>2026-04-18T10:05:05Z</time></trkpt><trkpt lat="39.38605167141973" lon="8.491537864866197"><ele>422.0</ele><time>2026-04-18T10:05:06Z</time></trkpt><trkpt lat="39.38592844526696" lon="8.491502695852505"><ele>422.0</ele><time>2026-04-18T10:05:07Z</time></trkpt><trkpt lat="39.38579805164823" lon="8.491524493779336"><ele>422.0</ele><time>2026-04-18T10:05:08Z</time></trkpt><trkpt lat="39.385683981705434" lon="8.491577358397295"><ele>422.0</ele><time>2026-04-18T10:05:09Z</time></trkpt><trkpt lat="39.385609359767244" lon="8.491732453365957"><ele>422.0</ele><time>2026-04-18T10:05:10Z</time></trkpt><trkpt lat="39.38556285958856" lon="8.491915628637866"><ele>427.66666666666663</ele><time>2026-04-18T10:05:11Z</time></trkpt><trkpt lat="39.385516973176706" lon="8.492107660402468"><ele>433.33333333333337</ele><time>2026-04-18T10:05:12Z</time></trkpt><trkpt lat="39.385442637278054" lon="8.492257398011878"><ele>439.0</ele><time>2026-04-18T10:05:13Z</time></trkpt><trkpt lat="39.38531204316561" lon="8.49238013226116"><ele>439.0</ele><time>2026-04-18T10:05:14Z</time></trkpt><trkpt lat="39.385181869353495" lon="8.492509556721902"><ele>439.0</ele><time>2026-04-18T10:05:15Z</time></trkpt><trkpt lat="39.3851009636534" lon="8.492666454015124"><ele>439.0</ele><time>2026-04-18T10:05:16Z</time></trkpt><trkpt lat="39.385053158827205" lon="8.492836478422328"><ele>436.0</ele><time>2026-04-18T10:05:17Z</time></trkpt><trkpt lat="39.38495634604253" lon="8.492955851465371"><ele>433.0</ele><time>2026-04-18T10:05:18Z</time></trkpt><trkpt lat="39.38483329708488" lon="8.492982141206667"><ele>430.0</ele><time>2026-04-18T10:05:19Z</time></trkpt><trkpt lat="39.38470024183975" lon="8.493008300153546"><ele>427.0</ele><time>2026-04-18T10:05:20Z</time></trkpt><trkpt lat="39.38459044785556" lon="8.493082358896814"><ele>435.33333333333337</ele><time>2026-04-18T10:05:21Z</time></trkpt><trkpt lat="39.38453315532764" lon="8.493243606450601"><ele>443.66666666666663</ele><time>2026-04-18T10:05:22Z</time></trkpt><trkpt lat="39.38449129446094" lon="8.493433097977656"><ele>452.0</ele><time>2026-04-18T10:05:23Z</time></trkpt><trkpt lat="39.38442780272652" lon="8.493631860102399"><ele>450.3333333333333</ele><time>2026-04-18T10:05:24Z</time></trkpt><trkpt lat="39.384368490128686" lon="8.493845915524563"><ele>448.66666666666663</ele><time>2026-04-18T10:05:25Z</time></trkpt><trkpt lat="39.38431561148441" lon="8.494048091516783"><ele>447.0</ele><time>2026-04-18T10:05:26Z</time></trkpt><trkpt lat="39.38432173086077" lon="8.494226808421177"><ele>447.0</ele><time>2026-04-18T10:05:27Z</time></trkpt><trkpt lat="39.38435582239755" lon="8.4944142425356"><ele>447.0</ele><time>2026-04-18T10:05:28Z</time></trkpt><trkpt lat="39.38438403097942" lon="8.494614863574217"><ele>447.0</ele><time>2026-04-18T10:05:29Z</time></trkpt><trkpt lat="39.38439569296424" lon="8.494804076106972"><ele>446.75</ele><time>2026-04-18T10:05:30Z</time></trkpt><trkpt lat="39.38435883573477" lon="8.494994999326105"><ele>446.5</ele><time>2026-04-18T10:05:31Z</time></trkpt><trkpt lat="39.38429831505584" lon="8.49519182607829"><ele>446.25</ele><time>2026-04-18T10:05:32Z</time></trkpt><trkpt lat="39.38424614041677" lon="8.495348847567339"><ele>446.0</ele><time>2026-04-18T10:05:33Z</time></trkpt><trkpt lat="39.384180609366844" lon="8.495458302387371"><ele>445.5</ele><time>2026-04-18T10:05:34Z</time></trkpt><trkpt lat="39.384083408042954" lon="8.495545048985855"><ele>445.0</ele><time>2026-04-18T10:05:35Z</time></trkpt><trkpt lat="39.383959049336724" lon="8.495564684313974"><ele>444.5</ele><time>2026-04-18T10:05:36Z</time></trkpt><trkpt lat="39.383833219855525" lon="8.495518600981157"><ele>444.0</ele><time>2026-04-18T10:05:37Z</time></trkpt><trkpt lat="39.38371747035211" lon="8.495404901803752"><ele>443.66666666666663</ele><time>2026-04-18T10:05:38Z</time></trkpt><trkpt lat="39.3836198309443" lon="8.495234263044479"><ele>443.3333333333333</ele><time>2026-04-18T10:05:39Z</time></trkpt><trkpt lat="39.383524974998394" lon="8.495050144364656"><ele>443.0</ele><time>2026-04-18T10:05:40Z</time></trkpt><trkpt lat="39.383446642206096" lon="8.494840571134338"><ele>443.0</ele><time>2026-04-18T10:05:41Z</time></trkpt><trkpt lat="39.383386474547606" lon="8.494610073138487"><ele>443.0</ele><time>2026-04-18T10:05:42Z</time></trkpt><trkpt lat="39.38331972557598" lon="8.49436896933411"><ele>443.0</ele><time>2026-04-18T10:05:43Z</time></trkpt><trkpt lat="39.383250492985475" lon="8.494112684683197"><ele>445.66666666666663</ele><time>2026-04-18T10:05:44Z</time></trkpt><trkpt lat="39.38318171338384" lon="8.49384600200907"><ele>448.33333333333337</ele><time>2026-04-18T10:05:45Z</time></trkpt><trkpt lat="39.38311371335014" lon="8.493579606077981"><ele>451.0</ele><time>2026-04-18T10:05:46Z</time></trkpt><trkpt lat="39.38304121593077" lon="8.493316817287354"><ele>451.33333333333337</ele><time>2026-04-18T10:05:47Z</time></trkpt><trkpt lat="39.38297443327763" lon="8.49305532342942"><ele>451.66666666666663</ele><time>2026-04-18T10:05:48Z</time></trkpt><trkpt lat="39.38291122617179" lon="8.492800111927174"><ele>452.0</ele><time>2026-04-18T10:05:49Z</time></trkpt><trkpt lat="39.382850962557775" lon="8.49254918761895"><ele>454.66666666666663</ele><time>2026-04-18T10:05:50Z</time></trkpt><trkpt lat="39.3827968027552" lon="8.492306685081111"><ele>457.33333333333337</ele><time>2026-04-18T10:05:51Z</time></trkpt><trkpt lat="39.38274562747057" lon="8.492076574036876"><ele>460.0</ele><time>2026-04-18T10:05:52Z</time></trkpt><trkpt lat="39.38270027005264" lon="8.491863481947492"><ele>462.5</ele><time>2026-04-18T10:05:53Z</time></trkpt><trkpt lat="39.38265353201036" lon="8.491668198543195"><ele>465.0</ele><time>2026-04-18T10:05:54Z</time></trkpt><trkpt lat="39.382583364269436" lon="8.49152003732662"><ele>467.5</ele><time>2026-04-18T10:05:55Z</time></trkpt><trkpt lat="39.38248478489248" lon="8.491430371356183"><ele>470.0</ele><time>2026-04-18T10:05:56Z</time></trkpt><trkpt lat="39.382361623267464" lon="8.491390636895773"><ele>470.0</ele><time>2026-04-18T10:05:57Z</time></trkpt><trkpt lat="39.38222465139488" lon="8.491415211356962"><ele>470.0</ele><time>2026-04-18T10:05:58Z</time></trkpt><trkpt lat="39.38208166846085" lon="8.491489224278052"><ele>470.0</ele><time>2026-04-18T10:05:59Z</time></trkpt><trkpt lat="39.3819416682071" lon="8.491568765055408"><ele>470.0</ele><time>2026-04-18T10:06:00Z</time></trkpt><trkpt lat="39.381832587162684" lon="8.491635293000506"><ele>473.25</ele><time>2026-04-18T10:06:01Z</time></trkpt><trkpt lat="39.381771665493616" lon="8.491734914308635"><ele>476.5</ele><time>2026-04-18T10:06:02Z</time></trkpt><trkpt lat="39.38176245710308" lon="8.491873845189332"><ele>479.75</ele><time>2026-04-18T10:06:03Z</time></trkpt><trkpt lat="39.381787882435866" lon="8.492045331898675"><ele>483.0</ele><time>2026-04-18T10:06:04Z</time></trkpt><trkpt lat="39.38182050782656" lon="8.492241084294305"><ele>483.33333333333337</ele><time>2026-04-18T10:06:05Z</time></trkpt><trkpt lat="39.38182864974776" lon="8.492462938596395"><ele>483.6666666666667</ele><time>2026-04-18T10:06:06Z</time></trkpt><trkpt lat="39.38180001260506" lon="8.492704572112578"><ele>484.0</ele><time>2026-04-18T10:06:07Z</time></trkpt><trkpt lat="39.381785722940634" lon="8.492950452889236"><ele>484.0</ele><time>2026-04-18T10:06:08Z</time></trkpt><trkpt lat="39.3817739345959" lon="8.493165568476146"><ele>484.0</ele><time>2026-04-18T10:06:09Z</time></trkpt><trkpt lat="39.3817636372583" lon="8.493352415364903"><ele>484.0</ele><time>2026-04-18T10:06:10Z</time></trkpt><trkpt lat="39.38175553974236" lon="8.493516448275706"><ele>484.0</ele><time>2026-04-18T10:06:11Z</time></trkpt><trkpt lat="39.38169256715142" lon="8.493651363594807"><ele>482.5</ele><time>2026-04-18T10:06:12Z</time></trkpt><trkpt lat="39.38158502511055" lon="8.49377616986217"><ele>481.0</ele><time>2026-04-18T10:06:13Z</time></trkpt><trkpt lat="39.38147624995794" lon="8.49388474422952"><ele>479.5</ele><time>2026-04-18T10:06:14Z</time></trkpt><trkpt lat="39.38138014861032" lon="8.49395173327543"><ele>478.0</ele><time>2026-04-18T10:06:15Z</time></trkpt><trkpt lat="39.3812616663592" lon="8.493958142642839"><ele>478.0</ele><time>2026-04-18T10:06:16Z</time></trkpt><trkpt lat="39.38111627973197" lon="8.493924925453443"><ele>478.0</ele><time>2026-04-18T10:06:17Z</time></trkpt><trkpt lat="39.380988515831056" lon="8.493869183535462"><ele>478.0</ele><time>2026-04-18T10:06:18Z</time></trkpt><trkpt lat="39.38088919095772" lon="8.49377185894496"><ele>478.0</ele><time>2026-04-18T10:06:19Z</time></trkpt><trkpt lat="39.38080392344997" lon="8.49363355358089"><ele>482.75</ele><time>2026-04-18T10:06:20Z</time></trkpt><trkpt lat="39.3807078759534" lon="8.49350906611801"><ele>487.5</ele><time>2026-04-18T10:06:21Z</time></trkpt><trkpt lat="39.380577603014274" lon="8.493444509635857"><ele>492.25</ele><time>2026-04-18T10:06:22Z</time></trkpt><trkpt lat="39.380428844178745" lon="8.4934382960625"><ele>497.0</ele><time>2026-04-18T10:06:23Z</time></trkpt><trkpt lat="39.380284445288545" lon="8.493499437498972"><ele>498.0</ele><time>2026-04-18T10:06:24Z</time></trkpt><trkpt lat="39.38014567517198" lon="8.493606914194165"><ele>499.0</ele><time>2026-04-18T10:06:25Z</time></trkpt><trkpt lat="39.38003661390644" lon="8.49373937195041"><ele>500.0</ele><time>2026-04-18T10:06:26Z</time></trkpt><trkpt lat="39.37996435680671" lon="8.493893407584423"><ele>497.0</ele><time>2026-04-18T10:06:27Z</time></trkpt><trkpt lat="39.37990799489345" lon="8.494031804585218"><ele>494.0</ele><time>2026-04-18T10:06:28Z</time></trkpt><trkpt lat="39.37983269581677" lon="8.494128876797562"><ele>491.0</ele><time>2026-04-18T10:06:29Z</time></trkpt><trkpt lat="39.379722590975035" lon="8.494177317499773"><ele>488.0</ele><time>2026-04-18T10:06:30Z</time></trkpt><trkpt lat="39.37961845362678" lon="8.49414877624164"><ele>488.0</ele><time>2026-04-18T10:06:31Z</time></trkpt><trkpt lat="39.37951066393909" lon="8.494080226997527"><ele>488.0</ele><time>2026-04-18T10:06:32Z</time></trkpt><trkpt lat="39.379404782659115" lon="8.493967181245564"><ele>488.0</ele><time>2026-04-18T10:06:33Z</time></trkpt><trkpt lat="39.37927677300183" lon="8.493862022561805"><ele>488.0</ele><time>2026-04-18T10:06:34Z</time></trkpt><trkpt lat="39.379147142788696" lon="8.493774019184423"><ele>487.75</ele><time>2026-04-18T10:06:35Z</time></trkpt><trkpt lat="39.37905515647543" lon="8.493654614040524"><ele>487.5</ele><time>2026-04-18T10:06:36Z</time></trkpt><trkpt lat="39.37896708916548" lon="8.493502263985325"><ele>487.25</ele><time>2026-04-18T10:06:37Z</time></trkpt><trkpt lat="39.378870335692326" lon="8.493322609857177"><ele>487.0</ele><time>2026-04-18T10:06:38Z</time></trkpt><trkpt lat="39.37876522969661" lon="8.493127038498042"><ele>487.0</ele><time>2026-04-18T10:06:39Z</time></trkpt><trkpt lat="39.37865980585529" lon="8.492930996220593"><ele>487.0</ele><time>2026-04-18T10:06:40Z</time></trkpt><trkpt lat="39.378550256191375" lon="8.49271540273569"><ele>487.0</ele><time>2026-04-18T10:06:41Z</time></trkpt><trkpt lat="39.378439447390846" lon="8.492511969488284"><ele>493.0</ele><time>2026-04-18T10:06:42Z</time></trkpt><trkpt lat="39.37835189407858" lon="8.492336889314371"><ele>499.0</ele><time>2026-04-18T10:06:43Z</time></trkpt><trkpt lat="39.378273793287526" lon="8.492190028267741"><ele>505.0</ele><time>2026-04-18T10:06:44Z</time></trkpt><trkpt lat="39.37819234590777" lon="8.492069616954998"><ele>511.0</ele><time>2026-04-18T10:06:45Z</time></trkpt><trkpt lat="39.3780970407433" lon="8.492005658763182"><ele>517.0</ele><time>2026-04-18T10:06:46Z</time></trkpt><trkpt lat="39.37796866573074" lon="8.492007244581652"><ele>523.0</ele><time>2026-04-18T10:06:47Z</time></trkpt><trkpt lat="39.37781972845352" lon="8.492029794658691"><ele>529.0</ele><time>2026-04-18T10:06:48Z</time></trkpt><trkpt lat="39.377649606683406" lon="8.492052944811197"><ele>535.0</ele><time>2026-04-18T10:06:49Z</time></trkpt><trkpt lat="39.377484211783646" lon="8.492071972260955"><ele>530.8</ele><time>2026-04-18T10:06:50Z</time></trkpt><trkpt lat="39.377372456006185" lon="8.492111943738925"><ele>526.6</ele><time>2026-04-18T10:06:51Z</time></trkpt><trkpt lat="39.37731296734997" lon="8.492202048873196"><ele>522.4</ele><time>2026-04-18T10:06:52Z</time></trkpt><trkpt lat="39.37730036475899" lon="8.492326736726584"><ele>518.2</ele><time>2026-04-18T10:06:53Z</time></trkpt><trkpt lat="39.37733957358326" lon="8.49245993148213"><ele>514.0</ele><time>2026-04-18T10:06:54Z</time></trkpt><trkpt lat="39.37736593816275" lon="8.49258707140458"><ele>514.0</ele><time>2026-04-18T10:06:55Z</time></trkpt><trkpt lat="39.377330835970355" lon="8.492709295412414"><ele>514.0</ele><time>2026-04-18T10:06:56Z</time></trkpt><trkpt lat="39.377243203624126" lon="8.492812044641948"><ele>514.0</ele><time>2026-04-18T10:06:57Z</time></trkpt><trkpt lat="39.37712395414303" lon="8.492897201643789"><ele>514.0</ele><time>2026-04-18T10:06:58Z</time></trkpt><trkpt lat="39.37699038810506" lon="8.49299301577686"><ele>513.75</ele><time>2026-04-18T10:06:59Z</time></trkpt><trkpt lat="39.376848224659085" lon="8.493082043892029"><ele>513.5</ele><time>2026-04-18T10:07:00Z</time></trkpt><trkpt lat="39.37671890849465" lon="8.493140482139946"><ele>513.25</ele><time>2026-04-18T10:07:01Z</time></trkpt><trkpt lat="39.37660651076326" lon="8.493148625776785"><ele>513.0</ele><time>2026-04-18T10:07:02Z</time></trkpt><trkpt lat="39.37650058491308" lon="8.49309390867874"><ele>513.0</ele><time>2026-04-18T10:07:03Z</time></trkpt><trkpt lat="39.37641542799523" lon="8.492976137175726"><ele>513.0</ele><time>2026-04-18T10:07:04Z</time></trkpt><trkpt lat="39.376330470033544" lon="8.492843379744464"><ele>513.0</ele><time>2026-04-18T10:07:05Z</time></trkpt><trkpt lat="39.37623042371312" lon="8.492779044306491"><ele>513.0</ele><time>2026-04-18T10:07:06Z</time></trkpt><trkpt lat="39.37610764190246" lon="8.492772011325778"><ele>516.0</ele><time>2026-04-18T10:07:07Z</time></trkpt><trkpt lat="39.37598061325507" lon="8.492830188721552"><ele>519.0</ele><time>2026-04-18T10:07:08Z</time></trkpt><trkpt lat="39.375871406514605" lon="8.49294713948687"><ele>522.0</ele><time>2026-04-18T10:07:09Z</time></trkpt><trkpt lat="39.375762124275404" lon="8.493087224757554"><ele>525.0</ele><time>2026-04-18T10:07:10Z</time></trkpt><trkpt lat="39.37562179978665" lon="8.493209360687944"><ele>534.0</ele><time>2026-04-18T10:07:11Z</time></trkpt><trkpt lat="39.37546271238402" lon="8.4933311960889"><ele>543.0</ele><time>2026-04-18T10:07:12Z</time></trkpt><trkpt lat="39.37531312964074" lon="8.493472706097414"><ele>552.0</ele><time>2026-04-18T10:07:13Z</time></trkpt><trkpt lat="39.375194710052" lon="8.49363256809421"><ele>549.5</ele><time>2026-04-18T10:07:14Z</time></trkpt><trkpt lat="39.37511800403162" lon="8.493795646721338"><ele>547.0</ele><time>2026-04-18T10:07:15Z</time></trkpt><trkpt lat="39.37509799168996" lon="8.493955623482979"><ele>544.5</ele><time>2026-04-18T10:07:16Z</time></trkpt><trkpt lat="39.37513894706577" lon="8.494096648833718"><ele>542.0</ele><time>2026-04-18T10:07:17Z</time></trkpt><trkpt lat="39.37520743680978" lon="8.494222929155969"><ele>542.0</ele><time>2026-04-18T10:07:18Z</time></trkpt><trkpt lat="39.37522171463771" lon="8.494364954188487"><ele>542.0</ele><time>2026-04-18T10:07:19Z</time></trkpt><trkpt lat="39.375162573083394" lon="8.49450390652902"><ele>542.0</ele><time>2026-04-18T10:07:20Z</time></trkpt><trkpt lat="39.37510628548138" lon="8.494664123028619"><ele>542.0</ele><time>2026-04-18T10:07:21Z</time></trkpt><trkpt lat="39.37501282540395" lon="8.494811367435297"><ele>539.3333333333333</ele><time>2026-04-18T10:07:22Z</time></trkpt><trkpt lat="39.3748801537787" lon="8.494927303908982"><ele>536.6666666666666</ele><time>2026-04-18T10:07:23Z</time></trkpt><trkpt lat="39.3747397630594" lon="8.495030213256754"><ele>534.0</ele><time>2026-04-18T10:07:24Z</time></trkpt><trkpt lat="39.37462781704014" lon="8.495127954213684"><ele>538.25</ele><time>2026-04-18T10:07:25Z</time></trkpt><trkpt lat="39.374549605122375" lon="8.49526179383793"><ele>542.5</ele><time>2026-04-18T10:07:26Z</time></trkpt><trkpt lat="39.374542391457275" lon="8.495418726895954"><ele>546.75</ele><time>2026-04-18T10:07:27Z</time></trkpt><trkpt lat="39.37456291609594" lon="8.49557690227635"><ele>551.0</ele><time>2026-04-18T10:07:28Z</time></trkpt><trkpt lat="39.374583586080746" lon="8.495730457856627"><ele>551.0</ele><time>2026-04-18T10:07:29Z</time></trkpt><trkpt lat="39.37453054063065" lon="8.495859063114619"><ele>551.0</ele><time>2026-04-18T10:07:30Z</time></trkpt><trkpt lat="39.37446472435302" lon="8.496017049362028"><ele>551.0</ele><time>2026-04-18T10:07:31Z</time></trkpt><trkpt lat="39.37436527957476" lon="8.49617129846963"><ele>551.0</ele><time>2026-04-18T10:07:32Z</time></trkpt><trkpt lat="39.37425619203345" lon="8.496333954902875"><ele>549.75</ele><time>2026-04-18T10:07:33Z</time></trkpt><trkpt lat="39.37415829710336" lon="8.49647966046673"><ele>548.5</ele><time>2026-04-18T10:07:34Z</time></trkpt><trkpt lat="39.37406213919377" lon="8.496622780674214"><ele>547.25</ele><time>2026-04-18T10:07:35Z</time></trkpt><trkpt lat="39.373963010081354" lon="8.496771046279369"><ele>546.0</ele><time>2026-04-18T10:07:36Z</time></trkpt><trkpt lat="39.37387592355789" lon="8.496930113223215"><ele>546.25</ele><time>2026-04-18T10:07:37Z</time></trkpt><trkpt lat="39.37377875215851" lon="8.497064332889455"><ele>546.5</ele><time>2026-04-18T10:07:38Z</time></trkpt><trkpt lat="39.373687368231955" lon="8.497193687247615"><ele>546.75</ele><time>2026-04-18T10:07:39Z</time></trkpt><trkpt lat="39.37359237256432" lon="8.497337116956919"><ele>547.0</ele><time>2026-04-18T10:07:40Z</time></trkpt><trkpt lat="39.37348374214934" lon="8.497498656860833"><ele>546.3333333333334</ele><time>2026-04-18T10:07:41Z</time></trkpt><trkpt lat="39.373378410919955" lon="8.497673212041976"><ele>545.6666666666666</ele><time>2026-04-18T10:07:42Z</time></trkpt><trkpt lat="39.373266276332025" lon="8.49784274233677"><ele>545.0</ele><time>2026-04-18T10:07:43Z</time></trkpt><trkpt lat="39.37315323967822" lon="8.498010926897262"><ele>542.6666666666666</ele><time>2026-04-18T10:07:44Z</time></trkpt><trkpt lat="39.373046200387996" lon="8.498174168490664"><ele>540.3333333333334</ele><time>2026-04-18T10:07:45Z</time></trkpt><trkpt lat="39.37292174489743" lon="8.498317307019674"><ele>538.0</ele><time>2026-04-18T10:07:46Z</time></trkpt><trkpt lat="39.37276701077059" lon="8.498400808523364"><ele>538.0</ele><time>2026-04-18T10:07:47Z</time></trkpt><trkpt lat="39.37261903403228" lon="8.498460658367097"><ele>538.0</ele><time>2026-04-18T10:07:48Z</time></trkpt><trkpt lat="39.37245202088873" lon="8.49846220726423"><ele>538.0</ele><time>2026-04-18T10:07:49Z</time></trkpt><trkpt lat="39.37228060007073" lon="8.498457010282623"><ele>533.6666666666667</ele><time>2026-04-18T10:07:50Z</time></trkpt><trkpt lat="39.37210946209211" lon="8.498495785766979"><ele>529.3333333333334</ele><time>2026-04-18T10:07:51Z</time></trkpt><trkpt lat="39.371955163139326" lon="8.498575957617872"><ele>525.0</ele><time>2026-04-18T10:07:52Z</time></trkpt><trkpt lat="39.371811614978206" lon="8.498684100073925"><ele>532.0</ele><time>2026-04-18T10:07:53Z</time></trkpt><trkpt lat="39.37168295657869" lon="8.498841500193935"><ele>539.0</ele><time>2026-04-18T10:07:54Z</time></trkpt><trkpt lat="39.37155940738887" lon="8.499011791259305"><ele>546.0</ele><time>2026-04-18T10:07:55Z</time></trkpt><trkpt lat="39.37141654719715" lon="8.49914181512207"><ele>542.75</ele><time>2026-04-18T10:07:56Z</time></trkpt><trkpt lat="39.37127399261794" lon="8.499220460685065"><ele>539.5</ele><time>2026-04-18T10:07:57Z</time></trkpt><trkpt lat="39.37115632851113" lon="8.499273157209757"><ele>536.25</ele><time>2026-04-18T10:07:58Z</time></trkpt><trkpt lat="39.37104659007746" lon="8.499269995268289"><ele>533.0</ele><time>2026-04-18T10:07:59Z</time></trkpt><trkpt lat="39.37096175197646" lon="8.499204255199139"><ele>533.0</ele><time>2026-04-18T10:08:00Z</time></trkpt><trkpt lat="39.37090240229543" lon="8.499085349343948"><ele>533.0</ele><time>2026-04-18T10:08:01Z</time></trkpt><trkpt lat="39.37086905279977" lon="8.498931795801962"><ele>533.0</ele><time>2026-04-18T10:08:02Z</time></trkpt><trkpt lat="39.370830439790915" lon="8.49878323346688"><ele>533.0</ele><time>2026-04-18T10:08:03Z</time></trkpt><trkpt lat="39.37074430655824" lon="8.498677422847864"><ele>527.5</ele><time>2026-04-18T10:08:04Z</time></trkpt><trkpt lat="39.37062673505701" lon="8.498637575986736"><ele>522.0</ele><time>2026-04-18T10:08:05Z</time></trkpt><trkpt lat="39.37049971436351" lon="8.498659936365483"><ele>516.5</ele><time>2026-04-18T10:08:06Z</time></trkpt><trkpt lat="39.37039666299829" lon="8.498743277024674"><ele>511.0</ele><time>2026-04-18T10:08:07Z</time></trkpt><trkpt lat="39.3703334127399" lon="8.498880116796624"><ele>510.0</ele><time>2026-04-18T10:08:08Z</time></trkpt><trkpt lat="39.3703082281952" lon="8.499049710817195"><ele>509.0</ele><time>2026-04-18T10:08:09Z</time></trkpt><trkpt lat="39.37032274848837" lon="8.499228910455923"><ele>508.0</ele><time>2026-04-18T10:08:10Z</time></trkpt><trkpt lat="39.37035330684594" lon="8.499399004534995"><ele>507.0</ele><time>2026-04-18T10:08:11Z</time></trkpt><trkpt lat="39.370353475108466" lon="8.4995661016501"><ele>510.75</ele><time>2026-04-18T10:08:12Z</time></trkpt><trkpt lat="39.37031115051907" lon="8.499724506908096"><ele>514.5</ele><time>2026-04-18T10:08:13Z</time></trkpt><trkpt lat="39.37022451802437" lon="8.499874151223285"><ele>518.25</ele><time>2026-04-18T10:08:14Z</time></trkpt><trkpt lat="39.370099222129575" lon="8.499992413151414"><ele>522.0</ele><time>2026-04-18T10:08:15Z</time></trkpt><trkpt lat="39.369948549777206" lon="8.500086994317076"><ele>522.0</ele><time>2026-04-18T10:08:16Z</time></trkpt><trkpt lat="39.36979967540464" lon="8.500182284638427"><ele>522.0</ele><time>2026-04-18T10:08:17Z</time></trkpt><trkpt lat="39.36968177338666" lon="8.500273816229978"><ele>522.0</ele><time>2026-04-18T10:08:18Z</time></trkpt><trkpt lat="39.36959130846276" lon="8.500388499412068"><ele>522.0</ele><time>2026-04-18T10:08:19Z</time></trkpt><trkpt lat="39.36953876445942" lon="8.500547279607964"><ele>520.75</ele><time>2026-04-18T10:08:20Z</time></trkpt><trkpt lat="39.36951174006155" lon="8.500722685561426"><ele>519.5</ele><time>2026-04-18T10:08:21Z</time></trkpt><trkpt lat="39.36947392352259" lon="8.500878310715217"><ele>518.25</ele><time>2026-04-18T10:08:22Z</time></trkpt><trkpt lat="39.36940671970809" lon="8.500982597450912"><ele>517.0</ele><time>2026-04-18T10:08:23Z</time></trkpt><trkpt lat="39.36931384549044" lon="8.501029063387106"><ele>517.0</ele><time>2026-04-18T10:08:24Z</time></trkpt><trkpt lat="39.36919202215293" lon="8.500999610015477"><ele>517.0</ele><time>2026-04-18T10:08:25Z</time></trkpt><trkpt lat="39.36905415163451" lon="8.500929800816587"><ele>517.0</ele><time>2026-04-18T10:08:26Z</time></trkpt><trkpt lat="39.36891288605417" lon="8.500877983739702"><ele>517.0</ele><time>2026-04-18T10:08:27Z</time></trkpt><trkpt lat="39.368755524152405" lon="8.500843962966409"><ele>513.3333333333334</ele><time>2026-04-18T10:08:28Z</time></trkpt><trkpt lat="39.36858871847358" lon="8.50082839273189"><ele>509.66666666666663</ele><time>2026-04-18T10:08:29Z</time></trkpt><trkpt lat="39.368430817116504" lon="8.50081992749538"><ele>506.0</ele><time>2026-04-18T10:08:30Z</time></trkpt><trkpt lat="39.36828944896692" lon="8.500834786126697"><ele>506.0</ele><time>2026-04-18T10:08:31Z</time></trkpt><trkpt lat="39.368156427692874" lon="8.500906812986441"><ele>506.0</ele><time>2026-04-18T10:08:32Z</time></trkpt><trkpt lat="39.368058651041146" lon="8.50102244651163"><ele>506.0</ele><time>2026-04-18T10:08:33Z</time></trkpt><trkpt lat="39.36800535080999" lon="8.501157150493198"><ele>506.0</ele><time>2026-04-18T10:08:34Z</time></trkpt><trkpt lat="39.367999812778" lon="8.501301955326227"><ele>506.5</ele><time>2026-04-18T10:08:35Z</time></trkpt><trkpt lat="39.368041189234994" lon="8.501445513685708"><ele>507.0</ele><time>2026-04-18T10:08:36Z</time></trkpt><trkpt lat="39.368140585420164" lon="8.501574815853463"><ele>507.5</ele><time>2026-04-18T10:08:37Z</time></trkpt><trkpt lat="39.36825974905159" lon="8.501688921031297"><ele>508.0</ele><time>2026-04-18T10:08:38Z</time></trkpt><trkpt lat="39.36837249473714" lon="8.50180207329639"><ele>508.0</ele><time>2026-04-18T10:08:39Z</time></trkpt><trkpt lat="39.36845873000001" lon="8.501909706847353"><ele>507.99999999999994</ele><time>2026-04-18T10:08:40Z</time></trkpt><trkpt lat="39.36852047269411" lon="8.502006057350298"><ele>507.99999999999994</ele><time>2026-04-18T10:08:41Z</time></trkpt><trkpt lat="39.36854650362895" lon="8.50210470999552"><ele>508.0</ele><time>2026-04-18T10:08:42Z</time></trkpt><trkpt lat="39.368507028227945" lon="8.502198975702317"><ele>508.0</ele><time>2026-04-18T10:08:43Z</time></trkpt><trkpt lat="39.368425601804184" lon="8.50226493307462"><ele>509.25</ele><time>2026-04-18T10:08:44Z</time></trkpt><trkpt lat="39.368302905357034" lon="8.502269213395238"><ele>510.5</ele><time>2026-04-18T10:08:45Z</time></trkpt><trkpt lat="39.36815857140754" lon="8.502312653034709"><ele>511.75</ele><time>2026-04-18T10:08:46Z</time></trkpt><trkpt lat="39.36798782893331" lon="8.502333907209657"><ele>513.0</ele><time>2026-04-18T10:08:47Z</time></trkpt><trkpt lat="39.36779549175626" lon="8.502367851551472"><ele>509.33333333333337</ele><time>2026-04-18T10:08:48Z</time></trkpt><trkpt lat="39.36760267330115" lon="8.502408477385467"><ele>505.6666666666667</ele><time>2026-04-18T10:08:49Z</time></trkpt><trkpt lat="39.36742119104882" lon="8.502446310275726"><ele>502.0</ele><time>2026-04-18T10:08:50Z</time></trkpt><trkpt lat="39.36724906803609" lon="8.502472219478829"><ele>501.6666666666667</ele><time>2026-04-18T10:08:51Z</time></trkpt><trkpt lat="39.367092753577694" lon="8.502466074264857"><ele>501.33333333333337</ele><time>2026-04-18T10:08:52Z</time></trkpt><trkpt lat="39.36694313245191" lon="8.502405127164673"><ele>501.0</ele><time>2026-04-18T10:08:53Z</time></trkpt><trkpt lat="39.366798005169066" lon="8.502301620969453"><ele>501.0</ele><time>2026-04-18T10:08:54Z</time></trkpt><trkpt lat="39.36665220718886" lon="8.502199298347673"><ele>501.0</ele><time>2026-04-18T10:08:55Z</time></trkpt><trkpt lat="39.36650143408567" lon="8.502143563665978"><ele>501.0</ele><time>2026-04-18T10:08:56Z</time></trkpt><trkpt lat="39.3663462622721" lon="8.502120792744556"><ele>498.75</ele><time>2026-04-18T10:08:57Z</time></trkpt><trkpt lat="39.36620567424915" lon="8.50211794189821"><ele>496.5</ele><time>2026-04-18T10:08:58Z</time></trkpt><trkpt lat="39.366081226113785" lon="8.502156348449308"><ele>494.25</ele><time>2026-04-18T10:08:59Z</time></trkpt><trkpt lat="39.36596543066017" lon="8.502251515616624"><ele>492.0</ele><time>2026-04-18T10:09:00Z</time></trkpt><trkpt lat="39.36584218824068" lon="8.50236211495824"><ele>492.0</ele><time>2026-04-18T10:09:01Z</time></trkpt><trkpt lat="39.36569717408525" lon="8.50244393038317"><ele>492.0</ele><time>2026-04-18T10:09:02Z</time></trkpt><trkpt lat="39.36552628638475" lon="8.502479794505913"><ele>492.0</ele><time>2026-04-18T10:09:03Z</time></trkpt><trkpt lat="39.36535649033387" lon="8.502507197742442"><ele>489.25</ele><time>2026-04-18T10:09:04Z</time></trkpt><trkpt lat="39.36520413773642" lon="8.502534308030354"><ele>486.5</ele><time>2026-04-18T10:09:05Z</time></trkpt><trkpt lat="39.36507634105501" lon="8.502556406308623"><ele>483.75</ele><time>2026-04-18T10:09:06Z</time></trkpt><trkpt lat="39.36495637563415" lon="8.502580916730095"><ele>481.0</ele><time>2026-04-18T10:09:07Z</time></trkpt><trkpt lat="39.36485329745626" lon="8.502597168655354"><ele>481.00000000000006</ele><time>2026-04-18T10:09:08Z</time></trkpt><trkpt lat="39.36476282248668" lon="8.502590189349457"><ele>481.0</ele><time>2026-04-18T10:09:09Z</time></trkpt><trkpt lat="39.36468236209276" lon="8.502546311301582"><ele>481.0</ele><time>2026-04-18T10:09:10Z</time></trkpt><trkpt lat="39.36464044048649" lon="8.502446688663703"><ele>481.0</ele><time>2026-04-18T10:09:11Z</time></trkpt><trkpt lat="39.36458746033201" lon="8.502359899374893"><ele>481.00000000000006</ele><time>2026-04-18T10:09:12Z</time></trkpt><trkpt lat="39.36457732764771" lon="8.502250294248975"><ele>481.0</ele><time>2026-04-18T10:09:13Z</time></trkpt><trkpt lat="39.36458765989906" lon="8.502132216161803"><ele>481.8</ele><time>2026-04-18T10:09:14Z</time></trkpt><trkpt lat="39.36463708472489" lon="8.502015850059882"><ele>482.6</ele><time>2026-04-18T10:09:15Z</time></trkpt><trkpt lat="39.364657392002364" lon="8.501892751525977"><ele>483.4</ele><time>2026-04-18T10:09:16Z</time></trkpt><trkpt lat="39.36469004623482" lon="8.501774580877239"><ele>484.2</ele><time>2026-04-18T10:09:17Z</time></trkpt><trkpt lat="39.36471069671832" lon="8.501641253085458"><ele>485.0</ele><time>2026-04-18T10:09:18Z</time></trkpt><trkpt lat="39.364719325742136" lon="8.501503280571379"><ele>481.2</ele><time>2026-04-18T10:09:19Z</time></trkpt><trkpt lat="39.36471791640646" lon="8.501363691511706"><ele>477.4</ele><time>2026-04-18T10:09:20Z</time></trkpt><trkpt lat="39.364683810563434" lon="8.50123483063219"><ele>473.6</ele><time>2026-04-18T10:09:21Z</time></trkpt><trkpt lat="39.36462419996689" lon="8.50112394547684"><ele>469.8</ele><time>2026-04-18T10:09:22Z</time></trkpt><trkpt lat="39.36456000042393" lon="8.501021713887857"><ele>466.0</ele><time>2026-04-18T10:09:23Z</time></trkpt><trkpt lat="39.36448810428552" lon="8.500925247721291"><ele>466.0</ele><time>2026-04-18T10:09:24Z</time></trkpt><trkpt lat="39.36438542512765" lon="8.500859518682814"><ele>466.0</ele><time>2026-04-18T10:09:25Z</time></trkpt><trkpt lat="39.364264794156" lon="8.500826780874238"><ele>466.0</ele><time>2026-04-18T10:09:26Z</time></trkpt><trkpt lat="39.364139316556574" lon="8.500797472336648"><ele>466.0</ele><time>2026-04-18T10:09:27Z</time></trkpt><trkpt lat="39.364017362464324" lon="8.500770784887338"><ele>466.0</ele><time>2026-04-18T10:09:28Z</time></trkpt><trkpt lat="39.363894659234724" lon="8.500741704213532"><ele>466.0</ele><time>2026-04-18T10:09:29Z</time></trkpt><trkpt lat="39.36377109010197" lon="8.500725746457457"><ele>466.0</ele><time>2026-04-18T10:09:30Z</time></trkpt><trkpt lat="39.36364068937084" lon="8.500728138918412"><ele>466.0</ele><time>2026-04-18T10:09:31Z</time></trkpt><trkpt lat="39.36350699049265" lon="8.50075592510458"><ele>465.5</ele><time>2026-04-18T10:09:32Z</time></trkpt><trkpt lat="39.36337214251861" lon="8.500796166738185"><ele>465.0</ele><time>2026-04-18T10:09:33Z</time></trkpt><trkpt lat="39.36323842295881" lon="8.500833761976741"><ele>464.5</ele><time>2026-04-18T10:09:34Z</time></trkpt><trkpt lat="39.363108401926254" lon="8.500874177085386"><ele>464.0</ele><time>2026-04-18T10:09:35Z</time></trkpt><trkpt lat="39.362985322163716" lon="8.500936438019902"><ele>462.25</ele><time>2026-04-18T10:09:36Z</time></trkpt><trkpt lat="39.36288217897156" lon="8.501015080055899"><ele>460.5</ele><time>2026-04-18T10:09:37Z</time></trkpt><trkpt lat="39.362793404381776" lon="8.501101887678198"><ele>458.75</ele><time>2026-04-18T10:09:38Z</time></trkpt><trkpt lat="39.36272380682808" lon="8.501206278431097"><ele>457.0</ele><time>2026-04-18T10:09:39Z</time></trkpt><trkpt lat="39.362672675426516" lon="8.501336636090805"><ele>457.0</ele><time>2026-04-18T10:09:40Z</time></trkpt><trkpt lat="39.36262272311103" lon="8.501472221029466"><ele>457.0</ele><time>2026-04-18T10:09:41Z</time></trkpt><trkpt lat="39.36255897382602" lon="8.50159302337823"><ele>457.0</ele><time>2026-04-18T10:09:42Z</time></trkpt><trkpt lat="39.362474842835645" lon="8.501691559728382"><ele>457.0</ele><time>2026-04-18T10:09:43Z</time></trkpt><trkpt lat="39.36237067033115" lon="8.501761666628067"><ele>457.0</ele><time>2026-04-18T10:09:44Z</time></trkpt><trkpt lat="39.36225726521806" lon="8.501800414128185"><ele>457.00000000000006</ele><time>2026-04-18T10:09:45Z</time></trkpt><trkpt lat="39.362150815691045" lon="8.501820852571807"><ele>457.00000000000006</ele><time>2026-04-18T10:09:46Z</time></trkpt><trkpt lat="39.36206340503901" lon="8.501841859408033"><ele>457.0</ele><time>2026-04-18T10:09:47Z</time></trkpt><trkpt lat="39.361988870261136" lon="8.50187059451796"><ele>457.0</ele><time>2026-04-18T10:09:48Z</time></trkpt><trkpt lat="39.36188993923996" lon="8.501968660940987"><ele>456.33333333333337</ele><time>2026-04-18T10:09:50Z</time></trkpt><trkpt lat="39.36187073611807" lon="8.502060558616725"><ele>455.6666666666667</ele><time>2026-04-18T10:09:51Z</time></trkpt><trkpt lat="39.3618825728423" lon="8.502157530832992"><ele>455.0</ele><time>2026-04-18T10:09:52Z</time></trkpt><trkpt lat="39.36192915643899" lon="8.502230124161663"><ele>454.33333333333337</ele><time>2026-04-18T10:09:53Z</time></trkpt><trkpt lat="39.36201068386313" lon="8.502270312496716"><ele>453.6666666666667</ele><time>2026-04-18T10:09:54Z</time></trkpt><trkpt lat="39.362098921514246" lon="8.502295526194036"><ele>453.0</ele><time>2026-04-18T10:09:55Z</time></trkpt><trkpt lat="39.36221178221179" lon="8.502333214752058"><ele>453.0</ele><time>2026-04-18T10:09:56Z</time></trkpt><trkpt lat="39.36232145391176" lon="8.50239441641709"><ele>453.0</ele><time>2026-04-18T10:09:57Z</time></trkpt><trkpt lat="39.36244326805418" lon="8.502444158921733"><ele>453.0</ele><time>2026-04-18T10:09:58Z</time></trkpt><trkpt lat="39.362554428192254" lon="8.502488927244292"><ele>453.0</ele><time>2026-04-18T10:09:59Z</time></trkpt><trkpt lat="39.36265760600556" lon="8.502505557443012"><ele>453.0</ele><time>2026-04-18T10:10:00Z</time></trkpt><trkpt lat="39.362740539448815" lon="8.50256430947732"><ele>452.99999999999994</ele><time>2026-04-18T10:10:01Z</time></trkpt><trkpt lat="39.36280143512725" lon="8.502648154968368"><ele>452.99999999999994</ele><time>2026-04-18T10:10:02Z</time></trkpt><trkpt lat="39.36283162560667" lon="8.50275914966573"><ele>453.0</ele><time>2026-04-18T10:10:03Z</time></trkpt><trkpt lat="39.36282479086326" lon="8.502884301726452"><ele>453.0</ele><time>2026-04-18T10:10:04Z</time></trkpt><trkpt lat="39.362779916647426" lon="8.50300626022843"><ele>452.5</ele><time>2026-04-18T10:10:05Z</time></trkpt><trkpt lat="39.3627003190436" lon="8.503119071619889"><ele>452.0</ele><time>2026-04-18T10:10:06Z</time></trkpt><trkpt lat="39.36259067973257" lon="8.503238661113217"><ele>451.5</ele><time>2026-04-18T10:10:07Z</time></trkpt><trkpt lat="39.36243814115778" lon="8.503366218689276"><ele>451.0</ele><time>2026-04-18T10:10:08Z</time></trkpt><trkpt lat="39.36227701511581" lon="8.503527468159742"><ele>443.5</ele><time>2026-04-18T10:10:09Z</time></trkpt><trkpt lat="39.36210808594211" lon="8.503705616551896"><ele>436.0</ele><time>2026-04-18T10:10:10Z</time></trkpt><trkpt lat="39.3619257584519" lon="8.503891113637918"><ele>436.0</ele><time>2026-04-18T10:10:11Z</time></trkpt><trkpt lat="39.36176192604495" lon="8.504079293083212"><ele>436.0</ele><time>2026-04-18T10:10:12Z</time></trkpt><trkpt lat="39.361612013879856" lon="8.504256261352523"><ele>436.0</ele><time>2026-04-18T10:10:13Z</time></trkpt><trkpt lat="39.361476838788356" lon="8.504418375778005"><ele>430.0</ele><time>2026-04-18T10:10:14Z</time></trkpt><trkpt lat="39.36135072122226" lon="8.504572657855503"><ele>424.0</ele><time>2026-04-18T10:10:15Z</time></trkpt><trkpt lat="39.361247519051375" lon="8.504706955224615"><ele>418.0</ele><time>2026-04-18T10:10:16Z</time></trkpt><trkpt lat="39.36118669691245" lon="8.504839355209121"><ele>412.0</ele><time>2026-04-18T10:10:17Z</time></trkpt><trkpt lat="39.361185640185795" lon="8.504979332094328"><ele>412.0</ele><time>2026-04-18T10:10:18Z</time></trkpt><trkpt lat="39.361242038963404" lon="8.505119373500735"><ele>412.0</ele><time>2026-04-18T10:10:19Z</time></trkpt><trkpt lat="39.361319606499514" lon="8.505266081161142"><ele>412.0</ele><time>2026-04-18T10:10:20Z</time></trkpt><trkpt lat="39.36135061587478" lon="8.5054176588236"><ele>412.0</ele><time>2026-04-18T10:10:21Z</time></trkpt><trkpt lat="39.361316649559335" lon="8.50555594597929"><ele>412.25</ele><time>2026-04-18T10:10:22Z</time></trkpt><trkpt lat="39.361243820366845" lon="8.505683785847685"><ele>412.5</ele><time>2026-04-18T10:10:23Z</time></trkpt><trkpt lat="39.36118979985525" lon="8.505838049470336"><ele>412.75</ele><time>2026-04-18T10:10:24Z</time></trkpt><trkpt lat="39.36118018404337" lon="8.506018496651146"><ele>413.0</ele><time>2026-04-18T10:10:25Z</time></trkpt><trkpt lat="39.361215130027" lon="8.506192793537071"><ele>411.5</ele><time>2026-04-18T10:10:26Z</time></trkpt><trkpt lat="39.361299588124695" lon="8.506341431867405"><ele>410.0</ele><time>2026-04-18T10:10:27Z</time></trkpt><trkpt lat="39.36141481464434" lon="8.506462988894905"><ele>408.5</ele><time>2026-04-18T10:10:28Z</time></trkpt><trkpt lat="39.36155208150464" lon="8.506538378208974"><ele>407.0</ele><time>2026-04-18T10:10:29Z</time></trkpt><trkpt lat="39.36168901565445" lon="8.506562335625157"><ele>410.6</ele><time>2026-04-18T10:10:30Z</time></trkpt><trkpt lat="39.361811152702764" lon="8.506515127267573"><ele>414.20000000000005</ele><time>2026-04-18T10:10:31Z</time></trkpt><trkpt lat="39.36191462598118" lon="8.506449311424374"><ele>417.8</ele><time>2026-04-18T10:10:32Z</time></trkpt><trkpt lat="39.362009944440466" lon="8.50644872338406"><ele>421.4</ele><time>2026-04-18T10:10:33Z</time></trkpt><trkpt lat="39.36208738521956" lon="8.50652206476758"><ele>425.0</ele><time>2026-04-18T10:10:34Z</time></trkpt><trkpt lat="39.36212487735498" lon="8.506660002894234"><ele>425.0</ele><time>2026-04-18T10:10:35Z</time></trkpt><trkpt lat="39.36213113159457" lon="8.506835156091526"><ele>425.0</ele><time>2026-04-18T10:10:36Z</time></trkpt><trkpt lat="39.36213336369203" lon="8.506981619646076"><ele>425.0</ele><time>2026-04-18T10:10:37Z</time></trkpt><trkpt lat="39.36207911695224" lon="8.50712330834625"><ele>425.0</ele><time>2026-04-18T10:10:38Z</time></trkpt><trkpt lat="39.36197550162718" lon="8.507231268536518"><ele>428.66666666666663</ele><time>2026-04-18T10:10:39Z</time></trkpt><trkpt lat="39.361838810007455" lon="8.507302590866729"><ele>432.33333333333337</ele><time>2026-04-18T10:10:40Z</time></trkpt><trkpt lat="39.36169081886493" lon="8.507364970845991"><ele>436.0</ele><time>2026-04-18T10:10:41Z</time></trkpt><trkpt lat="39.36153031807947" lon="8.5074126922683"><ele>433.33333333333337</ele><time>2026-04-18T10:10:42Z</time></trkpt><trkpt lat="39.36135781753011" lon="8.50739033569655"><ele>430.66666666666663</ele><time>2026-04-18T10:10:43Z</time></trkpt><trkpt lat="39.361176828414415" lon="8.50738759376626"><ele>428.0</ele><time>2026-04-18T10:10:44Z</time></trkpt><trkpt lat="39.360994624978666" lon="8.507354964488409"><ele>428.0</ele><time>2026-04-18T10:10:45Z</time></trkpt><trkpt lat="39.36081646851884" lon="8.50729547083993"><ele>428.0</ele><time>2026-04-18T10:10:46Z</time></trkpt><trkpt lat="39.36065344536638" lon="8.507216446899749"><ele>428.0</ele><time>2026-04-18T10:10:47Z</time></trkpt><trkpt lat="39.360492954642424" lon="8.50714800424426"><ele>425.3333333333333</ele><time>2026-04-18T10:10:48Z</time></trkpt><trkpt lat="39.36033484639052" lon="8.507103941516613"><ele>422.66666666666663</ele><time>2026-04-18T10:10:49Z</time></trkpt><trkpt lat="39.36016651517682" lon="8.507083424937743"><ele>420.0</ele><time>2026-04-18T10:10:50Z</time></trkpt><trkpt lat="39.35999227052665" lon="8.50710031010836"><ele>420.0</ele><time>2026-04-18T10:10:51Z</time></trkpt><trkpt lat="39.35983902914574" lon="8.507145556309334"><ele>420.0</ele><time>2026-04-18T10:10:52Z</time></trkpt><trkpt lat="39.35972118968175" lon="8.507202738435634"><ele>420.0</ele><time>2026-04-18T10:10:53Z</time></trkpt><trkpt lat="39.35961959034992" lon="8.507232612574354"><ele>420.0</ele><time>2026-04-18T10:10:54Z</time></trkpt><trkpt lat="39.35954782365068" lon="8.50725976023857"><ele>410.0</ele><time>2026-04-18T10:10:55Z</time></trkpt><trkpt lat="39.35948461193188" lon="8.507318144182712"><ele>400.0</ele><time>2026-04-18T10:10:56Z</time></trkpt><trkpt lat="39.35945142795833" lon="8.507717705008599"><ele>390.0</ele><time>2026-04-18T10:10:57Z</time></trkpt><trkpt lat="39.3593126692662" lon="8.507770951563453"><ele>390.0</ele><time>2026-04-18T10:10:58Z</time></trkpt><trkpt lat="39.35917622734202" lon="8.507836632866871"><ele>390.0</ele><time>2026-04-18T10:10:59Z</time></trkpt><trkpt lat="39.359055959205314" lon="8.507958348806492"><ele>390.0</ele><time>2026-04-18T10:11:00Z</time></trkpt><trkpt lat="39.3589555468233" lon="8.508082335969567"><ele>390.0</ele><time>2026-04-18T10:11:01Z</time></trkpt><trkpt lat="39.35890685969666" lon="8.508214909947752"><ele>395.0</ele><time>2026-04-18T10:11:02Z</time></trkpt><trkpt lat="39.358905804775056" lon="8.508363200690685"><ele>400.0</ele><time>2026-04-18T10:11:03Z</time></trkpt><trkpt lat="39.35894999442843" lon="8.50851576073793"><ele>405.0</ele><time>2026-04-18T10:11:04Z</time></trkpt><trkpt lat="39.35901499365552" lon="8.508679745474046"><ele>410.0</ele><time>2026-04-18T10:11:05Z</time></trkpt><trkpt lat="39.359070187171405" lon="8.508849465130016"><ele>410.2</ele><time>2026-04-18T10:11:06Z</time></trkpt><trkpt lat="39.35909229355949" lon="8.508996505175004"><ele>410.4</ele><time>2026-04-18T10:11:07Z</time></trkpt><trkpt lat="39.3590752127852" lon="8.509124676822385"><ele>410.6</ele><time>2026-04-18T10:11:08Z</time></trkpt><trkpt lat="39.359012581877195" lon="8.509220001065021"><ele>410.8</ele><time>2026-04-18T10:11:09Z</time></trkpt><trkpt lat="39.35890056458761" lon="8.509249220090298"><ele>411.0</ele><time>2026-04-18T10:11:10Z</time></trkpt><trkpt lat="39.3587806975019" lon="8.509210328196833"><ele>406.33333333333337</ele><time>2026-04-18T10:11:11Z</time></trkpt><trkpt lat="39.35864705806115" lon="8.509118441372095"><ele>401.6666666666667</ele><time>2026-04-18T10:11:12Z</time></trkpt><trkpt lat="39.358511141312455" lon="8.509039984185312"><ele>397.0</ele><time>2026-04-18T10:11:13Z</time></trkpt><trkpt lat="39.35836417071312" lon="8.508981427503285"><ele>397.0</ele><time>2026-04-18T10:11:14Z</time></trkpt><trkpt lat="39.35819519158152" lon="8.508950323506683"><ele>397.0</ele><time>2026-04-18T10:11:15Z</time></trkpt><trkpt lat="39.3580380641418" lon="8.50892420541277"><ele>397.0</ele><time>2026-04-18T10:11:16Z</time></trkpt><trkpt lat="39.357897925951455" lon="8.508913065792743"><ele>395.75</ele><time>2026-04-18T10:11:17Z</time></trkpt><trkpt lat="39.357761488985005" lon="8.508967933091236"><ele>394.5</ele><time>2026-04-18T10:11:18Z</time></trkpt><trkpt lat="39.357641994165526" lon="8.50908260068555"><ele>393.25</ele><time>2026-04-18T10:11:19Z</time></trkpt><trkpt lat="39.35752525929095" lon="8.50919618121157"><ele>392.0</ele><time>2026-04-18T10:11:20Z</time></trkpt><trkpt lat="39.35739180328917" lon="8.509266598450052"><ele>392.0</ele><time>2026-04-18T10:11:21Z</time></trkpt><trkpt lat="39.357245291521195" lon="8.509264748604041"><ele>392.0</ele><time>2026-04-18T10:11:22Z</time></trkpt><trkpt lat="39.35709059857922" lon="8.509206072590668"><ele>392.0</ele><time>2026-04-18T10:11:23Z</time></trkpt><trkpt lat="39.35693682016157" lon="8.509128466818655"><ele>392.5</ele><time>2026-04-18T10:11:24Z</time></trkpt><trkpt lat="39.35678398788526" lon="8.509101937819684"><ele>393.0</ele><time>2026-04-18T10:11:25Z</time></trkpt><trkpt lat="39.356652322962354" lon="8.50909318036877"><ele>393.5</ele><time>2026-04-18T10:11:26Z</time></trkpt><trkpt lat="39.35654699587854" lon="8.509056832911806"><ele>394.0</ele><time>2026-04-18T10:11:27Z</time></trkpt><trkpt lat="39.35648076737627" lon="8.508970835961138"><ele>394.0</ele><time>2026-04-18T10:11:28Z</time></trkpt><trkpt lat="39.35647102102677" lon="8.508852213976708"><ele>394.0</ele><time>2026-04-18T10:11:29Z</time></trkpt><trkpt lat="39.356518398299606" lon="8.508700432687897"><ele>394.0</ele><time>2026-04-18T10:11:30Z</time></trkpt><trkpt lat="39.35660609236115" lon="8.508549550065146"><ele>394.0</ele><time>2026-04-18T10:11:31Z</time></trkpt><trkpt lat="39.3567311472494" lon="8.508400372447335"><ele>391.6666666666667</ele><time>2026-04-18T10:11:32Z</time></trkpt><trkpt lat="39.35688554727313" lon="8.508262721716536"><ele>389.33333333333337</ele><time>2026-04-18T10:11:33Z</time></trkpt><trkpt lat="39.357028103631116" lon="8.50813812031802"><ele>387.0</ele><time>2026-04-18T10:11:34Z</time></trkpt><trkpt lat="39.35712695242561" lon="8.50802054983535"><ele>386.75</ele><time>2026-04-18T10:11:35Z</time></trkpt><trkpt lat="39.35718832153562" lon="8.50788874968052"><ele>386.5</ele><time>2026-04-18T10:11:36Z</time></trkpt><trkpt lat="39.35719409735216" lon="8.507729085454306"><ele>386.25</ele><time>2026-04-18T10:11:37Z</time></trkpt><trkpt lat="39.35713727419133" lon="8.507566371795605"><ele>386.0</ele><time>2026-04-18T10:11:38Z</time></trkpt><trkpt lat="39.35705976690558" lon="8.507378297033046"><ele>386.0</ele><time>2026-04-18T10:11:39Z</time></trkpt><trkpt lat="39.35698527883993" lon="8.507183901070075"><ele>386.0</ele><time>2026-04-18T10:11:40Z</time></trkpt><trkpt lat="39.35688738314807" lon="8.507032505333068"><ele>386.0</ele><time>2026-04-18T10:11:41Z</time></trkpt><trkpt lat="39.35676410892261" lon="8.50693593499098"><ele>383.25</ele><time>2026-04-18T10:11:42Z</time></trkpt><trkpt lat="39.35662915941445" lon="8.506893767632727"><ele>380.5</ele><time>2026-04-18T10:11:43Z</time></trkpt><trkpt lat="39.35649847897768" lon="8.506913184152644"><ele>377.75</ele><time>2026-04-18T10:11:44Z</time></trkpt><trkpt lat="39.3563800754852" lon="8.506908125250368"><ele>375.0</ele><time>2026-04-18T10:11:45Z</time></trkpt><trkpt lat="39.356286367769854" lon="8.5068435584487"><ele>375.0</ele><time>2026-04-18T10:11:46Z</time></trkpt><trkpt lat="39.356216242573055" lon="8.506712442064986"><ele>375.0</ele><time>2026-04-18T10:11:47Z</time></trkpt><trkpt lat="39.35614548596275" lon="8.506555436668746"><ele>375.0</ele><time>2026-04-18T10:11:48Z</time></trkpt><trkpt lat="39.35605187012457" lon="8.506401673026566"><ele>375.0</ele><time>2026-04-18T10:11:49Z</time></trkpt><trkpt lat="39.35593333373318" lon="8.506271764245964"><ele>369.0</ele><time>2026-04-18T10:11:50Z</time></trkpt><trkpt lat="39.355811720690006" lon="8.506168364942994"><ele>363.0</ele><time>2026-04-18T10:11:51Z</time></trkpt><trkpt lat="39.35570398963003" lon="8.506102894450173"><ele>357.0</ele><time>2026-04-18T10:11:52Z</time></trkpt><trkpt lat="39.355593239479475" lon="8.506113111698525"><ele>351.0</ele><time>2026-04-18T10:11:53Z</time></trkpt><trkpt lat="39.35546887866222" lon="8.506200091487118"><ele>354.3333333333333</ele><time>2026-04-18T10:11:54Z</time></trkpt><trkpt lat="39.35533787583306" lon="8.50631701576574"><ele>357.66666666666663</ele><time>2026-04-18T10:11:55Z</time></trkpt><trkpt lat="39.35520510374965" lon="8.50643340295351"><ele>361.0</ele><time>2026-04-18T10:11:56Z</time></trkpt><trkpt lat="39.35509603521533" lon="8.506555978956513"><ele>361.0</ele><time>2026-04-18T10:11:57Z</time></trkpt><trkpt lat="39.355029077354196" lon="8.506699173497145"><ele>361.0</ele><time>2026-04-18T10:11:58Z</time></trkpt><trkpt lat="39.354951671815165" lon="8.506812841279954"><ele>361.0</ele><time>2026-04-18T10:11:59Z</time></trkpt><trkpt lat="39.354845137022984" lon="8.506860508494377"><ele>361.0</ele><time>2026-04-18T10:12:00Z</time></trkpt><trkpt lat="39.35470964213643" lon="8.506849003882245"><ele>356.66666666666663</ele><time>2026-04-18T10:12:01Z</time></trkpt><trkpt lat="39.35455623331987" lon="8.50682246230342"><ele>352.3333333333333</ele><time>2026-04-18T10:12:02Z</time></trkpt><trkpt lat="39.354391627865716" lon="8.506805204936816"><ele>348.0</ele><time>2026-04-18T10:12:03Z</time></trkpt><trkpt lat="39.354247325868926" lon="8.506795814047864"><ele>348.0</ele><time>2026-04-18T10:12:04Z</time></trkpt><trkpt lat="39.35413342521241" lon="8.50680756067444"><ele>348.0</ele><time>2026-04-18T10:12:05Z</time></trkpt><trkpt lat="39.35403427843044" lon="8.506877392399609"><ele>348.0</ele><time>2026-04-18T10:12:06Z</time></trkpt><trkpt lat="39.35395277451389" lon="8.507006901521365"><ele>348.0</ele><time>2026-04-18T10:12:07Z</time></trkpt><trkpt lat="39.35388873456213" lon="8.507165241314476"><ele>351.25</ele><time>2026-04-18T10:12:08Z</time></trkpt><trkpt lat="39.35380113735361" lon="8.507280334739896"><ele>354.5</ele><time>2026-04-18T10:12:09Z</time></trkpt><trkpt lat="39.3536829101976" lon="8.507328720456767"><ele>357.75</ele><time>2026-04-18T10:12:10Z</time></trkpt><trkpt lat="39.35355466143847" lon="8.50730741210445"><ele>361.0</ele><time>2026-04-18T10:12:11Z</time></trkpt><trkpt lat="39.35342412861383" lon="8.507222051452855"><ele>361.0</ele><time>2026-04-18T10:12:12Z</time></trkpt><trkpt lat="39.35328871691478" lon="8.507106873629754"><ele>361.0</ele><time>2026-04-18T10:12:13Z</time></trkpt><trkpt lat="39.35315246230241" lon="8.50701923580917"><ele>361.0</ele><time>2026-04-18T10:12:14Z</time></trkpt><trkpt lat="39.353010544189935" lon="8.506988938743952"><ele>347.66666666666663</ele><time>2026-04-18T10:12:15Z</time></trkpt><trkpt lat="39.352837083232075" lon="8.506998898638344"><ele>334.3333333333333</ele><time>2026-04-18T10:12:16Z</time></trkpt><trkpt lat="39.35266189438516" lon="8.50702076148325"><ele>321.0</ele><time>2026-04-18T10:12:17Z</time></trkpt><trkpt lat="39.35250303064089" lon="8.507074693143188"><ele>328.0</ele><time>2026-04-18T10:12:18Z</time></trkpt><trkpt lat="39.352367434989894" lon="8.507154610518764"><ele>335.0</ele><time>2026-04-18T10:12:19Z</time></trkpt><trkpt lat="39.35227144275121" lon="8.50723995835711"><ele>342.0</ele><time>2026-04-18T10:12:20Z</time></trkpt><trkpt lat="39.3522317951982" lon="8.507359735802734"><ele>349.0</ele><time>2026-04-18T10:12:21Z</time></trkpt><trkpt lat="39.35223108268593" lon="8.507509744657291"><ele>349.0</ele><time>2026-04-18T10:12:22Z</time></trkpt><trkpt lat="39.35223696157372" lon="8.507662741377992"><ele>349.0</ele><time>2026-04-18T10:12:23Z</time></trkpt><trkpt lat="39.35218186366671" lon="8.507775783614752"><ele>349.0</ele><time>2026-04-18T10:12:24Z</time></trkpt><trkpt lat="39.35207221341825" lon="8.507868623150927"><ele>349.0</ele><time>2026-04-18T10:12:25Z</time></trkpt><trkpt lat="39.351932527072805" lon="8.507964638669613"><ele>345.3333333333333</ele><time>2026-04-18T10:12:26Z</time></trkpt><trkpt lat="39.35178508534914" lon="8.508074270104645"><ele>341.6666666666667</ele><time>2026-04-18T10:12:27Z</time></trkpt><trkpt lat="39.35164053552937" lon="8.508170533186528"><ele>338.0</ele><time>2026-04-18T10:12:28Z</time></trkpt><trkpt lat="39.35152484622955" lon="8.508264683060313"><ele>338.0</ele><time>2026-04-18T10:12:29Z</time></trkpt><trkpt lat="39.35144063378832" lon="8.508409998966025"><ele>338.0</ele><time>2026-04-18T10:12:30Z</time></trkpt><trkpt lat="39.35140267549428" lon="8.508597458303358"><ele>338.0</ele><time>2026-04-18T10:12:31Z</time></trkpt><trkpt lat="39.35136532087939" lon="8.5087784798624"><ele>338.0</ele><time>2026-04-18T10:12:32Z</time></trkpt><trkpt lat="39.351277628499425" lon="8.508929332778292"><ele>333.0</ele><time>2026-04-18T10:12:33Z</time></trkpt><trkpt lat="39.35113382720041" lon="8.509053468866039"><ele>328.0</ele><time>2026-04-18T10:12:34Z</time></trkpt><trkpt lat="39.350988437089605" lon="8.509177772118084"><ele>323.0</ele><time>2026-04-18T10:12:35Z</time></trkpt><trkpt lat="39.350873419383795" lon="8.509359019930464"><ele>323.0</ele><time>2026-04-18T10:12:36Z</time></trkpt><trkpt lat="39.35077104838392" lon="8.509543596084004"><ele>323.0</ele><time>2026-04-18T10:12:37Z</time></trkpt><trkpt lat="39.35065764833759" lon="8.509710075185305"><ele>323.0</ele><time>2026-04-18T10:12:38Z</time></trkpt><trkpt lat="39.350538976996695" lon="8.509856037776537"><ele>318.5</ele><time>2026-04-18T10:12:39Z</time></trkpt><trkpt lat="39.350420429752674" lon="8.509968248858296"><ele>314.0</ele><time>2026-04-18T10:12:40Z</time></trkpt><trkpt lat="39.35032617516818" lon="8.510079400436057"><ele>309.5</ele><time>2026-04-18T10:12:41Z</time></trkpt><trkpt lat="39.3502773743195" lon="8.51022487856817"><ele>305.0</ele><time>2026-04-18T10:12:42Z</time></trkpt><trkpt lat="39.3502879402802" lon="8.510396372225882"><ele>305.33333333333337</ele><time>2026-04-18T10:12:43Z</time></trkpt><trkpt lat="39.350350956740144" lon="8.510572818616714"><ele>305.6666666666667</ele><time>2026-04-18T10:12:44Z</time></trkpt><trkpt lat="39.35042675276002" lon="8.510759915920824"><ele>306.0</ele><time>2026-04-18T10:12:45Z</time></trkpt><trkpt lat="39.350479967414564" lon="8.510945421449305"><ele>306.0</ele><time>2026-04-18T10:12:46Z</time></trkpt><trkpt lat="39.3505114621819" lon="8.511127741676713"><ele>306.0</ele><time>2026-04-18T10:12:47Z</time></trkpt><trkpt lat="39.35049795245482" lon="8.511310259191518"><ele>306.0</ele><time>2026-04-18T10:12:48Z</time></trkpt><trkpt lat="39.35044602971046" lon="8.511496585307682"><ele>306.0</ele><time>2026-04-18T10:12:49Z</time></trkpt><trkpt lat="39.350437301927" lon="8.511703108377883"><ele>304.0</ele><time>2026-04-18T10:12:50Z</time></trkpt><trkpt lat="39.35044279358714" lon="8.511904060854867"><ele>302.0</ele><time>2026-04-18T10:12:51Z</time></trkpt><trkpt lat="39.35040466543647" lon="8.51209849748105"><ele>300.0</ele><time>2026-04-18T10:12:52Z</time></trkpt><trkpt lat="39.35034890595757" lon="8.512279395430262"><ele>303.0</ele><time>2026-04-18T10:12:53Z</time></trkpt><trkpt lat="39.350289983235825" lon="8.51244452964366"><ele>306.0</ele><time>2026-04-18T10:12:54Z</time></trkpt><trkpt lat="39.35020661841581" lon="8.51258341444441"><ele>309.0</ele><time>2026-04-18T10:12:55Z</time></trkpt><trkpt lat="39.3500916804236" lon="8.512686033325325"><ele>312.0</ele><time>2026-04-18T10:12:56Z</time></trkpt><trkpt lat="39.34997149103539" lon="8.51276029733832"><ele>312.0</ele><time>2026-04-18T10:12:57Z</time></trkpt><trkpt lat="39.349850716455656" lon="8.512787241250726"><ele>312.0</ele><time>2026-04-18T10:12:58Z</time></trkpt><trkpt lat="39.349728188129774" lon="8.512749820989889"><ele>312.0</ele><time>2026-04-18T10:12:59Z</time></trkpt><trkpt lat="39.34960919490545" lon="8.512690096751086"><ele>312.0</ele><time>2026-04-18T10:13:00Z</time></trkpt><trkpt lat="39.349493017135266" lon="8.512684246443506"><ele>311.25</ele><time>2026-04-18T10:13:01Z</time></trkpt><trkpt lat="39.349375586413196" lon="8.512754885327153"><ele>310.5</ele><time>2026-04-18T10:13:02Z</time></trkpt><trkpt lat="39.34926538295422" lon="8.512881228079669"><ele>309.75</ele><time>2026-04-18T10:13:03Z</time></trkpt><trkpt lat="39.349165001775766" lon="8.513033187239682"><ele>309.0</ele><time>2026-04-18T10:13:04Z</time></trkpt><trkpt lat="39.34906240070387" lon="8.513194425722515"><ele>309.0</ele><time>2026-04-18T10:13:05Z</time></trkpt><trkpt lat="39.34900149736885" lon="8.513374122863636"><ele>309.0</ele><time>2026-04-18T10:13:06Z</time></trkpt><trkpt lat="39.34897610195768" lon="8.513590562611679"><ele>309.0</ele><time>2026-04-18T10:13:07Z</time></trkpt><trkpt lat="39.3489512324805" lon="8.513810586146999"><ele>308.5</ele><time>2026-04-18T10:13:08Z</time></trkpt><trkpt lat="39.34893326742215" lon="8.514003665198699"><ele>308.0</ele><time>2026-04-18T10:13:09Z</time></trkpt><trkpt lat="39.34892921392112" lon="8.514179518943765"><ele>307.5</ele><time>2026-04-18T10:13:10Z</time></trkpt><trkpt lat="39.348966988969586" lon="8.514338559347733"><ele>307.0</ele><time>2026-04-18T10:13:11Z</time></trkpt><trkpt lat="39.34905260110319" lon="8.514459361114922"><ele>307.0</ele><time>2026-04-18T10:13:12Z</time></trkpt><trkpt lat="39.349171316845734" lon="8.514525079311158"><ele>307.0</ele><time>2026-04-18T10:13:13Z</time></trkpt><trkpt lat="39.34931033537253" lon="8.514532027493143"><ele>307.0</ele><time>2026-04-18T10:13:14Z</time></trkpt><trkpt lat="39.34946175493615" lon="8.514497456900305"><ele>307.0</ele><time>2026-04-18T10:13:15Z</time></trkpt><trkpt lat="39.349622489949496" lon="8.51446981585376"><ele>309.75</ele><time>2026-04-18T10:13:16Z</time></trkpt><trkpt lat="39.349786176101084" lon="8.514454338346466"><ele>312.5</ele><time>2026-04-18T10:13:17Z</time></trkpt><trkpt lat="39.349937114596415" lon="8.514453626955767"><ele>315.25</ele><time>2026-04-18T10:13:18Z</time></trkpt><trkpt lat="39.35006825175162" lon="8.51446050294275"><ele>318.0</ele><time>2026-04-18T10:13:19Z</time></trkpt><trkpt lat="39.35017320255113" lon="8.514483949193883"><ele>318.0</ele><time>2026-04-18T10:13:20Z</time></trkpt><trkpt lat="39.35024630201936" lon="8.514550325255085"><ele>318.0</ele><time>2026-04-18T10:13:21Z</time></trkpt><trkpt lat="39.350274374128" lon="8.514658497558461"><ele>318.0</ele><time>2026-04-18T10:13:22Z</time></trkpt><trkpt lat="39.35025127754698" lon="8.51477939804359"><ele>318.0</ele><time>2026-04-18T10:13:23Z</time></trkpt><trkpt lat="39.35017353263268" lon="8.514868989332353"><ele>318.0</ele><time>2026-04-18T10:13:24Z</time></trkpt><trkpt lat="39.35007733206727" lon="8.514888160007509"><ele>314.5</ele><time>2026-04-18T10:13:25Z</time></trkpt><trkpt lat="39.349952715143736" lon="8.514888395051473"><ele>311.0</ele><time>2026-04-18T10:13:26Z</time></trkpt><trkpt lat="39.34982480901216" lon="8.514913345949585"><ele>307.5</ele><time>2026-04-18T10:13:27Z</time></trkpt><trkpt lat="39.34967664545171" lon="8.514981900882807"><ele>304.0</ele><time>2026-04-18T10:13:28Z</time></trkpt><trkpt lat="39.349515108987475" lon="8.515063137514103"><ele>301.3333333333333</ele><time>2026-04-18T10:13:29Z</time></trkpt><trkpt lat="39.349356009252496" lon="8.515140941880366"><ele>298.6666666666667</ele><time>2026-04-18T10:13:30Z</time></trkpt><trkpt lat="39.349186841556744" lon="8.515220680584244"><ele>296.0</ele><time>2026-04-18T10:13:31Z</time></trkpt><trkpt lat="39.349013935317814" lon="8.515269438581793"><ele>293.0</ele><time>2026-04-18T10:13:32Z</time></trkpt><trkpt lat="39.34882976271148" lon="8.515270535519637"><ele>290.0</ele><time>2026-04-18T10:13:33Z</time></trkpt><trkpt lat="39.34863976127406" lon="8.515259448134616"><ele>287.0</ele><time>2026-04-18T10:13:34Z</time></trkpt><trkpt lat="39.34845006559748" lon="8.515256470123939"><ele>287.0</ele><time>2026-04-18T10:13:35Z</time></trkpt><trkpt lat="39.34826941968153" lon="8.515239602215104"><ele>287.0</ele><time>2026-04-18T10:13:36Z</time></trkpt><trkpt lat="39.348090960351904" lon="8.515182832968039"><ele>287.0</ele><time>2026-04-18T10:13:37Z</time></trkpt><trkpt lat="39.347917464649825" lon="8.515099488544509"><ele>286.0</ele><time>2026-04-18T10:13:38Z</time></trkpt><trkpt lat="39.347749394933224" lon="8.515017446542682"><ele>285.0</ele><time>2026-04-18T10:13:39Z</time></trkpt><trkpt lat="39.3475915063726" lon="8.514939885422267"><ele>284.0</ele><time>2026-04-18T10:13:40Z</time></trkpt><trkpt lat="39.34744883834942" lon="8.514874542250084"><ele>284.0</ele><time>2026-04-18T10:13:41Z</time></trkpt><trkpt lat="39.347320062509404" lon="8.514829646945484"><ele>284.0</ele><time>2026-04-18T10:13:42Z</time></trkpt><trkpt lat="39.347204941571896" lon="8.514822765001407"><ele>284.0</ele><time>2026-04-18T10:13:43Z</time></trkpt><trkpt lat="39.34710439587421" lon="8.514885393395941"><ele>284.0</ele><time>2026-04-18T10:13:44Z</time></trkpt><trkpt lat="39.347028614110606" lon="8.515010348000141"><ele>283.25</ele><time>2026-04-18T10:13:45Z</time></trkpt><trkpt lat="39.347012251765975" lon="8.515168676169301"><ele>282.5</ele><time>2026-04-18T10:13:46Z</time></trkpt><trkpt lat="39.347042495528925" lon="8.515323393438827"><ele>281.75</ele><time>2026-04-18T10:13:47Z</time></trkpt><trkpt lat="39.34712316308387" lon="8.515471491905924"><ele>281.0</ele><time>2026-04-18T10:13:48Z</time></trkpt><trkpt lat="39.347226940442376" lon="8.515605502083355"><ele>282.75</ele><time>2026-04-18T10:13:49Z</time></trkpt><trkpt lat="39.3473125653084" lon="8.515734925655073"><ele>284.5</ele><time>2026-04-18T10:13:50Z</time></trkpt><trkpt lat="39.34736763143153" lon="8.515884144209538"><ele>286.25</ele><time>2026-04-18T10:13:51Z</time></trkpt><trkpt lat="39.34738906825226" lon="8.516060200487017"><ele>288.0</ele><time>2026-04-18T10:13:52Z</time></trkpt><trkpt lat="39.34736679214283" lon="8.516252510617804"><ele>289.3333333333333</ele><time>2026-04-18T10:13:53Z</time></trkpt><trkpt lat="39.347321642331906" lon="8.516454241968672"><ele>290.66666666666663</ele><time>2026-04-18T10:13:54Z</time></trkpt><trkpt lat="39.34726421312815" lon="8.516665921927025"><ele>292.0</ele><time>2026-04-18T10:13:55Z</time></trkpt><trkpt lat="39.34717617769333" lon="8.516881101939111"><ele>288.3333333333333</ele><time>2026-04-18T10:13:56Z</time></trkpt><trkpt lat="39.34705527355095" lon="8.51708574588877"><ele>284.6666666666667</ele><time>2026-04-18T10:13:57Z</time></trkpt><trkpt lat="39.34692088262324" lon="8.517290388608748"><ele>281.0</ele><time>2026-04-18T10:13:58Z</time></trkpt><trkpt lat="39.346788005686804" lon="8.517498650755174"><ele>281.0</ele><time>2026-04-18T10:13:59Z</time></trkpt><trkpt lat="39.3466502880861" lon="8.517717155103238"><ele>281.0</ele><time>2026-04-18T10:14:00Z</time></trkpt><trkpt lat="39.34651483969256" lon="8.517926758835038"><ele>281.0</ele><time>2026-04-18T10:14:01Z</time></trkpt><trkpt lat="39.34637596333479" lon="8.518126153967676"><ele>278.33333333333337</ele><time>2026-04-18T10:14:02Z</time></trkpt><trkpt lat="39.34622835942727" lon="8.518304584074114"><ele>275.6666666666667</ele><time>2026-04-18T10:14:03Z</time></trkpt><trkpt lat="39.34606936497168" lon="8.518461424938238"><ele>273.0</ele><time>2026-04-18T10:14:04Z</time></trkpt><trkpt lat="39.345910173747114" lon="8.518608052658758"><ele>273.6666666666667</ele><time>2026-04-18T10:14:05Z</time></trkpt><trkpt lat="39.34573724608221" lon="8.518768887798991"><ele>274.33333333333337</ele><time>2026-04-18T10:14:06Z</time></trkpt><trkpt lat="39.34558972607281" lon="8.518906475287096"><ele>275.0</ele><time>2026-04-18T10:14:07Z</time></trkpt><trkpt lat="39.3454561260932" lon="8.519032083526618"><ele>275.0</ele><time>2026-04-18T10:14:08Z</time></trkpt><trkpt lat="39.34533997740609" lon="8.519168856090891"><ele>275.0</ele><time>2026-04-18T10:14:09Z</time></trkpt><trkpt lat="39.34524360777709" lon="8.519347380637257"><ele>275.0</ele><time>2026-04-18T10:14:10Z</time></trkpt><trkpt lat="39.34517682802243" lon="8.519561919193828"><ele>273.33333333333337</ele><time>2026-04-18T10:14:11Z</time></trkpt><trkpt lat="39.345146086152475" lon="8.519792729480244"><ele>271.6666666666667</ele><time>2026-04-18T10:14:12Z</time></trkpt><trkpt lat="39.34515722264368" lon="8.52003320429263"><ele>270.0</ele><time>2026-04-18T10:14:13Z</time></trkpt><trkpt lat="39.34519025257762" lon="8.520264248863743"><ele>270.0</ele><time>2026-04-18T10:14:14Z</time></trkpt><trkpt lat="39.34521500953647" lon="8.520480640772098"><ele>270.0</ele><time>2026-04-18T10:14:15Z</time></trkpt><trkpt lat="39.34520283849523" lon="8.520676480026475"><ele>270.0</ele><time>2026-04-18T10:14:16Z</time></trkpt><trkpt lat="39.34514359119837" lon="8.520827925132775"><ele>270.0</ele><time>2026-04-18T10:14:17Z</time></trkpt><trkpt lat="39.34505032597149" lon="8.520965136427519"><ele>270.0</ele><time>2026-04-18T10:14:18Z</time></trkpt><trkpt lat="39.34498563673684" lon="8.521100405736766"><ele>270.0</ele><time>2026-04-18T10:14:19Z</time></trkpt><trkpt lat="39.344974559364054" lon="8.5212634613361"><ele>270.0</ele><time>2026-04-18T10:14:20Z</time></trkpt><trkpt lat="39.34502166847014" lon="8.521416517429794"><ele>269.0</ele><time>2026-04-18T10:14:21Z</time></trkpt><trkpt lat="39.345118830724466" lon="8.521555463786532"><ele>268.0</ele><time>2026-04-18T10:14:22Z</time></trkpt><trkpt lat="39.34522619637904" lon="8.52169865502955"><ele>267.0</ele><time>2026-04-18T10:14:23Z</time></trkpt><trkpt lat="39.34533378240738" lon="8.521856799503679"><ele>267.0</ele><time>2026-04-18T10:14:24Z</time></trkpt><trkpt lat="39.3454335078692" lon="8.522017520221942"><ele>267.0</ele><time>2026-04-18T10:14:25Z</time></trkpt><trkpt lat="39.345516169369496" lon="8.522179508085493"><ele>267.0</ele><time>2026-04-18T10:14:26Z</time></trkpt><trkpt lat="39.34556760387853" lon="8.522351158984263"><ele>266.75</ele><time>2026-04-18T10:14:27Z</time></trkpt><trkpt lat="39.34557779187979" lon="8.522526096835035"><ele>266.5</ele><time>2026-04-18T10:14:28Z</time></trkpt><trkpt lat="39.34554267925968" lon="8.52270822796197"><ele>266.25</ele><time>2026-04-18T10:14:29Z</time></trkpt><trkpt lat="39.345461424752095" lon="8.522879021255553"><ele>266.0</ele><time>2026-04-18T10:14:30Z</time></trkpt><trkpt lat="39.345341590336936" lon="8.523018252184563"><ele>267.33333333333337</ele><time>2026-04-18T10:14:31Z</time></trkpt><trkpt lat="39.34519960965413" lon="8.523140426088391"><ele>268.6666666666667</ele><time>2026-04-18T10:14:32Z</time></trkpt><trkpt lat="39.34504582857361" lon="8.523262500855372"><ele>270.0</ele><time>2026-04-18T10:14:33Z</time></trkpt><trkpt lat="39.34487875937118" lon="8.523372425032944"><ele>269.6666666666667</ele><time>2026-04-18T10:14:34Z</time></trkpt><trkpt lat="39.34469797447035" lon="8.523469508572958"><ele>269.33333333333337</ele><time>2026-04-18T10:14:35Z</time></trkpt><trkpt lat="39.34451073642996" lon="8.523560320661272"><ele>269.0</ele><time>2026-04-18T10:14:36Z</time></trkpt><trkpt lat="39.34431632663138" lon="8.523625346873377"><ele>269.0</ele><time>2026-04-18T10:14:37Z</time></trkpt><trkpt lat="39.344117598087486" lon="8.523675837713277"><ele>269.0</ele><time>2026-04-18T10:14:38Z</time></trkpt><trkpt lat="39.343924826576824" lon="8.523717337430064"><ele>269.0</ele><time>2026-04-18T10:14:39Z</time></trkpt><trkpt lat="39.34374619637563" lon="8.523752020452266"><ele>268.33333333333337</ele><time>2026-04-18T10:14:40Z</time></trkpt><trkpt lat="39.3435771877555" lon="8.523797481919045"><ele>267.6666666666667</ele><time>2026-04-18T10:14:41Z</time></trkpt><trkpt lat="39.343409470166506" lon="8.523871265594712"><ele>267.0</ele><time>2026-04-18T10:14:42Z</time></trkpt><trkpt lat="39.343243539522426" lon="8.523973204254059"><ele>267.0</ele><time>2026-04-18T10:14:43Z</time></trkpt><trkpt lat="39.343089142748894" lon="8.524080458217512"><ele>267.0</ele><time>2026-04-18T10:14:44Z</time></trkpt><trkpt lat="39.342949764794255" lon="8.524178809718707"><ele>267.0</ele><time>2026-04-18T10:14:45Z</time></trkpt><trkpt lat="39.34280984504002" lon="8.524251283636241"><ele>267.0</ele><time>2026-04-18T10:14:46Z</time></trkpt><trkpt lat="39.342653581729344" lon="8.524287513679079"><ele>267.0</ele><time>2026-04-18T10:14:47Z</time></trkpt><trkpt lat="39.342481507095684" lon="8.524272894774798"><ele>267.0</ele><time>2026-04-18T10:14:48Z</time></trkpt><trkpt lat="39.34230649256248" lon="8.524224614694369"><ele>266.6666666666667</ele><time>2026-04-18T10:14:49Z</time></trkpt><trkpt lat="39.34212113408901" lon="8.524180593784466"><ele>266.33333333333337</ele><time>2026-04-18T10:14:50Z</time></trkpt><trkpt lat="39.34192575329278" lon="8.524142222724125"><ele>266.0</ele><time>2026-04-18T10:14:51Z</time></trkpt><trkpt lat="39.34172070531719" lon="8.52410465348569"><ele>266.0</ele><time>2026-04-18T10:14:52Z</time></trkpt><trkpt lat="39.34151102105467" lon="8.524064116297783"><ele>266.0</ele><time>2026-04-18T10:14:53Z</time></trkpt><trkpt lat="39.34131166542982" lon="8.524021651337277"><ele>266.0</ele><time>2026-04-18T10:14:54Z</time></trkpt><trkpt lat="39.34112104466665" lon="8.523966962016674"><ele>267.33333333333337</ele><time>2026-04-18T10:14:55Z</time></trkpt><trkpt lat="39.340944086635375" lon="8.523890622200662"><ele>268.6666666666667</ele><time>2026-04-18T10:14:56Z</time></trkpt><trkpt lat="39.34078426947338" lon="8.52379834396054"><ele>270.0</ele><time>2026-04-18T10:14:57Z</time></trkpt><trkpt lat="39.340624350895226" lon="8.523735818923944"><ele>272.0</ele><time>2026-04-18T10:14:58Z</time></trkpt><trkpt lat="39.340434354257276" lon="8.523720652824773"><ele>274.0</ele><time>2026-04-18T10:14:59Z</time></trkpt><trkpt lat="39.340230557177925" lon="8.523733744218733"><ele>276.0</ele><time>2026-04-18T10:15:00Z</time></trkpt><trkpt lat="39.34002932822917" lon="8.523734863779476"><ele>276.0</ele><time>2026-04-18T10:15:01Z</time></trkpt><trkpt lat="39.33983799354361" lon="8.523718888921897"><ele>276.0</ele><time>2026-04-18T10:15:02Z</time></trkpt><trkpt lat="39.33965606171268" lon="8.523678626660848"><ele>276.0</ele><time>2026-04-18T10:15:03Z</time></trkpt><trkpt lat="39.339476625620975" lon="8.523635098907176"><ele>272.6666666666667</ele><time>2026-04-18T10:15:04Z</time></trkpt><trkpt lat="39.33930761154751" lon="8.523598269861147"><ele>269.33333333333337</ele><time>2026-04-18T10:15:05Z</time></trkpt><trkpt lat="39.33915253827458" lon="8.523576611491505"><ele>266.0</ele><time>2026-04-18T10:15:06Z</time></trkpt><trkpt lat="39.33901011165898" lon="8.523600271406448"><ele>266.25</ele><time>2026-04-18T10:15:07Z</time></trkpt><trkpt lat="39.33888132714704" lon="8.523676455937741"><ele>266.5</ele><time>2026-04-18T10:15:08Z</time></trkpt><trkpt lat="39.338773810132714" lon="8.523795009254227"><ele>266.75</ele><time>2026-04-18T10:15:09Z</time></trkpt><trkpt lat="39.33870184222014" lon="8.523955200558758"><ele>267.0</ele><time>2026-04-18T10:15:10Z</time></trkpt><trkpt lat="39.338667605389496" lon="8.524154466375018"><ele>263.6666666666667</ele><time>2026-04-18T10:15:11Z</time></trkpt><trkpt lat="39.33868078937239" lon="8.524381991184546"><ele>260.33333333333337</ele><time>2026-04-18T10:15:12Z</time></trkpt><trkpt lat="39.338696296551596" lon="8.524608512339757"><ele>257.0</ele><time>2026-04-18T10:15:13Z</time></trkpt><trkpt lat="39.338699060384855" lon="8.524826011997776"><ele>256.75</ele><time>2026-04-18T10:15:14Z</time></trkpt><trkpt lat="39.338680346093994" lon="8.525025583850184"><ele>256.5</ele><time>2026-04-18T10:15:15Z</time></trkpt><trkpt lat="39.33862139977775" lon="8.52519458989931"><ele>256.25</ele><time>2026-04-18T10:15:16Z</time></trkpt><trkpt lat="39.33851830627225" lon="8.525320170431879"><ele>256.0</ele><time>2026-04-18T10:15:17Z</time></trkpt><trkpt lat="39.33838033154006" lon="8.525405140656693"><ele>257.3333333333333</ele><time>2026-04-18T10:15:18Z</time></trkpt><trkpt lat="39.338218420484395" lon="8.525455799846263"><ele>258.6666666666667</ele><time>2026-04-18T10:15:19Z</time></trkpt><trkpt lat="39.33805232307544" lon="8.525502551815315"><ele>260.0</ele><time>2026-04-18T10:15:20Z</time></trkpt><trkpt lat="39.337880109539306" lon="8.52556037442644"><ele>260.0</ele><time>2026-04-18T10:15:21Z</time></trkpt><trkpt lat="39.33771597682144" lon="8.525621200167976"><ele>260.0</ele><time>2026-04-18T10:15:22Z</time></trkpt><trkpt lat="39.337565788041225" lon="8.525712581700553"><ele>260.0</ele><time>2026-04-18T10:15:23Z</time></trkpt><trkpt lat="39.33742421153493" lon="8.525846426472084"><ele>260.0</ele><time>2026-04-18T10:15:24Z</time></trkpt><trkpt lat="39.33730178066139" lon="8.526032367265982"><ele>260.0</ele><time>2026-04-18T10:15:25Z</time></trkpt><trkpt lat="39.3371912454574" lon="8.52624701567391"><ele>260.0</ele><time>2026-04-18T10:15:26Z</time></trkpt><trkpt lat="39.337081473369004" lon="8.526453191205281"><ele>259.33333333333337</ele><time>2026-04-18T10:15:27Z</time></trkpt><trkpt lat="39.336960541227995" lon="8.526637340188435"><ele>258.6666666666667</ele><time>2026-04-18T10:15:28Z</time></trkpt><trkpt lat="39.33682145735577" lon="8.52677265097953"><ele>258.0</ele><time>2026-04-18T10:15:29Z</time></trkpt><trkpt lat="39.33665057075896" lon="8.526860397117325"><ele>258.0</ele><time>2026-04-18T10:15:30Z</time></trkpt><trkpt lat="39.3364622258654" lon="8.526915017636272"><ele>258.0</ele><time>2026-04-18T10:15:31Z</time></trkpt><trkpt lat="39.33627144525612" lon="8.526982384509413"><ele>258.0</ele><time>2026-04-18T10:15:32Z</time></trkpt><trkpt lat="39.33610177917594" lon="8.527048061785713"><ele>255.33333333333331</ele><time>2026-04-18T10:15:33Z</time></trkpt><trkpt lat="39.33594609668273" lon="8.527089083651067"><ele>252.66666666666666</ele><time>2026-04-18T10:15:34Z</time></trkpt><trkpt lat="39.33579559891462" lon="8.527072749844214"><ele>250.0</ele><time>2026-04-18T10:15:35Z</time></trkpt><trkpt lat="39.335644336940156" lon="8.526999165028943"><ele>256.3333333333333</ele><time>2026-04-18T10:15:36Z</time></trkpt><trkpt lat="39.33551375816751" lon="8.526870887238225"><ele>262.6666666666667</ele><time>2026-04-18T10:15:37Z</time></trkpt><trkpt lat="39.33539774418718" lon="8.526699692763827"><ele>269.0</ele><time>2026-04-18T10:15:38Z</time></trkpt><trkpt lat="39.33527666748734" lon="8.526533844695665"><ele>269.0</ele><time>2026-04-18T10:15:39Z</time></trkpt><trkpt lat="39.33516274104661" lon="8.526390594094106"><ele>269.0</ele><time>2026-04-18T10:15:40Z</time></trkpt><trkpt lat="39.33504997771224" lon="8.526264221485068"><ele>269.0</ele><time>2026-04-18T10:15:41Z</time></trkpt><trkpt lat="39.334928964528245" lon="8.526171320762652"><ele>269.0</ele><time>2026-04-18T10:15:42Z</time></trkpt><trkpt lat="39.33479030755719" lon="8.526122869980492"><ele>265.0</ele><time>2026-04-18T10:15:43Z</time></trkpt><trkpt lat="39.33463290548709" lon="8.526114829168597"><ele>261.0</ele><time>2026-04-18T10:15:44Z</time></trkpt><trkpt lat="39.33447910295053" lon="8.526157918153434"><ele>257.0</ele><time>2026-04-18T10:15:45Z</time></trkpt><trkpt lat="39.334338923587" lon="8.52625698653982"><ele>257.0</ele><time>2026-04-18T10:15:46Z</time></trkpt><trkpt lat="39.33422599288039" lon="8.526413144368792"><ele>257.0</ele><time>2026-04-18T10:15:47Z</time></trkpt><trkpt lat="39.33413261561784" lon="8.526620553871751"><ele>257.0</ele><time>2026-04-18T10:15:48Z</time></trkpt><trkpt lat="39.33404644505083" lon="8.526852156197549"><ele>255.33333333333334</ele><time>2026-04-18T10:15:49Z</time></trkpt><trkpt lat="39.33395514507245" lon="8.527080939568323"><ele>253.66666666666669</ele><time>2026-04-18T10:15:50Z</time></trkpt><trkpt lat="39.33386218570927" lon="8.527311414443641"><ele>252.0</ele><time>2026-04-18T10:15:51Z</time></trkpt><trkpt lat="39.33376681072166" lon="8.52754251200114"><ele>251.66666666666669</ele><time>2026-04-18T10:15:52Z</time></trkpt><trkpt lat="39.33367069329934" lon="8.527774818059312"><ele>251.33333333333334</ele><time>2026-04-18T10:15:53Z</time></trkpt><trkpt lat="39.33357150843371" lon="8.52801216568142"><ele>251.0</ele><time>2026-04-18T10:15:54Z</time></trkpt><trkpt lat="39.333476461907345" lon="8.528239411999731"><ele>251.0</ele><time>2026-04-18T10:15:55Z</time></trkpt><trkpt lat="39.333383820786395" lon="8.528469877847732"><ele>251.0</ele><time>2026-04-18T10:15:56Z</time></trkpt><trkpt lat="39.33329377651609" lon="8.528696383286016"><ele>251.0</ele><time>2026-04-18T10:15:57Z</time></trkpt><trkpt lat="39.333192537778096" lon="8.528920992020945"><ele>249.0</ele><time>2026-04-18T10:15:58Z</time></trkpt><trkpt lat="39.33307008058598" lon="8.529134927291821"><ele>247.0</ele><time>2026-04-18T10:15:59Z</time></trkpt><trkpt lat="39.332930233342786" lon="8.529340687397292"><ele>245.0</ele><time>2026-04-18T10:16:00Z</time></trkpt><trkpt lat="39.332796651819876" lon="8.529550829044167"><ele>249.33333333333334</ele><time>2026-04-18T10:16:01Z</time></trkpt><trkpt lat="39.33268088944374" lon="8.52976581239734"><ele>253.66666666666669</ele><time>2026-04-18T10:16:02Z</time></trkpt><trkpt lat="39.332577414958955" lon="8.529975529914214"><ele>258.0</ele><time>2026-04-18T10:16:03Z</time></trkpt><trkpt lat="39.3324782610042" lon="8.530166890944768"><ele>258.0</ele><time>2026-04-18T10:16:04Z</time></trkpt><trkpt lat="39.33237165408594" lon="8.53032884583424"><ele>258.0</ele><time>2026-04-18T10:16:05Z</time></trkpt><trkpt lat="39.332253551772865" lon="8.530447469926976"><ele>258.0</ele><time>2026-04-18T10:16:06Z</time></trkpt><trkpt lat="39.33211781343538" lon="8.530515133285382"><ele>258.0</ele><time>2026-04-18T10:16:07Z</time></trkpt><trkpt lat="39.33196847790577" lon="8.530529900515475"><ele>258.0</ele><time>2026-04-18T10:16:08Z</time></trkpt><trkpt lat="39.331822532051945" lon="8.53052114218813"><ele>258.0</ele><time>2026-04-18T10:16:09Z</time></trkpt><trkpt lat="39.331683315658864" lon="8.530566533886146"><ele>258.0</ele><time>2026-04-18T10:16:10Z</time></trkpt><trkpt lat="39.33155323183844" lon="8.53067987659396"><ele>258.0</ele><time>2026-04-18T10:16:11Z</time></trkpt><trkpt lat="39.331423275104974" lon="8.530819045169267"><ele>258.0</ele><time>2026-04-18T10:16:12Z</time></trkpt><trkpt lat="39.331291996143875" lon="8.53095826874487"><ele>258.0</ele><time>2026-04-18T10:16:13Z</time></trkpt><trkpt lat="39.33117660356414" lon="8.531098772873266"><ele>258.5</ele><time>2026-04-18T10:16:14Z</time></trkpt><trkpt lat="39.331085361459685" lon="8.531236835516044"><ele>259.0</ele><time>2026-04-18T10:16:15Z</time></trkpt><trkpt lat="39.33098966660953" lon="8.531355825729866"><ele>259.5</ele><time>2026-04-18T10:16:16Z</time></trkpt><trkpt lat="39.330872164820214" lon="8.531442735729645"><ele>260.0</ele><time>2026-04-18T10:16:17Z</time></trkpt><trkpt lat="39.33073044520291" lon="8.531481327001021"><ele>260.0</ele><time>2026-04-18T10:16:18Z</time></trkpt><trkpt lat="39.330575360727714" lon="8.531503722828703"><ele>260.0</ele><time>2026-04-18T10:16:19Z</time></trkpt><trkpt lat="39.33041503165258" lon="8.531541960545733"><ele>260.0</ele><time>2026-04-18T10:16:20Z</time></trkpt><trkpt lat="39.330254770813994" lon="8.531580707113015"><ele>265.0</ele><time>2026-04-18T10:16:21Z</time></trkpt><trkpt lat="39.33008560013459" lon="8.531627003757796"><ele>270.0</ele><time>2026-04-18T10:16:22Z</time></trkpt><trkpt lat="39.32990815058064" lon="8.531677389557007"><ele>275.0</ele><time>2026-04-18T10:16:23Z</time></trkpt><trkpt lat="39.329726755492594" lon="8.531721537766668"><ele>278.0</ele><time>2026-04-18T10:16:24Z</time></trkpt><trkpt lat="39.329555878737494" lon="8.531761312611515"><ele>281.0</ele><time>2026-04-18T10:16:25Z</time></trkpt><trkpt lat="39.329396129749576" lon="8.531794988500467"><ele>284.0</ele><time>2026-04-18T10:16:26Z</time></trkpt><trkpt lat="39.32922715996283" lon="8.531807305775676"><ele>284.0</ele><time>2026-04-18T10:16:27Z</time></trkpt><trkpt lat="39.329050295246226" lon="8.531787389324725"><ele>284.0</ele><time>2026-04-18T10:16:28Z</time></trkpt><trkpt lat="39.32887145880831" lon="8.531783437211136"><ele>284.0</ele><time>2026-04-18T10:16:29Z</time></trkpt><trkpt lat="39.32870438552824" lon="8.53184964032555"><ele>285.33333333333337</ele><time>2026-04-18T10:16:30Z</time></trkpt><trkpt lat="39.32855391887368" lon="8.531930206274145"><ele>286.6666666666667</ele><time>2026-04-18T10:16:31Z</time></trkpt><trkpt lat="39.32840344952938" lon="8.531980275979866"><ele>288.0</ele><time>2026-04-18T10:16:32Z</time></trkpt><trkpt lat="39.32824658968817" lon="8.531983964733161"><ele>288.0</ele><time>2026-04-18T10:16:33Z</time></trkpt><trkpt lat="39.3280728862061" lon="8.531946972171415"><ele>288.0</ele><time>2026-04-18T10:16:34Z</time></trkpt><trkpt lat="39.3278879478519" lon="8.53189547647646"><ele>288.0</ele><time>2026-04-18T10:16:35Z</time></trkpt><trkpt lat="39.32769937728738" lon="8.531853941870482"><ele>287.0</ele><time>2026-04-18T10:16:36Z</time></trkpt><trkpt lat="39.327524831038914" lon="8.531819268714798"><ele>286.0</ele><time>2026-04-18T10:16:37Z</time></trkpt><trkpt lat="39.32736733819093" lon="8.531807890219389"><ele>285.0</ele><time>2026-04-18T10:16:38Z</time></trkpt><trkpt lat="39.32720450231404" lon="8.53183085904201"><ele>285.0</ele><time>2026-04-18T10:16:39Z</time></trkpt><trkpt lat="39.32703123150913" lon="8.531902129885353"><ele>285.0</ele><time>2026-04-18T10:16:40Z</time></trkpt><trkpt lat="39.32685281227661" lon="8.532014973003024"><ele>285.0</ele><time>2026-04-18T10:16:41Z</time></trkpt><trkpt lat="39.32666744601472" lon="8.532140486982026"><ele>285.0</ele><time>2026-04-18T10:16:42Z</time></trkpt><trkpt lat="39.32647988452312" lon="8.532264449614068"><ele>285.0</ele><time>2026-04-18T10:16:43Z</time></trkpt><trkpt lat="39.326297166573276" lon="8.532379950657184"><ele>285.0</ele><time>2026-04-18T10:16:44Z</time></trkpt><trkpt lat="39.326121194436574" lon="8.532480115213287"><ele>279.6666666666667</ele><time>2026-04-18T10:16:45Z</time></trkpt><trkpt lat="39.32593988024002" lon="8.532566809595577"><ele>274.33333333333337</ele><time>2026-04-18T10:16:46Z</time></trkpt><trkpt lat="39.325747057285625" lon="8.532630252769618"><ele>269.0</ele><time>2026-04-18T10:16:47Z</time></trkpt><trkpt lat="39.32555182193727" lon="8.532679431575126"><ele>266.6666666666667</ele><time>2026-04-18T10:16:48Z</time></trkpt><trkpt lat="39.32535976528334" lon="8.53273921667942"><ele>264.3333333333333</ele><time>2026-04-18T10:16:49Z</time></trkpt><trkpt lat="39.32517912284826" lon="8.532829607395085"><ele>262.0</ele><time>2026-04-18T10:16:50Z</time></trkpt><trkpt lat="39.32501684076695" lon="8.532938730641131"><ele>262.0</ele><time>2026-04-18T10:16:51Z</time></trkpt><trkpt lat="39.324880542738974" lon="8.533038654320919"><ele>262.0</ele><time>2026-04-18T10:16:52Z</time></trkpt><trkpt lat="39.32477871048015" lon="8.5331503800736"><ele>262.0</ele><time>2026-04-18T10:16:53Z</time></trkpt><trkpt lat="39.32472024377308" lon="8.533285975956343"><ele>262.0</ele><time>2026-04-18T10:16:54Z</time></trkpt><trkpt lat="39.324701981046324" lon="8.53343319142527"><ele>262.0</ele><time>2026-04-18T10:16:55Z</time></trkpt><trkpt lat="39.324715194753885" lon="8.53358496864475"><ele>262.0</ele><time>2026-04-18T10:16:56Z</time></trkpt><trkpt lat="39.32481291276097" lon="8.53370938802318"><ele>262.0</ele><time>2026-04-18T10:16:57Z</time></trkpt><trkpt lat="39.324920917413635" lon="8.533788008993303"><ele>262.0</ele><time>2026-04-18T10:16:58Z</time></trkpt><trkpt lat="39.32503138266411" lon="8.533839931702012"><ele>260.6</ele><time>2026-04-18T10:16:59Z</time></trkpt><trkpt lat="39.325106975886065" lon="8.533916174644174"><ele>259.2</ele><time>2026-04-18T10:17:00Z</time></trkpt><trkpt lat="39.32513905374426" lon="8.534028188117226"><ele>257.8</ele><time>2026-04-18T10:17:01Z</time></trkpt><trkpt lat="39.325127778662896" lon="8.534162534845693"><ele>256.4</ele><time>2026-04-18T10:17:02Z</time></trkpt><trkpt lat="39.325064944594494" lon="8.53428836132135"><ele>255.0</ele><time>2026-04-18T10:17:03Z</time></trkpt><trkpt lat="39.324954223037885" lon="8.534399642978917"><ele>255.0</ele><time>2026-04-18T10:17:04Z</time></trkpt><trkpt lat="39.32484465552319" lon="8.534509098145108"><ele>255.0</ele><time>2026-04-18T10:17:05Z</time></trkpt><trkpt lat="39.324735954479614" lon="8.534628424565565"><ele>255.0</ele><time>2026-04-18T10:17:06Z</time></trkpt><trkpt lat="39.324640350453286" lon="8.534742162435169"><ele>255.0</ele><time>2026-04-18T10:17:07Z</time></trkpt><trkpt lat="39.32455318642814" lon="8.534826178079287"><ele>255.0</ele><time>2026-04-18T10:17:08Z</time></trkpt><trkpt lat="39.324457778721005" lon="8.534863326087947"><ele>255.0</ele><time>2026-04-18T10:17:09Z</time></trkpt><trkpt lat="39.32437191013114" lon="8.534839900780991"><ele>255.0</ele><time>2026-04-18T10:17:10Z</time></trkpt><trkpt lat="39.32430397138537" lon="8.534762988528332"><ele>255.0</ele><time>2026-04-18T10:17:11Z</time></trkpt><trkpt lat="39.32423164006699" lon="8.534649724249853"><ele>255.0</ele><time>2026-04-18T10:17:12Z</time></trkpt><trkpt lat="39.32414696288648" lon="8.534520571939067"><ele>254.33333333333331</ele><time>2026-04-18T10:17:13Z</time></trkpt><trkpt lat="39.32405345764146" lon="8.534376441407211"><ele>253.66666666666666</ele><time>2026-04-18T10:17:14Z</time></trkpt><trkpt lat="39.32395285273006" lon="8.534216384732558"><ele>253.0</ele><time>2026-04-18T10:17:15Z</time></trkpt><trkpt lat="39.323845523762316" lon="8.53405046141448"><ele>253.0</ele><time>2026-04-18T10:17:16Z</time></trkpt><trkpt lat="39.323740748937226" lon="8.533890867340768"><ele>253.0</ele><time>2026-04-18T10:17:17Z</time></trkpt><trkpt lat="39.32363646252391" lon="8.533748141110534"><ele>253.0</ele><time>2026-04-18T10:17:18Z</time></trkpt><trkpt lat="39.32352339816041" lon="8.533621828575521"><ele>247.0</ele><time>2026-04-18T10:17:19Z</time></trkpt><trkpt lat="39.32339107440599" lon="8.533513790919576"><ele>241.0</ele><time>2026-04-18T10:17:20Z</time></trkpt><trkpt lat="39.32323809829869" lon="8.533428097122151"><ele>235.0</ele><time>2026-04-18T10:17:21Z</time></trkpt><trkpt lat="39.32307425958875" lon="8.533347477921378"><ele>233.66666666666666</ele><time>2026-04-18T10:17:22Z</time></trkpt><trkpt lat="39.322910176906674" lon="8.533269543767037"><ele>232.33333333333331</ele><time>2026-04-18T10:17:23Z</time></trkpt><trkpt lat="39.322753400018485" lon="8.533187197462096"><ele>231.0</ele><time>2026-04-18T10:17:24Z</time></trkpt><trkpt lat="39.32259452176058" lon="8.533102202616526"><ele>231.0</ele><time>2026-04-18T10:17:25Z</time></trkpt><trkpt lat="39.322447513271584" lon="8.533028034279813"><ele>231.0</ele><time>2026-04-18T10:17:26Z</time></trkpt><trkpt lat="39.32230648436458" lon="8.532964497011479"><ele>231.0</ele><time>2026-04-18T10:17:27Z</time></trkpt><trkpt lat="39.32215214105042" lon="8.532934730016965"><ele>229.66666666666669</ele><time>2026-04-18T10:17:28Z</time></trkpt><trkpt lat="39.321976124479484" lon="8.532921422978585"><ele>228.33333333333334</ele><time>2026-04-18T10:17:29Z</time></trkpt><trkpt lat="39.321809813462714" lon="8.532910744631724"><ele>227.0</ele><time>2026-04-18T10:17:30Z</time></trkpt><trkpt lat="39.32166465019169" lon="8.532890514992001"><ele>228.0</ele><time>2026-04-18T10:17:31Z</time></trkpt><trkpt lat="39.32153297849622" lon="8.532878176972327"><ele>229.0</ele><time>2026-04-18T10:17:32Z</time></trkpt><trkpt lat="39.32142417507892" lon="8.532875396688887"><ele>230.0</ele><time>2026-04-18T10:17:33Z</time></trkpt><trkpt lat="39.32131342592907" lon="8.532864997050456"><ele>231.0</ele><time>2026-04-18T10:17:34Z</time></trkpt><trkpt lat="39.32120457762083" lon="8.532854832765901"><ele>231.0</ele><time>2026-04-18T10:17:35Z</time></trkpt><trkpt lat="39.32110605126949" lon="8.532844201625688"><ele>231.00000000000003</ele><time>2026-04-18T10:17:36Z</time></trkpt><trkpt lat="39.32102003905766" lon="8.532834382753885"><ele>231.00000000000003</ele><time>2026-04-18T10:17:37Z</time></trkpt><trkpt lat="39.32093168366609" lon="8.532824110928763"><ele>231.0</ele><time>2026-04-18T10:17:38Z</time></trkpt><trkpt lat="39.32084056744679" lon="8.53281588967689"><ele>231.0</ele><time>2026-04-18T10:17:39Z</time></trkpt><trkpt lat="39.32074507994451" lon="8.532808853284374"><ele>231.0</ele><time>2026-04-18T10:17:40Z</time></trkpt><trkpt lat="39.320652650134264" lon="8.53279838906761"><ele>231.0</ele><time>2026-04-18T10:17:41Z</time></trkpt><trkpt lat="39.32056893264452" lon="8.532789838281834"><ele>231.0</ele><time>2026-04-18T10:17:42Z</time></trkpt><trkpt lat="39.32050057531922" lon="8.5327840863664"><ele>231.0</ele><time>2026-04-18T10:17:43Z</time></trkpt><trkpt lat="39.320372424942036" lon="8.53277375053899"><ele>231.0</ele><time>2026-04-18T10:17:45Z</time></trkpt><trkpt lat="39.32030910684056" lon="8.532768109274793"><ele>231.0</ele><time>2026-04-18T10:17:46Z</time></trkpt><trkpt lat="39.32019264964753" lon="8.532759846966195"><ele>227.5</ele><time>2026-04-18T10:17:48Z</time></trkpt><trkpt lat="39.3200886768635" lon="8.532728694806153"><ele>224.0</ele><time>2026-04-18T10:17:50Z</time></trkpt><trkpt lat="39.31999793344226" lon="8.532638752168742"><ele>220.5</ele><time>2026-04-18T10:17:52Z</time></trkpt><trkpt lat="39.319957340696476" lon="8.532417389085575"><ele>217.0</ele><time>2026-04-18T10:17:54Z</time></trkpt><trkpt lat="39.31991315605764" lon="8.532238232426867"><ele>218.66666666666666</ele><time>2026-04-18T10:17:55Z</time></trkpt><trkpt lat="39.31985266695898" lon="8.53203386493585"><ele>220.33333333333331</ele><time>2026-04-18T10:17:56Z</time></trkpt><trkpt lat="39.31977931143295" lon="8.531826817082335"><ele>222.0</ele><time>2026-04-18T10:17:57Z</time></trkpt><trkpt lat="39.319738552105306" lon="8.531613580468083"><ele>221.66666666666669</ele><time>2026-04-18T10:17:58Z</time></trkpt><trkpt lat="39.31972237909844" lon="8.531408400969275"><ele>221.33333333333334</ele><time>2026-04-18T10:17:59Z</time></trkpt><trkpt lat="39.31973275847333" lon="8.53120643846956"><ele>221.0</ele><time>2026-04-18T10:18:00Z</time></trkpt><trkpt lat="39.3197775394191" lon="8.531003639633608"><ele>221.0</ele><time>2026-04-18T10:18:01Z</time></trkpt><trkpt lat="39.31985694602989" lon="8.530802184401573"><ele>221.0</ele><time>2026-04-18T10:18:02Z</time></trkpt><trkpt lat="39.31996500710585" lon="8.530619871076283"><ele>221.0</ele><time>2026-04-18T10:18:03Z</time></trkpt><trkpt lat="39.32009586601018" lon="8.530454137534138"><ele>221.66666666666669</ele><time>2026-04-18T10:18:04Z</time></trkpt><trkpt lat="39.32024868114127" lon="8.530301917480676"><ele>222.33333333333331</ele><time>2026-04-18T10:18:05Z</time></trkpt><trkpt lat="39.32040878628108" lon="8.53017027840229"><ele>223.0</ele><time>2026-04-18T10:18:06Z</time></trkpt><trkpt lat="39.320573417998446" lon="8.530056685446064"><ele>223.0</ele><time>2026-04-18T10:18:07Z</time></trkpt><trkpt lat="39.32075146826433" lon="8.529977889963384"><ele>223.0</ele><time>2026-04-18T10:18:08Z</time></trkpt><trkpt lat="39.32094855816672" lon="8.529922486924889"><ele>223.0</ele><time>2026-04-18T10:18:09Z</time></trkpt><trkpt lat="39.321153262963996" lon="8.52986278341096"><ele>223.0</ele><time>2026-04-18T10:18:10Z</time></trkpt><trkpt lat="39.321358018350566" lon="8.529790297063085"><ele>223.0</ele><time>2026-04-18T10:18:11Z</time></trkpt><trkpt lat="39.32156203406441" lon="8.529717137764393"><ele>223.0</ele><time>2026-04-18T10:18:12Z</time></trkpt><trkpt lat="39.321756222716864" lon="8.52965153354266"><ele>225.0</ele><time>2026-04-18T10:18:13Z</time></trkpt><trkpt lat="39.32196691922388" lon="8.529555830010585"><ele>227.0</ele><time>2026-04-18T10:18:14Z</time></trkpt><trkpt lat="39.32218357580796" lon="8.529450411961943"><ele>229.0</ele><time>2026-04-18T10:18:15Z</time></trkpt><trkpt lat="39.32239632197229" lon="8.52934485273027"><ele>231.0</ele><time>2026-04-18T10:18:16Z</time></trkpt><trkpt lat="39.32259725418401" lon="8.529243035323317"><ele>233.0</ele><time>2026-04-18T10:18:17Z</time></trkpt><trkpt lat="39.32278815465923" lon="8.529141002705789"><ele>233.0</ele><time>2026-04-18T10:18:18Z</time></trkpt><trkpt lat="39.32296225852228" lon="8.529029136029006"><ele>233.0</ele><time>2026-04-18T10:18:19Z</time></trkpt><trkpt lat="39.32313276426025" lon="8.528886222627033"><ele>233.0</ele><time>2026-04-18T10:18:20Z</time></trkpt><trkpt lat="39.32331400969728" lon="8.528700021410081"><ele>233.66666666666669</ele><time>2026-04-18T10:18:21Z</time></trkpt><trkpt lat="39.32346609641069" lon="8.528490083336736"><ele>234.33333333333331</ele><time>2026-04-18T10:18:22Z</time></trkpt><trkpt lat="39.3235917533152" lon="8.5282637166965"><ele>235.0</ele><time>2026-04-18T10:18:23Z</time></trkpt><trkpt lat="39.32369782146905" lon="8.528028486171348"><ele>234.33333333333331</ele><time>2026-04-18T10:18:24Z</time></trkpt><trkpt lat="39.32377922327735" lon="8.527789195548696"><ele>233.66666666666669</ele><time>2026-04-18T10:18:25Z</time></trkpt><trkpt lat="39.32390493593903" lon="8.527572226549825"><ele>233.0</ele><time>2026-04-18T10:18:26Z</time></trkpt><trkpt lat="39.32394568508778" lon="8.527273232783578"><ele>238.33333333333334</ele><time>2026-04-18T10:18:27Z</time></trkpt><trkpt lat="39.32383537344275" lon="8.52699446497309"><ele>243.66666666666669</ele><time>2026-04-18T10:18:28Z</time></trkpt><trkpt lat="39.32380254197846" lon="8.526736311685669"><ele>249.0</ele><time>2026-04-18T10:18:29Z</time></trkpt><trkpt lat="39.32373580669604" lon="8.526488562187295"><ele>249.0</ele><time>2026-04-18T10:18:30Z</time></trkpt><trkpt lat="39.32363971709339" lon="8.526247311141173"><ele>249.0</ele><time>2026-04-18T10:18:31Z</time></trkpt><trkpt lat="39.32352866916165" lon="8.526027106235453"><ele>249.0</ele><time>2026-04-18T10:18:32Z</time></trkpt><trkpt lat="39.32341309364776" lon="8.525841786232066"><ele>249.0</ele><time>2026-04-18T10:18:33Z</time></trkpt><trkpt lat="39.32328068283299" lon="8.525693348002196"><ele>249.0</ele><time>2026-04-18T10:18:34Z</time></trkpt><trkpt lat="39.32311525898908" lon="8.525573053053026"><ele>249.0</ele><time>2026-04-18T10:18:35Z</time></trkpt><trkpt lat="39.32293260513112" lon="8.525464725043541"><ele>246.33333333333331</ele><time>2026-04-18T10:18:36Z</time></trkpt><trkpt lat="39.3227727855459" lon="8.52535829410917"><ele>243.66666666666666</ele><time>2026-04-18T10:18:37Z</time></trkpt><trkpt lat="39.322640410874406" lon="8.525236074141198"><ele>241.0</ele><time>2026-04-18T10:18:38Z</time></trkpt><trkpt lat="39.32252557689209" lon="8.52508974555792"><ele>241.0</ele><time>2026-04-18T10:18:39Z</time></trkpt><trkpt lat="39.322436307362146" lon="8.52492197142653"><ele>241.0</ele><time>2026-04-18T10:18:40Z</time></trkpt><trkpt lat="39.32237343034946" lon="8.52473008238144"><ele>241.0</ele><time>2026-04-18T10:18:41Z</time></trkpt><trkpt lat="39.322338295785535" lon="8.524525450745955"><ele>243.0</ele><time>2026-04-18T10:18:42Z</time></trkpt><trkpt lat="39.32233893199673" lon="8.524310459352051"><ele>245.0</ele><time>2026-04-18T10:18:43Z</time></trkpt><trkpt lat="39.32237208930838" lon="8.524085723649295"><ele>247.0</ele><time>2026-04-18T10:18:44Z</time></trkpt><trkpt lat="39.32242854189518" lon="8.523851997974567"><ele>251.0</ele><time>2026-04-18T10:18:45Z</time></trkpt><trkpt lat="39.32249901007852" lon="8.523611669803355"><ele>255.0</ele><time>2026-04-18T10:18:46Z</time></trkpt><trkpt lat="39.3225778955464" lon="8.523367647930739"><ele>259.0</ele><time>2026-04-18T10:18:47Z</time></trkpt><trkpt lat="39.32266034735577" lon="8.523131586187183"><ele>259.0</ele><time>2026-04-18T10:18:48Z</time></trkpt><trkpt lat="39.322758338679876" lon="8.52289769766907"><ele>259.0</ele><time>2026-04-18T10:18:49Z</time></trkpt><trkpt lat="39.32288457294976" lon="8.522679146414497"><ele>259.0</ele><time>2026-04-18T10:18:50Z</time></trkpt><trkpt lat="39.32302777086704" lon="8.522482351454817"><ele>259.0</ele><time>2026-04-18T10:18:51Z</time></trkpt><trkpt lat="39.32316075754845" lon="8.522287594013445"><ele>259.0</ele><time>2026-04-18T10:18:52Z</time></trkpt><trkpt lat="39.32326846051296" lon="8.522076149026597"><ele>259.0</ele><time>2026-04-18T10:18:53Z</time></trkpt><trkpt lat="39.32334618282236" lon="8.521849238726487"><ele>262.3333333333333</ele><time>2026-04-18T10:18:54Z</time></trkpt><trkpt lat="39.323393241487636" lon="8.521618309689599"><ele>265.6666666666667</ele><time>2026-04-18T10:18:55Z</time></trkpt><trkpt lat="39.32340221400248" lon="8.521369347510488"><ele>269.0</ele><time>2026-04-18T10:18:56Z</time></trkpt><trkpt lat="39.32337613209665" lon="8.52110773499233"><ele>272.0</ele><time>2026-04-18T10:18:57Z</time></trkpt><trkpt lat="39.323321666675064" lon="8.520838048598847"><ele>275.0</ele><time>2026-04-18T10:18:58Z</time></trkpt><trkpt lat="39.323254123190196" lon="8.520565112459522"><ele>278.0</ele><time>2026-04-18T10:18:59Z</time></trkpt><trkpt lat="39.32318331502257" lon="8.520285962804412"><ele>282.0</ele><time>2026-04-18T10:19:00Z</time></trkpt><trkpt lat="39.323104090301854" lon="8.520004986583542"><ele>286.0</ele><time>2026-04-18T10:19:01Z</time></trkpt><trkpt lat="39.32299786420415" lon="8.51973282422564"><ele>285.5</ele><time>2026-04-18T10:19:02Z</time></trkpt><trkpt lat="39.32286380550486" lon="8.519471347026403"><ele>285.0</ele><time>2026-04-18T10:19:03Z</time></trkpt><trkpt lat="39.32272059605617" lon="8.519216093639978"><ele>285.0</ele><time>2026-04-18T10:19:04Z</time></trkpt><trkpt lat="39.32258716926568" lon="8.518974752405391"><ele>285.0</ele><time>2026-04-18T10:19:05Z</time></trkpt><trkpt lat="39.32247083163235" lon="8.518753845534613"><ele>285.0</ele><time>2026-04-18T10:19:06Z</time></trkpt><trkpt lat="39.32237052310414" lon="8.518545193309388"><ele>285.3333333333333</ele><time>2026-04-18T10:19:07Z</time></trkpt><trkpt lat="39.32229232638353" lon="8.518342097459408"><ele>285.66666666666663</ele><time>2026-04-18T10:19:08Z</time></trkpt><trkpt lat="39.322233640166566" lon="8.518126858775389"><ele>286.0</ele><time>2026-04-18T10:19:09Z</time></trkpt><trkpt lat="39.322186715260386" lon="8.517894110149468"><ele>287.0</ele><time>2026-04-18T10:19:10Z</time></trkpt><trkpt lat="39.3221577696563" lon="8.51764467215531"><ele>288.0</ele><time>2026-04-18T10:19:11Z</time></trkpt><trkpt lat="39.322156059208154" lon="8.517382069722167"><ele>289.0</ele><time>2026-04-18T10:19:12Z</time></trkpt><trkpt lat="39.32218000358366" lon="8.517111797758277"><ele>291.0</ele><time>2026-04-18T10:19:13Z</time></trkpt><trkpt lat="39.322216572916986" lon="8.516830859031336"><ele>293.0</ele><time>2026-04-18T10:19:14Z</time></trkpt><trkpt lat="39.32225341764519" lon="8.516541855896111"><ele>295.0</ele><time>2026-04-18T10:19:15Z</time></trkpt><trkpt lat="39.322285432118456" lon="8.516258637895367"><ele>298.66666666666663</ele><time>2026-04-18T10:19:16Z</time></trkpt><trkpt lat="39.32231105476935" lon="8.515985650866746"><ele>302.3333333333333</ele><time>2026-04-18T10:19:17Z</time></trkpt><trkpt lat="39.32233880717066" lon="8.515724409115032"><ele>306.0</ele><time>2026-04-18T10:19:18Z</time></trkpt><trkpt lat="39.32236777606057" lon="8.515473854285409"><ele>307.0</ele><time>2026-04-18T10:19:19Z</time></trkpt><trkpt lat="39.32238381917125" lon="8.515224983692612"><ele>308.0</ele><time>2026-04-18T10:19:20Z</time></trkpt><trkpt lat="39.32237796869891" lon="8.514957306690686"><ele>309.0</ele><time>2026-04-18T10:19:21Z</time></trkpt><trkpt lat="39.32234413236913" lon="8.51467767885567"><ele>310.0</ele><time>2026-04-18T10:19:22Z</time></trkpt><trkpt lat="39.32228268726123" lon="8.51439161988698"><ele>311.0</ele><time>2026-04-18T10:19:23Z</time></trkpt><trkpt lat="39.322208454807274" lon="8.514096957455134"><ele>304.0</ele><time>2026-04-18T10:19:24Z</time></trkpt><trkpt lat="39.32215160928176" lon="8.513787202367563"><ele>297.0</ele><time>2026-04-18T10:19:25Z</time></trkpt><trkpt lat="39.32206909023795" lon="8.51349954627348"><ele>297.0</ele><time>2026-04-18T10:19:26Z</time></trkpt><trkpt lat="39.3220071010794" lon="8.513222374184897"><ele>297.0</ele><time>2026-04-18T10:19:27Z</time></trkpt><trkpt lat="39.32194526729834" lon="8.512959620496211"><ele>297.0</ele><time>2026-04-18T10:19:28Z</time></trkpt><trkpt lat="39.32187303495815" lon="8.512702824508212"><ele>299.6666666666667</ele><time>2026-04-18T10:19:29Z</time></trkpt><trkpt lat="39.321779814439466" lon="8.512445082204858"><ele>302.33333333333337</ele><time>2026-04-18T10:19:30Z</time></trkpt><trkpt lat="39.32167141628293" lon="8.512197175359614"><ele>305.0</ele><time>2026-04-18T10:19:31Z</time></trkpt><trkpt lat="39.32155353077176" lon="8.511966010108132"><ele>306.0</ele><time>2026-04-18T10:19:32Z</time></trkpt><trkpt lat="39.3214133405798" lon="8.511748030240572"><ele>307.0</ele><time>2026-04-18T10:19:33Z</time></trkpt><trkpt lat="39.321244167032596" lon="8.511534704021448"><ele>303.5</ele><time>2026-04-18T10:19:34Z</time></trkpt><trkpt lat="39.32107086568519" lon="8.511329150679478"><ele>300.0</ele><time>2026-04-18T10:19:35Z</time></trkpt><trkpt lat="39.32089228383948" lon="8.511118554728993"><ele>295.5</ele><time>2026-04-18T10:19:36Z</time></trkpt><trkpt lat="39.32071595480112" lon="8.510901273856746"><ele>291.0</ele><time>2026-04-18T10:19:37Z</time></trkpt><trkpt lat="39.320539254400806" lon="8.510675763090736"><ele>286.0</ele><time>2026-04-18T10:19:38Z</time></trkpt><trkpt lat="39.32036164426751" lon="8.510446167283567"><ele>281.0</ele><time>2026-04-18T10:19:39Z</time></trkpt><trkpt lat="39.32018268012498" lon="8.510214251172052"><ele>280.5</ele><time>2026-04-18T10:19:40Z</time></trkpt><trkpt lat="39.320004911048784" lon="8.509977159851545"><ele>280.0</ele><time>2026-04-18T10:19:41Z</time></trkpt><trkpt lat="39.319827655018656" lon="8.50973139699012"><ele>282.0</ele><time>2026-04-18T10:19:42Z</time></trkpt><trkpt lat="39.31965241855306" lon="8.509478939576132"><ele>284.0</ele><time>2026-04-18T10:19:43Z</time></trkpt><trkpt lat="39.31947852569986" lon="8.509217717940254"><ele>284.0</ele><time>2026-04-18T10:19:44Z</time></trkpt><trkpt lat="39.31930914095854" lon="8.508955908860049"><ele>284.0</ele><time>2026-04-18T10:19:45Z</time></trkpt><trkpt lat="39.3191424729067" lon="8.508691443680156"><ele>283.5</ele><time>2026-04-18T10:19:46Z</time></trkpt><trkpt lat="39.318977300548745" lon="8.50842354159793"><ele>283.0</ele><time>2026-04-18T10:19:47Z</time></trkpt><trkpt lat="39.318812657479974" lon="8.508152516853283"><ele>284.0</ele><time>2026-04-18T10:19:48Z</time></trkpt><trkpt lat="39.31864468242442" lon="8.507878466820271"><ele>285.0</ele><time>2026-04-18T10:19:49Z</time></trkpt><trkpt lat="39.31847092055077" lon="8.507603811006787"><ele>285.0</ele><time>2026-04-18T10:19:50Z</time></trkpt><trkpt lat="39.318294196965724" lon="8.507328047999218"><ele>285.0</ele><time>2026-04-18T10:19:51Z</time></trkpt><trkpt lat="39.31812042424016" lon="8.507050597060992"><ele>282.0</ele><time>2026-04-18T10:19:52Z</time></trkpt><trkpt lat="39.317951269107844" lon="8.506775156498707"><ele>279.0</ele><time>2026-04-18T10:19:53Z</time></trkpt><trkpt lat="39.31778135992193" lon="8.506499467911562"><ele>279.5</ele><time>2026-04-18T10:19:54Z</time></trkpt><trkpt lat="39.31760757430607" lon="8.506221410732872"><ele>280.0</ele><time>2026-04-18T10:19:55Z</time></trkpt><trkpt lat="39.31742964391179" lon="8.505939659201806"><ele>280.0</ele><time>2026-04-18T10:19:56Z</time></trkpt><trkpt lat="39.31724773094209" lon="8.50565470562085"><ele>280.0</ele><time>2026-04-18T10:19:57Z</time></trkpt><trkpt lat="39.31706526310632" lon="8.505367864340254"><ele>277.0</ele><time>2026-04-18T10:19:58Z</time></trkpt><trkpt lat="39.31688582691771" lon="8.505086092123966"><ele>274.0</ele><time>2026-04-18T10:19:59Z</time></trkpt><trkpt lat="39.31670686660491" lon="8.504806934829514"><ele>273.0</ele><time>2026-04-18T10:20:00Z</time></trkpt><trkpt lat="39.31653244595161" lon="8.504528273430475"><ele>272.0</ele><time>2026-04-18T10:20:01Z</time></trkpt><trkpt lat="39.31636132675446" lon="8.504248686593522"><ele>271.0</ele><time>2026-04-18T10:20:02Z</time></trkpt><trkpt lat="39.31619145168946" lon="8.503967992845283"><ele>270.0</ele><time>2026-04-18T10:20:03Z</time></trkpt><trkpt lat="39.31602006623488" lon="8.503688595529287"><ele>269.5</ele><time>2026-04-18T10:20:04Z</time></trkpt><trkpt lat="39.315847227329975" lon="8.503410953011052"><ele>269.0</ele><time>2026-04-18T10:20:05Z</time></trkpt><trkpt lat="39.31567455066841" lon="8.503137748523411"><ele>266.5</ele><time>2026-04-18T10:20:06Z</time></trkpt><trkpt lat="39.315502035081856" lon="8.50286511198652"><ele>264.0</ele><time>2026-04-18T10:20:07Z</time></trkpt><trkpt lat="39.315335493942506" lon="8.50260112184305"><ele>264.0</ele><time>2026-04-18T10:20:08Z</time></trkpt><trkpt lat="39.31517282556304" lon="8.502343979847717"><ele>264.0</ele><time>2026-04-18T10:20:09Z</time></trkpt><trkpt lat="39.31501230075651" lon="8.502096772748658"><ele>262.5</ele><time>2026-04-18T10:20:10Z</time></trkpt><trkpt lat="39.31485926015469" lon="8.50185895572383"><ele>261.0</ele><time>2026-04-18T10:20:11Z</time></trkpt><trkpt lat="39.31471248713527" lon="8.501625603325353"><ele>261.0</ele><time>2026-04-18T10:20:12Z</time></trkpt><trkpt lat="39.314567421748194" lon="8.501393231575806"><ele>261.0</ele><time>2026-04-18T10:20:13Z</time></trkpt><trkpt lat="39.31442866983367" lon="8.50115823464491"><ele>260.0</ele><time>2026-04-18T10:20:14Z</time></trkpt><trkpt lat="39.31429537455509" lon="8.500910611713392"><ele>259.0</ele><time>2026-04-18T10:20:15Z</time></trkpt><trkpt lat="39.314186416186786" lon="8.50065690312805"><ele>258.5</ele><time>2026-04-18T10:20:16Z</time></trkpt><trkpt lat="39.3140879750015" lon="8.500374198470315"><ele>258.0</ele><time>2026-04-18T10:20:17Z</time></trkpt><trkpt lat="39.31400439362283" lon="8.500079281498275"><ele>258.0</ele><time>2026-04-18T10:20:18Z</time></trkpt><trkpt lat="39.31394437937748" lon="8.499768637303303"><ele>258.0</ele><time>2026-04-18T10:20:19Z</time></trkpt><trkpt lat="39.31390415356925" lon="8.499462492341513"><ele>258.3333333333333</ele><time>2026-04-18T10:20:20Z</time></trkpt><trkpt lat="39.31386543227173" lon="8.499175284463528"><ele>258.66666666666663</ele><time>2026-04-18T10:20:21Z</time></trkpt><trkpt lat="39.31381432190458" lon="8.498902523353998"><ele>259.0</ele><time>2026-04-18T10:20:22Z</time></trkpt><trkpt lat="39.31374582618128" lon="8.498645818609054"><ele>256.0</ele><time>2026-04-18T10:20:23Z</time></trkpt><trkpt lat="39.31365059647016" lon="8.49841794207474"><ele>253.0</ele><time>2026-04-18T10:20:24Z</time></trkpt><trkpt lat="39.31352371529984" lon="8.49821019651391"><ele>250.0</ele><time>2026-04-18T10:20:25Z</time></trkpt><trkpt lat="39.31336108082413" lon="8.49800302902393"><ele>248.0</ele><time>2026-04-18T10:20:26Z</time></trkpt><trkpt lat="39.313176933448226" lon="8.497801172981012"><ele>246.0</ele><time>2026-04-18T10:20:27Z</time></trkpt><trkpt lat="39.31298842025156" lon="8.497584227317327"><ele>245.5</ele><time>2026-04-18T10:20:28Z</time></trkpt><trkpt lat="39.31280436957286" lon="8.497349812024876"><ele>245.0</ele><time>2026-04-18T10:20:29Z</time></trkpt><trkpt lat="39.31262756424849" lon="8.497107783611481"><ele>244.0</ele><time>2026-04-18T10:20:30Z</time></trkpt><trkpt lat="39.312455374494434" lon="8.496868100427657"><ele>243.0</ele><time>2026-04-18T10:20:31Z</time></trkpt><trkpt lat="39.31228311084326" lon="8.49664049543029"><ele>243.0</ele><time>2026-04-18T10:20:32Z</time></trkpt><trkpt lat="39.3120974154437" lon="8.496433912756297"><ele>243.0</ele><time>2026-04-18T10:20:33Z</time></trkpt><trkpt lat="39.31189507292189" lon="8.496245724348787"><ele>242.0</ele><time>2026-04-18T10:20:34Z</time></trkpt><trkpt lat="39.311695569799035" lon="8.496066487159835"><ele>241.0</ele><time>2026-04-18T10:20:35Z</time></trkpt><trkpt lat="39.311505912690954" lon="8.495885062354827"><ele>239.5</ele><time>2026-04-18T10:20:36Z</time></trkpt><trkpt lat="39.31132285860739" lon="8.495695908866846"><ele>238.0</ele><time>2026-04-18T10:20:37Z</time></trkpt><trkpt lat="39.31115208100612" lon="8.495498665892937"><ele>236.5</ele><time>2026-04-18T10:20:38Z</time></trkpt><trkpt lat="39.31099577731213" lon="8.495287812317429"><ele>235.0</ele><time>2026-04-18T10:20:39Z</time></trkpt><trkpt lat="39.310848976247584" lon="8.495062985123354"><ele>235.0</ele><time>2026-04-18T10:20:40Z</time></trkpt><trkpt lat="39.31070772085754" lon="8.494846927673807"><ele>235.0</ele><time>2026-04-18T10:20:41Z</time></trkpt><trkpt lat="39.31057264533792" lon="8.494644069996593"><ele>235.0</ele><time>2026-04-18T10:20:42Z</time></trkpt><trkpt lat="39.310438925079616" lon="8.494442945071409"><ele>233.66666666666666</ele><time>2026-04-18T10:20:43Z</time></trkpt><trkpt lat="39.31029694137529" lon="8.494248506322691"><ele>232.33333333333331</ele><time>2026-04-18T10:20:44Z</time></trkpt><trkpt lat="39.31012816150432" lon="8.49407224545172"><ele>231.0</ele><time>2026-04-18T10:20:45Z</time></trkpt><trkpt lat="39.309930791557136" lon="8.493917431402972"><ele>227.5</ele><time>2026-04-18T10:20:46Z</time></trkpt><trkpt lat="39.30972412046277" lon="8.493764014701217"><ele>224.0</ele><time>2026-04-18T10:20:47Z</time></trkpt><trkpt lat="39.30953435390778" lon="8.493616988937198"><ele>224.0</ele><time>2026-04-18T10:20:48Z</time></trkpt><trkpt lat="39.30935914229195" lon="8.493465989609291"><ele>224.0</ele><time>2026-04-18T10:20:49Z</time></trkpt><trkpt lat="39.309204611414884" lon="8.49328723626886"><ele>224.0</ele><time>2026-04-18T10:20:50Z</time></trkpt><trkpt lat="39.30905526580103" lon="8.49306594299917"><ele>226.0</ele><time>2026-04-18T10:20:51Z</time></trkpt><trkpt lat="39.30890528500579" lon="8.49282735205357"><ele>228.0</ele><time>2026-04-18T10:20:52Z</time></trkpt><trkpt lat="39.30874821509625" lon="8.492595775119444"><ele>228.0</ele><time>2026-04-18T10:20:53Z</time></trkpt><trkpt lat="39.30860276922668" lon="8.492382509407285"><ele>228.0</ele><time>2026-04-18T10:20:54Z</time></trkpt><trkpt lat="39.30847183491805" lon="8.492176271823046"><ele>228.0</ele><time>2026-04-18T10:20:55Z</time></trkpt><trkpt lat="39.30835438230348" lon="8.49197652681302"><ele>225.66666666666669</ele><time>2026-04-18T10:20:56Z</time></trkpt><trkpt lat="39.308263291231235" lon="8.4917717176117"><ele>223.33333333333334</ele><time>2026-04-18T10:20:57Z</time></trkpt><trkpt lat="39.30819496127268" lon="8.491533497283806"><ele>221.0</ele><time>2026-04-18T10:20:58Z</time></trkpt><trkpt lat="39.30815059063166" lon="8.491275789514006"><ele>221.33333333333334</ele><time>2026-04-18T10:20:59Z</time></trkpt><trkpt lat="39.30811212891459" lon="8.491024337273794"><ele>221.66666666666669</ele><time>2026-04-18T10:21:00Z</time></trkpt><trkpt lat="39.30806817329578" lon="8.49078832796993"><ele>222.0</ele><time>2026-04-18T10:21:01Z</time></trkpt><trkpt lat="39.308009646352666" lon="8.490555986458627"><ele>221.66666666666669</ele><time>2026-04-18T10:21:02Z</time></trkpt><trkpt lat="39.30791921490139" lon="8.490321983536436"><ele>221.33333333333334</ele><time>2026-04-18T10:21:03Z</time></trkpt><trkpt lat="39.30779599882286" lon="8.490098938536843"><ele>221.0</ele><time>2026-04-18T10:21:04Z</time></trkpt><trkpt lat="39.30764446745006" lon="8.48990052402088"><ele>221.0</ele><time>2026-04-18T10:21:05Z</time></trkpt><trkpt lat="39.30748472222171" lon="8.489712248849797"><ele>221.0</ele><time>2026-04-18T10:21:06Z</time></trkpt><trkpt lat="39.3073206994349" lon="8.489520734344794"><ele>221.0</ele><time>2026-04-18T10:21:07Z</time></trkpt><trkpt lat="39.30716562494925" lon="8.489342717357482"><ele>218.33333333333334</ele><time>2026-04-18T10:21:08Z</time></trkpt><trkpt lat="39.3070062624338" lon="8.489179557060494"><ele>215.66666666666669</ele><time>2026-04-18T10:21:09Z</time></trkpt><trkpt lat="39.30682795895733" lon="8.489038260546415"><ele>213.0</ele><time>2026-04-18T10:21:10Z</time></trkpt><trkpt lat="39.306632309905076" lon="8.488920387172948"><ele>213.0</ele><time>2026-04-18T10:21:11Z</time></trkpt><trkpt lat="39.306421023487744" lon="8.488835647620826"><ele>213.0</ele><time>2026-04-18T10:21:12Z</time></trkpt><trkpt lat="39.306193607793155" lon="8.48878654115541"><ele>209.5</ele><time>2026-04-18T10:21:13Z</time></trkpt><trkpt lat="39.305965752416384" lon="8.488763647005193"><ele>206.0</ele><time>2026-04-18T10:21:14Z</time></trkpt><trkpt lat="39.305736500240414" lon="8.488770408216672"><ele>202.0</ele><time>2026-04-18T10:21:15Z</time></trkpt><trkpt lat="39.30550283987151" lon="8.488801252611262"><ele>198.0</ele><time>2026-04-18T10:21:16Z</time></trkpt><trkpt lat="39.3052711274493" lon="8.488837346380148"><ele>198.0</ele><time>2026-04-18T10:21:17Z</time></trkpt><trkpt lat="39.30504269758299" lon="8.488871108223561"><ele>198.0</ele><time>2026-04-18T10:21:18Z</time></trkpt><trkpt lat="39.304818134474075" lon="8.488904389746779"><ele>194.0</ele><time>2026-04-18T10:21:19Z</time></trkpt><trkpt lat="39.30459884653234" lon="8.488935116321754"><ele>190.0</ele><time>2026-04-18T10:21:20Z</time></trkpt><trkpt lat="39.304389134256425" lon="8.488962598631142"><ele>186.0</ele><time>2026-04-18T10:21:21Z</time></trkpt><trkpt lat="39.30418250252015" lon="8.488995115377286"><ele>186.0</ele><time>2026-04-18T10:21:22Z</time></trkpt><trkpt lat="39.303978356876605" lon="8.489035882378829"><ele>186.0</ele><time>2026-04-18T10:21:23Z</time></trkpt><trkpt lat="39.30377656356379" lon="8.489086535701615"><ele>186.0</ele><time>2026-04-18T10:21:24Z</time></trkpt><trkpt lat="39.30358287348869" lon="8.489144499082542"><ele>183.0</ele><time>2026-04-18T10:21:25Z</time></trkpt><trkpt lat="39.30341936955177" lon="8.48920542980771"><ele>180.0</ele><time>2026-04-18T10:21:26Z</time></trkpt><trkpt lat="39.30324249621626" lon="8.489253062203197"><ele>177.0</ele><time>2026-04-18T10:21:27Z</time></trkpt><trkpt lat="39.30307446236689" lon="8.489296901226579"><ele>170.33333333333334</ele><time>2026-04-18T10:21:28Z</time></trkpt><trkpt lat="39.30291311770561" lon="8.489343334618239"><ele>163.66666666666669</ele><time>2026-04-18T10:21:29Z</time></trkpt><trkpt lat="39.302758809156174" lon="8.489389997254673"><ele>157.0</ele><time>2026-04-18T10:21:30Z</time></trkpt><trkpt lat="39.30260299720006" lon="8.489435004966902"><ele>157.0</ele><time>2026-04-18T10:21:31Z</time></trkpt><trkpt lat="39.30245556046805" lon="8.489483904684066"><ele>157.0</ele><time>2026-04-18T10:21:32Z</time></trkpt><trkpt lat="39.302310898214756" lon="8.489525814598778"><ele>157.0</ele><time>2026-04-18T10:21:33Z</time></trkpt><trkpt lat="39.302167100867266" lon="8.489576413777229"><ele>157.0</ele><time>2026-04-18T10:21:34Z</time></trkpt><trkpt lat="39.302027297546736" lon="8.489653938517213"><ele>156.66666666666669</ele><time>2026-04-18T10:21:35Z</time></trkpt><trkpt lat="39.301884044298596" lon="8.48975406292932"><ele>156.33333333333334</ele><time>2026-04-18T10:21:36Z</time></trkpt><trkpt lat="39.30172997647518" lon="8.489862112919619"><ele>156.0</ele><time>2026-04-18T10:21:37Z</time></trkpt><trkpt lat="39.30157676679802" lon="8.489994685489268"><ele>156.0</ele><time>2026-04-18T10:21:38Z</time></trkpt><trkpt lat="39.30144340787626" lon="8.49016023317692"><ele>156.0</ele><time>2026-04-18T10:21:39Z</time></trkpt><trkpt lat="39.301344990093426" lon="8.490358481704005"><ele>156.0</ele><time>2026-04-18T10:21:40Z</time></trkpt><trkpt lat="39.30126525911325" lon="8.490584842170508"><ele>150.66666666666666</ele><time>2026-04-18T10:21:41Z</time></trkpt><trkpt lat="39.301177424289435" lon="8.490806254039732"><ele>145.33333333333331</ele><time>2026-04-18T10:21:42Z</time></trkpt><trkpt lat="39.3010788683409" lon="8.49101205013118"><ele>140.0</ele><time>2026-04-18T10:21:43Z</time></trkpt><trkpt lat="39.300986941707244" lon="8.491215423708594"><ele>141.66666666666666</ele><time>2026-04-18T10:21:44Z</time></trkpt><trkpt lat="39.300905079304776" lon="8.491437701178024"><ele>143.33333333333334</ele><time>2026-04-18T10:21:45Z</time></trkpt><trkpt lat="39.300855745698826" lon="8.49169422549096"><ele>145.0</ele><time>2026-04-18T10:21:46Z</time></trkpt><trkpt lat="39.300819093257296" lon="8.4919445996333"><ele>145.0</ele><time>2026-04-18T10:21:47Z</time></trkpt><trkpt lat="39.300794685863664" lon="8.492193154237775"><ele>145.0</ele><time>2026-04-18T10:21:48Z</time></trkpt><trkpt lat="39.30073054321459" lon="8.492429794683572"><ele>145.0</ele><time>2026-04-18T10:21:49Z</time></trkpt><trkpt lat="39.30064404181078" lon="8.492649607318945"><ele>138.33333333333334</ele><time>2026-04-18T10:21:50Z</time></trkpt><trkpt lat="39.30052070341941" lon="8.492849785268847"><ele>131.66666666666666</ele><time>2026-04-18T10:21:51Z</time></trkpt><trkpt lat="39.300397461069714" lon="8.493060160240663"><ele>125.0</ele><time>2026-04-18T10:21:52Z</time></trkpt><trkpt lat="39.300287657412966" lon="8.493296086803847"><ele>125.0</ele><time>2026-04-18T10:21:53Z</time></trkpt><trkpt lat="39.300188048646966" lon="8.493550504565082"><ele>125.0</ele><time>2026-04-18T10:21:54Z</time></trkpt><trkpt lat="39.30009776355408" lon="8.49382027735378"><ele>125.0</ele><time>2026-04-18T10:21:55Z</time></trkpt><trkpt lat="39.300007663044326" lon="8.494093780290257"><ele>125.0</ele><time>2026-04-18T10:21:56Z</time></trkpt><trkpt lat="39.29991103711612" lon="8.494358905687069"><ele>125.0</ele><time>2026-04-18T10:21:57Z</time></trkpt><trkpt lat="39.299816372457194" lon="8.49462335023718"><ele>121.33333333333333</ele><time>2026-04-18T10:21:58Z</time></trkpt><trkpt lat="39.29972732702002" lon="8.494881107619214"><ele>117.66666666666666</ele><time>2026-04-18T10:21:59Z</time></trkpt><trkpt lat="39.29963827685375" lon="8.495132601839947"><ele>114.0</ele><time>2026-04-18T10:22:00Z</time></trkpt><trkpt lat="39.29954984767376" lon="8.495375520905831"><ele>114.33333333333334</ele><time>2026-04-18T10:22:01Z</time></trkpt><trkpt lat="39.29946331452654" lon="8.495615458134937"><ele>114.66666666666667</ele><time>2026-04-18T10:22:02Z</time></trkpt><trkpt lat="39.299379002264395" lon="8.495852959233103"><ele>115.0</ele><time>2026-04-18T10:22:03Z</time></trkpt><trkpt lat="39.2992866657515" lon="8.496083577343171"><ele>115.66666666666667</ele><time>2026-04-18T10:22:04Z</time></trkpt><trkpt lat="39.299181721414094" lon="8.496300121481063"><ele>116.33333333333334</ele><time>2026-04-18T10:22:05Z</time></trkpt><trkpt lat="39.29906981992036" lon="8.496504130542098"><ele>117.0</ele><time>2026-04-18T10:22:06Z</time></trkpt><trkpt lat="39.2989595009717" lon="8.49670249683046"><ele>115.0</ele><time>2026-04-18T10:22:07Z</time></trkpt><trkpt lat="39.298851253633" lon="8.496887557404243"><ele>113.0</ele><time>2026-04-18T10:22:08Z</time></trkpt><trkpt lat="39.29873571458901" lon="8.497058326724638"><ele>111.0</ele><time>2026-04-18T10:22:09Z</time></trkpt><trkpt lat="39.29862721600543" lon="8.497192171146883"><ele>111.0</ele><time>2026-04-18T10:22:10Z</time></trkpt><trkpt lat="39.298535645120644" lon="8.497279709257823"><ele>111.0</ele><time>2026-04-18T10:22:11Z</time></trkpt><trkpt lat="39.29845775783335" lon="8.497341969219981"><ele>111.0</ele><time>2026-04-18T10:22:12Z</time></trkpt><trkpt lat="39.298387911635174" lon="8.497413740133922"><ele>111.0</ele><time>2026-04-18T10:22:13Z</time></trkpt><trkpt lat="39.298323708039725" lon="8.49751751364999"><ele>111.0</ele><time>2026-04-18T10:22:14Z</time></trkpt><trkpt lat="39.298251523782234" lon="8.497661954965736"><ele>111.0</ele><time>2026-04-18T10:22:15Z</time></trkpt><trkpt lat="39.298186475188146" lon="8.497814863424306"><ele>111.0</ele><time>2026-04-18T10:22:16Z</time></trkpt><trkpt lat="39.298137165152625" lon="8.49794418056443"><ele>111.0</ele><time>2026-04-18T10:22:17Z</time></trkpt><trkpt lat="39.29807787363237" lon="8.498078320032718"><ele>111.0</ele><time>2026-04-18T10:22:18Z</time></trkpt><trkpt lat="39.29801820587667" lon="8.49821987828206"><ele>109.75</ele><time>2026-04-18T10:22:19Z</time></trkpt><trkpt lat="39.29795741607448" lon="8.49837212451542"><ele>108.5</ele><time>2026-04-18T10:22:20Z</time></trkpt><trkpt lat="39.29789585009436" lon="8.498508103891329"><ele>107.25</ele><time>2026-04-18T10:22:21Z</time></trkpt><trkpt lat="39.29782271973329" lon="8.498630774698972"><ele>106.0</ele><time>2026-04-18T10:22:22Z</time></trkpt><trkpt lat="39.29773460904017" lon="8.498724116477918"><ele>106.0</ele><time>2026-04-18T10:22:23Z</time></trkpt><trkpt lat="39.29762731986475" lon="8.498785177110474"><ele>106.0</ele><time>2026-04-18T10:22:24Z</time></trkpt><trkpt lat="39.29750503236386" lon="8.498815761727126"><ele>106.0</ele><time>2026-04-18T10:22:25Z</time></trkpt><trkpt lat="39.297386428761754" lon="8.498793501778358"><ele>106.0</ele><time>2026-04-18T10:22:26Z</time></trkpt><trkpt lat="39.297279743031496" lon="8.49871458327363"><ele>105.0</ele><time>2026-04-18T10:22:27Z</time></trkpt><trkpt lat="39.297187321352695" lon="8.498600009849431"><ele>104.0</ele><time>2026-04-18T10:22:28Z</time></trkpt><trkpt lat="39.2971047472389" lon="8.498453244549918"><ele>103.0</ele><time>2026-04-18T10:22:29Z</time></trkpt><trkpt lat="39.297034297608775" lon="8.498284753971697"><ele>102.0</ele><time>2026-04-18T10:22:30Z</time></trkpt><trkpt lat="39.29693938006235" lon="8.498145199488729"><ele>102.0</ele><time>2026-04-18T10:22:31Z</time></trkpt><trkpt lat="39.29688129289099" lon="8.4979572327694"><ele>102.0</ele><time>2026-04-18T10:22:32Z</time></trkpt><trkpt lat="39.29678211308275" lon="8.497804611619811"><ele>102.0</ele><time>2026-04-18T10:22:33Z</time></trkpt><trkpt lat="39.29666713806362" lon="8.49766030987549"><ele>101.0</ele><time>2026-04-18T10:22:34Z</time></trkpt><trkpt lat="39.29654047565542" lon="8.497508980173661"><ele>100.0</ele><time>2026-04-18T10:22:35Z</time></trkpt><trkpt lat="39.296412218776325" lon="8.497349387445514"><ele>99.0</ele><time>2026-04-18T10:22:36Z</time></trkpt><trkpt lat="39.29628396512657" lon="8.497184219270434"><ele>96.66666666666667</ele><time>2026-04-18T10:22:37Z</time></trkpt><trkpt lat="39.296151014089695" lon="8.49701889827377"><ele>94.33333333333334</ele><time>2026-04-18T10:22:38Z</time></trkpt><trkpt lat="39.29601714967397" lon="8.496857148204832"><ele>92.0</ele><time>2026-04-18T10:22:39Z</time></trkpt><trkpt lat="39.295883435370335" lon="8.496694786716215"><ele>92.0</ele><time>2026-04-18T10:22:40Z</time></trkpt><trkpt lat="39.295753291801276" lon="8.496534753767957"><ele>92.0</ele><time>2026-04-18T10:22:41Z</time></trkpt><trkpt lat="39.29562296134721" lon="8.496374789976395"><ele>92.0</ele><time>2026-04-18T10:22:42Z</time></trkpt><trkpt lat="39.29549576609542" lon="8.49621625678501"><ele>91.0</ele><time>2026-04-18T10:22:43Z</time></trkpt><trkpt lat="39.29537066161121" lon="8.496059478888931"><ele>90.0</ele><time>2026-04-18T10:22:44Z</time></trkpt><trkpt lat="39.29524685571912" lon="8.495908887342015"><ele>89.0</ele><time>2026-04-18T10:22:45Z</time></trkpt><trkpt lat="39.295121828802806" lon="8.495758040388193"><ele>89.0</ele><time>2026-04-18T10:22:46Z</time></trkpt><trkpt lat="39.29499677578462" lon="8.495605275728547"><ele>89.0</ele><time>2026-04-18T10:22:47Z</time></trkpt><trkpt lat="39.29487384468859" lon="8.495452889602744"><ele>89.0</ele><time>2026-04-18T10:22:48Z</time></trkpt><trkpt lat="39.294752359829666" lon="8.49530225810855"><ele>87.66666666666667</ele><time>2026-04-18T10:22:49Z</time></trkpt><trkpt lat="39.294629277211904" lon="8.495151573329867"><ele>86.33333333333333</ele><time>2026-04-18T10:22:50Z</time></trkpt><trkpt lat="39.294509360864915" lon="8.495003123784175"><ele>85.0</ele><time>2026-04-18T10:22:51Z</time></trkpt><trkpt lat="39.29439049525149" lon="8.494860429675562"><ele>85.0</ele><time>2026-04-18T10:22:52Z</time></trkpt><trkpt lat="39.29428438059513" lon="8.49473191846266"><ele>85.0</ele><time>2026-04-18T10:22:53Z</time></trkpt><trkpt lat="39.294197022391224" lon="8.494620513491281"><ele>85.0</ele><time>2026-04-18T10:22:54Z</time></trkpt><trkpt lat="39.29411518383233" lon="8.494512350309417"><ele>85.0</ele><time>2026-04-18T10:22:55Z</time></trkpt><trkpt lat="39.29403793908515" lon="8.49441320005562"><ele>85.2</ele><time>2026-04-18T10:22:56Z</time></trkpt><trkpt lat="39.29396248699369" lon="8.494323416988372"><ele>85.4</ele><time>2026-04-18T10:22:57Z</time></trkpt><trkpt lat="39.29388853216396" lon="8.494233594561157"><ele>85.6</ele><time>2026-04-18T10:22:58Z</time></trkpt><trkpt lat="39.29381203017781" lon="8.494145538533777"><ele>85.8</ele><time>2026-04-18T10:22:59Z</time></trkpt><trkpt lat="39.29373623756554" lon="8.494055459417181"><ele>86.0</ele><time>2026-04-18T10:23:00Z</time></trkpt><trkpt lat="39.29366370360455" lon="8.493959867056104"><ele>85.6</ele><time>2026-04-18T10:23:01Z</time></trkpt><trkpt lat="39.29359365337945" lon="8.493859821466062"><ele>85.19999999999999</ele><time>2026-04-18T10:23:02Z</time></trkpt><trkpt lat="39.29352525977492" lon="8.493757637889667"><ele>84.80000000000001</ele><time>2026-04-18T10:23:03Z</time></trkpt><trkpt lat="39.29346303096795" lon="8.493647194961433"><ele>84.4</ele><time>2026-04-18T10:23:04Z</time></trkpt><trkpt lat="39.293407064112294" lon="8.493530060628721"><ele>84.0</ele><time>2026-04-18T10:23:05Z</time></trkpt><trkpt lat="39.29335078533675" lon="8.493414150060705"><ele>84.0</ele><time>2026-04-18T10:23:06Z</time></trkpt><trkpt lat="39.29329352639355" lon="8.493297323994694"><ele>84.0</ele><time>2026-04-18T10:23:07Z</time></trkpt><trkpt lat="39.2932412664167" lon="8.493177936140352"><ele>84.0</ele><time>2026-04-18T10:23:08Z</time></trkpt><trkpt lat="39.29319632149526" lon="8.493063426379843"><ele>84.0</ele><time>2026-04-18T10:23:09Z</time></trkpt><trkpt lat="39.29316155160537" lon="8.492957793879235"><ele>84.0</ele><time>2026-04-18T10:23:10Z</time></trkpt><trkpt lat="39.29313108570209" lon="8.49285555120313"><ele>83.83333333333333</ele><time>2026-04-18T10:23:11Z</time></trkpt><trkpt lat="39.29310551845723" lon="8.492759113954802"><ele>83.66666666666667</ele><time>2026-04-18T10:23:12Z</time></trkpt><trkpt lat="39.29308433954879" lon="8.492665408833645"><ele>83.5</ele><time>2026-04-18T10:23:13Z</time></trkpt><trkpt lat="39.29306724564695" lon="8.492577085334725"><ele>83.33333333333334</ele><time>2026-04-18T10:23:14Z</time></trkpt><trkpt lat="39.293063824187776" lon="8.49244081138971"><ele>83.16666666666667</ele><time>2026-04-18T10:23:16Z</time></trkpt><trkpt lat="39.29304636914585" lon="8.492360977820518"><ele>83.0</ele><time>2026-04-18T10:23:20Z</time></trkpt><trkpt lat="39.293027903701905" lon="8.492453554462953"><ele>83.25</ele><time>2026-04-18T10:23:47Z</time></trkpt><trkpt lat="39.29300522326975" lon="8.492569495834529"><ele>83.5</ele><time>2026-04-18T10:23:48Z</time></trkpt><trkpt lat="39.2930670279955" lon="8.492809115737057"><ele>83.75</ele><time>2026-04-18T10:23:49Z</time></trkpt><trkpt lat="39.29309954979039" lon="8.492938499192245"><ele>84.0</ele><time>2026-04-18T10:23:50Z</time></trkpt><trkpt lat="39.29313701996786" lon="8.493075096555458"><ele>84.0</ele><time>2026-04-18T10:23:51Z</time></trkpt><trkpt lat="39.29318926061844" lon="8.493211174984996"><ele>84.0</ele><time>2026-04-18T10:23:52Z</time></trkpt><trkpt lat="39.2932527094537" lon="8.493341884266966"><ele>84.0</ele><time>2026-04-18T10:23:53Z</time></trkpt><trkpt lat="39.29331926061143" lon="8.493472646767168"><ele>84.0</ele><time>2026-04-18T10:23:54Z</time></trkpt><trkpt lat="39.29338809008737" lon="8.493601521576938"><ele>84.0</ele><time>2026-04-18T10:23:55Z</time></trkpt><trkpt lat="39.29345863473942" lon="8.493730701831876"><ele>84.0</ele><time>2026-04-18T10:23:56Z</time></trkpt><trkpt lat="39.293534503369166" lon="8.493857757726435"><ele>84.0</ele><time>2026-04-18T10:23:57Z</time></trkpt><trkpt lat="39.2936166849017" lon="8.49397236278539"><ele>84.0</ele><time>2026-04-18T10:23:58Z</time></trkpt><trkpt lat="39.29369958272163" lon="8.494074251214245"><ele>84.0</ele><time>2026-04-18T10:23:59Z</time></trkpt><trkpt lat="39.293780249662056" lon="8.494172381291925"><ele>84.0</ele><time>2026-04-18T10:24:00Z</time></trkpt><trkpt lat="39.293861042267515" lon="8.494275359356328"><ele>84.0</ele><time>2026-04-18T10:24:01Z</time></trkpt><trkpt lat="39.2939459641166" lon="8.494381903265737"><ele>84.0</ele><time>2026-04-18T10:24:02Z</time></trkpt><trkpt lat="39.29403315495639" lon="8.494490183774902"><ele>84.25</ele><time>2026-04-18T10:24:03Z</time></trkpt><trkpt lat="39.29411836522438" lon="8.49460725226093"><ele>84.5</ele><time>2026-04-18T10:24:04Z</time></trkpt><trkpt lat="39.29420884979483" lon="8.494721692182722"><ele>84.75</ele><time>2026-04-18T10:24:05Z</time></trkpt><trkpt lat="39.2943057274965" lon="8.494829736743284"><ele>85.0</ele><time>2026-04-18T10:24:06Z</time></trkpt><trkpt lat="39.294403763652895" lon="8.494938686828455"><ele>85.0</ele><time>2026-04-18T10:24:07Z</time></trkpt><trkpt lat="39.29449995295355" lon="8.495054689438964"><ele>85.0</ele><time>2026-04-18T10:24:08Z</time></trkpt><trkpt lat="39.2945944859087" lon="8.495174703383306"><ele>85.0</ele><time>2026-04-18T10:24:09Z</time></trkpt><trkpt lat="39.29468993666818" lon="8.495292246049724"><ele>85.0</ele><time>2026-04-18T10:24:10Z</time></trkpt><trkpt lat="39.294782548658425" lon="8.495397996503174"><ele>85.8</ele><time>2026-04-18T10:24:11Z</time></trkpt><trkpt lat="39.29486589011922" lon="8.495497175944159"><ele>86.6</ele><time>2026-04-18T10:24:12Z</time></trkpt><trkpt lat="39.29494189750706" lon="8.495590358301763"><ele>87.4</ele><time>2026-04-18T10:24:13Z</time></trkpt><trkpt lat="39.29501854804792" lon="8.495678479792149"><ele>88.2</ele><time>2026-04-18T10:24:14Z</time></trkpt><trkpt lat="39.295089082348426" lon="8.49578955166631"><ele>89.0</ele><time>2026-04-18T10:24:15Z</time></trkpt><trkpt lat="39.29518321960936" lon="8.495874076198195"><ele>89.0</ele><time>2026-04-18T10:24:16Z</time></trkpt><trkpt lat="39.29526568653865" lon="8.495978496667393"><ele>89.0</ele><time>2026-04-18T10:24:17Z</time></trkpt><trkpt lat="39.29534484486803" lon="8.496073421954486"><ele>89.0</ele><time>2026-04-18T10:24:18Z</time></trkpt><trkpt lat="39.295414492129545" lon="8.496155447884698"><ele>89.0</ele><time>2026-04-18T10:24:19Z</time></trkpt><trkpt lat="39.29547218681977" lon="8.496222902522948"><ele>89.0</ele><time>2026-04-18T10:24:20Z</time></trkpt><trkpt lat="39.29555252783536" lon="8.496223739708647"><ele>89.0</ele><time>2026-04-18T10:24:22Z</time></trkpt><trkpt lat="39.295564558003896" lon="8.496114563694654"><ele>89.0</ele><time>2026-04-18T10:24:24Z</time></trkpt><trkpt lat="39.295521333049265" lon="8.496045703900565"><ele>89.0</ele><time>2026-04-18T10:24:25Z</time></trkpt><trkpt lat="39.295474809322585" lon="8.495985980380166"><ele>89.0</ele><time>2026-04-18T10:24:26Z</time></trkpt><trkpt lat="39.295437029534455" lon="8.495914934922553"><ele>89.0</ele><time>2026-04-18T10:24:27Z</time></trkpt><trkpt lat="39.2953830564926" lon="8.495791578641958"><ele>89.0</ele><time>2026-04-18T10:24:29Z</time></trkpt><trkpt lat="39.295340869550806" lon="8.495714021530931"><ele>89.0</ele><time>2026-04-18T10:24:32Z</time></trkpt><trkpt lat="39.29530868348757" lon="8.495639752754302"><ele>89.0</ele><time>2026-04-18T10:28:55Z</time></trkpt><trkpt lat="39.295247130732996" lon="8.495660983514663"><ele>89.0</ele><time>2026-04-18T10:28:56Z</time></trkpt><trkpt lat="39.295161607405745" lon="8.495659434251982"><ele>89.0</ele><time>2026-04-18T10:28:58Z</time></trkpt><trkpt lat="39.295078562371565" lon="8.495698147105529"><ele>89.0</ele><time>2026-04-18T10:29:01Z</time></trkpt><trkpt lat="39.29502320149968" lon="8.495658506538716"><ele>89.0</ele><time>2026-04-18T10:29:02Z</time></trkpt><trkpt lat="39.294973085086966" lon="8.495569092007726"><ele>89.0</ele><time>2026-04-18T10:29:03Z</time></trkpt><trkpt lat="39.29491591688545" lon="8.495498403542495"><ele>89.0</ele><time>2026-04-18T10:29:04Z</time></trkpt><trkpt lat="39.294847866122225" lon="8.49541560298304"><ele>89.0</ele><time>2026-04-18T10:29:05Z</time></trkpt><trkpt lat="39.294777004310035" lon="8.495328143957282"><ele>89.0</ele><time>2026-04-18T10:29:06Z</time></trkpt><trkpt lat="39.294700987255816" lon="8.49522700530181"><ele>89.0</ele><time>2026-04-18T10:29:07Z</time></trkpt><trkpt lat="39.29461454116299" lon="8.49511246625623"><ele>88.0</ele><time>2026-04-18T10:29:08Z</time></trkpt><trkpt lat="39.29452148053174" lon="8.49500208131365"><ele>87.0</ele><time>2026-04-18T10:29:09Z</time></trkpt><trkpt lat="39.29442364142993" lon="8.494885546945719"><ele>86.0</ele><time>2026-04-18T10:29:10Z</time></trkpt><trkpt lat="39.2943208601351" lon="8.49476328929248"><ele>85.0</ele><time>2026-04-18T10:29:11Z</time></trkpt><trkpt lat="39.29421876843629" lon="8.494639108274804"><ele>85.25</ele><time>2026-04-18T10:29:12Z</time></trkpt><trkpt lat="39.29411729733497" lon="8.494512331898674"><ele>85.5</ele><time>2026-04-18T10:29:13Z</time></trkpt><trkpt lat="39.29401553976223" lon="8.494385232181756"><ele>85.75</ele><time>2026-04-18T10:29:14Z</time></trkpt><trkpt lat="39.293908402673836" lon="8.49425952530259"><ele>86.0</ele><time>2026-04-18T10:29:15Z</time></trkpt><trkpt lat="39.293800403869994" lon="8.494131174055774"><ele>85.5</ele><time>2026-04-18T10:29:16Z</time></trkpt><trkpt lat="39.293697036314455" lon="8.493996704109508"><ele>85.0</ele><time>2026-04-18T10:29:17Z</time></trkpt><trkpt lat="39.29359978240334" lon="8.493853101039633"><ele>84.5</ele><time>2026-04-18T10:29:18Z</time></trkpt><trkpt lat="39.29350736770833" lon="8.493703764238766"><ele>84.0</ele><time>2026-04-18T10:29:19Z</time></trkpt><trkpt lat="39.29342097182848" lon="8.493547525798274"><ele>84.0</ele><time>2026-04-18T10:29:20Z</time></trkpt><trkpt lat="39.29334000781552" lon="8.493383009002272"><ele>84.0</ele><time>2026-04-18T10:29:21Z</time></trkpt><trkpt lat="39.293264633658396" lon="8.493209995516168"><ele>84.0</ele><time>2026-04-18T10:29:22Z</time></trkpt><trkpt lat="39.293197982293144" lon="8.493027785102559"><ele>83.66666666666667</ele><time>2026-04-18T10:29:23Z</time></trkpt><trkpt lat="39.29314134561108" lon="8.49283893108299"><ele>83.33333333333334</ele><time>2026-04-18T10:29:24Z</time></trkpt><trkpt lat="39.293093101592525" lon="8.492647445003008"><ele>83.0</ele><time>2026-04-18T10:29:25Z</time></trkpt><trkpt lat="39.29304879769866" lon="8.4924532159166"><ele>83.5</ele><time>2026-04-18T10:29:26Z</time></trkpt><trkpt lat="39.293014649978154" lon="8.492261171657617"><ele>84.0</ele><time>2026-04-18T10:29:27Z</time></trkpt><trkpt lat="39.29297352672106" lon="8.492089233554758"><ele>84.5</ele><time>2026-04-18T10:29:28Z</time></trkpt><trkpt lat="39.292937586370755" lon="8.491926252415094"><ele>85.0</ele><time>2026-04-18T10:29:29Z</time></trkpt><trkpt lat="39.292902665490054" lon="8.491771354106968"><ele>85.0</ele><time>2026-04-18T10:29:30Z</time></trkpt><trkpt lat="39.29286984247867" lon="8.491619001991555"><ele>85.0</ele><time>2026-04-18T10:29:31Z</time></trkpt><trkpt lat="39.29284079192856" lon="8.491465136108188"><ele>85.0</ele><time>2026-04-18T10:29:32Z</time></trkpt><trkpt lat="39.29280892316061" lon="8.491308479142226"><ele>85.0</ele><time>2026-04-18T10:29:33Z</time></trkpt><trkpt lat="39.29277615521976" lon="8.491152916657194"><ele>83.5</ele><time>2026-04-18T10:29:34Z</time></trkpt><trkpt lat="39.29274435053918" lon="8.490993347480597"><ele>82.0</ele><time>2026-04-18T10:29:35Z</time></trkpt><trkpt lat="39.292710649421366" lon="8.490826845250677"><ele>80.5</ele><time>2026-04-18T10:29:36Z</time></trkpt><trkpt lat="39.29267691347916" lon="8.490657026472293"><ele>79.0</ele><time>2026-04-18T10:29:37Z</time></trkpt><trkpt lat="39.292641930977126" lon="8.49048950118902"><ele>79.25</ele><time>2026-04-18T10:29:38Z</time></trkpt><trkpt lat="39.29260558875991" lon="8.490320071805266"><ele>79.5</ele><time>2026-04-18T10:29:39Z</time></trkpt><trkpt lat="39.292566172050876" lon="8.490153131273702"><ele>79.75</ele><time>2026-04-18T10:29:40Z</time></trkpt><trkpt lat="39.29252511627958" lon="8.489991970134053"><ele>80.0</ele><time>2026-04-18T10:29:41Z</time></trkpt><trkpt lat="39.29248349535053" lon="8.48983353818358"><ele>80.0</ele><time>2026-04-18T10:29:42Z</time></trkpt><trkpt lat="39.292440921452844" lon="8.48968332423797"><ele>80.0</ele><time>2026-04-18T10:29:43Z</time></trkpt><trkpt lat="39.29239630445862" lon="8.489536208897178"><ele>80.0</ele><time>2026-04-18T10:29:44Z</time></trkpt><trkpt lat="39.29235005408069" lon="8.489390455226056"><ele>80.0</ele><time>2026-04-18T10:29:45Z</time></trkpt><trkpt lat="39.29230276741412" lon="8.489241190514507"><ele>80.0</ele><time>2026-04-18T10:29:46Z</time></trkpt><trkpt lat="39.29225655102698" lon="8.48909188161913"><ele>80.0</ele><time>2026-04-18T10:29:47Z</time></trkpt><trkpt lat="39.2922053132426" lon="8.488934514907784"><ele>80.0</ele><time>2026-04-18T10:29:48Z</time></trkpt><trkpt lat="39.29215169497466" lon="8.488767740796538"><ele>80.0</ele><time>2026-04-18T10:29:49Z</time></trkpt><trkpt lat="39.292101893205995" lon="8.488586996255947"><ele>82.33333333333334</ele><time>2026-04-18T10:29:50Z</time></trkpt><trkpt lat="39.29204116868393" lon="8.488418327453852"><ele>84.66666666666667</ele><time>2026-04-18T10:29:51Z</time></trkpt><trkpt lat="39.29196822452037" lon="8.488194548796722"><ele>87.0</ele><time>2026-04-18T10:29:52Z</time></trkpt><trkpt lat="39.2918945242593" lon="8.487982205966471"><ele>85.66666666666667</ele><time>2026-04-18T10:29:53Z</time></trkpt><trkpt lat="39.29181778890339" lon="8.48774996257937"><ele>84.33333333333334</ele><time>2026-04-18T10:29:54Z</time></trkpt><trkpt lat="39.29174249362059" lon="8.487507320314082"><ele>83.0</ele><time>2026-04-18T10:29:55Z</time></trkpt><trkpt lat="39.29166726644588" lon="8.487251513148484"><ele>84.0</ele><time>2026-04-18T10:29:56Z</time></trkpt><trkpt lat="39.29159464340676" lon="8.486981642507061"><ele>85.0</ele><time>2026-04-18T10:29:57Z</time></trkpt><trkpt lat="39.291532771282306" lon="8.486697159249326"><ele>85.0</ele><time>2026-04-18T10:29:58Z</time></trkpt><trkpt lat="39.29148153149107" lon="8.486416352606545"><ele>85.0</ele><time>2026-04-18T10:29:59Z</time></trkpt><trkpt lat="39.291429024932086" lon="8.486148016409324"><ele>85.0</ele><time>2026-04-18T10:30:00Z</time></trkpt><trkpt lat="39.291380997523916" lon="8.485884865873595"><ele>85.66666666666666</ele><time>2026-04-18T10:30:01Z</time></trkpt><trkpt lat="39.29133892846711" lon="8.485628360915634"><ele>86.33333333333333</ele><time>2026-04-18T10:30:02Z</time></trkpt><trkpt lat="39.291293905800174" lon="8.485363924810427"><ele>87.0</ele><time>2026-04-18T10:30:03Z</time></trkpt><trkpt lat="39.291242925568525" lon="8.485098320665083"><ele>85.0</ele><time>2026-04-18T10:30:04Z</time></trkpt><trkpt lat="39.29118992096998" lon="8.484824225497968"><ele>83.0</ele><time>2026-04-18T10:30:05Z</time></trkpt><trkpt lat="39.29113004568677" lon="8.48454421496944"><ele>81.0</ele><time>2026-04-18T10:30:06Z</time></trkpt><trkpt lat="39.291074974278885" lon="8.484257729696166"><ele>76.5</ele><time>2026-04-18T10:30:07Z</time></trkpt><trkpt lat="39.291025812716406" lon="8.483969949856238"><ele>72.0</ele><time>2026-04-18T10:30:08Z</time></trkpt><trkpt lat="39.290977832209215" lon="8.483681016142329"><ele>72.0</ele><time>2026-04-18T10:30:09Z</time></trkpt><trkpt lat="39.29093211046976" lon="8.483389742444423"><ele>72.0</ele><time>2026-04-18T10:30:10Z</time></trkpt><trkpt lat="39.29089288496291" lon="8.483190872285544"><ele>72.0</ele><time>2026-04-18T10:30:11Z</time></trkpt><trkpt lat="39.29088979863608" lon="8.482920081236188"><ele>71.66666666666667</ele><time>2026-04-18T10:30:12Z</time></trkpt><trkpt lat="39.29088048143353" lon="8.482651207722354"><ele>71.33333333333334</ele><time>2026-04-18T10:30:13Z</time></trkpt><trkpt lat="39.29088040345348" lon="8.482380922264436"><ele>71.0</ele><time>2026-04-18T10:30:14Z</time></trkpt><trkpt lat="39.2908813096354" lon="8.48210585550157"><ele>70.0</ele><time>2026-04-18T10:30:15Z</time></trkpt><trkpt lat="39.29088241885312" lon="8.481829181869593"><ele>69.0</ele><time>2026-04-18T10:30:16Z</time></trkpt><trkpt lat="39.29088356333973" lon="8.481545966097263"><ele>68.0</ele><time>2026-04-18T10:30:17Z</time></trkpt><trkpt lat="39.290884663341416" lon="8.481265399637048"><ele>67.33333333333334</ele><time>2026-04-18T10:30:18Z</time></trkpt><trkpt lat="39.29087313660069" lon="8.480991162677126"><ele>66.66666666666667</ele><time>2026-04-18T10:30:19Z</time></trkpt><trkpt lat="39.290879145778575" lon="8.480735330625697"><ele>66.0</ele><time>2026-04-18T10:30:20Z</time></trkpt><trkpt lat="39.29088156702884" lon="8.480493810916196"><ele>65.66666666666667</ele><time>2026-04-18T10:30:21Z</time></trkpt><trkpt lat="39.290883652322" lon="8.480265352543253"><ele>65.33333333333334</ele><time>2026-04-18T10:30:22Z</time></trkpt><trkpt lat="39.290879125424965" lon="8.480054335583574"><ele>65.0</ele><time>2026-04-18T10:30:23Z</time></trkpt><trkpt lat="39.290887420306866" lon="8.479830115123299"><ele>65.0</ele><time>2026-04-18T10:30:24Z</time></trkpt><trkpt lat="39.29088091615989" lon="8.479621869112949"><ele>65.0</ele><time>2026-04-18T10:30:25Z</time></trkpt><trkpt lat="39.290884724271976" lon="8.479412965218195"><ele>65.0</ele><time>2026-04-18T10:30:26Z</time></trkpt><trkpt lat="39.29088389076226" lon="8.479200649000038"><ele>64.66666666666667</ele><time>2026-04-18T10:30:27Z</time></trkpt><trkpt lat="39.29088768700643" lon="8.478985767962888"><ele>64.33333333333333</ele><time>2026-04-18T10:30:28Z</time></trkpt><trkpt lat="39.29088623802039" lon="8.478768518101223"><ele>64.0</ele><time>2026-04-18T10:30:29Z</time></trkpt><trkpt lat="39.290868470764686" lon="8.478551448200344"><ele>63.0</ele><time>2026-04-18T10:30:30Z</time></trkpt><trkpt lat="39.290831585893145" lon="8.478345207830436"><ele>62.0</ele><time>2026-04-18T10:30:31Z</time></trkpt><trkpt lat="39.29077950002939" lon="8.478140723053977"><ele>61.0</ele><time>2026-04-18T10:30:32Z</time></trkpt><trkpt lat="39.290712902795555" lon="8.47793679774642"><ele>61.33333333333333</ele><time>2026-04-18T10:30:33Z</time></trkpt><trkpt lat="39.29063247468698" lon="8.47773562020313"><ele>61.66666666666667</ele><time>2026-04-18T10:30:34Z</time></trkpt><trkpt lat="39.29053394650503" lon="8.477545662792897"><ele>62.0</ele><time>2026-04-18T10:30:35Z</time></trkpt><trkpt lat="39.29041246790119" lon="8.477369692579376"><ele>60.66666666666667</ele><time>2026-04-18T10:30:36Z</time></trkpt><trkpt lat="39.290276801008616" lon="8.477208654638346"><ele>59.33333333333333</ele><time>2026-04-18T10:30:37Z</time></trkpt><trkpt lat="39.29013301855307" lon="8.477060964486402"><ele>58.0</ele><time>2026-04-18T10:30:38Z</time></trkpt><trkpt lat="39.289977007879685" lon="8.476929258156254"><ele>57.0</ele><time>2026-04-18T10:30:39Z</time></trkpt><trkpt lat="39.289810044697" lon="8.47682095534489"><ele>56.0</ele><time>2026-04-18T10:30:40Z</time></trkpt><trkpt lat="39.28963895817727" lon="8.476737585281576"><ele>55.0</ele><time>2026-04-18T10:30:41Z</time></trkpt><trkpt lat="39.28946402977958" lon="8.47667276172179"><ele>55.0</ele><time>2026-04-18T10:30:42Z</time></trkpt><trkpt lat="39.289286835453" lon="8.476614997536155"><ele>55.0</ele><time>2026-04-18T10:30:43Z</time></trkpt><trkpt lat="39.289105481370584" lon="8.476555267728846"><ele>55.0</ele><time>2026-04-18T10:30:44Z</time></trkpt><trkpt lat="39.288925598165626" lon="8.476488839435353"><ele>56.33333333333333</ele><time>2026-04-18T10:30:45Z</time></trkpt><trkpt lat="39.28875787654549" lon="8.47639104540424"><ele>57.66666666666667</ele><time>2026-04-18T10:30:46Z</time></trkpt><trkpt lat="39.28859567419233" lon="8.476294564207507"><ele>59.0</ele><time>2026-04-18T10:30:47Z</time></trkpt><trkpt lat="39.288447102666325" lon="8.476192281699587"><ele>59.0</ele><time>2026-04-18T10:30:48Z</time></trkpt><trkpt lat="39.28830776040404" lon="8.476067216383138"><ele>59.0</ele><time>2026-04-18T10:30:49Z</time></trkpt><trkpt lat="39.28817564792638" lon="8.475918841561633"><ele>59.0</ele><time>2026-04-18T10:30:50Z</time></trkpt><trkpt lat="39.288047746185434" lon="8.475757844571964"><ele>59.333333333333336</ele><time>2026-04-18T10:30:51Z</time></trkpt><trkpt lat="39.28793102984438" lon="8.475577746314745"><ele>59.66666666666667</ele><time>2026-04-18T10:30:52Z</time></trkpt><trkpt lat="39.28782338490971" lon="8.475376357655785"><ele>60.0</ele><time>2026-04-18T10:30:53Z</time></trkpt><trkpt lat="39.287730371402965" lon="8.475174392266666"><ele>60.33333333333333</ele><time>2026-04-18T10:30:54Z</time></trkpt><trkpt lat="39.28764502208121" lon="8.474968194656531"><ele>60.666666666666664</ele><time>2026-04-18T10:30:55Z</time></trkpt><trkpt lat="39.287562587501306" lon="8.474763007186377"><ele>61.0</ele><time>2026-04-18T10:30:56Z</time></trkpt><trkpt lat="39.28747631289725" lon="8.474554198428127"><ele>61.0</ele><time>2026-04-18T10:30:57Z</time></trkpt><trkpt lat="39.287389090713496" lon="8.474338837598232"><ele>61.0</ele><time>2026-04-18T10:30:58Z</time></trkpt><trkpt lat="39.28730048825035" lon="8.474121506216106"><ele>61.0</ele><time>2026-04-18T10:30:59Z</time></trkpt><trkpt lat="39.28720666344084" lon="8.473906018604406"><ele>57.666666666666664</ele><time>2026-04-18T10:31:00Z</time></trkpt><trkpt lat="39.28711482470069" lon="8.473693485659124"><ele>54.33333333333333</ele><time>2026-04-18T10:31:01Z</time></trkpt><trkpt lat="39.287027873755534" lon="8.47347784661509"><ele>51.0</ele><time>2026-04-18T10:31:02Z</time></trkpt><trkpt lat="39.28694128518359" lon="8.473253362211505"><ele>51.0</ele><time>2026-04-18T10:31:03Z</time></trkpt><trkpt lat="39.28684906653937" lon="8.473031135525222"><ele>51.0</ele><time>2026-04-18T10:31:04Z</time></trkpt><trkpt lat="39.28675640238406" lon="8.47281532454105"><ele>51.0</ele><time>2026-04-18T10:31:05Z</time></trkpt><trkpt lat="39.28666177711093" lon="8.472594272120913"><ele>48.333333333333336</ele><time>2026-04-18T10:31:06Z</time></trkpt><trkpt lat="39.28656839474547" lon="8.472373100685228"><ele>45.66666666666667</ele><time>2026-04-18T10:31:07Z</time></trkpt><trkpt lat="39.28647682426958" lon="8.472150050960051"><ele>43.0</ele><time>2026-04-18T10:31:08Z</time></trkpt><trkpt lat="39.28638490612663" lon="8.471923597328539"><ele>43.333333333333336</ele><time>2026-04-18T10:31:09Z</time></trkpt><trkpt lat="39.286293090760175" lon="8.471697119340153"><ele>43.666666666666664</ele><time>2026-04-18T10:31:10Z</time></trkpt><trkpt lat="39.286200373752415" lon="8.471468529698871"><ele>44.0</ele><time>2026-04-18T10:31:11Z</time></trkpt><trkpt lat="39.286107300175175" lon="8.471237526489922"><ele>44.0</ele><time>2026-04-18T10:31:12Z</time></trkpt><trkpt lat="39.28601480175418" lon="8.471004766762627"><ele>44.0</ele><time>2026-04-18T10:31:13Z</time></trkpt><trkpt lat="39.28592034827299" lon="8.470773935907001"><ele>44.0</ele><time>2026-04-18T10:31:14Z</time></trkpt><trkpt lat="39.28582090185559" lon="8.47054197120902"><ele>44.0</ele><time>2026-04-18T10:31:15Z</time></trkpt><trkpt lat="39.28572023958326" lon="8.470307830485934"><ele>44.0</ele><time>2026-04-18T10:31:16Z</time></trkpt><trkpt lat="39.28561590809517" lon="8.470073042383037"><ele>44.0</ele><time>2026-04-18T10:31:17Z</time></trkpt><trkpt lat="39.28550187071986" lon="8.46984047015405"><ele>44.666666666666664</ele><time>2026-04-18T10:31:18Z</time></trkpt><trkpt lat="39.28536853411643" lon="8.469619061197804"><ele>45.333333333333336</ele><time>2026-04-18T10:31:19Z</time></trkpt><trkpt lat="39.285208825241604" lon="8.469426440628478"><ele>46.0</ele><time>2026-04-18T10:31:20Z</time></trkpt><trkpt lat="39.28503964019194" lon="8.46925720286537"><ele>43.333333333333336</ele><time>2026-04-18T10:31:21Z</time></trkpt><trkpt lat="39.28486524170684" lon="8.469106425061447"><ele>40.666666666666664</ele><time>2026-04-18T10:31:22Z</time></trkpt><trkpt lat="39.28467925042677" lon="8.468973249662723"><ele>38.0</ele><time>2026-04-18T10:31:23Z</time></trkpt><trkpt lat="39.28448044349848" lon="8.468858621085264"><ele>39.0</ele><time>2026-04-18T10:31:24Z</time></trkpt><trkpt lat="39.28427017518701" lon="8.468758605227006"><ele>40.0</ele><time>2026-04-18T10:31:25Z</time></trkpt><trkpt lat="39.284031531428624" lon="8.468663797136983"><ele>39.5</ele><time>2026-04-18T10:31:26Z</time></trkpt><trkpt lat="39.28378101754194" lon="8.468517878426379"><ele>39.0</ele><time>2026-04-18T10:31:27Z</time></trkpt><trkpt lat="39.28351440340896" lon="8.468383181725684"><ele>39.0</ele><time>2026-04-18T10:31:28Z</time></trkpt><trkpt lat="39.28322999801348" lon="8.46825685013101"><ele>39.0</ele><time>2026-04-18T10:31:29Z</time></trkpt><trkpt lat="39.282937584379724" lon="8.468092365664381"><ele>36.5</ele><time>2026-04-18T10:31:30Z</time></trkpt><trkpt lat="39.282641538553875" lon="8.467943792808741"><ele>34.0</ele><time>2026-04-18T10:31:31Z</time></trkpt><trkpt lat="39.282358084338476" lon="8.467815250694201"><ele>36.5</ele><time>2026-04-18T10:31:32Z</time></trkpt><trkpt lat="39.28209563279004" lon="8.467668105029752"><ele>39.0</ele><time>2026-04-18T10:31:33Z</time></trkpt><trkpt lat="39.281841334915114" lon="8.46753968743562"><ele>39.0</ele><time>2026-04-18T10:31:34Z</time></trkpt><trkpt lat="39.28159079415941" lon="8.46743867976782"><ele>39.0</ele><time>2026-04-18T10:31:35Z</time></trkpt><trkpt lat="39.28134442850488" lon="8.467378590770412"><ele>37.0</ele><time>2026-04-18T10:31:36Z</time></trkpt><trkpt lat="39.28109956720588" lon="8.467367742753057"><ele>35.0</ele><time>2026-04-18T10:31:37Z</time></trkpt><trkpt lat="39.28085816034487" lon="8.467393217239804"><ele>35.0</ele><time>2026-04-18T10:31:38Z</time></trkpt><trkpt lat="39.28062347213982" lon="8.467444604289323"><ele>35.0</ele><time>2026-04-18T10:31:39Z</time></trkpt><trkpt lat="39.280398584090925" lon="8.467510374073255"><ele>32.5</ele><time>2026-04-18T10:31:40Z</time></trkpt><trkpt lat="39.28017667218705" lon="8.467582667996847"><ele>30.0</ele><time>2026-04-18T10:31:41Z</time></trkpt><trkpt lat="39.279960404429744" lon="8.467651545919196"><ele>30.0</ele><time>2026-04-18T10:31:42Z</time></trkpt><trkpt lat="39.27974073173346" lon="8.467713629906362"><ele>30.0</ele><time>2026-04-18T10:31:43Z</time></trkpt><trkpt lat="39.27952472343046" lon="8.467773330683283"><ele>30.0</ele><time>2026-04-18T10:31:44Z</time></trkpt><trkpt lat="39.27931220343119" lon="8.467837925878142"><ele>30.0</ele><time>2026-04-18T10:31:45Z</time></trkpt><trkpt lat="39.27910484223492" lon="8.467898160500757"><ele>30.0</ele><time>2026-04-18T10:31:46Z</time></trkpt><trkpt lat="39.27890131824979" lon="8.467956294037448"><ele>30.0</ele><time>2026-04-18T10:31:47Z</time></trkpt><trkpt lat="39.278699171239694" lon="8.46800985336224"><ele>31.0</ele><time>2026-04-18T10:31:48Z</time></trkpt><trkpt lat="39.278496520148316" lon="8.468055428639001"><ele>32.0</ele><time>2026-04-18T10:31:49Z</time></trkpt><trkpt lat="39.27829524650813" lon="8.468088123734253"><ele>33.0</ele><time>2026-04-18T10:31:50Z</time></trkpt><trkpt lat="39.27809185170797" lon="8.46811457876419"><ele>29.0</ele><time>2026-04-18T10:31:51Z</time></trkpt><trkpt lat="39.27788757380433" lon="8.468142863056094"><ele>25.0</ele><time>2026-04-18T10:31:52Z</time></trkpt><trkpt lat="39.27768493134907" lon="8.468172198251338"><ele>21.0</ele><time>2026-04-18T10:31:53Z</time></trkpt><trkpt lat="39.27748380301181" lon="8.46819785075735"><ele>21.0</ele><time>2026-04-18T10:31:54Z</time></trkpt><trkpt lat="39.27728607103955" lon="8.468214399755457"><ele>21.0</ele><time>2026-04-18T10:31:55Z</time></trkpt><trkpt lat="39.277088404079684" lon="8.46822127831569"><ele>21.0</ele><time>2026-04-18T10:31:56Z</time></trkpt><trkpt lat="39.27689313542395" lon="8.468216318644178"><ele>20.666666666666668</ele><time>2026-04-18T10:31:57Z</time></trkpt><trkpt lat="39.27670038715987" lon="8.46820667972396"><ele>20.333333333333336</ele><time>2026-04-18T10:31:58Z</time></trkpt><trkpt lat="39.27651108416672" lon="8.46818367232129"><ele>20.0</ele><time>2026-04-18T10:31:59Z</time></trkpt><trkpt lat="39.27632464821513" lon="8.468148705048813"><ele>20.0</ele><time>2026-04-18T10:32:00Z</time></trkpt><trkpt lat="39.27613890185938" lon="8.468110535692068"><ele>20.0</ele><time>2026-04-18T10:32:01Z</time></trkpt><trkpt lat="39.27595464222563" lon="8.468074754468857"><ele>20.0</ele><time>2026-04-18T10:32:02Z</time></trkpt><trkpt lat="39.27577138917007" lon="8.468043865360118"><ele>20.333333333333336</ele><time>2026-04-18T10:32:03Z</time></trkpt><trkpt lat="39.275586359355465" lon="8.468010569139402"><ele>20.666666666666668</ele><time>2026-04-18T10:32:04Z</time></trkpt><trkpt lat="39.27540365364416" lon="8.467976929064221"><ele>21.0</ele><time>2026-04-18T10:32:05Z</time></trkpt><trkpt lat="39.275222494735594" lon="8.467939501745002"><ele>21.333333333333332</ele><time>2026-04-18T10:32:06Z</time></trkpt><trkpt lat="39.27503741816221" lon="8.467904587099747"><ele>21.666666666666664</ele><time>2026-04-18T10:32:07Z</time></trkpt><trkpt lat="39.274855066896166" lon="8.467870755846045"><ele>22.0</ele><time>2026-04-18T10:32:08Z</time></trkpt><trkpt lat="39.27467138785513" lon="8.467838538218672"><ele>22.0</ele><time>2026-04-18T10:32:09Z</time></trkpt><trkpt lat="39.27448468676845" lon="8.467809429384024"><ele>22.0</ele><time>2026-04-18T10:32:10Z</time></trkpt><trkpt lat="39.27429981019646" lon="8.467776589055934"><ele>22.0</ele><time>2026-04-18T10:32:11Z</time></trkpt><trkpt lat="39.274115671594416" lon="8.4677426543813"><ele>23.333333333333332</ele><time>2026-04-18T10:32:12Z</time></trkpt><trkpt lat="39.27393377590173" lon="8.467708027988891"><ele>24.666666666666664</ele><time>2026-04-18T10:32:13Z</time></trkpt><trkpt lat="39.27374925663136" lon="8.46767459759822"><ele>26.0</ele><time>2026-04-18T10:32:14Z</time></trkpt><trkpt lat="39.273567646648424" lon="8.467644259885523"><ele>26.0</ele><time>2026-04-18T10:32:15Z</time></trkpt><trkpt lat="39.27339166022909" lon="8.467612890854216"><ele>26.0</ele><time>2026-04-18T10:32:16Z</time></trkpt><trkpt lat="39.27322473819138" lon="8.467581079690392"><ele>26.0</ele><time>2026-04-18T10:32:17Z</time></trkpt><trkpt lat="39.27306835038798" lon="8.467553264514956"><ele>26.0</ele><time>2026-04-18T10:32:18Z</time></trkpt><trkpt lat="39.27292185580669" lon="8.467526369201948"><ele>26.0</ele><time>2026-04-18T10:32:19Z</time></trkpt><trkpt lat="39.2727861387375" lon="8.46750071011146"><ele>26.0</ele><time>2026-04-18T10:32:20Z</time></trkpt><trkpt lat="39.27265867051213" lon="8.467475995710855"><ele>26.0</ele><time>2026-04-18T10:32:21Z</time></trkpt><trkpt lat="39.272543567626265" lon="8.46744484496692"><ele>25.999999999999996</ele><time>2026-04-18T10:32:22Z</time></trkpt><trkpt lat="39.27244428066818" lon="8.467397953056205"><ele>26.0</ele><time>2026-04-18T10:32:23Z</time></trkpt><trkpt lat="39.27237363822053" lon="8.467337458785293"><ele>26.0</ele><time>2026-04-18T10:32:24Z</time></trkpt><trkpt lat="39.272310780750466" lon="8.467269130742704"><ele>26.0</ele><time>2026-04-18T10:32:25Z</time></trkpt><trkpt lat="39.27226339341564" lon="8.467200882677679"><ele>25.999999999999996</ele><time>2026-04-18T10:32:26Z</time></trkpt><trkpt lat="39.272202975915306" lon="8.467151428372967"><ele>26.0</ele><time>2026-04-18T10:32:27Z</time></trkpt><trkpt lat="39.272126747146004" lon="8.467141783144234"><ele>26.200000000000003</ele><time>2026-04-18T10:32:28Z</time></trkpt><trkpt lat="39.27204578322112" lon="8.46717113828184"><ele>26.400000000000002</ele><time>2026-04-18T10:32:29Z</time></trkpt><trkpt lat="39.27196663471904" lon="8.467220243539453"><ele>26.6</ele><time>2026-04-18T10:32:30Z</time></trkpt><trkpt lat="39.27188024351036" lon="8.467258287214886"><ele>26.8</ele><time>2026-04-18T10:32:31Z</time></trkpt><trkpt lat="39.271787663311564" lon="8.467251652202627"><ele>27.0</ele><time>2026-04-18T10:32:32Z</time></trkpt><trkpt lat="39.27169520588258" lon="8.467209243948691"><ele>27.0</ele><time>2026-04-18T10:32:33Z</time></trkpt><trkpt lat="39.27159870407834" lon="8.46715586500556"><ele>27.0</ele><time>2026-04-18T10:32:34Z</time></trkpt><trkpt lat="39.271493297042355" lon="8.467102740211645"><ele>27.0</ele><time>2026-04-18T10:32:35Z</time></trkpt><trkpt lat="39.271379264115815" lon="8.467046943844876"><ele>27.0</ele><time>2026-04-18T10:32:36Z</time></trkpt><trkpt lat="39.27126158674119" lon="8.466986712618933"><ele>27.5</ele><time>2026-04-18T10:32:37Z</time></trkpt><trkpt lat="39.27114278411456" lon="8.466914425171195"><ele>28.0</ele><time>2026-04-18T10:32:38Z</time></trkpt><trkpt lat="39.27102232364314" lon="8.466827261496977"><ele>28.5</ele><time>2026-04-18T10:32:39Z</time></trkpt><trkpt lat="39.27090051953158" lon="8.466734671524952"><ele>29.0</ele><time>2026-04-18T10:32:40Z</time></trkpt><trkpt lat="39.27078099028893" lon="8.46663722315018"><ele>29.0</ele><time>2026-04-18T10:32:41Z</time></trkpt><trkpt lat="39.270659352763914" lon="8.466528374240449"><ele>29.0</ele><time>2026-04-18T10:32:42Z</time></trkpt><trkpt lat="39.27053599257068" lon="8.4664085611054"><ele>29.0</ele><time>2026-04-18T10:32:43Z</time></trkpt><trkpt lat="39.270411541116125" lon="8.466281919873587"><ele>28.666666666666664</ele><time>2026-04-18T10:32:44Z</time></trkpt><trkpt lat="39.270291016373925" lon="8.466139909103479"><ele>28.333333333333336</ele><time>2026-04-18T10:32:45Z</time></trkpt><trkpt lat="39.27016463643428" lon="8.465992081182344"><ele>28.0</ele><time>2026-04-18T10:32:46Z</time></trkpt><trkpt lat="39.27003821595668" lon="8.465844613769187"><ele>28.0</ele><time>2026-04-18T10:32:47Z</time></trkpt><trkpt lat="39.26990456810387" lon="8.465694651914324"><ele>28.0</ele><time>2026-04-18T10:32:48Z</time></trkpt><trkpt lat="39.269768144784166" lon="8.465546370730463"><ele>28.0</ele><time>2026-04-18T10:32:49Z</time></trkpt><trkpt lat="39.269630071193944" lon="8.465391973268177"><ele>26.666666666666668</ele><time>2026-04-18T10:32:50Z</time></trkpt><trkpt lat="39.269491848021595" lon="8.465229267009994"><ele>25.333333333333336</ele><time>2026-04-18T10:32:51Z</time></trkpt><trkpt lat="39.26935581433154" lon="8.465065275842951"><ele>24.0</ele><time>2026-04-18T10:32:52Z</time></trkpt><trkpt lat="39.269215279481735" lon="8.464901583394958"><ele>24.0</ele><time>2026-04-18T10:32:53Z</time></trkpt><trkpt lat="39.26907184270549" lon="8.464740615128932"><ele>24.0</ele><time>2026-04-18T10:32:54Z</time></trkpt><trkpt lat="39.26892672843012" lon="8.46458238642995"><ele>24.0</ele><time>2026-04-18T10:32:55Z</time></trkpt><trkpt lat="39.26878590146346" lon="8.464426212120992"><ele>23.333333333333332</ele><time>2026-04-18T10:32:56Z</time></trkpt><trkpt lat="39.2686461196141" lon="8.464268160754546"><ele>22.666666666666664</ele><time>2026-04-18T10:32:57Z</time></trkpt><trkpt lat="39.26850675345954" lon="8.464104588458524"><ele>22.0</ele><time>2026-04-18T10:32:58Z</time></trkpt><trkpt lat="39.268366536433206" lon="8.463936145334952"><ele>21.333333333333332</ele><time>2026-04-18T10:32:59Z</time></trkpt><trkpt lat="39.26822286916143" lon="8.463765452731383"><ele>20.666666666666668</ele><time>2026-04-18T10:33:00Z</time></trkpt><trkpt lat="39.268077717111524" lon="8.4635990807881"><ele>20.0</ele><time>2026-04-18T10:33:01Z</time></trkpt><trkpt lat="39.267927614082794" lon="8.46342893067344"><ele>22.0</ele><time>2026-04-18T10:33:02Z</time></trkpt><trkpt lat="39.267776364081506" lon="8.463252566387679"><ele>24.0</ele><time>2026-04-18T10:33:03Z</time></trkpt><trkpt lat="39.26762444168776" lon="8.463073760821839"><ele>26.0</ele><time>2026-04-18T10:33:04Z</time></trkpt><trkpt lat="39.26747267121163" lon="8.462893724687184"><ele>26.0</ele><time>2026-04-18T10:33:05Z</time></trkpt><trkpt lat="39.26731336551032" lon="8.462713602831949"><ele>26.0</ele><time>2026-04-18T10:33:06Z</time></trkpt><trkpt lat="39.26715182864972" lon="8.462535711831189"><ele>26.0</ele><time>2026-04-18T10:33:07Z</time></trkpt><trkpt lat="39.26698873373852" lon="8.46235195059373"><ele>26.0</ele><time>2026-04-18T10:33:08Z</time></trkpt><trkpt lat="39.26682713593979" lon="8.462164955536911"><ele>26.0</ele><time>2026-04-18T10:33:09Z</time></trkpt><trkpt lat="39.26666516785027" lon="8.461974474984176"><ele>26.0</ele><time>2026-04-18T10:33:10Z</time></trkpt><trkpt lat="39.26649198021389" lon="8.461773781867135"><ele>25.0</ele><time>2026-04-18T10:33:11Z</time></trkpt><trkpt lat="39.26631839143701" lon="8.461586829372672"><ele>24.0</ele><time>2026-04-18T10:33:12Z</time></trkpt><trkpt lat="39.26613988262145" lon="8.461410709133064"><ele>23.0</ele><time>2026-04-18T10:33:13Z</time></trkpt><trkpt lat="39.26595762131969" lon="8.461249265610222"><ele>22.0</ele><time>2026-04-18T10:33:14Z</time></trkpt><trkpt lat="39.265771701205324" lon="8.46109669471249"><ele>21.0</ele><time>2026-04-18T10:33:15Z</time></trkpt><trkpt lat="39.265582974059946" lon="8.460948554388615"><ele>21.0</ele><time>2026-04-18T10:33:16Z</time></trkpt><trkpt lat="39.26539433794114" lon="8.460796499817661"><ele>21.0</ele><time>2026-04-18T10:33:17Z</time></trkpt><trkpt lat="39.265210927240396" lon="8.460647375613332"><ele>21.0</ele><time>2026-04-18T10:33:18Z</time></trkpt><trkpt lat="39.265031532436765" lon="8.460502204192164"><ele>21.666666666666668</ele><time>2026-04-18T10:33:19Z</time></trkpt><trkpt lat="39.26485010141231" lon="8.460358612843843"><ele>22.333333333333336</ele><time>2026-04-18T10:33:20Z</time></trkpt><trkpt lat="39.26466650085524" lon="8.460223264102554"><ele>23.0</ele><time>2026-04-18T10:33:21Z</time></trkpt><trkpt lat="39.26448021785797" lon="8.460108777460524"><ele>23.333333333333336</ele><time>2026-04-18T10:33:22Z</time></trkpt><trkpt lat="39.26428444559767" lon="8.460009074366502"><ele>23.666666666666668</ele><time>2026-04-18T10:33:23Z</time></trkpt><trkpt lat="39.2640929605384" lon="8.45992773973653"><ele>24.0</ele><time>2026-04-18T10:33:24Z</time></trkpt><trkpt lat="39.263901322924596" lon="8.459868090907708"><ele>25.0</ele><time>2026-04-18T10:33:25Z</time></trkpt><trkpt lat="39.26371437333469" lon="8.459835076717752"><ele>26.0</ele><time>2026-04-18T10:33:26Z</time></trkpt><trkpt lat="39.263514011665485" lon="8.459802441618708"><ele>27.0</ele><time>2026-04-18T10:33:27Z</time></trkpt><trkpt lat="39.26329454386192" lon="8.459794671331073"><ele>27.5</ele><time>2026-04-18T10:33:28Z</time></trkpt><trkpt lat="39.26304768643852" lon="8.459837457075974"><ele>28.0</ele><time>2026-04-18T10:33:29Z</time></trkpt><trkpt lat="39.262834286325365" lon="8.459865783723664"><ele>28.0</ele><time>2026-04-18T10:33:30Z</time></trkpt><trkpt lat="39.26262031605583" lon="8.459909316470275"><ele>28.0</ele><time>2026-04-18T10:33:31Z</time></trkpt><trkpt lat="39.26240393667242" lon="8.459953519832546"><ele>28.0</ele><time>2026-04-18T10:33:32Z</time></trkpt><trkpt lat="39.26218575428629" lon="8.459973853618834"><ele>29.0</ele><time>2026-04-18T10:33:33Z</time></trkpt><trkpt lat="39.261971132033885" lon="8.460013214901583"><ele>30.0</ele><time>2026-04-18T10:33:34Z</time></trkpt><trkpt lat="39.26175890607163" lon="8.460052135233829"><ele>31.0</ele><time>2026-04-18T10:33:35Z</time></trkpt><trkpt lat="39.26155240525524" lon="8.460110750167436"><ele>32.333333333333336</ele><time>2026-04-18T10:33:36Z</time></trkpt><trkpt lat="39.26134523853849" lon="8.46014506554867"><ele>33.666666666666664</ele><time>2026-04-18T10:33:37Z</time></trkpt><trkpt lat="39.26114156917928" lon="8.460179605545706"><ele>35.0</ele><time>2026-04-18T10:33:38Z</time></trkpt><trkpt lat="39.26093845782927" lon="8.460215367471957"><ele>35.0</ele><time>2026-04-18T10:33:39Z</time></trkpt><trkpt lat="39.26073735535469" lon="8.46025457011483"><ele>35.0</ele><time>2026-04-18T10:33:40Z</time></trkpt><trkpt lat="39.260536768347755" lon="8.460294885539573"><ele>35.0</ele><time>2026-04-18T10:33:41Z</time></trkpt><trkpt lat="39.26033723734244" lon="8.460336159201873"><ele>37.0</ele><time>2026-04-18T10:33:42Z</time></trkpt><trkpt lat="39.26013616097806" lon="8.4603528600776"><ele>39.0</ele><time>2026-04-18T10:33:43Z</time></trkpt><trkpt lat="39.25993828132902" lon="8.46038909976282"><ele>41.0</ele><time>2026-04-18T10:33:44Z</time></trkpt><trkpt lat="39.25974497082178" lon="8.460443675013115"><ele>38.666666666666664</ele><time>2026-04-18T10:33:45Z</time></trkpt><trkpt lat="39.259548533427825" lon="8.460470591154355"><ele>36.333333333333336</ele><time>2026-04-18T10:33:46Z</time></trkpt><trkpt lat="39.25935753148571" lon="8.460481261076836"><ele>34.0</ele><time>2026-04-18T10:33:47Z</time></trkpt><trkpt lat="39.259180405337375" lon="8.460471335372914"><ele>34.0</ele><time>2026-04-18T10:33:48Z</time></trkpt><trkpt lat="39.25902261901442" lon="8.460476351974652"><ele>34.0</ele><time>2026-04-18T10:33:49Z</time></trkpt><trkpt lat="39.25888826147262" lon="8.460456136174399"><ele>34.0</ele><time>2026-04-18T10:33:50Z</time></trkpt><trkpt lat="39.25878529421533" lon="8.460426882560412"><ele>34.0</ele><time>2026-04-18T10:33:51Z</time></trkpt><trkpt lat="39.258693763917016" lon="8.460389458635586"><ele>35.6</ele><time>2026-04-18T10:33:52Z</time></trkpt><trkpt lat="39.25859976963638" lon="8.460384378507694"><ele>37.2</ele><time>2026-04-18T10:33:53Z</time></trkpt><trkpt lat="39.2585030409593" lon="8.460223308395909"><ele>38.800000000000004</ele><time>2026-04-18T10:33:55Z</time></trkpt><trkpt lat="39.25843456954547" lon="8.460149193793148"><ele>40.4</ele><time>2026-04-18T10:33:56Z</time></trkpt><trkpt lat="39.25834966868031" lon="8.460118461622026"><ele>42.0</ele><time>2026-04-18T10:33:57Z</time></trkpt><trkpt lat="39.25825290585941" lon="8.46013333343337"><ele>42.0</ele><time>2026-04-18T10:33:58Z</time></trkpt><trkpt lat="39.2581496066049" lon="8.460165603927457"><ele>42.0</ele><time>2026-04-18T10:33:59Z</time></trkpt><trkpt lat="39.25803768341143" lon="8.460161473035315"><ele>42.0</ele><time>2026-04-18T10:34:00Z</time></trkpt><trkpt lat="39.2579394290492" lon="8.460079667505493"><ele>42.0</ele><time>2026-04-18T10:34:01Z</time></trkpt><trkpt lat="39.257826653286095" lon="8.46002080719175"><ele>41.0</ele><time>2026-04-18T10:34:02Z</time></trkpt><trkpt lat="39.25772000642328" lon="8.45993585455014"><ele>40.0</ele><time>2026-04-18T10:34:03Z</time></trkpt><trkpt lat="39.257608003344174" lon="8.459855449398246"><ele>39.0</ele><time>2026-04-18T10:34:04Z</time></trkpt><trkpt lat="39.25749287330726" lon="8.459778441161589"><ele>38.0</ele><time>2026-04-18T10:34:05Z</time></trkpt><trkpt lat="39.257378504731186" lon="8.45970005477487"><ele>38.5</ele><time>2026-04-18T10:34:06Z</time></trkpt><trkpt lat="39.2572610224457" lon="8.459622708860154"><ele>39.0</ele><time>2026-04-18T10:34:07Z</time></trkpt><trkpt lat="39.25714106648883" lon="8.459545333057862"><ele>39.5</ele><time>2026-04-18T10:34:08Z</time></trkpt><trkpt lat="39.257018889657296" lon="8.459467982335113"><ele>40.0</ele><time>2026-04-18T10:34:09Z</time></trkpt><trkpt lat="39.25689891439069" lon="8.459390786800732"><ele>40.75</ele><time>2026-04-18T10:34:10Z</time></trkpt><trkpt lat="39.25677939654448" lon="8.459310702993978"><ele>41.5</ele><time>2026-04-18T10:34:11Z</time></trkpt><trkpt lat="39.25666019112123" lon="8.459230498925798"><ele>42.25</ele><time>2026-04-18T10:34:12Z</time></trkpt><trkpt lat="39.25653654502253" lon="8.459152181238052"><ele>43.0</ele><time>2026-04-18T10:34:13Z</time></trkpt><trkpt lat="39.25641102081243" lon="8.459071938700708"><ele>43.0</ele><time>2026-04-18T10:34:14Z</time></trkpt><trkpt lat="39.25628285447971" lon="8.458989169637821"><ele>43.0</ele><time>2026-04-18T10:34:15Z</time></trkpt><trkpt lat="39.25615170897169" lon="8.458908442196144"><ele>43.0</ele><time>2026-04-18T10:34:16Z</time></trkpt><trkpt lat="39.25601462259767" lon="8.458833889786346"><ele>43.0</ele><time>2026-04-18T10:34:17Z</time></trkpt><trkpt lat="39.255869805982094" lon="8.458765362607954"><ele>43.66666666666667</ele><time>2026-04-18T10:34:18Z</time></trkpt><trkpt lat="39.25571501836481" lon="8.458702747965628"><ele>44.333333333333336</ele><time>2026-04-18T10:34:19Z</time></trkpt><trkpt lat="39.255553289412866" lon="8.45865310176801"><ele>45.0</ele><time>2026-04-18T10:34:20Z</time></trkpt><trkpt lat="39.2553824088549" lon="8.458634804131375"><ele>45.666666666666664</ele><time>2026-04-18T10:34:21Z</time></trkpt><trkpt lat="39.2552185965959" lon="8.458621490655919"><ele>46.33333333333333</ele><time>2026-04-18T10:34:22Z</time></trkpt><trkpt lat="39.2550618491354" lon="8.45861544591657"><ele>47.0</ele><time>2026-04-18T10:34:23Z</time></trkpt><trkpt lat="39.254918294035036" lon="8.45860080635016"><ele>48.25</ele><time>2026-04-18T10:34:24Z</time></trkpt><trkpt lat="39.25478459534841" lon="8.458561907806894"><ele>49.5</ele><time>2026-04-18T10:34:25Z</time></trkpt><trkpt lat="39.25466608437322" lon="8.45848730040459"><ele>50.75</ele><time>2026-04-18T10:34:26Z</time></trkpt><trkpt lat="39.254566395826" lon="8.458370553705572"><ele>52.0</ele><time>2026-04-18T10:34:27Z</time></trkpt><trkpt lat="39.254488384101265" lon="8.458223662966502"><ele>52.0</ele><time>2026-04-18T10:34:28Z</time></trkpt><trkpt lat="39.25440820209544" lon="8.458081556589034"><ele>52.0</ele><time>2026-04-18T10:34:29Z</time></trkpt><trkpt lat="39.25440887733599" lon="8.45786182197617"><ele>52.0</ele><time>2026-04-18T10:34:30Z</time></trkpt><trkpt lat="39.254401446626645" lon="8.457655630260343"><ele>53.666666666666664</ele><time>2026-04-18T10:34:31Z</time></trkpt><trkpt lat="39.254397854600185" lon="8.457436701935471"><ele>55.33333333333333</ele><time>2026-04-18T10:34:32Z</time></trkpt><trkpt lat="39.254384432111124" lon="8.457211931444355"><ele>57.0</ele><time>2026-04-18T10:34:33Z</time></trkpt><trkpt lat="39.254363312193924" lon="8.456988416832134"><ele>58.33333333333333</ele><time>2026-04-18T10:34:34Z</time></trkpt><trkpt lat="39.25433723519788" lon="8.456754678044305"><ele>59.666666666666664</ele><time>2026-04-18T10:34:35Z</time></trkpt><trkpt lat="39.25431202144035" lon="8.456515191338571"><ele>61.0</ele><time>2026-04-18T10:34:36Z</time></trkpt><trkpt lat="39.25427493275638" lon="8.456274123463423"><ele>61.0</ele><time>2026-04-18T10:34:37Z</time></trkpt><trkpt lat="39.25422817439669" lon="8.456037221273295"><ele>61.0</ele><time>2026-04-18T10:34:38Z</time></trkpt><trkpt lat="39.254178719287275" lon="8.45579759394065"><ele>61.0</ele><time>2026-04-18T10:34:39Z</time></trkpt><trkpt lat="39.254128259893214" lon="8.455557841989593"><ele>60.0</ele><time>2026-04-18T10:34:40Z</time></trkpt><trkpt lat="39.25407492260489" lon="8.455315461975882"><ele>59.0</ele><time>2026-04-18T10:34:41Z</time></trkpt><trkpt lat="39.25401794773343" lon="8.45507339278057"><ele>58.0</ele><time>2026-04-18T10:34:42Z</time></trkpt><trkpt lat="39.253948645955056" lon="8.454839288549405"><ele>63.666666666666664</ele><time>2026-04-18T10:34:43Z</time></trkpt><trkpt lat="39.2538663145617" lon="8.454607330887846"><ele>69.33333333333333</ele><time>2026-04-18T10:34:44Z</time></trkpt><trkpt lat="39.25377661197895" lon="8.454375876104955"><ele>75.0</ele><time>2026-04-18T10:34:45Z</time></trkpt><trkpt lat="39.25367966069939" lon="8.454147854787806"><ele>75.0</ele><time>2026-04-18T10:34:46Z</time></trkpt><trkpt lat="39.253574778613135" lon="8.453929949161502"><ele>75.0</ele><time>2026-04-18T10:34:47Z</time></trkpt><trkpt lat="39.25345819819187" lon="8.453713670121004"><ele>75.0</ele><time>2026-04-18T10:34:48Z</time></trkpt><trkpt lat="39.25333047024209" lon="8.453498106307649"><ele>75.33333333333333</ele><time>2026-04-18T10:34:49Z</time></trkpt><trkpt lat="39.25319569143208" lon="8.453286675695045"><ele>75.66666666666666</ele><time>2026-04-18T10:34:50Z</time></trkpt><trkpt lat="39.253052769044" lon="8.453080966122318"><ele>76.0</ele><time>2026-04-18T10:34:51Z</time></trkpt><trkpt lat="39.252906438695724" lon="8.45287892908677"><ele>74.66666666666666</ele><time>2026-04-18T10:34:52Z</time></trkpt><trkpt lat="39.25276223618349" lon="8.452678150880914"><ele>73.33333333333333</ele><time>2026-04-18T10:34:53Z</time></trkpt><trkpt lat="39.25262044219978" lon="8.45247780012489"><ele>72.0</ele><time>2026-04-18T10:34:54Z</time></trkpt><trkpt lat="39.25248380604941" lon="8.452270768258288"><ele>72.0</ele><time>2026-04-18T10:34:55Z</time></trkpt><trkpt lat="39.25236081634665" lon="8.452051965419853"><ele>72.0</ele><time>2026-04-18T10:34:56Z</time></trkpt><trkpt lat="39.25225071626667" lon="8.451820776527645"><ele>72.0</ele><time>2026-04-18T10:34:57Z</time></trkpt><trkpt lat="39.252157849415376" lon="8.451575596150603"><ele>74.33333333333333</ele><time>2026-04-18T10:34:58Z</time></trkpt><trkpt lat="39.25208335307552" lon="8.45131500039554"><ele>76.66666666666666</ele><time>2026-04-18T10:34:59Z</time></trkpt><trkpt lat="39.25201946888245" lon="8.451049593715476"><ele>79.0</ele><time>2026-04-18T10:35:00Z</time></trkpt><trkpt lat="39.251959414189315" lon="8.450782475570175"><ele>79.33333333333333</ele><time>2026-04-18T10:35:01Z</time></trkpt><trkpt lat="39.251918156299276" lon="8.45051421638504"><ele>79.66666666666667</ele><time>2026-04-18T10:35:02Z</time></trkpt><trkpt lat="39.251903578965276" lon="8.450241793198073"><ele>80.0</ele><time>2026-04-18T10:35:03Z</time></trkpt><trkpt lat="39.251900793424575" lon="8.449964032336812"><ele>81.66666666666667</ele><time>2026-04-18T10:35:04Z</time></trkpt><trkpt lat="39.251908169079684" lon="8.449685679067786"><ele>83.33333333333333</ele><time>2026-04-18T10:35:05Z</time></trkpt><trkpt lat="39.25192822900475" lon="8.449405949300175"><ele>85.0</ele><time>2026-04-18T10:35:06Z</time></trkpt><trkpt lat="39.25195049606608" lon="8.449126380369819"><ele>86.66666666666666</ele><time>2026-04-18T10:35:07Z</time></trkpt><trkpt lat="39.25196967445467" lon="8.448842318283404"><ele>88.33333333333333</ele><time>2026-04-18T10:35:08Z</time></trkpt><trkpt lat="39.25198551211241" lon="8.448555009635342"><ele>90.0</ele><time>2026-04-18T10:35:09Z</time></trkpt><trkpt lat="39.25200335223531" lon="8.44826708518354"><ele>90.0</ele><time>2026-04-18T10:35:10Z</time></trkpt><trkpt lat="39.25202069849093" lon="8.447980879641753"><ele>90.0</ele><time>2026-04-18T10:35:11Z</time></trkpt><trkpt lat="39.252038111721824" lon="8.447694467711363"><ele>90.0</ele><time>2026-04-18T10:35:12Z</time></trkpt><trkpt lat="39.252057431055114" lon="8.447410059376585"><ele>90.0</ele><time>2026-04-18T10:35:13Z</time></trkpt><trkpt lat="39.25207690742894" lon="8.447131255223512"><ele>90.0</ele><time>2026-04-18T10:35:14Z</time></trkpt><trkpt lat="39.25209593335274" lon="8.446855412247032"><ele>90.0</ele><time>2026-04-18T10:35:15Z</time></trkpt><trkpt lat="39.252110989305606" lon="8.446585948001418"><ele>90.0</ele><time>2026-04-18T10:35:16Z</time></trkpt><trkpt lat="39.25212548507633" lon="8.446317636275703"><ele>90.0</ele><time>2026-04-18T10:35:17Z</time></trkpt><trkpt lat="39.25214122330079" lon="8.446051847616953"><ele>90.0</ele><time>2026-04-18T10:35:18Z</time></trkpt><trkpt lat="39.25215717750469" lon="8.445779761397784"><ele>90.66666666666667</ele><time>2026-04-18T10:35:19Z</time></trkpt><trkpt lat="39.252175447071316" lon="8.445504731342794"><ele>91.33333333333334</ele><time>2026-04-18T10:35:20Z</time></trkpt><trkpt lat="39.25219914115571" lon="8.445233537395282"><ele>92.0</ele><time>2026-04-18T10:35:21Z</time></trkpt><trkpt lat="39.25222117404482" lon="8.444969133285364"><ele>92.66666666666667</ele><time>2026-04-18T10:35:22Z</time></trkpt><trkpt lat="39.25223593636568" lon="8.444706157353233"><ele>93.33333333333333</ele><time>2026-04-18T10:35:23Z</time></trkpt><trkpt lat="39.25224969960184" lon="8.444442109866126"><ele>94.0</ele><time>2026-04-18T10:35:24Z</time></trkpt><trkpt lat="39.25226484862308" lon="8.444172998703406"><ele>94.66666666666666</ele><time>2026-04-18T10:35:25Z</time></trkpt><trkpt lat="39.25227561395565" lon="8.443900211193496"><ele>95.33333333333333</ele><time>2026-04-18T10:35:26Z</time></trkpt><trkpt lat="39.252288367376934" lon="8.44361998823465"><ele>96.0</ele><time>2026-04-18T10:35:27Z</time></trkpt><trkpt lat="39.25230658607365" lon="8.443336691361663"><ele>96.33333333333334</ele><time>2026-04-18T10:35:28Z</time></trkpt><trkpt lat="39.252324981136574" lon="8.443055860148194"><ele>96.66666666666667</ele><time>2026-04-18T10:35:29Z</time></trkpt><trkpt lat="39.25234624393008" lon="8.442784691950722"><ele>97.0</ele><time>2026-04-18T10:35:30Z</time></trkpt><trkpt lat="39.25238439004018" lon="8.442521600580298"><ele>97.0</ele><time>2026-04-18T10:35:31Z</time></trkpt><trkpt lat="39.25244987157415" lon="8.442264131277401"><ele>97.0</ele><time>2026-04-18T10:35:32Z</time></trkpt><trkpt lat="39.25254034288271" lon="8.442008040610322"><ele>97.0</ele><time>2026-04-18T10:35:33Z</time></trkpt><trkpt lat="39.25263729286828" lon="8.441754049014541"><ele>98.0</ele><time>2026-04-18T10:35:34Z</time></trkpt><trkpt lat="39.25273459318912" lon="8.441498842621296"><ele>99.0</ele><time>2026-04-18T10:35:35Z</time></trkpt><trkpt lat="39.25283212879504" lon="8.441244774487082"><ele>100.0</ele><time>2026-04-18T10:35:36Z</time></trkpt><trkpt lat="39.25292772791192" lon="8.440989810434058"><ele>100.66666666666667</ele><time>2026-04-18T10:35:37Z</time></trkpt><trkpt lat="39.25302400601519" lon="8.440731222791332"><ele>101.33333333333334</ele><time>2026-04-18T10:35:38Z</time></trkpt><trkpt lat="39.25312085918774" lon="8.44047272867093"><ele>102.0</ele><time>2026-04-18T10:35:39Z</time></trkpt><trkpt lat="39.25321643242828" lon="8.44021649469378"><ele>102.0</ele><time>2026-04-18T10:35:40Z</time></trkpt><trkpt lat="39.25331004908619" lon="8.43995819984668"><ele>102.0</ele><time>2026-04-18T10:35:41Z</time></trkpt><trkpt lat="39.253401725938886" lon="8.439700717789274"><ele>102.0</ele><time>2026-04-18T10:35:42Z</time></trkpt><trkpt lat="39.25349695406563" lon="8.439442901211725"><ele>102.33333333333334</ele><time>2026-04-18T10:35:43Z</time></trkpt><trkpt lat="39.253594016120715" lon="8.439181937266069"><ele>102.66666666666667</ele><time>2026-04-18T10:35:44Z</time></trkpt><trkpt lat="39.25368960429774" lon="8.438919437612302"><ele>103.0</ele><time>2026-04-18T10:35:45Z</time></trkpt><trkpt lat="39.25378420192469" lon="8.438658298097371"><ele>103.33333333333334</ele><time>2026-04-18T10:35:46Z</time></trkpt><trkpt lat="39.253880442014804" lon="8.43840321658213"><ele>103.66666666666666</ele><time>2026-04-18T10:35:47Z</time></trkpt><trkpt lat="39.25397508840558" lon="8.438155644995124"><ele>104.0</ele><time>2026-04-18T10:35:48Z</time></trkpt><trkpt lat="39.2540632988672" lon="8.43790874321562"><ele>105.0</ele><time>2026-04-18T10:35:49Z</time></trkpt><trkpt lat="39.254145007281636" lon="8.437660062971243"><ele>106.0</ele><time>2026-04-18T10:35:50Z</time></trkpt><trkpt lat="39.25421160561906" lon="8.437407848039529"><ele>107.0</ele><time>2026-04-18T10:35:51Z</time></trkpt><trkpt lat="39.25425953695535" lon="8.437148089217049"><ele>107.66666666666666</ele><time>2026-04-18T10:35:52Z</time></trkpt><trkpt lat="39.25433524612391" lon="8.436903513158553"><ele>108.33333333333334</ele><time>2026-04-18T10:35:53Z</time></trkpt><trkpt lat="39.25439398128162" lon="8.436654349477477"><ele>109.0</ele><time>2026-04-18T10:35:54Z</time></trkpt><trkpt lat="39.2542986306207" lon="8.436345120486795"><ele>109.66666666666667</ele><time>2026-04-18T10:35:55Z</time></trkpt><trkpt lat="39.25429763750964" lon="8.43607676560471"><ele>110.33333333333334</ele><time>2026-04-18T10:35:56Z</time></trkpt><trkpt lat="39.254298143826865" lon="8.435811685547296"><ele>111.0</ele><time>2026-04-18T10:35:57Z</time></trkpt><trkpt lat="39.25429583961769" lon="8.43554752253012"><ele>111.33333333333334</ele><time>2026-04-18T10:35:58Z</time></trkpt><trkpt lat="39.25429030802227" lon="8.435288209753265"><ele>111.66666666666667</ele><time>2026-04-18T10:35:59Z</time></trkpt><trkpt lat="39.25428495296901" lon="8.435035884111933"><ele>112.0</ele><time>2026-04-18T10:36:00Z</time></trkpt><trkpt lat="39.2542842597011" lon="8.434799743805886"><ele>112.33333333333334</ele><time>2026-04-18T10:36:01Z</time></trkpt><trkpt lat="39.254287217824604" lon="8.434577226352982"><ele>112.66666666666666</ele><time>2026-04-18T10:36:02Z</time></trkpt><trkpt lat="39.25428902447172" lon="8.434357530515735"><ele>113.0</ele><time>2026-04-18T10:36:03Z</time></trkpt><trkpt lat="39.254286821096265" lon="8.434146362047622"><ele>113.0</ele><time>2026-04-18T10:36:04Z</time></trkpt><trkpt lat="39.25428667226109" lon="8.43394704269475"><ele>113.0</ele><time>2026-04-18T10:36:05Z</time></trkpt><trkpt lat="39.254288442923155" lon="8.433766565731583"><ele>113.0</ele><time>2026-04-18T10:36:06Z</time></trkpt><trkpt lat="39.25429192208194" lon="8.433626109837006"><ele>113.0</ele><time>2026-04-18T10:36:07Z</time></trkpt><trkpt lat="39.25429684684279" lon="8.43354266118446"><ele>113.2</ele><time>2026-04-18T10:36:08Z</time></trkpt><trkpt lat="39.25436433312746" lon="8.433487647182142"><ele>113.4</ele><time>2026-04-18T10:36:10Z</time></trkpt><trkpt lat="39.25443374965004" lon="8.433471519698763"><ele>113.60000000000001</ele><time>2026-04-18T10:36:11Z</time></trkpt><trkpt lat="39.25452991594364" lon="8.433472308862099"><ele>113.80000000000001</ele><time>2026-04-18T10:36:12Z</time></trkpt><trkpt lat="39.254642385801965" lon="8.433487952598702"><ele>114.0</ele><time>2026-04-18T10:36:13Z</time></trkpt><trkpt lat="39.25477208929074" lon="8.433493871737758"><ele>114.5</ele><time>2026-04-18T10:36:14Z</time></trkpt><trkpt lat="39.25491454822085" lon="8.433474142125656"><ele>115.0</ele><time>2026-04-18T10:36:15Z</time></trkpt><trkpt lat="39.25506325888651" lon="8.433439021952346"><ele>115.5</ele><time>2026-04-18T10:36:16Z</time></trkpt><trkpt lat="39.25520892020752" lon="8.433402505463919"><ele>116.0</ele><time>2026-04-18T10:36:17Z</time></trkpt><trkpt lat="39.255362352044656" lon="8.433367180819937"><ele>116.0</ele><time>2026-04-18T10:36:18Z</time></trkpt><trkpt lat="39.255522014902155" lon="8.433331934755858"><ele>116.0</ele><time>2026-04-18T10:36:19Z</time></trkpt><trkpt lat="39.255687381888904" lon="8.433297596094805"><ele>116.0</ele><time>2026-04-18T10:36:20Z</time></trkpt><trkpt lat="39.25585752980826" lon="8.433262087240857"><ele>117.0</ele><time>2026-04-18T10:36:21Z</time></trkpt><trkpt lat="39.25602635271773" lon="8.433226536032636"><ele>118.0</ele><time>2026-04-18T10:36:22Z</time></trkpt><trkpt lat="39.25619968082898" lon="8.433190607230369"><ele>119.0</ele><time>2026-04-18T10:36:23Z</time></trkpt><trkpt lat="39.25637386376183" lon="8.433154578859169"><ele>120.33333333333333</ele><time>2026-04-18T10:36:24Z</time></trkpt><trkpt lat="39.25654720802213" lon="8.433129275497755"><ele>121.66666666666666</ele><time>2026-04-18T10:36:25Z</time></trkpt><trkpt lat="39.25672449016903" lon="8.433083324039178"><ele>123.0</ele><time>2026-04-18T10:36:26Z</time></trkpt><trkpt lat="39.25689500106833" lon="8.43305038374953"><ele>123.0</ele><time>2026-04-18T10:36:27Z</time></trkpt><trkpt lat="39.25706293415224" lon="8.433019560730033"><ele>123.0</ele><time>2026-04-18T10:36:28Z</time></trkpt><trkpt lat="39.25722604873113" lon="8.432984678995183"><ele>123.0</ele><time>2026-04-18T10:36:29Z</time></trkpt><trkpt lat="39.25737638365463" lon="8.432945221036787"><ele>124.5</ele><time>2026-04-18T10:36:30Z</time></trkpt><trkpt lat="39.257515112043436" lon="8.432914924338554"><ele>126.0</ele><time>2026-04-18T10:36:31Z</time></trkpt><trkpt lat="39.25765237617664" lon="8.432891872216313"><ele>127.5</ele><time>2026-04-18T10:36:32Z</time></trkpt><trkpt lat="39.25779503181058" lon="8.432869111080366"><ele>129.0</ele><time>2026-04-18T10:36:33Z</time></trkpt><trkpt lat="39.25794109517713" lon="8.432837866186402"><ele>129.0</ele><time>2026-04-18T10:36:34Z</time></trkpt><trkpt lat="39.258091011907034" lon="8.432800656980403"><ele>129.0</ele><time>2026-04-18T10:36:35Z</time></trkpt><trkpt lat="39.2582450771721" lon="8.432766899403884"><ele>129.0</ele><time>2026-04-18T10:36:36Z</time></trkpt><trkpt lat="39.25840031942703" lon="8.432730097924672"><ele>130.0</ele><time>2026-04-18T10:36:37Z</time></trkpt><trkpt lat="39.25854956727885" lon="8.432682560360448"><ele>131.0</ele><time>2026-04-18T10:36:38Z</time></trkpt><trkpt lat="39.25868746624628" lon="8.432595720819702"><ele>132.0</ele><time>2026-04-18T10:36:39Z</time></trkpt><trkpt lat="39.25882300779179" lon="8.432498373783803"><ele>132.0</ele><time>2026-04-18T10:36:40Z</time></trkpt><trkpt lat="39.25895463452994" lon="8.432394419482012"><ele>132.0</ele><time>2026-04-18T10:36:41Z</time></trkpt><trkpt lat="39.25908277885233" lon="8.432290832361124"><ele>132.0</ele><time>2026-04-18T10:36:42Z</time></trkpt><trkpt lat="39.25920760338768" lon="8.432186514789272"><ele>134.5</ele><time>2026-04-18T10:36:43Z</time></trkpt><trkpt lat="39.25932681050768" lon="8.432091687099131"><ele>137.0</ele><time>2026-04-18T10:36:44Z</time></trkpt><trkpt lat="39.25943910304584" lon="8.432002390681923"><ele>139.5</ele><time>2026-04-18T10:36:45Z</time></trkpt><trkpt lat="39.25954560803796" lon="8.431922294434283"><ele>142.0</ele><time>2026-04-18T10:36:46Z</time></trkpt><trkpt lat="39.25965065583018" lon="8.431856668668642"><ele>142.0</ele><time>2026-04-18T10:36:47Z</time></trkpt><trkpt lat="39.259751497789594" lon="8.431807108971395"><ele>142.0</ele><time>2026-04-18T10:36:48Z</time></trkpt><trkpt lat="39.25984181552107" lon="8.431768417125411"><ele>142.0</ele><time>2026-04-18T10:36:49Z</time></trkpt><trkpt lat="39.25992248914195" lon="8.431734488476508"><ele>142.0</ele><time>2026-04-18T10:36:50Z</time></trkpt><trkpt lat="39.25999104381171" lon="8.431703371549164"><ele>142.0</ele><time>2026-04-18T10:36:51Z</time></trkpt><trkpt lat="39.26009393244874" lon="8.431639930690185"><ele>141.6</ele><time>2026-04-18T10:36:53Z</time></trkpt><trkpt lat="39.260181340557054" lon="8.43156260421219"><ele>141.2</ele><time>2026-04-18T10:36:55Z</time></trkpt><trkpt lat="39.260267050718305" lon="8.43148285393138"><ele>140.8</ele><time>2026-04-18T10:36:57Z</time></trkpt><trkpt lat="39.26034652032137" lon="8.431391597137814"><ele>140.4</ele><time>2026-04-18T10:36:59Z</time></trkpt><trkpt lat="39.26043555425716" lon="8.431291569346618"><ele>140.0</ele><time>2026-04-18T10:37:01Z</time></trkpt><trkpt lat="39.26047314647033" lon="8.431223772893032"><ele>140.0</ele><time>2026-04-18T10:37:02Z</time></trkpt><trkpt lat="39.26052633764719" lon="8.431168972903235"><ele>140.0</ele><time>2026-04-18T10:37:03Z</time></trkpt><trkpt lat="39.26057915624215" lon="8.431110009400307"><ele>140.0</ele><time>2026-04-18T10:37:04Z</time></trkpt><trkpt lat="39.260637067103794" lon="8.431050642709712"><ele>140.0</ele><time>2026-04-18T10:37:05Z</time></trkpt><trkpt lat="39.260690849903796" lon="8.430980887930835"><ele>140.0</ele><time>2026-04-18T10:37:06Z</time></trkpt><trkpt lat="39.26075055804859" lon="8.43091275991155"><ele>140.0</ele><time>2026-04-18T10:37:07Z</time></trkpt><trkpt lat="39.26081088640403" lon="8.430842128649209"><ele>140.0</ele><time>2026-04-18T10:37:08Z</time></trkpt><trkpt lat="39.26087842239946" lon="8.430776157083331"><ele>138.0</ele><time>2026-04-18T10:37:09Z</time></trkpt><trkpt lat="39.2609447783917" lon="8.430707272897793"><ele>136.0</ele><time>2026-04-18T10:37:10Z</time></trkpt><trkpt lat="39.26101012291547" lon="8.430632494308847"><ele>134.0</ele><time>2026-04-18T10:37:11Z</time></trkpt><trkpt lat="39.261070377419856" lon="8.43054743421174"><ele>132.0</ele><time>2026-04-18T10:37:12Z</time></trkpt><trkpt lat="39.26113600827801" lon="8.430462605296128"><ele>130.0</ele><time>2026-04-18T10:37:13Z</time></trkpt><trkpt lat="39.261208372141475" lon="8.4304070188766"><ele>128.0</ele><time>2026-04-18T10:37:14Z</time></trkpt><trkpt lat="39.2612748516388" lon="8.430355133562363"><ele>127.99999999999999</ele><time>2026-04-18T10:37:15Z</time></trkpt><trkpt lat="39.26134847472379" lon="8.430304345227897"><ele>128.0</ele><time>2026-04-18T10:37:16Z</time></trkpt><trkpt lat="39.26140708042403" lon="8.430247214429116"><ele>128.0</ele><time>2026-04-18T10:37:17Z</time></trkpt><trkpt lat="39.26146666254688" lon="8.43021640433544"><ele>128.0</ele><time>2026-04-18T10:37:18Z</time></trkpt><trkpt lat="39.261539052747636" lon="8.430182335858392"><ele>127.99999999999999</ele><time>2026-04-18T10:37:20Z</time></trkpt><trkpt lat="39.26161220577423" lon="8.430150031927322"><ele>128.0</ele><time>2026-04-18T10:37:22Z</time></trkpt><trkpt lat="39.26168578729436" lon="8.43010976143396"><ele>127.60000000000001</ele><time>2026-04-18T10:37:24Z</time></trkpt><trkpt lat="39.26177817054454" lon="8.430061469402498"><ele>127.20000000000002</ele><time>2026-04-18T10:37:27Z</time></trkpt><trkpt lat="39.26187490495666" lon="8.430010902850697"><ele>126.8</ele><time>2026-04-18T10:37:29Z</time></trkpt><trkpt lat="39.261958445115475" lon="8.429967516864984"><ele>126.4</ele><time>2026-04-18T10:37:31Z</time></trkpt><trkpt lat="39.262023437851695" lon="8.429934489387572"><ele>126.0</ele><time>2026-04-18T10:37:33Z</time></trkpt><trkpt lat="39.26208374060737" lon="8.430066246209316"><ele>126.0</ele><time>2026-04-18T10:37:40Z</time></trkpt><trkpt lat="39.262118766454826" lon="8.430134401796446"><ele>126.0</ele><time>2026-04-18T10:48:00Z</time></trkpt><trkpt lat="39.262060910692625" lon="8.430083841131284"><ele>126.0</ele><time>2026-04-18T10:48:13Z</time></trkpt><trkpt lat="39.26200864841997" lon="8.430131909864205"><ele>126.0</ele><time>2026-04-18T10:48:15Z</time></trkpt><trkpt lat="39.26193753378617" lon="8.430176453405968"><ele>126.0</ele><time>2026-04-18T10:48:18Z</time></trkpt><trkpt lat="39.261855789504494" lon="8.430146496660562"><ele>126.0</ele><time>2026-04-18T10:48:21Z</time></trkpt><trkpt lat="39.26178313591624" lon="8.430127076395225"><ele>126.0</ele><time>2026-04-18T10:48:24Z</time></trkpt><trkpt lat="39.26170111595605" lon="8.430148746673943"><ele>126.0</ele><time>2026-04-18T10:48:27Z</time></trkpt><trkpt lat="39.261633388455415" lon="8.430188158706208"><ele>126.0</ele><time>2026-04-18T10:48:30Z</time></trkpt><trkpt lat="39.26155883639827" lon="8.430234628734304"><ele>126.0</ele><time>2026-04-18T10:48:33Z</time></trkpt><trkpt lat="39.2614843245536" lon="8.430244937001008"><ele>126.0</ele><time>2026-04-18T10:48:36Z</time></trkpt><trkpt lat="39.26153421927718" lon="8.43016505760792"><ele>126.0</ele><time>2026-04-18T10:48:55Z</time></trkpt><trkpt lat="39.261595248404646" lon="8.430145019789196"><ele>126.0</ele><time>2026-04-18T10:48:56Z</time></trkpt><trkpt lat="39.26166476066653" lon="8.430114972677606"><ele>126.0</ele><time>2026-04-18T10:48:57Z</time></trkpt><trkpt lat="39.26178082562645" lon="8.430057053932275"><ele>126.0</ele><time>2026-04-18T10:48:59Z</time></trkpt><trkpt lat="39.261892355713954" lon="8.430006602455352"><ele>126.0</ele><time>2026-04-18T10:49:01Z</time></trkpt><trkpt lat="39.26200955095006" lon="8.42993682815026"><ele>126.0</ele><time>2026-04-18T10:49:03Z</time></trkpt><trkpt lat="39.26206999229062" lon="8.429909282575352"><ele>126.0</ele><time>2026-04-18T10:49:04Z</time></trkpt><trkpt lat="39.26212993016372" lon="8.429882841303598"><ele>126.0</ele><time>2026-04-18T10:49:05Z</time></trkpt><trkpt lat="39.26224776371663" lon="8.42982345936787"><ele>125.33333333333333</ele><time>2026-04-18T10:49:07Z</time></trkpt><trkpt lat="39.26236283785074" lon="8.429775682043424"><ele>124.66666666666666</ele><time>2026-04-18T10:49:09Z</time></trkpt><trkpt lat="39.262484190362045" lon="8.429743196819533"><ele>124.0</ele><time>2026-04-18T10:49:11Z</time></trkpt><trkpt lat="39.2625462272819" lon="8.429727262389536"><ele>123.33333333333333</ele><time>2026-04-18T10:49:12Z</time></trkpt><trkpt lat="39.262612009943936" lon="8.429701768984287"><ele>122.66666666666666</ele><time>2026-04-18T10:49:13Z</time></trkpt><trkpt lat="39.26267903284177" lon="8.429688284967252"><ele>122.0</ele><time>2026-04-18T10:49:14Z</time></trkpt><trkpt lat="39.262747957007" lon="8.429667027160685"><ele>121.99999999999999</ele><time>2026-04-18T10:49:15Z</time></trkpt><trkpt lat="39.262821671167195" lon="8.429644988568413"><ele>122.0</ele><time>2026-04-18T10:49:16Z</time></trkpt><trkpt lat="39.26289404016916" lon="8.429622521743159"><ele>122.0</ele><time>2026-04-18T10:49:17Z</time></trkpt><trkpt lat="39.26297104011055" lon="8.429600853152468"><ele>122.0</ele><time>2026-04-18T10:49:18Z</time></trkpt><trkpt lat="39.26304838542969" lon="8.429576151262996"><ele>121.99999999999999</ele><time>2026-04-18T10:49:19Z</time></trkpt><trkpt lat="39.26312883990046" lon="8.429549962482458"><ele>122.0</ele><time>2026-04-18T10:49:20Z</time></trkpt><trkpt lat="39.263210482352434" lon="8.429530340022167"><ele>120.49999999999999</ele><time>2026-04-18T10:49:21Z</time></trkpt><trkpt lat="39.26329344652499" lon="8.429503849112136"><ele>119.0</ele><time>2026-04-18T10:49:22Z</time></trkpt><trkpt lat="39.26337846655317" lon="8.429477583420208"><ele>117.5</ele><time>2026-04-18T10:49:23Z</time></trkpt><trkpt lat="39.26346707235474" lon="8.429471756245935"><ele>116.0</ele><time>2026-04-18T10:49:24Z</time></trkpt><trkpt lat="39.26355345211706" lon="8.42942964346578"><ele>114.49999999999999</ele><time>2026-04-18T10:49:25Z</time></trkpt><trkpt lat="39.26364265919859" lon="8.429407821971834"><ele>113.0</ele><time>2026-04-18T10:49:26Z</time></trkpt><trkpt lat="39.26373330080908" lon="8.42938425596656"><ele>113.0</ele><time>2026-04-18T10:49:27Z</time></trkpt><trkpt lat="39.26382555796988" lon="8.42936293072796"><ele>113.00000000000001</ele><time>2026-04-18T10:49:28Z</time></trkpt><trkpt lat="39.26390980683275" lon="8.429312995277881"><ele>113.00000000000001</ele><time>2026-04-18T10:49:29Z</time></trkpt><trkpt lat="39.26398255798662" lon="8.429236087973937"><ele>113.0</ele><time>2026-04-18T10:49:30Z</time></trkpt><trkpt lat="39.264047838531425" lon="8.42914773589991"><ele>113.0</ele><time>2026-04-18T10:49:31Z</time></trkpt><trkpt lat="39.26410272044974" lon="8.429049268645464"><ele>109.0</ele><time>2026-04-18T10:49:32Z</time></trkpt><trkpt lat="39.26415367176367" lon="8.428946384929219"><ele>105.00000000000001</ele><time>2026-04-18T10:49:33Z</time></trkpt><trkpt lat="39.26420316588458" lon="8.428841978077816"><ele>101.0</ele><time>2026-04-18T10:49:34Z</time></trkpt><trkpt lat="39.2642514767287" lon="8.428735536128997"><ele>97.0</ele><time>2026-04-18T10:49:35Z</time></trkpt><trkpt lat="39.264297384041086" lon="8.428626988112631"><ele>93.0</ele><time>2026-04-18T10:49:36Z</time></trkpt><trkpt lat="39.26433727543123" lon="8.428515705467182"><ele>92.60000000000001</ele><time>2026-04-18T10:49:37Z</time></trkpt><trkpt lat="39.26435959916441" lon="8.428398399314245"><ele>92.2</ele><time>2026-04-18T10:49:38Z</time></trkpt><trkpt lat="39.26437899903692" lon="8.428277842056849"><ele>91.8</ele><time>2026-04-18T10:49:39Z</time></trkpt><trkpt lat="39.26439670673277" lon="8.428156764857276"><ele>91.4</ele><time>2026-04-18T10:49:40Z</time></trkpt><trkpt lat="39.264418773614906" lon="8.428039091284008"><ele>91.0</ele><time>2026-04-18T10:49:41Z</time></trkpt><trkpt lat="39.26445421843871" lon="8.427924304365394"><ele>89.0</ele><time>2026-04-18T10:49:42Z</time></trkpt><trkpt lat="39.264501325866824" lon="8.427816661459724"><ele>87.0</ele><time>2026-04-18T10:49:43Z</time></trkpt><trkpt lat="39.26455497684438" lon="8.42771042334576"><ele>85.0</ele><time>2026-04-18T10:49:44Z</time></trkpt><trkpt lat="39.26461172127767" lon="8.427608083477194"><ele>83.0</ele><time>2026-04-18T10:49:45Z</time></trkpt><trkpt lat="39.26467644332495" lon="8.427515073143997"><ele>81.0</ele><time>2026-04-18T10:49:46Z</time></trkpt><trkpt lat="39.264730595986116" lon="8.427408267661248"><ele>78.0</ele><time>2026-04-18T10:49:47Z</time></trkpt><trkpt lat="39.26479681104289" lon="8.427311267253263"><ele>75.0</ele><time>2026-04-18T10:49:48Z</time></trkpt><trkpt lat="39.264858860706994" lon="8.427210591200852"><ele>72.0</ele><time>2026-04-18T10:49:49Z</time></trkpt><trkpt lat="39.264920304242104" lon="8.427107750136033"><ele>69.0</ele><time>2026-04-18T10:49:50Z</time></trkpt><trkpt lat="39.26498454574541" lon="8.427007509089254"><ele>66.0</ele><time>2026-04-18T10:49:51Z</time></trkpt><trkpt lat="39.26505318379083" lon="8.426909308688797"><ele>64.39999999999999</ele><time>2026-04-18T10:49:52Z</time></trkpt><trkpt lat="39.26511676549081" lon="8.42680626264981"><ele>62.8</ele><time>2026-04-18T10:49:53Z</time></trkpt><trkpt lat="39.26517491112166" lon="8.42669994384287"><ele>61.199999999999996</ele><time>2026-04-18T10:49:54Z</time></trkpt><trkpt lat="39.265236451310756" lon="8.42659356978418"><ele>59.599999999999994</ele><time>2026-04-18T10:49:55Z</time></trkpt><trkpt lat="39.2653111790223" lon="8.426504770181406"><ele>58.0</ele><time>2026-04-18T10:49:56Z</time></trkpt><trkpt lat="39.26537284540484" lon="8.426404787985591"><ele>56.2</ele><time>2026-04-18T10:49:57Z</time></trkpt><trkpt lat="39.26543283412383" lon="8.426303745447148"><ele>54.4</ele><time>2026-04-18T10:49:58Z</time></trkpt><trkpt lat="39.265491912288795" lon="8.426205444380443"><ele>52.6</ele><time>2026-04-18T10:49:59Z</time></trkpt><trkpt lat="39.26555584475759" lon="8.42611642093266"><ele>50.800000000000004</ele><time>2026-04-18T10:50:00Z</time></trkpt><trkpt lat="39.265622581320784" lon="8.42603332572816"><ele>49.0</ele><time>2026-04-18T10:50:01Z</time></trkpt><trkpt lat="39.265690537854276" lon="8.425952372075317"><ele>48.49999999999999</ele><time>2026-04-18T10:50:02Z</time></trkpt><trkpt lat="39.265758113763624" lon="8.425876223180143"><ele>48.0</ele><time>2026-04-18T10:50:03Z</time></trkpt><trkpt lat="39.265826403746885" lon="8.425803648920018"><ele>47.5</ele><time>2026-04-18T10:50:04Z</time></trkpt><trkpt lat="39.26589547909752" lon="8.425732356078893"><ele>47.0</ele><time>2026-04-18T10:50:05Z</time></trkpt><trkpt lat="39.26595566597044" lon="8.425649555013417"><ele>46.5</ele><time>2026-04-18T10:50:06Z</time></trkpt><trkpt lat="39.266019026915934" lon="8.425578212379772"><ele>46.0</ele><time>2026-04-18T10:50:07Z</time></trkpt><trkpt lat="39.26608224465317" lon="8.425513818199953"><ele>45.16666666666667</ele><time>2026-04-18T10:50:08Z</time></trkpt><trkpt lat="39.266141044881124" lon="8.425449549603059"><ele>44.333333333333336</ele><time>2026-04-18T10:50:09Z</time></trkpt><trkpt lat="39.26619795819047" lon="8.425389946631086"><ele>43.5</ele><time>2026-04-18T10:50:10Z</time></trkpt><trkpt lat="39.26625205834687" lon="8.425334046163451"><ele>42.666666666666664</ele><time>2026-04-18T10:50:11Z</time></trkpt><trkpt lat="39.2663011418091" lon="8.425281307633933"><ele>41.83333333333333</ele><time>2026-04-18T10:50:12Z</time></trkpt><trkpt lat="39.26638822600952" lon="8.425189196343203"><ele>41.0</ele><time>2026-04-18T10:50:14Z</time></trkpt><trkpt lat="39.266448720429494" lon="8.425123141020594"><ele>41.0</ele><time>2026-04-18T10:50:16Z</time></trkpt><trkpt lat="39.26650692828795" lon="8.425091284708664"><ele>41.0</ele><time>2026-04-18T10:50:18Z</time></trkpt><trkpt lat="39.266557170082955" lon="8.425022677008476"><ele>41.0</ele><time>2026-04-18T10:50:22Z</time></trkpt><trkpt lat="39.266468632171495" lon="8.424856719621857"><ele>41.0</ele><time>2026-04-18T10:50:42Z</time></trkpt><trkpt lat="39.26642317095779" lon="8.424744375191988"><ele>41.0</ele><time>2026-04-18T10:50:45Z</time></trkpt><trkpt lat="39.26639379769194" lon="8.424663742079508"><ele>39.5</ele><time>2026-04-18T10:50:47Z</time></trkpt><trkpt lat="39.26634718247853" lon="8.424562399375944"><ele>38.0</ele><time>2026-04-18T10:50:50Z</time></trkpt><trkpt lat="39.26631004759505" lon="8.424494698607589"><ele>36.5</ele><time>2026-04-18T10:50:52Z</time></trkpt><trkpt lat="39.266291776905014" lon="8.424383568457253"><ele>35.0</ele><time>2026-04-18T10:50:55Z</time></trkpt><trkpt lat="39.26635565084066" lon="8.424303677445623"><ele>33.5</ele><time>2026-04-18T10:50:58Z</time></trkpt><trkpt lat="39.26641598682872" lon="8.424231746334822"><ele>32.0</ele><time>2026-04-18T10:51:01Z</time></trkpt><trkpt lat="39.266468420206024" lon="8.424150855025735"><ele>31.499999999999996</ele><time>2026-04-18T10:51:04Z</time></trkpt><trkpt lat="39.26654196296109" lon="8.424071991673134"><ele>31.0</ele><time>2026-04-18T10:51:07Z</time></trkpt><trkpt lat="39.26660703845832" lon="8.424029531825344"><ele>30.5</ele><time>2026-04-18T10:51:09Z</time></trkpt><trkpt lat="39.26664931192846" lon="8.423966370467578"><ele>30.0</ele><time>2026-04-18T10:51:11Z</time></trkpt><trkpt lat="39.26672282970073" lon="8.423905012176455"><ele>29.499999999999996</ele><time>2026-04-18T10:51:14Z</time></trkpt><trkpt lat="39.26678677946469" lon="8.423835769263961"><ele>29.0</ele><time>2026-04-18T10:51:17Z</time></trkpt><trkpt lat="39.26685440629471" lon="8.423797814507797"><ele>28.999999999999996</ele><time>2026-04-18T10:51:20Z</time></trkpt><trkpt lat="39.26689199469621" lon="8.423725025352557"><ele>29.0</ele><time>2026-04-18T10:51:23Z</time></trkpt><trkpt lat="39.26693580460261" lon="8.423662736520884"><ele>29.0</ele><time>2026-04-18T10:52:24Z</time></trkpt><trkpt lat="39.26688568242531" lon="8.42376424284667"><ele>29.0</ele><time>2026-04-18T10:54:13Z</time></trkpt><trkpt lat="39.26681549974746" lon="8.423821776713412"><ele>28.999999999999996</ele><time>2026-04-18T10:54:15Z</time></trkpt><trkpt lat="39.266749715680504" lon="8.42389132725181"><ele>29.0</ele><time>2026-04-18T10:54:17Z</time></trkpt><trkpt lat="39.266652667616" lon="8.423984605318534"><ele>29.0</ele><time>2026-04-18T10:54:19Z</time></trkpt><trkpt lat="39.26659465289044" lon="8.424058828984613"><ele>29.0</ele><time>2026-04-18T10:54:21Z</time></trkpt><trkpt lat="39.26651547425314" lon="8.4241251889961"><ele>29.0</ele><time>2026-04-18T10:54:23Z</time></trkpt><trkpt lat="39.26642585949262" lon="8.424218780402198"><ele>29.0</ele><time>2026-04-18T10:54:25Z</time></trkpt><trkpt lat="39.26633870939305" lon="8.424320832399971"><ele>29.0</ele><time>2026-04-18T10:54:27Z</time></trkpt><trkpt lat="39.266278723038084" lon="8.424398844275263"><ele>29.75</ele><time>2026-04-18T10:54:29Z</time></trkpt><trkpt lat="39.26637223077126" lon="8.424594749449152"><ele>30.5</ele><time>2026-04-18T10:54:32Z</time></trkpt><trkpt lat="39.26642965614273" lon="8.424698855455093"><ele>31.25</ele><time>2026-04-18T10:54:34Z</time></trkpt><trkpt lat="39.26646647862775" lon="8.424811676835574"><ele>32.0</ele><time>2026-04-18T10:54:36Z</time></trkpt><trkpt lat="39.26650421862291" lon="8.424905431001404"><ele>32.714285714285715</ele><time>2026-04-18T10:54:38Z</time></trkpt><trkpt lat="39.266548587185724" lon="8.424991716971926"><ele>33.42857142857142</ele><time>2026-04-18T10:54:41Z</time></trkpt><trkpt lat="39.26650588993388" lon="8.425060873774024"><ele>34.14285714285714</ele><time>2026-04-18T11:30:49Z</time></trkpt><trkpt lat="39.26647205275644" lon="8.425137371515172"><ele>34.857142857142854</ele><time>2026-04-18T11:30:53Z</time></trkpt><trkpt lat="39.26639654740309" lon="8.425171386918823"><ele>35.57142857142857</ele><time>2026-04-18T11:30:57Z</time></trkpt><trkpt lat="39.266348703171" lon="8.425231435521242"><ele>36.285714285714285</ele><time>2026-04-18T11:31:00Z</time></trkpt><trkpt lat="39.26628790819442" lon="8.425288243112515"><ele>37.0</ele><time>2026-04-18T11:31:03Z</time></trkpt><trkpt lat="39.266230488335914" lon="8.425356692012926"><ele>37.66666666666667</ele><time>2026-04-18T11:31:06Z</time></trkpt><trkpt lat="39.266161071495816" lon="8.425412239895554"><ele>38.333333333333336</ele><time>2026-04-18T11:31:09Z</time></trkpt><trkpt lat="39.26609889954548" lon="8.425484731337342"><ele>39.0</ele><time>2026-04-18T11:31:12Z</time></trkpt><trkpt lat="39.266044076168185" lon="8.425537353896088"><ele>39.666666666666664</ele><time>2026-04-18T11:31:14Z</time></trkpt><trkpt lat="39.26597112898345" lon="8.425612584709027"><ele>40.33333333333333</ele><time>2026-04-18T11:31:16Z</time></trkpt><trkpt lat="39.26587558949802" lon="8.425701699048476"><ele>41.0</ele><time>2026-04-18T11:31:18Z</time></trkpt><trkpt lat="39.26582412112235" lon="8.425754759502722"><ele>42.0</ele><time>2026-04-18T11:31:19Z</time></trkpt><trkpt lat="39.2657702156325" lon="8.425815934918507"><ele>43.0</ele><time>2026-04-18T11:31:20Z</time></trkpt><trkpt lat="39.26570630068561" lon="8.425882776801698"><ele>44.0</ele><time>2026-04-18T11:31:21Z</time></trkpt><trkpt lat="39.265635729813475" lon="8.425968823458357"><ele>45.0</ele><time>2026-04-18T11:31:22Z</time></trkpt><trkpt lat="39.265550032987036" lon="8.426083876443368"><ele>46.0</ele><time>2026-04-18T11:31:23Z</time></trkpt><trkpt lat="39.26545833014309" lon="8.426218591085938"><ele>49.0</ele><time>2026-04-18T11:31:24Z</time></trkpt><trkpt lat="39.26536882281101" lon="8.426366407908107"><ele>52.0</ele><time>2026-04-18T11:31:25Z</time></trkpt><trkpt lat="39.265276731121084" lon="8.426517996094645"><ele>55.0</ele><time>2026-04-18T11:31:26Z</time></trkpt><trkpt lat="39.26519053446896" lon="8.426667144514045"><ele>58.0</ele><time>2026-04-18T11:31:27Z</time></trkpt><trkpt lat="39.26510117595368" lon="8.42681552697018"><ele>58.0</ele><time>2026-04-18T11:31:28Z</time></trkpt><trkpt lat="39.265004538266865" lon="8.426963825534084"><ele>58.0</ele><time>2026-04-18T11:31:29Z</time></trkpt><trkpt lat="39.26489917038558" lon="8.427116075065301"><ele>58.0</ele><time>2026-04-18T11:31:30Z</time></trkpt><trkpt lat="39.2648008422283" lon="8.42727340652754"><ele>63.75</ele><time>2026-04-18T11:31:31Z</time></trkpt><trkpt lat="39.2647004425606" lon="8.427427569021049"><ele>69.5</ele><time>2026-04-18T11:31:32Z</time></trkpt><trkpt lat="39.26460865794759" lon="8.427572561266551"><ele>75.25</ele><time>2026-04-18T11:31:33Z</time></trkpt><trkpt lat="39.26452445086711" lon="8.427720113576234"><ele>81.0</ele><time>2026-04-18T11:31:34Z</time></trkpt><trkpt lat="39.26445307747692" lon="8.42787481463888"><ele>83.5</ele><time>2026-04-18T11:31:35Z</time></trkpt><trkpt lat="39.264404121361125" lon="8.428048502138678"><ele>86.0</ele><time>2026-04-18T11:31:36Z</time></trkpt><trkpt lat="39.264364509729674" lon="8.428234630127584"><ele>88.5</ele><time>2026-04-18T11:31:37Z</time></trkpt><trkpt lat="39.26432815407778" lon="8.428409254196977"><ele>91.0</ele><time>2026-04-18T11:31:38Z</time></trkpt><trkpt lat="39.26429008446225" lon="8.428565212885863"><ele>91.0</ele><time>2026-04-18T11:31:39Z</time></trkpt><trkpt lat="39.26422576274383" lon="8.428700477389068"><ele>91.0</ele><time>2026-04-18T11:31:40Z</time></trkpt><trkpt lat="39.26411558263582" lon="8.42893818569567"><ele>91.0</ele><time>2026-04-18T11:31:41Z</time></trkpt><trkpt lat="39.26403758411193" lon="8.4290902573692"><ele>91.5</ele><time>2026-04-18T11:31:42Z</time></trkpt><trkpt lat="39.26395303397663" lon="8.429212930878398"><ele>92.0</ele><time>2026-04-18T11:31:43Z</time></trkpt><trkpt lat="39.263859919730244" lon="8.429289903770446"><ele>92.5</ele><time>2026-04-18T11:31:44Z</time></trkpt><trkpt lat="39.263759128577064" lon="8.429340852636805"><ele>93.0</ele><time>2026-04-18T11:31:45Z</time></trkpt><trkpt lat="39.2636404868795" lon="8.42938671799029"><ele>99.66666666666666</ele><time>2026-04-18T11:31:46Z</time></trkpt><trkpt lat="39.26350651754661" lon="8.429418632883953"><ele>106.33333333333333</ele><time>2026-04-18T11:31:47Z</time></trkpt><trkpt lat="39.26335685697742" lon="8.429454703625547"><ele>113.0</ele><time>2026-04-18T11:31:48Z</time></trkpt><trkpt lat="39.263201554405576" lon="8.429516737980078"><ele>116.0</ele><time>2026-04-18T11:31:49Z</time></trkpt><trkpt lat="39.26304105558885" lon="8.42955298675447"><ele>119.0</ele><time>2026-04-18T11:31:50Z</time></trkpt><trkpt lat="39.262876713790654" lon="8.429591624471069"><ele>122.0</ele><time>2026-04-18T11:31:51Z</time></trkpt><trkpt lat="39.26271899774298" lon="8.429643263649197"><ele>122.0</ele><time>2026-04-18T11:31:52Z</time></trkpt><trkpt lat="39.26256594982368" lon="8.429679470792012"><ele>122.0</ele><time>2026-04-18T11:31:53Z</time></trkpt><trkpt lat="39.26242140003379" lon="8.42973821202129"><ele>122.0</ele><time>2026-04-18T11:31:54Z</time></trkpt><trkpt lat="39.26228269152332" lon="8.429795593756289"><ele>123.0</ele><time>2026-04-18T11:31:55Z</time></trkpt><trkpt lat="39.26214614801055" lon="8.429844968457893"><ele>124.0</ele><time>2026-04-18T11:31:56Z</time></trkpt><trkpt lat="39.262011129290016" lon="8.429899840166714"><ele>125.0</ele><time>2026-04-18T11:31:57Z</time></trkpt><trkpt lat="39.26187844977883" lon="8.42996748939754"><ele>126.0</ele><time>2026-04-18T11:31:58Z</time></trkpt><trkpt lat="39.26174573129112" lon="8.430045444503257"><ele>126.0</ele><time>2026-04-18T11:31:59Z</time></trkpt><trkpt lat="39.26161163041662" lon="8.430125310499069"><ele>126.0</ele><time>2026-04-18T11:32:00Z</time></trkpt><trkpt lat="39.26147520163271" lon="8.430202651226136"><ele>126.0</ele><time>2026-04-18T11:32:01Z</time></trkpt><trkpt lat="39.26133324711942" lon="8.430280086534012"><ele>126.66666666666666</ele><time>2026-04-18T11:32:02Z</time></trkpt><trkpt lat="39.26119498084546" lon="8.430380825383619"><ele>127.33333333333333</ele><time>2026-04-18T11:32:03Z</time></trkpt><trkpt lat="39.26107013849851" lon="8.430508579755426"><ele>128.0</ele><time>2026-04-18T11:32:04Z</time></trkpt><trkpt lat="39.26095169689187" lon="8.430650018911516"><ele>128.0</ele><time>2026-04-18T11:32:05Z</time></trkpt><trkpt lat="39.2608290554677" lon="8.430798340447025"><ele>128.0</ele><time>2026-04-18T11:32:06Z</time></trkpt><trkpt lat="39.260703429543625" lon="8.430944394452405"><ele>128.0</ele><time>2026-04-18T11:32:07Z</time></trkpt><trkpt lat="39.26057171935074" lon="8.431092638428552"><ele>129.66666666666666</ele><time>2026-04-18T11:32:08Z</time></trkpt><trkpt lat="39.260440396380126" lon="8.431237326975237"><ele>131.33333333333334</ele><time>2026-04-18T11:32:09Z</time></trkpt><trkpt lat="39.260313658766876" lon="8.431376734548584"><ele>133.0</ele><time>2026-04-18T11:32:10Z</time></trkpt><trkpt lat="39.260191977331516" lon="8.431505715890006"><ele>133.0</ele><time>2026-04-18T11:32:11Z</time></trkpt><trkpt lat="39.26006982498079" lon="8.43161949250243"><ele>133.0</ele><time>2026-04-18T11:32:12Z</time></trkpt><trkpt lat="39.25992541165872" lon="8.43167904803295"><ele>133.0</ele><time>2026-04-18T11:32:13Z</time></trkpt><trkpt lat="39.259790232945704" lon="8.43176490582959"><ele>136.0</ele><time>2026-04-18T11:32:14Z</time></trkpt><trkpt lat="39.25964529513131" lon="8.431820390999551"><ele>139.0</ele><time>2026-04-18T11:32:15Z</time></trkpt><trkpt lat="39.259505031566974" lon="8.43189862734052"><ele>142.0</ele><time>2026-04-18T11:32:16Z</time></trkpt><trkpt lat="39.25936938242888" lon="8.432008852987758"><ele>142.0</ele><time>2026-04-18T11:32:17Z</time></trkpt><trkpt lat="39.259235781004286" lon="8.432132851253446"><ele>142.0</ele><time>2026-04-18T11:32:18Z</time></trkpt><trkpt lat="39.25909746458857" lon="8.432253012878808"><ele>142.0</ele><time>2026-04-18T11:32:19Z</time></trkpt><trkpt lat="39.25895358921374" lon="8.432366975020015"><ele>138.66666666666669</ele><time>2026-04-18T11:32:20Z</time></trkpt><trkpt lat="39.25880767086233" lon="8.432477047591112"><ele>135.33333333333334</ele><time>2026-04-18T11:32:21Z</time></trkpt><trkpt lat="39.25866440617654" lon="8.432581570730381"><ele>132.0</ele><time>2026-04-18T11:32:22Z</time></trkpt><trkpt lat="39.25851635673863" lon="8.432643832885322"><ele>132.0</ele><time>2026-04-18T11:32:23Z</time></trkpt><trkpt lat="39.2583748843277" lon="8.432693375737918"><ele>132.0</ele><time>2026-04-18T11:32:24Z</time></trkpt><trkpt lat="39.25822914139845" lon="8.432731305234606"><ele>132.0</ele><time>2026-04-18T11:32:25Z</time></trkpt><trkpt lat="39.25807628275138" lon="8.432761869678533"><ele>131.0</ele><time>2026-04-18T11:32:26Z</time></trkpt><trkpt lat="39.25791917020291" lon="8.43279189764218"><ele>130.0</ele><time>2026-04-18T11:32:27Z</time></trkpt><trkpt lat="39.257760680651565" lon="8.43282377990384"><ele>129.0</ele><time>2026-04-18T11:32:28Z</time></trkpt><trkpt lat="39.2576025258887" lon="8.43287868913804"><ele>129.0</ele><time>2026-04-18T11:32:29Z</time></trkpt><trkpt lat="39.257438867857026" lon="8.432891771868197"><ele>129.0</ele><time>2026-04-18T11:32:30Z</time></trkpt><trkpt lat="39.25728159668715" lon="8.432946325207533"><ele>129.0</ele><time>2026-04-18T11:32:31Z</time></trkpt><trkpt lat="39.257121346443654" lon="8.432974643610443"><ele>127.0</ele><time>2026-04-18T11:32:32Z</time></trkpt><trkpt lat="39.25696246200114" lon="8.433005012294354"><ele>125.0</ele><time>2026-04-18T11:32:33Z</time></trkpt><trkpt lat="39.25680223887405" lon="8.433039687602063"><ele>123.0</ele><time>2026-04-18T11:32:34Z</time></trkpt><trkpt lat="39.25664419839444" lon="8.433078244160386"><ele>123.0</ele><time>2026-04-18T11:32:35Z</time></trkpt><trkpt lat="39.25648652162495" lon="8.433116937365632"><ele>123.0</ele><time>2026-04-18T11:32:36Z</time></trkpt><trkpt lat="39.25632789140968" lon="8.433148660847245"><ele>123.0</ele><time>2026-04-18T11:32:37Z</time></trkpt><trkpt lat="39.25617102699932" lon="8.433176110050445"><ele>121.66666666666666</ele><time>2026-04-18T11:32:38Z</time></trkpt><trkpt lat="39.25601648721339" lon="8.43320814889406"><ele>120.33333333333333</ele><time>2026-04-18T11:32:39Z</time></trkpt><trkpt lat="39.25586400874924" lon="8.433243521446938"><ele>119.0</ele><time>2026-04-18T11:32:40Z</time></trkpt><trkpt lat="39.2557113367228" lon="8.433257245631482"><ele>118.25</ele><time>2026-04-18T11:32:41Z</time></trkpt><trkpt lat="39.25556537722556" lon="8.433288233100038"><ele>117.5</ele><time>2026-04-18T11:32:42Z</time></trkpt><trkpt lat="39.25542582615858" lon="8.433317751438999"><ele>116.75</ele><time>2026-04-18T11:32:43Z</time></trkpt><trkpt lat="39.25529567388708" lon="8.433366864397641"><ele>116.0</ele><time>2026-04-18T11:32:44Z</time></trkpt><trkpt lat="39.25516944879484" lon="8.433393190881072"><ele>116.0</ele><time>2026-04-18T11:32:45Z</time></trkpt><trkpt lat="39.25505142776684" lon="8.433412596029058"><ele>116.0</ele><time>2026-04-18T11:32:46Z</time></trkpt><trkpt lat="39.254943496395626" lon="8.433441697460275"><ele>116.0</ele><time>2026-04-18T11:32:47Z</time></trkpt><trkpt lat="39.25483895950836" lon="8.433463477208756"><ele>116.0</ele><time>2026-04-18T11:32:48Z</time></trkpt><trkpt lat="39.254740432735304" lon="8.433480345807647"><ele>116.0</ele><time>2026-04-18T11:32:49Z</time></trkpt><trkpt lat="39.25464563210274" lon="8.4334859514918"><ele>115.66666666666666</ele><time>2026-04-18T11:32:50Z</time></trkpt><trkpt lat="39.25456017907593" lon="8.433480273439857"><ele>115.33333333333333</ele><time>2026-04-18T11:32:51Z</time></trkpt><trkpt lat="39.25448413168067" lon="8.433507412610398"><ele>115.0</ele><time>2026-04-18T11:32:52Z</time></trkpt><trkpt lat="39.25442039856776" lon="8.43352134039742"><ele>114.66666666666666</ele><time>2026-04-18T11:32:53Z</time></trkpt><trkpt lat="39.25434012821221" lon="8.433517891179909"><ele>114.33333333333333</ele><time>2026-04-18T11:32:55Z</time></trkpt><trkpt lat="39.25428189195126" lon="8.433568439422334"><ele>114.0</ele><time>2026-04-18T11:33:03Z</time></trkpt><trkpt lat="39.25422510482784" lon="8.433727519839783"><ele>113.83333333333333</ele><time>2026-04-18T11:33:06Z</time></trkpt><trkpt lat="39.25422907935884" lon="8.433817835464327"><ele>113.66666666666666</ele><time>2026-04-18T11:33:07Z</time></trkpt><trkpt lat="39.25423870734214" lon="8.433913386209015"><ele>113.5</ele><time>2026-04-18T11:33:08Z</time></trkpt><trkpt lat="39.254241979274056" lon="8.43402441727157"><ele>113.33333333333333</ele><time>2026-04-18T11:33:09Z</time></trkpt><trkpt lat="39.2542388568758" lon="8.434141928868739"><ele>113.16666666666666</ele><time>2026-04-18T11:33:10Z</time></trkpt><trkpt lat="39.254236334468295" lon="8.43426251878551"><ele>113.0</ele><time>2026-04-18T11:33:11Z</time></trkpt><trkpt lat="39.25423874713402" lon="8.434389797980366"><ele>113.0</ele><time>2026-04-18T11:33:12Z</time></trkpt><trkpt lat="39.25424315756376" lon="8.434526593780891"><ele>113.00000000000001</ele><time>2026-04-18T11:33:13Z</time></trkpt><trkpt lat="39.254244121128" lon="8.434672165896885"><ele>113.00000000000001</ele><time>2026-04-18T11:33:14Z</time></trkpt><trkpt lat="39.254245752443325" lon="8.434814529557148"><ele>113.0</ele><time>2026-04-18T11:33:15Z</time></trkpt><trkpt lat="39.25424591739692" lon="8.434962356438513"><ele>113.0</ele><time>2026-04-18T11:33:16Z</time></trkpt><trkpt lat="39.254238463812804" lon="8.435122301753474"><ele>112.75</ele><time>2026-04-18T11:33:17Z</time></trkpt><trkpt lat="39.25423432588997" lon="8.435291908695802"><ele>112.5</ele><time>2026-04-18T11:33:18Z</time></trkpt><trkpt lat="39.25423947278913" lon="8.43547046910671"><ele>112.25</ele><time>2026-04-18T11:33:19Z</time></trkpt><trkpt lat="39.25424351804225" lon="8.435656399577223"><ele>112.0</ele><time>2026-04-18T11:33:20Z</time></trkpt><trkpt lat="39.25424691868097" lon="8.435848741605145"><ele>111.66666666666667</ele><time>2026-04-18T11:33:21Z</time></trkpt><trkpt lat="39.254250502425066" lon="8.436046101339302"><ele>111.33333333333334</ele><time>2026-04-18T11:33:22Z</time></trkpt><trkpt lat="39.2542533987753" lon="8.436254666167025"><ele>111.0</ele><time>2026-04-18T11:33:23Z</time></trkpt><trkpt lat="39.25425549903145" lon="8.436460551016696"><ele>110.33333333333334</ele><time>2026-04-18T11:33:24Z</time></trkpt><trkpt lat="39.25425234363388" lon="8.436669327225014"><ele>109.66666666666667</ele><time>2026-04-18T11:33:25Z</time></trkpt><trkpt lat="39.254238747241246" lon="8.436882972831816"><ele>109.0</ele><time>2026-04-18T11:33:26Z</time></trkpt><trkpt lat="39.254213608058926" lon="8.43709740493822"><ele>108.33333333333334</ele><time>2026-04-18T11:33:27Z</time></trkpt><trkpt lat="39.25417885956009" lon="8.437315887662326"><ele>107.66666666666666</ele><time>2026-04-18T11:33:28Z</time></trkpt><trkpt lat="39.254132536944525" lon="8.437537903113387"><ele>107.0</ele><time>2026-04-18T11:33:29Z</time></trkpt><trkpt lat="39.25407315376954" lon="8.437755995891374"><ele>106.66666666666666</ele><time>2026-04-18T11:33:30Z</time></trkpt><trkpt lat="39.253997267743195" lon="8.437972906752996"><ele>106.33333333333334</ele><time>2026-04-18T11:33:31Z</time></trkpt><trkpt lat="39.253914038529196" lon="8.438187625264243"><ele>106.0</ele><time>2026-04-18T11:33:32Z</time></trkpt><trkpt lat="39.2538321111892" lon="8.438403747477704"><ele>106.0</ele><time>2026-04-18T11:33:33Z</time></trkpt><trkpt lat="39.253751547524004" lon="8.438624965848511"><ele>106.0</ele><time>2026-04-18T11:33:34Z</time></trkpt><trkpt lat="39.25367178306573" lon="8.4388508875496"><ele>106.0</ele><time>2026-04-18T11:33:35Z</time></trkpt><trkpt lat="39.25359102128721" lon="8.439077579650538"><ele>105.0</ele><time>2026-04-18T11:33:36Z</time></trkpt><trkpt lat="39.253509065286856" lon="8.43930680498489"><ele>104.0</ele><time>2026-04-18T11:33:37Z</time></trkpt><trkpt lat="39.253421810815155" lon="8.439536767256882"><ele>103.0</ele><time>2026-04-18T11:33:38Z</time></trkpt><trkpt lat="39.25333249901774" lon="8.439768959819165"><ele>103.0</ele><time>2026-04-18T11:33:39Z</time></trkpt><trkpt lat="39.25324239645574" lon="8.440004806701053"><ele>103.0</ele><time>2026-04-18T11:33:40Z</time></trkpt><trkpt lat="39.25315159938505" lon="8.440242506269803"><ele>103.0</ele><time>2026-04-18T11:33:41Z</time></trkpt><trkpt lat="39.25306240576949" lon="8.440482300971691"><ele>103.0</ele><time>2026-04-18T11:33:42Z</time></trkpt><trkpt lat="39.25297819451595" lon="8.440721469171232"><ele>103.0</ele><time>2026-04-18T11:33:43Z</time></trkpt><trkpt lat="39.252890648350544" lon="8.44096556112739"><ele>103.0</ele><time>2026-04-18T11:33:44Z</time></trkpt><trkpt lat="39.25280375115218" lon="8.441204349602254"><ele>102.0</ele><time>2026-04-18T11:33:45Z</time></trkpt><trkpt lat="39.252719358256506" lon="8.441443795486071"><ele>101.0</ele><time>2026-04-18T11:33:46Z</time></trkpt><trkpt lat="39.25263117740066" lon="8.441679527139001"><ele>100.0</ele><time>2026-04-18T11:33:47Z</time></trkpt><trkpt lat="39.25254391173619" lon="8.441913973380265"><ele>99.0</ele><time>2026-04-18T11:33:48Z</time></trkpt><trkpt lat="39.25246076826822" lon="8.442148129269098"><ele>98.0</ele><time>2026-04-18T11:33:49Z</time></trkpt><trkpt lat="39.252386780257915" lon="8.442382358499753"><ele>97.0</ele><time>2026-04-18T11:33:50Z</time></trkpt><trkpt lat="39.252333691512774" lon="8.442622435354187"><ele>97.0</ele><time>2026-04-18T11:33:51Z</time></trkpt><trkpt lat="39.25230368360994" lon="8.442869565512638"><ele>97.0</ele><time>2026-04-18T11:33:52Z</time></trkpt><trkpt lat="39.252286207489796" lon="8.443124943357887"><ele>97.0</ele><time>2026-04-18T11:33:53Z</time></trkpt><trkpt lat="39.25227168342651" lon="8.443379619471505"><ele>97.0</ele><time>2026-04-18T11:33:54Z</time></trkpt><trkpt lat="39.25225588105727" lon="8.443639321732105"><ele>97.0</ele><time>2026-04-18T11:33:55Z</time></trkpt><trkpt lat="39.25223806063127" lon="8.443901007382959"><ele>97.0</ele><time>2026-04-18T11:33:56Z</time></trkpt><trkpt lat="39.25221943148733" lon="8.44416397722434"><ele>96.66666666666667</ele><time>2026-04-18T11:33:57Z</time></trkpt><trkpt lat="39.25220115265633" lon="8.444429176065235"><ele>96.33333333333334</ele><time>2026-04-18T11:33:58Z</time></trkpt><trkpt lat="39.252183488554785" lon="8.444694038115992"><ele>96.0</ele><time>2026-04-18T11:33:59Z</time></trkpt><trkpt lat="39.252167750761835" lon="8.444960665101306"><ele>95.33333333333333</ele><time>2026-04-18T11:34:00Z</time></trkpt><trkpt lat="39.25215319466876" lon="8.445231371210896"><ele>94.66666666666666</ele><time>2026-04-18T11:34:01Z</time></trkpt><trkpt lat="39.252138706925464" lon="8.445503527276658"><ele>94.0</ele><time>2026-04-18T11:34:02Z</time></trkpt><trkpt lat="39.25212398877124" lon="8.445775458033355"><ele>93.33333333333333</ele><time>2026-04-18T11:34:03Z</time></trkpt><trkpt lat="39.25210750009952" lon="8.446047053276518"><ele>92.66666666666667</ele><time>2026-04-18T11:34:04Z</time></trkpt><trkpt lat="39.25209049791112" lon="8.446315320550626"><ele>92.0</ele><time>2026-04-18T11:34:05Z</time></trkpt><trkpt lat="39.252073573678466" lon="8.446583534212168"><ele>91.33333333333334</ele><time>2026-04-18T11:34:06Z</time></trkpt><trkpt lat="39.252055605683175" lon="8.446849052686776"><ele>90.66666666666667</ele><time>2026-04-18T11:34:07Z</time></trkpt><trkpt lat="39.25203647870652" lon="8.447115858942722"><ele>90.0</ele><time>2026-04-18T11:34:08Z</time></trkpt><trkpt lat="39.252017476427966" lon="8.447381527092748"><ele>90.0</ele><time>2026-04-18T11:34:09Z</time></trkpt><trkpt lat="39.252000469244756" lon="8.447646576237382"><ele>90.0</ele><time>2026-04-18T11:34:10Z</time></trkpt><trkpt lat="39.251984859775966" lon="8.447912781309906"><ele>90.0</ele><time>2026-04-18T11:34:11Z</time></trkpt><trkpt lat="39.251972824782094" lon="8.448178228294774"><ele>90.0</ele><time>2026-04-18T11:34:12Z</time></trkpt><trkpt lat="39.25195845207818" lon="8.448448327121659"><ele>90.0</ele><time>2026-04-18T11:34:13Z</time></trkpt><trkpt lat="39.25193989866447" lon="8.448715844422617"><ele>90.0</ele><time>2026-04-18T11:34:14Z</time></trkpt><trkpt lat="39.251921191996" lon="8.448984880572059"><ele>90.0</ele><time>2026-04-18T11:34:15Z</time></trkpt><trkpt lat="39.251901836334035" lon="8.44925470880601"><ele>90.0</ele><time>2026-04-18T11:34:16Z</time></trkpt><trkpt lat="39.25188330471706" lon="8.449520224870014"><ele>90.0</ele><time>2026-04-18T11:34:17Z</time></trkpt><trkpt lat="39.25186748367347" lon="8.44978373028603"><ele>88.33333333333333</ele><time>2026-04-18T11:34:18Z</time></trkpt><trkpt lat="39.25185749017843" lon="8.450051259262835"><ele>86.66666666666666</ele><time>2026-04-18T11:34:19Z</time></trkpt><trkpt lat="39.25186717475738" lon="8.450315697559276"><ele>85.0</ele><time>2026-04-18T11:34:20Z</time></trkpt><trkpt lat="39.25190026721445" lon="8.450581389566047"><ele>83.33333333333333</ele><time>2026-04-18T11:34:21Z</time></trkpt><trkpt lat="39.25194296408155" lon="8.450845220220048"><ele>81.66666666666667</ele><time>2026-04-18T11:34:22Z</time></trkpt><trkpt lat="39.25199135097318" lon="8.451109578485516"><ele>80.0</ele><time>2026-04-18T11:34:23Z</time></trkpt><trkpt lat="39.252052831331916" lon="8.451367336475524"><ele>79.66666666666667</ele><time>2026-04-18T11:34:24Z</time></trkpt><trkpt lat="39.25212963905009" lon="8.451620403785943"><ele>79.33333333333333</ele><time>2026-04-18T11:34:25Z</time></trkpt><trkpt lat="39.25222052904129" lon="8.451869699014475"><ele>79.0</ele><time>2026-04-18T11:34:26Z</time></trkpt><trkpt lat="39.25232407363394" lon="8.452100716288587"><ele>76.66666666666666</ele><time>2026-04-18T11:34:27Z</time></trkpt><trkpt lat="39.2524442460911" lon="8.452316653641892"><ele>74.33333333333333</ele><time>2026-04-18T11:34:28Z</time></trkpt><trkpt lat="39.25257602289573" lon="8.452518577442044"><ele>72.0</ele><time>2026-04-18T11:34:29Z</time></trkpt><trkpt lat="39.25271399268153" lon="8.452706269064603"><ele>72.0</ele><time>2026-04-18T11:34:30Z</time></trkpt><trkpt lat="39.25285455647437" lon="8.452886718229024"><ele>72.0</ele><time>2026-04-18T11:34:31Z</time></trkpt><trkpt lat="39.25298783296679" lon="8.453065531263034"><ele>72.0</ele><time>2026-04-18T11:34:32Z</time></trkpt><trkpt lat="39.25311243250076" lon="8.453253426293486"><ele>73.0</ele><time>2026-04-18T11:34:33Z</time></trkpt><trkpt lat="39.25323086864856" lon="8.453443118261905"><ele>74.0</ele><time>2026-04-18T11:34:34Z</time></trkpt><trkpt lat="39.25334772214314" lon="8.453632044254878"><ele>75.0</ele><time>2026-04-18T11:34:35Z</time></trkpt><trkpt lat="39.2534609528455" lon="8.453825307724024"><ele>75.0</ele><time>2026-04-18T11:34:36Z</time></trkpt><trkpt lat="39.25356473897711" lon="8.454023899172698"><ele>75.0</ele><time>2026-04-18T11:34:37Z</time></trkpt><trkpt lat="39.25366019866637" lon="8.454226243085554"><ele>75.0</ele><time>2026-04-18T11:34:38Z</time></trkpt><trkpt lat="39.253749270979036" lon="8.454431592923255"><ele>76.33333333333333</ele><time>2026-04-18T11:34:39Z</time></trkpt><trkpt lat="39.25382996425741" lon="8.454639965495435"><ele>77.66666666666666</ele><time>2026-04-18T11:34:40Z</time></trkpt><trkpt lat="39.25390108696806" lon="8.454854776354697"><ele>79.0</ele><time>2026-04-18T11:34:41Z</time></trkpt><trkpt lat="39.25396439795223" lon="8.455073024186044"><ele>73.0</ele><time>2026-04-18T11:34:42Z</time></trkpt><trkpt lat="39.2540270635153" lon="8.455295644796552"><ele>67.0</ele><time>2026-04-18T11:34:43Z</time></trkpt><trkpt lat="39.25408283750846" lon="8.455520333137562"><ele>61.0</ele><time>2026-04-18T11:34:44Z</time></trkpt><trkpt lat="39.254129366022475" lon="8.455745160867"><ele>61.0</ele><time>2026-04-18T11:34:45Z</time></trkpt><trkpt lat="39.254171336799914" lon="8.455971270251053"><ele>61.0</ele><time>2026-04-18T11:34:46Z</time></trkpt><trkpt lat="39.2542116307149" lon="8.456197575120816"><ele>61.0</ele><time>2026-04-18T11:34:47Z</time></trkpt><trkpt lat="39.254250302458104" lon="8.456423257519674"><ele>61.33333333333333</ele><time>2026-04-18T11:34:48Z</time></trkpt><trkpt lat="39.254282829448066" lon="8.456649854601492"><ele>61.66666666666667</ele><time>2026-04-18T11:34:49Z</time></trkpt><trkpt lat="39.254307656642084" lon="8.456875638241149"><ele>62.0</ele><time>2026-04-18T11:34:50Z</time></trkpt><trkpt lat="39.25432740895659" lon="8.457094221507386"><ele>60.333333333333336</ele><time>2026-04-18T11:34:51Z</time></trkpt><trkpt lat="39.254343052012764" lon="8.457307989326752"><ele>58.66666666666667</ele><time>2026-04-18T11:34:52Z</time></trkpt><trkpt lat="39.25435865335515" lon="8.45751368972539"><ele>57.0</ele><time>2026-04-18T11:34:53Z</time></trkpt><trkpt lat="39.25437850242786" lon="8.45770674776995"><ele>57.0</ele><time>2026-04-18T11:34:54Z</time></trkpt><trkpt lat="39.25439806815863" lon="8.457885711208913"><ele>57.0</ele><time>2026-04-18T11:34:55Z</time></trkpt><trkpt lat="39.2544065238871" lon="8.458052236089133"><ele>57.0</ele><time>2026-04-18T11:34:56Z</time></trkpt><trkpt lat="39.25439630591643" lon="8.45821022376835"><ele>57.0</ele><time>2026-04-18T11:34:57Z</time></trkpt><trkpt lat="39.254369226933505" lon="8.45834565416352"><ele>55.75</ele><time>2026-04-18T11:34:58Z</time></trkpt><trkpt lat="39.25431874170737" lon="8.458461117851801"><ele>54.5</ele><time>2026-04-18T11:34:59Z</time></trkpt><trkpt lat="39.25424186952766" lon="8.458564230670403"><ele>53.25</ele><time>2026-04-18T11:35:00Z</time></trkpt><trkpt lat="39.2541483346509" lon="8.458659488598904"><ele>52.0</ele><time>2026-04-18T11:35:01Z</time></trkpt><trkpt lat="39.25403842646901" lon="8.458736281713005"><ele>51.25</ele><time>2026-04-18T11:35:02Z</time></trkpt><trkpt lat="39.25391424879869" lon="8.45877895181444"><ele>50.5</ele><time>2026-04-18T11:35:03Z</time></trkpt><trkpt lat="39.25377609164723" lon="8.458799525934554"><ele>49.75</ele><time>2026-04-18T11:35:04Z</time></trkpt><trkpt lat="39.25364039795405" lon="8.45882400846154"><ele>49.0</ele><time>2026-04-18T11:35:05Z</time></trkpt><trkpt lat="39.253505362422786" lon="8.458856526281277"><ele>49.0</ele><time>2026-04-18T11:35:06Z</time></trkpt><trkpt lat="39.253363728515765" lon="8.458891286886907"><ele>49.0</ele><time>2026-04-18T11:35:07Z</time></trkpt><trkpt lat="39.25321733877048" lon="8.458921888615105"><ele>49.0</ele><time>2026-04-18T11:35:08Z</time></trkpt><trkpt lat="39.25306563318911" lon="8.458947948457624"><ele>49.0</ele><time>2026-04-18T11:35:09Z</time></trkpt><trkpt lat="39.25290934753523" lon="8.458968031839424"><ele>49.33333333333333</ele><time>2026-04-18T11:35:10Z</time></trkpt><trkpt lat="39.25274948408243" lon="8.458978115951702"><ele>49.66666666666667</ele><time>2026-04-18T11:35:11Z</time></trkpt><trkpt lat="39.25258624966763" lon="8.458974983335176"><ele>50.0</ele><time>2026-04-18T11:35:12Z</time></trkpt><trkpt lat="39.25241970852568" lon="8.45896023615304"><ele>50.66666666666667</ele><time>2026-04-18T11:35:13Z</time></trkpt><trkpt lat="39.252251818822536" lon="8.458935584399612"><ele>51.33333333333333</ele><time>2026-04-18T11:35:14Z</time></trkpt><trkpt lat="39.2520833147584" lon="8.45889354752856"><ele>52.0</ele><time>2026-04-18T11:35:15Z</time></trkpt><trkpt lat="39.25191599164873" lon="8.458830958673516"><ele>53.0</ele><time>2026-04-18T11:35:16Z</time></trkpt><trkpt lat="39.25174654486034" lon="8.45876028315051"><ele>54.0</ele><time>2026-04-18T11:35:17Z</time></trkpt><trkpt lat="39.251574462739434" lon="8.458683877854437"><ele>55.0</ele><time>2026-04-18T11:35:18Z</time></trkpt><trkpt lat="39.25140149377499" lon="8.458604464169037"><ele>55.0</ele><time>2026-04-18T11:35:19Z</time></trkpt><trkpt lat="39.25122657533889" lon="8.458524172279384"><ele>55.0</ele><time>2026-04-18T11:35:20Z</time></trkpt><trkpt lat="39.251050354674895" lon="8.458445879482827"><ele>55.0</ele><time>2026-04-18T11:35:21Z</time></trkpt><trkpt lat="39.25087223310492" lon="8.458367024616436"><ele>55.0</ele><time>2026-04-18T11:35:22Z</time></trkpt><trkpt lat="39.25069728341688" lon="8.458283179753067"><ele>55.0</ele><time>2026-04-18T11:35:23Z</time></trkpt><trkpt lat="39.25051932759373" lon="8.458198293516135"><ele>55.0</ele><time>2026-04-18T11:35:24Z</time></trkpt><trkpt lat="39.25033905461848" lon="8.458116265101317"><ele>55.666666666666664</ele><time>2026-04-18T11:35:25Z</time></trkpt><trkpt lat="39.250159538962734" lon="8.458032042082916"><ele>56.33333333333333</ele><time>2026-04-18T11:35:26Z</time></trkpt><trkpt lat="39.249979362535875" lon="8.457945351816871"><ele>57.0</ele><time>2026-04-18T11:35:27Z</time></trkpt><trkpt lat="39.2497989658227" lon="8.457861801243137"><ele>58.33333333333333</ele><time>2026-04-18T11:35:28Z</time></trkpt><trkpt lat="39.24961731875454" lon="8.457778463919267"><ele>59.666666666666664</ele><time>2026-04-18T11:35:29Z</time></trkpt><trkpt lat="39.24943636553209" lon="8.457689693824044"><ele>61.0</ele><time>2026-04-18T11:35:30Z</time></trkpt><trkpt lat="39.24925602257557" lon="8.457601083787267"><ele>61.0</ele><time>2026-04-18T11:35:31Z</time></trkpt><trkpt lat="39.24907353814884" lon="8.457514043856394"><ele>61.0</ele><time>2026-04-18T11:35:32Z</time></trkpt><trkpt lat="39.2488896355021" lon="8.457426955600344"><ele>61.0</ele><time>2026-04-18T11:35:33Z</time></trkpt><trkpt lat="39.24870407833533" lon="8.457341633499926"><ele>61.666666666666664</ele><time>2026-04-18T11:35:34Z</time></trkpt><trkpt lat="39.248520552823116" lon="8.457265014829897"><ele>62.33333333333333</ele><time>2026-04-18T11:35:35Z</time></trkpt><trkpt lat="39.24833765252145" lon="8.45719760199182"><ele>63.0</ele><time>2026-04-18T11:35:36Z</time></trkpt><trkpt lat="39.24814893666489" lon="8.45715098635451"><ele>63.66666666666667</ele><time>2026-04-18T11:35:37Z</time></trkpt><trkpt lat="39.247959170667656" lon="8.457129629798079"><ele>64.33333333333334</ele><time>2026-04-18T11:35:38Z</time></trkpt><trkpt lat="39.24776869891643" lon="8.457127901733365"><ele>65.0</ele><time>2026-04-18T11:35:39Z</time></trkpt><trkpt lat="39.247575876155665" lon="8.457135609153427"><ele>65.0</ele><time>2026-04-18T11:35:40Z</time></trkpt><trkpt lat="39.24738481158772" lon="8.457145721555648"><ele>65.0</ele><time>2026-04-18T11:35:41Z</time></trkpt><trkpt lat="39.247192973630604" lon="8.457160785628432"><ele>65.0</ele><time>2026-04-18T11:35:42Z</time></trkpt><trkpt lat="39.24699783641214" lon="8.457182452982554"><ele>65.33333333333334</ele><time>2026-04-18T11:35:43Z</time></trkpt><trkpt lat="39.24680313310545" lon="8.457204300196558"><ele>65.66666666666667</ele><time>2026-04-18T11:35:44Z</time></trkpt><trkpt lat="39.24660788085937" lon="8.45722816292482"><ele>66.0</ele><time>2026-04-18T11:35:45Z</time></trkpt><trkpt lat="39.24641006801506" lon="8.457252364841176"><ele>66.0</ele><time>2026-04-18T11:35:46Z</time></trkpt><trkpt lat="39.24621182473254" lon="8.457277683918921"><ele>66.0</ele><time>2026-04-18T11:35:47Z</time></trkpt><trkpt lat="39.24601354522594" lon="8.45730615583045"><ele>66.0</ele><time>2026-04-18T11:35:48Z</time></trkpt><trkpt lat="39.24581163331358" lon="8.457340566016061"><ele>67.0</ele><time>2026-04-18T11:35:49Z</time></trkpt><trkpt lat="39.245610112745084" lon="8.457380944412508"><ele>68.0</ele><time>2026-04-18T11:35:50Z</time></trkpt><trkpt lat="39.245408858351304" lon="8.457427629159177"><ele>69.0</ele><time>2026-04-18T11:35:51Z</time></trkpt><trkpt lat="39.24520695674691" lon="8.457478510395509"><ele>69.0</ele><time>2026-04-18T11:35:52Z</time></trkpt><trkpt lat="39.24500346525089" lon="8.457534087015508"><ele>69.0</ele><time>2026-04-18T11:35:53Z</time></trkpt><trkpt lat="39.244801894103" lon="8.457586924572071"><ele>69.0</ele><time>2026-04-18T11:35:54Z</time></trkpt><trkpt lat="39.24459686166891" lon="8.457639191075579"><ele>71.0</ele><time>2026-04-18T11:35:55Z</time></trkpt><trkpt lat="39.2443921152999" lon="8.457693563030826"><ele>73.0</ele><time>2026-04-18T11:35:56Z</time></trkpt><trkpt lat="39.24398775202189" lon="8.457811512058822"><ele>74.0</ele><time>2026-04-18T11:35:58Z</time></trkpt><trkpt lat="39.24378857964096" lon="8.45787194715077"><ele>75.0</ele><time>2026-04-18T11:35:59Z</time></trkpt><trkpt lat="39.243599288826275" lon="8.457926095966899"><ele>76.0</ele><time>2026-04-18T11:36:00Z</time></trkpt><trkpt lat="39.243414185274275" lon="8.457978475376613"><ele>76.0</ele><time>2026-04-18T11:36:01Z</time></trkpt><trkpt lat="39.24324129427537" lon="8.45802736604532"><ele>76.0</ele><time>2026-04-18T11:36:02Z</time></trkpt><trkpt lat="39.243073301584204" lon="8.45807378083421"><ele>76.0</ele><time>2026-04-18T11:36:03Z</time></trkpt><trkpt lat="39.242912627557146" lon="8.458117469745465"><ele>77.0</ele><time>2026-04-18T11:36:04Z</time></trkpt><trkpt lat="39.24276209164394" lon="8.458159880884653"><ele>78.0</ele><time>2026-04-18T11:36:05Z</time></trkpt><trkpt lat="39.242618300315954" lon="8.458197217622148"><ele>79.0</ele><time>2026-04-18T11:36:06Z</time></trkpt><trkpt lat="39.24249155907892" lon="8.458218795946724"><ele>80.0</ele><time>2026-04-18T11:36:07Z</time></trkpt><trkpt lat="39.242378666549136" lon="8.458218259129024"><ele>80.4</ele><time>2026-04-18T11:36:08Z</time></trkpt><trkpt lat="39.2422761534" lon="8.458207069361713"><ele>80.8</ele><time>2026-04-18T11:36:09Z</time></trkpt><trkpt lat="39.242171983754965" lon="8.45820423629692"><ele>81.19999999999999</ele><time>2026-04-18T11:36:10Z</time></trkpt><trkpt lat="39.242068596129386" lon="8.458238135526202"><ele>81.6</ele><time>2026-04-18T11:36:11Z</time></trkpt><trkpt lat="39.24196599543825" lon="8.458317461120286"><ele>82.0</ele><time>2026-04-18T11:36:12Z</time></trkpt><trkpt lat="39.24186277180539" lon="8.458406303801567"><ele>82.0</ele><time>2026-04-18T11:36:13Z</time></trkpt><trkpt lat="39.24174036975632" lon="8.458463937119149"><ele>82.0</ele><time>2026-04-18T11:36:14Z</time></trkpt><trkpt lat="39.24160162510832" lon="8.458500729579486"><ele>82.0</ele><time>2026-04-18T11:36:15Z</time></trkpt><trkpt lat="39.24145420687703" lon="8.458537697506827"><ele>82.0</ele><time>2026-04-18T11:36:16Z</time></trkpt><trkpt lat="39.24130215588431" lon="8.45858087889406"><ele>82.0</ele><time>2026-04-18T11:36:17Z</time></trkpt><trkpt lat="39.24114340968754" lon="8.458631992931172"><ele>82.0</ele><time>2026-04-18T11:36:18Z</time></trkpt><trkpt lat="39.240983078851" lon="8.458683206398817"><ele>82.0</ele><time>2026-04-18T11:36:19Z</time></trkpt><trkpt lat="39.240815844074476" lon="8.458729735851588"><ele>82.0</ele><time>2026-04-18T11:36:20Z</time></trkpt><trkpt lat="39.240636502300674" lon="8.458780125467625"><ele>82.0</ele><time>2026-04-18T11:36:21Z</time></trkpt><trkpt lat="39.24045710604144" lon="8.458831695105202"><ele>82.0</ele><time>2026-04-18T11:36:22Z</time></trkpt><trkpt lat="39.240275640077144" lon="8.458884379916237"><ele>83.66666666666666</ele><time>2026-04-18T11:36:23Z</time></trkpt><trkpt lat="39.240085182526734" lon="8.45893740936899"><ele>85.33333333333333</ele><time>2026-04-18T11:36:24Z</time></trkpt><trkpt lat="39.23989538359617" lon="8.458991245816089"><ele>87.0</ele><time>2026-04-18T11:36:25Z</time></trkpt><trkpt lat="39.23970412997155" lon="8.459049125686978"><ele>87.66666666666667</ele><time>2026-04-18T11:36:26Z</time></trkpt><trkpt lat="39.23951624834271" lon="8.459106511809743"><ele>88.33333333333334</ele><time>2026-04-18T11:36:27Z</time></trkpt><trkpt lat="39.2393266159072" lon="8.459161110110804"><ele>89.0</ele><time>2026-04-18T11:36:28Z</time></trkpt><trkpt lat="39.23913546708401" lon="8.459212219511949"><ele>90.0</ele><time>2026-04-18T11:36:29Z</time></trkpt><trkpt lat="39.23894393088121" lon="8.459261566517194"><ele>91.0</ele><time>2026-04-18T11:36:30Z</time></trkpt><trkpt lat="39.23875254125469" lon="8.45931612028118"><ele>92.0</ele><time>2026-04-18T11:36:31Z</time></trkpt><trkpt lat="39.23856114834735" lon="8.459375381302815"><ele>92.0</ele><time>2026-04-18T11:36:32Z</time></trkpt><trkpt lat="39.23836741366177" lon="8.45943552784443"><ele>92.0</ele><time>2026-04-18T11:36:33Z</time></trkpt><trkpt lat="39.2381721445244" lon="8.459495402386093"><ele>92.0</ele><time>2026-04-18T11:36:34Z</time></trkpt><trkpt lat="39.23797738482348" lon="8.459552177619825"><ele>93.0</ele><time>2026-04-18T11:36:35Z</time></trkpt><trkpt lat="39.23777953435642" lon="8.459606263378324"><ele>94.0</ele><time>2026-04-18T11:36:36Z</time></trkpt><trkpt lat="39.23758065184835" lon="8.459661633954548"><ele>95.0</ele><time>2026-04-18T11:36:37Z</time></trkpt><trkpt lat="39.237383943016866" lon="8.459719887368127"><ele>95.66666666666667</ele><time>2026-04-18T11:36:38Z</time></trkpt><trkpt lat="39.23718634108526" lon="8.459780755514183"><ele>96.33333333333334</ele><time>2026-04-18T11:36:39Z</time></trkpt><trkpt lat="39.236987786501075" lon="8.45983703588934"><ele>97.0</ele><time>2026-04-18T11:36:40Z</time></trkpt><trkpt lat="39.23678685627109" lon="8.459891376422526"><ele>97.0</ele><time>2026-04-18T11:36:41Z</time></trkpt><trkpt lat="39.23658709620816" lon="8.4599491692981"><ele>97.0</ele><time>2026-04-18T11:36:42Z</time></trkpt><trkpt lat="39.236386211262776" lon="8.460009617258496"><ele>97.0</ele><time>2026-04-18T11:36:43Z</time></trkpt><trkpt lat="39.23618503306953" lon="8.460067831292157"><ele>97.66666666666667</ele><time>2026-04-18T11:36:44Z</time></trkpt><trkpt lat="39.23598291502582" lon="8.460125876360474"><ele>98.33333333333334</ele><time>2026-04-18T11:36:45Z</time></trkpt><trkpt lat="39.235780924499224" lon="8.460183803911573"><ele>99.0</ele><time>2026-04-18T11:36:46Z</time></trkpt><trkpt lat="39.2355792750833" lon="8.460239563492225"><ele>100.66666666666666</ele><time>2026-04-18T11:36:47Z</time></trkpt><trkpt lat="39.235376912412676" lon="8.460296176342302"><ele>102.33333333333333</ele><time>2026-04-18T11:36:48Z</time></trkpt><trkpt lat="39.235174687933394" lon="8.460352307460221"><ele>104.0</ele><time>2026-04-18T11:36:49Z</time></trkpt><trkpt lat="39.234972328759625" lon="8.460409560749893"><ele>104.33333333333333</ele><time>2026-04-18T11:36:50Z</time></trkpt><trkpt lat="39.234774189295116" lon="8.460474797862863"><ele>104.66666666666666</ele><time>2026-04-18T11:36:51Z</time></trkpt><trkpt lat="39.234581273663025" lon="8.460557904273339"><ele>105.0</ele><time>2026-04-18T11:36:52Z</time></trkpt><trkpt lat="39.23439150102651" lon="8.460657709018857"><ele>105.0</ele><time>2026-04-18T11:36:53Z</time></trkpt><trkpt lat="39.234209510146556" lon="8.460773706299511"><ele>105.0</ele><time>2026-04-18T11:36:54Z</time></trkpt><trkpt lat="39.234032077621144" lon="8.460914784340797"><ele>105.0</ele><time>2026-04-18T11:36:55Z</time></trkpt><trkpt lat="39.23386800964364" lon="8.461075177653644"><ele>106.66666666666666</ele><time>2026-04-18T11:36:56Z</time></trkpt><trkpt lat="39.233708251718326" lon="8.461254113952164"><ele>108.33333333333333</ele><time>2026-04-18T11:36:57Z</time></trkpt><trkpt lat="39.233558295434804" lon="8.46144533835888"><ele>110.0</ele><time>2026-04-18T11:36:58Z</time></trkpt><trkpt lat="39.23341103762569" lon="8.461648607604369"><ele>110.0</ele><time>2026-04-18T11:36:59Z</time></trkpt><trkpt lat="39.23326214983282" lon="8.461860036255645"><ele>110.0</ele><time>2026-04-18T11:37:00Z</time></trkpt><trkpt lat="39.23310779501053" lon="8.462074537212017"><ele>110.0</ele><time>2026-04-18T11:37:01Z</time></trkpt><trkpt lat="39.23294856173171" lon="8.462291339922489"><ele>112.66666666666666</ele><time>2026-04-18T11:37:02Z</time></trkpt><trkpt lat="39.232840970455165" lon="8.462437964159"><ele>115.33333333333334</ele><time>2026-04-18T11:37:03Z</time></trkpt><trkpt lat="39.232705790602" lon="8.462633484142806"><ele>118.0</ele><time>2026-04-18T11:37:04Z</time></trkpt><trkpt lat="39.232578572312185" lon="8.462821996010069"><ele>119.33333333333334</ele><time>2026-04-18T11:37:05Z</time></trkpt><trkpt lat="39.23245560104669" lon="8.462991803948016"><ele>120.66666666666666</ele><time>2026-04-18T11:37:06Z</time></trkpt><trkpt lat="39.232337640896354" lon="8.463145155960538"><ele>122.0</ele><time>2026-04-18T11:37:07Z</time></trkpt><trkpt lat="39.23222434788334" lon="8.463281137393295"><ele>122.0</ele><time>2026-04-18T11:37:08Z</time></trkpt><trkpt lat="39.23211534648261" lon="8.463399386745722"><ele>122.0</ele><time>2026-04-18T11:37:09Z</time></trkpt><trkpt lat="39.232013673434956" lon="8.463500544033877"><ele>122.0</ele><time>2026-04-18T11:37:10Z</time></trkpt><trkpt lat="39.23191831557504" lon="8.463579359879812"><ele>122.0</ele><time>2026-04-18T11:37:11Z</time></trkpt><trkpt lat="39.231822770338134" lon="8.463634667783976"><ele>122.0</ele><time>2026-04-18T11:37:12Z</time></trkpt><trkpt lat="39.23172118079584" lon="8.463679138033303"><ele>122.0</ele><time>2026-04-18T11:37:13Z</time></trkpt><trkpt lat="39.23162241105472" lon="8.463751141962279"><ele>122.0</ele><time>2026-04-18T11:37:14Z</time></trkpt><trkpt lat="39.231538295026375" lon="8.463865857257636"><ele>122.0</ele><time>2026-04-18T11:37:15Z</time></trkpt><trkpt lat="39.231460963444384" lon="8.464012768965285"><ele>122.33333333333333</ele><time>2026-04-18T11:37:16Z</time></trkpt><trkpt lat="39.231362842450494" lon="8.464140488607459"><ele>122.66666666666666</ele><time>2026-04-18T11:37:17Z</time></trkpt><trkpt lat="39.231229363837286" lon="8.464235793336252"><ele>123.0</ele><time>2026-04-18T11:37:18Z</time></trkpt><trkpt lat="39.231079657818384" lon="8.464318007874565"><ele>123.0</ele><time>2026-04-18T11:37:19Z</time></trkpt><trkpt lat="39.230935474529005" lon="8.464409381879392"><ele>123.0</ele><time>2026-04-18T11:37:20Z</time></trkpt><trkpt lat="39.23078227422714" lon="8.46450879061224"><ele>123.0</ele><time>2026-04-18T11:37:21Z</time></trkpt><trkpt lat="39.23061773844117" lon="8.464596978842005"><ele>122.66666666666666</ele><time>2026-04-18T11:37:22Z</time></trkpt><trkpt lat="39.23043904072701" lon="8.464654613248609"><ele>122.33333333333333</ele><time>2026-04-18T11:37:23Z</time></trkpt><trkpt lat="39.23025688031398" lon="8.46472060412754"><ele>122.0</ele><time>2026-04-18T11:37:24Z</time></trkpt><trkpt lat="39.23006551622952" lon="8.464789468450856"><ele>122.0</ele><time>2026-04-18T11:37:25Z</time></trkpt><trkpt lat="39.2298835931487" lon="8.46483736901994"><ele>122.0</ele><time>2026-04-18T11:37:26Z</time></trkpt><trkpt lat="39.22970471898239" lon="8.464878834237236"><ele>122.0</ele><time>2026-04-18T11:37:27Z</time></trkpt><trkpt lat="39.2295213536846" lon="8.464918280581692"><ele>122.0</ele><time>2026-04-18T11:37:28Z</time></trkpt><trkpt lat="39.22933745065782" lon="8.464954459801124"><ele>122.0</ele><time>2026-04-18T11:37:29Z</time></trkpt><trkpt lat="39.22914968720506" lon="8.464991600443701"><ele>122.0</ele><time>2026-04-18T11:37:30Z</time></trkpt><trkpt lat="39.22895828098081" lon="8.465033551181643"><ele>122.0</ele><time>2026-04-18T11:37:31Z</time></trkpt><trkpt lat="39.22876638518173" lon="8.465079682187937"><ele>122.0</ele><time>2026-04-18T11:37:32Z</time></trkpt><trkpt lat="39.22856978896724" lon="8.465125016325668"><ele>122.0</ele><time>2026-04-18T11:37:33Z</time></trkpt><trkpt lat="39.228366825335286" lon="8.465167314012252"><ele>122.0</ele><time>2026-04-18T11:37:34Z</time></trkpt><trkpt lat="39.228162326779454" lon="8.465208916917348"><ele>122.0</ele><time>2026-04-18T11:37:35Z</time></trkpt><trkpt lat="39.22795356330231" lon="8.465253149806179"><ele>122.0</ele><time>2026-04-18T11:37:36Z</time></trkpt><trkpt lat="39.227741321909306" lon="8.465301811826842"><ele>121.33333333333333</ele><time>2026-04-18T11:37:37Z</time></trkpt><trkpt lat="39.22752638697053" lon="8.465350063114432"><ele>120.66666666666666</ele><time>2026-04-18T11:37:38Z</time></trkpt><trkpt lat="39.22730747206278" lon="8.465396335819579"><ele>120.0</ele><time>2026-04-18T11:37:39Z</time></trkpt><trkpt lat="39.22708894032199" lon="8.465441102743878"><ele>120.66666666666666</ele><time>2026-04-18T11:37:40Z</time></trkpt><trkpt lat="39.22686952663615" lon="8.465485193628503"><ele>121.33333333333333</ele><time>2026-04-18T11:37:41Z</time></trkpt><trkpt lat="39.22665182438301" lon="8.465530978204098"><ele>122.0</ele><time>2026-04-18T11:37:42Z</time></trkpt><trkpt lat="39.22643322145073" lon="8.46557859559417"><ele>120.66666666666666</ele><time>2026-04-18T11:37:43Z</time></trkpt><trkpt lat="39.226216081067" lon="8.46562862323677"><ele>119.33333333333334</ele><time>2026-04-18T11:37:44Z</time></trkpt><trkpt lat="39.22600196011359" lon="8.465677287093454"><ele>118.0</ele><time>2026-04-18T11:37:45Z</time></trkpt><trkpt lat="39.225789428375684" lon="8.465724005732786"><ele>117.33333333333334</ele><time>2026-04-18T11:37:46Z</time></trkpt><trkpt lat="39.2255783052569" lon="8.46576572666149"><ele>116.66666666666666</ele><time>2026-04-18T11:37:47Z</time></trkpt><trkpt lat="39.22537329537265" lon="8.465808662069527"><ele>116.0</ele><time>2026-04-18T11:37:48Z</time></trkpt><trkpt lat="39.22517208891545" lon="8.465850958244047"><ele>116.0</ele><time>2026-04-18T11:37:49Z</time></trkpt><trkpt lat="39.22497300333603" lon="8.465898585383925"><ele>116.0</ele><time>2026-04-18T11:37:50Z</time></trkpt><trkpt lat="39.224772336221676" lon="8.465941489026147"><ele>116.0</ele><time>2026-04-18T11:37:51Z</time></trkpt><trkpt lat="39.22457124067851" lon="8.465984747861485"><ele>115.33333333333333</ele><time>2026-04-18T11:37:52Z</time></trkpt><trkpt lat="39.224370963206276" lon="8.46602507531717"><ele>114.66666666666666</ele><time>2026-04-18T11:37:53Z</time></trkpt><trkpt lat="39.22416936889415" lon="8.466067352960925"><ele>114.0</ele><time>2026-04-18T11:37:54Z</time></trkpt><trkpt lat="39.223964719433596" lon="8.466110702022288"><ele>113.66666666666666</ele><time>2026-04-18T11:37:55Z</time></trkpt><trkpt lat="39.22375991636417" lon="8.466157097261805"><ele>113.33333333333333</ele><time>2026-04-18T11:37:56Z</time></trkpt><trkpt lat="39.22355280089451" lon="8.466203511575499"><ele>113.0</ele><time>2026-04-18T11:37:57Z</time></trkpt><trkpt lat="39.22334320159703" lon="8.466248543300974"><ele>113.33333333333333</ele><time>2026-04-18T11:37:58Z</time></trkpt><trkpt lat="39.22312941456887" lon="8.466291930211694"><ele>113.66666666666666</ele><time>2026-04-18T11:37:59Z</time></trkpt><trkpt lat="39.222916725675766" lon="8.466338627126554"><ele>114.0</ele><time>2026-04-18T11:38:00Z</time></trkpt><trkpt lat="39.22270585262445" lon="8.46639220883986"><ele>114.0</ele><time>2026-04-18T11:38:01Z</time></trkpt><trkpt lat="39.2224972869991" lon="8.466454131792688"><ele>114.0</ele><time>2026-04-18T11:38:02Z</time></trkpt><trkpt lat="39.22229318088927" lon="8.466521250816783"><ele>114.0</ele><time>2026-04-18T11:38:03Z</time></trkpt><trkpt lat="39.2220902244941" lon="8.466593091169928"><ele>112.0</ele><time>2026-04-18T11:38:04Z</time></trkpt><trkpt lat="39.221890283752195" lon="8.46667035186798"><ele>110.0</ele><time>2026-04-18T11:38:05Z</time></trkpt><trkpt lat="39.221691905523556" lon="8.46675422640893"><ele>108.0</ele><time>2026-04-18T11:38:06Z</time></trkpt><trkpt lat="39.22149747015627" lon="8.466842892002372"><ele>107.66666666666666</ele><time>2026-04-18T11:38:07Z</time></trkpt><trkpt lat="39.22129863388223" lon="8.466935978025711"><ele>107.33333333333333</ele><time>2026-04-18T11:38:08Z</time></trkpt><trkpt lat="39.22110127869511" lon="8.467026107316727"><ele>107.0</ele><time>2026-04-18T11:38:09Z</time></trkpt><trkpt lat="39.22090065687215" lon="8.467116125423837"><ele>107.0</ele><time>2026-04-18T11:38:10Z</time></trkpt><trkpt lat="39.220699117263315" lon="8.467207423020488"><ele>107.0</ele><time>2026-04-18T11:38:11Z</time></trkpt><trkpt lat="39.22050459568616" lon="8.467296669739298"><ele>107.0</ele><time>2026-04-18T11:38:12Z</time></trkpt><trkpt lat="39.22031262864825" lon="8.467386030802652"><ele>106.0</ele><time>2026-04-18T11:38:13Z</time></trkpt><trkpt lat="39.220121184440416" lon="8.467476715369436"><ele>105.0</ele><time>2026-04-18T11:38:14Z</time></trkpt><trkpt lat="39.21993269467872" lon="8.467561653281384"><ele>104.0</ele><time>2026-04-18T11:38:15Z</time></trkpt><trkpt lat="39.21974446658049" lon="8.467644234315744"><ele>103.33333333333333</ele><time>2026-04-18T11:38:16Z</time></trkpt><trkpt lat="39.21956276358587" lon="8.467724480263602"><ele>102.66666666666666</ele><time>2026-04-18T11:38:17Z</time></trkpt><trkpt lat="39.21938700203961" lon="8.467805833685237"><ele>102.0</ele><time>2026-04-18T11:38:18Z</time></trkpt><trkpt lat="39.21921801451774" lon="8.467883274282638"><ele>102.33333333333334</ele><time>2026-04-18T11:38:19Z</time></trkpt><trkpt lat="39.21905554624745" lon="8.467958642165996"><ele>102.66666666666667</ele><time>2026-04-18T11:38:20Z</time></trkpt><trkpt lat="39.21889861222352" lon="8.46803423484003"><ele>103.0</ele><time>2026-04-18T11:38:21Z</time></trkpt><trkpt lat="39.21874491909286" lon="8.468110795949483"><ele>103.0</ele><time>2026-04-18T11:38:22Z</time></trkpt><trkpt lat="39.218575537799445" lon="8.468172631758737"><ele>103.0</ele><time>2026-04-18T11:38:23Z</time></trkpt><trkpt lat="39.218399159036345" lon="8.468253110682605"><ele>103.0</ele><time>2026-04-18T11:38:24Z</time></trkpt><trkpt lat="39.218213238196945" lon="8.468337943544874"><ele>102.33333333333334</ele><time>2026-04-18T11:38:25Z</time></trkpt><trkpt lat="39.218013139307445" lon="8.46842933615792"><ele>101.66666666666666</ele><time>2026-04-18T11:38:26Z</time></trkpt><trkpt lat="39.21781031344368" lon="8.468544432340687"><ele>101.0</ele><time>2026-04-18T11:38:27Z</time></trkpt><trkpt lat="39.21759605541224" lon="8.468631078436369"><ele>101.0</ele><time>2026-04-18T11:38:28Z</time></trkpt><trkpt lat="39.217389765387004" lon="8.468722732430654"><ele>101.0</ele><time>2026-04-18T11:38:29Z</time></trkpt><trkpt lat="39.21718380312932" lon="8.468819803893169"><ele>101.0</ele><time>2026-04-18T11:38:30Z</time></trkpt><trkpt lat="39.21697648106197" lon="8.468916671607326"><ele>100.66666666666666</ele><time>2026-04-18T11:38:31Z</time></trkpt><trkpt lat="39.216766142580575" lon="8.469012670432274"><ele>100.33333333333334</ele><time>2026-04-18T11:38:32Z</time></trkpt><trkpt lat="39.216554890254805" lon="8.469109019642794"><ele>100.0</ele><time>2026-04-18T11:38:33Z</time></trkpt><trkpt lat="39.21634248855989" lon="8.469206731094603"><ele>98.66666666666667</ele><time>2026-04-18T11:38:34Z</time></trkpt><trkpt lat="39.216131247577614" lon="8.469299226498729"><ele>97.33333333333334</ele><time>2026-04-18T11:38:35Z</time></trkpt><trkpt lat="39.215923993196796" lon="8.469387628351086"><ele>96.0</ele><time>2026-04-18T11:38:36Z</time></trkpt><trkpt lat="39.215724240903896" lon="8.46947573418563"><ele>95.33333333333333</ele><time>2026-04-18T11:38:37Z</time></trkpt><trkpt lat="39.21553062016839" lon="8.469566372736285"><ele>94.66666666666666</ele><time>2026-04-18T11:38:38Z</time></trkpt><trkpt lat="39.215343410718205" lon="8.469655401896484"><ele>94.0</ele><time>2026-04-18T11:38:39Z</time></trkpt><trkpt lat="39.215161478484504" lon="8.469739681427255"><ele>94.0</ele><time>2026-04-18T11:38:40Z</time></trkpt><trkpt lat="39.214985572903736" lon="8.469819806844948"><ele>94.0</ele><time>2026-04-18T11:38:41Z</time></trkpt><trkpt lat="39.21481442921141" lon="8.469898175150764"><ele>94.0</ele><time>2026-04-18T11:38:42Z</time></trkpt><trkpt lat="39.2146500869708" lon="8.469974267658394"><ele>93.33333333333333</ele><time>2026-04-18T11:38:43Z</time></trkpt><trkpt lat="39.21449181325735" lon="8.470048891728482"><ele>92.66666666666667</ele><time>2026-04-18T11:38:44Z</time></trkpt><trkpt lat="39.214339934998556" lon="8.47011977178778"><ele>92.0</ele><time>2026-04-18T11:38:45Z</time></trkpt><trkpt lat="39.214192244702986" lon="8.470186586547115"><ele>92.0</ele><time>2026-04-18T11:38:46Z</time></trkpt><trkpt lat="39.21405251733535" lon="8.47024561804353"><ele>92.0</ele><time>2026-04-18T11:38:47Z</time></trkpt><trkpt lat="39.21391431143072" lon="8.470300352671433"><ele>92.0</ele><time>2026-04-18T11:38:48Z</time></trkpt><trkpt lat="39.213783108873024" lon="8.470352783826847"><ele>92.0</ele><time>2026-04-18T11:38:49Z</time></trkpt><trkpt lat="39.21366147577987" lon="8.47040893416663"><ele>91.8</ele><time>2026-04-18T11:38:50Z</time></trkpt><trkpt lat="39.21354675833127" lon="8.47046330188963"><ele>91.6</ele><time>2026-04-18T11:38:51Z</time></trkpt><trkpt lat="39.21343843707054" lon="8.470514504098281"><ele>91.39999999999999</ele><time>2026-04-18T11:38:52Z</time></trkpt><trkpt lat="39.21333875234382" lon="8.470562482061258"><ele>91.19999999999999</ele><time>2026-04-18T11:38:53Z</time></trkpt><trkpt lat="39.21324289029044" lon="8.470607120167035"><ele>91.0</ele><time>2026-04-18T11:38:54Z</time></trkpt><trkpt lat="39.21315831939328" lon="8.470641872064034"><ele>90.5</ele><time>2026-04-18T11:38:55Z</time></trkpt><trkpt lat="39.21308009567207" lon="8.470673952897128"><ele>90.0</ele><time>2026-04-18T11:38:56Z</time></trkpt><trkpt lat="39.21301515466176" lon="8.470696904413627"><ele>89.5</ele><time>2026-04-18T11:38:57Z</time></trkpt><trkpt lat="39.212939427015655" lon="8.470730226219146"><ele>89.0</ele><time>2026-04-18T11:38:59Z</time></trkpt><trkpt lat="39.212837720346805" lon="8.470783488188362"><ele>88.5</ele><time>2026-04-18T11:39:44Z</time></trkpt><trkpt lat="39.212772490447804" lon="8.470813391284034"><ele>88.0</ele><time>2026-04-18T11:39:45Z</time></trkpt><trkpt lat="39.21269525401137" lon="8.470850201842758"><ele>88.0</ele><time>2026-04-18T11:39:46Z</time></trkpt><trkpt lat="39.212622886635685" lon="8.47088652336857"><ele>88.0</ele><time>2026-04-18T11:39:47Z</time></trkpt><trkpt lat="39.212548529024474" lon="8.47092369811911"><ele>88.0</ele><time>2026-04-18T11:39:48Z</time></trkpt><trkpt lat="39.21246282797286" lon="8.470963832088128"><ele>88.0</ele><time>2026-04-18T11:39:49Z</time></trkpt><trkpt lat="39.212362128057336" lon="8.471007722052104"><ele>88.0</ele><time>2026-04-18T11:39:50Z</time></trkpt><trkpt lat="39.21225044747701" lon="8.471059891617324"><ele>87.25</ele><time>2026-04-18T11:39:51Z</time></trkpt><trkpt lat="39.21212852388313" lon="8.471119306387612"><ele>86.5</ele><time>2026-04-18T11:39:52Z</time></trkpt><trkpt lat="39.21199847492936" lon="8.471180387480638"><ele>85.75</ele><time>2026-04-18T11:39:53Z</time></trkpt><trkpt lat="39.211865266454765" lon="8.47123953407512"><ele>85.0</ele><time>2026-04-18T11:39:54Z</time></trkpt><trkpt lat="39.21172810829318" lon="8.471300319927655"><ele>85.0</ele><time>2026-04-18T11:39:55Z</time></trkpt><trkpt lat="39.211583509409294" lon="8.471366346687873"><ele>85.0</ele><time>2026-04-18T11:39:56Z</time></trkpt><trkpt lat="39.21143334237928" lon="8.471436924666083"><ele>85.0</ele><time>2026-04-18T11:39:57Z</time></trkpt><trkpt lat="39.21127680754731" lon="8.471510477505038"><ele>84.33333333333333</ele><time>2026-04-18T11:39:58Z</time></trkpt><trkpt lat="39.2111106597932" lon="8.471589177547628"><ele>83.66666666666667</ele><time>2026-04-18T11:39:59Z</time></trkpt><trkpt lat="39.210941536237115" lon="8.471669270671736"><ele>83.0</ele><time>2026-04-18T11:40:00Z</time></trkpt><trkpt lat="39.210770913197" lon="8.471748644397408"><ele>82.33333333333334</ele><time>2026-04-18T11:40:01Z</time></trkpt><trkpt lat="39.210598622039875" lon="8.471828665090184"><ele>81.66666666666667</ele><time>2026-04-18T11:40:02Z</time></trkpt><trkpt lat="39.210419034986685" lon="8.47190931774116"><ele>81.0</ele><time>2026-04-18T11:40:03Z</time></trkpt><trkpt lat="39.21023685515233" lon="8.47199036616348"><ele>81.0</ele><time>2026-04-18T11:40:04Z</time></trkpt><trkpt lat="39.21005112975358" lon="8.472073289556459"><ele>81.0</ele><time>2026-04-18T11:40:05Z</time></trkpt><trkpt lat="39.209862160513715" lon="8.472158979686835"><ele>81.0</ele><time>2026-04-18T11:40:06Z</time></trkpt><trkpt lat="39.20966734907689" lon="8.472248451151783"><ele>80.66666666666667</ele><time>2026-04-18T11:40:07Z</time></trkpt><trkpt lat="39.20946985081648" lon="8.472337799313594"><ele>80.33333333333334</ele><time>2026-04-18T11:40:08Z</time></trkpt><trkpt lat="39.20926971289643" lon="8.472429100629425"><ele>80.0</ele><time>2026-04-18T11:40:09Z</time></trkpt><trkpt lat="39.209067961415165" lon="8.47252098283529"><ele>79.33333333333334</ele><time>2026-04-18T11:40:10Z</time></trkpt><trkpt lat="39.20886403948426" lon="8.472612711179526"><ele>78.66666666666667</ele><time>2026-04-18T11:40:11Z</time></trkpt><trkpt lat="39.20865543077821" lon="8.472707137206413"><ele>78.0</ele><time>2026-04-18T11:40:12Z</time></trkpt><trkpt lat="39.20844528795717" lon="8.472803809580734"><ele>78.0</ele><time>2026-04-18T11:40:13Z</time></trkpt><trkpt lat="39.208233443463136" lon="8.472901132680574"><ele>78.0</ele><time>2026-04-18T11:40:14Z</time></trkpt><trkpt lat="39.20802005385823" lon="8.472999126800667"><ele>77.5</ele><time>2026-04-18T11:40:15Z</time></trkpt><trkpt lat="39.2078046865875" lon="8.47309851015988"><ele>77.0</ele><time>2026-04-18T11:40:16Z</time></trkpt><trkpt lat="39.20758464001427" lon="8.473198263204948"><ele>77.0</ele><time>2026-04-18T11:40:17Z</time></trkpt><trkpt lat="39.20736471326985" lon="8.473297176976311"><ele>77.0</ele><time>2026-04-18T11:40:18Z</time></trkpt><trkpt lat="39.207142526469916" lon="8.473398351245178"><ele>76.0</ele><time>2026-04-18T11:40:19Z</time></trkpt><trkpt lat="39.206919603737866" lon="8.473500053153348"><ele>75.0</ele><time>2026-04-18T11:40:20Z</time></trkpt><trkpt lat="39.20669772258503" lon="8.473600265869283"><ele>74.0</ele><time>2026-04-18T11:40:21Z</time></trkpt><trkpt lat="39.20647674741463" lon="8.473700085743593"><ele>73.0</ele><time>2026-04-18T11:40:22Z</time></trkpt><trkpt lat="39.20625464311785" lon="8.473801636971688"><ele>73.0</ele><time>2026-04-18T11:40:23Z</time></trkpt><trkpt lat="39.206034529850164" lon="8.4739035197607"><ele>73.0</ele><time>2026-04-18T11:40:24Z</time></trkpt><trkpt lat="39.20581134593358" lon="8.474005453188603"><ele>70.5</ele><time>2026-04-18T11:40:25Z</time></trkpt><trkpt lat="39.20559012385437" lon="8.474106515614976"><ele>68.0</ele><time>2026-04-18T11:40:26Z</time></trkpt><trkpt lat="39.205366565835874" lon="8.474209706126956"><ele>68.0</ele><time>2026-04-18T11:40:27Z</time></trkpt><trkpt lat="39.205142852345936" lon="8.474313214417565"><ele>68.0</ele><time>2026-04-18T11:40:28Z</time></trkpt><trkpt lat="39.204921096475104" lon="8.474416893309415"><ele>66.5</ele><time>2026-04-18T11:40:29Z</time></trkpt><trkpt lat="39.204698939407066" lon="8.474519343358565"><ele>65.0</ele><time>2026-04-18T11:40:30Z</time></trkpt><trkpt lat="39.20447399503865" lon="8.474621205098678"><ele>65.0</ele><time>2026-04-18T11:40:31Z</time></trkpt><trkpt lat="39.20425336759109" lon="8.474720260095074"><ele>65.0</ele><time>2026-04-18T11:40:32Z</time></trkpt><trkpt lat="39.20403058486033" lon="8.474821199367558"><ele>64.5</ele><time>2026-04-18T11:40:33Z</time></trkpt><trkpt lat="39.20380696900261" lon="8.474922632561034"><ele>64.0</ele><time>2026-04-18T11:40:34Z</time></trkpt><trkpt lat="39.20358403173791" lon="8.475022747962733"><ele>64.0</ele><time>2026-04-18T11:40:35Z</time></trkpt><trkpt lat="39.20336258118831" lon="8.475123533777854"><ele>64.0</ele><time>2026-04-18T11:40:36Z</time></trkpt><trkpt lat="39.203140124254574" lon="8.475224971397495"><ele>62.5</ele><time>2026-04-18T11:40:37Z</time></trkpt><trkpt lat="39.202917234612244" lon="8.475324776980925"><ele>61.0</ele><time>2026-04-18T11:40:38Z</time></trkpt><trkpt lat="39.202699006964856" lon="8.475418306092216"><ele>62.0</ele><time>2026-04-18T11:40:39Z</time></trkpt><trkpt lat="39.20248113877017" lon="8.475501332324983"><ele>63.0</ele><time>2026-04-18T11:40:40Z</time></trkpt><trkpt lat="39.202251053013924" lon="8.475577333554577"><ele>63.0</ele><time>2026-04-18T11:40:41Z</time></trkpt><trkpt lat="39.20202732427547" lon="8.47564760468284"><ele>63.0</ele><time>2026-04-18T11:40:42Z</time></trkpt><trkpt lat="39.20180463577283" lon="8.475714023164372"><ele>63.0</ele><time>2026-04-18T11:40:43Z</time></trkpt><trkpt lat="39.20158589931162" lon="8.47577246887476"><ele>63.0</ele><time>2026-04-18T11:40:44Z</time></trkpt><trkpt lat="39.20137177049716" lon="8.475824607753328"><ele>63.0</ele><time>2026-04-18T11:40:45Z</time></trkpt><trkpt lat="39.201160355363676" lon="8.47587390952732"><ele>61.66666666666667</ele><time>2026-04-18T11:40:46Z</time></trkpt><trkpt lat="39.20095369968485" lon="8.475921751770795"><ele>60.333333333333336</ele><time>2026-04-18T11:40:47Z</time></trkpt><trkpt lat="39.20075849642083" lon="8.475970622193069"><ele>59.0</ele><time>2026-04-18T11:40:48Z</time></trkpt><trkpt lat="39.20057150973042" lon="8.476020097818834"><ele>58.0</ele><time>2026-04-18T11:40:49Z</time></trkpt><trkpt lat="39.200380649393736" lon="8.476069206259757"><ele>57.0</ele><time>2026-04-18T11:40:50Z</time></trkpt><trkpt lat="39.20020383483793" lon="8.476111040300719"><ele>56.0</ele><time>2026-04-18T11:40:51Z</time></trkpt><trkpt lat="39.20003293235249" lon="8.476149131731152"><ele>56.0</ele><time>2026-04-18T11:40:52Z</time></trkpt><trkpt lat="39.19986571129929" lon="8.47618694819162"><ele>56.0</ele><time>2026-04-18T11:40:53Z</time></trkpt><trkpt lat="39.19970921074628" lon="8.476222492106494"><ele>56.0</ele><time>2026-04-18T11:40:54Z</time></trkpt><trkpt lat="39.19955715685853" lon="8.47625560923791"><ele>55.75</ele><time>2026-04-18T11:40:55Z</time></trkpt><trkpt lat="39.19941195753756" lon="8.476285317087658"><ele>55.5</ele><time>2026-04-18T11:40:56Z</time></trkpt><trkpt lat="39.19927315949672" lon="8.476304823878705"><ele>55.25</ele><time>2026-04-18T11:40:57Z</time></trkpt><trkpt lat="39.19914224182449" lon="8.476308767537468"><ele>55.0</ele><time>2026-04-18T11:40:58Z</time></trkpt><trkpt lat="39.1990211730544" lon="8.476296982921482"><ele>54.75</ele><time>2026-04-18T11:40:59Z</time></trkpt><trkpt lat="39.198902377576424" lon="8.47628839852902"><ele>54.5</ele><time>2026-04-18T11:41:00Z</time></trkpt><trkpt lat="39.198790748132296" lon="8.476310837669182"><ele>54.25</ele><time>2026-04-18T11:41:01Z</time></trkpt><trkpt lat="39.1986857934474" lon="8.476381197390415"><ele>54.0</ele><time>2026-04-18T11:41:02Z</time></trkpt><trkpt lat="39.198572393002856" lon="8.476469336560706"><ele>54.0</ele><time>2026-04-18T11:41:03Z</time></trkpt><trkpt lat="39.19843917590775" lon="8.476523886137496"><ele>54.0</ele><time>2026-04-18T11:41:04Z</time></trkpt><trkpt lat="39.198288246946376" lon="8.476558287445302"><ele>54.0</ele><time>2026-04-18T11:41:05Z</time></trkpt><trkpt lat="39.198128592990045" lon="8.47659687143623"><ele>53.33333333333333</ele><time>2026-04-18T11:41:06Z</time></trkpt><trkpt lat="39.19796114673724" lon="8.476643868038323"><ele>52.666666666666664</ele><time>2026-04-18T11:41:07Z</time></trkpt><trkpt lat="39.19778835804336" lon="8.476702225628536"><ele>52.0</ele><time>2026-04-18T11:41:08Z</time></trkpt><trkpt lat="39.19761872012164" lon="8.47676672175397"><ele>52.0</ele><time>2026-04-18T11:41:09Z</time></trkpt><trkpt lat="39.19744537310996" lon="8.47683580389842"><ele>52.0</ele><time>2026-04-18T11:41:10Z</time></trkpt><trkpt lat="39.197270306053234" lon="8.476914296736274"><ele>52.0</ele><time>2026-04-18T11:41:11Z</time></trkpt><trkpt lat="39.197093155603405" lon="8.477005779392817"><ele>51.666666666666664</ele><time>2026-04-18T11:41:12Z</time></trkpt><trkpt lat="39.196913159533864" lon="8.477107645450548"><ele>51.33333333333333</ele><time>2026-04-18T11:41:13Z</time></trkpt><trkpt lat="39.19673287952091" lon="8.477216575912436"><ele>51.0</ele><time>2026-04-18T11:41:14Z</time></trkpt><trkpt lat="39.196552094774944" lon="8.477334171080656"><ele>50.66666666666667</ele><time>2026-04-18T11:41:15Z</time></trkpt><trkpt lat="39.19636993116914" lon="8.477459033418555"><ele>50.333333333333336</ele><time>2026-04-18T11:41:16Z</time></trkpt><trkpt lat="39.19618662479697" lon="8.47759142944562"><ele>50.0</ele><time>2026-04-18T11:41:17Z</time></trkpt><trkpt lat="39.19600643009498" lon="8.477733571998542"><ele>50.0</ele><time>2026-04-18T11:41:18Z</time></trkpt><trkpt lat="39.195831662522586" lon="8.477892551362357"><ele>50.0</ele><time>2026-04-18T11:41:19Z</time></trkpt><trkpt lat="39.19566363811868" lon="8.47806156136282"><ele>50.0</ele><time>2026-04-18T11:41:20Z</time></trkpt><trkpt lat="39.19549859792801" lon="8.478234516233826"><ele>49.0</ele><time>2026-04-18T11:41:21Z</time></trkpt><trkpt lat="39.19533568650752" lon="8.478409953637069"><ele>48.0</ele><time>2026-04-18T11:41:22Z</time></trkpt><trkpt lat="39.195178724512424" lon="8.478593098553198"><ele>47.0</ele><time>2026-04-18T11:41:23Z</time></trkpt><trkpt lat="39.195025038213814" lon="8.4787817012449"><ele>47.0</ele><time>2026-04-18T11:41:24Z</time></trkpt><trkpt lat="39.19480721168472" lon="8.479012115974099"><ele>47.0</ele><time>2026-04-18T11:41:25Z</time></trkpt><trkpt lat="39.194657412149525" lon="8.479236330736054"><ele>47.0</ele><time>2026-04-18T11:41:26Z</time></trkpt><trkpt lat="39.1945152185321" lon="8.47946614742864"><ele>47.0</ele><time>2026-04-18T11:41:27Z</time></trkpt><trkpt lat="39.19437800305391" lon="8.47969767943077"><ele>46.0</ele><time>2026-04-18T11:41:28Z</time></trkpt><trkpt lat="39.1942436271044" lon="8.479933284413626"><ele>45.0</ele><time>2026-04-18T11:41:29Z</time></trkpt><trkpt lat="39.1941119093883" lon="8.480171394835276"><ele>44.5</ele><time>2026-04-18T11:41:30Z</time></trkpt><trkpt lat="39.19398181072036" lon="8.48040850503795"><ele>44.0</ele><time>2026-04-18T11:41:31Z</time></trkpt><trkpt lat="39.19385088935232" lon="8.480647926689876"><ele>44.0</ele><time>2026-04-18T11:41:32Z</time></trkpt><trkpt lat="39.19372016296643" lon="8.480882246397853"><ele>44.0</ele><time>2026-04-18T11:41:33Z</time></trkpt><trkpt lat="39.19358754469287" lon="8.48111206663169"><ele>44.0</ele><time>2026-04-18T11:41:34Z</time></trkpt><trkpt lat="39.19345427031" lon="8.481343541106789"><ele>44.0</ele><time>2026-04-18T11:41:35Z</time></trkpt><trkpt lat="39.19332293769248" lon="8.481581094997624"><ele>44.0</ele><time>2026-04-18T11:41:36Z</time></trkpt><trkpt lat="39.193192032959494" lon="8.481819990084805"><ele>44.0</ele><time>2026-04-18T11:41:37Z</time></trkpt><trkpt lat="39.19306007201914" lon="8.482057456147388"><ele>44.0</ele><time>2026-04-18T11:41:38Z</time></trkpt><trkpt lat="39.19292712630794" lon="8.482293274025809"><ele>45.0</ele><time>2026-04-18T11:41:39Z</time></trkpt><trkpt lat="39.19279430469834" lon="8.48252928197251"><ele>46.0</ele><time>2026-04-18T11:41:40Z</time></trkpt><trkpt lat="39.19266160640208" lon="8.482768438849106"><ele>48.5</ele><time>2026-04-18T11:41:41Z</time></trkpt><trkpt lat="39.19252632020947" lon="8.483003403077738"><ele>51.0</ele><time>2026-04-18T11:41:42Z</time></trkpt><trkpt lat="39.192388921271444" lon="8.483238224607936"><ele>52.0</ele><time>2026-04-18T11:41:43Z</time></trkpt><trkpt lat="39.192255310756515" lon="8.483478901465427"><ele>53.0</ele><time>2026-04-18T11:41:44Z</time></trkpt><trkpt lat="39.19212332616342" lon="8.48372265692484"><ele>56.0</ele><time>2026-04-18T11:41:45Z</time></trkpt><trkpt lat="39.19198887607216" lon="8.483963312564144"><ele>59.0</ele><time>2026-04-18T11:41:46Z</time></trkpt><trkpt lat="39.19185567231365" lon="8.484206253578892"><ele>59.0</ele><time>2026-04-18T11:41:47Z</time></trkpt><trkpt lat="39.19171586224748" lon="8.484446018175133"><ele>59.0</ele><time>2026-04-18T11:41:48Z</time></trkpt><trkpt lat="39.191574118953376" lon="8.484686606583342"><ele>63.0</ele><time>2026-04-18T11:41:49Z</time></trkpt><trkpt lat="39.19143559187265" lon="8.4849264339466"><ele>67.0</ele><time>2026-04-18T11:41:50Z</time></trkpt><trkpt lat="39.191298006105896" lon="8.485169035384938"><ele>67.0</ele><time>2026-04-18T11:41:51Z</time></trkpt><trkpt lat="39.191164999852" lon="8.485415013799608"><ele>67.0</ele><time>2026-04-18T11:41:52Z</time></trkpt><trkpt lat="39.19102780302031" lon="8.485658666719353"><ele>68.0</ele><time>2026-04-18T11:41:53Z</time></trkpt><trkpt lat="39.19089061712652" lon="8.485897546807497"><ele>69.0</ele><time>2026-04-18T11:41:54Z</time></trkpt><trkpt lat="39.19075883761481" lon="8.48613119749397"><ele>70.33333333333333</ele><time>2026-04-18T11:41:55Z</time></trkpt><trkpt lat="39.19063216873063" lon="8.486359067088555"><ele>71.66666666666666</ele><time>2026-04-18T11:41:56Z</time></trkpt><trkpt lat="39.19050501454276" lon="8.486576078315986"><ele>73.0</ele><time>2026-04-18T11:41:57Z</time></trkpt><trkpt lat="39.190383476042875" lon="8.486789444045497"><ele>73.0</ele><time>2026-04-18T11:41:58Z</time></trkpt><trkpt lat="39.19026934208927" lon="8.486991176144628"><ele>73.0</ele><time>2026-04-18T11:41:59Z</time></trkpt><trkpt lat="39.19016107489385" lon="8.487175404851618"><ele>73.0</ele><time>2026-04-18T11:42:00Z</time></trkpt><trkpt lat="39.190055619185046" lon="8.487353011689654"><ele>74.0</ele><time>2026-04-18T11:42:01Z</time></trkpt><trkpt lat="39.18995726890957" lon="8.48751897058701"><ele>75.0</ele><time>2026-04-18T11:42:02Z</time></trkpt><trkpt lat="39.18986312547744" lon="8.487674558101107"><ele>76.0</ele><time>2026-04-18T11:42:03Z</time></trkpt><trkpt lat="39.18977204205633" lon="8.487821691801885"><ele>76.8</ele><time>2026-04-18T11:42:04Z</time></trkpt><trkpt lat="39.18968868285519" lon="8.487957402677763"><ele>77.6</ele><time>2026-04-18T11:42:05Z</time></trkpt><trkpt lat="39.18960895968542" lon="8.488079131564946"><ele>78.4</ele><time>2026-04-18T11:42:06Z</time></trkpt><trkpt lat="39.18954124482671" lon="8.488165097353463"><ele>79.2</ele><time>2026-04-18T11:42:07Z</time></trkpt><trkpt lat="39.189485734444645" lon="8.48822093727978"><ele>80.0</ele><time>2026-04-18T11:42:08Z</time></trkpt><trkpt lat="39.189390759126574" lon="8.488307217192753"><ele>80.0</ele><time>2026-04-18T11:42:10Z</time></trkpt><trkpt lat="39.1893399835383" lon="8.488368188406634"><ele>80.0</ele><time>2026-04-18T11:42:11Z</time></trkpt><trkpt lat="39.18929699429973" lon="8.488461598934991"><ele>80.0</ele><time>2026-04-18T11:42:12Z</time></trkpt><trkpt lat="39.18927284082767" lon="8.488584545617956"><ele>80.0</ele><time>2026-04-18T11:42:13Z</time></trkpt><trkpt lat="39.189256905951694" lon="8.488719153026349"><ele>80.0</ele><time>2026-04-18T11:42:14Z</time></trkpt><trkpt lat="39.189222821858614" lon="8.48887080716189"><ele>79.75</ele><time>2026-04-18T11:42:15Z</time></trkpt><trkpt lat="39.1891566558204" lon="8.48902372796832"><ele>79.5</ele><time>2026-04-18T11:42:16Z</time></trkpt><trkpt lat="39.189076307348806" lon="8.489178583731269"><ele>79.25</ele><time>2026-04-18T11:42:17Z</time></trkpt><trkpt lat="39.18900136422145" lon="8.489333335505751"><ele>79.0</ele><time>2026-04-18T11:42:18Z</time></trkpt><trkpt lat="39.1889276371927" lon="8.489499911410034"><ele>80.66666666666666</ele><time>2026-04-18T11:42:19Z</time></trkpt><trkpt lat="39.18885104677127" lon="8.489676009647626"><ele>82.33333333333333</ele><time>2026-04-18T11:42:20Z</time></trkpt><trkpt lat="39.18877460944957" lon="8.489859148833304"><ele>84.0</ele><time>2026-04-18T11:42:21Z</time></trkpt><trkpt lat="39.188703773080306" lon="8.490057893922758"><ele>84.0</ele><time>2026-04-18T11:42:22Z</time></trkpt><trkpt lat="39.18863578863717" lon="8.490262568625756"><ele>84.0</ele><time>2026-04-18T11:42:23Z</time></trkpt><trkpt lat="39.18856477382849" lon="8.49047522952687"><ele>84.0</ele><time>2026-04-18T11:42:24Z</time></trkpt><trkpt lat="39.18849377692379" lon="8.490678128223418"><ele>83.33333333333333</ele><time>2026-04-18T11:42:25Z</time></trkpt><trkpt lat="39.18841819794885" lon="8.490883917503316"><ele>82.66666666666666</ele><time>2026-04-18T11:42:26Z</time></trkpt><trkpt lat="39.18834370443821" lon="8.491098517272144"><ele>82.0</ele><time>2026-04-18T11:42:27Z</time></trkpt><trkpt lat="39.1882692294733" lon="8.491321018147223"><ele>82.0</ele><time>2026-04-18T11:42:28Z</time></trkpt><trkpt lat="39.18818608974687" lon="8.491546469650665"><ele>82.0</ele><time>2026-04-18T11:42:29Z</time></trkpt><trkpt lat="39.188092375323016" lon="8.491769511174462"><ele>82.0</ele><time>2026-04-18T11:42:30Z</time></trkpt><trkpt lat="39.18799531461447" lon="8.491993918286058"><ele>84.66666666666666</ele><time>2026-04-18T11:42:31Z</time></trkpt><trkpt lat="39.1878920962456" lon="8.492217772220027"><ele>87.33333333333333</ele><time>2026-04-18T11:42:32Z</time></trkpt><trkpt lat="39.187780857888185" lon="8.492440330218766"><ele>90.0</ele><time>2026-04-18T11:42:33Z</time></trkpt><trkpt lat="39.18766178884859" lon="8.492660100935025"><ele>90.0</ele><time>2026-04-18T11:42:34Z</time></trkpt><trkpt lat="39.187540563558834" lon="8.492876661068452"><ele>90.0</ele><time>2026-04-18T11:42:35Z</time></trkpt><trkpt lat="39.18741268649278" lon="8.49309393803878"><ele>90.0</ele><time>2026-04-18T11:42:36Z</time></trkpt><trkpt lat="39.1872750768467" lon="8.493301697915502"><ele>89.33333333333333</ele><time>2026-04-18T11:42:37Z</time></trkpt><trkpt lat="39.18712572610553" lon="8.493502655485036"><ele>88.66666666666666</ele><time>2026-04-18T11:42:38Z</time></trkpt><trkpt lat="39.18697708695529" lon="8.49370169776243"><ele>88.0</ele><time>2026-04-18T11:42:39Z</time></trkpt><trkpt lat="39.1868303726142" lon="8.493904339398252"><ele>88.0</ele><time>2026-04-18T11:42:40Z</time></trkpt><trkpt lat="39.18668422554913" lon="8.494106612307393"><ele>88.0</ele><time>2026-04-18T11:42:41Z</time></trkpt><trkpt lat="39.1865374785204" lon="8.494305322865552"><ele>88.0</ele><time>2026-04-18T11:42:42Z</time></trkpt><trkpt lat="39.1863911643173" lon="8.494498957489826"><ele>89.0</ele><time>2026-04-18T11:42:43Z</time></trkpt><trkpt lat="39.1862445843591" lon="8.49469114335168"><ele>90.0</ele><time>2026-04-18T11:42:44Z</time></trkpt><trkpt lat="39.18609596471876" lon="8.494873682134852"><ele>91.0</ele><time>2026-04-18T11:42:45Z</time></trkpt><trkpt lat="39.18594457779878" lon="8.495050355916034"><ele>91.0</ele><time>2026-04-18T11:42:46Z</time></trkpt><trkpt lat="39.18579337380113" lon="8.495222112049573"><ele>91.0</ele><time>2026-04-18T11:42:47Z</time></trkpt><trkpt lat="39.18564358081142" lon="8.495389082000003"><ele>91.0</ele><time>2026-04-18T11:42:48Z</time></trkpt><trkpt lat="39.18549521775115" lon="8.495543480611786"><ele>91.66666666666666</ele><time>2026-04-18T11:42:49Z</time></trkpt><trkpt lat="39.185352551053676" lon="8.495683833706336"><ele>92.33333333333333</ele><time>2026-04-18T11:42:50Z</time></trkpt><trkpt lat="39.185209780278626" lon="8.495816622722485"><ele>93.0</ele><time>2026-04-18T11:42:51Z</time></trkpt><trkpt lat="39.18506763765765" lon="8.495944853799566"><ele>93.0</ele><time>2026-04-18T11:42:52Z</time></trkpt><trkpt lat="39.184928014111236" lon="8.496069786242739"><ele>93.0</ele><time>2026-04-18T11:42:53Z</time></trkpt><trkpt lat="39.18479491117251" lon="8.496187681806186"><ele>93.0</ele><time>2026-04-18T11:42:54Z</time></trkpt><trkpt lat="39.18466644343723" lon="8.49630720534835"><ele>93.0</ele><time>2026-04-18T11:42:55Z</time></trkpt><trkpt lat="39.18454168097595" lon="8.49641934830921"><ele>93.0</ele><time>2026-04-18T11:42:56Z</time></trkpt><trkpt lat="39.18441659283362" lon="8.496532427399337"><ele>93.0</ele><time>2026-04-18T11:42:57Z</time></trkpt><trkpt lat="39.18428806410882" lon="8.496644756654753"><ele>93.0</ele><time>2026-04-18T11:42:58Z</time></trkpt><trkpt lat="39.18416133134238" lon="8.49675824391914"><ele>93.0</ele><time>2026-04-18T11:42:59Z</time></trkpt><trkpt lat="39.184029018973675" lon="8.49687784451964"><ele>93.0</ele><time>2026-04-18T11:43:00Z</time></trkpt><trkpt lat="39.18389821148033" lon="8.496997701830491"><ele>93.66666666666667</ele><time>2026-04-18T11:43:01Z</time></trkpt><trkpt lat="39.18376151678684" lon="8.497120602282722"><ele>94.33333333333334</ele><time>2026-04-18T11:43:02Z</time></trkpt><trkpt lat="39.18362719465339" lon="8.49724619598897"><ele>95.0</ele><time>2026-04-18T11:43:03Z</time></trkpt><trkpt lat="39.1834878757167" lon="8.49737340810102"><ele>95.0</ele><time>2026-04-18T11:43:04Z</time></trkpt><trkpt lat="39.183346560097206" lon="8.497502142122396"><ele>95.0</ele><time>2026-04-18T11:43:05Z</time></trkpt><trkpt lat="39.18320839317608" lon="8.497626498036222"><ele>95.0</ele><time>2026-04-18T11:43:06Z</time></trkpt><trkpt lat="39.18307042504406" lon="8.497749622756077"><ele>95.0</ele><time>2026-04-18T11:43:07Z</time></trkpt><trkpt lat="39.18293094495288" lon="8.49787608211645"><ele>95.0</ele><time>2026-04-18T11:43:08Z</time></trkpt><trkpt lat="39.18279253863568" lon="8.49800073997915"><ele>95.0</ele><time>2026-04-18T11:43:09Z</time></trkpt><trkpt lat="39.18265373727458" lon="8.498124483344995"><ele>95.33333333333334</ele><time>2026-04-18T11:43:10Z</time></trkpt><trkpt lat="39.18251543916465" lon="8.498242762276199"><ele>95.66666666666667</ele><time>2026-04-18T11:43:11Z</time></trkpt><trkpt lat="39.182374504932596" lon="8.498359628576408"><ele>96.0</ele><time>2026-04-18T11:43:12Z</time></trkpt><trkpt lat="39.18223040127667" lon="8.498475273196759"><ele>95.0</ele><time>2026-04-18T11:43:13Z</time></trkpt><trkpt lat="39.18208743639106" lon="8.4985832677307"><ele>94.0</ele><time>2026-04-18T11:43:14Z</time></trkpt><trkpt lat="39.18194168859346" lon="8.498684053623913"><ele>93.0</ele><time>2026-04-18T11:43:15Z</time></trkpt><trkpt lat="39.181789104248466" lon="8.49877759558134"><ele>93.0</ele><time>2026-04-18T11:43:16Z</time></trkpt><trkpt lat="39.18163785297611" lon="8.49886445395454"><ele>93.0</ele><time>2026-04-18T11:43:17Z</time></trkpt><trkpt lat="39.18148614459101" lon="8.4989490668784"><ele>93.0</ele><time>2026-04-18T11:43:18Z</time></trkpt><trkpt lat="39.18132883261192" lon="8.499035548889664"><ele>93.33333333333333</ele><time>2026-04-18T11:43:19Z</time></trkpt><trkpt lat="39.1811740634909" lon="8.499121963111469"><ele>93.66666666666666</ele><time>2026-04-18T11:43:20Z</time></trkpt><trkpt lat="39.18101845962384" lon="8.499208108713793"><ele>94.0</ele><time>2026-04-18T11:43:21Z</time></trkpt><trkpt lat="39.18085718474863" lon="8.499295903360506"><ele>94.0</ele><time>2026-04-18T11:43:22Z</time></trkpt><trkpt lat="39.18069666476218" lon="8.499383244896435"><ele>94.0</ele><time>2026-04-18T11:43:23Z</time></trkpt><trkpt lat="39.180532040472805" lon="8.499469739609536"><ele>94.0</ele><time>2026-04-18T11:43:24Z</time></trkpt><trkpt lat="39.180365196382525" lon="8.499558661301874"><ele>92.0</ele><time>2026-04-18T11:43:25Z</time></trkpt><trkpt lat="39.18019612539788" lon="8.499645794500122"><ele>90.0</ele><time>2026-04-18T11:43:26Z</time></trkpt><trkpt lat="39.18002908282151" lon="8.499735885225025"><ele>88.0</ele><time>2026-04-18T11:43:27Z</time></trkpt><trkpt lat="39.17985653508711" lon="8.49982693178709"><ele>87.66666666666666</ele><time>2026-04-18T11:43:28Z</time></trkpt><trkpt lat="39.179686059688066" lon="8.49991988001436"><ele>87.33333333333333</ele><time>2026-04-18T11:43:29Z</time></trkpt><trkpt lat="39.179511002476424" lon="8.500013173450364"><ele>87.0</ele><time>2026-04-18T11:43:30Z</time></trkpt><trkpt lat="39.17933562212603" lon="8.500107837255875"><ele>87.0</ele><time>2026-04-18T11:43:31Z</time></trkpt><trkpt lat="39.179159571302314" lon="8.500201566838689"><ele>87.0</ele><time>2026-04-18T11:43:32Z</time></trkpt><trkpt lat="39.17898392895335" lon="8.500299302047413"><ele>87.0</ele><time>2026-04-18T11:43:33Z</time></trkpt><trkpt lat="39.178808610927994" lon="8.500392848114537"><ele>86.0</ele><time>2026-04-18T11:43:34Z</time></trkpt><trkpt lat="39.17863236808486" lon="8.500485197103705"><ele>85.0</ele><time>2026-04-18T11:43:35Z</time></trkpt><trkpt lat="39.178460761764185" lon="8.500576514319299"><ele>84.0</ele><time>2026-04-18T11:43:36Z</time></trkpt><trkpt lat="39.178294766325536" lon="8.500663785382363"><ele>83.0</ele><time>2026-04-18T11:43:37Z</time></trkpt><trkpt lat="39.17813447549289" lon="8.500750038828295"><ele>82.0</ele><time>2026-04-18T11:43:38Z</time></trkpt><trkpt lat="39.17797765615406" lon="8.500835795351229"><ele>81.0</ele><time>2026-04-18T11:43:39Z</time></trkpt><trkpt lat="39.17782476561364" lon="8.500916296751214"><ele>81.0</ele><time>2026-04-18T11:43:40Z</time></trkpt><trkpt lat="39.1776754001417" lon="8.500990853256322"><ele>81.0</ele><time>2026-04-18T11:43:41Z</time></trkpt><trkpt lat="39.17753606655559" lon="8.5010624025382"><ele>81.0</ele><time>2026-04-18T11:43:42Z</time></trkpt><trkpt lat="39.17739721246425" lon="8.501133358639033"><ele>80.25</ele><time>2026-04-18T11:43:43Z</time></trkpt><trkpt lat="39.17726432233904" lon="8.501201448387977"><ele>79.5</ele><time>2026-04-18T11:43:44Z</time></trkpt><trkpt lat="39.17713513059592" lon="8.501265964671488"><ele>78.75</ele><time>2026-04-18T11:43:45Z</time></trkpt><trkpt lat="39.17701049818998" lon="8.501328843218893"><ele>78.0</ele><time>2026-04-18T11:43:46Z</time></trkpt><trkpt lat="39.176890920453886" lon="8.501386867956004"><ele>78.0</ele><time>2026-04-18T11:43:47Z</time></trkpt><trkpt lat="39.17677767755904" lon="8.501433428492993"><ele>78.0</ele><time>2026-04-18T11:43:48Z</time></trkpt><trkpt lat="39.17666484780789" lon="8.501461195800747"><ele>78.0</ele><time>2026-04-18T11:43:49Z</time></trkpt><trkpt lat="39.176557598360596" lon="8.501472684840746"><ele>78.0</ele><time>2026-04-18T11:43:50Z</time></trkpt><trkpt lat="39.17645594548071" lon="8.501497502479031"><ele>78.0</ele><time>2026-04-18T11:43:51Z</time></trkpt><trkpt lat="39.176368893724785" lon="8.501559818188232"><ele>78.25</ele><time>2026-04-18T11:43:52Z</time></trkpt><trkpt lat="39.176299982113925" lon="8.501665561944028"><ele>78.5</ele><time>2026-04-18T11:43:53Z</time></trkpt><trkpt lat="39.176225081101016" lon="8.501777061358524"><ele>78.75</ele><time>2026-04-18T11:43:54Z</time></trkpt><trkpt lat="39.17612378760074" lon="8.50185473128585"><ele>79.0</ele><time>2026-04-18T11:43:55Z</time></trkpt><trkpt lat="39.176000800936805" lon="8.501899124465108"><ele>79.0</ele><time>2026-04-18T11:43:56Z</time></trkpt><trkpt lat="39.175881091658766" lon="8.501981614614857"><ele>79.0</ele><time>2026-04-18T11:43:57Z</time></trkpt><trkpt lat="39.175751117242825" lon="8.502042472874015"><ele>79.0</ele><time>2026-04-18T11:43:58Z</time></trkpt><trkpt lat="39.175620471790694" lon="8.502109391059946"><ele>79.0</ele><time>2026-04-18T11:43:59Z</time></trkpt><trkpt lat="39.17548494431672" lon="8.502180582903177"><ele>77.66666666666666</ele><time>2026-04-18T11:44:00Z</time></trkpt><trkpt lat="39.175345707640886" lon="8.502250776982532"><ele>76.33333333333333</ele><time>2026-04-18T11:44:01Z</time></trkpt><trkpt lat="39.17519903878487" lon="8.502321568208835"><ele>75.0</ele><time>2026-04-18T11:44:02Z</time></trkpt><trkpt lat="39.175051048310245" lon="8.50239679295273"><ele>75.0</ele><time>2026-04-18T11:44:03Z</time></trkpt><trkpt lat="39.17490213797568" lon="8.50247884458816"><ele>75.0</ele><time>2026-04-18T11:44:04Z</time></trkpt><trkpt lat="39.17474762100061" lon="8.502563742583165"><ele>75.0</ele><time>2026-04-18T11:44:05Z</time></trkpt><trkpt lat="39.17459369352656" lon="8.502643740124482"><ele>75.0</ele><time>2026-04-18T11:44:06Z</time></trkpt><trkpt lat="39.174432947089294" lon="8.502728492475857"><ele>75.0</ele><time>2026-04-18T11:44:07Z</time></trkpt><trkpt lat="39.17427291466991" lon="8.502814591684484"><ele>75.0</ele><time>2026-04-18T11:44:08Z</time></trkpt><trkpt lat="39.174111664852674" lon="8.502901148844726"><ele>75.0</ele><time>2026-04-18T11:44:09Z</time></trkpt><trkpt lat="39.17394814096806" lon="8.502990975569455"><ele>75.0</ele><time>2026-04-18T11:44:10Z</time></trkpt><trkpt lat="39.173782602118024" lon="8.503081250478397"><ele>75.0</ele><time>2026-04-18T11:44:11Z</time></trkpt><trkpt lat="39.173615092217965" lon="8.503165320418034"><ele>75.0</ele><time>2026-04-18T11:44:12Z</time></trkpt><trkpt lat="39.17344713148536" lon="8.503250360677248"><ele>75.0</ele><time>2026-04-18T11:44:13Z</time></trkpt><trkpt lat="39.17327772563166" lon="8.503339517753526"><ele>75.0</ele><time>2026-04-18T11:44:14Z</time></trkpt><trkpt lat="39.173109692202495" lon="8.503430987271438"><ele>74.0</ele><time>2026-04-18T11:44:15Z</time></trkpt><trkpt lat="39.17293863830163" lon="8.503525269831961"><ele>73.0</ele><time>2026-04-18T11:44:16Z</time></trkpt><trkpt lat="39.17277039408038" lon="8.503615298946556"><ele>72.0</ele><time>2026-04-18T11:44:17Z</time></trkpt><trkpt lat="39.17260135474328" lon="8.50370534591653"><ele>71.66666666666667</ele><time>2026-04-18T11:44:18Z</time></trkpt><trkpt lat="39.172435948377476" lon="8.503793693732186"><ele>71.33333333333334</ele><time>2026-04-18T11:44:19Z</time></trkpt><trkpt lat="39.17226976189307" lon="8.503882609584977"><ele>71.0</ele><time>2026-04-18T11:44:20Z</time></trkpt><trkpt lat="39.17210498910689" lon="8.503970771831593"><ele>71.0</ele><time>2026-04-18T11:44:21Z</time></trkpt><trkpt lat="39.17194289650628" lon="8.504057148856143"><ele>71.0</ele><time>2026-04-18T11:44:22Z</time></trkpt><trkpt lat="39.171781989299845" lon="8.504143017050104"><ele>71.0</ele><time>2026-04-18T11:44:23Z</time></trkpt><trkpt lat="39.171621581724224" lon="8.504228240946489"><ele>70.33333333333334</ele><time>2026-04-18T11:44:24Z</time></trkpt><trkpt lat="39.171459003599736" lon="8.504314332055053"><ele>69.66666666666667</ele><time>2026-04-18T11:44:25Z</time></trkpt><trkpt lat="39.17129496296118" lon="8.504401536501243"><ele>69.0</ele><time>2026-04-18T11:44:26Z</time></trkpt><trkpt lat="39.17112746380715" lon="8.504491445484629"><ele>69.33333333333333</ele><time>2026-04-18T11:44:27Z</time></trkpt><trkpt lat="39.17096285207538" lon="8.504581877460856"><ele>69.66666666666666</ele><time>2026-04-18T11:44:28Z</time></trkpt><trkpt lat="39.17079828624255" lon="8.504673283157686"><ele>70.0</ele><time>2026-04-18T11:44:29Z</time></trkpt><trkpt lat="39.17062804268945" lon="8.50476642118012"><ele>70.0</ele><time>2026-04-18T11:44:30Z</time></trkpt><trkpt lat="39.17045833039332" lon="8.504857418360906"><ele>70.0</ele><time>2026-04-18T11:44:31Z</time></trkpt><trkpt lat="39.17028696628975" lon="8.504947480907974"><ele>70.0</ele><time>2026-04-18T11:44:32Z</time></trkpt><trkpt lat="39.170113522293484" lon="8.505037182360304"><ele>70.0</ele><time>2026-04-18T11:44:33Z</time></trkpt><trkpt lat="39.16993748505212" lon="8.505131130811915"><ele>70.0</ele><time>2026-04-18T11:44:34Z</time></trkpt><trkpt lat="39.169763779547004" lon="8.505227246578961"><ele>70.0</ele><time>2026-04-18T11:44:35Z</time></trkpt><trkpt lat="39.16958791573573" lon="8.505323661347013"><ele>70.66666666666666</ele><time>2026-04-18T11:44:36Z</time></trkpt><trkpt lat="39.16941007594413" lon="8.505418013493426"><ele>71.33333333333333</ele><time>2026-04-18T11:44:37Z</time></trkpt><trkpt lat="39.16923113620476" lon="8.505513584382786"><ele>72.0</ele><time>2026-04-18T11:44:38Z</time></trkpt><trkpt lat="39.1690515267251" lon="8.505607191711086"><ele>72.33333333333333</ele><time>2026-04-18T11:44:39Z</time></trkpt><trkpt lat="39.16887097464812" lon="8.505701352565938"><ele>72.66666666666666</ele><time>2026-04-18T11:44:40Z</time></trkpt><trkpt lat="39.16869209839941" lon="8.505796457553059"><ele>73.0</ele><time>2026-04-18T11:44:41Z</time></trkpt><trkpt lat="39.16851584210155" lon="8.505894918672734"><ele>73.0</ele><time>2026-04-18T11:44:42Z</time></trkpt><trkpt lat="39.16834085566425" lon="8.505991540595309"><ele>73.0</ele><time>2026-04-18T11:44:43Z</time></trkpt><trkpt lat="39.16816926450126" lon="8.50608545922328"><ele>73.0</ele><time>2026-04-18T11:44:44Z</time></trkpt><trkpt lat="39.167833492187164" lon="8.506266838708816"><ele>71.66666666666666</ele><time>2026-04-18T11:44:46Z</time></trkpt><trkpt lat="39.16767480404879" lon="8.506349861974659"><ele>70.33333333333333</ele><time>2026-04-18T11:44:47Z</time></trkpt><trkpt lat="39.167519691682145" lon="8.506429755050023"><ele>69.0</ele><time>2026-04-18T11:44:48Z</time></trkpt><trkpt lat="39.167367545147144" lon="8.506508432118771"><ele>68.66666666666667</ele><time>2026-04-18T11:44:49Z</time></trkpt><trkpt lat="39.16722329134246" lon="8.506585596309186"><ele>68.33333333333334</ele><time>2026-04-18T11:44:50Z</time></trkpt><trkpt lat="39.16707989565759" lon="8.506663319790245"><ele>68.0</ele><time>2026-04-18T11:44:51Z</time></trkpt><trkpt lat="39.1669437086105" lon="8.506735427118276"><ele>68.0</ele><time>2026-04-18T11:44:52Z</time></trkpt><trkpt lat="39.16680999566822" lon="8.506808688557749"><ele>68.0</ele><time>2026-04-18T11:44:53Z</time></trkpt><trkpt lat="39.166681077496264" lon="8.506879846345289"><ele>68.0</ele><time>2026-04-18T11:44:54Z</time></trkpt><trkpt lat="39.16655611334121" lon="8.506948122530959"><ele>68.0</ele><time>2026-04-18T11:44:55Z</time></trkpt><trkpt lat="39.16643541113706" lon="8.507013386647692"><ele>68.2</ele><time>2026-04-18T11:44:56Z</time></trkpt><trkpt lat="39.166322350235106" lon="8.507072661874373"><ele>68.4</ele><time>2026-04-18T11:44:57Z</time></trkpt><trkpt lat="39.16621690229612" lon="8.507124683273299"><ele>68.60000000000001</ele><time>2026-04-18T11:44:58Z</time></trkpt><trkpt lat="39.16612176000058" lon="8.50717000839186"><ele>68.8</ele><time>2026-04-18T11:44:59Z</time></trkpt><trkpt lat="39.16603863238561" lon="8.507200234605309"><ele>69.0</ele><time>2026-04-18T11:45:00Z</time></trkpt><trkpt lat="39.165957084005285" lon="8.507205202042778"><ele>69.0</ele><time>2026-04-18T11:45:01Z</time></trkpt><trkpt lat="39.16588218203667" lon="8.507182448678648"><ele>69.0</ele><time>2026-04-18T11:45:02Z</time></trkpt><trkpt lat="39.165812121801615" lon="8.507146085198722"><ele>69.0</ele><time>2026-04-18T11:45:03Z</time></trkpt><trkpt lat="39.16573599273701" lon="8.507110710437576"><ele>69.0</ele><time>2026-04-18T11:45:04Z</time></trkpt><trkpt lat="39.165653952611926" lon="8.507100649274074"><ele>69.0</ele><time>2026-04-18T11:45:05Z</time></trkpt><trkpt lat="39.165571962006354" lon="8.507115172435155"><ele>69.0</ele><time>2026-04-18T11:45:06Z</time></trkpt><trkpt lat="39.16549335963847" lon="8.507157237657985"><ele>69.16666666666667</ele><time>2026-04-18T11:45:07Z</time></trkpt><trkpt lat="39.165423395749436" lon="8.507228857008569"><ele>69.33333333333333</ele><time>2026-04-18T11:45:08Z</time></trkpt><trkpt lat="39.16536982709459" lon="8.507320631780628"><ele>69.5</ele><time>2026-04-18T11:45:09Z</time></trkpt><trkpt lat="39.16534253892163" lon="8.507435282711764"><ele>69.66666666666666</ele><time>2026-04-18T11:45:10Z</time></trkpt><trkpt lat="39.16530518318198" lon="8.507540736254786"><ele>69.83333333333333</ele><time>2026-04-18T11:45:11Z</time></trkpt><trkpt lat="39.165321134348964" lon="8.507630153732768"><ele>70.0</ele><time>2026-04-18T11:45:12Z</time></trkpt><trkpt lat="39.16517224655206" lon="8.507691675942564"><ele>70.0</ele><time>2026-04-18T11:45:13Z</time></trkpt><trkpt lat="39.165084810946894" lon="8.507737441329642"><ele>70.0</ele><time>2026-04-18T11:45:14Z</time></trkpt><trkpt lat="39.16499427452268" lon="8.507799133021066"><ele>70.0</ele><time>2026-04-18T11:45:15Z</time></trkpt><trkpt lat="39.16489071286145" lon="8.507843777440264"><ele>70.0</ele><time>2026-04-18T11:45:16Z</time></trkpt><trkpt lat="39.16478236480685" lon="8.507900714002723"><ele>70.0</ele><time>2026-04-18T11:45:17Z</time></trkpt><trkpt lat="39.164669319960694" lon="8.507958148576385"><ele>70.75</ele><time>2026-04-18T11:45:18Z</time></trkpt><trkpt lat="39.16454979491262" lon="8.508013817339314"><ele>71.5</ele><time>2026-04-18T11:45:19Z</time></trkpt><trkpt lat="39.164425300570365" lon="8.508074691109991"><ele>72.25</ele><time>2026-04-18T11:45:20Z</time></trkpt><trkpt lat="39.16429672102541" lon="8.508133436164366"><ele>73.0</ele><time>2026-04-18T11:45:21Z</time></trkpt><trkpt lat="39.16417792142799" lon="8.50818770817404"><ele>73.0</ele><time>2026-04-18T11:45:22Z</time></trkpt><trkpt lat="39.16406012397433" lon="8.508241315349808"><ele>73.0</ele><time>2026-04-18T11:45:23Z</time></trkpt><trkpt lat="39.16393713591517" lon="8.508295809470509"><ele>73.0</ele><time>2026-04-18T11:45:24Z</time></trkpt><trkpt lat="39.16381464886907" lon="8.508350178511204"><ele>73.0</ele><time>2026-04-18T11:45:25Z</time></trkpt><trkpt lat="39.163688404096824" lon="8.50840415428492"><ele>73.0</ele><time>2026-04-18T11:45:26Z</time></trkpt><trkpt lat="39.1635568107828" lon="8.508455586432913"><ele>73.0</ele><time>2026-04-18T11:45:27Z</time></trkpt><trkpt lat="39.16342268109442" lon="8.508499960634095"><ele>73.0</ele><time>2026-04-18T11:45:28Z</time></trkpt><trkpt lat="39.16328625912382" lon="8.508537704704096"><ele>73.0</ele><time>2026-04-18T11:45:29Z</time></trkpt><trkpt lat="39.16315150710507" lon="8.50858059751038"><ele>72.75</ele><time>2026-04-18T11:45:30Z</time></trkpt><trkpt lat="39.16301478758144" lon="8.50862431865377"><ele>72.5</ele><time>2026-04-18T11:45:31Z</time></trkpt><trkpt lat="39.16287139896334" lon="8.508639639604745"><ele>72.25</ele><time>2026-04-18T11:45:32Z</time></trkpt><trkpt lat="39.162731992885206" lon="8.508689739236043"><ele>72.0</ele><time>2026-04-18T11:45:33Z</time></trkpt><trkpt lat="39.162588594149156" lon="8.508715555153785"><ele>72.0</ele><time>2026-04-18T11:45:34Z</time></trkpt><trkpt lat="39.1624405426648" lon="8.508737742760072"><ele>72.0</ele><time>2026-04-18T11:45:35Z</time></trkpt><trkpt lat="39.16229475214718" lon="8.50876321266478"><ele>72.0</ele><time>2026-04-18T11:45:36Z</time></trkpt><trkpt lat="39.162148167288734" lon="8.508791544835962"><ele>72.0</ele><time>2026-04-18T11:45:37Z</time></trkpt><trkpt lat="39.16200070337166" lon="8.508822756022322"><ele>73.0</ele><time>2026-04-18T11:45:38Z</time></trkpt><trkpt lat="39.161850550717986" lon="8.508855424872031"><ele>74.0</ele><time>2026-04-18T11:45:39Z</time></trkpt><trkpt lat="39.16169920910793" lon="8.508888041899013"><ele>75.0</ele><time>2026-04-18T11:45:40Z</time></trkpt><trkpt lat="39.161543868716" lon="8.508917966777853"><ele>74.33333333333333</ele><time>2026-04-18T11:45:41Z</time></trkpt><trkpt lat="39.161386897003005" lon="8.508947304025812"><ele>73.66666666666666</ele><time>2026-04-18T11:45:42Z</time></trkpt><trkpt lat="39.16123023517094" lon="8.508978860851686"><ele>73.0</ele><time>2026-04-18T11:45:43Z</time></trkpt><trkpt lat="39.1610755547751" lon="8.509008444218312"><ele>73.0</ele><time>2026-04-18T11:45:44Z</time></trkpt><trkpt lat="39.160915458582835" lon="8.509039365798165"><ele>73.0</ele><time>2026-04-18T11:45:45Z</time></trkpt><trkpt lat="39.16075495208599" lon="8.509071333859909"><ele>73.0</ele><time>2026-04-18T11:45:46Z</time></trkpt><trkpt lat="39.16059551308055" lon="8.509101271259068"><ele>73.0</ele><time>2026-04-18T11:45:47Z</time></trkpt><trkpt lat="39.16043767141719" lon="8.509130809264196"><ele>73.0</ele><time>2026-04-18T11:45:48Z</time></trkpt><trkpt lat="39.16027502172026" lon="8.50916163942924"><ele>73.0</ele><time>2026-04-18T11:45:49Z</time></trkpt><trkpt lat="39.160116146585736" lon="8.509190510423167"><ele>73.0</ele><time>2026-04-18T11:45:50Z</time></trkpt><trkpt lat="39.159957674725064" lon="8.50922360552553"><ele>73.0</ele><time>2026-04-18T11:45:51Z</time></trkpt><trkpt lat="39.159795831594415" lon="8.509257603732198"><ele>73.0</ele><time>2026-04-18T11:45:52Z</time></trkpt><trkpt lat="39.15963901096283" lon="8.509290746369377"><ele>73.0</ele><time>2026-04-18T11:45:53Z</time></trkpt><trkpt lat="39.1594728818437" lon="8.509321256579275"><ele>73.0</ele><time>2026-04-18T11:45:54Z</time></trkpt><trkpt lat="39.15930970744814" lon="8.509351962048047"><ele>73.0</ele><time>2026-04-18T11:45:55Z</time></trkpt><trkpt lat="39.159137153646206" lon="8.509381508171684"><ele>74.66666666666666</ele><time>2026-04-18T11:45:56Z</time></trkpt><trkpt lat="39.15896829071881" lon="8.509416486398248"><ele>76.33333333333333</ele><time>2026-04-18T11:45:57Z</time></trkpt><trkpt lat="39.15879626537767" lon="8.509450884474427"><ele>78.0</ele><time>2026-04-18T11:45:58Z</time></trkpt><trkpt lat="39.15862201842873" lon="8.509485614944122"><ele>78.0</ele><time>2026-04-18T11:45:59Z</time></trkpt><trkpt lat="39.15844548648699" lon="8.509520906465402"><ele>78.0</ele><time>2026-04-18T11:46:00Z</time></trkpt><trkpt lat="39.158267114279774" lon="8.509555743012736"><ele>78.0</ele><time>2026-04-18T11:46:01Z</time></trkpt><trkpt lat="39.15810083944024" lon="8.50958652690119"><ele>76.66666666666667</ele><time>2026-04-18T11:46:02Z</time></trkpt><trkpt lat="39.15791787532521" lon="8.509622675768206"><ele>75.33333333333334</ele><time>2026-04-18T11:46:03Z</time></trkpt><trkpt lat="39.157746205774785" lon="8.509661187286433"><ele>74.0</ele><time>2026-04-18T11:46:04Z</time></trkpt><trkpt lat="39.15757182978656" lon="8.509697796310844"><ele>74.0</ele><time>2026-04-18T11:46:05Z</time></trkpt><trkpt lat="39.15739894298871" lon="8.509729414399363"><ele>74.0</ele><time>2026-04-18T11:46:06Z</time></trkpt><trkpt lat="39.15722665784309" lon="8.509761664983078"><ele>74.0</ele><time>2026-04-18T11:46:07Z</time></trkpt><trkpt lat="39.15705608828802" lon="8.509791825608273"><ele>71.33333333333334</ele><time>2026-04-18T11:46:08Z</time></trkpt><trkpt lat="39.15688654982691" lon="8.509821083196384"><ele>68.66666666666667</ele><time>2026-04-18T11:46:09Z</time></trkpt><trkpt lat="39.15671601663719" lon="8.509849530303047"><ele>66.0</ele><time>2026-04-18T11:46:10Z</time></trkpt><trkpt lat="39.15654778945539" lon="8.509885426128367"><ele>64.33333333333333</ele><time>2026-04-18T11:46:11Z</time></trkpt><trkpt lat="39.15637903275635" lon="8.509924524584191"><ele>62.666666666666664</ele><time>2026-04-18T11:46:12Z</time></trkpt><trkpt lat="39.15621242858729" lon="8.50996016871831"><ele>61.0</ele><time>2026-04-18T11:46:13Z</time></trkpt><trkpt lat="39.156045557179596" lon="8.509994543889048"><ele>61.0</ele><time>2026-04-18T11:46:14Z</time></trkpt><trkpt lat="39.15587625857138" lon="8.510031133748"><ele>61.0</ele><time>2026-04-18T11:46:15Z</time></trkpt><trkpt lat="39.15571061013976" lon="8.510066956430283"><ele>61.0</ele><time>2026-04-18T11:46:16Z</time></trkpt><trkpt lat="39.15554644480721" lon="8.510099493179736"><ele>61.0</ele><time>2026-04-18T11:46:17Z</time></trkpt><trkpt lat="39.15538801503894" lon="8.510131543716085"><ele>61.0</ele><time>2026-04-18T11:46:18Z</time></trkpt><trkpt lat="39.15523062322011" lon="8.510161253438218"><ele>61.0</ele><time>2026-04-18T11:46:19Z</time></trkpt><trkpt lat="39.15508497732009" lon="8.510193250990424"><ele>61.0</ele><time>2026-04-18T11:46:20Z</time></trkpt><trkpt lat="39.15494368750387" lon="8.510223144452544"><ele>61.0</ele><time>2026-04-18T11:46:21Z</time></trkpt><trkpt lat="39.15480887040438" lon="8.510250085828408"><ele>61.0</ele><time>2026-04-18T11:46:22Z</time></trkpt><trkpt lat="39.1546804305054" lon="8.510273573603387"><ele>61.0</ele><time>2026-04-18T11:46:23Z</time></trkpt><trkpt lat="39.154566830890566" lon="8.510290366098126"><ele>60.83333333333333</ele><time>2026-04-18T11:46:24Z</time></trkpt><trkpt lat="39.15446641312475" lon="8.510299527032492"><ele>60.666666666666664</ele><time>2026-04-18T11:46:25Z</time></trkpt><trkpt lat="39.154377713735336" lon="8.51029637672817"><ele>60.5</ele><time>2026-04-18T11:46:26Z</time></trkpt><trkpt lat="39.154306922748674" lon="8.510267318556592"><ele>60.33333333333333</ele><time>2026-04-18T11:46:27Z</time></trkpt><trkpt lat="39.15424864274581" lon="8.510219327829004"><ele>60.166666666666664</ele><time>2026-04-18T11:46:28Z</time></trkpt><trkpt lat="39.15419170580897" lon="8.510139686894878"><ele>60.0</ele><time>2026-04-18T11:46:29Z</time></trkpt><trkpt lat="39.15413229389174" lon="8.510066133788204"><ele>60.0</ele><time>2026-04-18T11:46:30Z</time></trkpt><trkpt lat="39.15405183328629" lon="8.510015122062875"><ele>60.0</ele><time>2026-04-18T11:46:31Z</time></trkpt><trkpt lat="39.15396325820155" lon="8.510006617414078"><ele>60.0</ele><time>2026-04-18T11:46:32Z</time></trkpt><trkpt lat="39.153874812370496" lon="8.510031829768606"><ele>60.0</ele><time>2026-04-18T11:46:33Z</time></trkpt><trkpt lat="39.15379650135293" lon="8.510095587860636"><ele>60.0</ele><time>2026-04-18T11:46:34Z</time></trkpt><trkpt lat="39.15373280926552" lon="8.510188056672199"><ele>59.8</ele><time>2026-04-18T11:46:35Z</time></trkpt><trkpt lat="39.15368568572962" lon="8.510295350160922"><ele>59.6</ele><time>2026-04-18T11:46:36Z</time></trkpt><trkpt lat="39.15364661531217" lon="8.51040099414023"><ele>59.400000000000006</ele><time>2026-04-18T11:46:37Z</time></trkpt><trkpt lat="39.15359075964304" lon="8.510481912720154"><ele>59.2</ele><time>2026-04-18T11:46:38Z</time></trkpt><trkpt lat="39.15350570016923" lon="8.51052313671612"><ele>59.0</ele><time>2026-04-18T11:46:39Z</time></trkpt><trkpt lat="39.15340745457885" lon="8.510534059808657"><ele>59.2</ele><time>2026-04-18T11:46:40Z</time></trkpt><trkpt lat="39.153304445162355" lon="8.510540131648458"><ele>59.400000000000006</ele><time>2026-04-18T11:46:41Z</time></trkpt><trkpt lat="39.15320092686535" lon="8.510555962996333"><ele>59.6</ele><time>2026-04-18T11:46:42Z</time></trkpt><trkpt lat="39.15309263262618" lon="8.510579120264966"><ele>59.8</ele><time>2026-04-18T11:46:43Z</time></trkpt><trkpt lat="39.15297863810912" lon="8.510599745064646"><ele>60.0</ele><time>2026-04-18T11:46:44Z</time></trkpt><trkpt lat="39.15286113890073" lon="8.510622028075044"><ele>60.0</ele><time>2026-04-18T11:46:45Z</time></trkpt><trkpt lat="39.15274071737489" lon="8.510649782024975"><ele>60.0</ele><time>2026-04-18T11:46:46Z</time></trkpt><trkpt lat="39.15261656572188" lon="8.510675236478136"><ele>60.0</ele><time>2026-04-18T11:46:47Z</time></trkpt><trkpt lat="39.152489782280064" lon="8.510699539709025"><ele>60.0</ele><time>2026-04-18T11:46:48Z</time></trkpt><trkpt lat="39.15236090115108" lon="8.510725088898004"><ele>60.5</ele><time>2026-04-18T11:46:49Z</time></trkpt><trkpt lat="39.152229542950806" lon="8.510750628816751"><ele>61.0</ele><time>2026-04-18T11:46:50Z</time></trkpt><trkpt lat="39.15209590047754" lon="8.510773119010942"><ele>61.5</ele><time>2026-04-18T11:46:51Z</time></trkpt><trkpt lat="39.15195993893366" lon="8.510797018964047"><ele>62.0</ele><time>2026-04-18T11:46:52Z</time></trkpt><trkpt lat="39.151820100687644" lon="8.51082524717907"><ele>62.0</ele><time>2026-04-18T11:46:53Z</time></trkpt><trkpt lat="39.15167757054232" lon="8.510856229725741"><ele>62.0</ele><time>2026-04-18T11:46:54Z</time></trkpt><trkpt lat="39.15153157290102" lon="8.51088580779984"><ele>62.0</ele><time>2026-04-18T11:46:55Z</time></trkpt><trkpt lat="39.15138683205234" lon="8.510913556931865"><ele>62.0</ele><time>2026-04-18T11:46:56Z</time></trkpt><trkpt lat="39.15124232870898" lon="8.510940236152505"><ele>61.66666666666667</ele><time>2026-04-18T11:46:57Z</time></trkpt><trkpt lat="39.1510946328623" lon="8.510968712601526"><ele>61.33333333333333</ele><time>2026-04-18T11:46:58Z</time></trkpt><trkpt lat="39.1509397599872" lon="8.510999419792105"><ele>61.0</ele><time>2026-04-18T11:46:59Z</time></trkpt><trkpt lat="39.150779366083434" lon="8.511032357949706"><ele>60.0</ele><time>2026-04-18T11:47:00Z</time></trkpt><trkpt lat="39.15061414143225" lon="8.511066701837555"><ele>59.0</ele><time>2026-04-18T11:47:01Z</time></trkpt><trkpt lat="39.15044484908008" lon="8.511101615377537"><ele>58.0</ele><time>2026-04-18T11:47:02Z</time></trkpt><trkpt lat="39.15027362298281" lon="8.51113557568489"><ele>58.0</ele><time>2026-04-18T11:47:03Z</time></trkpt><trkpt lat="39.15009643864806" lon="8.511170445271295"><ele>58.0</ele><time>2026-04-18T11:47:04Z</time></trkpt><trkpt lat="39.149920579077474" lon="8.511204611999778"><ele>58.0</ele><time>2026-04-18T11:47:05Z</time></trkpt><trkpt lat="39.149742941193715" lon="8.511239988135383"><ele>58.0</ele><time>2026-04-18T11:47:06Z</time></trkpt><trkpt lat="39.14956567421751" lon="8.5112738709301"><ele>58.0</ele><time>2026-04-18T11:47:07Z</time></trkpt><trkpt lat="39.14938717367243" lon="8.51130695433308"><ele>58.0</ele><time>2026-04-18T11:47:08Z</time></trkpt><trkpt lat="39.149215143768494" lon="8.511340526005917"><ele>58.0</ele><time>2026-04-18T11:47:09Z</time></trkpt><trkpt lat="39.14904598408894" lon="8.511376110198917"><ele>58.0</ele><time>2026-04-18T11:47:10Z</time></trkpt><trkpt lat="39.14887792501721" lon="8.511409375348148"><ele>58.0</ele><time>2026-04-18T11:47:11Z</time></trkpt><trkpt lat="39.148709582205676" lon="8.5114424941039"><ele>58.0</ele><time>2026-04-18T11:47:12Z</time></trkpt><trkpt lat="39.148544346461286" lon="8.511476156888893"><ele>58.0</ele><time>2026-04-18T11:47:13Z</time></trkpt><trkpt lat="39.14838173021642" lon="8.511507034244904"><ele>58.0</ele><time>2026-04-18T11:47:14Z</time></trkpt><trkpt lat="39.148221503737034" lon="8.511533805372286"><ele>57.0</ele><time>2026-04-18T11:47:15Z</time></trkpt><trkpt lat="39.14806639259375" lon="8.511555081420825"><ele>56.0</ele><time>2026-04-18T11:47:16Z</time></trkpt><trkpt lat="39.147918320305706" lon="8.511568718298607"><ele>55.0</ele><time>2026-04-18T11:47:17Z</time></trkpt><trkpt lat="39.14777526199852" lon="8.51158026532406"><ele>54.0</ele><time>2026-04-18T11:47:18Z</time></trkpt><trkpt lat="39.14764128512326" lon="8.511582283517189"><ele>54.0</ele><time>2026-04-18T11:47:19Z</time></trkpt><trkpt lat="39.147514045551134" lon="8.511590319225657"><ele>54.00000000000001</ele><time>2026-04-18T11:47:20Z</time></trkpt><trkpt lat="39.147401026766794" lon="8.511593771482321"><ele>54.00000000000001</ele><time>2026-04-18T11:47:21Z</time></trkpt><trkpt lat="39.14729832739723" lon="8.51159223647014"><ele>54.0</ele><time>2026-04-18T11:47:22Z</time></trkpt><trkpt lat="39.14720297807866" lon="8.5115784597189"><ele>54.0</ele><time>2026-04-18T11:47:23Z</time></trkpt><trkpt lat="39.14711575307262" lon="8.511553645250546"><ele>53.6</ele><time>2026-04-18T11:47:24Z</time></trkpt><trkpt lat="39.147037804821295" lon="8.51152617103703"><ele>53.2</ele><time>2026-04-18T11:47:25Z</time></trkpt><trkpt lat="39.14695633030111" lon="8.511516934379252"><ele>52.800000000000004</ele><time>2026-04-18T11:47:26Z</time></trkpt><trkpt lat="39.14686420545421" lon="8.511549301885957"><ele>52.400000000000006</ele><time>2026-04-18T11:47:27Z</time></trkpt><trkpt lat="39.146766897377915" lon="8.511612953000805"><ele>52.0</ele><time>2026-04-18T11:47:28Z</time></trkpt><trkpt lat="39.146655132253024" lon="8.511650047853541"><ele>51.0</ele><time>2026-04-18T11:47:29Z</time></trkpt><trkpt lat="39.14652765480934" lon="8.511647864212541"><ele>50.0</ele><time>2026-04-18T11:47:30Z</time></trkpt><trkpt lat="39.14639473475582" lon="8.51162967374478"><ele>49.0</ele><time>2026-04-18T11:47:31Z</time></trkpt><trkpt lat="39.146254358950536" lon="8.51161481851169"><ele>48.0</ele><time>2026-04-18T11:47:32Z</time></trkpt><trkpt lat="39.14610616579346" lon="8.511603967906183"><ele>48.0</ele><time>2026-04-18T11:47:33Z</time></trkpt><trkpt lat="39.145950623014855" lon="8.511593475170605"><ele>48.0</ele><time>2026-04-18T11:47:34Z</time></trkpt><trkpt lat="39.14578873330497" lon="8.511583311453066"><ele>48.0</ele><time>2026-04-18T11:47:35Z</time></trkpt><trkpt lat="39.14563056430826" lon="8.511574415928028"><ele>48.0</ele><time>2026-04-18T11:47:36Z</time></trkpt><trkpt lat="39.14547017907094" lon="8.511568427902652"><ele>48.0</ele><time>2026-04-18T11:47:37Z</time></trkpt><trkpt lat="39.145307606644884" lon="8.51156172889029"><ele>48.0</ele><time>2026-04-18T11:47:38Z</time></trkpt><trkpt lat="39.14513646561221" lon="8.511552743290137"><ele>48.0</ele><time>2026-04-18T11:47:39Z</time></trkpt><trkpt lat="39.14496597928317" lon="8.511546350809384"><ele>48.0</ele><time>2026-04-18T11:47:40Z</time></trkpt><trkpt lat="39.14479346310078" lon="8.511540620420117"><ele>48.0</ele><time>2026-04-18T11:47:41Z</time></trkpt><trkpt lat="39.144618117722615" lon="8.511532965955112"><ele>48.33333333333333</ele><time>2026-04-18T11:47:42Z</time></trkpt><trkpt lat="39.14444220524111" lon="8.511521974606726"><ele>48.666666666666664</ele><time>2026-04-18T11:47:43Z</time></trkpt><trkpt lat="39.144264127628404" lon="8.511515956342445"><ele>49.0</ele><time>2026-04-18T11:47:44Z</time></trkpt><trkpt lat="39.144083108154106" lon="8.511512674037466"><ele>48.666666666666664</ele><time>2026-04-18T11:47:45Z</time></trkpt><trkpt lat="39.14389845191108" lon="8.511504179424339"><ele>48.33333333333333</ele><time>2026-04-18T11:47:46Z</time></trkpt><trkpt lat="39.143718086896435" lon="8.511493578805537"><ele>48.0</ele><time>2026-04-18T11:47:47Z</time></trkpt><trkpt lat="39.143530603265994" lon="8.511482048448201"><ele>48.0</ele><time>2026-04-18T11:47:48Z</time></trkpt><trkpt lat="39.14334508909747" lon="8.511469885488356"><ele>48.0</ele><time>2026-04-18T11:47:49Z</time></trkpt><trkpt lat="39.143157492850094" lon="8.5114614137857"><ele>48.0</ele><time>2026-04-18T11:47:50Z</time></trkpt><trkpt lat="39.142968138523734" lon="8.511454769851897"><ele>48.66666666666667</ele><time>2026-04-18T11:47:51Z</time></trkpt><trkpt lat="39.14277875526712" lon="8.511446134979808"><ele>49.333333333333336</ele><time>2026-04-18T11:47:52Z</time></trkpt><trkpt lat="39.142587152945836" lon="8.511437671951422"><ele>50.0</ele><time>2026-04-18T11:47:53Z</time></trkpt><trkpt lat="39.14239255004094" lon="8.511429946308315"><ele>50.333333333333336</ele><time>2026-04-18T11:47:54Z</time></trkpt><trkpt lat="39.142197665449366" lon="8.511423632237154"><ele>50.66666666666667</ele><time>2026-04-18T11:47:55Z</time></trkpt><trkpt lat="39.14200016425954" lon="8.511415622526759"><ele>51.0</ele><time>2026-04-18T11:47:56Z</time></trkpt><trkpt lat="39.141802001291616" lon="8.511407850220518"><ele>51.0</ele><time>2026-04-18T11:47:57Z</time></trkpt><trkpt lat="39.14160286351399" lon="8.51139910482529"><ele>51.0</ele><time>2026-04-18T11:47:58Z</time></trkpt><trkpt lat="39.141403070439566" lon="8.511387978943048"><ele>51.0</ele><time>2026-04-18T11:47:59Z</time></trkpt><trkpt lat="39.14120348792015" lon="8.511375858596095"><ele>50.0</ele><time>2026-04-18T11:48:00Z</time></trkpt><trkpt lat="39.141003119344084" lon="8.511366160623096"><ele>49.0</ele><time>2026-04-18T11:48:01Z</time></trkpt><trkpt lat="39.14080448744906" lon="8.51135832207186"><ele>48.0</ele><time>2026-04-18T11:48:02Z</time></trkpt><trkpt lat="39.14060704888188" lon="8.511349864979035"><ele>48.0</ele><time>2026-04-18T11:48:03Z</time></trkpt><trkpt lat="39.140416476273074" lon="8.51134284471339"><ele>48.0</ele><time>2026-04-18T11:48:04Z</time></trkpt><trkpt lat="39.14022654873494" lon="8.511333003941719"><ele>48.0</ele><time>2026-04-18T11:48:05Z</time></trkpt><trkpt lat="39.14003636862318" lon="8.511324800482917"><ele>48.66666666666667</ele><time>2026-04-18T11:48:06Z</time></trkpt><trkpt lat="39.13984770978058" lon="8.51131657063806"><ele>49.333333333333336</ele><time>2026-04-18T11:48:07Z</time></trkpt><trkpt lat="39.13965604679004" lon="8.511305651726362"><ele>50.0</ele><time>2026-04-18T11:48:08Z</time></trkpt><trkpt lat="39.13946503746768" lon="8.511294238882625"><ele>50.0</ele><time>2026-04-18T11:48:09Z</time></trkpt><trkpt lat="39.13927171024517" lon="8.511285704640633"><ele>50.0</ele><time>2026-04-18T11:48:10Z</time></trkpt><trkpt lat="39.13908206782486" lon="8.51127982102375"><ele>50.0</ele><time>2026-04-18T11:48:11Z</time></trkpt><trkpt lat="39.138889313264954" lon="8.511274279006239"><ele>49.0</ele><time>2026-04-18T11:48:12Z</time></trkpt><trkpt lat="39.13869437730433" lon="8.511267141117381"><ele>48.0</ele><time>2026-04-18T11:48:13Z</time></trkpt><trkpt lat="39.138499563675964" lon="8.511257307761854"><ele>47.0</ele><time>2026-04-18T11:48:14Z</time></trkpt><trkpt lat="39.138309833824906" lon="8.511247373713227"><ele>46.666666666666664</ele><time>2026-04-18T11:48:15Z</time></trkpt><trkpt lat="39.138122027917134" lon="8.511238720505782"><ele>46.333333333333336</ele><time>2026-04-18T11:48:16Z</time></trkpt><trkpt lat="39.13793117539972" lon="8.511233129652567"><ele>46.0</ele><time>2026-04-18T11:48:17Z</time></trkpt><trkpt lat="39.13774047875394" lon="8.511222771868956"><ele>46.0</ele><time>2026-04-18T11:48:18Z</time></trkpt><trkpt lat="39.13754885030298" lon="8.511212789271482"><ele>46.0</ele><time>2026-04-18T11:48:19Z</time></trkpt><trkpt lat="39.137356526375946" lon="8.511203628169087"><ele>46.0</ele><time>2026-04-18T11:48:20Z</time></trkpt><trkpt lat="39.13716374693173" lon="8.511195277744099"><ele>46.66666666666667</ele><time>2026-04-18T11:48:21Z</time></trkpt><trkpt lat="39.13697215736452" lon="8.511188682056373"><ele>47.333333333333336</ele><time>2026-04-18T11:48:22Z</time></trkpt><trkpt lat="39.136778871289" lon="8.511185118054197"><ele>48.0</ele><time>2026-04-18T11:48:23Z</time></trkpt><trkpt lat="39.136586613181585" lon="8.511180699069198"><ele>47.333333333333336</ele><time>2026-04-18T11:48:24Z</time></trkpt><trkpt lat="39.1363923898606" lon="8.511170733541409"><ele>46.66666666666667</ele><time>2026-04-18T11:48:25Z</time></trkpt><trkpt lat="39.136199129415594" lon="8.511154938975855"><ele>46.0</ele><time>2026-04-18T11:48:26Z</time></trkpt><trkpt lat="39.13600418747617" lon="8.511135352051612"><ele>46.0</ele><time>2026-04-18T11:48:27Z</time></trkpt><trkpt lat="39.13580792516059" lon="8.511111677234117"><ele>46.0</ele><time>2026-04-18T11:48:28Z</time></trkpt><trkpt lat="39.13561376727205" lon="8.511083376514954"><ele>46.0</ele><time>2026-04-18T11:48:29Z</time></trkpt><trkpt lat="39.13541779206561" lon="8.51104608828896"><ele>45.333333333333336</ele><time>2026-04-18T11:48:30Z</time></trkpt><trkpt lat="39.13522665081895" lon="8.510997076950952"><ele>44.666666666666664</ele><time>2026-04-18T11:48:31Z</time></trkpt><trkpt lat="39.13503181435113" lon="8.510942683034747"><ele>44.0</ele><time>2026-04-18T11:48:32Z</time></trkpt><trkpt lat="39.13483809016722" lon="8.510885933064205"><ele>43.33333333333333</ele><time>2026-04-18T11:48:33Z</time></trkpt><trkpt lat="39.13464430624777" lon="8.510823191739899"><ele>42.666666666666664</ele><time>2026-04-18T11:48:34Z</time></trkpt><trkpt lat="39.13445155478521" lon="8.510752866708698"><ele>42.0</ele><time>2026-04-18T11:48:35Z</time></trkpt><trkpt lat="39.13425953583873" lon="8.510679660830027"><ele>42.0</ele><time>2026-04-18T11:48:36Z</time></trkpt><trkpt lat="39.13406737994574" lon="8.510603753084427"><ele>42.0</ele><time>2026-04-18T11:48:37Z</time></trkpt><trkpt lat="39.13387329361085" lon="8.51052838719339"><ele>42.0</ele><time>2026-04-18T11:48:38Z</time></trkpt><trkpt lat="39.133678385483485" lon="8.510455442145458"><ele>41.333333333333336</ele><time>2026-04-18T11:48:39Z</time></trkpt><trkpt lat="39.133481853565364" lon="8.510382478990994"><ele>40.66666666666667</ele><time>2026-04-18T11:48:40Z</time></trkpt><trkpt lat="39.13328528426101" lon="8.510306909722859"><ele>40.0</ele><time>2026-04-18T11:48:41Z</time></trkpt><trkpt lat="39.13308796195045" lon="8.510232050809869"><ele>40.0</ele><time>2026-04-18T11:48:42Z</time></trkpt><trkpt lat="39.13289043709613" lon="8.51015812487151"><ele>40.0</ele><time>2026-04-18T11:48:43Z</time></trkpt><trkpt lat="39.1326914495206" lon="8.510084874510309"><ele>40.0</ele><time>2026-04-18T11:48:44Z</time></trkpt><trkpt lat="39.13249516585614" lon="8.510008844705947"><ele>39.333333333333336</ele><time>2026-04-18T11:48:45Z</time></trkpt><trkpt lat="39.13230012981345" lon="8.509933634011484"><ele>38.666666666666664</ele><time>2026-04-18T11:48:46Z</time></trkpt><trkpt lat="39.13210414285264" lon="8.509866329281465"><ele>38.0</ele><time>2026-04-18T11:48:47Z</time></trkpt><trkpt lat="39.13190782628924" lon="8.509808029390038"><ele>38.0</ele><time>2026-04-18T11:48:48Z</time></trkpt><trkpt lat="39.1317156384211" lon="8.509762914745108"><ele>38.0</ele><time>2026-04-18T11:48:49Z</time></trkpt><trkpt lat="39.13152582323051" lon="8.509729360290374"><ele>38.0</ele><time>2026-04-18T11:48:50Z</time></trkpt><trkpt lat="39.1313366489775" lon="8.509704628189507"><ele>37.666666666666664</ele><time>2026-04-18T11:48:51Z</time></trkpt><trkpt lat="39.13115092194772" lon="8.509697111957983"><ele>37.333333333333336</ele><time>2026-04-18T11:48:52Z</time></trkpt><trkpt lat="39.13097029621116" lon="8.509707864677184"><ele>37.0</ele><time>2026-04-18T11:48:53Z</time></trkpt><trkpt lat="39.130796522626746" lon="8.50973538580156"><ele>37.0</ele><time>2026-04-18T11:48:54Z</time></trkpt><trkpt lat="39.130632952834645" lon="8.509778396118085"><ele>37.0</ele><time>2026-04-18T11:48:55Z</time></trkpt><trkpt lat="39.130477423643185" lon="8.50982959218788"><ele>37.0</ele><time>2026-04-18T11:48:56Z</time></trkpt><trkpt lat="39.130326485088084" lon="8.509883667817245"><ele>37.0</ele><time>2026-04-18T11:48:57Z</time></trkpt><trkpt lat="39.13018527481611" lon="8.509936404984268"><ele>37.0</ele><time>2026-04-18T11:48:58Z</time></trkpt><trkpt lat="39.13005171817285" lon="8.509990811546878"><ele>37.0</ele><time>2026-04-18T11:48:59Z</time></trkpt><trkpt lat="39.129930564288145" lon="8.51004468768544"><ele>37.0</ele><time>2026-04-18T11:49:00Z</time></trkpt><trkpt lat="39.12982163739745" lon="8.510085572515154"><ele>37.0</ele><time>2026-04-18T11:49:01Z</time></trkpt><trkpt lat="39.12971888216812" lon="8.510103741016414"><ele>37.0</ele><time>2026-04-18T11:49:02Z</time></trkpt><trkpt lat="39.12963119920548" lon="8.51008031001477"><ele>37.0</ele><time>2026-04-18T11:49:03Z</time></trkpt><trkpt lat="39.12955423049205" lon="8.510029445447831"><ele>37.0</ele><time>2026-04-18T11:49:04Z</time></trkpt><trkpt lat="39.12947068212294" lon="8.509983608972304"><ele>37.0</ele><time>2026-04-18T11:49:05Z</time></trkpt><trkpt lat="39.12937784114397" lon="8.509965348229363"><ele>37.0</ele><time>2026-04-18T11:49:06Z</time></trkpt><trkpt lat="39.12928083614724" lon="8.509985892191628"><ele>37.0</ele><time>2026-04-18T11:49:07Z</time></trkpt><trkpt lat="39.1292032751921" lon="8.510049192335629"><ele>37.0</ele><time>2026-04-18T11:49:08Z</time></trkpt><trkpt lat="39.12915031003992" lon="8.510148888892049"><ele>37.0</ele><time>2026-04-18T11:49:09Z</time></trkpt><trkpt lat="39.129114561385" lon="8.510267336627743"><ele>37.0</ele><time>2026-04-18T11:49:10Z</time></trkpt><trkpt lat="39.1290639814546" lon="8.51037611781513"><ele>36.5</ele><time>2026-04-18T11:49:11Z</time></trkpt><trkpt lat="39.12897854317566" lon="8.510463819012045"><ele>36.0</ele><time>2026-04-18T11:49:12Z</time></trkpt><trkpt lat="39.128867957651416" lon="8.510524422852956"><ele>35.5</ele><time>2026-04-18T11:49:13Z</time></trkpt><trkpt lat="39.12874567808712" lon="8.510574292284177"><ele>35.0</ele><time>2026-04-18T11:49:14Z</time></trkpt><trkpt lat="39.128617884498034" lon="8.510628162067695"><ele>35.0</ele><time>2026-04-18T11:49:15Z</time></trkpt><trkpt lat="39.128484508764984" lon="8.510687897253367"><ele>35.0</ele><time>2026-04-18T11:49:16Z</time></trkpt><trkpt lat="39.128344202163674" lon="8.51074900946194"><ele>35.0</ele><time>2026-04-18T11:49:17Z</time></trkpt><trkpt lat="39.12820176065635" lon="8.510807541558648"><ele>35.0</ele><time>2026-04-18T11:49:18Z</time></trkpt><trkpt lat="39.1280552985377" lon="8.510867778283881"><ele>35.0</ele><time>2026-04-18T11:49:19Z</time></trkpt><trkpt lat="39.12790620300661" lon="8.510932951280443"><ele>35.0</ele><time>2026-04-18T11:49:20Z</time></trkpt><trkpt lat="39.12775501269419" lon="8.511006112641198"><ele>35.0</ele><time>2026-04-18T11:49:21Z</time></trkpt><trkpt lat="39.12760238258482" lon="8.511088116365661"><ele>35.0</ele><time>2026-04-18T11:49:22Z</time></trkpt><trkpt lat="39.12745499856414" lon="8.511181436356289"><ele>35.0</ele><time>2026-04-18T11:49:23Z</time></trkpt><trkpt lat="39.12730415783682" lon="8.511284015066066"><ele>35.0</ele><time>2026-04-18T11:49:24Z</time></trkpt><trkpt lat="39.127155543794935" lon="8.51138754061862"><ele>34.0</ele><time>2026-04-18T11:49:25Z</time></trkpt><trkpt lat="39.12700639511939" lon="8.511494414030006"><ele>33.0</ele><time>2026-04-18T11:49:26Z</time></trkpt><trkpt lat="39.12685506913009" lon="8.511602625746308"><ele>32.0</ele><time>2026-04-18T11:49:27Z</time></trkpt><trkpt lat="39.12670031770788" lon="8.511710832546635"><ele>31.333333333333332</ele><time>2026-04-18T11:49:28Z</time></trkpt><trkpt lat="39.12654256689597" lon="8.511818247891798"><ele>30.666666666666664</ele><time>2026-04-18T11:49:29Z</time></trkpt><trkpt lat="39.12638266949543" lon="8.511930128741305"><ele>30.0</ele><time>2026-04-18T11:49:30Z</time></trkpt><trkpt lat="39.12621808336624" lon="8.512044802250559"><ele>30.0</ele><time>2026-04-18T11:49:31Z</time></trkpt><trkpt lat="39.12605380320922" lon="8.512159341522286"><ele>30.0</ele><time>2026-04-18T11:49:32Z</time></trkpt><trkpt lat="39.12588495454834" lon="8.51227400409775"><ele>30.0</ele><time>2026-04-18T11:49:33Z</time></trkpt><trkpt lat="39.125713941430476" lon="8.512389775569167"><ele>29.0</ele><time>2026-04-18T11:49:34Z</time></trkpt><trkpt lat="39.125543898567216" lon="8.512506735353558"><ele>28.0</ele><time>2026-04-18T11:49:35Z</time></trkpt><trkpt lat="39.12537398653553" lon="8.512626253026243"><ele>27.0</ele><time>2026-04-18T11:49:36Z</time></trkpt><trkpt lat="39.125206342399004" lon="8.512746404875019"><ele>27.0</ele><time>2026-04-18T11:49:37Z</time></trkpt><trkpt lat="39.12503699273696" lon="8.512868309169871"><ele>27.0</ele><time>2026-04-18T11:49:38Z</time></trkpt><trkpt lat="39.12487068382878" lon="8.512987644380745"><ele>27.0</ele><time>2026-04-18T11:49:39Z</time></trkpt><trkpt lat="39.124700396174454" lon="8.513103109100825"><ele>26.666666666666664</ele><time>2026-04-18T11:49:40Z</time></trkpt><trkpt lat="39.124530183400466" lon="8.513216644678742"><ele>26.333333333333332</ele><time>2026-04-18T11:49:41Z</time></trkpt><trkpt lat="39.124358999800734" lon="8.513332422620602"><ele>26.0</ele><time>2026-04-18T11:49:42Z</time></trkpt><trkpt lat="39.12418884543697" lon="8.513449931065566"><ele>25.666666666666664</ele><time>2026-04-18T11:49:43Z</time></trkpt><trkpt lat="39.124020766179335" lon="8.51356857968735"><ele>25.333333333333336</ele><time>2026-04-18T11:49:44Z</time></trkpt><trkpt lat="39.12384993283005" lon="8.513688646656815"><ele>25.0</ele><time>2026-04-18T11:49:45Z</time></trkpt><trkpt lat="39.12368165869665" lon="8.513806535075876"><ele>25.0</ele><time>2026-04-18T11:49:46Z</time></trkpt><trkpt lat="39.123514034789224" lon="8.513925011376411"><ele>25.0</ele><time>2026-04-18T11:49:47Z</time></trkpt><trkpt lat="39.12334629692142" lon="8.51403997763867"><ele>25.0</ele><time>2026-04-18T11:49:48Z</time></trkpt><trkpt lat="39.1231782828998" lon="8.514155514454659"><ele>25.0</ele><time>2026-04-18T11:49:49Z</time></trkpt><trkpt lat="39.123010924003964" lon="8.51426978973517"><ele>25.0</ele><time>2026-04-18T11:49:50Z</time></trkpt><trkpt lat="39.122843098599525" lon="8.514381703342066"><ele>25.0</ele><time>2026-04-18T11:49:51Z</time></trkpt><trkpt lat="39.12267528255491" lon="8.514496520801023"><ele>24.666666666666668</ele><time>2026-04-18T11:49:52Z</time></trkpt><trkpt lat="39.122505561341086" lon="8.514612237237424"><ele>24.333333333333336</ele><time>2026-04-18T11:49:53Z</time></trkpt><trkpt lat="39.122336724893515" lon="8.514730852497632"><ele>24.0</ele><time>2026-04-18T11:49:54Z</time></trkpt><trkpt lat="39.122167160014236" lon="8.514852760761515"><ele>24.0</ele><time>2026-04-18T11:49:55Z</time></trkpt><trkpt lat="39.12199794378888" lon="8.514970742362175"><ele>24.0</ele><time>2026-04-18T11:49:56Z</time></trkpt><trkpt lat="39.12182995614004" lon="8.515081750637382"><ele>24.0</ele><time>2026-04-18T11:49:57Z</time></trkpt><trkpt lat="39.12166276981556" lon="8.515197230443693"><ele>23.666666666666668</ele><time>2026-04-18T11:49:58Z</time></trkpt><trkpt lat="39.12149531773518" lon="8.515315420374328"><ele>23.333333333333336</ele><time>2026-04-18T11:49:59Z</time></trkpt><trkpt lat="39.121329348260396" lon="8.515430483782293"><ele>23.0</ele><time>2026-04-18T11:50:00Z</time></trkpt><trkpt lat="39.1211620102413" lon="8.515548027239484"><ele>23.0</ele><time>2026-04-18T11:50:01Z</time></trkpt><trkpt lat="39.12099481148936" lon="8.515663153032506"><ele>23.0</ele><time>2026-04-18T11:50:02Z</time></trkpt><trkpt lat="39.12083468531005" lon="8.515772408901642"><ele>23.0</ele><time>2026-04-18T11:50:03Z</time></trkpt><trkpt lat="39.1206743280981" lon="8.515883955335303"><ele>23.333333333333336</ele><time>2026-04-18T11:50:04Z</time></trkpt><trkpt lat="39.120511758919456" lon="8.51599336010485"><ele>23.666666666666668</ele><time>2026-04-18T11:50:05Z</time></trkpt><trkpt lat="39.1203496983012" lon="8.516092024254412"><ele>24.0</ele><time>2026-04-18T11:50:06Z</time></trkpt><trkpt lat="39.120182663446876" lon="8.516195030189401"><ele>24.0</ele><time>2026-04-18T11:50:07Z</time></trkpt><trkpt lat="39.12001210382878" lon="8.516290042463158"><ele>24.0</ele><time>2026-04-18T11:50:08Z</time></trkpt><trkpt lat="39.11983896820539" lon="8.516379254817286"><ele>24.0</ele><time>2026-04-18T11:50:09Z</time></trkpt><trkpt lat="39.11965895934175" lon="8.516463177922807"><ele>23.333333333333332</ele><time>2026-04-18T11:50:10Z</time></trkpt><trkpt lat="39.11948096840688" lon="8.51653482973267"><ele>22.666666666666664</ele><time>2026-04-18T11:50:11Z</time></trkpt><trkpt lat="39.11929546363267" lon="8.516597771090087"><ele>22.0</ele><time>2026-04-18T11:50:12Z</time></trkpt><trkpt lat="39.11910507635278" lon="8.516652030524062"><ele>22.0</ele><time>2026-04-18T11:50:13Z</time></trkpt><trkpt lat="39.11891464835468" lon="8.516692431373102"><ele>22.0</ele><time>2026-04-18T11:50:14Z</time></trkpt><trkpt lat="39.11871991004428" lon="8.516724625059862"><ele>22.0</ele><time>2026-04-18T11:50:15Z</time></trkpt><trkpt lat="39.11852718368759" lon="8.51675412062365"><ele>22.0</ele><time>2026-04-18T11:50:16Z</time></trkpt><trkpt lat="39.11833157216947" lon="8.516770083200235"><ele>22.0</ele><time>2026-04-18T11:50:17Z</time></trkpt><trkpt lat="39.11813855401727" lon="8.51677540961674"><ele>22.0</ele><time>2026-04-18T11:50:18Z</time></trkpt><trkpt lat="39.11794008171755" lon="8.516774371133584"><ele>21.666666666666664</ele><time>2026-04-18T11:50:19Z</time></trkpt><trkpt lat="39.11773630033937" lon="8.51676033153704"><ele>21.333333333333332</ele><time>2026-04-18T11:50:20Z</time></trkpt><trkpt lat="39.11752462599369" lon="8.516736853299115"><ele>21.0</ele><time>2026-04-18T11:50:21Z</time></trkpt><trkpt lat="39.11731252702183" lon="8.516691935528698"><ele>21.0</ele><time>2026-04-18T11:50:22Z</time></trkpt><trkpt lat="39.11710160621745" lon="8.516630854989232"><ele>21.0</ele><time>2026-04-18T11:50:23Z</time></trkpt><trkpt lat="39.11689517965329" lon="8.516555355533999"><ele>21.0</ele><time>2026-04-18T11:50:24Z</time></trkpt><trkpt lat="39.11668737540402" lon="8.516475216166446"><ele>20.666666666666668</ele><time>2026-04-18T11:50:25Z</time></trkpt><trkpt lat="39.116481908789936" lon="8.516392751979426"><ele>20.333333333333336</ele><time>2026-04-18T11:50:26Z</time></trkpt><trkpt lat="39.116277608001084" lon="8.516303763280703"><ele>20.0</ele><time>2026-04-18T11:50:27Z</time></trkpt><trkpt lat="39.11607487376236" lon="8.516219654472696"><ele>19.666666666666668</ele><time>2026-04-18T11:50:28Z</time></trkpt><trkpt lat="39.11587159479723" lon="8.51613066507205"><ele>19.333333333333332</ele><time>2026-04-18T11:50:29Z</time></trkpt><trkpt lat="39.115670824585884" lon="8.516041452811358"><ele>19.0</ele><time>2026-04-18T11:50:30Z</time></trkpt><trkpt lat="39.11546707689985" lon="8.515950707143054"><ele>19.0</ele><time>2026-04-18T11:50:31Z</time></trkpt><trkpt lat="39.115264725137905" lon="8.515860356625458"><ele>19.0</ele><time>2026-04-18T11:50:32Z</time></trkpt><trkpt lat="39.11506127871036" lon="8.515768625382064"><ele>19.0</ele><time>2026-04-18T11:50:33Z</time></trkpt><trkpt lat="39.11485920676182" lon="8.515678608023192"><ele>19.0</ele><time>2026-04-18T11:50:34Z</time></trkpt><trkpt lat="39.114652255530494" lon="8.515587497660873"><ele>19.0</ele><time>2026-04-18T11:50:35Z</time></trkpt><trkpt lat="39.114447323274575" lon="8.515497196639645"><ele>19.0</ele><time>2026-04-18T11:50:36Z</time></trkpt><trkpt lat="39.11424013259053" lon="8.515406891079975"><ele>19.0</ele><time>2026-04-18T11:50:37Z</time></trkpt><trkpt lat="39.11403153686791" lon="8.515316020194158"><ele>19.0</ele><time>2026-04-18T11:50:38Z</time></trkpt><trkpt lat="39.113825873561716" lon="8.515221166930555"><ele>19.0</ele><time>2026-04-18T11:50:39Z</time></trkpt><trkpt lat="39.11361733904879" lon="8.515130731625835"><ele>19.0</ele><time>2026-04-18T11:50:40Z</time></trkpt><trkpt lat="39.11340939444914" lon="8.515038873997517"><ele>19.0</ele><time>2026-04-18T11:50:41Z</time></trkpt><trkpt lat="39.11319985276945" lon="8.514945205926235"><ele>19.0</ele><time>2026-04-18T11:50:42Z</time></trkpt><trkpt lat="39.11299415564341" lon="8.514852208897725"><ele>19.0</ele><time>2026-04-18T11:50:43Z</time></trkpt><trkpt lat="39.112785212010365" lon="8.51475986044482"><ele>19.0</ele><time>2026-04-18T11:50:44Z</time></trkpt><trkpt lat="39.11257577136664" lon="8.514666210886308"><ele>19.0</ele><time>2026-04-18T11:50:45Z</time></trkpt><trkpt lat="39.11236527562476" lon="8.514569443799465"><ele>19.0</ele><time>2026-04-18T11:50:46Z</time></trkpt><trkpt lat="39.112153194342106" lon="8.514470568801393"><ele>19.0</ele><time>2026-04-18T11:50:47Z</time></trkpt><trkpt lat="39.11194326978428" lon="8.51437546254154"><ele>19.0</ele><time>2026-04-18T11:50:48Z</time></trkpt><trkpt lat="39.11172889703666" lon="8.514277232528647"><ele>18.5</ele><time>2026-04-18T11:50:49Z</time></trkpt><trkpt lat="39.11151618547583" lon="8.514183263263943"><ele>18.0</ele><time>2026-04-18T11:50:50Z</time></trkpt><trkpt lat="39.111299418401714" lon="8.514091116695147"><ele>18.0</ele><time>2026-04-18T11:50:51Z</time></trkpt><trkpt lat="39.111081153570325" lon="8.514008704449457"><ele>18.0</ele><time>2026-04-18T11:50:52Z</time></trkpt><trkpt lat="39.11085989319876" lon="8.51393048547391"><ele>17.5</ele><time>2026-04-18T11:50:53Z</time></trkpt><trkpt lat="39.11063608113256" lon="8.513866751560444"><ele>17.0</ele><time>2026-04-18T11:50:54Z</time></trkpt><trkpt lat="39.110410356125925" lon="8.513806314800313"><ele>17.0</ele><time>2026-04-18T11:50:55Z</time></trkpt><trkpt lat="39.11017809249573" lon="8.513747470519387"><ele>17.0</ele><time>2026-04-18T11:50:56Z</time></trkpt><trkpt lat="39.10995435424075" lon="8.513682946342898"><ele>15.5</ele><time>2026-04-18T11:50:57Z</time></trkpt><trkpt lat="39.10972443458444" lon="8.513625970443181"><ele>14.0</ele><time>2026-04-18T11:50:58Z</time></trkpt><trkpt lat="39.10949307835834" lon="8.513566485804509"><ele>14.0</ele><time>2026-04-18T11:50:59Z</time></trkpt><trkpt lat="39.109263468861066" lon="8.51350669954157"><ele>14.0</ele><time>2026-04-18T11:51:00Z</time></trkpt><trkpt lat="39.10903101106204" lon="8.513446698680543"><ele>15.5</ele><time>2026-04-18T11:51:01Z</time></trkpt><trkpt lat="39.108797525048715" lon="8.513388322238987"><ele>17.0</ele><time>2026-04-18T11:51:02Z</time></trkpt><trkpt lat="39.108563331934135" lon="8.513328101831993"><ele>17.0</ele><time>2026-04-18T11:51:03Z</time></trkpt><trkpt lat="39.108327964485596" lon="8.513267480970638"><ele>17.0</ele><time>2026-04-18T11:51:04Z</time></trkpt><trkpt lat="39.10809087564206" lon="8.513211487773349"><ele>16.5</ele><time>2026-04-18T11:51:05Z</time></trkpt><trkpt lat="39.10785494435531" lon="8.513152220307827"><ele>16.0</ele><time>2026-04-18T11:51:06Z</time></trkpt><trkpt lat="39.107617321536004" lon="8.513093346798254"><ele>14.5</ele><time>2026-04-18T11:51:07Z</time></trkpt><trkpt lat="39.10738085885954" lon="8.513034142053336"><ele>13.0</ele><time>2026-04-18T11:51:08Z</time></trkpt><trkpt lat="39.10714386245929" lon="8.512973153122015"><ele>13.0</ele><time>2026-04-18T11:51:09Z</time></trkpt><trkpt lat="39.10690838112752" lon="8.512911255036776"><ele>13.0</ele><time>2026-04-18T11:51:10Z</time></trkpt><trkpt lat="39.10667168193056" lon="8.512855994823155"><ele>12.0</ele><time>2026-04-18T11:51:11Z</time></trkpt><trkpt lat="39.10643808393327" lon="8.512800758937892"><ele>11.0</ele><time>2026-04-18T11:51:12Z</time></trkpt><trkpt lat="39.10620267679926" lon="8.512741434871627"><ele>11.0</ele><time>2026-04-18T11:51:13Z</time></trkpt><trkpt lat="39.105971653684" lon="8.512677721259774"><ele>11.0</ele><time>2026-04-18T11:51:14Z</time></trkpt><trkpt lat="39.105741463179434" lon="8.512617057532909"><ele>12.5</ele><time>2026-04-18T11:51:15Z</time></trkpt><trkpt lat="39.10551277544653" lon="8.512556036001602"><ele>14.0</ele><time>2026-04-18T11:51:16Z</time></trkpt><trkpt lat="39.10528663748415" lon="8.512497535615593"><ele>14.0</ele><time>2026-04-18T11:51:17Z</time></trkpt><trkpt lat="39.10505962195552" lon="8.512437056159822"><ele>14.0</ele><time>2026-04-18T11:51:18Z</time></trkpt><trkpt lat="39.10483760291583" lon="8.512375995213882"><ele>14.0</ele><time>2026-04-18T11:51:19Z</time></trkpt><trkpt lat="39.104620576922436" lon="8.512307695702253"><ele>14.0</ele><time>2026-04-18T11:51:20Z</time></trkpt><trkpt lat="39.10440666159853" lon="8.512227249398553"><ele>14.0</ele><time>2026-04-18T11:51:21Z</time></trkpt><trkpt lat="39.104200806481394" lon="8.512127923020385"><ele>13.333333333333334</ele><time>2026-04-18T11:51:22Z</time></trkpt><trkpt lat="39.103995660357" lon="8.51202451698697"><ele>12.666666666666668</ele><time>2026-04-18T11:51:23Z</time></trkpt><trkpt lat="39.103793743744156" lon="8.511903752796307"><ele>12.0</ele><time>2026-04-18T11:51:24Z</time></trkpt><trkpt lat="39.10359718843609" lon="8.511774013922588"><ele>12.0</ele><time>2026-04-18T11:51:25Z</time></trkpt><trkpt lat="39.1034032792021" lon="8.511633561550457"><ele>12.0</ele><time>2026-04-18T11:51:26Z</time></trkpt><trkpt lat="39.10321709090122" lon="8.511480152294151"><ele>12.0</ele><time>2026-04-18T11:51:27Z</time></trkpt><trkpt lat="39.103035772705226" lon="8.511310523399498"><ele>12.333333333333332</ele><time>2026-04-18T11:51:28Z</time></trkpt><trkpt lat="39.10286170171538" lon="8.51113129663394"><ele>12.666666666666666</ele><time>2026-04-18T11:51:29Z</time></trkpt><trkpt lat="39.10269229440285" lon="8.510939833494852"><ele>13.0</ele><time>2026-04-18T11:51:30Z</time></trkpt><trkpt lat="39.1025292895435" lon="8.510742311396276"><ele>13.0</ele><time>2026-04-18T11:51:31Z</time></trkpt><trkpt lat="39.1023690456825" lon="8.510530665710773"><ele>13.0</ele><time>2026-04-18T11:51:32Z</time></trkpt><trkpt lat="39.10221222671129" lon="8.510318169359891"><ele>12.5</ele><time>2026-04-18T11:51:33Z</time></trkpt><trkpt lat="39.10205806782226" lon="8.510100446568083"><ele>12.0</ele><time>2026-04-18T11:51:34Z</time></trkpt><trkpt lat="39.101905727294294" lon="8.509874554466359"><ele>12.0</ele><time>2026-04-18T11:51:35Z</time></trkpt><trkpt lat="39.10175183303548" lon="8.509658345521501"><ele>12.0</ele><time>2026-04-18T11:51:36Z</time></trkpt><trkpt lat="39.101599159600724" lon="8.509436018934942"><ele>11.5</ele><time>2026-04-18T11:51:37Z</time></trkpt><trkpt lat="39.101448560719064" lon="8.509216600303715"><ele>11.0</ele><time>2026-04-18T11:51:38Z</time></trkpt><trkpt lat="39.10129585088257" lon="8.508991605353073"><ele>11.0</ele><time>2026-04-18T11:51:39Z</time></trkpt><trkpt lat="39.10114646232666" lon="8.508765410810526"><ele>11.0</ele><time>2026-04-18T11:51:40Z</time></trkpt><trkpt lat="39.100993387139596" lon="8.508543028480432"><ele>11.0</ele><time>2026-04-18T11:51:41Z</time></trkpt><trkpt lat="39.10083859643088" lon="8.508316098039513"><ele>11.0</ele><time>2026-04-18T11:51:42Z</time></trkpt><trkpt lat="39.100684950509034" lon="8.508089201689769"><ele>11.0</ele><time>2026-04-18T11:51:43Z</time></trkpt><trkpt lat="39.100533484703625" lon="8.50786240485683"><ele>11.0</ele><time>2026-04-18T11:51:44Z</time></trkpt><trkpt lat="39.10038009576395" lon="8.50763671859132"><ele>11.0</ele><time>2026-04-18T11:51:45Z</time></trkpt><trkpt lat="39.10022534467145" lon="8.507406326925693"><ele>11.0</ele><time>2026-04-18T11:51:46Z</time></trkpt><trkpt lat="39.10007153065512" lon="8.507180379920522"><ele>9.5</ele><time>2026-04-18T11:51:47Z</time></trkpt><trkpt lat="39.0999150978025" lon="8.506951659485912"><ele>8.0</ele><time>2026-04-18T11:51:48Z</time></trkpt><trkpt lat="39.09975982105792" lon="8.506723195832507"><ele>8.0</ele><time>2026-04-18T11:51:49Z</time></trkpt><trkpt lat="39.0996079501522" lon="8.506493102264875"><ele>8.0</ele><time>2026-04-18T11:51:50Z</time></trkpt><trkpt lat="39.09945628615426" lon="8.506259926964784"><ele>8.5</ele><time>2026-04-18T11:51:51Z</time></trkpt><trkpt lat="39.099308936756955" lon="8.506021603001791"><ele>9.0</ele><time>2026-04-18T11:51:52Z</time></trkpt><trkpt lat="39.09916719119157" lon="8.50578082389174"><ele>9.5</ele><time>2026-04-18T11:51:53Z</time></trkpt><trkpt lat="39.099022177202684" lon="8.505539550177032"><ele>10.0</ele><time>2026-04-18T11:51:54Z</time></trkpt><trkpt lat="39.098875118641196" lon="8.50530415968179"><ele>9.0</ele><time>2026-04-18T11:51:55Z</time></trkpt><trkpt lat="39.098731977860666" lon="8.50506240659539"><ele>8.0</ele><time>2026-04-18T11:51:56Z</time></trkpt><trkpt lat="39.09858887353459" lon="8.50482284301562"><ele>8.0</ele><time>2026-04-18T11:51:57Z</time></trkpt><trkpt lat="39.098447649730694" lon="8.504587083393584"><ele>8.0</ele><time>2026-04-18T11:51:58Z</time></trkpt><trkpt lat="39.09830621078029" lon="8.50435240389254"><ele>8.333333333333332</ele><time>2026-04-18T11:51:59Z</time></trkpt><trkpt lat="39.09816760374199" lon="8.50411990503628"><ele>8.666666666666666</ele><time>2026-04-18T11:52:00Z</time></trkpt><trkpt lat="39.09803139839264" lon="8.503894528344691"><ele>9.0</ele><time>2026-04-18T11:52:01Z</time></trkpt><trkpt lat="39.09789438759715" lon="8.503667918002842"><ele>9.0</ele><time>2026-04-18T11:52:02Z</time></trkpt><trkpt lat="39.09775971830738" lon="8.503445656280126"><ele>9.0</ele><time>2026-04-18T11:52:03Z</time></trkpt><trkpt lat="39.097624667479266" lon="8.5032239275986"><ele>9.0</ele><time>2026-04-18T11:52:04Z</time></trkpt><trkpt lat="39.09749351018015" lon="8.503005452071946"><ele>8.333333333333334</ele><time>2026-04-18T11:52:05Z</time></trkpt><trkpt lat="39.09736660922645" lon="8.50279859169184"><ele>7.666666666666667</ele><time>2026-04-18T11:52:06Z</time></trkpt><trkpt lat="39.097241547782374" lon="8.502607363397315"><ele>7.0</ele><time>2026-04-18T11:52:07Z</time></trkpt><trkpt lat="39.09712650002753" lon="8.50241940454058"><ele>7.0</ele><time>2026-04-18T11:52:08Z</time></trkpt><trkpt lat="39.09701492324738" lon="8.502240627428952"><ele>7.0</ele><time>2026-04-18T11:52:09Z</time></trkpt><trkpt lat="39.09691621185038" lon="8.502069696150766"><ele>7.0</ele><time>2026-04-18T11:52:10Z</time></trkpt><trkpt lat="39.09682595251293" lon="8.50191418607029"><ele>6.8</ele><time>2026-04-18T11:52:11Z</time></trkpt><trkpt lat="39.09674352797925" lon="8.501776382044282"><ele>6.6</ele><time>2026-04-18T11:52:12Z</time></trkpt><trkpt lat="39.09667431719233" lon="8.501652473167647"><ele>6.3999999999999995</ele><time>2026-04-18T11:52:13Z</time></trkpt><trkpt lat="39.09661895147944" lon="8.501540677597632"><ele>6.199999999999999</ele><time>2026-04-18T11:52:14Z</time></trkpt><trkpt lat="39.09658322035797" lon="8.501436552674939"><ele>6.0</ele><time>2026-04-18T11:52:15Z</time></trkpt><trkpt lat="39.09656920750309" lon="8.501329925864704"><ele>6.0</ele><time>2026-04-18T11:52:16Z</time></trkpt><trkpt lat="39.09657390449979" lon="8.501207568324896"><ele>6.0</ele><time>2026-04-18T11:52:17Z</time></trkpt><trkpt lat="39.09656936523757" lon="8.501111992397874"><ele>6.0</ele><time>2026-04-18T11:52:18Z</time></trkpt><trkpt lat="39.096532692844306" lon="8.50101847257359"><ele>6.0</ele><time>2026-04-18T11:52:19Z</time></trkpt><trkpt lat="39.09646723546586" lon="8.50095461148296"><ele>6.0</ele><time>2026-04-18T11:52:20Z</time></trkpt><trkpt lat="39.096377675274475" lon="8.500923918867867"><ele>6.0</ele><time>2026-04-18T11:52:21Z</time></trkpt><trkpt lat="39.09628304889784" lon="8.500892708149898"><ele>6.0</ele><time>2026-04-18T11:52:22Z</time></trkpt><trkpt lat="39.096190351394895" lon="8.500808791599852"><ele>6.0</ele><time>2026-04-18T11:52:23Z</time></trkpt><trkpt lat="39.096112760142134" lon="8.50068556772687"><ele>6.0</ele><time>2026-04-18T11:52:24Z</time></trkpt><trkpt lat="39.0960378650351" lon="8.50054625589659"><ele>6.0</ele><time>2026-04-18T11:52:25Z</time></trkpt><trkpt lat="39.09595171449775" lon="8.500401620623"><ele>5.333333333333333</ele><time>2026-04-18T11:52:26Z</time></trkpt><trkpt lat="39.095858965109244" lon="8.500255759783826"><ele>4.666666666666666</ele><time>2026-04-18T11:52:27Z</time></trkpt><trkpt lat="39.09576203978392" lon="8.50010584583368"><ele>4.0</ele><time>2026-04-18T11:52:28Z</time></trkpt><trkpt lat="39.09566174936548" lon="8.499944690900548"><ele>4.0</ele><time>2026-04-18T11:52:29Z</time></trkpt><trkpt lat="39.09556037816655" lon="8.499774222583598"><ele>4.0</ele><time>2026-04-18T11:52:30Z</time></trkpt><trkpt lat="39.09545244821913" lon="8.499603984650571"><ele>4.0</ele><time>2026-04-18T11:52:31Z</time></trkpt><trkpt lat="39.09533034475028" lon="8.49943384767499"><ele>4.0</ele><time>2026-04-18T11:52:32Z</time></trkpt><trkpt lat="39.09521447438019" lon="8.4992456043894"><ele>4.0</ele><time>2026-04-18T11:52:33Z</time></trkpt><trkpt lat="39.095078288828205" lon="8.49906536137076"><ele>4.0</ele><time>2026-04-18T11:52:34Z</time></trkpt><trkpt lat="39.09493680576987" lon="8.498885660496219"><ele>4.0</ele><time>2026-04-18T11:52:35Z</time></trkpt><trkpt lat="39.09479700072664" lon="8.498711029383507"><ele>4.0</ele><time>2026-04-18T11:52:36Z</time></trkpt><trkpt lat="39.09465340791356" lon="8.49853166694994"><ele>4.0</ele><time>2026-04-18T11:52:37Z</time></trkpt><trkpt lat="39.09450625368951" lon="8.498349443597265"><ele>4.0</ele><time>2026-04-18T11:52:38Z</time></trkpt><trkpt lat="39.09435621182149" lon="8.498163849061557"><ele>4.0</ele><time>2026-04-18T11:52:39Z</time></trkpt><trkpt lat="39.09419501813631" lon="8.497990916458033"><ele>4.0</ele><time>2026-04-18T11:52:40Z</time></trkpt><trkpt lat="39.094043833390074" lon="8.497796363326994"><ele>4.0</ele><time>2026-04-18T11:52:41Z</time></trkpt><trkpt lat="39.09388946734807" lon="8.497600046782452"><ele>4.0</ele><time>2026-04-18T11:52:42Z</time></trkpt><trkpt lat="39.09373275176091" lon="8.497402036587948"><ele>4.0</ele><time>2026-04-18T11:52:43Z</time></trkpt><trkpt lat="39.09357708623334" lon="8.49720009894504"><ele>3.6666666666666665</ele><time>2026-04-18T11:52:44Z</time></trkpt><trkpt lat="39.093423357278716" lon="8.49699567045046"><ele>3.333333333333333</ele><time>2026-04-18T11:52:45Z</time></trkpt><trkpt lat="39.09326854543242" lon="8.496787277081133"><ele>3.0</ele><time>2026-04-18T11:52:46Z</time></trkpt><trkpt lat="39.09311781653916" lon="8.496577719399124"><ele>3.0</ele><time>2026-04-18T11:52:47Z</time></trkpt><trkpt lat="39.092970868316684" lon="8.496364538250242"><ele>3.0</ele><time>2026-04-18T11:52:48Z</time></trkpt><trkpt lat="39.0928242950989" lon="8.496145219332066"><ele>3.0</ele><time>2026-04-18T11:52:49Z</time></trkpt><trkpt lat="39.09267738364767" lon="8.495923512508423"><ele>2.5</ele><time>2026-04-18T11:52:50Z</time></trkpt><trkpt lat="39.09252942307876" lon="8.495700726505076"><ele>2.0</ele><time>2026-04-18T11:52:51Z</time></trkpt><trkpt lat="39.0923806451549" lon="8.495478505075479"><ele>1.5</ele><time>2026-04-18T11:52:52Z</time></trkpt><trkpt lat="39.092231215024114" lon="8.495255884881365"><ele>1.0</ele><time>2026-04-18T11:52:53Z</time></trkpt><trkpt lat="39.09208241440219" lon="8.4950308706552"><ele>1.0</ele><time>2026-04-18T11:52:54Z</time></trkpt><trkpt lat="39.09193423348473" lon="8.49480532648155"><ele>1.0</ele><time>2026-04-18T11:52:55Z</time></trkpt><trkpt lat="39.091783053798316" lon="8.494579373871268"><ele>1.0</ele><time>2026-04-18T11:52:56Z</time></trkpt><trkpt lat="39.091629015097126" lon="8.494359065776715"><ele>1.0</ele><time>2026-04-18T11:52:57Z</time></trkpt><trkpt lat="39.09147696284995" lon="8.494132119100247"><ele>1.0</ele><time>2026-04-18T11:52:58Z</time></trkpt><trkpt lat="39.09132340625851" lon="8.493904195409188"><ele>1.0</ele><time>2026-04-18T11:52:59Z</time></trkpt><trkpt lat="39.09117121562181" lon="8.49367601876046"><ele>1.5</ele><time>2026-04-18T11:53:00Z</time></trkpt><trkpt lat="39.09101593886535" lon="8.493449209168627"><ele>2.0</ele><time>2026-04-18T11:53:01Z</time></trkpt><trkpt lat="39.09086085176503" lon="8.493220575920379"><ele>2.0</ele><time>2026-04-18T11:53:02Z</time></trkpt><trkpt lat="39.090716728842764" lon="8.492976094074237"><ele>2.0</ele><time>2026-04-18T11:53:03Z</time></trkpt><trkpt lat="39.0905609188786" lon="8.49274535579743"><ele>1.5</ele><time>2026-04-18T11:53:04Z</time></trkpt><trkpt lat="39.09039190868266" lon="8.492527490886326"><ele>1.0</ele><time>2026-04-18T11:53:05Z</time></trkpt><trkpt lat="39.09023594912385" lon="8.492292775375352"><ele>1.5</ele><time>2026-04-18T11:53:06Z</time></trkpt><trkpt lat="39.09008251230185" lon="8.492056839080535"><ele>2.0</ele><time>2026-04-18T11:53:07Z</time></trkpt><trkpt lat="39.08992823250784" lon="8.491819094977176"><ele>1.5</ele><time>2026-04-18T11:53:08Z</time></trkpt><trkpt lat="39.08977335806293" lon="8.491581374316022"><ele>1.0</ele><time>2026-04-18T11:53:09Z</time></trkpt><trkpt lat="39.08961496962174" lon="8.491354438786592"><ele>1.0</ele><time>2026-04-18T11:53:10Z</time></trkpt><trkpt lat="39.089460834549996" lon="8.4911294320971"><ele>1.0</ele><time>2026-04-18T11:53:11Z</time></trkpt><trkpt lat="39.089307241842924" lon="8.49091220479108"><ele>1.0</ele><time>2026-04-18T11:53:12Z</time></trkpt><trkpt lat="39.089149915789626" lon="8.490706640391098"><ele>1.0</ele><time>2026-04-18T11:53:13Z</time></trkpt><trkpt lat="39.088987109155255" lon="8.490512161075145"><ele>1.0</ele><time>2026-04-18T11:53:14Z</time></trkpt><trkpt lat="39.08880764176035" lon="8.490354206426364"><ele>1.3333333333333333</ele><time>2026-04-18T11:53:15Z</time></trkpt><trkpt lat="39.08861776503183" lon="8.490216224280644"><ele>1.6666666666666665</ele><time>2026-04-18T11:53:16Z</time></trkpt><trkpt lat="39.08841782540804" lon="8.490100929255826"><ele>2.0</ele><time>2026-04-18T11:53:17Z</time></trkpt><trkpt lat="39.08820783051159" lon="8.490016849114392"><ele>0.5</ele><time>2026-04-18T11:53:18Z</time></trkpt><trkpt lat="39.087988784820354" lon="8.489960059846325"><ele>-1.0</ele><time>2026-04-18T11:53:19Z</time></trkpt><trkpt lat="39.08776168315072" lon="8.489916321836901"><ele>-1.0</ele><time>2026-04-18T11:53:20Z</time></trkpt><trkpt lat="39.087534049720915" lon="8.489877352357961"><ele>-1.0</ele><time>2026-04-18T11:53:21Z</time></trkpt><trkpt lat="39.087302634383875" lon="8.48983694248203"><ele>-1.0</ele><time>2026-04-18T11:53:22Z</time></trkpt><trkpt lat="39.08707232922439" lon="8.489795853210905"><ele>-1.0</ele><time>2026-04-18T11:53:23Z</time></trkpt><trkpt lat="39.086841478965106" lon="8.489752787733059"><ele>-1.0</ele><time>2026-04-18T11:53:24Z</time></trkpt><trkpt lat="39.086614027909725" lon="8.48970993412966"><ele>-1.0</ele><time>2026-04-18T11:53:25Z</time></trkpt><trkpt lat="39.086384608429924" lon="8.489667021526706"><ele>-1.0</ele><time>2026-04-18T11:53:26Z</time></trkpt><trkpt lat="39.08615385112818" lon="8.489623826446348"><ele>-1.0</ele><time>2026-04-18T11:53:27Z</time></trkpt><trkpt lat="39.08592528830731" lon="8.489582179819458"><ele>0.0</ele><time>2026-04-18T11:53:28Z</time></trkpt><trkpt lat="39.08569597170394" lon="8.48954440030255"><ele>1.0</ele><time>2026-04-18T11:53:29Z</time></trkpt><trkpt lat="39.08547002504586" lon="8.489504114982852"><ele>1.0</ele><time>2026-04-18T11:53:30Z</time></trkpt><trkpt lat="39.08524633768527" lon="8.48945832377775"><ele>1.0</ele><time>2026-04-18T11:53:31Z</time></trkpt><trkpt lat="39.08502824881479" lon="8.489405447060872"><ele>1.0</ele><time>2026-04-18T11:53:32Z</time></trkpt><trkpt lat="39.084811740371464" lon="8.48933468213095"><ele>1.6666666666666665</ele><time>2026-04-18T11:53:33Z</time></trkpt><trkpt lat="39.0846033049098" lon="8.489246156453923"><ele>2.3333333333333335</ele><time>2026-04-18T11:53:34Z</time></trkpt><trkpt lat="39.08439488784976" lon="8.48915057628244"><ele>3.0</ele><time>2026-04-18T11:53:35Z</time></trkpt><trkpt lat="39.084189633421076" lon="8.489043406921464"><ele>2.6666666666666665</ele><time>2026-04-18T11:53:36Z</time></trkpt><trkpt lat="39.08398963639288" lon="8.488923964780334"><ele>2.333333333333333</ele><time>2026-04-18T11:53:37Z</time></trkpt><trkpt lat="39.083797357853506" lon="8.48879251181635"><ele>2.0</ele><time>2026-04-18T11:53:38Z</time></trkpt><trkpt lat="39.08360628271972" lon="8.48864937295243"><ele>2.0</ele><time>2026-04-18T11:53:39Z</time></trkpt><trkpt lat="39.083418198285784" lon="8.48850496770672"><ele>2.0</ele><time>2026-04-18T11:53:40Z</time></trkpt><trkpt lat="39.08322868610843" lon="8.488362366136117"><ele>2.0</ele><time>2026-04-18T11:53:41Z</time></trkpt><trkpt lat="39.083040649352206" lon="8.488217213107442"><ele>1.6666666666666665</ele><time>2026-04-18T11:53:42Z</time></trkpt><trkpt lat="39.082851781213336" lon="8.488072749038855"><ele>1.3333333333333333</ele><time>2026-04-18T11:53:43Z</time></trkpt><trkpt lat="39.08266715358459" lon="8.487933730378908"><ele>1.0</ele><time>2026-04-18T11:53:44Z</time></trkpt><trkpt lat="39.08248105369804" lon="8.487794533153442"><ele>1.6666666666666665</ele><time>2026-04-18T11:53:45Z</time></trkpt><trkpt lat="39.08229923599632" lon="8.487654744224091"><ele>2.3333333333333335</ele><time>2026-04-18T11:53:46Z</time></trkpt><trkpt lat="39.082116500518346" lon="8.487515509376696"><ele>3.0</ele><time>2026-04-18T11:53:47Z</time></trkpt><trkpt lat="39.081930604077584" lon="8.48737338320072"><ele>3.0</ele><time>2026-04-18T11:53:48Z</time></trkpt><trkpt lat="39.08174208114853" lon="8.48723114498576"><ele>3.0</ele><time>2026-04-18T11:53:49Z</time></trkpt><trkpt lat="39.08155315570363" lon="8.48708421112978"><ele>3.0</ele><time>2026-04-18T11:53:50Z</time></trkpt><trkpt lat="39.08136260473646" lon="8.48693455774529"><ele>3.0</ele><time>2026-04-18T11:53:51Z</time></trkpt><trkpt lat="39.08117103013187" lon="8.486784680922412"><ele>3.0</ele><time>2026-04-18T11:53:52Z</time></trkpt><trkpt lat="39.081067700025955" lon="8.486718204605179"><ele>3.0</ele><time>2026-04-18T11:53:53Z</time></trkpt><trkpt lat="39.08089655820332" lon="8.486584456011505"><ele>2.6666666666666665</ele><time>2026-04-18T11:53:54Z</time></trkpt><trkpt lat="39.080726668569284" lon="8.486451556012627"><ele>2.333333333333333</ele><time>2026-04-18T11:53:55Z</time></trkpt><trkpt lat="39.08055566082745" lon="8.486318959039169"><ele>2.0</ele><time>2026-04-18T11:53:56Z</time></trkpt><trkpt lat="39.080384173852835" lon="8.486190671473626"><ele>2.0</ele><time>2026-04-18T11:53:57Z</time></trkpt><trkpt lat="39.080215166447275" lon="8.486066144757945"><ele>2.0</ele><time>2026-04-18T11:53:58Z</time></trkpt><trkpt lat="39.080046708944266" lon="8.485938052324789"><ele>2.0</ele><time>2026-04-18T11:53:59Z</time></trkpt><trkpt lat="39.0798796702544" lon="8.485811515109013"><ele>2.0</ele><time>2026-04-18T11:54:00Z</time></trkpt><trkpt lat="39.07971563301603" lon="8.485679861267355"><ele>2.0</ele><time>2026-04-18T11:54:01Z</time></trkpt><trkpt lat="39.07954880236831" lon="8.485552075311798"><ele>2.0</ele><time>2026-04-18T11:54:02Z</time></trkpt><trkpt lat="39.07938182173158" lon="8.485434012582385"><ele>2.0</ele><time>2026-04-18T11:54:03Z</time></trkpt><trkpt lat="39.079216565629324" lon="8.485306760621759"><ele>2.0</ele><time>2026-04-18T11:54:04Z</time></trkpt><trkpt lat="39.079052754671125" lon="8.48517428426739"><ele>2.0</ele><time>2026-04-18T11:54:05Z</time></trkpt><trkpt lat="39.078886206311296" lon="8.485042683532171"><ele>2.0</ele><time>2026-04-18T11:54:06Z</time></trkpt><trkpt lat="39.078714663364536" lon="8.484913197630606"><ele>2.0</ele><time>2026-04-18T11:54:07Z</time></trkpt><trkpt lat="39.07853725119156" lon="8.484788377261944"><ele>2.0</ele><time>2026-04-18T11:54:08Z</time></trkpt><trkpt lat="39.078361244571504" lon="8.484666248780048"><ele>1.6666666666666665</ele><time>2026-04-18T11:54:09Z</time></trkpt><trkpt lat="39.0781866105137" lon="8.484532085878827"><ele>1.3333333333333333</ele><time>2026-04-18T11:54:10Z</time></trkpt><trkpt lat="39.0780164494265" lon="8.484397422677873"><ele>1.0</ele><time>2026-04-18T11:54:11Z</time></trkpt><trkpt lat="39.077846006938294" lon="8.484260484175445"><ele>1.0</ele><time>2026-04-18T11:54:12Z</time></trkpt><trkpt lat="39.077671808479714" lon="8.484125691057343"><ele>1.0</ele><time>2026-04-18T11:54:13Z</time></trkpt><trkpt lat="39.0774951838201" lon="8.483994110745492"><ele>1.0</ele><time>2026-04-18T11:54:14Z</time></trkpt><trkpt lat="39.07732458012468" lon="8.483862314435958"><ele>1.0</ele><time>2026-04-18T11:54:15Z</time></trkpt><trkpt lat="39.077151932863636" lon="8.483724985690175"><ele>1.0</ele><time>2026-04-18T11:54:16Z</time></trkpt><trkpt lat="39.076977032654" lon="8.483590661255924"><ele>1.0</ele><time>2026-04-18T11:54:17Z</time></trkpt><trkpt lat="39.0768013205676" lon="8.48345480146508"><ele>1.0</ele><time>2026-04-18T11:54:18Z</time></trkpt><trkpt lat="39.07662663467656" lon="8.483320991458585"><ele>1.0</ele><time>2026-04-18T11:54:19Z</time></trkpt><trkpt lat="39.076450852282775" lon="8.48317872566144"><ele>1.0</ele><time>2026-04-18T11:54:20Z</time></trkpt><trkpt lat="39.076276219655256" lon="8.483044563428992"><ele>1.0</ele><time>2026-04-18T11:54:21Z</time></trkpt><trkpt lat="39.07609879501582" lon="8.482914760434618"><ele>1.0</ele><time>2026-04-18T11:54:22Z</time></trkpt><trkpt lat="39.075919558381365" lon="8.482783039178766"><ele>1.0</ele><time>2026-04-18T11:54:23Z</time></trkpt><trkpt lat="39.07574251709467" lon="8.482649150740913"><ele>0.6666666666666666</ele><time>2026-04-18T11:54:24Z</time></trkpt><trkpt lat="39.07556648744352" lon="8.48251312051073"><ele>0.3333333333333333</ele><time>2026-04-18T11:54:25Z</time></trkpt><trkpt lat="39.07538912656633" lon="8.482375465404408"><ele>0.0</ele><time>2026-04-18T11:54:26Z</time></trkpt><trkpt lat="39.0752137318584" lon="8.482238741665197"><ele>0.0</ele><time>2026-04-18T11:54:27Z</time></trkpt><trkpt lat="39.0750364608318" lon="8.48210015741366"><ele>0.0</ele><time>2026-04-18T11:54:28Z</time></trkpt><trkpt lat="39.07485874093218" lon="8.481962682465516"><ele>0.0</ele><time>2026-04-18T11:54:29Z</time></trkpt><trkpt lat="39.074680130359525" lon="8.481828084157911"><ele>0.0</ele><time>2026-04-18T11:54:30Z</time></trkpt><trkpt lat="39.07450190849452" lon="8.481693498056"><ele>0.0</ele><time>2026-04-18T11:54:31Z</time></trkpt><trkpt lat="39.07432468884293" lon="8.481558316151776"><ele>0.0</ele><time>2026-04-18T11:54:32Z</time></trkpt><trkpt lat="39.074146445075016" lon="8.481423483035693"><ele>0.3333333333333333</ele><time>2026-04-18T11:54:33Z</time></trkpt><trkpt lat="39.07396983300081" lon="8.481288950434429"><ele>0.6666666666666666</ele><time>2026-04-18T11:54:34Z</time></trkpt><trkpt lat="39.07379147543526" lon="8.481153433963208"><ele>1.0</ele><time>2026-04-18T11:54:35Z</time></trkpt><trkpt lat="39.07361365110695" lon="8.481022445983069"><ele>1.0</ele><time>2026-04-18T11:54:36Z</time></trkpt><trkpt lat="39.07343332246866" lon="8.480888509866263"><ele>1.0</ele><time>2026-04-18T11:54:37Z</time></trkpt><trkpt lat="39.07325667524911" lon="8.480747547886056"><ele>1.0</ele><time>2026-04-18T11:54:38Z</time></trkpt><trkpt lat="39.073079357201145" lon="8.480610017840544"><ele>1.0</ele><time>2026-04-18T11:54:39Z</time></trkpt><trkpt lat="39.07290256519388" lon="8.480476252661644"><ele>1.0</ele><time>2026-04-18T11:54:40Z</time></trkpt><trkpt lat="39.07272829721596" lon="8.480341054905768"><ele>1.0</ele><time>2026-04-18T11:54:41Z</time></trkpt><trkpt lat="39.07256919641956" lon="8.480179989507064"><ele>0.6666666666666666</ele><time>2026-04-18T11:54:42Z</time></trkpt><trkpt lat="39.07240582968715" lon="8.480032280299657"><ele>0.3333333333333333</ele><time>2026-04-18T11:54:43Z</time></trkpt><trkpt lat="39.07223731835821" lon="8.47989381254062"><ele>0.0</ele><time>2026-04-18T11:54:44Z</time></trkpt><trkpt lat="39.07207850187408" lon="8.479739708136593"><ele>0.0</ele><time>2026-04-18T11:54:45Z</time></trkpt><trkpt lat="39.07191980454912" lon="8.479587466179797"><ele>0.0</ele><time>2026-04-18T11:54:46Z</time></trkpt><trkpt lat="39.0717565864771" lon="8.479437111119022"><ele>0.0</ele><time>2026-04-18T11:54:47Z</time></trkpt><trkpt lat="39.0715924822877" lon="8.479288745422318"><ele>0.0</ele><time>2026-04-18T11:54:48Z</time></trkpt><trkpt lat="39.07143083980859" lon="8.479137530436509"><ele>0.0</ele><time>2026-04-18T11:54:49Z</time></trkpt><trkpt lat="39.071269630807535" lon="8.47898275412746"><ele>0.0</ele><time>2026-04-18T11:54:50Z</time></trkpt><trkpt lat="39.071109837957806" lon="8.478830359451193"><ele>0.0</ele><time>2026-04-18T11:54:51Z</time></trkpt><trkpt lat="39.070947828559795" lon="8.478677125020234"><ele>0.0</ele><time>2026-04-18T11:54:52Z</time></trkpt><trkpt lat="39.070784898392105" lon="8.478526828715982"><ele>0.0</ele><time>2026-04-18T11:54:53Z</time></trkpt><trkpt lat="39.07062109919319" lon="8.478378572268191"><ele>0.0</ele><time>2026-04-18T11:54:54Z</time></trkpt><trkpt lat="39.07045630644199" lon="8.478232823322488"><ele>0.0</ele><time>2026-04-18T11:54:55Z</time></trkpt><trkpt lat="39.07028676391485" lon="8.47809429075033"><ele>0.0</ele><time>2026-04-18T11:54:56Z</time></trkpt><trkpt lat="39.07011188145629" lon="8.477981453410994"><ele>0.0</ele><time>2026-04-18T11:54:57Z</time></trkpt><trkpt lat="39.06993104142901" lon="8.477900029667186"><ele>0.0</ele><time>2026-04-18T11:54:58Z</time></trkpt><trkpt lat="39.06974616474616" lon="8.477836180314853"><ele>0.0</ele><time>2026-04-18T11:54:59Z</time></trkpt><trkpt lat="39.06955972501987" lon="8.477786244998983"><ele>0.0</ele><time>2026-04-18T11:55:00Z</time></trkpt><trkpt lat="39.06936908827811" lon="8.477763131875173"><ele>0.0</ele><time>2026-04-18T11:55:01Z</time></trkpt><trkpt lat="39.069176156745065" lon="8.477762601059714"><ele>0.0</ele><time>2026-04-18T11:55:02Z</time></trkpt><trkpt lat="39.06897911484842" lon="8.477779729438282"><ele>0.0</ele><time>2026-04-18T11:55:03Z</time></trkpt><trkpt lat="39.06877940066265" lon="8.477811484354804"><ele>0.0</ele><time>2026-04-18T11:55:04Z</time></trkpt><trkpt lat="39.06857472076573" lon="8.47784705829311"><ele>0.0</ele><time>2026-04-18T11:55:05Z</time></trkpt><trkpt lat="39.06836861823236" lon="8.4778844398061"><ele>0.0</ele><time>2026-04-18T11:55:06Z</time></trkpt><trkpt lat="39.068159572394904" lon="8.477927681128115"><ele>0.0</ele><time>2026-04-18T11:55:07Z</time></trkpt><trkpt lat="39.06794643827291" lon="8.477971155344772"><ele>0.0</ele><time>2026-04-18T11:55:08Z</time></trkpt><trkpt lat="39.06773336229728" lon="8.47800984698837"><ele>0.0</ele><time>2026-04-18T11:55:09Z</time></trkpt><trkpt lat="39.06751591881911" lon="8.478048554421823"><ele>0.0</ele><time>2026-04-18T11:55:10Z</time></trkpt><trkpt lat="39.067297500083285" lon="8.478086906645283"><ele>0.0</ele><time>2026-04-18T11:55:11Z</time></trkpt><trkpt lat="39.06707880469684" lon="8.478125325752115"><ele>0.0</ele><time>2026-04-18T11:55:12Z</time></trkpt><trkpt lat="39.06686069754001" lon="8.478161684898804"><ele>0.0</ele><time>2026-04-18T11:55:13Z</time></trkpt><trkpt lat="39.06664296569925" lon="8.47819912578871"><ele>0.0</ele><time>2026-04-18T11:55:14Z</time></trkpt><trkpt lat="39.06642545802358" lon="8.478239111486467"><ele>0.0</ele><time>2026-04-18T11:55:15Z</time></trkpt><trkpt lat="39.066208140924175" lon="8.478277700971253"><ele>0.0</ele><time>2026-04-18T11:55:16Z</time></trkpt><trkpt lat="39.06599115355504" lon="8.478314951435502"><ele>0.0</ele><time>2026-04-18T11:55:17Z</time></trkpt><trkpt lat="39.06577567176312" lon="8.47835368796869"><ele>0.0</ele><time>2026-04-18T11:55:18Z</time></trkpt><trkpt lat="39.065558580192054" lon="8.478393223581534"><ele>0.0</ele><time>2026-04-18T11:55:19Z</time></trkpt><trkpt lat="39.0653437409308" lon="8.478431645283782"><ele>0.0</ele><time>2026-04-18T11:55:20Z</time></trkpt><trkpt lat="39.0651289379854" lon="8.478470988799812"><ele>0.3333333333333333</ele><time>2026-04-18T11:55:21Z</time></trkpt><trkpt lat="39.064913387466234" lon="8.47851147165985"><ele>0.6666666666666666</ele><time>2026-04-18T11:55:22Z</time></trkpt><trkpt lat="39.06469805373703" lon="8.478549401904992"><ele>1.0</ele><time>2026-04-18T11:55:23Z</time></trkpt><trkpt lat="39.06448357869738" lon="8.478583791306475"><ele>1.0</ele><time>2026-04-18T11:55:24Z</time></trkpt><trkpt lat="39.064272729324195" lon="8.478619323387234"><ele>1.0</ele><time>2026-04-18T11:55:25Z</time></trkpt><trkpt lat="39.064060785329794" lon="8.478658112274964"><ele>1.0</ele><time>2026-04-18T11:55:26Z</time></trkpt><trkpt lat="39.06384926347635" lon="8.478697462230725"><ele>1.0</ele><time>2026-04-18T11:55:27Z</time></trkpt><trkpt lat="39.06363823144348" lon="8.478734408965293"><ele>1.0</ele><time>2026-04-18T11:55:28Z</time></trkpt><trkpt lat="39.06342531702279" lon="8.478771981115264"><ele>1.0</ele><time>2026-04-18T11:55:29Z</time></trkpt><trkpt lat="39.063217580437374" lon="8.478814749941415"><ele>1.0</ele><time>2026-04-18T11:55:30Z</time></trkpt><trkpt lat="39.06300652307139" lon="8.478858447194886"><ele>1.0</ele><time>2026-04-18T11:55:31Z</time></trkpt><trkpt lat="39.062795332252655" lon="8.478898888306615"><ele>1.0</ele><time>2026-04-18T11:55:32Z</time></trkpt><trkpt lat="39.06258679074967" lon="8.478936682007571"><ele>1.0</ele><time>2026-04-18T11:55:33Z</time></trkpt><trkpt lat="39.06237754549105" lon="8.478966365085293"><ele>1.0</ele><time>2026-04-18T11:55:34Z</time></trkpt><trkpt lat="39.06216405158781" lon="8.478987212576858"><ele>1.0</ele><time>2026-04-18T11:55:35Z</time></trkpt><trkpt lat="39.06195182614297" lon="8.478971865672204"><ele>1.0</ele><time>2026-04-18T11:55:36Z</time></trkpt><trkpt lat="39.06174123977139" lon="8.478929854692925"><ele>1.0</ele><time>2026-04-18T11:55:37Z</time></trkpt><trkpt lat="39.06153548475533" lon="8.47886586661232"><ele>1.0</ele><time>2026-04-18T11:55:38Z</time></trkpt><trkpt lat="39.06133324983479" lon="8.478785830798305"><ele>1.0</ele><time>2026-04-18T11:55:39Z</time></trkpt><trkpt lat="39.061134839148416" lon="8.478694435055932"><ele>1.0</ele><time>2026-04-18T11:55:40Z</time></trkpt><trkpt lat="39.06095071955493" lon="8.478575043827696"><ele>1.0</ele><time>2026-04-18T11:55:41Z</time></trkpt><trkpt lat="39.06079335165372" lon="8.478415778649476"><ele>1.0</ele><time>2026-04-18T11:55:42Z</time></trkpt><trkpt lat="39.06064468615646" lon="8.478236245256015"><ele>1.0</ele><time>2026-04-18T11:55:43Z</time></trkpt><trkpt lat="39.06049666554257" lon="8.478056566377001"><ele>1.0</ele><time>2026-04-18T11:55:44Z</time></trkpt><trkpt lat="39.06035458418173" lon="8.47786784975607"><ele>1.0</ele><time>2026-04-18T11:55:45Z</time></trkpt><trkpt lat="39.06022567095628" lon="8.477662100222968"><ele>1.0</ele><time>2026-04-18T11:55:46Z</time></trkpt><trkpt lat="39.060112876218504" lon="8.477439945821555"><ele>1.0</ele><time>2026-04-18T11:55:47Z</time></trkpt><trkpt lat="39.060008188099786" lon="8.4772084687075"><ele>0.6666666666666666</ele><time>2026-04-18T11:55:48Z</time></trkpt><trkpt lat="39.05990400589768" lon="8.476974634874063"><ele>0.3333333333333333</ele><time>2026-04-18T11:55:49Z</time></trkpt><trkpt lat="39.05980156083716" lon="8.476742009717466"><ele>0.0</ele><time>2026-04-18T11:55:50Z</time></trkpt><trkpt lat="39.059695054973446" lon="8.476509453661649"><ele>0.0</ele><time>2026-04-18T11:55:51Z</time></trkpt><trkpt lat="39.05958436976747" lon="8.476279725101744"><ele>0.0</ele><time>2026-04-18T11:55:52Z</time></trkpt><trkpt lat="39.0594744760071" lon="8.476054576050204"><ele>0.0</ele><time>2026-04-18T11:55:53Z</time></trkpt><trkpt lat="39.05936763634872" lon="8.475832277010278"><ele>0.0</ele><time>2026-04-18T11:55:54Z</time></trkpt><trkpt lat="39.05926871140533" lon="8.475607869589439"><ele>0.0</ele><time>2026-04-18T11:55:55Z</time></trkpt><trkpt lat="39.059173808907" lon="8.475382633242837"><ele>0.0</ele><time>2026-04-18T11:55:56Z</time></trkpt><trkpt lat="39.05908436491972" lon="8.475158307047272"><ele>0.3333333333333333</ele><time>2026-04-18T11:55:57Z</time></trkpt><trkpt lat="39.0590047601172" lon="8.474933754932938"><ele>0.6666666666666666</ele><time>2026-04-18T11:55:58Z</time></trkpt><trkpt lat="39.05894037375139" lon="8.474713717330404"><ele>1.0</ele><time>2026-04-18T11:55:59Z</time></trkpt><trkpt lat="39.0588904447483" lon="8.47449655045118"><ele>1.3333333333333333</ele><time>2026-04-18T11:56:00Z</time></trkpt><trkpt lat="39.058845394738746" lon="8.474285938920687"><ele>1.6666666666666665</ele><time>2026-04-18T11:56:01Z</time></trkpt><trkpt lat="39.058800642853335" lon="8.474081621949782"><ele>2.0</ele><time>2026-04-18T11:56:02Z</time></trkpt><trkpt lat="39.058763455804204" lon="8.473883258315034"><ele>2.0</ele><time>2026-04-18T11:56:03Z</time></trkpt><trkpt lat="39.058735833399645" lon="8.473684004706342"><ele>2.0</ele><time>2026-04-18T11:56:04Z</time></trkpt><trkpt lat="39.05871416976258" lon="8.473487980775023"><ele>2.0</ele><time>2026-04-18T11:56:05Z</time></trkpt><trkpt lat="39.05869993853266" lon="8.473296340562104"><ele>2.0</ele><time>2026-04-18T11:56:06Z</time></trkpt><trkpt lat="39.058690752343495" lon="8.473109742459512"><ele>2.0</ele><time>2026-04-18T11:56:07Z</time></trkpt><trkpt lat="39.05868636550657" lon="8.472924433946908"><ele>2.0</ele><time>2026-04-18T11:56:08Z</time></trkpt><trkpt lat="39.058682678771056" lon="8.472741941506374"><ele>2.0</ele><time>2026-04-18T11:56:09Z</time></trkpt><trkpt lat="39.05867820316699" lon="8.47256356635353"><ele>2.0</ele><time>2026-04-18T11:56:10Z</time></trkpt><trkpt lat="39.05867473007167" lon="8.472387285170411"><ele>2.0</ele><time>2026-04-18T11:56:11Z</time></trkpt><trkpt lat="39.05867299559272" lon="8.472214185679162"><ele>2.0</ele><time>2026-04-18T11:56:12Z</time></trkpt><trkpt lat="39.05867402416248" lon="8.472045059436667"><ele>2.0</ele><time>2026-04-18T11:56:13Z</time></trkpt><trkpt lat="39.05867303973818" lon="8.471886037955363"><ele>2.0</ele><time>2026-04-18T11:56:14Z</time></trkpt><trkpt lat="39.05866779710994" lon="8.471738747418048"><ele>2.0</ele><time>2026-04-18T11:56:15Z</time></trkpt><trkpt lat="39.05865674915819" lon="8.471599289420787"><ele>2.0</ele><time>2026-04-18T11:56:16Z</time></trkpt><trkpt lat="39.05863767469616" lon="8.471467675805904"><ele>2.0</ele><time>2026-04-18T11:56:17Z</time></trkpt><trkpt lat="39.05861325967388" lon="8.47134267374781"><ele>2.0</ele><time>2026-04-18T11:56:18Z</time></trkpt><trkpt lat="39.05858907788214" lon="8.471223535727098"><ele>2.0</ele><time>2026-04-18T11:56:19Z</time></trkpt><trkpt lat="39.05856158029059" lon="8.471111404380501"><ele>2.0</ele><time>2026-04-18T11:56:20Z</time></trkpt><trkpt lat="39.058530189948485" lon="8.470999484663302"><ele>2.0</ele><time>2026-04-18T11:56:21Z</time></trkpt><trkpt lat="39.058491820617974" lon="8.470884795695163"><ele>2.0</ele><time>2026-04-18T11:56:22Z</time></trkpt><trkpt lat="39.05845279798626" lon="8.47076754722971"><ele>2.0</ele><time>2026-04-18T11:56:23Z</time></trkpt><trkpt lat="39.05841331074773" lon="8.470648602457398"><ele>2.0</ele><time>2026-04-18T11:56:24Z</time></trkpt><trkpt lat="39.05837260076235" lon="8.470523989214955"><ele>2.0</ele><time>2026-04-18T11:56:25Z</time></trkpt><trkpt lat="39.05832984588992" lon="8.470394063261404"><ele>2.0</ele><time>2026-04-18T11:56:26Z</time></trkpt><trkpt lat="39.058287254664165" lon="8.470263697619167"><ele>2.0</ele><time>2026-04-18T11:56:27Z</time></trkpt><trkpt lat="39.058245688449595" lon="8.470134442716677"><ele>2.0</ele><time>2026-04-18T11:56:28Z</time></trkpt><trkpt lat="39.058204104204215" lon="8.47000656857447"><ele>1.75</ele><time>2026-04-18T11:56:29Z</time></trkpt><trkpt lat="39.05816286753589" lon="8.469875083371019"><ele>1.5</ele><time>2026-04-18T11:56:30Z</time></trkpt><trkpt lat="39.05812290168547" lon="8.469740201026564"><ele>1.25</ele><time>2026-04-18T11:56:31Z</time></trkpt><trkpt lat="39.05807929226424" lon="8.469604466534566"><ele>1.0</ele><time>2026-04-18T11:56:32Z</time></trkpt><trkpt lat="39.05803349299183" lon="8.469468504934651"><ele>1.0</ele><time>2026-04-18T11:56:33Z</time></trkpt><trkpt lat="39.05798612572858" lon="8.469333360251008"><ele>1.0</ele><time>2026-04-18T11:56:34Z</time></trkpt><trkpt lat="39.057942740069144" lon="8.469186715571395"><ele>1.0</ele><time>2026-04-18T11:56:35Z</time></trkpt><trkpt lat="39.05789966681033" lon="8.46903986262378"><ele>1.0</ele><time>2026-04-18T11:56:36Z</time></trkpt><trkpt lat="39.05785611507782" lon="8.468890086166263"><ele>1.5</ele><time>2026-04-18T11:56:37Z</time></trkpt><trkpt lat="39.0578089271217" lon="8.468739006289827"><ele>2.0</ele><time>2026-04-18T11:56:38Z</time></trkpt><trkpt lat="39.05776431879703" lon="8.46858130814707"><ele>2.5</ele><time>2026-04-18T11:56:39Z</time></trkpt><trkpt lat="39.05772326900139" lon="8.468422075101806"><ele>3.0</ele><time>2026-04-18T11:56:40Z</time></trkpt><trkpt lat="39.05768103807775" lon="8.468259913775167"><ele>3.0</ele><time>2026-04-18T11:56:41Z</time></trkpt><trkpt lat="39.05763909451735" lon="8.468095423766762"><ele>3.0</ele><time>2026-04-18T11:56:42Z</time></trkpt><trkpt lat="39.05759876696134" lon="8.467928511005445"><ele>3.0</ele><time>2026-04-18T11:56:43Z</time></trkpt><trkpt lat="39.057558026094725" lon="8.46775858490828"><ele>3.0</ele><time>2026-04-18T11:56:44Z</time></trkpt><trkpt lat="39.057513364552165" lon="8.467587812735767"><ele>3.0</ele><time>2026-04-18T11:56:45Z</time></trkpt><trkpt lat="39.0574688845148" lon="8.467418118190981"><ele>3.0</ele><time>2026-04-18T11:56:46Z</time></trkpt><trkpt lat="39.057425793506575" lon="8.467248099284738"><ele>3.0</ele><time>2026-04-18T11:56:47Z</time></trkpt><trkpt lat="39.05738386885442" lon="8.467073179436557"><ele>3.0</ele><time>2026-04-18T11:56:48Z</time></trkpt><trkpt lat="39.05734881832665" lon="8.466891082996508"><ele>3.0</ele><time>2026-04-18T11:56:49Z</time></trkpt><trkpt lat="39.05731367079998" lon="8.466727167065509"><ele>3.0</ele><time>2026-04-18T11:56:50Z</time></trkpt><trkpt lat="39.0572606399279" lon="8.466558335654337"><ele>3.0</ele><time>2026-04-18T11:56:51Z</time></trkpt><trkpt lat="39.05721896097116" lon="8.466386312429716"><ele>3.0</ele><time>2026-04-18T11:56:52Z</time></trkpt><trkpt lat="39.05717738506571" lon="8.466215891067524"><ele>3.0</ele><time>2026-04-18T11:56:53Z</time></trkpt><trkpt lat="39.05713450313668" lon="8.466045349618854"><ele>3.0</ele><time>2026-04-18T11:56:54Z</time></trkpt><trkpt lat="39.05709369472277" lon="8.465874197790118"><ele>3.0</ele><time>2026-04-18T11:56:55Z</time></trkpt><trkpt lat="39.057053467438465" lon="8.465706708989808"><ele>3.0</ele><time>2026-04-18T11:56:56Z</time></trkpt><trkpt lat="39.057011696193754" lon="8.465537571413492"><ele>3.0</ele><time>2026-04-18T11:56:57Z</time></trkpt><trkpt lat="39.0569765586972" lon="8.46536541593751"><ele>3.0</ele><time>2026-04-18T11:56:58Z</time></trkpt><trkpt lat="39.056952340071064" lon="8.465190123181817"><ele>3.0</ele><time>2026-04-18T11:56:59Z</time></trkpt><trkpt lat="39.05694289410665" lon="8.465016614195635"><ele>3.0</ele><time>2026-04-18T11:57:00Z</time></trkpt><trkpt lat="39.05694432438578" lon="8.464842369461262"><ele>3.0</ele><time>2026-04-18T11:57:01Z</time></trkpt><trkpt lat="39.05695693472573" lon="8.464672712141315"><ele>3.0</ele><time>2026-04-18T11:57:02Z</time></trkpt><trkpt lat="39.05698106174366" lon="8.464506593258651"><ele>3.0</ele><time>2026-04-18T11:57:03Z</time></trkpt><trkpt lat="39.05701441696108" lon="8.464344479378703"><ele>3.0</ele><time>2026-04-18T11:57:04Z</time></trkpt><trkpt lat="39.057053457341354" lon="8.464189728786117"><ele>3.0</ele><time>2026-04-18T11:57:05Z</time></trkpt><trkpt lat="39.057101307794944" lon="8.464045446110939"><ele>3.0</ele><time>2026-04-18T11:57:06Z</time></trkpt><trkpt lat="39.05715622629839" lon="8.463907244747862"><ele>3.0</ele><time>2026-04-18T11:57:07Z</time></trkpt><trkpt lat="39.05721577088712" lon="8.46377610868465"><ele>3.0</ele><time>2026-04-18T11:57:08Z</time></trkpt><trkpt lat="39.0572834937349" lon="8.463656685265246"><ele>3.0</ele><time>2026-04-18T11:57:09Z</time></trkpt><trkpt lat="39.05735634804278" lon="8.463550371200714"><ele>3.0</ele><time>2026-04-18T11:57:10Z</time></trkpt><trkpt lat="39.05743362617761" lon="8.463453059175283"><ele>3.0</ele><time>2026-04-18T11:57:11Z</time></trkpt><trkpt lat="39.0575126292209" lon="8.463361876797688"><ele>3.0</ele><time>2026-04-18T11:57:12Z</time></trkpt><trkpt lat="39.05759406887673" lon="8.46327052521501"><ele>3.0</ele><time>2026-04-18T11:57:13Z</time></trkpt><trkpt lat="39.05767344392858" lon="8.463179923933989"><ele>3.0</ele><time>2026-04-18T11:57:14Z</time></trkpt><trkpt lat="39.05775145396606" lon="8.463089977321141"><ele>3.0</ele><time>2026-04-18T11:57:15Z</time></trkpt><trkpt lat="39.05783022877156" lon="8.462998332392239"><ele>3.0</ele><time>2026-04-18T11:57:16Z</time></trkpt><trkpt lat="39.05791173973741" lon="8.462910028521312"><ele>3.0</ele><time>2026-04-18T11:57:17Z</time></trkpt><trkpt lat="39.057993748424835" lon="8.462823951619987"><ele>3.0</ele><time>2026-04-18T11:57:18Z</time></trkpt><trkpt lat="39.058075347233434" lon="8.462737428267934"><ele>3.0</ele><time>2026-04-18T11:57:19Z</time></trkpt><trkpt lat="39.05815565635564" lon="8.462651244344576"><ele>3.0</ele><time>2026-04-18T11:57:20Z</time></trkpt><trkpt lat="39.0582373525132" lon="8.462566329873678"><ele>3.0</ele><time>2026-04-18T11:57:21Z</time></trkpt><trkpt lat="39.05831938567964" lon="8.462479346510577"><ele>3.0</ele><time>2026-04-18T11:57:22Z</time></trkpt><trkpt lat="39.05839964780686" lon="8.462389836706642"><ele>3.0</ele><time>2026-04-18T11:57:23Z</time></trkpt><trkpt lat="39.058480744284374" lon="8.46229796085746"><ele>3.0</ele><time>2026-04-18T11:57:24Z</time></trkpt><trkpt lat="39.05856220083336" lon="8.46220672876395"><ele>3.0</ele><time>2026-04-18T11:57:25Z</time></trkpt><trkpt lat="39.05864377033297" lon="8.462111045959142"><ele>3.0</ele><time>2026-04-18T11:57:26Z</time></trkpt><trkpt lat="39.05872689184823" lon="8.462013524572836"><ele>3.0</ele><time>2026-04-18T11:57:27Z</time></trkpt><trkpt lat="39.05880658200764" lon="8.461913618166758"><ele>3.0</ele><time>2026-04-18T11:57:28Z</time></trkpt><trkpt lat="39.058889079845294" lon="8.461808811428657"><ele>3.25</ele><time>2026-04-18T11:57:29Z</time></trkpt><trkpt lat="39.0589718948597" lon="8.461705500242902"><ele>3.5</ele><time>2026-04-18T11:57:30Z</time></trkpt><trkpt lat="39.05905196199101" lon="8.461598034142488"><ele>3.75</ele><time>2026-04-18T11:57:31Z</time></trkpt><trkpt lat="39.059129641649974" lon="8.461485170129503"><ele>4.0</ele><time>2026-04-18T11:57:32Z</time></trkpt><trkpt lat="39.059208205271375" lon="8.461372045705577"><ele>4.0</ele><time>2026-04-18T11:57:33Z</time></trkpt><trkpt lat="39.059285463634204" lon="8.461256797789455"><ele>4.0</ele><time>2026-04-18T11:57:34Z</time></trkpt><trkpt lat="39.059359030995566" lon="8.461135660311937"><ele>4.0</ele><time>2026-04-18T11:57:35Z</time></trkpt><trkpt lat="39.059431269606016" lon="8.461014893834912"><ele>4.0</ele><time>2026-04-18T11:57:36Z</time></trkpt><trkpt lat="39.0595038860479" lon="8.460891275208153"><ele>4.0</ele><time>2026-04-18T11:57:37Z</time></trkpt><trkpt lat="39.05957722130014" lon="8.460769051361385"><ele>4.0</ele><time>2026-04-18T11:57:38Z</time></trkpt><trkpt lat="39.059650001838065" lon="8.460645609837552"><ele>4.0</ele><time>2026-04-18T11:57:39Z</time></trkpt><trkpt lat="39.05972221554644" lon="8.46052831128772"><ele>4.0</ele><time>2026-04-18T11:57:40Z</time></trkpt><trkpt lat="39.0597902155628" lon="8.460419398204015"><ele>4.2</ele><time>2026-04-18T11:57:41Z</time></trkpt><trkpt lat="39.05985558660506" lon="8.460317260507676"><ele>4.4</ele><time>2026-04-18T11:57:42Z</time></trkpt><trkpt lat="39.059922313686236" lon="8.460216369797195"><ele>4.6</ele><time>2026-04-18T11:57:43Z</time></trkpt><trkpt lat="39.05999069245843" lon="8.460115312227405"><ele>4.8</ele><time>2026-04-18T11:57:44Z</time></trkpt><trkpt lat="39.060062929126005" lon="8.46001328511549"><ele>5.0</ele><time>2026-04-18T11:57:45Z</time></trkpt><trkpt lat="39.06013427190115" lon="8.459914840945086"><ele>5.0</ele><time>2026-04-18T11:57:46Z</time></trkpt><trkpt lat="39.06020174347473" lon="8.459825990183655"><ele>5.0</ele><time>2026-04-18T11:57:47Z</time></trkpt><trkpt lat="39.060262734212046" lon="8.45974296500898"><ele>5.0</ele><time>2026-04-18T11:57:48Z</time></trkpt><trkpt lat="39.060313646944536" lon="8.459670970977857"><ele>5.0</ele><time>2026-04-18T11:57:49Z</time></trkpt><trkpt lat="39.060385094440065" lon="8.459560634385038"><ele>5.0</ele><time>2026-04-18T11:57:51Z</time></trkpt><trkpt lat="39.060317130981375" lon="8.459407677472939"><ele>5.0</ele><time>2026-04-18T11:57:55Z</time></trkpt><trkpt lat="39.06021992909659" lon="8.45942494746138"><ele>5.0</ele><time>2026-04-18T11:57:57Z</time></trkpt><trkpt lat="39.060117509991095" lon="8.459507590542966"><ele>5.0</ele><time>2026-04-18T11:57:59Z</time></trkpt><trkpt lat="39.06006137068286" lon="8.459552702613639"><ele>5.0</ele><time>2026-04-18T11:58:00Z</time></trkpt><trkpt lat="39.059998803978026" lon="8.459600088441494"><ele>5.0</ele><time>2026-04-18T11:58:01Z</time></trkpt><trkpt lat="39.05993012386423" lon="8.459642785671901"><ele>5.0</ele><time>2026-04-18T11:58:02Z</time></trkpt><trkpt lat="39.059854423406755" lon="8.45968247687138"><ele>5.0</ele><time>2026-04-18T11:58:03Z</time></trkpt><trkpt lat="39.0597719893569" lon="8.459721609036114"><ele>5.0</ele><time>2026-04-18T11:58:04Z</time></trkpt><trkpt lat="39.05968701489753" lon="8.459759754339201"><ele>5.0</ele><time>2026-04-18T11:58:05Z</time></trkpt><trkpt lat="39.059602497178524" lon="8.459796228519968"><ele>5.0</ele><time>2026-04-18T11:58:06Z</time></trkpt><trkpt lat="39.059521143046375" lon="8.459837808860494"><ele>5.0</ele><time>2026-04-18T11:58:07Z</time></trkpt><trkpt lat="39.05943671970311" lon="8.459884665852108"><ele>5.0</ele><time>2026-04-18T11:58:08Z</time></trkpt><trkpt lat="39.05934398795957" lon="8.45993497279493"><ele>5.0</ele><time>2026-04-18T11:58:09Z</time></trkpt><trkpt lat="39.05924692147247" lon="8.459978296176072"><ele>5.0</ele><time>2026-04-18T11:58:10Z</time></trkpt><trkpt lat="39.059145184525384" lon="8.460020492986732"><ele>5.0</ele><time>2026-04-18T11:58:11Z</time></trkpt><trkpt lat="39.059043790797205" lon="8.46005711371867"><ele>5.0</ele><time>2026-04-18T11:58:12Z</time></trkpt><trkpt lat="39.05894147477723" lon="8.460087516142213"><ele>5.0</ele><time>2026-04-18T11:58:13Z</time></trkpt><trkpt lat="39.05884005029812" lon="8.460089495495438"><ele>5.2</ele><time>2026-04-18T11:58:14Z</time></trkpt><trkpt lat="39.05874407249021" lon="8.460106082929814"><ele>5.4</ele><time>2026-04-18T11:58:15Z</time></trkpt><trkpt lat="39.05864880026067" lon="8.46012005509658"><ele>5.6</ele><time>2026-04-18T11:58:16Z</time></trkpt><trkpt lat="39.05855706758801" lon="8.46012904359369"><ele>5.8</ele><time>2026-04-18T11:58:17Z</time></trkpt><trkpt lat="39.05845768590583" lon="8.460144782628237"><ele>6.0</ele><time>2026-04-18T11:58:18Z</time></trkpt><trkpt lat="39.05835562449382" lon="8.460132204019065"><ele>6.0</ele><time>2026-04-18T11:58:19Z</time></trkpt><trkpt lat="39.058250756421494" lon="8.460118066864482"><ele>6.0</ele><time>2026-04-18T11:58:20Z</time></trkpt><trkpt lat="39.05814500387008" lon="8.4601060092679"><ele>6.0</ele><time>2026-04-18T11:58:21Z</time></trkpt><trkpt lat="39.05803753738973" lon="8.460094096127333"><ele>6.0</ele><time>2026-04-18T11:58:22Z</time></trkpt><trkpt lat="39.05792826879976" lon="8.460081934758165"><ele>6.0</ele><time>2026-04-18T11:58:23Z</time></trkpt><trkpt lat="39.05781818484491" lon="8.460063238638583"><ele>6.0</ele><time>2026-04-18T11:58:24Z</time></trkpt><trkpt lat="39.05770554875592" lon="8.460048473496252"><ele>6.0</ele><time>2026-04-18T11:58:25Z</time></trkpt><trkpt lat="39.05759453993794" lon="8.460035027127963"><ele>6.0</ele><time>2026-04-18T11:58:26Z</time></trkpt><trkpt lat="39.05748568808924" lon="8.460022138387666"><ele>6.0</ele><time>2026-04-18T11:58:27Z</time></trkpt><trkpt lat="39.05737815436505" lon="8.460008327043857"><ele>6.0</ele><time>2026-04-18T11:58:28Z</time></trkpt><trkpt lat="39.0572786302495" lon="8.45999517855109"><ele>6.0</ele><time>2026-04-18T11:58:29Z</time></trkpt><trkpt lat="39.05718306053745" lon="8.45998068434489"><ele>6.0</ele><time>2026-04-18T11:58:30Z</time></trkpt><trkpt lat="39.05708566663118" lon="8.459969155988764"><ele>6.0</ele><time>2026-04-18T11:58:31Z</time></trkpt><trkpt lat="39.056994936735116" lon="8.459959737449717"><ele>6.0</ele><time>2026-04-18T11:58:32Z</time></trkpt><trkpt lat="39.05690801589776" lon="8.459950792841916"><ele>6.0</ele><time>2026-04-18T11:58:33Z</time></trkpt><trkpt lat="39.05682588217277" lon="8.45994472456791"><ele>6.0</ele><time>2026-04-18T11:58:34Z</time></trkpt><trkpt lat="39.05674372923523" lon="8.45993926822698"><ele>6.0</ele><time>2026-04-18T11:58:35Z</time></trkpt><trkpt lat="39.05666335328034" lon="8.45993109042765"><ele>6.0</ele><time>2026-04-18T11:58:36Z</time></trkpt><trkpt lat="39.056584646031034" lon="8.459923977463434"><ele>6.0</ele><time>2026-04-18T11:58:37Z</time></trkpt><trkpt lat="39.05650495840516" lon="8.45991410035296"><ele>6.0</ele><time>2026-04-18T11:58:38Z</time></trkpt><trkpt lat="39.05641041507885" lon="8.459898476075047"><ele>6.0</ele><time>2026-04-18T11:58:39Z</time></trkpt><trkpt lat="39.05631075630958" lon="8.459885465524769"><ele>6.0</ele><time>2026-04-18T11:58:40Z</time></trkpt><trkpt lat="39.056204607392985" lon="8.459868579085297"><ele>6.0</ele><time>2026-04-18T11:58:41Z</time></trkpt><trkpt lat="39.05609596392904" lon="8.459848868010768"><ele>6.0</ele><time>2026-04-18T11:58:42Z</time></trkpt><trkpt lat="39.05598177920357" lon="8.459820560276457"><ele>6.0</ele><time>2026-04-18T11:58:43Z</time></trkpt><trkpt lat="39.05586298448636" lon="8.459786358062544"><ele>5.5</ele><time>2026-04-18T11:58:44Z</time></trkpt><trkpt lat="39.055749427744296" lon="8.459754534414355"><ele>5.0</ele><time>2026-04-18T11:58:45Z</time></trkpt><trkpt lat="39.05563821171695" lon="8.459697370842752"><ele>4.5</ele><time>2026-04-18T11:58:46Z</time></trkpt><trkpt lat="39.05551864884684" lon="8.459657150742162"><ele>4.0</ele><time>2026-04-18T11:58:47Z</time></trkpt><trkpt lat="39.05539530980053" lon="8.459616595519835"><ele>4.0</ele><time>2026-04-18T11:58:48Z</time></trkpt><trkpt lat="39.055267638218865" lon="8.459574504883294"><ele>4.0</ele><time>2026-04-18T11:58:49Z</time></trkpt><trkpt lat="39.05513625433391" lon="8.459531190384043"><ele>4.0</ele><time>2026-04-18T11:58:50Z</time></trkpt><trkpt lat="39.055001345129654" lon="8.459486713661569"><ele>4.0</ele><time>2026-04-18T11:58:51Z</time></trkpt><trkpt lat="39.05486560881645" lon="8.459442038594439"><ele>3.5</ele><time>2026-04-18T11:58:52Z</time></trkpt><trkpt lat="39.054728731104845" lon="8.459397247310926"><ele>3.0</ele><time>2026-04-18T11:58:53Z</time></trkpt><trkpt lat="39.054589381783124" lon="8.459368569897023"><ele>2.5</ele><time>2026-04-18T11:58:54Z</time></trkpt><trkpt lat="39.054453245825485" lon="8.45930802214456"><ele>2.0</ele><time>2026-04-18T11:58:55Z</time></trkpt><trkpt lat="39.05432023104083" lon="8.459238411711643"><ele>2.0</ele><time>2026-04-18T11:58:56Z</time></trkpt><trkpt lat="39.05419047733581" lon="8.45916459810526"><ele>2.0</ele><time>2026-04-18T11:58:57Z</time></trkpt><trkpt lat="39.054053386104194" lon="8.459085979916171"><ele>2.0</ele><time>2026-04-18T11:58:58Z</time></trkpt><trkpt lat="39.05391647305819" lon="8.459009664970901"><ele>2.0</ele><time>2026-04-18T11:58:59Z</time></trkpt><trkpt lat="39.0537807993081" lon="8.458933298771337"><ele>2.0</ele><time>2026-04-18T11:59:00Z</time></trkpt><trkpt lat="39.05364365828946" lon="8.458856573150452"><ele>2.0</ele><time>2026-04-18T11:59:01Z</time></trkpt><trkpt lat="39.05350779529343" lon="8.458783331155828"><ele>2.0</ele><time>2026-04-18T11:59:02Z</time></trkpt><trkpt lat="39.053375430650014" lon="8.458713301084257"><ele>2.0</ele><time>2026-04-18T11:59:03Z</time></trkpt><trkpt lat="39.05324339592616" lon="8.458645100151719"><ele>1.75</ele><time>2026-04-18T11:59:04Z</time></trkpt><trkpt lat="39.053113070651726" lon="8.458581192018094"><ele>1.5</ele><time>2026-04-18T11:59:05Z</time></trkpt><trkpt lat="39.05298043534311" lon="8.458522202739168"><ele>1.25</ele><time>2026-04-18T11:59:06Z</time></trkpt><trkpt lat="39.052844793131676" lon="8.4584693755121"><ele>1.0</ele><time>2026-04-18T11:59:07Z</time></trkpt><trkpt lat="39.052710598699264" lon="8.458426957112444"><ele>1.0</ele><time>2026-04-18T11:59:08Z</time></trkpt><trkpt lat="39.05258042609471" lon="8.45837836311589"><ele>1.0</ele><time>2026-04-18T11:59:09Z</time></trkpt><trkpt lat="39.05244620229372" lon="8.458334832600476"><ele>1.0</ele><time>2026-04-18T11:59:10Z</time></trkpt><trkpt lat="39.05231241393855" lon="8.458293389287991"><ele>1.0</ele><time>2026-04-18T11:59:11Z</time></trkpt><trkpt lat="39.052177508285524" lon="8.458254993116348"><ele>1.0</ele><time>2026-04-18T11:59:12Z</time></trkpt><trkpt lat="39.05204183067526" lon="8.458221490901598"><ele>1.0</ele><time>2026-04-18T11:59:13Z</time></trkpt><trkpt lat="39.051906299927474" lon="8.458175431119384"><ele>1.0</ele><time>2026-04-18T11:59:14Z</time></trkpt><trkpt lat="39.051765117394936" lon="8.45813491594147"><ele>1.0</ele><time>2026-04-18T11:59:15Z</time></trkpt><trkpt lat="39.05162268621738" lon="8.45809808927726"><ele>0.6666666666666666</ele><time>2026-04-18T11:59:16Z</time></trkpt><trkpt lat="39.05147734319956" lon="8.458058217410601"><ele>0.3333333333333333</ele><time>2026-04-18T11:59:17Z</time></trkpt><trkpt lat="39.05133466711202" lon="8.458015897287897"><ele>0.0</ele><time>2026-04-18T11:59:18Z</time></trkpt><trkpt lat="39.05117632108138" lon="8.457956894193536"><ele>0.3333333333333333</ele><time>2026-04-18T11:59:19Z</time></trkpt><trkpt lat="39.051028474391906" lon="8.457893355630782"><ele>0.6666666666666666</ele><time>2026-04-18T11:59:20Z</time></trkpt><trkpt lat="39.050879905863" lon="8.457821890444869"><ele>1.0</ele><time>2026-04-18T11:59:21Z</time></trkpt><trkpt lat="39.05072993056442" lon="8.457742914793798"><ele>1.0</ele><time>2026-04-18T11:59:22Z</time></trkpt><trkpt lat="39.050577382958906" lon="8.457666084783044"><ele>1.0</ele><time>2026-04-18T11:59:23Z</time></trkpt><trkpt lat="39.050427703076714" lon="8.457592702959916"><ele>1.0</ele><time>2026-04-18T11:59:24Z</time></trkpt><trkpt lat="39.05028165846923" lon="8.457514925258797"><ele>1.0</ele><time>2026-04-18T11:59:25Z</time></trkpt><trkpt lat="39.050132280446874" lon="8.457437291204387"><ele>1.0</ele><time>2026-04-18T11:59:26Z</time></trkpt><trkpt lat="39.04998521427352" lon="8.457367228218203"><ele>1.0</ele><time>2026-04-18T11:59:27Z</time></trkpt><trkpt lat="39.049834954746935" lon="8.457301508896244"><ele>1.3333333333333333</ele><time>2026-04-18T11:59:28Z</time></trkpt><trkpt lat="39.049680065886264" lon="8.45723030047037"><ele>1.6666666666666665</ele><time>2026-04-18T11:59:29Z</time></trkpt><trkpt lat="39.04952529172741" lon="8.45715870925854"><ele>2.0</ele><time>2026-04-18T11:59:30Z</time></trkpt><trkpt lat="39.04936697348046" lon="8.457093639870813"><ele>2.0</ele><time>2026-04-18T11:59:31Z</time></trkpt><trkpt lat="39.04921258320382" lon="8.457016861365213"><ele>2.0</ele><time>2026-04-18T11:59:32Z</time></trkpt><trkpt lat="39.04904235872586" lon="8.45699369292181"><ele>2.0</ele><time>2026-04-18T11:59:33Z</time></trkpt><trkpt lat="39.04887936625875" lon="8.45695620776015"><ele>1.6666666666666665</ele><time>2026-04-18T11:59:34Z</time></trkpt><trkpt lat="39.04871559004015" lon="8.456922222947732"><ele>1.3333333333333333</ele><time>2026-04-18T11:59:35Z</time></trkpt><trkpt lat="39.04855122731174" lon="8.456899750704746"><ele>1.0</ele><time>2026-04-18T11:59:36Z</time></trkpt><trkpt lat="39.04838559178681" lon="8.456886211442965"><ele>1.0</ele><time>2026-04-18T11:59:37Z</time></trkpt><trkpt lat="39.048220803384154" lon="8.456882389958125"><ele>1.0</ele><time>2026-04-18T11:59:38Z</time></trkpt><trkpt lat="39.04805427755738" lon="8.456884925804408"><ele>1.0</ele><time>2026-04-18T11:59:39Z</time></trkpt><trkpt lat="39.04788663700489" lon="8.45688776297549"><ele>1.0</ele><time>2026-04-18T11:59:40Z</time></trkpt><trkpt lat="39.04772025387526" lon="8.456892312420365"><ele>1.0</ele><time>2026-04-18T11:59:41Z</time></trkpt><trkpt lat="39.04755238512702" lon="8.456867922212563"><ele>1.0</ele><time>2026-04-18T11:59:42Z</time></trkpt><trkpt lat="39.047384197150905" lon="8.45685839733329"><ele>1.0</ele><time>2026-04-18T11:59:43Z</time></trkpt><trkpt lat="39.04721720062936" lon="8.456847594233318"><ele>1.0</ele><time>2026-04-18T11:59:44Z</time></trkpt><trkpt lat="39.047050989082486" lon="8.456857109811384"><ele>1.0</ele><time>2026-04-18T11:59:45Z</time></trkpt><trkpt lat="39.04688799882932" lon="8.456848072951473"><ele>1.0</ele><time>2026-04-18T11:59:46Z</time></trkpt><trkpt lat="39.04672365871991" lon="8.456833721311492"><ele>1.0</ele><time>2026-04-18T11:59:47Z</time></trkpt><trkpt lat="39.04656762116321" lon="8.45681037904135"><ele>1.0</ele><time>2026-04-18T11:59:48Z</time></trkpt><trkpt lat="39.04641627044592" lon="8.45675854476323"><ele>1.0</ele><time>2026-04-18T11:59:49Z</time></trkpt><trkpt lat="39.046264170486545" lon="8.456743904881996"><ele>1.0</ele><time>2026-04-18T11:59:50Z</time></trkpt><trkpt lat="39.046118030808245" lon="8.45669427071997"><ele>1.0</ele><time>2026-04-18T11:59:51Z</time></trkpt><trkpt lat="39.04598038234145" lon="8.45660817459964"><ele>1.0</ele><time>2026-04-18T11:59:52Z</time></trkpt><trkpt lat="39.045841198108015" lon="8.456524076438653"><ele>1.0</ele><time>2026-04-18T11:59:53Z</time></trkpt><trkpt lat="39.0456975387323" lon="8.456439532820232"><ele>1.0</ele><time>2026-04-18T11:59:54Z</time></trkpt><trkpt lat="39.045554240271876" lon="8.456356424491045"><ele>2.0</ele><time>2026-04-18T11:59:55Z</time></trkpt><trkpt lat="39.04540877631291" lon="8.456272060249399"><ele>3.0</ele><time>2026-04-18T11:59:56Z</time></trkpt><trkpt lat="39.04526487722057" lon="8.456188603588638"><ele>4.0</ele><time>2026-04-18T11:59:57Z</time></trkpt><trkpt lat="39.045117237645115" lon="8.45610177476153"><ele>4.0</ele><time>2026-04-18T11:59:58Z</time></trkpt><trkpt lat="39.044970447616045" lon="8.456013034139108"><ele>4.0</ele><time>2026-04-18T11:59:59Z</time></trkpt><trkpt lat="39.044823662293965" lon="8.455923092755128"><ele>4.0</ele><time>2026-04-18T12:00:00Z</time></trkpt><trkpt lat="39.04466718105498" lon="8.45586114789506"><ele>3.333333333333333</ele><time>2026-04-18T12:00:01Z</time></trkpt><trkpt lat="39.044513692611126" lon="8.455815218080895"><ele>2.6666666666666665</ele><time>2026-04-18T12:00:02Z</time></trkpt><trkpt lat="39.04435443360302" lon="8.45577692459731"><ele>2.0</ele><time>2026-04-18T12:00:03Z</time></trkpt><trkpt lat="39.04419942470947" lon="8.455736889811178"><ele>2.0</ele><time>2026-04-18T12:00:04Z</time></trkpt><trkpt lat="39.044043845206694" lon="8.45570209959997"><ele>2.0</ele><time>2026-04-18T12:00:05Z</time></trkpt><trkpt lat="39.04389145081395" lon="8.455643393434757"><ele>2.0</ele><time>2026-04-18T12:00:06Z</time></trkpt><trkpt lat="39.043735519429994" lon="8.455607349721653"><ele>2.0</ele><time>2026-04-18T12:00:07Z</time></trkpt><trkpt lat="39.043580771025816" lon="8.455571986340916"><ele>2.0</ele><time>2026-04-18T12:00:08Z</time></trkpt><trkpt lat="39.04342612562308" lon="8.455541501679638"><ele>2.0</ele><time>2026-04-18T12:00:09Z</time></trkpt><trkpt lat="39.04326851241204" lon="8.455539603274046"><ele>2.6666666666666665</ele><time>2026-04-18T12:00:10Z</time></trkpt><trkpt lat="39.04311301728326" lon="8.455496731196112"><ele>3.333333333333333</ele><time>2026-04-18T12:00:11Z</time></trkpt><trkpt lat="39.04295395392703" lon="8.455475233711304"><ele>4.0</ele><time>2026-04-18T12:00:12Z</time></trkpt><trkpt lat="39.042794253566285" lon="8.455455842580186"><ele>4.0</ele><time>2026-04-18T12:00:13Z</time></trkpt><trkpt lat="39.042636316493514" lon="8.455437391974435"><ele>4.0</ele><time>2026-04-18T12:00:14Z</time></trkpt><trkpt lat="39.04247847399544" lon="8.455417611378603"><ele>4.0</ele><time>2026-04-18T12:00:15Z</time></trkpt><trkpt lat="39.04231702794963" lon="8.45540015637835"><ele>3.6666666666666665</ele><time>2026-04-18T12:00:16Z</time></trkpt><trkpt lat="39.042157541277845" lon="8.455403919179574"><ele>3.333333333333333</ele><time>2026-04-18T12:00:17Z</time></trkpt><trkpt lat="39.04200248257181" lon="8.455378821251205"><ele>3.0</ele><time>2026-04-18T12:00:18Z</time></trkpt><trkpt lat="39.041855053674276" lon="8.455306745707624"><ele>3.0</ele><time>2026-04-18T12:00:19Z</time></trkpt><trkpt lat="39.04170874964753" lon="8.455241085796644"><ele>3.0</ele><time>2026-04-18T12:00:20Z</time></trkpt><trkpt lat="39.041563273110405" lon="8.455170625356658"><ele>3.0</ele><time>2026-04-18T12:00:21Z</time></trkpt><trkpt lat="39.041418428195875" lon="8.455094887491967"><ele>2.75</ele><time>2026-04-18T12:00:22Z</time></trkpt><trkpt lat="39.041271809594775" lon="8.455031295291176"><ele>2.5</ele><time>2026-04-18T12:00:23Z</time></trkpt><trkpt lat="39.041145770594255" lon="8.454940752296753"><ele>2.25</ele><time>2026-04-18T12:00:24Z</time></trkpt><trkpt lat="39.041026683707514" lon="8.454850667805186"><ele>2.0</ele><time>2026-04-18T12:00:25Z</time></trkpt><trkpt lat="39.04092572044385" lon="8.454762497633425"><ele>2.0</ele><time>2026-04-18T12:00:26Z</time></trkpt><trkpt lat="39.040843491712785" lon="8.45467899546618"><ele>2.0</ele><time>2026-04-18T12:00:27Z</time></trkpt><trkpt lat="39.040787782242106" lon="8.454598751223562"><ele>2.0</ele><time>2026-04-18T12:00:28Z</time></trkpt><trkpt lat="39.04077246720233" lon="8.454486023477854"><ele>2.0</ele><time>2026-04-18T12:00:34Z</time></trkpt><trkpt lat="39.04076373135022" lon="8.454351115264542"><ele>2.0</ele><time>2026-04-18T12:00:36Z</time></trkpt><trkpt lat="39.040713922605356" lon="8.454288626809218"><ele>2.4000000000000004</ele><time>2026-04-18T12:00:37Z</time></trkpt><trkpt lat="39.04065010378091" lon="8.454259050566225"><ele>2.8000000000000003</ele><time>2026-04-18T12:00:38Z</time></trkpt><trkpt lat="39.04056977129126" lon="8.454289501312779"><ele>3.2</ele><time>2026-04-18T12:00:39Z</time></trkpt><trkpt lat="39.04048899510358" lon="8.454351161465786"><ele>3.6</ele><time>2026-04-18T12:00:40Z</time></trkpt><trkpt lat="39.04039973357011" lon="8.454397749611358"><ele>4.0</ele><time>2026-04-18T12:00:41Z</time></trkpt><trkpt lat="39.04028424662681" lon="8.454417998678107"><ele>4.0</ele><time>2026-04-18T12:00:42Z</time></trkpt><trkpt lat="39.04016212180573" lon="8.454439907793919"><ele>4.0</ele><time>2026-04-18T12:00:43Z</time></trkpt><trkpt lat="39.04003143847763" lon="8.454439269806926"><ele>4.0</ele><time>2026-04-18T12:00:44Z</time></trkpt><trkpt lat="39.03989470823047" lon="8.454437136170085"><ele>4.0</ele><time>2026-04-18T12:00:45Z</time></trkpt><trkpt lat="39.03975792008864" lon="8.454424888999098"><ele>4.0</ele><time>2026-04-18T12:00:46Z</time></trkpt><trkpt lat="39.03961372959651" lon="8.454404420999431"><ele>4.0</ele><time>2026-04-18T12:00:47Z</time></trkpt><trkpt lat="39.03946489032906" lon="8.454383131562926"><ele>4.0</ele><time>2026-04-18T12:00:48Z</time></trkpt><trkpt lat="39.03931021797501" lon="8.454382365032796"><ele>4.0</ele><time>2026-04-18T12:00:49Z</time></trkpt><trkpt lat="39.03915481798183" lon="8.454340150227216"><ele>4.0</ele><time>2026-04-18T12:00:50Z</time></trkpt><trkpt lat="39.03899488262692" lon="8.454317576429942"><ele>4.0</ele><time>2026-04-18T12:00:51Z</time></trkpt><trkpt lat="39.038831045443324" lon="8.454292417540938"><ele>4.0</ele><time>2026-04-18T12:00:52Z</time></trkpt><trkpt lat="39.03866534439173" lon="8.454268095294339"><ele>4.0</ele><time>2026-04-18T12:00:53Z</time></trkpt><trkpt lat="39.038496530949075" lon="8.45424720733246"><ele>4.0</ele><time>2026-04-18T12:00:54Z</time></trkpt><trkpt lat="39.03832969909838" lon="8.454223949530908"><ele>4.0</ele><time>2026-04-18T12:00:55Z</time></trkpt><trkpt lat="39.038157737675256" lon="8.454218953520657"><ele>4.0</ele><time>2026-04-18T12:00:56Z</time></trkpt><trkpt lat="39.03798645403123" lon="8.45419840079996"><ele>4.0</ele><time>2026-04-18T12:00:57Z</time></trkpt><trkpt lat="39.0378135231391" lon="8.454166100157341"><ele>4.0</ele><time>2026-04-18T12:00:58Z</time></trkpt><trkpt lat="39.03763866905158" lon="8.454167993699627"><ele>4.333333333333333</ele><time>2026-04-18T12:00:59Z</time></trkpt><trkpt lat="39.037462409084235" lon="8.454178267216442"><ele>4.666666666666667</ele><time>2026-04-18T12:01:00Z</time></trkpt><trkpt lat="39.03728490138482" lon="8.4541934845251"><ele>5.0</ele><time>2026-04-18T12:01:01Z</time></trkpt><trkpt lat="39.037105915613374" lon="8.454214711856336"><ele>5.0</ele><time>2026-04-18T12:01:02Z</time></trkpt><trkpt lat="39.036926344023804" lon="8.454259503538985"><ele>5.0</ele><time>2026-04-18T12:01:03Z</time></trkpt><trkpt lat="39.03674166743099" lon="8.454280466338924"><ele>5.0</ele><time>2026-04-18T12:01:04Z</time></trkpt><trkpt lat="39.03655898257924" lon="8.454303178431951"><ele>4.333333333333334</ele><time>2026-04-18T12:01:05Z</time></trkpt><trkpt lat="39.03637497893603" lon="8.454326876273692"><ele>3.666666666666667</ele><time>2026-04-18T12:01:06Z</time></trkpt><trkpt lat="39.03618849209168" lon="8.454327604993182"><ele>3.0</ele><time>2026-04-18T12:01:07Z</time></trkpt><trkpt lat="39.03600710551752" lon="8.454350311501294"><ele>3.0</ele><time>2026-04-18T12:01:08Z</time></trkpt><trkpt lat="39.03583599113449" lon="8.45439289287198"><ele>3.0</ele><time>2026-04-18T12:01:09Z</time></trkpt><trkpt lat="39.03566979916361" lon="8.454386445860685"><ele>3.0</ele><time>2026-04-18T12:01:10Z</time></trkpt><trkpt lat="39.03551241665236" lon="8.454414756624741"><ele>3.0</ele><time>2026-04-18T12:01:11Z</time></trkpt><trkpt lat="39.035352306228134" lon="8.454394387557876"><ele>3.0</ele><time>2026-04-18T12:01:12Z</time></trkpt><trkpt lat="39.03518844632684" lon="8.454353707891961"><ele>3.0</ele><time>2026-04-18T12:01:13Z</time></trkpt><trkpt lat="39.03502458578483" lon="8.45429683816778"><ele>2.6666666666666665</ele><time>2026-04-18T12:01:14Z</time></trkpt><trkpt lat="39.03486375200261" lon="8.454215833612324"><ele>2.333333333333333</ele><time>2026-04-18T12:01:15Z</time></trkpt><trkpt lat="39.03471987054829" lon="8.454098553061606"><ele>2.0</ele><time>2026-04-18T12:01:16Z</time></trkpt><trkpt lat="39.03456861989149" lon="8.45400819413273"><ele>2.0</ele><time>2026-04-18T12:01:17Z</time></trkpt><trkpt lat="39.03442599687667" lon="8.45389827878968"><ele>2.0</ele><time>2026-04-18T12:01:18Z</time></trkpt><trkpt lat="39.034278143502746" lon="8.453797197976437"><ele>2.0</ele><time>2026-04-18T12:01:19Z</time></trkpt><trkpt lat="39.03412720006426" lon="8.453706107395593"><ele>2.0</ele><time>2026-04-18T12:01:20Z</time></trkpt><trkpt lat="39.033977569236235" lon="8.45359967745764"><ele>2.0</ele><time>2026-04-18T12:01:21Z</time></trkpt><trkpt lat="39.033815628577436" lon="8.45352010363571"><ele>2.0</ele><time>2026-04-18T12:01:22Z</time></trkpt><trkpt lat="39.033650923603865" lon="8.453441011002385"><ele>2.0</ele><time>2026-04-18T12:01:23Z</time></trkpt><trkpt lat="39.03348253959018" lon="8.453364335137854"><ele>2.0</ele><time>2026-04-18T12:01:24Z</time></trkpt><trkpt lat="39.03330801412012" lon="8.453308837280582"><ele>2.0</ele><time>2026-04-18T12:01:25Z</time></trkpt><trkpt lat="39.03314112274606" lon="8.453211143473036"><ele>2.0</ele><time>2026-04-18T12:01:26Z</time></trkpt><trkpt lat="39.0329693437783" lon="8.453132268817805"><ele>2.0</ele><time>2026-04-18T12:01:27Z</time></trkpt><trkpt lat="39.032798353526694" lon="8.453053756475235"><ele>2.0</ele><time>2026-04-18T12:01:28Z</time></trkpt><trkpt lat="39.0326329148141" lon="8.452980508633988"><ele>1.6666666666666665</ele><time>2026-04-18T12:01:29Z</time></trkpt><trkpt lat="39.03247299858032" lon="8.452911416578639"><ele>1.3333333333333333</ele><time>2026-04-18T12:01:30Z</time></trkpt><trkpt lat="39.03231398508095" lon="8.452841295863136"><ele>1.0</ele><time>2026-04-18T12:01:31Z</time></trkpt><trkpt lat="39.032149720394386" lon="8.452785034594624"><ele>1.0</ele><time>2026-04-18T12:01:32Z</time></trkpt><trkpt lat="39.031994368796944" lon="8.452701554893276"><ele>1.0</ele><time>2026-04-18T12:01:33Z</time></trkpt><trkpt lat="39.031842644003234" lon="8.452603429218986"><ele>1.0</ele><time>2026-04-18T12:01:34Z</time></trkpt><trkpt lat="39.03169647883224" lon="8.452487582508493"><ele>0.3333333333333333</ele><time>2026-04-18T12:01:35Z</time></trkpt><trkpt lat="39.03154925545811" lon="8.452366146562683"><ele>-0.3333333333333333</ele><time>2026-04-18T12:01:36Z</time></trkpt><trkpt lat="39.03139728463971" lon="8.45225739397015"><ele>-1.0</ele><time>2026-04-18T12:01:37Z</time></trkpt><trkpt lat="39.03124881041087" lon="8.452137913148492"><ele>0.0</ele><time>2026-04-18T12:01:38Z</time></trkpt><trkpt lat="39.03108874647414" lon="8.452042022282125"><ele>1.0</ele><time>2026-04-18T12:01:39Z</time></trkpt><trkpt lat="39.03092725460112" lon="8.451947027108236"><ele>2.0</ele><time>2026-04-18T12:01:40Z</time></trkpt><trkpt lat="39.030761825165975" lon="8.451849656034813"><ele>2.0</ele><time>2026-04-18T12:01:41Z</time></trkpt><trkpt lat="39.030594217741964" lon="8.451751890456991"><ele>2.0</ele><time>2026-04-18T12:01:42Z</time></trkpt><trkpt lat="39.03043024857432" lon="8.45165647084633"><ele>2.0</ele><time>2026-04-18T12:01:43Z</time></trkpt><trkpt lat="39.030266090834395" lon="8.451560941494574"><ele>2.0</ele><time>2026-04-18T12:01:44Z</time></trkpt><trkpt lat="39.030103668602905" lon="8.451464954064736"><ele>2.0</ele><time>2026-04-18T12:01:45Z</time></trkpt><trkpt lat="39.02994001504082" lon="8.45136808006409"><ele>2.0</ele><time>2026-04-18T12:01:46Z</time></trkpt><trkpt lat="39.029774940516084" lon="8.451270364933826"><ele>1.6666666666666665</ele><time>2026-04-18T12:01:47Z</time></trkpt><trkpt lat="39.02961060179202" lon="8.451171466450466"><ele>1.3333333333333333</ele><time>2026-04-18T12:01:48Z</time></trkpt><trkpt lat="39.02944410638826" lon="8.451069943728076"><ele>1.0</ele><time>2026-04-18T12:01:49Z</time></trkpt><trkpt lat="39.02928041660974" lon="8.450971190872343"><ele>1.0</ele><time>2026-04-18T12:01:50Z</time></trkpt><trkpt lat="39.02911303661757" lon="8.450872671482406"><ele>1.0</ele><time>2026-04-18T12:01:51Z</time></trkpt><trkpt lat="39.02894861914784" lon="8.450777226393255"><ele>1.0</ele><time>2026-04-18T12:01:52Z</time></trkpt><trkpt lat="39.02878370378941" lon="8.450681749081625"><ele>1.0</ele><time>2026-04-18T12:01:53Z</time></trkpt><trkpt lat="39.02861984967788" lon="8.450586886178028"><ele>1.0</ele><time>2026-04-18T12:01:54Z</time></trkpt><trkpt lat="39.028451674305266" lon="8.450508869690808"><ele>1.0</ele><time>2026-04-18T12:01:55Z</time></trkpt><trkpt lat="39.02829121138266" lon="8.45041239871492"><ele>1.0</ele><time>2026-04-18T12:01:56Z</time></trkpt><trkpt lat="39.028136225937445" lon="8.450298741969846"><ele>1.0</ele><time>2026-04-18T12:01:57Z</time></trkpt><trkpt lat="39.027974794656735" lon="8.450204999867887"><ele>1.0</ele><time>2026-04-18T12:01:58Z</time></trkpt><trkpt lat="39.02781414495565" lon="8.450111711624997"><ele>1.0</ele><time>2026-04-18T12:01:59Z</time></trkpt><trkpt lat="39.02765375961629" lon="8.450017186638938"><ele>1.0</ele><time>2026-04-18T12:02:00Z</time></trkpt><trkpt lat="39.02749370274807" lon="8.449921221425033"><ele>1.0</ele><time>2026-04-18T12:02:01Z</time></trkpt><trkpt lat="39.02733273822575" lon="8.449822676384043"><ele>1.0</ele><time>2026-04-18T12:02:02Z</time></trkpt><trkpt lat="39.02716368720993" lon="8.449741077532229"><ele>1.0</ele><time>2026-04-18T12:02:03Z</time></trkpt><trkpt lat="39.02700212691699" lon="8.449638940535372"><ele>1.0</ele><time>2026-04-18T12:02:04Z</time></trkpt><trkpt lat="39.02683984616905" lon="8.449533884007025"><ele>1.0</ele><time>2026-04-18T12:02:05Z</time></trkpt><trkpt lat="39.02667692290172" lon="8.449428414387674"><ele>1.0</ele><time>2026-04-18T12:02:06Z</time></trkpt><trkpt lat="39.02651705523843" lon="8.44931717330855"><ele>1.0</ele><time>2026-04-18T12:02:07Z</time></trkpt><trkpt lat="39.02636550987039" lon="8.449185746908022"><ele>1.0</ele><time>2026-04-18T12:02:08Z</time></trkpt><trkpt lat="39.02620635841863" lon="8.449073311654297"><ele>1.0</ele><time>2026-04-18T12:02:09Z</time></trkpt><trkpt lat="39.02603818424674" lon="8.448977247831921"><ele>1.0</ele><time>2026-04-18T12:02:10Z</time></trkpt><trkpt lat="39.02588145956028" lon="8.448862614678948"><ele>1.6666666666666665</ele><time>2026-04-18T12:02:11Z</time></trkpt><trkpt lat="39.02571930304727" lon="8.448747143121366"><ele>2.3333333333333335</ele><time>2026-04-18T12:02:12Z</time></trkpt><trkpt lat="39.02555696703058" lon="8.448635206821507"><ele>3.0</ele><time>2026-04-18T12:02:13Z</time></trkpt><trkpt lat="39.02540403907171" lon="8.448502609356817"><ele>3.0</ele><time>2026-04-18T12:02:14Z</time></trkpt><trkpt lat="39.02524246069" lon="8.448387462659527"><ele>3.0</ele><time>2026-04-18T12:02:15Z</time></trkpt><trkpt lat="39.02508177187757" lon="8.44827340189041"><ele>3.0</ele><time>2026-04-18T12:02:16Z</time></trkpt><trkpt lat="39.024919344531135" lon="8.448158107069187"><ele>2.6666666666666665</ele><time>2026-04-18T12:02:17Z</time></trkpt><trkpt lat="39.024751502136624" lon="8.448061291597911"><ele>2.333333333333333</ele><time>2026-04-18T12:02:18Z</time></trkpt><trkpt lat="39.024588297994" lon="8.447947108534406"><ele>2.0</ele><time>2026-04-18T12:02:19Z</time></trkpt><trkpt lat="39.024429519752296" lon="8.44783354672117"><ele>3.0</ele><time>2026-04-18T12:02:20Z</time></trkpt><trkpt lat="39.024270830015766" lon="8.447717478541186"><ele>4.0</ele><time>2026-04-18T12:02:21Z</time></trkpt><trkpt lat="39.02411635436369" lon="8.447604139771464"><ele>5.0</ele><time>2026-04-18T12:02:22Z</time></trkpt><trkpt lat="39.0239575178196" lon="8.447498039628773"><ele>5.0</ele><time>2026-04-18T12:02:23Z</time></trkpt><trkpt lat="39.023795985073846" lon="8.447406614826527"><ele>5.0</ele><time>2026-04-18T12:02:24Z</time></trkpt><trkpt lat="39.0236303850927" lon="8.44733017968555"><ele>5.0</ele><time>2026-04-18T12:02:25Z</time></trkpt><trkpt lat="39.023456695059664" lon="8.447273122779405"><ele>5.666666666666667</ele><time>2026-04-18T12:02:26Z</time></trkpt><trkpt lat="39.02327927656955" lon="8.447234361150535"><ele>6.333333333333334</ele><time>2026-04-18T12:02:27Z</time></trkpt><trkpt lat="39.02309826982337" lon="8.447205740091205"><ele>7.0</ele><time>2026-04-18T12:02:28Z</time></trkpt><trkpt lat="39.02291888340807" lon="8.447179721513685"><ele>7.0</ele><time>2026-04-18T12:02:29Z</time></trkpt><trkpt lat="39.02273349708089" lon="8.44715944503289"><ele>7.0</ele><time>2026-04-18T12:02:30Z</time></trkpt><trkpt lat="39.022553293908615" lon="8.447128534881605"><ele>7.0</ele><time>2026-04-18T12:02:31Z</time></trkpt><trkpt lat="39.022369470200964" lon="8.447104229051213"><ele>9.0</ele><time>2026-04-18T12:02:32Z</time></trkpt><trkpt lat="39.02218454080058" lon="8.447079625894192"><ele>11.0</ele><time>2026-04-18T12:02:33Z</time></trkpt><trkpt lat="39.022006691935566" lon="8.447057771818931"><ele>13.0</ele><time>2026-04-18T12:02:34Z</time></trkpt><trkpt lat="39.02182000126513" lon="8.447037891875533"><ele>14.333333333333332</ele><time>2026-04-18T12:02:35Z</time></trkpt><trkpt lat="39.02164152276011" lon="8.447017158994926"><ele>15.666666666666668</ele><time>2026-04-18T12:02:36Z</time></trkpt><trkpt lat="39.02146551044817" lon="8.44699451124162"><ele>17.0</ele><time>2026-04-18T12:02:37Z</time></trkpt><trkpt lat="39.02129746502163" lon="8.446954286564571"><ele>17.0</ele><time>2026-04-18T12:02:38Z</time></trkpt><trkpt lat="39.021132944498106" lon="8.446950119929378"><ele>17.0</ele><time>2026-04-18T12:02:39Z</time></trkpt><trkpt lat="39.02097570257709" lon="8.44692824113069"><ele>17.0</ele><time>2026-04-18T12:02:40Z</time></trkpt><trkpt lat="39.020816822410445" lon="8.446894635674358"><ele>17.333333333333336</ele><time>2026-04-18T12:02:41Z</time></trkpt><trkpt lat="39.02066154463036" lon="8.446863895216028"><ele>17.666666666666668</ele><time>2026-04-18T12:02:42Z</time></trkpt><trkpt lat="39.020515241443555" lon="8.446782394191187"><ele>18.0</ele><time>2026-04-18T12:02:43Z</time></trkpt><trkpt lat="39.020372668251085" lon="8.446711180287734"><ele>18.0</ele><time>2026-04-18T12:02:44Z</time></trkpt><trkpt lat="39.020220310665664" lon="8.446654746781162"><ele>18.0</ele><time>2026-04-18T12:02:45Z</time></trkpt><trkpt lat="39.02007262612088" lon="8.446577328409955"><ele>18.0</ele><time>2026-04-18T12:02:46Z</time></trkpt><trkpt lat="39.019927874042374" lon="8.446503259637058"><ele>19.666666666666668</ele><time>2026-04-18T12:02:47Z</time></trkpt><trkpt lat="39.019783679396625" lon="8.446430575209932"><ele>21.333333333333336</ele><time>2026-04-18T12:02:48Z</time></trkpt><trkpt lat="39.01963977666515" lon="8.446355561488431"><ele>23.0</ele><time>2026-04-18T12:02:49Z</time></trkpt><trkpt lat="39.01949696775634" lon="8.44628012566041"><ele>23.0</ele><time>2026-04-18T12:02:50Z</time></trkpt><trkpt lat="39.01935258652532" lon="8.446208124628498"><ele>23.0</ele><time>2026-04-18T12:02:51Z</time></trkpt><trkpt lat="39.01921391600856" lon="8.446118321977327"><ele>23.0</ele><time>2026-04-18T12:02:52Z</time></trkpt><trkpt lat="39.01906240677564" lon="8.44606324028294"><ele>24.0</ele><time>2026-04-18T12:02:53Z</time></trkpt><trkpt lat="39.018918923499214" lon="8.445982592066013"><ele>25.0</ele><time>2026-04-18T12:02:54Z</time></trkpt><trkpt lat="39.01877302480571" lon="8.445905534572956"><ele>26.0</ele><time>2026-04-18T12:02:55Z</time></trkpt><trkpt lat="39.01862460168489" lon="8.445833124481695"><ele>26.0</ele><time>2026-04-18T12:02:56Z</time></trkpt><trkpt lat="39.01847127404858" lon="8.44578412680088"><ele>26.0</ele><time>2026-04-18T12:02:57Z</time></trkpt><trkpt lat="39.018312237769116" lon="8.445764716279443"><ele>26.0</ele><time>2026-04-18T12:02:58Z</time></trkpt><trkpt lat="39.018152137555546" lon="8.44576883307376"><ele>25.333333333333332</ele><time>2026-04-18T12:02:59Z</time></trkpt><trkpt lat="39.017995229859224" lon="8.445791429059794"><ele>24.666666666666664</ele><time>2026-04-18T12:03:00Z</time></trkpt><trkpt lat="39.01784267340891" lon="8.44581857645074"><ele>24.0</ele><time>2026-04-18T12:03:01Z</time></trkpt><trkpt lat="39.017694094814004" lon="8.445838112347229"><ele>24.0</ele><time>2026-04-18T12:03:02Z</time></trkpt><trkpt lat="39.01754842118209" lon="8.445857135072957"><ele>24.0</ele><time>2026-04-18T12:03:03Z</time></trkpt><trkpt lat="39.01739906816967" lon="8.445855063656195"><ele>24.0</ele><time>2026-04-18T12:03:04Z</time></trkpt><trkpt lat="39.017254923962575" lon="8.445874596968602"><ele>24.0</ele><time>2026-04-18T12:03:05Z</time></trkpt><trkpt lat="39.01712269652912" lon="8.445929999503981"><ele>23.5</ele><time>2026-04-18T12:03:06Z</time></trkpt><trkpt lat="39.016996827674674" lon="8.445982720468562"><ele>23.0</ele><time>2026-04-18T12:03:07Z</time></trkpt><trkpt lat="39.01688194831269" lon="8.446062888717593"><ele>22.5</ele><time>2026-04-18T12:03:08Z</time></trkpt><trkpt lat="39.01677549835808" lon="8.446162499926588"><ele>22.0</ele><time>2026-04-18T12:03:09Z</time></trkpt><trkpt lat="39.016669228729384" lon="8.446287794036786"><ele>21.333333333333332</ele><time>2026-04-18T12:03:10Z</time></trkpt><trkpt lat="39.016562210297224" lon="8.446429112081875"><ele>20.666666666666668</ele><time>2026-04-18T12:03:11Z</time></trkpt><trkpt lat="39.01645448250362" lon="8.446578844815795"><ele>20.0</ele><time>2026-04-18T12:03:12Z</time></trkpt><trkpt lat="39.016342383208304" lon="8.446734956088882"><ele>20.0</ele><time>2026-04-18T12:03:13Z</time></trkpt><trkpt lat="39.0162228695156" lon="8.446891074582593"><ele>20.0</ele><time>2026-04-18T12:03:14Z</time></trkpt><trkpt lat="39.016103938411234" lon="8.447047567453291"><ele>20.0</ele><time>2026-04-18T12:03:15Z</time></trkpt><trkpt lat="39.01598848883742" lon="8.447205106505294"><ele>19.0</ele><time>2026-04-18T12:03:16Z</time></trkpt><trkpt lat="39.015873177896694" lon="8.447361356161489"><ele>18.0</ele><time>2026-04-18T12:03:17Z</time></trkpt><trkpt lat="39.01575834265058" lon="8.447518553301643"><ele>17.0</ele><time>2026-04-18T12:03:18Z</time></trkpt><trkpt lat="39.015644892017484" lon="8.447670525418394"><ele>20.666666666666668</ele><time>2026-04-18T12:03:19Z</time></trkpt><trkpt lat="39.01553867209027" lon="8.44782143137567"><ele>24.333333333333336</ele><time>2026-04-18T12:03:20Z</time></trkpt><trkpt lat="39.01543862354204" lon="8.44797297004638"><ele>28.0</ele><time>2026-04-18T12:03:21Z</time></trkpt><trkpt lat="39.015348906012555" lon="8.448118932599797"><ele>28.0</ele><time>2026-04-18T12:03:22Z</time></trkpt><trkpt lat="39.01527706934086" lon="8.448256772737533"><ele>28.0</ele><time>2026-04-18T12:03:23Z</time></trkpt><trkpt lat="39.01520983831375" lon="8.44838321546988"><ele>28.0</ele><time>2026-04-18T12:03:24Z</time></trkpt><trkpt lat="39.015145576737005" lon="8.448497541599542"><ele>28.0</ele><time>2026-04-18T12:03:25Z</time></trkpt><trkpt lat="39.015084210522105" lon="8.448601985685565"><ele>28.0</ele><time>2026-04-18T12:03:26Z</time></trkpt><trkpt lat="39.01502090887304" lon="8.448700701697511"><ele>27.999999999999996</ele><time>2026-04-18T12:03:27Z</time></trkpt><trkpt lat="39.01496300600182" lon="8.448795361920705"><ele>27.999999999999996</ele><time>2026-04-18T12:03:28Z</time></trkpt><trkpt lat="39.014911981105726" lon="8.44889049215071"><ele>28.0</ele><time>2026-04-18T12:03:29Z</time></trkpt><trkpt lat="39.01486285754283" lon="8.44898440366744"><ele>28.0</ele><time>2026-04-18T12:03:30Z</time></trkpt><trkpt lat="39.014812709022024" lon="8.449078351073444"><ele>30.2</ele><time>2026-04-18T12:03:31Z</time></trkpt><trkpt lat="39.01475212903639" lon="8.449166431455708"><ele>32.4</ele><time>2026-04-18T12:03:32Z</time></trkpt><trkpt lat="39.01468438094248" lon="8.44924207925503"><ele>34.599999999999994</ele><time>2026-04-18T12:03:33Z</time></trkpt><trkpt lat="39.01461197552756" lon="8.449318191280208"><ele>36.8</ele><time>2026-04-18T12:03:34Z</time></trkpt><trkpt lat="39.01453147226374" lon="8.449390374552337"><ele>39.0</ele><time>2026-04-18T12:03:35Z</time></trkpt><trkpt lat="39.0144419993598" lon="8.44944352240487"><ele>39.0</ele><time>2026-04-18T12:03:36Z</time></trkpt><trkpt lat="39.01434614352721" lon="8.449484696303301"><ele>39.0</ele><time>2026-04-18T12:03:37Z</time></trkpt><trkpt lat="39.0142523574208" lon="8.449523600340568"><ele>39.0</ele><time>2026-04-18T12:03:38Z</time></trkpt><trkpt lat="39.01415024713195" lon="8.449554210363697"><ele>39.0</ele><time>2026-04-18T12:03:39Z</time></trkpt><trkpt lat="39.0140409709571" lon="8.449554334074632"><ele>39.0</ele><time>2026-04-18T12:03:40Z</time></trkpt><trkpt lat="39.013932600266834" lon="8.449553926824635"><ele>39.5</ele><time>2026-04-18T12:03:41Z</time></trkpt><trkpt lat="39.01382367109599" lon="8.449548172402274"><ele>40.0</ele><time>2026-04-18T12:03:42Z</time></trkpt><trkpt lat="39.01371241322577" lon="8.44953791311068"><ele>40.5</ele><time>2026-04-18T12:03:43Z</time></trkpt><trkpt lat="39.01359948529152" lon="8.449524590792802"><ele>41.0</ele><time>2026-04-18T12:03:44Z</time></trkpt><trkpt lat="39.013483365187405" lon="8.449527682459845"><ele>41.0</ele><time>2026-04-18T12:03:45Z</time></trkpt><trkpt lat="39.01337086430338" lon="8.449499238946313"><ele>41.0</ele><time>2026-04-18T12:03:46Z</time></trkpt><trkpt lat="39.01326329901189" lon="8.449458325292136"><ele>41.0</ele><time>2026-04-18T12:03:47Z</time></trkpt><trkpt lat="39.013165064755995" lon="8.449389895707307"><ele>41.0</ele><time>2026-04-18T12:03:48Z</time></trkpt><trkpt lat="39.01306315369953" lon="8.449332634509913"><ele>40.0</ele><time>2026-04-18T12:03:49Z</time></trkpt><trkpt lat="39.01296858369444" lon="8.449274512941939"><ele>39.0</ele><time>2026-04-18T12:03:50Z</time></trkpt><trkpt lat="39.01287423078116" lon="8.449232149692477"><ele>38.0</ele><time>2026-04-18T12:03:51Z</time></trkpt><trkpt lat="39.01278814460985" lon="8.449174149100026"><ele>37.0</ele><time>2026-04-18T12:03:52Z</time></trkpt><trkpt lat="39.012704078586424" lon="8.44910900204631"><ele>36.0</ele><time>2026-04-18T12:03:53Z</time></trkpt><trkpt lat="39.01262541826234" lon="8.449047078388162"><ele>36.0</ele><time>2026-04-18T12:03:54Z</time></trkpt><trkpt lat="39.01256345050046" lon="8.448958558439266"><ele>36.0</ele><time>2026-04-18T12:03:55Z</time></trkpt><trkpt lat="39.01250275856095" lon="8.448888655217578"><ele>36.0</ele><time>2026-04-18T12:03:56Z</time></trkpt><trkpt lat="39.01244233698181" lon="8.448811222134852"><ele>36.0</ele><time>2026-04-18T12:03:57Z</time></trkpt><trkpt lat="39.01239150238437" lon="8.448730572617999"><ele>36.0</ele><time>2026-04-18T12:03:58Z</time></trkpt><trkpt lat="39.01232992444228" lon="8.448652912297844"><ele>36.0</ele><time>2026-04-18T12:03:59Z</time></trkpt><trkpt lat="39.012282984871774" lon="8.44855852833552"><ele>35.4</ele><time>2026-04-18T12:04:00Z</time></trkpt><trkpt lat="39.0122383658343" lon="8.448468579700165"><ele>34.8</ele><time>2026-04-18T12:04:01Z</time></trkpt><trkpt lat="39.01216117651079" lon="8.448290967490843"><ele>34.199999999999996</ele><time>2026-04-18T12:04:03Z</time></trkpt><trkpt lat="39.012134455362876" lon="8.448191862723421"><ele>33.6</ele><time>2026-04-18T12:04:04Z</time></trkpt><trkpt lat="39.01209762378953" lon="8.448098308599663"><ele>33.0</ele><time>2026-04-18T12:04:05Z</time></trkpt><trkpt lat="39.01206391701613" lon="8.448001698188005"><ele>33.666666666666664</ele><time>2026-04-18T12:04:06Z</time></trkpt><trkpt lat="39.012036404890566" lon="8.447900951727345"><ele>34.333333333333336</ele><time>2026-04-18T12:04:07Z</time></trkpt><trkpt lat="39.012005645272076" lon="8.447807179639538"><ele>35.0</ele><time>2026-04-18T12:04:08Z</time></trkpt><trkpt lat="39.0119950800319" lon="8.447709130184926"><ele>35.66666666666667</ele><time>2026-04-18T12:04:09Z</time></trkpt><trkpt lat="39.01198510894071" lon="8.447612603460707"><ele>36.333333333333336</ele><time>2026-04-18T12:04:10Z</time></trkpt><trkpt lat="39.011979886288394" lon="8.44752054221034"><ele>37.0</ele><time>2026-04-18T12:04:11Z</time></trkpt><trkpt lat="39.011977482979226" lon="8.447432820116092"><ele>37.0</ele><time>2026-04-18T12:04:12Z</time></trkpt><trkpt lat="39.01197653646327" lon="8.447347936905354"><ele>37.0</ele><time>2026-04-18T12:04:13Z</time></trkpt><trkpt lat="39.01196981560223" lon="8.44719698063233"><ele>37.0</ele><time>2026-04-18T12:04:15Z</time></trkpt><trkpt lat="39.01198046417206" lon="8.447064254145902"><ele>37.0</ele><time>2026-04-18T12:04:17Z</time></trkpt><trkpt lat="39.011982667745784" lon="8.446956122611045"><ele>37.0</ele><time>2026-04-18T12:04:19Z</time></trkpt><trkpt lat="39.01197759106207" lon="8.446863573848761"><ele>37.0</ele><time>2026-04-18T12:04:21Z</time></trkpt><trkpt lat="39.01199539507812" lon="8.446767266483693"><ele>37.8</ele><time>2026-04-18T12:04:23Z</time></trkpt><trkpt lat="39.01201029630394" lon="8.446678325388897"><ele>38.6</ele><time>2026-04-18T12:04:25Z</time></trkpt><trkpt lat="39.0120295754081" lon="8.446562703971606"><ele>39.4</ele><time>2026-04-18T12:04:27Z</time></trkpt><trkpt lat="39.01205698806178" lon="8.446397407166014"><ele>40.199999999999996</ele><time>2026-04-18T12:04:29Z</time></trkpt><trkpt lat="39.01207882299136" lon="8.446301087995707"><ele>41.0</ele><time>2026-04-18T12:04:30Z</time></trkpt><trkpt lat="39.01209870328856" lon="8.446197412040629"><ele>41.599999999999994</ele><time>2026-04-18T12:04:31Z</time></trkpt><trkpt lat="39.01211904730229" lon="8.446085845284276"><ele>42.2</ele><time>2026-04-18T12:04:32Z</time></trkpt><trkpt lat="39.01214103365054" lon="8.445971131753772"><ele>42.8</ele><time>2026-04-18T12:04:33Z</time></trkpt><trkpt lat="39.01216540174606" lon="8.44585201150844"><ele>43.400000000000006</ele><time>2026-04-18T12:04:34Z</time></trkpt><trkpt lat="39.01218269706702" lon="8.445734449934337"><ele>44.0</ele><time>2026-04-18T12:04:35Z</time></trkpt><trkpt lat="39.01217782729599" lon="8.445623650674461"><ele>44.0</ele><time>2026-04-18T12:04:36Z</time></trkpt><trkpt lat="39.01217695272503" lon="8.44551838358571"><ele>44.0</ele><time>2026-04-18T12:04:37Z</time></trkpt><trkpt lat="39.012148502136945" lon="8.44542478688961"><ele>44.0</ele><time>2026-04-18T12:04:38Z</time></trkpt><trkpt lat="39.012105941562815" lon="8.445339512697643"><ele>44.0</ele><time>2026-04-18T12:04:39Z</time></trkpt><trkpt lat="39.01209458086743" lon="8.44524234330182"><ele>44.0</ele><time>2026-04-18T12:04:40Z</time></trkpt><trkpt lat="39.01206492640666" lon="8.445141863532813"><ele>44.0</ele><time>2026-04-18T12:04:41Z</time></trkpt><trkpt lat="39.01203690744493" lon="8.44504692540042"><ele>45.2</ele><time>2026-04-18T12:04:42Z</time></trkpt><trkpt lat="39.012002268069345" lon="8.444929554940577"><ele>46.400000000000006</ele><time>2026-04-18T12:04:44Z</time></trkpt><trkpt lat="39.01196051583767" lon="8.444825601479835"><ele>47.6</ele><time>2026-04-18T12:04:46Z</time></trkpt><trkpt lat="39.01192702147784" lon="8.44471033900118"><ele>48.8</ele><time>2026-04-18T12:04:48Z</time></trkpt><trkpt lat="39.011911472070736" lon="8.4446219060093"><ele>50.0</ele><time>2026-04-18T12:05:06Z</time></trkpt><trkpt lat="39.01194563097979" lon="8.444737648439704"><ele>50.0</ele><time>2026-04-18T12:05:10Z</time></trkpt><trkpt lat="39.01197105564027" lon="8.444823796306514"><ele>50.0</ele><time>2026-04-18T12:05:11Z</time></trkpt><trkpt lat="39.01199922514051" lon="8.445043710689168"><ele>50.0</ele><time>2026-04-18T12:05:12Z</time></trkpt><trkpt lat="39.01204177416765" lon="8.44518204821853"><ele>50.0</ele><time>2026-04-18T12:05:13Z</time></trkpt><trkpt lat="39.01207543134514" lon="8.4453091159576"><ele>50.0</ele><time>2026-04-18T12:05:14Z</time></trkpt><trkpt lat="39.012110276257715" lon="8.44544292037638"><ele>50.0</ele><time>2026-04-18T12:05:15Z</time></trkpt><trkpt lat="39.012144571330865" lon="8.445586302293497"><ele>50.0</ele><time>2026-04-18T12:05:16Z</time></trkpt><trkpt lat="39.012157499165035" lon="8.445740948074766"><ele>50.0</ele><time>2026-04-18T12:05:17Z</time></trkpt><trkpt lat="39.012132653953735" lon="8.445914178708023"><ele>48.0</ele><time>2026-04-18T12:05:18Z</time></trkpt><trkpt lat="39.012093706072314" lon="8.446093736608976"><ele>46.0</ele><time>2026-04-18T12:05:19Z</time></trkpt><trkpt lat="39.012052302030305" lon="8.446288182749697"><ele>44.0</ele><time>2026-04-18T12:05:20Z</time></trkpt><trkpt lat="39.012008980027296" lon="8.44648935905373"><ele>43.0</ele><time>2026-04-18T12:05:21Z</time></trkpt><trkpt lat="39.01197421029023" lon="8.446693061271896"><ele>42.0</ele><time>2026-04-18T12:05:22Z</time></trkpt><trkpt lat="39.01195006327657" lon="8.446905370825151"><ele>41.0</ele><time>2026-04-18T12:05:23Z</time></trkpt><trkpt lat="39.01194180653333" lon="8.4471242984354"><ele>39.666666666666664</ele><time>2026-04-18T12:05:24Z</time></trkpt><trkpt lat="39.011947136374594" lon="8.447345990558045"><ele>38.333333333333336</ele><time>2026-04-18T12:05:25Z</time></trkpt><trkpt lat="39.01195443013068" lon="8.447565686407009"><ele>37.0</ele><time>2026-04-18T12:05:26Z</time></trkpt><trkpt lat="39.01197643348357" lon="8.44777920682613"><ele>35.66666666666667</ele><time>2026-04-18T12:05:27Z</time></trkpt><trkpt lat="39.01201470728862" lon="8.447987038981957"><ele>34.333333333333336</ele><time>2026-04-18T12:05:28Z</time></trkpt><trkpt lat="39.0120758262464" lon="8.448182336111357"><ele>33.0</ele><time>2026-04-18T12:05:29Z</time></trkpt><trkpt lat="39.01216767724039" lon="8.448373211894042"><ele>33.0</ele><time>2026-04-18T12:05:30Z</time></trkpt><trkpt lat="39.012265322842126" lon="8.448575185481388"><ele>33.0</ele><time>2026-04-18T12:05:31Z</time></trkpt><trkpt lat="39.01235590323352" lon="8.44876566744876"><ele>33.0</ele><time>2026-04-18T12:05:32Z</time></trkpt><trkpt lat="39.01247434775817" lon="8.44893619740808"><ele>34.0</ele><time>2026-04-18T12:05:33Z</time></trkpt><trkpt lat="39.01261888859935" lon="8.449080668638926"><ele>35.0</ele><time>2026-04-18T12:05:34Z</time></trkpt><trkpt lat="39.01277859516683" lon="8.44920518501397"><ele>36.0</ele><time>2026-04-18T12:05:35Z</time></trkpt><trkpt lat="39.01293822376957" lon="8.449310208279641"><ele>36.0</ele><time>2026-04-18T12:05:36Z</time></trkpt><trkpt lat="39.01309310901384" lon="8.449404678066351"><ele>36.0</ele><time>2026-04-18T12:05:37Z</time></trkpt><trkpt lat="39.01324662640605" lon="8.449484907260894"><ele>36.0</ele><time>2026-04-18T12:05:38Z</time></trkpt><trkpt lat="39.01340563243778" lon="8.449535804408402"><ele>37.666666666666664</ele><time>2026-04-18T12:05:39Z</time></trkpt><trkpt lat="39.013564743105796" lon="8.449567592655981"><ele>39.33333333333333</ele><time>2026-04-18T12:05:40Z</time></trkpt><trkpt lat="39.013728350122825" lon="8.44958783737143"><ele>41.0</ele><time>2026-04-18T12:05:41Z</time></trkpt><trkpt lat="39.01388824036" lon="8.449597166638599"><ele>41.0</ele><time>2026-04-18T12:05:42Z</time></trkpt><trkpt lat="39.01404821304307" lon="8.449598819488727"><ele>41.0</ele><time>2026-04-18T12:05:43Z</time></trkpt><trkpt lat="39.0142111883588" lon="8.449567124353122"><ele>41.0</ele><time>2026-04-18T12:05:44Z</time></trkpt><trkpt lat="39.01437596343364" lon="8.449509522491049"><ele>40.33333333333333</ele><time>2026-04-18T12:05:45Z</time></trkpt><trkpt lat="39.01452459404287" lon="8.449425734846258"><ele>39.666666666666664</ele><time>2026-04-18T12:05:46Z</time></trkpt><trkpt lat="39.01466522920937" lon="8.449310996977191"><ele>39.0</ele><time>2026-04-18T12:05:47Z</time></trkpt><trkpt lat="39.01479088295879" lon="8.449168090641198"><ele>39.0</ele><time>2026-04-18T12:05:48Z</time></trkpt><trkpt lat="39.01489479916948" lon="8.448993951673483"><ele>39.0</ele><time>2026-04-18T12:05:49Z</time></trkpt><trkpt lat="39.01500604849844" lon="8.448818665990098"><ele>39.0</ele><time>2026-04-18T12:05:50Z</time></trkpt><trkpt lat="39.01510473643613" lon="8.448638145894513"><ele>35.333333333333336</ele><time>2026-04-18T12:05:51Z</time></trkpt><trkpt lat="39.01519037728677" lon="8.448446252404453"><ele>31.666666666666668</ele><time>2026-04-18T12:05:52Z</time></trkpt><trkpt lat="39.015290969310335" lon="8.448275586598433"><ele>28.0</ele><time>2026-04-18T12:05:53Z</time></trkpt><trkpt lat="39.01538902650391" lon="8.448102395163083"><ele>30.0</ele><time>2026-04-18T12:05:54Z</time></trkpt><trkpt lat="39.01548660396595" lon="8.447935476069869"><ele>32.0</ele><time>2026-04-18T12:05:55Z</time></trkpt><trkpt lat="39.01558775655981" lon="8.44777991935898"><ele>34.0</ele><time>2026-04-18T12:05:56Z</time></trkpt><trkpt lat="39.0157021687698" lon="8.447623560910069"><ele>34.0</ele><time>2026-04-18T12:05:57Z</time></trkpt><trkpt lat="39.01581951320194" lon="8.447467592527493"><ele>34.0</ele><time>2026-04-18T12:05:58Z</time></trkpt><trkpt lat="39.01593896829015" lon="8.447305188136342"><ele>34.0</ele><time>2026-04-18T12:05:59Z</time></trkpt><trkpt lat="39.016058797406906" lon="8.447142912227362"><ele>29.333333333333336</ele><time>2026-04-18T12:06:00Z</time></trkpt><trkpt lat="39.016176739585944" lon="8.446980307532945"><ele>24.666666666666668</ele><time>2026-04-18T12:06:01Z</time></trkpt><trkpt lat="39.01629651575046" lon="8.446818539895975"><ele>20.0</ele><time>2026-04-18T12:06:02Z</time></trkpt><trkpt lat="39.016409853237974" lon="8.446661035827525"><ele>20.0</ele><time>2026-04-18T12:06:03Z</time></trkpt><trkpt lat="39.01651540961181" lon="8.446512073007456"><ele>20.0</ele><time>2026-04-18T12:06:04Z</time></trkpt><trkpt lat="39.01661264595272" lon="8.446382867591716"><ele>20.0</ele><time>2026-04-18T12:06:05Z</time></trkpt><trkpt lat="39.016705733567655" lon="8.446276972305919"><ele>20.0</ele><time>2026-04-18T12:06:06Z</time></trkpt><trkpt lat="39.01679266848959" lon="8.44619336593305"><ele>20.4</ele><time>2026-04-18T12:06:07Z</time></trkpt><trkpt lat="39.0168700476468" lon="8.446132652157637"><ele>20.8</ele><time>2026-04-18T12:06:08Z</time></trkpt><trkpt lat="39.01695998922495" lon="8.446095505290456"><ele>21.200000000000003</ele><time>2026-04-18T12:06:10Z</time></trkpt><trkpt lat="39.017005102783344" lon="8.446159404446961"><ele>21.6</ele><time>2026-04-18T12:06:29Z</time></trkpt><trkpt lat="39.016946317484376" lon="8.446311209535875"><ele>22.0</ele><time>2026-04-18T12:06:31Z</time></trkpt><trkpt lat="39.01690356377754" lon="8.4464174555081"><ele>21.6</ele><time>2026-04-18T12:06:32Z</time></trkpt><trkpt lat="39.01684644876267" lon="8.446518825175175"><ele>21.200000000000003</ele><time>2026-04-18T12:06:33Z</time></trkpt><trkpt lat="39.016785060244366" lon="8.446628732479422"><ele>20.8</ele><time>2026-04-18T12:06:34Z</time></trkpt><trkpt lat="39.01672924668444" lon="8.446736481360658"><ele>20.4</ele><time>2026-04-18T12:06:35Z</time></trkpt><trkpt lat="39.016672573854855" lon="8.446843883744902"><ele>20.0</ele><time>2026-04-18T12:06:36Z</time></trkpt><trkpt lat="39.01659470217926" lon="8.44694727183304"><ele>20.0</ele><time>2026-04-18T12:06:37Z</time></trkpt><trkpt lat="39.01651487163132" lon="8.447057784993833"><ele>20.0</ele><time>2026-04-18T12:06:38Z</time></trkpt><trkpt lat="39.016434269807206" lon="8.447177412242688"><ele>20.0</ele><time>2026-04-18T12:06:39Z</time></trkpt><trkpt lat="39.01636739789764" lon="8.44730803429887"><ele>20.0</ele><time>2026-04-18T12:06:40Z</time></trkpt><trkpt lat="39.01631945740607" lon="8.447452135812673"><ele>19.25</ele><time>2026-04-18T12:06:41Z</time></trkpt><trkpt lat="39.01627980361168" lon="8.447598877520583"><ele>18.5</ele><time>2026-04-18T12:06:42Z</time></trkpt><trkpt lat="39.01623694480822" lon="8.447741861855262"><ele>17.75</ele><time>2026-04-18T12:06:43Z</time></trkpt><trkpt lat="39.016189658860625" lon="8.447878820988054"><ele>17.0</ele><time>2026-04-18T12:06:44Z</time></trkpt><trkpt lat="39.01614264030392" lon="8.448006717852673"><ele>15.8</ele><time>2026-04-18T12:06:45Z</time></trkpt><trkpt lat="39.016097053449556" lon="8.448128250392596"><ele>14.6</ele><time>2026-04-18T12:06:46Z</time></trkpt><trkpt lat="39.016040352586074" lon="8.448245916751496"><ele>13.4</ele><time>2026-04-18T12:06:47Z</time></trkpt><trkpt lat="39.015969387334074" lon="8.448351216468822"><ele>12.200000000000001</ele><time>2026-04-18T12:06:48Z</time></trkpt><trkpt lat="39.015892025113786" lon="8.44844745269648"><ele>11.0</ele><time>2026-04-18T12:06:49Z</time></trkpt><trkpt lat="39.01580328577371" lon="8.448523272077859"><ele>13.0</ele><time>2026-04-18T12:06:50Z</time></trkpt><trkpt lat="39.01571530543498" lon="8.448618064429388"><ele>15.0</ele><time>2026-04-18T12:06:51Z</time></trkpt><trkpt lat="39.01564519229663" lon="8.448711576662033"><ele>17.0</ele><time>2026-04-18T12:06:52Z</time></trkpt><trkpt lat="39.01555871067162" lon="8.448797385738406"><ele>19.0</ele><time>2026-04-18T12:06:53Z</time></trkpt><trkpt lat="39.015481913779254" lon="8.448883348930751"><ele>21.0</ele><time>2026-04-18T12:06:54Z</time></trkpt><trkpt lat="39.01539886085263" lon="8.448976538356149"><ele>21.0</ele><time>2026-04-18T12:06:55Z</time></trkpt><trkpt lat="39.0153126368432" lon="8.44906588884442"><ele>21.0</ele><time>2026-04-18T12:06:56Z</time></trkpt><trkpt lat="39.01521996012549" lon="8.449149242808963"><ele>21.0</ele><time>2026-04-18T12:06:57Z</time></trkpt><trkpt lat="39.01514290282354" lon="8.449242073474808"><ele>21.0</ele><time>2026-04-18T12:06:58Z</time></trkpt><trkpt lat="39.01509157273654" lon="8.449352967485687"><ele>21.0</ele><time>2026-04-18T12:06:59Z</time></trkpt><trkpt lat="39.01504100552361" lon="8.44946937061481"><ele>21.200000000000003</ele><time>2026-04-18T12:07:00Z</time></trkpt><trkpt lat="39.014985865961116" lon="8.449589010956771"><ele>21.400000000000002</ele><time>2026-04-18T12:07:01Z</time></trkpt><trkpt lat="39.014913501550005" lon="8.449699483900503"><ele>21.6</ele><time>2026-04-18T12:07:02Z</time></trkpt><trkpt lat="39.01482601654537" lon="8.449784807054051"><ele>21.8</ele><time>2026-04-18T12:07:03Z</time></trkpt><trkpt lat="39.014727186062984" lon="8.44984978253797"><ele>22.0</ele><time>2026-04-18T12:07:04Z</time></trkpt><trkpt lat="39.014625607759285" lon="8.449898556977544"><ele>22.0</ele><time>2026-04-18T12:07:05Z</time></trkpt><trkpt lat="39.01452023895186" lon="8.449936044017065"><ele>22.0</ele><time>2026-04-18T12:07:06Z</time></trkpt><trkpt lat="39.01441266597778" lon="8.449958006993167"><ele>22.0</ele><time>2026-04-18T12:07:07Z</time></trkpt><trkpt lat="39.014299397696874" lon="8.449981505155778"><ele>22.0</ele><time>2026-04-18T12:07:08Z</time></trkpt><trkpt lat="39.01419124562278" lon="8.450012196688933"><ele>22.0</ele><time>2026-04-18T12:07:09Z</time></trkpt><trkpt lat="39.014084209667885" lon="8.450063646747388"><ele>22.200000000000003</ele><time>2026-04-18T12:07:10Z</time></trkpt><trkpt lat="39.013975183561406" lon="8.450109790426191"><ele>22.4</ele><time>2026-04-18T12:07:11Z</time></trkpt><trkpt lat="39.01386387229759" lon="8.450136069684735"><ele>22.6</ele><time>2026-04-18T12:07:12Z</time></trkpt><trkpt lat="39.0137545220938" lon="8.4501482420415"><ele>22.799999999999997</ele><time>2026-04-18T12:07:13Z</time></trkpt><trkpt lat="39.01364556897761" lon="8.450124368503559"><ele>23.0</ele><time>2026-04-18T12:07:14Z</time></trkpt><trkpt lat="39.01354185413887" lon="8.450141453781367"><ele>23.0</ele><time>2026-04-18T12:07:15Z</time></trkpt><trkpt lat="39.01343492426673" lon="8.450134472698021"><ele>23.0</ele><time>2026-04-18T12:07:16Z</time></trkpt><trkpt lat="39.013326344453205" lon="8.450144498976506"><ele>23.0</ele><time>2026-04-18T12:07:17Z</time></trkpt><trkpt lat="39.0132118833015" lon="8.450148972585914"><ele>23.0</ele><time>2026-04-18T12:07:18Z</time></trkpt><trkpt lat="39.0130932279196" lon="8.450160428488687"><ele>23.0</ele><time>2026-04-18T12:07:19Z</time></trkpt><trkpt lat="39.012968376463135" lon="8.450168285016941"><ele>22.5</ele><time>2026-04-18T12:07:20Z</time></trkpt><trkpt lat="39.0128445066722" lon="8.450162346235222"><ele>22.0</ele><time>2026-04-18T12:07:21Z</time></trkpt><trkpt lat="39.01272666665731" lon="8.450114301822808"><ele>21.5</ele><time>2026-04-18T12:07:22Z</time></trkpt><trkpt lat="39.012614646666776" lon="8.450067221789938"><ele>21.0</ele><time>2026-04-18T12:07:23Z</time></trkpt><trkpt lat="39.012517319202864" lon="8.44998951110135"><ele>19.8</ele><time>2026-04-18T12:07:24Z</time></trkpt><trkpt lat="39.01242546156689" lon="8.449906449469054"><ele>18.6</ele><time>2026-04-18T12:07:25Z</time></trkpt><trkpt lat="39.012330267949146" lon="8.449847951756688"><ele>17.4</ele><time>2026-04-18T12:07:26Z</time></trkpt><trkpt lat="39.0122373897473" lon="8.449789824536843"><ele>16.2</ele><time>2026-04-18T12:07:27Z</time></trkpt><trkpt lat="39.01213207537275" lon="8.449760310466717"><ele>15.0</ele><time>2026-04-18T12:07:28Z</time></trkpt><trkpt lat="39.01202643784996" lon="8.449750701911109"><ele>15.0</ele><time>2026-04-18T12:07:29Z</time></trkpt><trkpt lat="39.01193173112538" lon="8.449700435785893"><ele>15.0</ele><time>2026-04-18T12:07:30Z</time></trkpt><trkpt lat="39.01182923494091" lon="8.449661196206574"><ele>15.0</ele><time>2026-04-18T12:07:31Z</time></trkpt><trkpt lat="39.01172130521023" lon="8.449646252762408"><ele>15.0</ele><time>2026-04-18T12:07:32Z</time></trkpt><trkpt lat="39.0116164909763" lon="8.449611286809311"><ele>15.0</ele><time>2026-04-18T12:07:33Z</time></trkpt><trkpt lat="39.01150784986104" lon="8.449583448366047"><ele>14.25</ele><time>2026-04-18T12:07:34Z</time></trkpt><trkpt lat="39.011395915937754" lon="8.449551207936224"><ele>13.5</ele><time>2026-04-18T12:07:35Z</time></trkpt><trkpt lat="39.011277875312935" lon="8.449524050421418"><ele>12.75</ele><time>2026-04-18T12:07:36Z</time></trkpt><trkpt lat="39.011166534730954" lon="8.449468426588297"><ele>12.0</ele><time>2026-04-18T12:07:37Z</time></trkpt><trkpt lat="39.01106466274702" lon="8.44940845859347"><ele>12.0</ele><time>2026-04-18T12:07:38Z</time></trkpt><trkpt lat="39.01097486543079" lon="8.449332782628643"><ele>12.0</ele><time>2026-04-18T12:07:39Z</time></trkpt><trkpt lat="39.01088415639808" lon="8.449259456107816"><ele>12.0</ele><time>2026-04-18T12:07:40Z</time></trkpt><trkpt lat="39.010784705963545" lon="8.449207266037973"><ele>12.0</ele><time>2026-04-18T12:07:41Z</time></trkpt><trkpt lat="39.010698891776336" lon="8.449136352810235"><ele>12.0</ele><time>2026-04-18T12:07:42Z</time></trkpt><trkpt lat="39.01062908447059" lon="8.449061596201226"><ele>12.0</ele><time>2026-04-18T12:07:43Z</time></trkpt><trkpt lat="39.01056510321584" lon="8.449009256164452"><ele>12.0</ele><time>2026-04-18T12:07:44Z</time></trkpt><trkpt lat="39.01050572153848" lon="8.448960678818846"><ele>12.0</ele><time>2026-04-18T12:07:45Z</time></trkpt><trkpt lat="39.010452384657086" lon="8.448917046403292"><ele>12.0</ele><time>2026-04-18T12:07:46Z</time></trkpt><trkpt lat="39.01034681742515" lon="8.448854348129155"><ele>12.0</ele><time>2026-04-18T12:07:48Z</time></trkpt><trkpt lat="39.0102937369248" lon="8.448804346420976"><ele>12.0</ele><time>2026-04-18T12:07:49Z</time></trkpt><trkpt lat="39.01022569915363" lon="8.448755763077013"><ele>12.0</ele><time>2026-04-18T12:07:50Z</time></trkpt><trkpt lat="39.010159010876635" lon="8.44868226007738"><ele>12.0</ele><time>2026-04-18T12:07:51Z</time></trkpt><trkpt lat="39.010078968776675" lon="8.448621027108347"><ele>12.0</ele><time>2026-04-18T12:07:52Z</time></trkpt><trkpt lat="39.00998948707339" lon="8.448573214296905"><ele>12.0</ele><time>2026-04-18T12:07:53Z</time></trkpt><trkpt lat="39.00990817719281" lon="8.448517712024755"><ele>12.0</ele><time>2026-04-18T12:07:54Z</time></trkpt><trkpt lat="39.00982386710066" lon="8.448489753651764"><ele>12.166666666666666</ele><time>2026-04-18T12:07:55Z</time></trkpt><trkpt lat="39.00974299176467" lon="8.448487672818413"><ele>12.333333333333332</ele><time>2026-04-18T12:07:56Z</time></trkpt><trkpt lat="39.0096653462624" lon="8.448496877417167"><ele>12.5</ele><time>2026-04-18T12:07:57Z</time></trkpt><trkpt lat="39.00958292700185" lon="8.448506988382409"><ele>12.666666666666666</ele><time>2026-04-18T12:07:58Z</time></trkpt><trkpt lat="39.009491228734625" lon="8.4485205140406"><ele>12.833333333333332</ele><time>2026-04-18T12:07:59Z</time></trkpt><trkpt lat="39.00939233793458" lon="8.448540357753968"><ele>13.0</ele><time>2026-04-18T12:08:00Z</time></trkpt><trkpt lat="39.00929156337441" lon="8.448565790340643"><ele>13.0</ele><time>2026-04-18T12:08:01Z</time></trkpt><trkpt lat="39.009195222387696" lon="8.448611687664242"><ele>13.0</ele><time>2026-04-18T12:08:02Z</time></trkpt><trkpt lat="39.009112860595856" lon="8.448670740381937"><ele>13.0</ele><time>2026-04-18T12:08:03Z</time></trkpt><trkpt lat="39.009048192343556" lon="8.448724083195726"><ele>13.0</ele><time>2026-04-18T12:08:04Z</time></trkpt><trkpt lat="39.00896355670959" lon="8.448806843750804"><ele>13.0</ele><time>2026-04-18T12:08:06Z</time></trkpt><trkpt lat="39.008876037266035" lon="8.448890160971175"><ele>12.999999999999998</ele><time>2026-04-18T12:08:08Z</time></trkpt><trkpt lat="39.00882478901485" lon="8.448951305547618"><ele>13.0</ele><time>2026-04-18T12:08:09Z</time></trkpt><trkpt lat="39.00876863142569" lon="8.449014948696734"><ele>13.0</ele><time>2026-04-18T12:08:10Z</time></trkpt><trkpt lat="39.008709780346535" lon="8.44907491076781"><ele>13.0</ele><time>2026-04-18T12:08:11Z</time></trkpt><trkpt lat="39.0086468482906" lon="8.449136688600795"><ele>12.999999999999998</ele><time>2026-04-18T12:08:12Z</time></trkpt><trkpt lat="39.00857584083004" lon="8.449197843835051"><ele>13.0</ele><time>2026-04-18T12:08:13Z</time></trkpt><trkpt lat="39.00850126845433" lon="8.449255061380367"><ele>13.0</ele><time>2026-04-18T12:08:14Z</time></trkpt><trkpt lat="39.008410195126196" lon="8.44927426923845"><ele>13.0</ele><time>2026-04-18T12:08:15Z</time></trkpt><trkpt lat="39.00832515806756" lon="8.449323221800302"><ele>13.0</ele><time>2026-04-18T12:08:16Z</time></trkpt><trkpt lat="39.008230106722024" lon="8.449339257220888"><ele>13.0</ele><time>2026-04-18T12:08:17Z</time></trkpt><trkpt lat="39.008137022786336" lon="8.449346014644851"><ele>13.0</ele><time>2026-04-18T12:08:18Z</time></trkpt><trkpt lat="39.0080444180502" lon="8.449372270663325"><ele>15.2</ele><time>2026-04-18T12:08:19Z</time></trkpt><trkpt lat="39.00794910516312" lon="8.449400054163906"><ele>17.4</ele><time>2026-04-18T12:08:20Z</time></trkpt><trkpt lat="39.00785372681661" lon="8.449428513084063"><ele>19.599999999999998</ele><time>2026-04-18T12:08:21Z</time></trkpt><trkpt lat="39.00775802196576" lon="8.449440678962976"><ele>21.8</ele><time>2026-04-18T12:08:22Z</time></trkpt><trkpt lat="39.0076672078585" lon="8.449441341737055"><ele>24.0</ele><time>2026-04-18T12:08:23Z</time></trkpt><trkpt lat="39.00757641091835" lon="8.44944384996645"><ele>25.4</ele><time>2026-04-18T12:08:24Z</time></trkpt><trkpt lat="39.007472691471676" lon="8.449450769643661"><ele>26.799999999999997</ele><time>2026-04-18T12:08:25Z</time></trkpt><trkpt lat="39.00737036180559" lon="8.449452722031168"><ele>28.200000000000003</ele><time>2026-04-18T12:08:26Z</time></trkpt><trkpt lat="39.00726041467958" lon="8.44947683304975"><ele>29.6</ele><time>2026-04-18T12:08:27Z</time></trkpt><trkpt lat="39.00714985832927" lon="8.449461847760329"><ele>31.0</ele><time>2026-04-18T12:08:28Z</time></trkpt><trkpt lat="39.007040317453004" lon="8.449456807063392"><ele>31.0</ele><time>2026-04-18T12:08:29Z</time></trkpt><trkpt lat="39.00692317915524" lon="8.449446976273965"><ele>31.0</ele><time>2026-04-18T12:08:30Z</time></trkpt><trkpt lat="39.006801367243376" lon="8.44945299312249"><ele>31.0</ele><time>2026-04-18T12:08:31Z</time></trkpt><trkpt lat="39.00667816632777" lon="8.449456673187736"><ele>31.0</ele><time>2026-04-18T12:08:32Z</time></trkpt><trkpt lat="39.00655513184622" lon="8.44948115556998"><ele>31.5</ele><time>2026-04-18T12:08:33Z</time></trkpt><trkpt lat="39.00643704708472" lon="8.449526521455871"><ele>32.0</ele><time>2026-04-18T12:08:34Z</time></trkpt><trkpt lat="39.006321276357255" lon="8.449571554005681"><ele>32.5</ele><time>2026-04-18T12:08:35Z</time></trkpt><trkpt lat="39.006213598776164" lon="8.449571237298686"><ele>33.0</ele><time>2026-04-18T12:08:36Z</time></trkpt><trkpt lat="39.00611613087742" lon="8.449537733832898"><ele>33.0</ele><time>2026-04-18T12:08:37Z</time></trkpt><trkpt lat="39.006008322475864" lon="8.449491524439953"><ele>33.0</ele><time>2026-04-18T12:08:38Z</time></trkpt><trkpt lat="39.005896768541845" lon="8.449451371883148"><ele>33.0</ele><time>2026-04-18T12:08:39Z</time></trkpt><trkpt lat="39.0057777281728" lon="8.449432593711737"><ele>33.0</ele><time>2026-04-18T12:08:40Z</time></trkpt><trkpt lat="39.00566452538914" lon="8.449397450759161"><ele>32.0</ele><time>2026-04-18T12:08:41Z</time></trkpt><trkpt lat="39.00555268754792" lon="8.449366320491238"><ele>30.999999999999996</ele><time>2026-04-18T12:08:42Z</time></trkpt><trkpt lat="39.00545328399449" lon="8.449320081677433"><ele>29.999999999999996</ele><time>2026-04-18T12:08:43Z</time></trkpt><trkpt lat="39.00535681586508" lon="8.449277875077296"><ele>29.0</ele><time>2026-04-18T12:08:44Z</time></trkpt><trkpt lat="39.00526294475892" lon="8.449223476500917"><ele>28.0</ele><time>2026-04-18T12:08:45Z</time></trkpt><trkpt lat="39.005182550525724" lon="8.449160965291558"><ele>28.000000000000004</ele><time>2026-04-18T12:08:46Z</time></trkpt><trkpt lat="39.00509849880257" lon="8.449128706231267"><ele>28.0</ele><time>2026-04-18T12:08:47Z</time></trkpt><trkpt lat="39.00502912911335" lon="8.449080620920828"><ele>28.0</ele><time>2026-04-18T12:08:48Z</time></trkpt><trkpt lat="39.00495255346283" lon="8.44905387013051"><ele>28.0</ele><time>2026-04-18T12:08:49Z</time></trkpt><trkpt lat="39.004873177648875" lon="8.449024542339298"><ele>28.000000000000004</ele><time>2026-04-18T12:08:50Z</time></trkpt><trkpt lat="39.00478372517714" lon="8.448989526859176"><ele>28.0</ele><time>2026-04-18T12:08:51Z</time></trkpt><trkpt lat="39.00470025536086" lon="8.448923489990884"><ele>26.599999999999998</ele><time>2026-04-18T12:08:52Z</time></trkpt><trkpt lat="39.00461374203282" lon="8.448874725839527"><ele>25.199999999999996</ele><time>2026-04-18T12:08:53Z</time></trkpt><trkpt lat="39.00452651278239" lon="8.448824585748179"><ele>23.8</ele><time>2026-04-18T12:08:54Z</time></trkpt><trkpt lat="39.00443489796782" lon="8.448795312649763"><ele>22.4</ele><time>2026-04-18T12:08:55Z</time></trkpt><trkpt lat="39.00435410671472" lon="8.448740964156304"><ele>21.0</ele><time>2026-04-18T12:08:56Z</time></trkpt><trkpt lat="39.004263803921184" lon="8.44873311193611"><ele>21.8</ele><time>2026-04-18T12:08:57Z</time></trkpt><trkpt lat="39.0041668395205" lon="8.44874534248192"><ele>22.6</ele><time>2026-04-18T12:08:58Z</time></trkpt><trkpt lat="39.00407775104028" lon="8.448787378242747"><ele>23.4</ele><time>2026-04-18T12:08:59Z</time></trkpt><trkpt lat="39.00400003276903" lon="8.448854831849912"><ele>24.2</ele><time>2026-04-18T12:09:00Z</time></trkpt><trkpt lat="39.003924294125405" lon="8.448929464342427"><ele>25.0</ele><time>2026-04-18T12:09:01Z</time></trkpt><trkpt lat="39.0038511138746" lon="8.448992521732954"><ele>25.000000000000004</ele><time>2026-04-18T12:09:02Z</time></trkpt><trkpt lat="39.003769192765766" lon="8.449039434654276"><ele>25.0</ele><time>2026-04-18T12:09:03Z</time></trkpt><trkpt lat="39.00368224874766" lon="8.449058841586101"><ele>25.0</ele><time>2026-04-18T12:09:04Z</time></trkpt><trkpt lat="39.003603351282244" lon="8.44906426259962"><ele>25.0</ele><time>2026-04-18T12:09:05Z</time></trkpt><trkpt lat="39.00352261627509" lon="8.449053679407575"><ele>25.000000000000004</ele><time>2026-04-18T12:09:06Z</time></trkpt><trkpt lat="39.003432966265116" lon="8.449041413076724"><ele>25.0</ele><time>2026-04-18T12:09:07Z</time></trkpt><trkpt lat="39.003332725723624" lon="8.449040986029301"><ele>24.5</ele><time>2026-04-18T12:09:08Z</time></trkpt><trkpt lat="39.00321540608779" lon="8.449040862589168"><ele>24.0</ele><time>2026-04-18T12:09:09Z</time></trkpt><trkpt lat="39.00308677880392" lon="8.449029413190127"><ele>23.5</ele><time>2026-04-18T12:09:10Z</time></trkpt><trkpt lat="39.00295497893316" lon="8.449013640917284"><ele>23.0</ele><time>2026-04-18T12:09:11Z</time></trkpt><trkpt lat="39.00282483306651" lon="8.448985072940653"><ele>23.0</ele><time>2026-04-18T12:09:12Z</time></trkpt><trkpt lat="39.00269928182102" lon="8.44894556378133"><ele>23.0</ele><time>2026-04-18T12:09:13Z</time></trkpt><trkpt lat="39.00257698924533" lon="8.448898901666125"><ele>23.0</ele><time>2026-04-18T12:09:14Z</time></trkpt><trkpt lat="39.00245674283591" lon="8.448862111691644"><ele>23.0</ele><time>2026-04-18T12:09:15Z</time></trkpt><trkpt lat="39.00233375962387" lon="8.44883118695348"><ele>21.25</ele><time>2026-04-18T12:09:16Z</time></trkpt><trkpt lat="39.00221220022524" lon="8.448814641874133"><ele>19.5</ele><time>2026-04-18T12:09:17Z</time></trkpt><trkpt lat="39.00209481871607" lon="8.448802726471547"><ele>17.75</ele><time>2026-04-18T12:09:18Z</time></trkpt><trkpt lat="39.00198120247136" lon="8.448797087595231"><ele>16.0</ele><time>2026-04-18T12:09:19Z</time></trkpt><trkpt lat="39.001872147285496" lon="8.448796114363104"><ele>16.0</ele><time>2026-04-18T12:09:20Z</time></trkpt><trkpt lat="39.001768596734095" lon="8.448796573928341"><ele>16.0</ele><time>2026-04-18T12:09:21Z</time></trkpt><trkpt lat="39.00166175879533" lon="8.44880090627324"><ele>16.0</ele><time>2026-04-18T12:09:22Z</time></trkpt><trkpt lat="39.0015572996395" lon="8.448788098533575"><ele>16.0</ele><time>2026-04-18T12:09:23Z</time></trkpt><trkpt lat="39.00145985803359" lon="8.448736553806969"><ele>16.0</ele><time>2026-04-18T12:09:24Z</time></trkpt><trkpt lat="39.00138043088735" lon="8.448659019064289"><ele>17.200000000000003</ele><time>2026-04-18T12:09:25Z</time></trkpt><trkpt lat="39.001301608206184" lon="8.448578502225635"><ele>18.400000000000002</ele><time>2026-04-18T12:09:26Z</time></trkpt><trkpt lat="39.00122620787238" lon="8.448499944363961"><ele>19.6</ele><time>2026-04-18T12:09:27Z</time></trkpt><trkpt lat="39.00116223886815" lon="8.448411670958095"><ele>20.8</ele><time>2026-04-18T12:09:28Z</time></trkpt><trkpt lat="39.00108620609145" lon="8.448365249259508"><ele>22.0</ele><time>2026-04-18T12:09:29Z</time></trkpt><trkpt lat="39.001024463119165" lon="8.448298186390018"><ele>22.0</ele><time>2026-04-18T12:09:30Z</time></trkpt><trkpt lat="39.000962475399824" lon="8.44823786213201"><ele>22.0</ele><time>2026-04-18T12:09:31Z</time></trkpt><trkpt lat="39.000908142098616" lon="8.448165972165604"><ele>22.0</ele><time>2026-04-18T12:09:32Z</time></trkpt><trkpt lat="39.00084993475162" lon="8.448111908253546"><ele>22.0</ele><time>2026-04-18T12:09:33Z</time></trkpt><trkpt lat="39.00078720139114" lon="8.448079098852194"><ele>22.0</ele><time>2026-04-18T12:09:34Z</time></trkpt><trkpt lat="39.000704513863774" lon="8.448002263052002"><ele>22.0</ele><time>2026-04-18T12:09:36Z</time></trkpt><trkpt lat="39.000620458354476" lon="8.447919754869638"><ele>21.0</ele><time>2026-04-18T12:09:38Z</time></trkpt><trkpt lat="39.00052809821209" lon="8.447833626291166"><ele>20.0</ele><time>2026-04-18T12:09:40Z</time></trkpt><trkpt lat="39.000441308203364" lon="8.447722995527805"><ele>19.0</ele><time>2026-04-18T12:09:42Z</time></trkpt><trkpt lat="39.00034860061559" lon="8.447633514808857"><ele>18.0</ele><time>2026-04-18T12:09:44Z</time></trkpt><trkpt lat="39.00026238121603" lon="8.447550507255844"><ele>18.0</ele><time>2026-04-18T12:09:46Z</time></trkpt><trkpt lat="39.000168725147205" lon="8.447474197594572"><ele>18.0</ele><time>2026-04-18T12:09:48Z</time></trkpt><trkpt lat="39.00007772217519" lon="8.447383920549738"><ele>18.0</ele><time>2026-04-18T12:09:50Z</time></trkpt><trkpt lat="38.99998137053598" lon="8.44730952087933"><ele>18.0</ele><time>2026-04-18T12:09:52Z</time></trkpt><trkpt lat="38.99988857317637" lon="8.44720697211401"><ele>18.000000000000004</ele><time>2026-04-18T12:09:54Z</time></trkpt><trkpt lat="38.99983637308073" lon="8.447161615659475"><ele>18.0</ele><time>2026-04-18T12:09:55Z</time></trkpt><trkpt lat="38.999794737185816" lon="8.447092450982316"><ele>18.0</ele><time>2026-04-18T12:09:56Z</time></trkpt><trkpt lat="38.99974131689522" lon="8.447036812231419"><ele>18.0</ele><time>2026-04-18T12:09:57Z</time></trkpt><trkpt lat="38.99968833605344" lon="8.446980853517339"><ele>18.0</ele><time>2026-04-18T12:09:58Z</time></trkpt><trkpt lat="38.99963149646678" lon="8.446918541516752"><ele>18.000000000000004</ele><time>2026-04-18T12:09:59Z</time></trkpt><trkpt lat="38.99957481796318" lon="8.446854631044946"><ele>18.0</ele><time>2026-04-18T12:10:00Z</time></trkpt><trkpt lat="38.999519480337575" lon="8.44679483928262"><ele>17.333333333333332</ele><time>2026-04-18T12:10:01Z</time></trkpt><trkpt lat="38.99946724338197" lon="8.446746274215993"><ele>16.666666666666668</ele><time>2026-04-18T12:10:02Z</time></trkpt><trkpt lat="38.99936575842161" lon="8.446673962203368"><ele>16.0</ele><time>2026-04-18T12:10:04Z</time></trkpt><trkpt lat="38.99929406901275" lon="8.446677919068998"><ele>15.333333333333334</ele><time>2026-04-18T12:10:05Z</time></trkpt><trkpt lat="38.999230315335396" lon="8.446674109223157"><ele>14.666666666666668</ele><time>2026-04-18T12:10:06Z</time></trkpt><trkpt lat="38.99916193740818" lon="8.446671842696729"><ele>14.0</ele><time>2026-04-18T12:10:07Z</time></trkpt><trkpt lat="38.999088519049835" lon="8.446669320115811"><ele>14.000000000000002</ele><time>2026-04-18T12:10:08Z</time></trkpt><trkpt lat="38.99901608268767" lon="8.446665993329741"><ele>14.0</ele><time>2026-04-18T12:10:09Z</time></trkpt><trkpt lat="38.99894079570457" lon="8.446660787721667"><ele>14.0</ele><time>2026-04-18T12:10:10Z</time></trkpt><trkpt lat="38.99886317542563" lon="8.44665256686559"><ele>14.0</ele><time>2026-04-18T12:10:11Z</time></trkpt><trkpt lat="38.99878406750984" lon="8.446644294283296"><ele>14.000000000000002</ele><time>2026-04-18T12:10:12Z</time></trkpt><trkpt lat="38.998703783673555" lon="8.446635898731818"><ele>14.0</ele><time>2026-04-18T12:10:13Z</time></trkpt><trkpt lat="38.998619664488956" lon="8.446627102103296"><ele>14.0</ele><time>2026-04-18T12:10:14Z</time></trkpt><trkpt lat="38.99853108837138" lon="8.446617839297643"><ele>13.999999999999998</ele><time>2026-04-18T12:10:15Z</time></trkpt><trkpt lat="38.99844144733901" lon="8.44660671047133"><ele>13.999999999999998</ele><time>2026-04-18T12:10:16Z</time></trkpt><trkpt lat="38.998351817843535" lon="8.446596627024835"><ele>14.0</ele><time>2026-04-18T12:10:17Z</time></trkpt><trkpt lat="38.99826041964025" lon="8.446585301714254"><ele>14.0</ele><time>2026-04-18T12:10:18Z</time></trkpt><trkpt lat="38.99816832489055" lon="8.446574304769861"><ele>12.666666666666668</ele><time>2026-04-18T12:10:19Z</time></trkpt><trkpt lat="38.99807728455205" lon="8.44656343373049"><ele>11.333333333333334</ele><time>2026-04-18T12:10:20Z</time></trkpt><trkpt lat="38.997988377410294" lon="8.446552817415565"><ele>10.0</ele><time>2026-04-18T12:10:21Z</time></trkpt><trkpt lat="38.99790140393425" lon="8.446542627949553"><ele>8.666666666666668</ele><time>2026-04-18T12:10:22Z</time></trkpt><trkpt lat="38.99781996535997" lon="8.446533909464518"><ele>7.333333333333334</ele><time>2026-04-18T12:10:23Z</time></trkpt><trkpt lat="38.997739682049954" lon="8.446525314657755"><ele>6.0</ele><time>2026-04-18T12:10:24Z</time></trkpt><trkpt lat="38.997661747968046" lon="8.446516971349434"><ele>6.0</ele><time>2026-04-18T12:10:25Z</time></trkpt><trkpt lat="38.99758702018025" lon="8.44651006791126"><ele>6.0</ele><time>2026-04-18T12:10:26Z</time></trkpt><trkpt lat="38.997517722945936" lon="8.446504445744877"><ele>6.0</ele><time>2026-04-18T12:10:27Z</time></trkpt><trkpt lat="38.99742231246806" lon="8.446497719558911"><ele>6.0</ele><time>2026-04-18T12:10:29Z</time></trkpt><trkpt lat="38.99735657176809" lon="8.446451451580822"><ele>6.0</ele><time>2026-04-18T12:10:32Z</time></trkpt><trkpt lat="38.99735205431067" lon="8.446298144925112"><ele>6.0</ele><time>2026-04-18T12:10:34Z</time></trkpt><trkpt lat="38.99732940849629" lon="8.446191741221645"><ele>5.0</ele><time>2026-04-18T12:10:35Z</time></trkpt><trkpt lat="38.99735327995564" lon="8.44607101502908"><ele>3.9999999999999996</ele><time>2026-04-18T12:10:36Z</time></trkpt><trkpt lat="38.99736258142733" lon="8.445946268481224"><ele>3.0</ele><time>2026-04-18T12:10:37Z</time></trkpt><trkpt lat="38.997383346970096" lon="8.445824158904275"><ele>2.0</ele><time>2026-04-18T12:10:38Z</time></trkpt><trkpt lat="38.99738801345441" lon="8.44569181859457"><ele>1.0</ele><time>2026-04-18T12:10:39Z</time></trkpt><trkpt lat="38.99737724602363" lon="8.445549013669849"><ele>1.75</ele><time>2026-04-18T12:10:40Z</time></trkpt><trkpt lat="38.99734128408068" lon="8.445401704652873"><ele>2.5</ele><time>2026-04-18T12:10:41Z</time></trkpt><trkpt lat="38.99728720509494" lon="8.445249404270864"><ele>3.25</ele><time>2026-04-18T12:10:42Z</time></trkpt><trkpt lat="38.99723832894629" lon="8.445083914257541"><ele>4.0</ele><time>2026-04-18T12:10:43Z</time></trkpt><trkpt lat="38.997177389552114" lon="8.444927106827588"><ele>4.0</ele><time>2026-04-18T12:10:44Z</time></trkpt><trkpt lat="38.99711280716166" lon="8.444763580387068"><ele>4.0</ele><time>2026-04-18T12:10:45Z</time></trkpt><trkpt lat="38.9970446828507" lon="8.444592656999975"><ele>4.0</ele><time>2026-04-18T12:10:46Z</time></trkpt><trkpt lat="38.99697502047859" lon="8.444416455333336"><ele>4.0</ele><time>2026-04-18T12:10:47Z</time></trkpt><trkpt lat="38.99690484657784" lon="8.444232349268667"><ele>5.666666666666666</ele><time>2026-04-18T12:10:48Z</time></trkpt><trkpt lat="38.99683231009268" lon="8.444042044741568"><ele>7.333333333333333</ele><time>2026-04-18T12:10:49Z</time></trkpt><trkpt lat="38.99675744957546" lon="8.443846949034754"><ele>9.0</ele><time>2026-04-18T12:10:50Z</time></trkpt><trkpt lat="38.9966831759255" lon="8.443658528822452"><ele>7.333333333333333</ele><time>2026-04-18T12:10:51Z</time></trkpt><trkpt lat="38.99660699384036" lon="8.443476259597645"><ele>5.666666666666666</ele><time>2026-04-18T12:10:52Z</time></trkpt><trkpt lat="38.99652600328693" lon="8.443300533928022"><ele>4.0</ele><time>2026-04-18T12:10:53Z</time></trkpt><trkpt lat="38.996454105675376" lon="8.44312065021369"><ele>5.333333333333333</ele><time>2026-04-18T12:10:54Z</time></trkpt><trkpt lat="38.99638313558788" lon="8.44294078983627"><ele>6.666666666666666</ele><time>2026-04-18T12:10:55Z</time></trkpt><trkpt lat="38.99631273157245" lon="8.442760246031696"><ele>8.0</ele><time>2026-04-18T12:10:56Z</time></trkpt><trkpt lat="38.99624246689866" lon="8.442577742024245"><ele>8.0</ele><time>2026-04-18T12:10:57Z</time></trkpt><trkpt lat="38.99617335145093" lon="8.442398222983861"><ele>8.0</ele><time>2026-04-18T12:10:58Z</time></trkpt><trkpt lat="38.996104889619566" lon="8.442220401591532"><ele>8.0</ele><time>2026-04-18T12:10:59Z</time></trkpt><trkpt lat="38.99603482808845" lon="8.442038425289136"><ele>8.666666666666666</ele><time>2026-04-18T12:11:00Z</time></trkpt><trkpt lat="38.99596433867049" lon="8.441855337467056"><ele>9.333333333333334</ele><time>2026-04-18T12:11:01Z</time></trkpt><trkpt lat="38.99588001834631" lon="8.441680500348374"><ele>10.0</ele><time>2026-04-18T12:11:02Z</time></trkpt><trkpt lat="38.99581560378051" lon="8.441494494927488"><ele>9.0</ele><time>2026-04-18T12:11:03Z</time></trkpt><trkpt lat="38.99578114466173" lon="8.441303549644722"><ele>8.0</ele><time>2026-04-18T12:11:04Z</time></trkpt><trkpt lat="38.995749696714505" lon="8.441119381319298"><ele>7.0</ele><time>2026-04-18T12:11:05Z</time></trkpt><trkpt lat="38.99570913419222" lon="8.44093266095073"><ele>7.0</ele><time>2026-04-18T12:11:06Z</time></trkpt><trkpt lat="38.99568768069791" lon="8.44074480407639"><ele>7.0</ele><time>2026-04-18T12:11:07Z</time></trkpt><trkpt lat="38.99567531892188" lon="8.440558192232857"><ele>7.0</ele><time>2026-04-18T12:11:08Z</time></trkpt><trkpt lat="38.9956800235223" lon="8.440373738285045"><ele>7.0</ele><time>2026-04-18T12:11:09Z</time></trkpt><trkpt lat="38.995708223427485" lon="8.440207378068694"><ele>7.25</ele><time>2026-04-18T12:11:10Z</time></trkpt><trkpt lat="38.99575450730741" lon="8.440041232784829"><ele>7.5</ele><time>2026-04-18T12:11:11Z</time></trkpt><trkpt lat="38.99580308156885" lon="8.439872219837932"><ele>7.75</ele><time>2026-04-18T12:11:12Z</time></trkpt><trkpt lat="38.99585722437748" lon="8.439696902702657"><ele>8.0</ele><time>2026-04-18T12:11:13Z</time></trkpt><trkpt lat="38.99591753532955" lon="8.439522066156284"><ele>9.5</ele><time>2026-04-18T12:11:14Z</time></trkpt><trkpt lat="38.99598788940415" lon="8.43936043103753"><ele>11.0</ele><time>2026-04-18T12:11:15Z</time></trkpt><trkpt lat="38.99605101916888" lon="8.43920448440484"><ele>12.5</ele><time>2026-04-18T12:11:16Z</time></trkpt><trkpt lat="38.99609041279396" lon="8.439035920163365"><ele>14.0</ele><time>2026-04-18T12:11:17Z</time></trkpt><trkpt lat="38.99611466160615" lon="8.438859910237587"><ele>14.25</ele><time>2026-04-18T12:11:18Z</time></trkpt><trkpt lat="38.99610895836651" lon="8.43867380429356"><ele>14.5</ele><time>2026-04-18T12:11:19Z</time></trkpt><trkpt lat="38.996083284086154" lon="8.43849019009803"><ele>14.75</ele><time>2026-04-18T12:11:20Z</time></trkpt><trkpt lat="38.996048671172545" lon="8.438306607215432"><ele>15.0</ele><time>2026-04-18T12:11:21Z</time></trkpt><trkpt lat="38.99601310970993" lon="8.43812435609086"><ele>14.6</ele><time>2026-04-18T12:11:22Z</time></trkpt><trkpt lat="38.995977666482226" lon="8.437955572147022"><ele>14.2</ele><time>2026-04-18T12:11:23Z</time></trkpt><trkpt lat="38.995947490710016" lon="8.437820652520632"><ele>13.8</ele><time>2026-04-18T12:11:24Z</time></trkpt><trkpt lat="38.995912430860194" lon="8.437721399141196"><ele>13.4</ele><time>2026-04-18T12:11:25Z</time></trkpt><trkpt lat="38.995860459423774" lon="8.43764759942243"><ele>13.0</ele><time>2026-04-18T12:11:26Z</time></trkpt><trkpt lat="38.99579008909591" lon="8.437585708442997"><ele>12.4</ele><time>2026-04-18T12:11:27Z</time></trkpt><trkpt lat="38.99570354537939" lon="8.437537727759459"><ele>11.8</ele><time>2026-04-18T12:11:28Z</time></trkpt><trkpt lat="38.99560789728592" lon="8.437512244830678"><ele>11.2</ele><time>2026-04-18T12:11:29Z</time></trkpt><trkpt lat="38.99552273876125" lon="8.437463554855798"><ele>10.6</ele><time>2026-04-18T12:11:30Z</time></trkpt><trkpt lat="38.99541789769435" lon="8.43744937413556"><ele>10.0</ele><time>2026-04-18T12:11:31Z</time></trkpt><trkpt lat="38.99531445411652" lon="8.437415389816659"><ele>10.0</ele><time>2026-04-18T12:11:32Z</time></trkpt><trkpt lat="38.995207346055416" lon="8.437358504023267"><ele>10.0</ele><time>2026-04-18T12:11:33Z</time></trkpt><trkpt lat="38.99509170791126" lon="8.437320757135623"><ele>10.0</ele><time>2026-04-18T12:11:34Z</time></trkpt><trkpt lat="38.99496770297955" lon="8.437301224017446"><ele>10.0</ele><time>2026-04-18T12:11:35Z</time></trkpt><trkpt lat="38.99484602704306" lon="8.437252675924876"><ele>10.0</ele><time>2026-04-18T12:11:36Z</time></trkpt><trkpt lat="38.99471896911255" lon="8.43721852464593"><ele>10.0</ele><time>2026-04-18T12:11:37Z</time></trkpt><trkpt lat="38.994601884398485" lon="8.43715686296702"><ele>10.0</ele><time>2026-04-18T12:11:38Z</time></trkpt><trkpt lat="38.994496301388196" lon="8.437104413623157"><ele>10.0</ele><time>2026-04-18T12:11:39Z</time></trkpt><trkpt lat="38.99442203945254" lon="8.437033873087648"><ele>10.333333333333334</ele><time>2026-04-18T12:11:40Z</time></trkpt><trkpt lat="38.99436703908045" lon="8.436940739281898"><ele>10.666666666666668</ele><time>2026-04-18T12:11:41Z</time></trkpt><trkpt lat="38.994328635987685" lon="8.43684739552145"><ele>11.0</ele><time>2026-04-18T12:11:42Z</time></trkpt><trkpt lat="38.99430456043721" lon="8.436755424965964"><ele>11.333333333333334</ele><time>2026-04-18T12:11:43Z</time></trkpt><trkpt lat="38.99428853830708" lon="8.436666184594161"><ele>11.666666666666666</ele><time>2026-04-18T12:11:44Z</time></trkpt><trkpt lat="38.99427122595659" lon="8.436567763561735"><ele>12.0</ele><time>2026-04-18T12:11:45Z</time></trkpt><trkpt lat="38.994257385483344" lon="8.436455103549044"><ele>12.0</ele><time>2026-04-18T12:11:46Z</time></trkpt><trkpt lat="38.9942516147962" lon="8.436330009431012"><ele>12.0</ele><time>2026-04-18T12:11:47Z</time></trkpt><trkpt lat="38.99425176430858" lon="8.436189076577778"><ele>12.0</ele><time>2026-04-18T12:11:48Z</time></trkpt><trkpt lat="38.99425201148503" lon="8.436034287441725"><ele>12.0</ele><time>2026-04-18T12:11:49Z</time></trkpt><trkpt lat="38.99424813754391" lon="8.435877177303926"><ele>12.0</ele><time>2026-04-18T12:11:50Z</time></trkpt><trkpt lat="38.99424415287656" lon="8.435715576903263"><ele>12.5</ele><time>2026-04-18T12:11:51Z</time></trkpt><trkpt lat="38.99422382798514" lon="8.435548821849679"><ele>13.0</ele><time>2026-04-18T12:11:52Z</time></trkpt><trkpt lat="38.99423084072162" lon="8.435377807019032"><ele>13.5</ele><time>2026-04-18T12:11:53Z</time></trkpt><trkpt lat="38.99422723851652" lon="8.435207089865548"><ele>14.0</ele><time>2026-04-18T12:11:54Z</time></trkpt><trkpt lat="38.994222019779436" lon="8.435043205121698"><ele>15.5</ele><time>2026-04-18T12:11:55Z</time></trkpt><trkpt lat="38.994240615635015" lon="8.434884697225211"><ele>17.0</ele><time>2026-04-18T12:11:56Z</time></trkpt><trkpt lat="38.994261520649125" lon="8.434734524969222"><ele>18.5</ele><time>2026-04-18T12:11:57Z</time></trkpt><trkpt lat="38.99432104605038" lon="8.434612202912279"><ele>20.0</ele><time>2026-04-18T12:11:58Z</time></trkpt><trkpt lat="38.99437298367716" lon="8.434473727269108"><ele>21.5</ele><time>2026-04-18T12:11:59Z</time></trkpt><trkpt lat="38.994413706535674" lon="8.434326840548227"><ele>23.0</ele><time>2026-04-18T12:12:00Z</time></trkpt><trkpt lat="38.994410954132896" lon="8.43417544464211"><ele>24.5</ele><time>2026-04-18T12:12:01Z</time></trkpt><trkpt lat="38.99438464745683" lon="8.434037211221128"><ele>26.0</ele><time>2026-04-18T12:12:02Z</time></trkpt><trkpt lat="38.99432371297825" lon="8.433908640165809"><ele>25.75</ele><time>2026-04-18T12:12:03Z</time></trkpt><trkpt lat="38.99425829936453" lon="8.43378230284054"><ele>25.5</ele><time>2026-04-18T12:12:04Z</time></trkpt><trkpt lat="38.99421947873983" lon="8.43363848463188"><ele>25.25</ele><time>2026-04-18T12:12:05Z</time></trkpt><trkpt lat="38.9941734423583" lon="8.433492991486327"><ele>25.0</ele><time>2026-04-18T12:12:06Z</time></trkpt><trkpt lat="38.994128167249656" lon="8.433339138147636"><ele>25.0</ele><time>2026-04-18T12:12:07Z</time></trkpt><trkpt lat="38.994075070932915" lon="8.433189748305246"><ele>25.0</ele><time>2026-04-18T12:12:08Z</time></trkpt><trkpt lat="38.994053426283514" lon="8.433037508665835"><ele>25.0</ele><time>2026-04-18T12:12:09Z</time></trkpt><trkpt lat="38.99404736429681" lon="8.432890350954365"><ele>25.0</ele><time>2026-04-18T12:12:10Z</time></trkpt><trkpt lat="38.99405945559851" lon="8.432739942883721"><ele>23.5</ele><time>2026-04-18T12:12:11Z</time></trkpt><trkpt lat="38.99407667789014" lon="8.432580463381537"><ele>22.0</ele><time>2026-04-18T12:12:12Z</time></trkpt><trkpt lat="38.99407928392917" lon="8.432416482995759"><ele>20.5</ele><time>2026-04-18T12:12:13Z</time></trkpt><trkpt lat="38.994075920092236" lon="8.432258754067922"><ele>19.0</ele><time>2026-04-18T12:12:14Z</time></trkpt><trkpt lat="38.99404122332761" lon="8.432112188695648"><ele>18.25</ele><time>2026-04-18T12:12:15Z</time></trkpt><trkpt lat="38.9939839224132" lon="8.431980108059784"><ele>17.5</ele><time>2026-04-18T12:12:16Z</time></trkpt><trkpt lat="38.993941377573506" lon="8.43183245917994"><ele>16.75</ele><time>2026-04-18T12:12:17Z</time></trkpt><trkpt lat="38.99388469476708" lon="8.431688382378086"><ele>16.0</ele><time>2026-04-18T12:12:18Z</time></trkpt><trkpt lat="38.993822109345295" lon="8.431536810261136"><ele>16.0</ele><time>2026-04-18T12:12:19Z</time></trkpt><trkpt lat="38.99375820512451" lon="8.43138199792958"><ele>16.0</ele><time>2026-04-18T12:12:20Z</time></trkpt><trkpt lat="38.99369511719134" lon="8.431217537590591"><ele>16.0</ele><time>2026-04-18T12:12:21Z</time></trkpt><trkpt lat="38.99363792818929" lon="8.431049329336494"><ele>16.0</ele><time>2026-04-18T12:12:22Z</time></trkpt><trkpt lat="38.99358445840118" lon="8.43087767138278"><ele>16.25</ele><time>2026-04-18T12:12:23Z</time></trkpt><trkpt lat="38.993536261423785" lon="8.430705785592714"><ele>16.5</ele><time>2026-04-18T12:12:24Z</time></trkpt><trkpt lat="38.99348672825108" lon="8.43053163111165"><ele>16.75</ele><time>2026-04-18T12:12:25Z</time></trkpt><trkpt lat="38.99343670541465" lon="8.430360509429502"><ele>17.0</ele><time>2026-04-18T12:12:26Z</time></trkpt><trkpt lat="38.99338736984043" lon="8.430191738503542"><ele>17.0</ele><time>2026-04-18T12:12:27Z</time></trkpt><trkpt lat="38.993341237114194" lon="8.430026257085117"><ele>17.0</ele><time>2026-04-18T12:12:28Z</time></trkpt><trkpt lat="38.99329613542352" lon="8.429862875331493"><ele>17.0</ele><time>2026-04-18T12:12:29Z</time></trkpt><trkpt lat="38.99325099491855" lon="8.429704726101354"><ele>17.0</ele><time>2026-04-18T12:12:30Z</time></trkpt><trkpt lat="38.993208575785154" lon="8.429558102544412"><ele>17.2</ele><time>2026-04-18T12:12:31Z</time></trkpt><trkpt lat="38.9931714298738" lon="8.429427926301475"><ele>17.4</ele><time>2026-04-18T12:12:32Z</time></trkpt><trkpt lat="38.99314056805445" lon="8.429316610341866"><ele>17.6</ele><time>2026-04-18T12:12:33Z</time></trkpt><trkpt lat="38.9931094654664" lon="8.429231823302423"><ele>17.8</ele><time>2026-04-18T12:12:34Z</time></trkpt><trkpt lat="38.993092235514986" lon="8.429149012915884"><ele>18.0</ele><time>2026-04-18T12:12:36Z</time></trkpt><trkpt lat="38.99290763033928" lon="8.429218509019343"><ele>18.0</ele><time>2026-04-18T12:12:45Z</time></trkpt><trkpt lat="38.992838000349" lon="8.429311558543596"><ele>18.0</ele><time>2026-04-18T12:12:46Z</time></trkpt><trkpt lat="38.99275636132702" lon="8.429392464337715"><ele>18.0</ele><time>2026-04-18T12:12:47Z</time></trkpt><trkpt lat="38.99266795696555" lon="8.42947281308603"><ele>18.0</ele><time>2026-04-18T12:12:48Z</time></trkpt><trkpt lat="38.99257227398283" lon="8.429564207323565"><ele>18.0</ele><time>2026-04-18T12:12:49Z</time></trkpt><trkpt lat="38.992476038002984" lon="8.429655883325655"><ele>18.5</ele><time>2026-04-18T12:12:50Z</time></trkpt><trkpt lat="38.99237368813757" lon="8.429755392887373"><ele>19.0</ele><time>2026-04-18T12:12:51Z</time></trkpt><trkpt lat="38.99226542165537" lon="8.429858706358251"><ele>19.5</ele><time>2026-04-18T12:12:52Z</time></trkpt><trkpt lat="38.99215245362073" lon="8.429969002006263"><ele>20.0</ele><time>2026-04-18T12:12:53Z</time></trkpt><trkpt lat="38.99204118214253" lon="8.430076315793675"><ele>20.0</ele><time>2026-04-18T12:12:54Z</time></trkpt><trkpt lat="38.991929341596524" lon="8.430184571867938"><ele>20.0</ele><time>2026-04-18T12:12:55Z</time></trkpt><trkpt lat="38.991816337446586" lon="8.430298375793502"><ele>20.0</ele><time>2026-04-18T12:12:56Z</time></trkpt><trkpt lat="38.99170080439055" lon="8.430410325231557"><ele>20.0</ele><time>2026-04-18T12:12:57Z</time></trkpt><trkpt lat="38.99158302795935" lon="8.430523191498294"><ele>20.5</ele><time>2026-04-18T12:12:58Z</time></trkpt><trkpt lat="38.99146679805851" lon="8.430639227775218"><ele>21.0</ele><time>2026-04-18T12:12:59Z</time></trkpt><trkpt lat="38.99135163690655" lon="8.430756904353855"><ele>21.5</ele><time>2026-04-18T12:13:00Z</time></trkpt><trkpt lat="38.99123243011304" lon="8.430866715202617"><ele>22.0</ele><time>2026-04-18T12:13:01Z</time></trkpt><trkpt lat="38.99110508552019" lon="8.430959248122937"><ele>22.0</ele><time>2026-04-18T12:13:02Z</time></trkpt><trkpt lat="38.99097086094193" lon="8.431033199055042"><ele>22.0</ele><time>2026-04-18T12:13:03Z</time></trkpt><trkpt lat="38.99083345613161" lon="8.43110326281071"><ele>22.0</ele><time>2026-04-18T12:13:04Z</time></trkpt><trkpt lat="38.99069480754179" lon="8.431175203620572"><ele>22.0</ele><time>2026-04-18T12:13:05Z</time></trkpt><trkpt lat="38.99055683494514" lon="8.43125155843547"><ele>23.0</ele><time>2026-04-18T12:13:06Z</time></trkpt><trkpt lat="38.99042020109749" lon="8.431330355526626"><ele>24.0</ele><time>2026-04-18T12:13:07Z</time></trkpt><trkpt lat="38.99027899798281" lon="8.431408005413733"><ele>25.0</ele><time>2026-04-18T12:13:08Z</time></trkpt><trkpt lat="38.990146649171734" lon="8.431473349299543"><ele>26.0</ele><time>2026-04-18T12:13:09Z</time></trkpt><trkpt lat="38.99002116531451" lon="8.431541988952244"><ele>26.333333333333332</ele><time>2026-04-18T12:13:10Z</time></trkpt><trkpt lat="38.989884667493634" lon="8.431611527591965"><ele>26.666666666666664</ele><time>2026-04-18T12:13:11Z</time></trkpt><trkpt lat="38.989744383583265" lon="8.431683642728014"><ele>27.0</ele><time>2026-04-18T12:13:12Z</time></trkpt><trkpt lat="38.98960378347629" lon="8.431757811055219"><ele>27.0</ele><time>2026-04-18T12:13:13Z</time></trkpt><trkpt lat="38.98946239694602" lon="8.43183216866627"><ele>27.0</ele><time>2026-04-18T12:13:14Z</time></trkpt><trkpt lat="38.989322489845" lon="8.431904891463201"><ele>27.0</ele><time>2026-04-18T12:13:15Z</time></trkpt><trkpt lat="38.98918391382993" lon="8.431985279219978"><ele>27.5</ele><time>2026-04-18T12:13:16Z</time></trkpt><trkpt lat="38.989045833584925" lon="8.432063647329405"><ele>28.0</ele><time>2026-04-18T12:13:17Z</time></trkpt><trkpt lat="38.98891231152386" lon="8.432133498000821"><ele>28.5</ele><time>2026-04-18T12:13:18Z</time></trkpt><trkpt lat="38.98878149776664" lon="8.43220257781544"><ele>29.0</ele><time>2026-04-18T12:13:19Z</time></trkpt><trkpt lat="38.98865172563198" lon="8.432269949375483"><ele>29.5</ele><time>2026-04-18T12:13:20Z</time></trkpt><trkpt lat="38.98852472437471" lon="8.432342622033945"><ele>30.0</ele><time>2026-04-18T12:13:21Z</time></trkpt><trkpt lat="38.98840190472317" lon="8.432427970286993"><ele>30.5</ele><time>2026-04-18T12:13:22Z</time></trkpt><trkpt lat="38.98828530527419" lon="8.43252768755135"><ele>31.0</ele><time>2026-04-18T12:13:23Z</time></trkpt><trkpt lat="38.98817855096324" lon="8.432648815800409"><ele>31.0</ele><time>2026-04-18T12:13:24Z</time></trkpt><trkpt lat="38.98808488180265" lon="8.432793398721595"><ele>31.0</ele><time>2026-04-18T12:13:25Z</time></trkpt><trkpt lat="38.9879966514468" lon="8.432952746869063"><ele>31.0</ele><time>2026-04-18T12:13:26Z</time></trkpt><trkpt lat="38.98791088969599" lon="8.43311972937992"><ele>31.666666666666668</ele><time>2026-04-18T12:13:27Z</time></trkpt><trkpt lat="38.98782065357355" lon="8.43329138372618"><ele>32.333333333333336</ele><time>2026-04-18T12:13:28Z</time></trkpt><trkpt lat="38.987729381476065" lon="8.433465783314784"><ele>33.0</ele><time>2026-04-18T12:13:29Z</time></trkpt><trkpt lat="38.987635912017474" lon="8.433639333687083"><ele>35.0</ele><time>2026-04-18T12:13:30Z</time></trkpt><trkpt lat="38.98754094561847" lon="8.433812932388097"><ele>37.0</ele><time>2026-04-18T12:13:31Z</time></trkpt><trkpt lat="38.98744458480314" lon="8.433989254609285"><ele>39.0</ele><time>2026-04-18T12:13:32Z</time></trkpt><trkpt lat="38.98735362632472" lon="8.43416215387151"><ele>35.333333333333336</ele><time>2026-04-18T12:13:33Z</time></trkpt><trkpt lat="38.987264746686016" lon="8.434336384403974"><ele>31.666666666666668</ele><time>2026-04-18T12:13:34Z</time></trkpt><trkpt lat="38.987171744575996" lon="8.434513905248398"><ele>28.0</ele><time>2026-04-18T12:13:35Z</time></trkpt><trkpt lat="38.98707592562808" lon="8.434694268298095"><ele>28.0</ele><time>2026-04-18T12:13:36Z</time></trkpt><trkpt lat="38.98697857313955" lon="8.43487962487146"><ele>28.0</ele><time>2026-04-18T12:13:37Z</time></trkpt><trkpt lat="38.9868830083393" lon="8.435061438724707"><ele>28.0</ele><time>2026-04-18T12:13:38Z</time></trkpt><trkpt lat="38.98678304211535" lon="8.435251957098712"><ele>28.0</ele><time>2026-04-18T12:13:39Z</time></trkpt><trkpt lat="38.98668485831937" lon="8.435439900477055"><ele>28.0</ele><time>2026-04-18T12:13:40Z</time></trkpt><trkpt lat="38.98658805789703" lon="8.435626835596027"><ele>28.0</ele><time>2026-04-18T12:13:41Z</time></trkpt><trkpt lat="38.986488656481505" lon="8.435811985174798"><ele>26.333333333333336</ele><time>2026-04-18T12:13:42Z</time></trkpt><trkpt lat="38.986386756398474" lon="8.43599440613775"><ele>24.666666666666668</ele><time>2026-04-18T12:13:43Z</time></trkpt><trkpt lat="38.98628408442535" lon="8.43617373866077"><ele>23.0</ele><time>2026-04-18T12:13:44Z</time></trkpt><trkpt lat="38.98618230256172" lon="8.4363518179407"><ele>23.0</ele><time>2026-04-18T12:13:45Z</time></trkpt><trkpt lat="38.986084750865516" lon="8.436532620406325"><ele>23.0</ele><time>2026-04-18T12:13:46Z</time></trkpt><trkpt lat="38.98599106428826" lon="8.43671573549329"><ele>23.0</ele><time>2026-04-18T12:13:47Z</time></trkpt><trkpt lat="38.98589377036335" lon="8.436895733252602"><ele>20.666666666666668</ele><time>2026-04-18T12:13:48Z</time></trkpt><trkpt lat="38.9857937376679" lon="8.437070564604554"><ele>18.333333333333332</ele><time>2026-04-18T12:13:49Z</time></trkpt><trkpt lat="38.98569118843833" lon="8.437235345453022"><ele>16.0</ele><time>2026-04-18T12:13:50Z</time></trkpt><trkpt lat="38.985578155024534" lon="8.437382834642225"><ele>16.0</ele><time>2026-04-18T12:13:51Z</time></trkpt><trkpt lat="38.98546839207207" lon="8.437506761050338"><ele>16.0</ele><time>2026-04-18T12:13:52Z</time></trkpt><trkpt lat="38.98535715468404" lon="8.437606584465598"><ele>16.0</ele><time>2026-04-18T12:13:53Z</time></trkpt><trkpt lat="38.985253068187916" lon="8.437677287854704"><ele>16.0</ele><time>2026-04-18T12:13:54Z</time></trkpt><trkpt lat="38.98515903681499" lon="8.437703670994052"><ele>16.0</ele><time>2026-04-18T12:13:55Z</time></trkpt><trkpt lat="38.98506830386456" lon="8.437722159198325"><ele>16.0</ele><time>2026-04-18T12:13:56Z</time></trkpt><trkpt lat="38.984979289554474" lon="8.437737248529665"><ele>16.0</ele><time>2026-04-18T12:13:57Z</time></trkpt><trkpt lat="38.98488243834185" lon="8.437740937322518"><ele>16.0</ele><time>2026-04-18T12:13:58Z</time></trkpt><trkpt lat="38.98477572483843" lon="8.437747468994482"><ele>16.0</ele><time>2026-04-18T12:13:59Z</time></trkpt><trkpt lat="38.98466541225948" lon="8.437753529680723"><ele>16.75</ele><time>2026-04-18T12:14:00Z</time></trkpt><trkpt lat="38.98454823662425" lon="8.437754638278982"><ele>17.5</ele><time>2026-04-18T12:14:01Z</time></trkpt><trkpt lat="38.984428934442505" lon="8.437758598858107"><ele>18.25</ele><time>2026-04-18T12:14:02Z</time></trkpt><trkpt lat="38.984306069752414" lon="8.437769574251973"><ele>19.0</ele><time>2026-04-18T12:14:03Z</time></trkpt><trkpt lat="38.98417620585645" lon="8.437777093646796"><ele>21.5</ele><time>2026-04-18T12:14:04Z</time></trkpt><trkpt lat="38.98404219419059" lon="8.43778285833667"><ele>24.0</ele><time>2026-04-18T12:14:05Z</time></trkpt><trkpt lat="38.983903672388465" lon="8.43778680755488"><ele>26.5</ele><time>2026-04-18T12:14:06Z</time></trkpt><trkpt lat="38.98376343256903" lon="8.437791271728578"><ele>29.0</ele><time>2026-04-18T12:14:07Z</time></trkpt><trkpt lat="38.98362739333822" lon="8.437795066122035"><ele>29.0</ele><time>2026-04-18T12:14:08Z</time></trkpt><trkpt lat="38.98348225345857" lon="8.437803591565258"><ele>29.0</ele><time>2026-04-18T12:14:09Z</time></trkpt><trkpt lat="38.983332264502685" lon="8.437813591412281"><ele>29.0</ele><time>2026-04-18T12:14:10Z</time></trkpt><trkpt lat="38.98318330363382" lon="8.437823272696242"><ele>29.0</ele><time>2026-04-18T12:14:11Z</time></trkpt><trkpt lat="38.983039837818154" lon="8.437829952189054"><ele>32.0</ele><time>2026-04-18T12:14:12Z</time></trkpt><trkpt lat="38.98289851369164" lon="8.43783250434628"><ele>35.0</ele><time>2026-04-18T12:14:13Z</time></trkpt><trkpt lat="38.982762193860204" lon="8.437838594203596"><ele>38.0</ele><time>2026-04-18T12:14:14Z</time></trkpt><trkpt lat="38.98262529117931" lon="8.437849311424968"><ele>41.0</ele><time>2026-04-18T12:14:15Z</time></trkpt><trkpt lat="38.98248923088208" lon="8.437860572681265"><ele>43.25</ele><time>2026-04-18T12:14:16Z</time></trkpt><trkpt lat="38.98235008411842" lon="8.437868094475816"><ele>45.5</ele><time>2026-04-18T12:14:17Z</time></trkpt><trkpt lat="38.98221031074546" lon="8.437875610129584"><ele>47.75</ele><time>2026-04-18T12:14:18Z</time></trkpt><trkpt lat="38.98207352889934" lon="8.437883151643424"><ele>50.0</ele><time>2026-04-18T12:14:19Z</time></trkpt><trkpt lat="38.981946237204795" lon="8.437890567905258"><ele>50.0</ele><time>2026-04-18T12:14:20Z</time></trkpt><trkpt lat="38.98182408076472" lon="8.437898077277715"><ele>50.0</ele><time>2026-04-18T12:14:21Z</time></trkpt><trkpt lat="38.981706129871604" lon="8.437909661941317"><ele>50.0</ele><time>2026-04-18T12:14:22Z</time></trkpt><trkpt lat="38.981592418237724" lon="8.437916972200492"><ele>50.0</ele><time>2026-04-18T12:14:23Z</time></trkpt><trkpt lat="38.981485201119625" lon="8.43792396840021"><ele>49.25</ele><time>2026-04-18T12:14:24Z</time></trkpt><trkpt lat="38.98137136859811" lon="8.437931545291045"><ele>48.5</ele><time>2026-04-18T12:14:25Z</time></trkpt><trkpt lat="38.98125545895824" lon="8.437943904572936"><ele>47.75</ele><time>2026-04-18T12:14:26Z</time></trkpt><trkpt lat="38.98113909357659" lon="8.43796219259788"><ele>47.0</ele><time>2026-04-18T12:14:27Z</time></trkpt><trkpt lat="38.981024053891105" lon="8.43798344502349"><ele>47.0</ele><time>2026-04-18T12:14:28Z</time></trkpt><trkpt lat="38.98090681217229" lon="8.438012735077272"><ele>47.0</ele><time>2026-04-18T12:14:29Z</time></trkpt><trkpt lat="38.98078829793192" lon="8.438045577268625"><ele>47.0</ele><time>2026-04-18T12:14:30Z</time></trkpt><trkpt lat="38.980669024247334" lon="8.438078207935229"><ele>47.0</ele><time>2026-04-18T12:14:31Z</time></trkpt><trkpt lat="38.98054041434034" lon="8.438118578192652"><ele>49.25</ele><time>2026-04-18T12:14:32Z</time></trkpt><trkpt lat="38.9804107657851" lon="8.43816124967885"><ele>51.5</ele><time>2026-04-18T12:14:33Z</time></trkpt><trkpt lat="38.98027759550246" lon="8.438194832716702"><ele>53.75</ele><time>2026-04-18T12:14:34Z</time></trkpt><trkpt lat="38.98014428958115" lon="8.438222585255287"><ele>56.0</ele><time>2026-04-18T12:14:35Z</time></trkpt><trkpt lat="38.98002040044206" lon="8.438248131441425"><ele>56.5</ele><time>2026-04-18T12:14:36Z</time></trkpt><trkpt lat="38.97989624405521" lon="8.438261904709215"><ele>57.0</ele><time>2026-04-18T12:14:37Z</time></trkpt><trkpt lat="38.97976863189379" lon="8.438269595265396"><ele>57.5</ele><time>2026-04-18T12:14:38Z</time></trkpt><trkpt lat="38.97963826618184" lon="8.438236070870982"><ele>58.0</ele><time>2026-04-18T12:14:39Z</time></trkpt><trkpt lat="38.97951156973843" lon="8.438193503980722"><ele>58.0</ele><time>2026-04-18T12:14:40Z</time></trkpt><trkpt lat="38.97938557912449" lon="8.438128433935123"><ele>58.0</ele><time>2026-04-18T12:14:41Z</time></trkpt><trkpt lat="38.97925709858834" lon="8.438066686839674"><ele>58.0</ele><time>2026-04-18T12:14:42Z</time></trkpt><trkpt lat="38.979135996721794" lon="8.43798593863685"><ele>58.0</ele><time>2026-04-18T12:14:43Z</time></trkpt><trkpt lat="38.97900819151522" lon="8.437919633304736"><ele>60.75</ele><time>2026-04-18T12:14:44Z</time></trkpt><trkpt lat="38.97889182904784" lon="8.437818962764139"><ele>63.5</ele><time>2026-04-18T12:14:45Z</time></trkpt><trkpt lat="38.978767031391584" lon="8.437735369530879"><ele>66.25</ele><time>2026-04-18T12:14:46Z</time></trkpt><trkpt lat="38.97867382646408" lon="8.437672032271362"><ele>69.0</ele><time>2026-04-18T12:14:47Z</time></trkpt><trkpt lat="38.978562985654925" lon="8.437596647391318"><ele>69.0</ele><time>2026-04-18T12:14:48Z</time></trkpt><trkpt lat="38.978450309234546" lon="8.437521507222677"><ele>69.0</ele><time>2026-04-18T12:14:49Z</time></trkpt><trkpt lat="38.9783293917087" lon="8.437468666457427"><ele>69.0</ele><time>2026-04-18T12:14:50Z</time></trkpt><trkpt lat="38.97821292178337" lon="8.43741135189803"><ele>69.0</ele><time>2026-04-18T12:14:51Z</time></trkpt><trkpt lat="38.978090021479815" lon="8.43739333449063"><ele>66.25</ele><time>2026-04-18T12:14:52Z</time></trkpt><trkpt lat="38.9779720193547" lon="8.437423407299983"><ele>63.5</ele><time>2026-04-18T12:14:53Z</time></trkpt><trkpt lat="38.97785846936487" lon="8.437493610900523"><ele>60.75</ele><time>2026-04-18T12:14:54Z</time></trkpt><trkpt lat="38.977762463558015" lon="8.437602147539815"><ele>58.0</ele><time>2026-04-18T12:14:55Z</time></trkpt><trkpt lat="38.9776879038401" lon="8.437738400446522"><ele>58.0</ele><time>2026-04-18T12:14:56Z</time></trkpt><trkpt lat="38.97764899582351" lon="8.437898572759682"><ele>58.0</ele><time>2026-04-18T12:14:57Z</time></trkpt><trkpt lat="38.97759065548865" lon="8.438055147313806"><ele>58.0</ele><time>2026-04-18T12:14:58Z</time></trkpt><trkpt lat="38.97754833464571" lon="8.438220054205809"><ele>58.0</ele><time>2026-04-18T12:14:59Z</time></trkpt><trkpt lat="38.97749958682757" lon="8.438385014823337"><ele>57.0</ele><time>2026-04-18T12:15:00Z</time></trkpt><trkpt lat="38.977449495414454" lon="8.43854642308432"><ele>56.0</ele><time>2026-04-18T12:15:01Z</time></trkpt><trkpt lat="38.97739824395304" lon="8.438701832879335"><ele>55.0</ele><time>2026-04-18T12:15:02Z</time></trkpt><trkpt lat="38.977345915840054" lon="8.438851166628133"><ele>54.0</ele><time>2026-04-18T12:15:03Z</time></trkpt><trkpt lat="38.97729569988502" lon="8.438995308374897"><ele>51.400000000000006</ele><time>2026-04-18T12:15:04Z</time></trkpt><trkpt lat="38.97723830758984" lon="8.439121467093809"><ele>48.800000000000004</ele><time>2026-04-18T12:15:05Z</time></trkpt><trkpt lat="38.977164530022904" lon="8.439229037351089"><ele>46.2</ele><time>2026-04-18T12:15:06Z</time></trkpt><trkpt lat="38.97709814733409" lon="8.439326753937275"><ele>43.599999999999994</ele><time>2026-04-18T12:15:07Z</time></trkpt><trkpt lat="38.977031629888465" lon="8.439410275093763"><ele>41.0</ele><time>2026-04-18T12:15:08Z</time></trkpt><trkpt lat="38.976975172954354" lon="8.43948750448122"><ele>41.0</ele><time>2026-04-18T12:15:09Z</time></trkpt><trkpt lat="38.97690589108777" lon="8.439551471202265"><ele>41.0</ele><time>2026-04-18T12:15:10Z</time></trkpt><trkpt lat="38.97682599736079" lon="8.439608500684834"><ele>41.0</ele><time>2026-04-18T12:15:11Z</time></trkpt><trkpt lat="38.976740982059106" lon="8.439662845276633"><ele>41.0</ele><time>2026-04-18T12:15:12Z</time></trkpt><trkpt lat="38.97664231652651" lon="8.439674786500104"><ele>41.0</ele><time>2026-04-18T12:15:13Z</time></trkpt><trkpt lat="38.97654221322893" lon="8.439691679796233"><ele>41.199999999999996</ele><time>2026-04-18T12:15:14Z</time></trkpt><trkpt lat="38.97643321736065" lon="8.439703018285016"><ele>41.4</ele><time>2026-04-18T12:15:15Z</time></trkpt><trkpt lat="38.97632570660816" lon="8.439729354688046"><ele>41.6</ele><time>2026-04-18T12:15:16Z</time></trkpt><trkpt lat="38.97622038227038" lon="8.43973404205192"><ele>41.8</ele><time>2026-04-18T12:15:17Z</time></trkpt><trkpt lat="38.97611510483947" lon="8.439744041305316"><ele>42.0</ele><time>2026-04-18T12:15:18Z</time></trkpt><trkpt lat="38.97600596083632" lon="8.4397560019587"><ele>42.0</ele><time>2026-04-18T12:15:19Z</time></trkpt><trkpt lat="38.975896477178665" lon="8.439762785712151"><ele>42.0</ele><time>2026-04-18T12:15:20Z</time></trkpt><trkpt lat="38.97579156962897" lon="8.439771984146729"><ele>42.0</ele><time>2026-04-18T12:15:21Z</time></trkpt><trkpt lat="38.975689748612275" lon="8.439781877515045"><ele>42.0</ele><time>2026-04-18T12:15:22Z</time></trkpt><trkpt lat="38.97559094345246" lon="8.439788147342053"><ele>42.0</ele><time>2026-04-18T12:15:23Z</time></trkpt><trkpt lat="38.975487514266504" lon="8.439790574241814"><ele>41.8</ele><time>2026-04-18T12:15:24Z</time></trkpt><trkpt lat="38.9753831326205" lon="8.439764123399586"><ele>41.6</ele><time>2026-04-18T12:15:25Z</time></trkpt><trkpt lat="38.97527864927127" lon="8.439744192955832"><ele>41.4</ele><time>2026-04-18T12:15:26Z</time></trkpt><trkpt lat="38.9751725809833" lon="8.439718470157528"><ele>41.199999999999996</ele><time>2026-04-18T12:15:27Z</time></trkpt><trkpt lat="38.97506893308429" lon="8.439686279254156"><ele>41.0</ele><time>2026-04-18T12:15:28Z</time></trkpt><trkpt lat="38.974965630487056" lon="8.439665872968613"><ele>45.199999999999996</ele><time>2026-04-18T12:15:29Z</time></trkpt><trkpt lat="38.97486737185059" lon="8.439617111320127"><ele>49.4</ele><time>2026-04-18T12:15:30Z</time></trkpt><trkpt lat="38.9747705188063" lon="8.43956054176695"><ele>53.6</ele><time>2026-04-18T12:15:31Z</time></trkpt><trkpt lat="38.974685079076735" lon="8.439477000680082"><ele>57.8</ele><time>2026-04-18T12:15:32Z</time></trkpt><trkpt lat="38.97459020821749" lon="8.439423906612303"><ele>62.0</ele><time>2026-04-18T12:15:33Z</time></trkpt><trkpt lat="38.97450564264291" lon="8.439346749719578"><ele>62.0</ele><time>2026-04-18T12:15:34Z</time></trkpt><trkpt lat="38.97442436843252" lon="8.439271176139702"><ele>62.0</ele><time>2026-04-18T12:15:35Z</time></trkpt><trkpt lat="38.97434437289865" lon="8.439192873149143"><ele>62.0</ele><time>2026-04-18T12:15:36Z</time></trkpt><trkpt lat="38.974259201329666" lon="8.439126245155835"><ele>62.0</ele><time>2026-04-18T12:15:37Z</time></trkpt><trkpt lat="38.97417245244924" lon="8.43906370987265"><ele>62.0</ele><time>2026-04-18T12:15:38Z</time></trkpt><trkpt lat="38.974086695352" lon="8.438998941633045"><ele>64.0</ele><time>2026-04-18T12:15:39Z</time></trkpt><trkpt lat="38.97399842806431" lon="8.438922820745269"><ele>66.0</ele><time>2026-04-18T12:15:40Z</time></trkpt><trkpt lat="38.97391111121479" lon="8.438853364598687"><ele>68.0</ele><time>2026-04-18T12:15:41Z</time></trkpt><trkpt lat="38.97382295795437" lon="8.438778472378115"><ele>70.0</ele><time>2026-04-18T12:15:42Z</time></trkpt><trkpt lat="38.97374287718194" lon="8.438692595324746"><ele>72.0</ele><time>2026-04-18T12:15:43Z</time></trkpt><trkpt lat="38.97364697780605" lon="8.438639665371538"><ele>72.0</ele><time>2026-04-18T12:15:44Z</time></trkpt><trkpt lat="38.973559974865076" lon="8.43856350651847"><ele>72.0</ele><time>2026-04-18T12:15:45Z</time></trkpt><trkpt lat="38.973470963841756" lon="8.438494730549909"><ele>72.0</ele><time>2026-04-18T12:15:46Z</time></trkpt><trkpt lat="38.97338329433397" lon="8.438417384666598"><ele>72.0</ele><time>2026-04-18T12:15:47Z</time></trkpt><trkpt lat="38.97329377067979" lon="8.438345774565502"><ele>72.0</ele><time>2026-04-18T12:15:48Z</time></trkpt><trkpt lat="38.97320492846145" lon="8.438276646167527"><ele>72.6</ele><time>2026-04-18T12:15:49Z</time></trkpt><trkpt lat="38.97311216090198" lon="8.43820504913731"><ele>73.2</ele><time>2026-04-18T12:15:50Z</time></trkpt><trkpt lat="38.973018748859275" lon="8.438131399581785"><ele>73.8</ele><time>2026-04-18T12:15:51Z</time></trkpt><trkpt lat="38.972925086168935" lon="8.438058257294848"><ele>74.4</ele><time>2026-04-18T12:15:52Z</time></trkpt><trkpt lat="38.97282751538639" lon="8.437972082947583"><ele>75.0</ele><time>2026-04-18T12:15:53Z</time></trkpt><trkpt lat="38.97272865717302" lon="8.437891776893565"><ele>75.0</ele><time>2026-04-18T12:15:54Z</time></trkpt><trkpt lat="38.972627778909434" lon="8.437815997948153"><ele>75.0</ele><time>2026-04-18T12:15:55Z</time></trkpt><trkpt lat="38.97252006394405" lon="8.437733613631002"><ele>75.0</ele><time>2026-04-18T12:15:56Z</time></trkpt><trkpt lat="38.9724135181096" lon="8.437642511400481"><ele>75.0</ele><time>2026-04-18T12:15:57Z</time></trkpt><trkpt lat="38.97230165980974" lon="8.437559155490204"><ele>71.75</ele><time>2026-04-18T12:15:58Z</time></trkpt><trkpt lat="38.97219326980708" lon="8.437469202674908"><ele>68.5</ele><time>2026-04-18T12:15:59Z</time></trkpt><trkpt lat="38.9720768936445" lon="8.437390368839093"><ele>65.25</ele><time>2026-04-18T12:16:00Z</time></trkpt><trkpt lat="38.9719659124397" lon="8.437305365721647"><ele>62.0</ele><time>2026-04-18T12:16:01Z</time></trkpt><trkpt lat="38.97186028484569" lon="8.437217144227734"><ele>62.0</ele><time>2026-04-18T12:16:02Z</time></trkpt><trkpt lat="38.971754044566275" lon="8.437141369620438"><ele>62.0</ele><time>2026-04-18T12:16:03Z</time></trkpt><trkpt lat="38.971652828452044" lon="8.437058766793529"><ele>62.0</ele><time>2026-04-18T12:16:04Z</time></trkpt><trkpt lat="38.97155564890446" lon="8.43697760280447"><ele>62.0</ele><time>2026-04-18T12:16:05Z</time></trkpt><trkpt lat="38.9714630267826" lon="8.436894030661545"><ele>61.75</ele><time>2026-04-18T12:16:06Z</time></trkpt><trkpt lat="38.97139065385599" lon="8.436779461498972"><ele>61.5</ele><time>2026-04-18T12:16:07Z</time></trkpt><trkpt lat="38.97131200847125" lon="8.436667219266187"><ele>61.25</ele><time>2026-04-18T12:16:08Z</time></trkpt><trkpt lat="38.971243881467174" lon="8.436544277013555"><ele>61.0</ele><time>2026-04-18T12:16:09Z</time></trkpt><trkpt lat="38.971185043772046" lon="8.436413506163035"><ele>64.0</ele><time>2026-04-18T12:16:10Z</time></trkpt><trkpt lat="38.97113144591409" lon="8.436274248599123"><ele>67.0</ele><time>2026-04-18T12:16:11Z</time></trkpt><trkpt lat="38.971091142335986" lon="8.43612974732411"><ele>70.0</ele><time>2026-04-18T12:16:12Z</time></trkpt><trkpt lat="38.97105710935778" lon="8.435978503485329"><ele>73.0</ele><time>2026-04-18T12:16:13Z</time></trkpt><trkpt lat="38.97102534261193" lon="8.435823646670237"><ele>73.0</ele><time>2026-04-18T12:16:14Z</time></trkpt><trkpt lat="38.97099336094396" lon="8.43566529836919"><ele>73.0</ele><time>2026-04-18T12:16:15Z</time></trkpt><trkpt lat="38.97095853383523" lon="8.435505878556198"><ele>73.0</ele><time>2026-04-18T12:16:16Z</time></trkpt><trkpt lat="38.97091019380145" lon="8.435349201132153"><ele>73.0</ele><time>2026-04-18T12:16:17Z</time></trkpt><trkpt lat="38.97087753705631" lon="8.435188856717048"><ele>72.25</ele><time>2026-04-18T12:16:18Z</time></trkpt><trkpt lat="38.970837311224436" lon="8.43502898251329"><ele>71.5</ele><time>2026-04-18T12:16:19Z</time></trkpt><trkpt lat="38.970804921067305" lon="8.434867235063733"><ele>70.75</ele><time>2026-04-18T12:16:20Z</time></trkpt><trkpt lat="38.97074936604484" lon="8.434711414042514"><ele>70.0</ele><time>2026-04-18T12:16:21Z</time></trkpt><trkpt lat="38.97068801522871" lon="8.434554667817507"><ele>73.5</ele><time>2026-04-18T12:16:22Z</time></trkpt><trkpt lat="38.97061004997785" lon="8.434405582981862"><ele>77.0</ele><time>2026-04-18T12:16:23Z</time></trkpt><trkpt lat="38.97051244344468" lon="8.434269556783564"><ele>80.5</ele><time>2026-04-18T12:16:24Z</time></trkpt><trkpt lat="38.97039675479377" lon="8.434149777254456"><ele>84.0</ele><time>2026-04-18T12:16:25Z</time></trkpt><trkpt lat="38.97027549961383" lon="8.434043870964981"><ele>84.0</ele><time>2026-04-18T12:16:26Z</time></trkpt><trkpt lat="38.97015241214103" lon="8.433945975967752"><ele>84.0</ele><time>2026-04-18T12:16:27Z</time></trkpt><trkpt lat="38.97004480212646" lon="8.433826581331774"><ele>84.0</ele><time>2026-04-18T12:16:28Z</time></trkpt><trkpt lat="38.96993852004593" lon="8.43370920781283"><ele>84.0</ele><time>2026-04-18T12:16:29Z</time></trkpt><trkpt lat="38.96984128102878" lon="8.433583470754785"><ele>82.5</ele><time>2026-04-18T12:16:30Z</time></trkpt><trkpt lat="38.969741493540134" lon="8.433462739895841"><ele>81.0</ele><time>2026-04-18T12:16:31Z</time></trkpt><trkpt lat="38.96968299633546" lon="8.433304167125982"><ele>79.5</ele><time>2026-04-18T12:16:32Z</time></trkpt><trkpt lat="38.96962003273932" lon="8.433149775416506"><ele>78.0</ele><time>2026-04-18T12:16:33Z</time></trkpt><trkpt lat="38.96956204972287" lon="8.4329881899908"><ele>78.5</ele><time>2026-04-18T12:16:34Z</time></trkpt><trkpt lat="38.96950078947275" lon="8.432824394914645"><ele>79.0</ele><time>2026-04-18T12:16:35Z</time></trkpt><trkpt lat="38.96948122808331" lon="8.432641475115505"><ele>79.5</ele><time>2026-04-18T12:16:36Z</time></trkpt><trkpt lat="38.96945268634071" lon="8.432458110735853"><ele>80.0</ele><time>2026-04-18T12:16:37Z</time></trkpt><trkpt lat="38.96940881728175" lon="8.432278457555546"><ele>79.0</ele><time>2026-04-18T12:16:38Z</time></trkpt><trkpt lat="38.969368330409516" lon="8.432092726049406"><ele>78.0</ele><time>2026-04-18T12:16:39Z</time></trkpt><trkpt lat="38.96932035859306" lon="8.43190587843897"><ele>77.0</ele><time>2026-04-18T12:16:40Z</time></trkpt><trkpt lat="38.96924924857688" lon="8.43172318703243"><ele>77.33333333333334</ele><time>2026-04-18T12:16:41Z</time></trkpt><trkpt lat="38.9691803766055" lon="8.431539919140864"><ele>77.66666666666667</ele><time>2026-04-18T12:16:42Z</time></trkpt><trkpt lat="38.96910553393423" lon="8.431362995422349"><ele>78.0</ele><time>2026-04-18T12:16:43Z</time></trkpt><trkpt lat="38.96901266209574" lon="8.431202653948793"><ele>78.0</ele><time>2026-04-18T12:16:44Z</time></trkpt><trkpt lat="38.96890520488936" lon="8.43105738396738"><ele>78.0</ele><time>2026-04-18T12:16:45Z</time></trkpt><trkpt lat="38.968792820418344" lon="8.430916724507485"><ele>78.0</ele><time>2026-04-18T12:16:46Z</time></trkpt><trkpt lat="38.968679983635695" lon="8.430769654620775"><ele>78.0</ele><time>2026-04-18T12:16:47Z</time></trkpt><trkpt lat="38.96856464701564" lon="8.430623864072526"><ele>78.0</ele><time>2026-04-18T12:16:48Z</time></trkpt><trkpt lat="38.96844769815494" lon="8.430479697206454"><ele>78.0</ele><time>2026-04-18T12:16:49Z</time></trkpt><trkpt lat="38.96832954806489" lon="8.430330341092512"><ele>73.0</ele><time>2026-04-18T12:16:50Z</time></trkpt><trkpt lat="38.96821523900025" lon="8.430177905312725"><ele>68.0</ele><time>2026-04-18T12:16:51Z</time></trkpt><trkpt lat="38.96809699252905" lon="8.430024316149456"><ele>63.0</ele><time>2026-04-18T12:16:52Z</time></trkpt><trkpt lat="38.96797810206532" lon="8.429877438005423"><ele>63.0</ele><time>2026-04-18T12:16:53Z</time></trkpt><trkpt lat="38.967869701792274" lon="8.42971656333765"><ele>63.0</ele><time>2026-04-18T12:16:54Z</time></trkpt><trkpt lat="38.967740421219844" lon="8.429578869257853"><ele>63.0</ele><time>2026-04-18T12:16:55Z</time></trkpt><trkpt lat="38.967625571144154" lon="8.429428873966536"><ele>60.0</ele><time>2026-04-18T12:16:56Z</time></trkpt><trkpt lat="38.967504364809066" lon="8.429277668413457"><ele>57.0</ele><time>2026-04-18T12:16:57Z</time></trkpt><trkpt lat="38.967385624552776" lon="8.429118269297003"><ele>54.0</ele><time>2026-04-18T12:16:58Z</time></trkpt><trkpt lat="38.96726689966805" lon="8.428959297763221"><ele>55.66666666666667</ele><time>2026-04-18T12:16:59Z</time></trkpt><trkpt lat="38.96714242566458" lon="8.428809129601284"><ele>57.333333333333336</ele><time>2026-04-18T12:17:00Z</time></trkpt><trkpt lat="38.96701548864957" lon="8.428663355229915"><ele>59.0</ele><time>2026-04-18T12:17:01Z</time></trkpt><trkpt lat="38.96689539349266" lon="8.428506103557247"><ele>59.0</ele><time>2026-04-18T12:17:02Z</time></trkpt><trkpt lat="38.96677160062386" lon="8.428359948081463"><ele>59.0</ele><time>2026-04-18T12:17:03Z</time></trkpt><trkpt lat="38.966647429925686" lon="8.428212902917672"><ele>59.0</ele><time>2026-04-18T12:17:04Z</time></trkpt><trkpt lat="38.966524785029826" lon="8.428062229455723"><ele>58.333333333333336</ele><time>2026-04-18T12:17:05Z</time></trkpt><trkpt lat="38.966400356217" lon="8.42791924772354"><ele>57.66666666666667</ele><time>2026-04-18T12:17:06Z</time></trkpt><trkpt lat="38.96627311783135" lon="8.427779158468555"><ele>57.0</ele><time>2026-04-18T12:17:07Z</time></trkpt><trkpt lat="38.966157207796016" lon="8.42762300119401"><ele>57.0</ele><time>2026-04-18T12:17:08Z</time></trkpt><trkpt lat="38.96603142666579" lon="8.427483715711576"><ele>57.0</ele><time>2026-04-18T12:17:09Z</time></trkpt><trkpt lat="38.96590713924591" lon="8.427348248109283"><ele>57.0</ele><time>2026-04-18T12:17:10Z</time></trkpt><trkpt lat="38.96578146162985" lon="8.427212643418054"><ele>57.0</ele><time>2026-04-18T12:17:11Z</time></trkpt><trkpt lat="38.965658271751636" lon="8.427080898035548"><ele>57.0</ele><time>2026-04-18T12:17:12Z</time></trkpt><trkpt lat="38.96553732868992" lon="8.426951487364786"><ele>57.0</ele><time>2026-04-18T12:17:13Z</time></trkpt><trkpt lat="38.96541421744369" lon="8.426833613459621"><ele>57.0</ele><time>2026-04-18T12:17:14Z</time></trkpt><trkpt lat="38.9652956888801" lon="8.426710443047424"><ele>57.0</ele><time>2026-04-18T12:17:15Z</time></trkpt><trkpt lat="38.96518594809032" lon="8.426589333901427"><ele>57.0</ele><time>2026-04-18T12:17:16Z</time></trkpt><trkpt lat="38.96508424874046" lon="8.426478676205448"><ele>57.0</ele><time>2026-04-18T12:17:17Z</time></trkpt><trkpt lat="38.96499163905046" lon="8.426379245759982"><ele>56.857142857142854</ele><time>2026-04-18T12:17:18Z</time></trkpt><trkpt lat="38.96491449881965" lon="8.426299611656612"><ele>56.71428571428571</ele><time>2026-04-18T12:17:19Z</time></trkpt><trkpt lat="38.964853378424785" lon="8.426231755240753"><ele>56.57142857142857</ele><time>2026-04-18T12:17:20Z</time></trkpt><trkpt lat="38.96481947470241" lon="8.426147917674172"><ele>56.42857142857143</ele><time>2026-04-18T12:17:21Z</time></trkpt><trkpt lat="38.96475618930614" lon="8.426121093268483"><ele>56.285714285714285</ele><time>2026-04-18T12:17:22Z</time></trkpt><trkpt lat="38.96470386089142" lon="8.426071612675269"><ele>56.14285714285714</ele><time>2026-04-18T12:17:23Z</time></trkpt><trkpt lat="38.96464915820805" lon="8.426028830365707"><ele>56.0</ele><time>2026-04-18T12:17:24Z</time></trkpt><trkpt lat="38.96459683613933" lon="8.425966602444392"><ele>56.00000000000001</ele><time>2026-04-18T12:17:25Z</time></trkpt><trkpt lat="38.964542769116974" lon="8.42589666596952"><ele>56.0</ele><time>2026-04-18T12:17:26Z</time></trkpt><trkpt lat="38.96448445472054" lon="8.425825329078398"><ele>56.0</ele><time>2026-04-18T12:17:27Z</time></trkpt><trkpt lat="38.964423246983884" lon="8.425753384553806"><ele>56.0</ele><time>2026-04-18T12:17:28Z</time></trkpt><trkpt lat="38.96436050393739" lon="8.425683155627427"><ele>56.00000000000001</ele><time>2026-04-18T12:17:29Z</time></trkpt><trkpt lat="38.96431680480502" lon="8.425593367860124"><ele>56.0</ele><time>2026-04-18T12:17:30Z</time></trkpt><trkpt lat="38.96426338936605" lon="8.42552018759021"><ele>56.14285714285714</ele><time>2026-04-18T12:17:31Z</time></trkpt><trkpt lat="38.964213158275946" lon="8.425451170894066"><ele>56.285714285714285</ele><time>2026-04-18T12:17:32Z</time></trkpt><trkpt lat="38.96416354506715" lon="8.425382168931591"><ele>56.42857142857143</ele><time>2026-04-18T12:17:33Z</time></trkpt><trkpt lat="38.96411496045376" lon="8.425309764381668"><ele>56.57142857142857</ele><time>2026-04-18T12:17:34Z</time></trkpt><trkpt lat="38.96407137199919" lon="8.425239435242277"><ele>56.71428571428571</ele><time>2026-04-18T12:17:35Z</time></trkpt><trkpt lat="38.964027540732594" lon="8.425165674277084"><ele>56.857142857142854</ele><time>2026-04-18T12:17:36Z</time></trkpt><trkpt lat="38.963986264234634" lon="8.425093388679871"><ele>57.0</ele><time>2026-04-18T12:17:37Z</time></trkpt><trkpt lat="38.963945430650654" lon="8.425018724454976"><ele>55.333333333333336</ele><time>2026-04-18T12:17:38Z</time></trkpt><trkpt lat="38.96390794322934" lon="8.424941797334162"><ele>53.666666666666664</ele><time>2026-04-18T12:17:39Z</time></trkpt><trkpt lat="38.963871804767834" lon="8.424857041516052"><ele>52.0</ele><time>2026-04-18T12:17:40Z</time></trkpt><trkpt lat="38.96384304714758" lon="8.424769193518447"><ele>50.33333333333333</ele><time>2026-04-18T12:17:41Z</time></trkpt><trkpt lat="38.96381960837472" lon="8.424670193795816"><ele>48.666666666666664</ele><time>2026-04-18T12:17:42Z</time></trkpt><trkpt lat="38.9638026091013" lon="8.42456589963324"><ele>47.0</ele><time>2026-04-18T12:17:43Z</time></trkpt><trkpt lat="38.96379880932715" lon="8.424458176376692"><ele>46.0</ele><time>2026-04-18T12:17:44Z</time></trkpt><trkpt lat="38.96380444835507" lon="8.424349327677868"><ele>45.0</ele><time>2026-04-18T12:17:45Z</time></trkpt><trkpt lat="38.96381573841582" lon="8.424238378880391"><ele>44.0</ele><time>2026-04-18T12:17:46Z</time></trkpt><trkpt lat="38.963833100438734" lon="8.424129620528026"><ele>43.0</ele><time>2026-04-18T12:17:47Z</time></trkpt><trkpt lat="38.963857566067794" lon="8.424019807118183"><ele>42.0</ele><time>2026-04-18T12:17:48Z</time></trkpt><trkpt lat="38.963892863230306" lon="8.423916828707533"><ele>41.0</ele><time>2026-04-18T12:17:49Z</time></trkpt><trkpt lat="38.96393870379871" lon="8.423814122357268"><ele>41.599999999999994</ele><time>2026-04-18T12:17:50Z</time></trkpt><trkpt lat="38.96399034805899" lon="8.423720509370817"><ele>42.2</ele><time>2026-04-18T12:17:51Z</time></trkpt><trkpt lat="38.964035499387634" lon="8.42361571410785"><ele>42.8</ele><time>2026-04-18T12:17:52Z</time></trkpt><trkpt lat="38.96409804788469" lon="8.423520985249684"><ele>43.400000000000006</ele><time>2026-04-18T12:17:53Z</time></trkpt><trkpt lat="38.96416408128996" lon="8.42342345972216"><ele>44.0</ele><time>2026-04-18T12:17:54Z</time></trkpt><trkpt lat="38.96423518329537" lon="8.42332702297973"><ele>44.0</ele><time>2026-04-18T12:17:55Z</time></trkpt><trkpt lat="38.964308804751596" lon="8.42322975537096"><ele>44.0</ele><time>2026-04-18T12:17:56Z</time></trkpt><trkpt lat="38.96438481526825" lon="8.42313083812486"><ele>44.0</ele><time>2026-04-18T12:17:57Z</time></trkpt><trkpt lat="38.96446112297054" lon="8.423032574879969"><ele>44.0</ele><time>2026-04-18T12:17:58Z</time></trkpt><trkpt lat="38.96454476068182" lon="8.422939809948636"><ele>44.0</ele><time>2026-04-18T12:17:59Z</time></trkpt><trkpt lat="38.96462705172987" lon="8.422853096766799"><ele>41.0</ele><time>2026-04-18T12:18:00Z</time></trkpt><trkpt lat="38.964710976186495" lon="8.422759730383756"><ele>38.0</ele><time>2026-04-18T12:18:01Z</time></trkpt><trkpt lat="38.964794371959464" lon="8.422663144552425"><ele>35.0</ele><time>2026-04-18T12:18:02Z</time></trkpt><trkpt lat="38.964878771657794" lon="8.422563028891824"><ele>32.0</ele><time>2026-04-18T12:18:03Z</time></trkpt><trkpt lat="38.96496443479499" lon="8.422459578386984"><ele>31.75</ele><time>2026-04-18T12:18:04Z</time></trkpt><trkpt lat="38.96505191574008" lon="8.422353137294694"><ele>31.5</ele><time>2026-04-18T12:18:05Z</time></trkpt><trkpt lat="38.96514238138453" lon="8.422249474523015"><ele>31.25</ele><time>2026-04-18T12:18:06Z</time></trkpt><trkpt lat="38.96523406646921" lon="8.42214743311654"><ele>31.0</ele><time>2026-04-18T12:18:07Z</time></trkpt><trkpt lat="38.96531911824208" lon="8.422047019831675"><ele>31.0</ele><time>2026-04-18T12:18:08Z</time></trkpt><trkpt lat="38.96539228570902" lon="8.421945684971178"><ele>31.0</ele><time>2026-04-18T12:18:09Z</time></trkpt><trkpt lat="38.96545529925812" lon="8.421847425092599"><ele>31.0</ele><time>2026-04-18T12:18:10Z</time></trkpt><trkpt lat="38.96550301789378" lon="8.421757285532346"><ele>31.0</ele><time>2026-04-18T12:18:11Z</time></trkpt><trkpt lat="38.965541546683355" lon="8.421678792944912"><ele>31.0</ele><time>2026-04-18T12:18:12Z</time></trkpt><trkpt lat="38.965607644341716" lon="8.42157494465136"><ele>31.0</ele><time>2026-04-18T12:18:14Z</time></trkpt><trkpt lat="38.96563323018273" lon="8.421484429130436"><ele>31.0</ele><time>2026-04-18T12:18:16Z</time></trkpt><trkpt lat="38.96552597774711" lon="8.421378677054905"><ele>31.0</ele><time>2026-04-18T12:18:21Z</time></trkpt><trkpt lat="38.9654066751195" lon="8.421359690260648"><ele>31.0</ele><time>2026-04-18T12:18:23Z</time></trkpt><trkpt lat="38.965341972258784" lon="8.421370760646061"><ele>31.0</ele><time>2026-04-18T12:18:24Z</time></trkpt><trkpt lat="38.965266706422604" lon="8.421365147624568"><ele>31.000000000000004</ele><time>2026-04-18T12:18:25Z</time></trkpt><trkpt lat="38.96514168853499" lon="8.421328305904712"><ele>31.0</ele><time>2026-04-18T12:18:27Z</time></trkpt><trkpt lat="38.96507479108187" lon="8.42131403515705"><ele>31.0</ele><time>2026-04-18T12:18:28Z</time></trkpt><trkpt lat="38.96500857218797" lon="8.421297924833143"><ele>31.0</ele><time>2026-04-18T12:18:29Z</time></trkpt><trkpt lat="38.96494632365916" lon="8.42127876074822"><ele>31.000000000000004</ele><time>2026-04-18T12:18:30Z</time></trkpt><trkpt lat="38.964846753024304" lon="8.42123608090075"><ele>31.0</ele><time>2026-04-18T12:18:32Z</time></trkpt><trkpt lat="38.96476286064847" lon="8.421201753809113"><ele>30.833333333333336</ele><time>2026-04-18T12:18:34Z</time></trkpt><trkpt lat="38.96469186828374" lon="8.42117367053972"><ele>30.666666666666668</ele><time>2026-04-18T12:18:38Z</time></trkpt><trkpt lat="38.9645989944645" lon="8.421174153749245"><ele>30.5</ele><time>2026-04-18T12:18:41Z</time></trkpt><trkpt lat="38.964544720069135" lon="8.421234501739342"><ele>30.333333333333336</ele><time>2026-04-18T12:18:42Z</time></trkpt><trkpt lat="38.964483010200425" lon="8.421258323950417"><ele>30.166666666666668</ele><time>2026-04-18T12:18:43Z</time></trkpt><trkpt lat="38.96438869310426" lon="8.421264611282803"><ele>30.0</ele><time>2026-04-18T12:18:45Z</time></trkpt><trkpt lat="38.96427772582771" lon="8.42121953679175"><ele>28.8</ele><time>2026-04-18T12:18:47Z</time></trkpt><trkpt lat="38.9641639721612" lon="8.421183870355565"><ele>27.6</ele><time>2026-04-18T12:18:49Z</time></trkpt><trkpt lat="38.9640585351732" lon="8.421161622921073"><ele>26.4</ele><time>2026-04-18T12:18:51Z</time></trkpt><trkpt lat="38.96395743361695" lon="8.421155453741152"><ele>25.2</ele><time>2026-04-18T12:18:53Z</time></trkpt><trkpt lat="38.963875878470674" lon="8.42116973204282"><ele>24.0</ele><time>2026-04-18T12:18:55Z</time></trkpt><trkpt lat="38.963806921784986" lon="8.421245267645526"><ele>24.0</ele><time>2026-04-18T12:18:57Z</time></trkpt><trkpt lat="38.96374135699776" lon="8.421291510745554"><ele>24.0</ele><time>2026-04-18T12:18:59Z</time></trkpt><trkpt lat="38.963673904130154" lon="8.421280153969821"><ele>24.0</ele><time>2026-04-18T12:19:01Z</time></trkpt><trkpt lat="38.96361189009484" lon="8.421205770762118"><ele>24.0</ele><time>2026-04-18T12:19:04Z</time></trkpt><trkpt lat="38.96355065623099" lon="8.421164607028592"><ele>24.0</ele><time>2026-04-18T12:19:06Z</time></trkpt><trkpt lat="38.96346847341894" lon="8.421128575482149"><ele>24.0</ele><time>2026-04-18T12:19:08Z</time></trkpt><trkpt lat="38.963390491674616" lon="8.421066273712883"><ele>22.2</ele><time>2026-04-18T12:19:10Z</time></trkpt><trkpt lat="38.963293220523454" lon="8.421088425281734"><ele>20.4</ele><time>2026-04-18T12:19:12Z</time></trkpt><trkpt lat="38.96320615121795" lon="8.42109006621329"><ele>18.6</ele><time>2026-04-18T12:19:15Z</time></trkpt><trkpt lat="38.963198012540204" lon="8.420942849214187"><ele>16.8</ele><time>2026-04-18T12:19:16Z</time></trkpt><trkpt lat="38.96310570724935" lon="8.42081096684144"><ele>15.0</ele><time>2026-04-18T12:19:18Z</time></trkpt><trkpt lat="38.96304982642594" lon="8.42073224890431"><ele>15.0</ele><time>2026-04-18T12:19:19Z</time></trkpt><trkpt lat="38.96297822905423" lon="8.420659270747716"><ele>15.0</ele><time>2026-04-18T12:19:20Z</time></trkpt><trkpt lat="38.962940336346534" lon="8.420553163453965"><ele>15.0</ele><time>2026-04-18T12:19:21Z</time></trkpt><trkpt lat="38.96290034722834" lon="8.42046411635062"><ele>15.0</ele><time>2026-04-18T12:19:22Z</time></trkpt><trkpt lat="38.96289719603127" lon="8.420366345659058"><ele>15.0</ele><time>2026-04-18T12:19:23Z</time></trkpt><trkpt lat="38.96293245100851" lon="8.420289405791447"><ele>15.0</ele><time>2026-04-18T12:19:24Z</time></trkpt><trkpt lat="38.96297200721374" lon="8.420210599223124"><ele>15.333333333333334</ele><time>2026-04-18T12:19:25Z</time></trkpt><trkpt lat="38.963036187191236" lon="8.420144211575334"><ele>15.666666666666668</ele><time>2026-04-18T12:19:26Z</time></trkpt><trkpt lat="38.963103113951156" lon="8.420070558873123"><ele>16.0</ele><time>2026-04-18T12:19:27Z</time></trkpt><trkpt lat="38.963172334155374" lon="8.419997544132697"><ele>16.333333333333336</ele><time>2026-04-18T12:19:28Z</time></trkpt><trkpt lat="38.96322896775592" lon="8.419931587593346"><ele>16.666666666666668</ele><time>2026-04-18T12:19:29Z</time></trkpt><trkpt lat="38.963286199068214" lon="8.419811156089153"><ele>17.0</ele><time>2026-04-18T12:19:31Z</time></trkpt><trkpt lat="38.963255154799235" lon="8.419660776941603"><ele>17.0</ele><time>2026-04-18T12:19:33Z</time></trkpt><trkpt lat="38.96319572597193" lon="8.41958812722413"><ele>17.0</ele><time>2026-04-18T12:19:34Z</time></trkpt><trkpt lat="38.96313202829728" lon="8.419514340914292"><ele>17.0</ele><time>2026-04-18T12:19:35Z</time></trkpt><trkpt lat="38.96308159708978" lon="8.419410593977457"><ele>17.0</ele><time>2026-04-18T12:19:36Z</time></trkpt><trkpt lat="38.96300745206587" lon="8.419323595506402"><ele>17.0</ele><time>2026-04-18T12:19:37Z</time></trkpt><trkpt lat="38.96292892504086" lon="8.419232160217454"><ele>17.0</ele><time>2026-04-18T12:19:38Z</time></trkpt><trkpt lat="38.96284733305103" lon="8.419138067950133"><ele>17.0</ele><time>2026-04-18T12:19:39Z</time></trkpt><trkpt lat="38.962762357164" lon="8.41904041796193"><ele>17.0</ele><time>2026-04-18T12:19:40Z</time></trkpt><trkpt lat="38.96267265252009" lon="8.41894021353631"><ele>17.0</ele><time>2026-04-18T12:19:41Z</time></trkpt><trkpt lat="38.96257830671032" lon="8.418836172276992"><ele>16.75</ele><time>2026-04-18T12:19:42Z</time></trkpt><trkpt lat="38.96248108151492" lon="8.41873012445589"><ele>16.5</ele><time>2026-04-18T12:19:43Z</time></trkpt><trkpt lat="38.962383770803704" lon="8.41862589612982"><ele>16.25</ele><time>2026-04-18T12:19:44Z</time></trkpt><trkpt lat="38.96228661229863" lon="8.418523519530087"><ele>16.0</ele><time>2026-04-18T12:19:45Z</time></trkpt><trkpt lat="38.96218894060115" lon="8.418420704545165"><ele>16.0</ele><time>2026-04-18T12:19:46Z</time></trkpt><trkpt lat="38.962090632043285" lon="8.418318535871737"><ele>16.0</ele><time>2026-04-18T12:19:47Z</time></trkpt><trkpt lat="38.96199289298794" lon="8.41821714276393"><ele>16.0</ele><time>2026-04-18T12:19:48Z</time></trkpt><trkpt lat="38.961897855102755" lon="8.418118551765764"><ele>16.0</ele><time>2026-04-18T12:19:49Z</time></trkpt><trkpt lat="38.96180915932947" lon="8.418025182648634"><ele>16.333333333333332</ele><time>2026-04-18T12:19:50Z</time></trkpt><trkpt lat="38.96173178887965" lon="8.417936952988299"><ele>16.666666666666664</ele><time>2026-04-18T12:19:51Z</time></trkpt><trkpt lat="38.96166910505372" lon="8.417854662222501"><ele>17.0</ele><time>2026-04-18T12:19:52Z</time></trkpt><trkpt lat="38.96162649470327" lon="8.417770216687902"><ele>17.333333333333332</ele><time>2026-04-18T12:19:53Z</time></trkpt><trkpt lat="38.96159108139324" lon="8.417684137376122"><ele>17.666666666666668</ele><time>2026-04-18T12:19:54Z</time></trkpt><trkpt lat="38.961554323564776" lon="8.417591240221691"><ele>18.0</ele><time>2026-04-18T12:19:55Z</time></trkpt><trkpt lat="38.96151318013741" lon="8.41750314223387"><ele>18.0</ele><time>2026-04-18T12:19:56Z</time></trkpt><trkpt lat="38.96146483531363" lon="8.417417697035482"><ele>18.0</ele><time>2026-04-18T12:19:57Z</time></trkpt><trkpt lat="38.96140421305869" lon="8.417325548826913"><ele>18.0</ele><time>2026-04-18T12:19:58Z</time></trkpt><trkpt lat="38.961340630065415" lon="8.417242633440077"><ele>18.0</ele><time>2026-04-18T12:19:59Z</time></trkpt><trkpt lat="38.961266766527345" lon="8.417173489828114"><ele>18.0</ele><time>2026-04-18T12:20:00Z</time></trkpt><trkpt lat="38.961175638665964" lon="8.41713254341768"><ele>17.666666666666668</ele><time>2026-04-18T12:20:01Z</time></trkpt><trkpt lat="38.961090244231464" lon="8.417089743200867"><ele>17.333333333333332</ele><time>2026-04-18T12:20:02Z</time></trkpt><trkpt lat="38.96101626704613" lon="8.417048070286853"><ele>17.0</ele><time>2026-04-18T12:20:03Z</time></trkpt><trkpt lat="38.96095105625454" lon="8.41699686778475"><ele>16.666666666666664</ele><time>2026-04-18T12:20:04Z</time></trkpt><trkpt lat="38.960890539327245" lon="8.416940855036826"><ele>16.333333333333332</ele><time>2026-04-18T12:20:05Z</time></trkpt><trkpt lat="38.960832567408694" lon="8.416884998337242"><ele>16.0</ele><time>2026-04-18T12:20:06Z</time></trkpt><trkpt lat="38.9607777447725" lon="8.416828978403665"><ele>15.999999999999998</ele><time>2026-04-18T12:20:07Z</time></trkpt><trkpt lat="38.96072356125753" lon="8.4167739148562"><ele>16.0</ele><time>2026-04-18T12:20:08Z</time></trkpt><trkpt lat="38.960647334679535" lon="8.416666679379077"><ele>16.0</ele><time>2026-04-18T12:20:10Z</time></trkpt><trkpt lat="38.960609791947206" lon="8.416526793486735"><ele>16.0</ele><time>2026-04-18T12:20:12Z</time></trkpt><trkpt lat="38.96059819043912" lon="8.416443774490226"><ele>15.999999999999998</ele><time>2026-04-18T12:20:13Z</time></trkpt><trkpt lat="38.96058520967448" lon="8.416347977399994"><ele>16.0</ele><time>2026-04-18T12:20:14Z</time></trkpt><trkpt lat="38.96055332657524" lon="8.416235365820034"><ele>16.8</ele><time>2026-04-18T12:20:15Z</time></trkpt><trkpt lat="38.96050402654329" lon="8.416123929091416"><ele>17.6</ele><time>2026-04-18T12:20:16Z</time></trkpt><trkpt lat="38.960448251779724" lon="8.416012684474651"><ele>18.4</ele><time>2026-04-18T12:20:17Z</time></trkpt><trkpt lat="38.960373016604564" lon="8.415912204164023"><ele>19.2</ele><time>2026-04-18T12:20:18Z</time></trkpt><trkpt lat="38.96028367955994" lon="8.415840304650485"><ele>20.0</ele><time>2026-04-18T12:20:19Z</time></trkpt><trkpt lat="38.96021687293715" lon="8.415740677560066"><ele>20.0</ele><time>2026-04-18T12:20:20Z</time></trkpt><trkpt lat="38.96014144070795" lon="8.415658651299584"><ele>20.0</ele><time>2026-04-18T12:20:21Z</time></trkpt><trkpt lat="38.960067132047506" lon="8.41557784678774"><ele>20.0</ele><time>2026-04-18T12:20:22Z</time></trkpt><trkpt lat="38.959996855757716" lon="8.415500659708478"><ele>20.0</ele><time>2026-04-18T12:20:23Z</time></trkpt><trkpt lat="38.959929653967166" lon="8.415421713242853"><ele>20.0</ele><time>2026-04-18T12:20:24Z</time></trkpt><trkpt lat="38.95986640741183" lon="8.4153455669719"><ele>19.5</ele><time>2026-04-18T12:20:25Z</time></trkpt><trkpt lat="38.959816370515526" lon="8.415269449211674"><ele>19.0</ele><time>2026-04-18T12:20:26Z</time></trkpt><trkpt lat="38.95977709963535" lon="8.415192459657387"><ele>18.5</ele><time>2026-04-18T12:20:27Z</time></trkpt><trkpt lat="38.9597715205718" lon="8.41510322554842"><ele>18.0</ele><time>2026-04-18T12:20:28Z</time></trkpt><trkpt lat="38.959760400946976" lon="8.415002807275359"><ele>17.5</ele><time>2026-04-18T12:20:29Z</time></trkpt><trkpt lat="38.95975069689308" lon="8.414896500410961"><ele>17.0</ele><time>2026-04-18T12:20:30Z</time></trkpt><trkpt lat="38.959741639139" lon="8.414794027612285"><ele>17.0</ele><time>2026-04-18T12:20:31Z</time></trkpt><trkpt lat="38.959744818096574" lon="8.414711103082556"><ele>17.0</ele><time>2026-04-18T12:20:32Z</time></trkpt><trkpt lat="38.959797471140064" lon="8.41461947649813"><ele>17.0</ele><time>2026-04-18T12:20:34Z</time></trkpt><trkpt lat="38.959886632898964" lon="8.414527676889483"><ele>17.0</ele><time>2026-04-18T12:20:36Z</time></trkpt><trkpt lat="38.959990515998214" lon="8.41446079603387"><ele>17.0</ele><time>2026-04-18T12:20:38Z</time></trkpt><trkpt lat="38.96007118119136" lon="8.41441276754265"><ele>17.666666666666668</ele><time>2026-04-18T12:20:40Z</time></trkpt><trkpt lat="38.96010158607076" lon="8.414315009951567"><ele>18.333333333333336</ele><time>2026-04-18T12:20:42Z</time></trkpt><trkpt lat="38.960105464406325" lon="8.414223154326052"><ele>19.0</ele><time>2026-04-18T12:20:44Z</time></trkpt><trkpt lat="38.96009445934179" lon="8.41412697833057"><ele>19.666666666666668</ele><time>2026-04-18T12:28:01Z</time></trkpt><trkpt lat="38.96008110684518" lon="8.413998041599656"><ele>20.333333333333332</ele><time>2026-04-18T12:28:03Z</time></trkpt><trkpt lat="38.96006576261283" lon="8.413849871916375"><ele>21.0</ele><time>2026-04-18T12:28:05Z</time></trkpt><trkpt lat="38.96002736757028" lon="8.41372621899843"><ele>21.0</ele><time>2026-04-18T12:28:07Z</time></trkpt><trkpt lat="38.960005532491074" lon="8.413570202663681"><ele>21.0</ele><time>2026-04-18T12:28:09Z</time></trkpt><trkpt lat="38.9599809338997" lon="8.413425107566058"><ele>21.0</ele><time>2026-04-18T12:28:11Z</time></trkpt><trkpt lat="38.95996986857387" lon="8.413300515221433"><ele>21.0</ele><time>2026-04-18T12:28:13Z</time></trkpt><trkpt lat="38.959886170886094" lon="8.41323076410355"><ele>21.0</ele><time>2026-04-18T12:28:14Z</time></trkpt><trkpt lat="38.959898451402495" lon="8.41312036916327"><ele>21.0</ele><time>2026-04-18T12:28:16Z</time></trkpt><trkpt lat="38.95991066951546" lon="8.413010535462382"><ele>21.0</ele><time>2026-04-18T12:28:18Z</time></trkpt><trkpt lat="38.959923222504756" lon="8.41289769075806"><ele>21.0</ele><time>2026-04-18T12:28:20Z</time></trkpt><trkpt lat="38.95993279493966" lon="8.412811639642232"><ele>21.0</ele><time>2026-04-18T12:28:22Z</time></trkpt><trkpt lat="38.959931661425934" lon="8.412714719487056"><ele>21.0</ele><time>2026-04-18T12:28:25Z</time></trkpt><trkpt lat="38.959918727090226" lon="8.412628404279557"><ele>21.0</ele><time>2026-04-18T12:28:27Z</time></trkpt><trkpt lat="38.959923357748295" lon="8.412483366996007"><ele>21.6</ele><time>2026-04-18T12:28:29Z</time></trkpt><trkpt lat="38.95992783923355" lon="8.41234725401708"><ele>22.200000000000003</ele><time>2026-04-18T12:28:31Z</time></trkpt><trkpt lat="38.95997259977783" lon="8.412212581026395"><ele>22.799999999999997</ele><time>2026-04-18T12:28:33Z</time></trkpt><trkpt lat="38.96002471206352" lon="8.412096293372112"><ele>23.4</ele><time>2026-04-18T12:28:35Z</time></trkpt><trkpt lat="38.96005652276285" lon="8.4119711410293"><ele>24.0</ele><time>2026-04-18T12:28:37Z</time></trkpt><trkpt lat="38.96007926064477" lon="8.411844076071208"><ele>25.0</ele><time>2026-04-18T12:28:39Z</time></trkpt><trkpt lat="38.96008366509599" lon="8.411724565615103"><ele>26.0</ele><time>2026-04-18T12:28:41Z</time></trkpt><trkpt lat="38.96003661134459" lon="8.41160756047884"><ele>27.0</ele><time>2026-04-18T12:28:43Z</time></trkpt><trkpt lat="38.95994744656876" lon="8.411577909568857"><ele>28.0</ele><time>2026-04-18T12:28:45Z</time></trkpt><trkpt lat="38.95984396677372" lon="8.41160765522417"><ele>29.0</ele><time>2026-04-18T12:28:47Z</time></trkpt><trkpt lat="38.95973059468862" lon="8.411686254549785"><ele>28.999999999999996</ele><time>2026-04-18T12:28:49Z</time></trkpt><trkpt lat="38.95967598262021" lon="8.411728011280086"><ele>29.0</ele><time>2026-04-18T12:28:50Z</time></trkpt><trkpt lat="38.95961527371476" lon="8.411776445703351"><ele>29.0</ele><time>2026-04-18T12:28:51Z</time></trkpt><trkpt lat="38.95955007969546" lon="8.411825144345856"><ele>29.0</ele><time>2026-04-18T12:28:52Z</time></trkpt><trkpt lat="38.95949012222447" lon="8.41186658029482"><ele>28.999999999999996</ele><time>2026-04-18T12:28:53Z</time></trkpt><trkpt lat="38.95938838987574" lon="8.411943284307357"><ele>29.0</ele><time>2026-04-18T12:28:55Z</time></trkpt><trkpt lat="38.959326145933616" lon="8.411980543968737"><ele>28.999999999999996</ele><time>2026-04-18T12:28:56Z</time></trkpt><trkpt lat="38.959226878622204" lon="8.412055474601585"><ele>29.0</ele><time>2026-04-18T12:28:58Z</time></trkpt><trkpt lat="38.95915983012843" lon="8.412131540509485"><ele>29.0</ele><time>2026-04-18T12:29:00Z</time></trkpt><trkpt lat="38.959102042260575" lon="8.412212972348224"><ele>29.0</ele><time>2026-04-18T12:29:02Z</time></trkpt><trkpt lat="38.959050619097354" lon="8.412276392811004"><ele>28.999999999999996</ele><time>2026-04-18T12:29:04Z</time></trkpt><trkpt lat="38.958994580232165" lon="8.412336090226718"><ele>29.0</ele><time>2026-04-18T12:29:06Z</time></trkpt><trkpt lat="38.958922246989474" lon="8.412390484140982"><ele>28.4</ele><time>2026-04-18T12:29:08Z</time></trkpt><trkpt lat="38.95884672757799" lon="8.412429955398155"><ele>27.799999999999997</ele><time>2026-04-18T12:29:10Z</time></trkpt><trkpt lat="38.95876349631753" lon="8.412472057318768"><ele>27.200000000000003</ele><time>2026-04-18T12:29:12Z</time></trkpt><trkpt lat="38.95867413654305" lon="8.412541438518614"><ele>26.6</ele><time>2026-04-18T12:29:14Z</time></trkpt><trkpt lat="38.9585821988102" lon="8.412635049222793"><ele>26.0</ele><time>2026-04-18T12:29:16Z</time></trkpt><trkpt lat="38.95849717617405" lon="8.412697127742653"><ele>26.0</ele><time>2026-04-18T12:29:18Z</time></trkpt><trkpt lat="38.95840181809339" lon="8.412757346611839"><ele>26.0</ele><time>2026-04-18T12:29:20Z</time></trkpt><trkpt lat="38.95830459302816" lon="8.41281642005675"><ele>26.0</ele><time>2026-04-18T12:29:22Z</time></trkpt><trkpt lat="38.95821464748973" lon="8.412884576145823"><ele>26.0</ele><time>2026-04-18T12:29:24Z</time></trkpt><trkpt lat="38.958129368395" lon="8.412928010098103"><ele>26.0</ele><time>2026-04-18T12:29:26Z</time></trkpt><trkpt lat="38.9580537534304" lon="8.4129721581087"><ele>25.57142857142857</ele><time>2026-04-18T12:29:28Z</time></trkpt><trkpt lat="38.95798814061839" lon="8.413027005484507"><ele>25.142857142857146</ele><time>2026-04-18T12:29:30Z</time></trkpt><trkpt lat="38.9579335538679" lon="8.413069448068692"><ele>24.714285714285715</ele><time>2026-04-18T12:29:32Z</time></trkpt><trkpt lat="38.95787946938652" lon="8.413112123249164"><ele>24.285714285714285</ele><time>2026-04-18T12:29:34Z</time></trkpt><trkpt lat="38.95782355228475" lon="8.413158701668147"><ele>23.857142857142854</ele><time>2026-04-18T12:29:36Z</time></trkpt><trkpt lat="38.957761808026746" lon="8.41321238045387"><ele>23.42857142857143</ele><time>2026-04-18T12:29:38Z</time></trkpt><trkpt lat="38.95769553964457" lon="8.413256088281285"><ele>23.0</ele><time>2026-04-18T12:29:40Z</time></trkpt><trkpt lat="38.95762350335792" lon="8.413304588805767"><ele>23.0</ele><time>2026-04-18T12:29:42Z</time></trkpt><trkpt lat="38.95754919994916" lon="8.413341491877327"><ele>23.0</ele><time>2026-04-18T12:29:44Z</time></trkpt><trkpt lat="38.957473251524775" lon="8.413391725723947"><ele>23.0</ele><time>2026-04-18T12:29:46Z</time></trkpt><trkpt lat="38.95738755501576" lon="8.413448192027948"><ele>23.0</ele><time>2026-04-18T12:29:48Z</time></trkpt><trkpt lat="38.957296297490004" lon="8.413516572536626"><ele>23.0</ele><time>2026-04-18T12:29:50Z</time></trkpt><trkpt lat="38.957205192324324" lon="8.413586979579565"><ele>22.2</ele><time>2026-04-18T12:29:52Z</time></trkpt><trkpt lat="38.95713256632022" lon="8.413652340460825"><ele>21.4</ele><time>2026-04-18T12:29:54Z</time></trkpt><trkpt lat="38.95704353046252" lon="8.413652884405712"><ele>20.599999999999998</ele><time>2026-04-18T12:29:56Z</time></trkpt><trkpt lat="38.956957012104105" lon="8.413671688165286"><ele>19.799999999999997</ele><time>2026-04-18T12:29:58Z</time></trkpt><trkpt lat="38.956860163788974" lon="8.413725733300579"><ele>19.0</ele><time>2026-04-18T12:30:00Z</time></trkpt><trkpt lat="38.956781266791225" lon="8.413752526030109"><ele>19.0</ele><time>2026-04-18T12:30:02Z</time></trkpt><trkpt lat="38.95670990748691" lon="8.413797396890095"><ele>19.0</ele><time>2026-04-18T12:30:04Z</time></trkpt><trkpt lat="38.95663847324479" lon="8.413767557210164"><ele>19.0</ele><time>2026-04-18T12:30:06Z</time></trkpt><trkpt lat="38.95658042225111" lon="8.413682808220551"><ele>19.0</ele><time>2026-04-18T12:30:08Z</time></trkpt><trkpt lat="38.95651317286957" lon="8.413573497460886"><ele>19.0</ele><time>2026-04-18T12:30:10Z</time></trkpt><trkpt lat="38.95644622360784" lon="8.413462618086383"><ele>18.2</ele><time>2026-04-18T12:30:12Z</time></trkpt><trkpt lat="38.956382822296966" lon="8.413351304796123"><ele>17.4</ele><time>2026-04-18T12:30:14Z</time></trkpt><trkpt lat="38.95630706520676" lon="8.413285146387164"><ele>16.6</ele><time>2026-04-18T12:30:16Z</time></trkpt><trkpt lat="38.95626633098016" lon="8.413198920372354"><ele>15.8</ele><time>2026-04-18T12:30:18Z</time></trkpt><trkpt lat="38.95625114394472" lon="8.413060231158193"><ele>15.0</ele><time>2026-04-18T12:30:20Z</time></trkpt><trkpt lat="38.95622701373636" lon="8.41292991773181"><ele>15.0</ele><time>2026-04-18T12:30:22Z</time></trkpt><trkpt lat="38.956166518268795" lon="8.412809797156582"><ele>15.0</ele><time>2026-04-18T12:30:24Z</time></trkpt><trkpt lat="38.956105884774416" lon="8.412719538289195"><ele>15.0</ele><time>2026-04-18T12:30:26Z</time></trkpt><trkpt lat="38.956080115848785" lon="8.412628811388144"><ele>15.0</ele><time>2026-04-18T12:30:28Z</time></trkpt><trkpt lat="38.95609832136921" lon="8.412543571733414"><ele>15.0</ele><time>2026-04-18T12:39:58Z</time></trkpt><trkpt lat="38.9561909791113" lon="8.412500985521158"><ele>15.0</ele><time>2026-04-18T12:40:01Z</time></trkpt><trkpt lat="38.956265710449834" lon="8.412463790924365"><ele>15.0</ele><time>2026-04-18T12:40:03Z</time></trkpt><trkpt lat="38.956342802352026" lon="8.412428411103912"><ele>15.0</ele><time>2026-04-18T12:40:05Z</time></trkpt><trkpt lat="38.95642176001341" lon="8.412433152028953"><ele>15.0</ele><time>2026-04-18T12:40:07Z</time></trkpt><trkpt lat="38.95651055728851" lon="8.412456073484778"><ele>15.0</ele><time>2026-04-18T12:40:09Z</time></trkpt><trkpt lat="38.956604027119056" lon="8.412435935866528"><ele>15.0</ele><time>2026-04-18T12:40:11Z</time></trkpt><trkpt lat="38.95668455645069" lon="8.412385676361462"><ele>15.0</ele><time>2026-04-18T12:40:13Z</time></trkpt><trkpt lat="38.956769021742616" lon="8.41236679181803"><ele>15.833333333333334</ele><time>2026-04-18T12:40:15Z</time></trkpt><trkpt lat="38.95687357410129" lon="8.41234980802634"><ele>16.666666666666668</ele><time>2026-04-18T12:40:17Z</time></trkpt><trkpt lat="38.956987807593315" lon="8.41231845945471"><ele>17.5</ele><time>2026-04-18T12:40:19Z</time></trkpt><trkpt lat="38.95705063869744" lon="8.412294617752025"><ele>18.333333333333336</ele><time>2026-04-18T12:40:20Z</time></trkpt><trkpt lat="38.95711513401783" lon="8.412272090307539"><ele>19.166666666666668</ele><time>2026-04-18T12:40:21Z</time></trkpt><trkpt lat="38.95717879021527" lon="8.412272754516346"><ele>20.0</ele><time>2026-04-18T12:40:22Z</time></trkpt><trkpt lat="38.957292745543505" lon="8.412305272429945"><ele>20.0</ele><time>2026-04-18T12:40:24Z</time></trkpt><trkpt lat="38.957399883201894" lon="8.41233427476121"><ele>20.0</ele><time>2026-04-18T12:40:26Z</time></trkpt><trkpt lat="38.95749200694735" lon="8.412325959037089"><ele>20.0</ele><time>2026-04-18T12:40:28Z</time></trkpt><trkpt lat="38.957578019694765" lon="8.412326828909315"><ele>20.0</ele><time>2026-04-18T12:40:43Z</time></trkpt><trkpt lat="38.9576661805402" lon="8.412365947559799"><ele>20.0</ele><time>2026-04-18T12:40:45Z</time></trkpt><trkpt lat="38.957746586553725" lon="8.412333952926348"><ele>21.0</ele><time>2026-04-18T12:40:47Z</time></trkpt><trkpt lat="38.95783513982038" lon="8.412323077455108"><ele>22.0</ele><time>2026-04-18T12:40:49Z</time></trkpt><trkpt lat="38.95792641391143" lon="8.412300900750543"><ele>23.0</ele><time>2026-04-18T12:40:51Z</time></trkpt><trkpt lat="38.958001689014765" lon="8.4122907657929"><ele>24.0</ele><time>2026-04-18T12:40:53Z</time></trkpt><trkpt lat="38.95810288484208" lon="8.412302775031833"><ele>25.0</ele><time>2026-04-18T12:40:55Z</time></trkpt><trkpt lat="38.95820347712256" lon="8.412273717163519"><ele>25.0</ele><time>2026-04-18T12:40:57Z</time></trkpt><trkpt lat="38.958296427679926" lon="8.412233492523965"><ele>25.0</ele><time>2026-04-18T12:40:59Z</time></trkpt><trkpt lat="38.95839830966828" lon="8.412243295462467"><ele>25.0</ele><time>2026-04-18T12:41:01Z</time></trkpt><trkpt lat="38.9584992964887" lon="8.412262571916914"><ele>25.0</ele><time>2026-04-18T12:41:03Z</time></trkpt><trkpt lat="38.95861160122313" lon="8.412285339207891"><ele>25.0</ele><time>2026-04-18T12:41:05Z</time></trkpt><trkpt lat="38.95872586647465" lon="8.412270812244001"><ele>25.166666666666668</ele><time>2026-04-18T12:41:07Z</time></trkpt><trkpt lat="38.95880786612389" lon="8.412254347245142"><ele>25.333333333333336</ele><time>2026-04-18T12:41:09Z</time></trkpt><trkpt lat="38.958879967104096" lon="8.412271853826748"><ele>25.5</ele><time>2026-04-18T12:41:11Z</time></trkpt><trkpt lat="38.95895753138617" lon="8.412265107693218"><ele>25.666666666666664</ele><time>2026-04-18T12:41:13Z</time></trkpt><trkpt lat="38.95904212595937" lon="8.412212329380045"><ele>25.833333333333332</ele><time>2026-04-18T12:41:54Z</time></trkpt><trkpt lat="38.95913154296213" lon="8.412143938838748"><ele>26.0</ele><time>2026-04-18T12:41:56Z</time></trkpt><trkpt lat="38.95922668239832" lon="8.412039819826594"><ele>26.499999999999996</ele><time>2026-04-18T12:41:58Z</time></trkpt><trkpt lat="38.95928593923885" lon="8.411977144326793"><ele>27.0</ele><time>2026-04-18T12:41:59Z</time></trkpt><trkpt lat="38.9593547374221" lon="8.411926694259881"><ele>27.5</ele><time>2026-04-18T12:42:00Z</time></trkpt><trkpt lat="38.95942886700135" lon="8.41188222087859"><ele>28.0</ele><time>2026-04-18T12:42:01Z</time></trkpt><trkpt lat="38.95949809100556" lon="8.41184006231213"><ele>28.499999999999996</ele><time>2026-04-18T12:42:02Z</time></trkpt><trkpt lat="38.959566424318815" lon="8.411790607991733"><ele>29.0</ele><time>2026-04-18T12:42:03Z</time></trkpt><trkpt lat="38.959635946806436" lon="8.41174334252113"><ele>28.999999999999996</ele><time>2026-04-18T12:42:04Z</time></trkpt><trkpt lat="38.95970123932071" lon="8.411701320191579"><ele>29.0</ele><time>2026-04-18T12:42:05Z</time></trkpt><trkpt lat="38.959755021673445" lon="8.41165478001593"><ele>29.0</ele><time>2026-04-18T12:42:06Z</time></trkpt><trkpt lat="38.95980845321242" lon="8.411607122146343"><ele>29.0</ele><time>2026-04-18T12:42:07Z</time></trkpt><trkpt lat="38.95991464032567" lon="8.41157487801263"><ele>28.999999999999996</ele><time>2026-04-18T12:42:09Z</time></trkpt><trkpt lat="38.95999734140744" lon="8.41158098970619"><ele>29.0</ele><time>2026-04-18T12:42:11Z</time></trkpt><trkpt lat="38.9600674543756" lon="8.411663007509826"><ele>29.000000000000004</ele><time>2026-04-18T12:42:14Z</time></trkpt><trkpt lat="38.96008520909104" lon="8.411741526063548"><ele>29.0</ele><time>2026-04-18T12:42:16Z</time></trkpt><trkpt lat="38.960079070350496" lon="8.411823113308934"><ele>29.000000000000004</ele><time>2026-04-18T12:42:18Z</time></trkpt><trkpt lat="38.96005211488066" lon="8.411912136052726"><ele>29.000000000000004</ele><time>2026-04-18T12:42:21Z</time></trkpt><trkpt lat="38.960015558617904" lon="8.411986204773996"><ele>29.0</ele><time>2026-04-18T12:42:23Z</time></trkpt><trkpt lat="38.9599974112999" lon="8.412104874761864"><ele>29.000000000000004</ele><time>2026-04-18T12:42:26Z</time></trkpt><trkpt lat="38.9599688682904" lon="8.412200070036054"><ele>29.000000000000004</ele><time>2026-04-18T12:42:29Z</time></trkpt><trkpt lat="38.959950070326684" lon="8.412300903572397"><ele>28.0</ele><time>2026-04-18T12:42:32Z</time></trkpt><trkpt lat="38.95993296068479" lon="8.412405102064401"><ele>27.0</ele><time>2026-04-18T12:42:34Z</time></trkpt><trkpt lat="38.95991032405399" lon="8.412555206260274"><ele>26.0</ele><time>2026-04-18T12:42:36Z</time></trkpt><trkpt lat="38.95990958676293" lon="8.412708000307557"><ele>25.0</ele><time>2026-04-18T12:42:38Z</time></trkpt><trkpt lat="38.959954998319866" lon="8.412815064292472"><ele>24.0</ele><time>2026-04-18T12:42:40Z</time></trkpt><trkpt lat="38.95998515833418" lon="8.412957019673753"><ele>23.5</ele><time>2026-04-18T12:42:42Z</time></trkpt><trkpt lat="38.959967787004985" lon="8.41304703654287"><ele>23.0</ele><time>2026-04-18T12:42:43Z</time></trkpt><trkpt lat="38.95995416756226" lon="8.413135293076438"><ele>22.5</ele><time>2026-04-18T12:42:44Z</time></trkpt><trkpt lat="38.95995406421041" lon="8.413231352395265"><ele>22.0</ele><time>2026-04-18T12:42:45Z</time></trkpt><trkpt lat="38.959957079406344" lon="8.4133339771919"><ele>21.5</ele><time>2026-04-18T12:42:46Z</time></trkpt><trkpt lat="38.9599660906809" lon="8.413440205261352"><ele>21.0</ele><time>2026-04-18T12:42:47Z</time></trkpt><trkpt lat="38.95998497159126" lon="8.413568659099116"><ele>21.0</ele><time>2026-04-18T12:42:48Z</time></trkpt><trkpt lat="38.960000693208826" lon="8.413688184187123"><ele>21.0</ele><time>2026-04-18T12:42:49Z</time></trkpt><trkpt lat="38.96001337426417" lon="8.413793263341002"><ele>21.0</ele><time>2026-04-18T12:42:50Z</time></trkpt><trkpt lat="38.96002450279736" lon="8.4138893824474"><ele>21.0</ele><time>2026-04-18T12:42:51Z</time></trkpt><trkpt lat="38.96003311325344" lon="8.413983424474734"><ele>21.0</ele><time>2026-04-18T12:42:52Z</time></trkpt><trkpt lat="38.96003634392385" lon="8.414069485103738"><ele>21.0</ele><time>2026-04-18T12:42:53Z</time></trkpt><trkpt lat="38.96004412015594" lon="8.414206328613774"><ele>20.400000000000002</ele><time>2026-04-18T12:42:55Z</time></trkpt><trkpt lat="38.960068449696465" lon="8.41430926189077"><ele>19.8</ele><time>2026-04-18T12:43:16Z</time></trkpt><trkpt lat="38.96002117275048" lon="8.414405911937537"><ele>19.200000000000003</ele><time>2026-04-18T12:43:18Z</time></trkpt><trkpt lat="38.95992350950464" lon="8.414487501825688"><ele>18.6</ele><time>2026-04-18T12:43:20Z</time></trkpt><trkpt lat="38.959867819923886" lon="8.414527062331565"><ele>18.0</ele><time>2026-04-18T12:43:21Z</time></trkpt><trkpt lat="38.959763397442075" lon="8.414591842205784"><ele>17.833333333333332</ele><time>2026-04-18T12:43:23Z</time></trkpt><trkpt lat="38.95969697241164" lon="8.414720284628554"><ele>17.666666666666668</ele><time>2026-04-18T12:43:25Z</time></trkpt><trkpt lat="38.95969680879219" lon="8.4148065726687"><ele>17.5</ele><time>2026-04-18T12:43:26Z</time></trkpt><trkpt lat="38.95970576366426" lon="8.414897516266587"><ele>17.333333333333336</ele><time>2026-04-18T12:43:27Z</time></trkpt><trkpt lat="38.95971936307686" lon="8.414999182861335"><ele>17.166666666666668</ele><time>2026-04-18T12:43:28Z</time></trkpt><trkpt lat="38.95973365561434" lon="8.415102237658788"><ele>17.0</ele><time>2026-04-18T12:43:29Z</time></trkpt><trkpt lat="38.95975139662718" lon="8.415206415190056"><ele>17.0</ele><time>2026-04-18T12:43:30Z</time></trkpt><trkpt lat="38.95979090956796" lon="8.415304447953623"><ele>17.0</ele><time>2026-04-18T12:43:31Z</time></trkpt><trkpt lat="38.95984775645772" lon="8.415385165733221"><ele>17.0</ele><time>2026-04-18T12:43:32Z</time></trkpt><trkpt lat="38.95991342969549" lon="8.415467753528835"><ele>17.0</ele><time>2026-04-18T12:43:33Z</time></trkpt><trkpt lat="38.959984815783066" lon="8.415550446463872"><ele>17.0</ele><time>2026-04-18T12:43:34Z</time></trkpt><trkpt lat="38.9600585238285" lon="8.415632196787138"><ele>17.6</ele><time>2026-04-18T12:43:35Z</time></trkpt><trkpt lat="38.96013516929208" lon="8.41571072145797"><ele>18.2</ele><time>2026-04-18T12:43:36Z</time></trkpt><trkpt lat="38.960211858076725" lon="8.415786694942115"><ele>18.8</ele><time>2026-04-18T12:43:37Z</time></trkpt><trkpt lat="38.960286198443335" lon="8.415863578032445"><ele>19.4</ele><time>2026-04-18T12:43:38Z</time></trkpt><trkpt lat="38.960353583700794" lon="8.415945977549484"><ele>20.0</ele><time>2026-04-18T12:43:39Z</time></trkpt><trkpt lat="38.96041131954131" lon="8.416034750822044"><ele>20.0</ele><time>2026-04-18T12:43:40Z</time></trkpt><trkpt lat="38.96046554394648" lon="8.416122371076215"><ele>20.0</ele><time>2026-04-18T12:43:41Z</time></trkpt><trkpt lat="38.96050937935781" lon="8.41622179725487"><ele>20.0</ele><time>2026-04-18T12:43:42Z</time></trkpt><trkpt lat="38.96054434438192" lon="8.416324900698852"><ele>20.0</ele><time>2026-04-18T12:43:43Z</time></trkpt><trkpt lat="38.960560187787365" lon="8.416431537372087"><ele>20.0</ele><time>2026-04-18T12:43:44Z</time></trkpt><trkpt lat="38.960571273641314" lon="8.416540254470235"><ele>20.0</ele><time>2026-04-18T12:43:45Z</time></trkpt><trkpt lat="38.96059185653189" lon="8.416635430096491"><ele>19.333333333333336</ele><time>2026-04-18T12:43:46Z</time></trkpt><trkpt lat="38.9606308311879" lon="8.416719967122607"><ele>18.666666666666668</ele><time>2026-04-18T12:43:47Z</time></trkpt><trkpt lat="38.96068172780501" lon="8.41678767549163"><ele>18.0</ele><time>2026-04-18T12:43:48Z</time></trkpt><trkpt lat="38.96074043826075" lon="8.416852827033914"><ele>17.333333333333332</ele><time>2026-04-18T12:43:49Z</time></trkpt><trkpt lat="38.96080666554877" lon="8.416919239970065"><ele>16.666666666666664</ele><time>2026-04-18T12:43:50Z</time></trkpt><trkpt lat="38.96087732839437" lon="8.416981946985095"><ele>16.0</ele><time>2026-04-18T12:43:51Z</time></trkpt><trkpt lat="38.960952037512286" lon="8.417043336373368"><ele>16.400000000000002</ele><time>2026-04-18T12:43:52Z</time></trkpt><trkpt lat="38.96103489509492" lon="8.417098224320995"><ele>16.8</ele><time>2026-04-18T12:43:53Z</time></trkpt><trkpt lat="38.96112313960585" lon="8.417142588534137"><ele>17.200000000000003</ele><time>2026-04-18T12:43:54Z</time></trkpt><trkpt lat="38.961210045750065" lon="8.417186780483176"><ele>17.6</ele><time>2026-04-18T12:43:55Z</time></trkpt><trkpt lat="38.9612903978687" lon="8.417249201696837"><ele>18.0</ele><time>2026-04-18T12:43:56Z</time></trkpt><trkpt lat="38.96136162753801" lon="8.417326125523786"><ele>18.0</ele><time>2026-04-18T12:43:57Z</time></trkpt><trkpt lat="38.96141633502466" lon="8.417414024007108"><ele>18.0</ele><time>2026-04-18T12:43:58Z</time></trkpt><trkpt lat="38.961468700103026" lon="8.417507557625624"><ele>18.0</ele><time>2026-04-18T12:43:59Z</time></trkpt><trkpt lat="38.96151714835059" lon="8.417599858019067"><ele>18.0</ele><time>2026-04-18T12:44:00Z</time></trkpt><trkpt lat="38.96155854070435" lon="8.417696265992332"><ele>18.0</ele><time>2026-04-18T12:44:01Z</time></trkpt><trkpt lat="38.961595002126764" lon="8.417794294623825"><ele>18.0</ele><time>2026-04-18T12:44:02Z</time></trkpt><trkpt lat="38.96163439612897" lon="8.417883705527325"><ele>18.0</ele><time>2026-04-18T12:44:03Z</time></trkpt><trkpt lat="38.96169338924879" lon="8.41796322972896"><ele>18.0</ele><time>2026-04-18T12:44:04Z</time></trkpt><trkpt lat="38.9617639928811" lon="8.418031732977363"><ele>18.0</ele><time>2026-04-18T12:44:05Z</time></trkpt><trkpt lat="38.961837624967174" lon="8.418102686488867"><ele>18.0</ele><time>2026-04-18T12:44:06Z</time></trkpt><trkpt lat="38.96191094836216" lon="8.41817876493971"><ele>18.0</ele><time>2026-04-18T12:44:07Z</time></trkpt><trkpt lat="38.96198713075241" lon="8.41826001226929"><ele>17.6</ele><time>2026-04-18T12:44:08Z</time></trkpt><trkpt lat="38.96206654293646" lon="8.418343099375875"><ele>17.200000000000003</ele><time>2026-04-18T12:44:09Z</time></trkpt><trkpt lat="38.9621462233104" lon="8.418427604085482"><ele>16.8</ele><time>2026-04-18T12:44:10Z</time></trkpt><trkpt lat="38.962227873411365" lon="8.418515312683857"><ele>16.400000000000002</ele><time>2026-04-18T12:44:11Z</time></trkpt><trkpt lat="38.96231465691165" lon="8.418603445272028"><ele>16.0</ele><time>2026-04-18T12:44:12Z</time></trkpt><trkpt lat="38.962401538511315" lon="8.418697493519907"><ele>16.0</ele><time>2026-04-18T12:44:13Z</time></trkpt><trkpt lat="38.962488884579905" lon="8.418798540901658"><ele>16.0</ele><time>2026-04-18T12:44:14Z</time></trkpt><trkpt lat="38.962579321067444" lon="8.418897768011359"><ele>16.0</ele><time>2026-04-18T12:44:15Z</time></trkpt><trkpt lat="38.96267231834407" lon="8.418998551987855"><ele>16.0</ele><time>2026-04-18T12:44:16Z</time></trkpt><trkpt lat="38.96276450339509" lon="8.419100949416691"><ele>16.25</ele><time>2026-04-18T12:44:17Z</time></trkpt><trkpt lat="38.96285380203163" lon="8.419205981827075"><ele>16.5</ele><time>2026-04-18T12:44:18Z</time></trkpt><trkpt lat="38.962943050828876" lon="8.419308811183491"><ele>16.75</ele><time>2026-04-18T12:44:19Z</time></trkpt><trkpt lat="38.9630302833899" lon="8.419404305394833"><ele>17.0</ele><time>2026-04-18T12:44:20Z</time></trkpt><trkpt lat="38.96310970368049" lon="8.419497541394781"><ele>17.0</ele><time>2026-04-18T12:44:21Z</time></trkpt><trkpt lat="38.96317879428007" lon="8.41957537869886"><ele>17.0</ele><time>2026-04-18T12:44:22Z</time></trkpt><trkpt lat="38.96322960882449" lon="8.419649403636361"><ele>17.0</ele><time>2026-04-18T12:44:23Z</time></trkpt><trkpt lat="38.963259376058474" lon="8.419725354451876"><ele>17.0</ele><time>2026-04-18T12:44:24Z</time></trkpt><trkpt lat="38.96324681908815" lon="8.419873701172854"><ele>17.0</ele><time>2026-04-18T12:44:26Z</time></trkpt><trkpt lat="38.96320207766843" lon="8.419948858705446"><ele>17.0</ele><time>2026-04-18T12:44:27Z</time></trkpt><trkpt lat="38.963139660230006" lon="8.420021814667159"><ele>17.0</ele><time>2026-04-18T12:44:28Z</time></trkpt><trkpt lat="38.96306482452905" lon="8.420097465944902"><ele>17.0</ele><time>2026-04-18T12:44:29Z</time></trkpt><trkpt lat="38.96298530127492" lon="8.42017904780746"><ele>17.0</ele><time>2026-04-18T12:44:30Z</time></trkpt><trkpt lat="38.962920529152996" lon="8.420265280476473"><ele>17.0</ele><time>2026-04-18T12:44:31Z</time></trkpt><trkpt lat="38.96286324075411" lon="8.420352673222146"><ele>17.0</ele><time>2026-04-18T12:44:32Z</time></trkpt><trkpt lat="38.96286067651398" lon="8.420438490894954"><ele>17.0</ele><time>2026-04-18T12:44:33Z</time></trkpt><trkpt lat="38.96288487475583" lon="8.420528122319656"><ele>16.6</ele><time>2026-04-18T12:44:34Z</time></trkpt><trkpt lat="38.9629353466636" lon="8.420626831733623"><ele>16.2</ele><time>2026-04-18T12:44:35Z</time></trkpt><trkpt lat="38.96299549302703" lon="8.420725874993696"><ele>15.8</ele><time>2026-04-18T12:44:36Z</time></trkpt><trkpt lat="38.96306679573016" lon="8.42082485776877"><ele>15.4</ele><time>2026-04-18T12:44:37Z</time></trkpt><trkpt lat="38.963134242960905" lon="8.420920672733814"><ele>15.0</ele><time>2026-04-18T12:44:38Z</time></trkpt><trkpt lat="38.963192167685804" lon="8.421010862949085"><ele>15.0</ele><time>2026-04-18T12:44:39Z</time></trkpt><trkpt lat="38.963225278865806" lon="8.421141474255947"><ele>15.0</ele><time>2026-04-18T12:44:41Z</time></trkpt><trkpt lat="38.963199685089435" lon="8.421257278100635"><ele>15.0</ele><time>2026-04-18T12:44:43Z</time></trkpt><trkpt lat="38.96313791281006" lon="8.42140678893999"><ele>15.0</ele><time>2026-04-18T12:44:45Z</time></trkpt><trkpt lat="38.963109359789726" lon="8.421504936022389"><ele>15.0</ele><time>2026-04-18T12:44:46Z</time></trkpt><trkpt lat="38.96308496965621" lon="8.421613744085585"><ele>14.8</ele><time>2026-04-18T12:44:47Z</time></trkpt><trkpt lat="38.96306046380308" lon="8.421734407536817"><ele>14.6</ele><time>2026-04-18T12:44:48Z</time></trkpt><trkpt lat="38.96303684456703" lon="8.421863742727052"><ele>14.399999999999999</ele><time>2026-04-18T12:44:49Z</time></trkpt><trkpt lat="38.963016075984505" lon="8.422000403898053"><ele>14.2</ele><time>2026-04-18T12:44:50Z</time></trkpt><trkpt lat="38.96301138276994" lon="8.422149327714067"><ele>14.0</ele><time>2026-04-18T12:44:51Z</time></trkpt><trkpt lat="38.963018832197015" lon="8.42230415309995"><ele>15.0</ele><time>2026-04-18T12:44:52Z</time></trkpt><trkpt lat="38.96302565937251" lon="8.422463640881396"><ele>16.0</ele><time>2026-04-18T12:44:53Z</time></trkpt><trkpt lat="38.963035618218306" lon="8.422628337031313"><ele>17.0</ele><time>2026-04-18T12:44:54Z</time></trkpt><trkpt lat="38.963046639665166" lon="8.422795150825426"><ele>18.0</ele><time>2026-04-18T12:44:55Z</time></trkpt><trkpt lat="38.96306281817751" lon="8.422958304937021"><ele>19.25</ele><time>2026-04-18T12:44:56Z</time></trkpt><trkpt lat="38.96307623210895" lon="8.423120070598523"><ele>20.5</ele><time>2026-04-18T12:44:57Z</time></trkpt><trkpt lat="38.963088113157355" lon="8.423283159536922"><ele>21.75</ele><time>2026-04-18T12:44:58Z</time></trkpt><trkpt lat="38.96309845533372" lon="8.423445007061163"><ele>23.0</ele><time>2026-04-18T12:44:59Z</time></trkpt><trkpt lat="38.96310930669642" lon="8.423607938563787"><ele>23.0</ele><time>2026-04-18T12:45:00Z</time></trkpt><trkpt lat="38.96312161777226" lon="8.423774002311488"><ele>23.0</ele><time>2026-04-18T12:45:01Z</time></trkpt><trkpt lat="38.96313497561642" lon="8.423940242546625"><ele>23.0</ele><time>2026-04-18T12:45:02Z</time></trkpt><trkpt lat="38.96314720032936" lon="8.424103101471212"><ele>23.0</ele><time>2026-04-18T12:45:03Z</time></trkpt><trkpt lat="38.96315344267008" lon="8.424261162714236"><ele>24.799999999999997</ele><time>2026-04-18T12:45:04Z</time></trkpt><trkpt lat="38.963159659025635" lon="8.424397325425762"><ele>26.6</ele><time>2026-04-18T12:45:05Z</time></trkpt><trkpt lat="38.963176553799975" lon="8.424510407211985"><ele>28.400000000000002</ele><time>2026-04-18T12:45:06Z</time></trkpt><trkpt lat="38.96321110194249" lon="8.424605151556825"><ele>30.200000000000003</ele><time>2026-04-18T12:45:07Z</time></trkpt><trkpt lat="38.96326347311866" lon="8.424706642445482"><ele>32.0</ele><time>2026-04-18T12:45:08Z</time></trkpt><trkpt lat="38.96333267845962" lon="8.424812433093537"><ele>35.75</ele><time>2026-04-18T12:45:09Z</time></trkpt><trkpt lat="38.96341594522878" lon="8.424918426868382"><ele>39.5</ele><time>2026-04-18T12:45:10Z</time></trkpt><trkpt lat="38.96350704189258" lon="8.425030055797434"><ele>43.25</ele><time>2026-04-18T12:45:11Z</time></trkpt><trkpt lat="38.96360187388361" lon="8.425147548832072"><ele>47.0</ele><time>2026-04-18T12:45:12Z</time></trkpt><trkpt lat="38.96369500013595" lon="8.425276187277936"><ele>47.0</ele><time>2026-04-18T12:45:13Z</time></trkpt><trkpt lat="38.96379132034664" lon="8.425412493481828"><ele>47.0</ele><time>2026-04-18T12:45:14Z</time></trkpt><trkpt lat="38.96388488155543" lon="8.425544685579498"><ele>47.0</ele><time>2026-04-18T12:45:15Z</time></trkpt><trkpt lat="38.96397399990401" lon="8.425661551619372"><ele>47.0</ele><time>2026-04-18T12:45:16Z</time></trkpt><trkpt lat="38.96406196337572" lon="8.425769849268153"><ele>47.0</ele><time>2026-04-18T12:45:17Z</time></trkpt><trkpt lat="38.96415134302973" lon="8.425869232825962"><ele>47.0</ele><time>2026-04-18T12:45:18Z</time></trkpt><trkpt lat="38.96424296302978" lon="8.425961929698378"><ele>47.0</ele><time>2026-04-18T12:45:19Z</time></trkpt><trkpt lat="38.96433425021202" lon="8.426052736261145"><ele>47.0</ele><time>2026-04-18T12:45:20Z</time></trkpt><trkpt lat="38.96441914813757" lon="8.426138280983658"><ele>47.666666666666664</ele><time>2026-04-18T12:45:21Z</time></trkpt><trkpt lat="38.96448723795921" lon="8.426206617400117"><ele>48.33333333333333</ele><time>2026-04-18T12:45:22Z</time></trkpt><trkpt lat="38.96454134298764" lon="8.426262537410054"><ele>49.0</ele><time>2026-04-18T12:45:23Z</time></trkpt><trkpt lat="38.964615915305565" lon="8.426320755129879"><ele>49.666666666666664</ele><time>2026-04-18T12:45:25Z</time></trkpt><trkpt lat="38.96465554621959" lon="8.426390486382358"><ele>50.333333333333336</ele><time>2026-04-18T12:45:28Z</time></trkpt><trkpt lat="38.964735261753674" lon="8.426297066505665"><ele>51.0</ele><time>2026-04-18T12:45:29Z</time></trkpt><trkpt lat="38.96479914358216" lon="8.426271456880054"><ele>51.0</ele><time>2026-04-18T12:45:32Z</time></trkpt><trkpt lat="38.96489489084571" lon="8.4263332802755"><ele>51.0</ele><time>2026-04-18T12:45:35Z</time></trkpt><trkpt lat="38.96497651814758" lon="8.426421952411383"><ele>51.0</ele><time>2026-04-18T12:45:37Z</time></trkpt><trkpt lat="38.96502691584042" lon="8.4264765974201"><ele>51.0</ele><time>2026-04-18T12:45:38Z</time></trkpt><trkpt lat="38.965079555381855" lon="8.426532647939208"><ele>51.0</ele><time>2026-04-18T12:45:39Z</time></trkpt><trkpt lat="38.9651357796318" lon="8.426593138182492"><ele>51.0</ele><time>2026-04-18T12:45:40Z</time></trkpt><trkpt lat="38.965199463656454" lon="8.426660620237813"><ele>52.199999999999996</ele><time>2026-04-18T12:45:41Z</time></trkpt><trkpt lat="38.96526491046092" lon="8.426731368140729"><ele>53.4</ele><time>2026-04-18T12:45:42Z</time></trkpt><trkpt lat="38.96533350920625" lon="8.426807758706472"><ele>54.6</ele><time>2026-04-18T12:45:43Z</time></trkpt><trkpt lat="38.96540482930142" lon="8.42688332132293"><ele>55.8</ele><time>2026-04-18T12:45:44Z</time></trkpt><trkpt lat="38.96547882150816" lon="8.42695628294308"><ele>57.0</ele><time>2026-04-18T12:45:45Z</time></trkpt><trkpt lat="38.96555512665397" lon="8.427032012794628"><ele>57.0</ele><time>2026-04-18T12:45:46Z</time></trkpt><trkpt lat="38.96562471205608" lon="8.427108105059997"><ele>57.0</ele><time>2026-04-18T12:45:47Z</time></trkpt><trkpt lat="38.96568213310322" lon="8.427174278276727"><ele>57.0</ele><time>2026-04-18T12:45:48Z</time></trkpt><trkpt lat="38.96573152425369" lon="8.427231812309518"><ele>57.0</ele><time>2026-04-18T12:45:49Z</time></trkpt><trkpt lat="38.96580412466714" lon="8.427313106522965"><ele>57.0</ele><time>2026-04-18T12:45:51Z</time></trkpt><trkpt lat="38.96585624061935" lon="8.427371537930544"><ele>57.0</ele><time>2026-04-18T12:45:53Z</time></trkpt><trkpt lat="38.965907409898726" lon="8.427419115804884"><ele>57.0</ele><time>2026-04-18T12:45:56Z</time></trkpt><trkpt lat="38.965972263674615" lon="8.427485105409401"><ele>57.0</ele><time>2026-04-18T12:45:58Z</time></trkpt><trkpt lat="38.96602392805367" lon="8.427555319733555"><ele>57.0</ele><time>2026-04-18T12:46:00Z</time></trkpt><trkpt lat="38.96608484591221" lon="8.427623590021309"><ele>57.0</ele><time>2026-04-18T12:46:03Z</time></trkpt><trkpt lat="38.96605550407479" lon="8.4275405713634"><ele>57.0</ele><time>2026-04-18T12:46:37Z</time></trkpt><trkpt lat="38.965988551993384" lon="8.427477478971243"><ele>57.0</ele><time>2026-04-18T12:46:40Z</time></trkpt><trkpt lat="38.9659264926941" lon="8.427411773293224"><ele>57.0</ele><time>2026-04-18T12:46:42Z</time></trkpt><trkpt lat="38.96585371125026" lon="8.427331346421127"><ele>57.0</ele><time>2026-04-18T12:46:43Z</time></trkpt><trkpt lat="38.965788563058005" lon="8.427249159430845"><ele>57.0</ele><time>2026-04-18T12:46:44Z</time></trkpt><trkpt lat="38.9657257817476" lon="8.427181657185209"><ele>57.0</ele><time>2026-04-18T12:46:45Z</time></trkpt><trkpt lat="38.965659993264175" lon="8.427111322726487"><ele>57.0</ele><time>2026-04-18T12:46:46Z</time></trkpt><trkpt lat="38.9655947576065" lon="8.42703882466326"><ele>57.0</ele><time>2026-04-18T12:46:47Z</time></trkpt><trkpt lat="38.96552980806764" lon="8.426962957521276"><ele>57.0</ele><time>2026-04-18T12:46:48Z</time></trkpt><trkpt lat="38.96546766803625" lon="8.426891515003621"><ele>57.0</ele><time>2026-04-18T12:46:49Z</time></trkpt><trkpt lat="38.96541107020946" lon="8.42683005466217"><ele>57.0</ele><time>2026-04-18T12:46:50Z</time></trkpt><trkpt lat="38.96536016354803" lon="8.42677403611716"><ele>57.0</ele><time>2026-04-18T12:46:51Z</time></trkpt><trkpt lat="38.96527535064925" lon="8.426680302466584"><ele>57.0</ele><time>2026-04-18T12:46:53Z</time></trkpt><trkpt lat="38.965206191643716" lon="8.426604030610564"><ele>57.0</ele><time>2026-04-18T12:46:55Z</time></trkpt><trkpt lat="38.96515042358977" lon="8.426546285344198"><ele>57.0</ele><time>2026-04-18T12:46:57Z</time></trkpt><trkpt lat="38.96509061067195" lon="8.426484140158456"><ele>57.0</ele><time>2026-04-18T12:47:00Z</time></trkpt><trkpt lat="38.96503860367002" lon="8.426423912144768"><ele>57.0</ele><time>2026-04-18T12:47:04Z</time></trkpt><trkpt lat="38.9648865603486" lon="8.426284168674442"><ele>57.0</ele><time>2026-04-18T12:47:08Z</time></trkpt><trkpt lat="38.96483168952021" lon="8.426225003214372"><ele>57.0</ele><time>2026-04-18T12:47:09Z</time></trkpt><trkpt lat="38.96479248059912" lon="8.426155924555486"><ele>56.833333333333336</ele><time>2026-04-18T12:47:10Z</time></trkpt><trkpt lat="38.96472835841378" lon="8.426103219781002"><ele>56.66666666666667</ele><time>2026-04-18T12:47:12Z</time></trkpt><trkpt lat="38.964671331383926" lon="8.426179412876337"><ele>56.5</ele><time>2026-04-18T12:47:14Z</time></trkpt><trkpt lat="38.964728190014874" lon="8.426292637798174"><ele>56.333333333333336</ele><time>2026-04-18T12:47:16Z</time></trkpt><trkpt lat="38.96479647634578" lon="8.426314962681754"><ele>56.16666666666667</ele><time>2026-04-18T12:47:17Z</time></trkpt><trkpt lat="38.96486766608282" lon="8.426323090738748"><ele>56.0</ele><time>2026-04-18T12:47:18Z</time></trkpt><trkpt lat="38.96492634008403" lon="8.426361511485563"><ele>56.199999999999996</ele><time>2026-04-18T12:47:19Z</time></trkpt><trkpt lat="38.96498163339181" lon="8.426404624228516"><ele>56.39999999999999</ele><time>2026-04-18T12:47:20Z</time></trkpt><trkpt lat="38.965043144270005" lon="8.426473292797818"><ele>56.6</ele><time>2026-04-18T12:47:22Z</time></trkpt><trkpt lat="38.96513996262777" lon="8.426601029361521"><ele>56.8</ele><time>2026-04-18T12:47:24Z</time></trkpt><trkpt lat="38.965213491355904" lon="8.426684103523696"><ele>57.0</ele><time>2026-04-18T12:47:25Z</time></trkpt><trkpt lat="38.9653073509366" lon="8.42678018226086"><ele>57.0</ele><time>2026-04-18T12:47:26Z</time></trkpt><trkpt lat="38.965408673053155" lon="8.426882237786227"><ele>57.0</ele><time>2026-04-18T12:47:27Z</time></trkpt><trkpt lat="38.96551101112336" lon="8.426992896501059"><ele>57.0</ele><time>2026-04-18T12:47:28Z</time></trkpt><trkpt lat="38.96562113034703" lon="8.427113987111328"><ele>57.0</ele><time>2026-04-18T12:47:29Z</time></trkpt><trkpt lat="38.96574016016327" lon="8.427243196630386"><ele>57.0</ele><time>2026-04-18T12:47:30Z</time></trkpt><trkpt lat="38.965861300962516" lon="8.427373861195617"><ele>57.0</ele><time>2026-04-18T12:47:31Z</time></trkpt><trkpt lat="38.9659827220897" lon="8.427507069691238"><ele>57.0</ele><time>2026-04-18T12:47:32Z</time></trkpt><trkpt lat="38.96610795410408" lon="8.427643266926758"><ele>57.0</ele><time>2026-04-18T12:47:33Z</time></trkpt><trkpt lat="38.96623519496695" lon="8.427782539441894"><ele>57.0</ele><time>2026-04-18T12:47:34Z</time></trkpt><trkpt lat="38.966364188290214" lon="8.42792605825704"><ele>57.0</ele><time>2026-04-18T12:47:35Z</time></trkpt><trkpt lat="38.966490897453355" lon="8.428070558476348"><ele>57.66666666666667</ele><time>2026-04-18T12:47:36Z</time></trkpt><trkpt lat="38.96661212435986" lon="8.428225188813524"><ele>58.333333333333336</ele><time>2026-04-18T12:47:37Z</time></trkpt><trkpt lat="38.966732490711046" lon="8.428373570363513"><ele>59.0</ele><time>2026-04-18T12:47:38Z</time></trkpt><trkpt lat="38.96685005416709" lon="8.428515380672682"><ele>59.0</ele><time>2026-04-18T12:47:39Z</time></trkpt><trkpt lat="38.96696541673835" lon="8.428657978474527"><ele>59.0</ele><time>2026-04-18T12:47:40Z</time></trkpt><trkpt lat="38.96708265683367" lon="8.428795954870605"><ele>59.0</ele><time>2026-04-18T12:47:41Z</time></trkpt><trkpt lat="38.96719802179952" lon="8.428934178022432"><ele>57.333333333333336</ele><time>2026-04-18T12:47:42Z</time></trkpt><trkpt lat="38.96732932877354" lon="8.429094425810815"><ele>55.66666666666667</ele><time>2026-04-18T12:47:43Z</time></trkpt><trkpt lat="38.96745376763093" lon="8.429245601888253"><ele>54.0</ele><time>2026-04-18T12:47:44Z</time></trkpt><trkpt lat="38.96757475104026" lon="8.429399039419687"><ele>57.0</ele><time>2026-04-18T12:47:45Z</time></trkpt><trkpt lat="38.967694086396136" lon="8.42955766121537"><ele>60.0</ele><time>2026-04-18T12:47:46Z</time></trkpt><trkpt lat="38.967814720193154" lon="8.429712448802686"><ele>63.0</ele><time>2026-04-18T12:47:47Z</time></trkpt><trkpt lat="38.967939191441246" lon="8.429870182471257"><ele>63.0</ele><time>2026-04-18T12:47:48Z</time></trkpt><trkpt lat="38.96806317046482" lon="8.43002602107602"><ele>63.0</ele><time>2026-04-18T12:47:49Z</time></trkpt><trkpt lat="38.968185493170914" lon="8.430187239919603"><ele>63.0</ele><time>2026-04-18T12:47:50Z</time></trkpt><trkpt lat="38.96830612740866" lon="8.430347738650022"><ele>68.0</ele><time>2026-04-18T12:47:51Z</time></trkpt><trkpt lat="38.968427728635554" lon="8.4305072269223"><ele>73.0</ele><time>2026-04-18T12:47:52Z</time></trkpt><trkpt lat="38.96855143879104" lon="8.430664180096441"><ele>78.0</ele><time>2026-04-18T12:47:53Z</time></trkpt><trkpt lat="38.96867821224112" lon="8.430824746783738"><ele>78.0</ele><time>2026-04-18T12:47:54Z</time></trkpt><trkpt lat="38.968802946796885" lon="8.430986122125843"><ele>78.0</ele><time>2026-04-18T12:47:55Z</time></trkpt><trkpt lat="38.96892272035371" lon="8.431153720453272"><ele>78.0</ele><time>2026-04-18T12:47:56Z</time></trkpt><trkpt lat="38.96903042441696" lon="8.431329606377767"><ele>77.66666666666667</ele><time>2026-04-18T12:47:57Z</time></trkpt><trkpt lat="38.96912296888727" lon="8.431523456245056"><ele>77.33333333333334</ele><time>2026-04-18T12:47:58Z</time></trkpt><trkpt lat="38.96920667071244" lon="8.43173198377559"><ele>77.0</ele><time>2026-04-18T12:47:59Z</time></trkpt><trkpt lat="38.96928187159085" lon="8.43195101608779"><ele>78.0</ele><time>2026-04-18T12:48:00Z</time></trkpt><trkpt lat="38.969345169523685" lon="8.43218338849751"><ele>79.0</ele><time>2026-04-18T12:48:01Z</time></trkpt><trkpt lat="38.96939766611649" lon="8.432428521396842"><ele>80.0</ele><time>2026-04-18T12:48:02Z</time></trkpt><trkpt lat="38.969444855002045" lon="8.432678944031508"><ele>80.0</ele><time>2026-04-18T12:48:03Z</time></trkpt><trkpt lat="38.969490496832094" lon="8.432906371125712"><ele>80.0</ele><time>2026-04-18T12:48:04Z</time></trkpt><trkpt lat="38.96955940189436" lon="8.43313421182332"><ele>80.0</ele><time>2026-04-18T12:48:05Z</time></trkpt><trkpt lat="38.96964954775729" lon="8.433351578595426"><ele>79.33333333333334</ele><time>2026-04-18T12:48:06Z</time></trkpt><trkpt lat="38.9697560405705" lon="8.433553331686696"><ele>78.66666666666667</ele><time>2026-04-18T12:48:07Z</time></trkpt><trkpt lat="38.96988192186032" lon="8.433732600564033"><ele>78.0</ele><time>2026-04-18T12:48:08Z</time></trkpt><trkpt lat="38.97003115258419" lon="8.433887654280962"><ele>80.0</ele><time>2026-04-18T12:48:09Z</time></trkpt><trkpt lat="38.970184789210094" lon="8.4340126312059"><ele>82.0</ele><time>2026-04-18T12:48:10Z</time></trkpt><trkpt lat="38.97033110606688" lon="8.43413324269796"><ele>84.0</ele><time>2026-04-18T12:48:11Z</time></trkpt><trkpt lat="38.97046706958661" lon="8.43427720744895"><ele>84.0</ele><time>2026-04-18T12:48:12Z</time></trkpt><trkpt lat="38.97058637257994" lon="8.434453093941462"><ele>84.0</ele><time>2026-04-18T12:48:13Z</time></trkpt><trkpt lat="38.97069082022076" lon="8.434653514347229"><ele>84.0</ele><time>2026-04-18T12:48:14Z</time></trkpt><trkpt lat="38.9707664259896" lon="8.434872265434903"><ele>86.0</ele><time>2026-04-18T12:48:15Z</time></trkpt><trkpt lat="38.97081811193145" lon="8.435100325445436"><ele>88.0</ele><time>2026-04-18T12:48:16Z</time></trkpt><trkpt lat="38.970867026597766" lon="8.435327952675191"><ele>90.0</ele><time>2026-04-18T12:48:17Z</time></trkpt><trkpt lat="38.97092124362057" lon="8.435545396599831"><ele>84.33333333333333</ele><time>2026-04-18T12:48:18Z</time></trkpt><trkpt lat="38.9709624161827" lon="8.43575513601418"><ele>78.66666666666666</ele><time>2026-04-18T12:48:19Z</time></trkpt><trkpt lat="38.97099994951877" lon="8.435964480172064"><ele>73.0</ele><time>2026-04-18T12:48:20Z</time></trkpt><trkpt lat="38.97104901579719" lon="8.436155585441151"><ele>69.0</ele><time>2026-04-18T12:48:21Z</time></trkpt><trkpt lat="38.971099310431335" lon="8.436336160605247"><ele>65.0</ele><time>2026-04-18T12:48:22Z</time></trkpt><trkpt lat="38.97116889032674" lon="8.436509354261693"><ele>61.0</ele><time>2026-04-18T12:48:23Z</time></trkpt><trkpt lat="38.971257930047344" lon="8.436665452924395"><ele>61.0</ele><time>2026-04-18T12:48:24Z</time></trkpt><trkpt lat="38.97135999563072" lon="8.436814354772563"><ele>61.0</ele><time>2026-04-18T12:48:25Z</time></trkpt><trkpt lat="38.971476303634006" lon="8.43695397888184"><ele>61.0</ele><time>2026-04-18T12:48:26Z</time></trkpt><trkpt lat="38.97160696798236" lon="8.437075056596498"><ele>61.33333333333333</ele><time>2026-04-18T12:48:27Z</time></trkpt><trkpt lat="38.971748098252796" lon="8.437185923611112"><ele>61.66666666666667</ele><time>2026-04-18T12:48:28Z</time></trkpt><trkpt lat="38.971893646875635" lon="8.437293573289455"><ele>62.0</ele><time>2026-04-18T12:48:29Z</time></trkpt><trkpt lat="38.97203819473977" lon="8.437400319613824"><ele>62.0</ele><time>2026-04-18T12:48:30Z</time></trkpt><trkpt lat="38.97218018357341" lon="8.43750947017007"><ele>62.0</ele><time>2026-04-18T12:48:31Z</time></trkpt><trkpt lat="38.972323411390924" lon="8.437621854204501"><ele>62.0</ele><time>2026-04-18T12:48:32Z</time></trkpt><trkpt lat="38.97246786869295" lon="8.437731684199981"><ele>60.333333333333336</ele><time>2026-04-18T12:48:33Z</time></trkpt><trkpt lat="38.97261078493527" lon="8.437838200567995"><ele>58.66666666666667</ele><time>2026-04-18T12:48:34Z</time></trkpt><trkpt lat="38.97275409331947" lon="8.437951133112946"><ele>57.0</ele><time>2026-04-18T12:48:35Z</time></trkpt><trkpt lat="38.972897088171955" lon="8.438067548077777"><ele>57.0</ele><time>2026-04-18T12:48:36Z</time></trkpt><trkpt lat="38.97303960691861" lon="8.438180681075076"><ele>57.0</ele><time>2026-04-18T12:48:37Z</time></trkpt><trkpt lat="38.97318368528299" lon="8.438294064513057"><ele>57.0</ele><time>2026-04-18T12:48:38Z</time></trkpt><trkpt lat="38.97332593364353" lon="8.43841445499927"><ele>62.0</ele><time>2026-04-18T12:48:39Z</time></trkpt><trkpt lat="38.973463933555145" lon="8.438530831593738"><ele>67.0</ele><time>2026-04-18T12:48:40Z</time></trkpt><trkpt lat="38.97360312936734" lon="8.438637674469254"><ele>72.0</ele><time>2026-04-18T12:48:41Z</time></trkpt><trkpt lat="38.973740084499674" lon="8.43874056241376"><ele>65.0</ele><time>2026-04-18T12:48:42Z</time></trkpt><trkpt lat="38.97387644558332" lon="8.43885337936277"><ele>58.0</ele><time>2026-04-18T12:48:43Z</time></trkpt><trkpt lat="38.974013826109385" lon="8.438968948056642"><ele>51.0</ele><time>2026-04-18T12:48:44Z</time></trkpt><trkpt lat="38.974155014810066" lon="8.439085970038935"><ele>54.66666666666667</ele><time>2026-04-18T12:48:45Z</time></trkpt><trkpt lat="38.97429553825047" lon="8.439210670608123"><ele>58.333333333333336</ele><time>2026-04-18T12:48:46Z</time></trkpt><trkpt lat="38.97443659222817" lon="8.439337676418399"><ele>62.0</ele><time>2026-04-18T12:48:47Z</time></trkpt><trkpt lat="38.974578633640064" lon="8.439454872104648"><ele>62.0</ele><time>2026-04-18T12:48:48Z</time></trkpt><trkpt lat="38.974721896772984" lon="8.439558040891493"><ele>62.0</ele><time>2026-04-18T12:48:49Z</time></trkpt><trkpt lat="38.97486508266808" lon="8.43964727563628"><ele>62.0</ele><time>2026-04-18T12:48:50Z</time></trkpt><trkpt lat="38.9750147250263" lon="8.439720715703835"><ele>57.5</ele><time>2026-04-18T12:48:51Z</time></trkpt><trkpt lat="38.97515892071332" lon="8.439767503625685"><ele>53.0</ele><time>2026-04-18T12:48:52Z</time></trkpt><trkpt lat="38.975302805871955" lon="8.439798412587846"><ele>48.5</ele><time>2026-04-18T12:48:53Z</time></trkpt><trkpt lat="38.975449757914085" lon="8.439807382614957"><ele>44.0</ele><time>2026-04-18T12:48:54Z</time></trkpt><trkpt lat="38.97560220376317" lon="8.43980593965553"><ele>44.0</ele><time>2026-04-18T12:48:55Z</time></trkpt><trkpt lat="38.9757608569476" lon="8.439794884506535"><ele>44.0</ele><time>2026-04-18T12:48:56Z</time></trkpt><trkpt lat="38.97592380572416" lon="8.439782699150653"><ele>44.0</ele><time>2026-04-18T12:48:57Z</time></trkpt><trkpt lat="38.976091386891596" lon="8.439771900535753"><ele>43.33333333333333</ele><time>2026-04-18T12:48:58Z</time></trkpt><trkpt lat="38.97626214538317" lon="8.43976317893943"><ele>42.666666666666664</ele><time>2026-04-18T12:48:59Z</time></trkpt><trkpt lat="38.97643327751353" lon="8.43975002283261"><ele>42.0</ele><time>2026-04-18T12:49:00Z</time></trkpt><trkpt lat="38.97659708721649" lon="8.439724987371525"><ele>41.666666666666664</ele><time>2026-04-18T12:49:01Z</time></trkpt><trkpt lat="38.97675494762433" lon="8.439679536637977"><ele>41.33333333333333</ele><time>2026-04-18T12:49:02Z</time></trkpt><trkpt lat="38.97689534185269" lon="8.439589095011321"><ele>41.0</ele><time>2026-04-18T12:49:03Z</time></trkpt><trkpt lat="38.97702418681528" lon="8.439468237257598"><ele>41.0</ele><time>2026-04-18T12:49:04Z</time></trkpt><trkpt lat="38.97713633133157" lon="8.439326493837074"><ele>41.0</ele><time>2026-04-18T12:49:05Z</time></trkpt><trkpt lat="38.977229826812035" lon="8.439162613299276"><ele>41.0</ele><time>2026-04-18T12:49:06Z</time></trkpt><trkpt lat="38.97730566251431" lon="8.438981094990657"><ele>40.33333333333333</ele><time>2026-04-18T12:49:07Z</time></trkpt><trkpt lat="38.97737558995778" lon="8.438792387380264"><ele>39.666666666666664</ele><time>2026-04-18T12:49:08Z</time></trkpt><trkpt lat="38.97744120962234" lon="8.438604719791101"><ele>39.0</ele><time>2026-04-18T12:49:09Z</time></trkpt><trkpt lat="38.977522789714186" lon="8.438423033193235"><ele>39.0</ele><time>2026-04-18T12:49:10Z</time></trkpt><trkpt lat="38.97758747942774" lon="8.438237306761012"><ele>39.0</ele><time>2026-04-18T12:49:11Z</time></trkpt><trkpt lat="38.97764966660602" lon="8.438055054562875"><ele>39.0</ele><time>2026-04-18T12:49:12Z</time></trkpt><trkpt lat="38.97769811387713" lon="8.437868576689844"><ele>43.75</ele><time>2026-04-18T12:49:13Z</time></trkpt><trkpt lat="38.97777056801288" lon="8.437710385618931"><ele>48.5</ele><time>2026-04-18T12:49:14Z</time></trkpt><trkpt lat="38.977859880187616" lon="8.437584824232788"><ele>53.25</ele><time>2026-04-18T12:49:15Z</time></trkpt><trkpt lat="38.97795819405118" lon="8.437504203758195"><ele>58.0</ele><time>2026-04-18T12:49:16Z</time></trkpt><trkpt lat="38.97808349567766" lon="8.437463002237932"><ele>58.0</ele><time>2026-04-18T12:49:17Z</time></trkpt><trkpt lat="38.978220764410075" lon="8.437467100512205"><ele>58.0</ele><time>2026-04-18T12:49:18Z</time></trkpt><trkpt lat="38.97836391996331" lon="8.437522666780408"><ele>58.0</ele><time>2026-04-18T12:49:19Z</time></trkpt><trkpt lat="38.978509054597104" lon="8.437611041774492"><ele>58.0</ele><time>2026-04-18T12:49:20Z</time></trkpt><trkpt lat="38.97865344620448" lon="8.437715170925822"><ele>55.666666666666664</ele><time>2026-04-18T12:49:21Z</time></trkpt><trkpt lat="38.978800855469466" lon="8.437815235164098"><ele>53.33333333333333</ele><time>2026-04-18T12:49:22Z</time></trkpt><trkpt lat="38.97895580902851" lon="8.43791492014602"><ele>51.0</ele><time>2026-04-18T12:49:23Z</time></trkpt><trkpt lat="38.97911008978921" lon="8.438009728510009"><ele>53.33333333333333</ele><time>2026-04-18T12:49:24Z</time></trkpt><trkpt lat="38.97926200757228" lon="8.438105503218821"><ele>55.666666666666664</ele><time>2026-04-18T12:49:25Z</time></trkpt><trkpt lat="38.979410217133776" lon="8.43819819410472"><ele>58.0</ele><time>2026-04-18T12:49:26Z</time></trkpt><trkpt lat="38.979557283537304" lon="8.438270950400604"><ele>58.0</ele><time>2026-04-18T12:49:27Z</time></trkpt><trkpt lat="38.97970757543913" lon="8.438314693823127"><ele>58.0</ele><time>2026-04-18T12:49:28Z</time></trkpt><trkpt lat="38.97986147194175" lon="8.438320904909776"><ele>58.0</ele><time>2026-04-18T12:49:29Z</time></trkpt><trkpt lat="38.98001806363677" lon="8.438299294524981"><ele>57.33333333333333</ele><time>2026-04-18T12:49:30Z</time></trkpt><trkpt lat="38.98017140878803" lon="8.438261462789859"><ele>56.66666666666667</ele><time>2026-04-18T12:49:31Z</time></trkpt><trkpt lat="38.98032425878656" lon="8.438218709232778"><ele>56.0</ele><time>2026-04-18T12:49:32Z</time></trkpt><trkpt lat="38.980477400732994" lon="8.438177919808146"><ele>56.0</ele><time>2026-04-18T12:49:33Z</time></trkpt><trkpt lat="38.98062691436263" lon="8.438133698973708"><ele>56.0</ele><time>2026-04-18T12:49:34Z</time></trkpt><trkpt lat="38.98077404327055" lon="8.43808867637451"><ele>56.0</ele><time>2026-04-18T12:49:35Z</time></trkpt><trkpt lat="38.980920397623294" lon="8.43804476121888"><ele>57.0</ele><time>2026-04-18T12:49:36Z</time></trkpt><trkpt lat="38.981068052510885" lon="8.438009557757853"><ele>58.0</ele><time>2026-04-18T12:49:37Z</time></trkpt><trkpt lat="38.981213992373874" lon="8.437982215364926"><ele>59.0</ele><time>2026-04-18T12:49:38Z</time></trkpt><trkpt lat="38.98136146658737" lon="8.437963113873817"><ele>60.0</ele><time>2026-04-18T12:49:39Z</time></trkpt><trkpt lat="38.98150281272077" lon="8.437947812855475"><ele>60.0</ele><time>2026-04-18T12:49:40Z</time></trkpt><trkpt lat="38.98164333934351" lon="8.437937421031979"><ele>60.0</ele><time>2026-04-18T12:49:41Z</time></trkpt><trkpt lat="38.981785956715804" lon="8.437929534063425"><ele>60.0</ele><time>2026-04-18T12:49:42Z</time></trkpt><trkpt lat="38.981929948686115" lon="8.437921779611433"><ele>60.0</ele><time>2026-04-18T12:49:43Z</time></trkpt><trkpt lat="38.9820811594676" lon="8.437916245791728"><ele>56.66666666666667</ele><time>2026-04-18T12:49:44Z</time></trkpt><trkpt lat="38.98223412090429" lon="8.437911672227786"><ele>53.333333333333336</ele><time>2026-04-18T12:49:45Z</time></trkpt><trkpt lat="38.98238996292431" lon="8.437904026732694"><ele>50.0</ele><time>2026-04-18T12:49:46Z</time></trkpt><trkpt lat="38.98254916171756" lon="8.437893432159917"><ele>47.0</ele><time>2026-04-18T12:49:47Z</time></trkpt><trkpt lat="38.98271082608581" lon="8.43788219317604"><ele>44.0</ele><time>2026-04-18T12:49:48Z</time></trkpt><trkpt lat="38.98287312930344" lon="8.437870601159663"><ele>41.0</ele><time>2026-04-18T12:49:49Z</time></trkpt><trkpt lat="38.98303074406289" lon="8.437860580469083"><ele>41.0</ele><time>2026-04-18T12:49:50Z</time></trkpt><trkpt lat="38.983199196749446" lon="8.437850387231144"><ele>41.0</ele><time>2026-04-18T12:49:51Z</time></trkpt><trkpt lat="38.98336256125864" lon="8.437839922438634"><ele>41.0</ele><time>2026-04-18T12:49:52Z</time></trkpt><trkpt lat="38.983525470580354" lon="8.437829858335837"><ele>37.0</ele><time>2026-04-18T12:49:53Z</time></trkpt><trkpt lat="38.98368557078814" lon="8.437823338328544"><ele>33.0</ele><time>2026-04-18T12:49:54Z</time></trkpt><trkpt lat="38.983843616318026" lon="8.43781757492181"><ele>29.0</ele><time>2026-04-18T12:49:55Z</time></trkpt><trkpt lat="38.98399789173496" lon="8.437810549248498"><ele>29.0</ele><time>2026-04-18T12:49:56Z</time></trkpt><trkpt lat="38.98414709286346" lon="8.43780257710408"><ele>29.0</ele><time>2026-04-18T12:49:57Z</time></trkpt><trkpt lat="38.98429515711103" lon="8.43779719363266"><ele>29.0</ele><time>2026-04-18T12:49:58Z</time></trkpt><trkpt lat="38.98443949385527" lon="8.437798640147602"><ele>29.0</ele><time>2026-04-18T12:49:59Z</time></trkpt><trkpt lat="38.984574285085934" lon="8.437793612498112"><ele>27.0</ele><time>2026-04-18T12:50:00Z</time></trkpt><trkpt lat="38.98469588739475" lon="8.437786308133576"><ele>25.0</ele><time>2026-04-18T12:50:01Z</time></trkpt><trkpt lat="38.98480177961347" lon="8.43780222481123"><ele>23.0</ele><time>2026-04-18T12:50:02Z</time></trkpt><trkpt lat="38.98489045991031" lon="8.437853659877788"><ele>21.0</ele><time>2026-04-18T12:50:03Z</time></trkpt><trkpt lat="38.98495545677453" lon="8.437925831515757"><ele>19.0</ele><time>2026-04-18T12:50:04Z</time></trkpt><trkpt lat="38.98500558519675" lon="8.437998266473208"><ele>18.4</ele><time>2026-04-18T12:50:05Z</time></trkpt><trkpt lat="38.985084905081045" lon="8.438014354310246"><ele>17.799999999999997</ele><time>2026-04-18T12:50:07Z</time></trkpt><trkpt lat="38.98515545048183" lon="8.437942996786582"><ele>17.200000000000003</ele><time>2026-04-18T12:50:09Z</time></trkpt><trkpt lat="38.9851789397217" lon="8.437860976332406"><ele>16.6</ele><time>2026-04-18T12:50:10Z</time></trkpt><trkpt lat="38.98518504996725" lon="8.437760763275657"><ele>16.0</ele><time>2026-04-18T12:50:11Z</time></trkpt><trkpt lat="38.985312623745145" lon="8.437680180754326"><ele>16.0</ele><time>2026-04-18T12:50:12Z</time></trkpt><trkpt lat="38.985414204210905" lon="8.437592268338458"><ele>16.0</ele><time>2026-04-18T12:50:13Z</time></trkpt><trkpt lat="38.98552061170808" lon="8.437486515688033"><ele>16.0</ele><time>2026-04-18T12:50:14Z</time></trkpt><trkpt lat="38.98562868548691" lon="8.437354818898354"><ele>16.0</ele><time>2026-04-18T12:50:15Z</time></trkpt><trkpt lat="38.98574767301812" lon="8.437220966489852"><ele>18.333333333333332</ele><time>2026-04-18T12:50:16Z</time></trkpt><trkpt lat="38.985851784356846" lon="8.437068304373582"><ele>20.666666666666668</ele><time>2026-04-18T12:50:17Z</time></trkpt><trkpt lat="38.98595105961254" lon="8.436893582250347"><ele>23.0</ele><time>2026-04-18T12:50:18Z</time></trkpt><trkpt lat="38.986047675073344" lon="8.436715307604011"><ele>23.0</ele><time>2026-04-18T12:50:19Z</time></trkpt><trkpt lat="38.9861482905492" lon="8.436529048398588"><ele>23.0</ele><time>2026-04-18T12:50:20Z</time></trkpt><trkpt lat="38.986248451063176" lon="8.436341248351546"><ele>23.0</ele><time>2026-04-18T12:50:21Z</time></trkpt><trkpt lat="38.98635010474779" lon="8.436150004700709"><ele>22.666666666666668</ele><time>2026-04-18T12:50:22Z</time></trkpt><trkpt lat="38.98645285294418" lon="8.435956702075824"><ele>22.333333333333332</ele><time>2026-04-18T12:50:23Z</time></trkpt><trkpt lat="38.98655554604259" lon="8.435763503060562"><ele>22.0</ele><time>2026-04-18T12:50:24Z</time></trkpt><trkpt lat="38.98665952683636" lon="8.435568987265015"><ele>24.0</ele><time>2026-04-18T12:50:25Z</time></trkpt><trkpt lat="38.98676417623137" lon="8.43537401510599"><ele>26.0</ele><time>2026-04-18T12:50:26Z</time></trkpt><trkpt lat="38.98687087938112" lon="8.435178777368408"><ele>28.0</ele><time>2026-04-18T12:50:27Z</time></trkpt><trkpt lat="38.986977594292995" lon="8.434980079419502"><ele>28.0</ele><time>2026-04-18T12:50:28Z</time></trkpt><trkpt lat="38.987081891104815" lon="8.434780694501868"><ele>28.0</ele><time>2026-04-18T12:50:29Z</time></trkpt><trkpt lat="38.987175350261246" lon="8.434566417119958"><ele>28.0</ele><time>2026-04-18T12:50:30Z</time></trkpt><trkpt lat="38.98728188309122" lon="8.434365494687144"><ele>27.0</ele><time>2026-04-18T12:50:31Z</time></trkpt><trkpt lat="38.98740227063279" lon="8.434174608530737"><ele>26.0</ele><time>2026-04-18T12:50:32Z</time></trkpt><trkpt lat="38.98751080138117" lon="8.433971350995048"><ele>25.0</ele><time>2026-04-18T12:50:33Z</time></trkpt><trkpt lat="38.98761886078308" lon="8.433768976176523"><ele>27.666666666666668</ele><time>2026-04-18T12:50:34Z</time></trkpt><trkpt lat="38.98772597145651" lon="8.433568378153113"><ele>30.333333333333336</ele><time>2026-04-18T12:50:35Z</time></trkpt><trkpt lat="38.98783087318187" lon="8.433371917102864"><ele>33.0</ele><time>2026-04-18T12:50:36Z</time></trkpt><trkpt lat="38.987933003500665" lon="8.433178739594922"><ele>33.0</ele><time>2026-04-18T12:50:37Z</time></trkpt><trkpt lat="38.988025547076255" lon="8.433003322907698"><ele>33.0</ele><time>2026-04-18T12:50:38Z</time></trkpt><trkpt lat="38.988111084946006" lon="8.432841187744893"><ele>33.0</ele><time>2026-04-18T12:50:39Z</time></trkpt><trkpt lat="38.988185138186616" lon="8.43269030414253"><ele>32.5</ele><time>2026-04-18T12:50:40Z</time></trkpt><trkpt lat="38.988280146103946" lon="8.432575094955727"><ele>32.0</ele><time>2026-04-18T12:50:41Z</time></trkpt><trkpt lat="38.988380412247565" lon="8.4324803921418"><ele>31.5</ele><time>2026-04-18T12:50:42Z</time></trkpt><trkpt lat="38.98849060971738" lon="8.43239655759554"><ele>31.0</ele><time>2026-04-18T12:50:43Z</time></trkpt><trkpt lat="38.98861241325727" lon="8.432325323370137"><ele>31.0</ele><time>2026-04-18T12:50:44Z</time></trkpt><trkpt lat="38.98874918348833" lon="8.432252376700887"><ele>31.0</ele><time>2026-04-18T12:50:45Z</time></trkpt><trkpt lat="38.988892971932266" lon="8.432172619534596"><ele>31.0</ele><time>2026-04-18T12:50:46Z</time></trkpt><trkpt lat="38.989046710485184" lon="8.432086224160056"><ele>29.666666666666668</ele><time>2026-04-18T12:50:47Z</time></trkpt><trkpt lat="38.98920331297394" lon="8.431996571084065"><ele>28.333333333333336</ele><time>2026-04-18T12:50:48Z</time></trkpt><trkpt lat="38.989374211418074" lon="8.43192613254742"><ele>27.0</ele><time>2026-04-18T12:50:49Z</time></trkpt><trkpt lat="38.989543165363095" lon="8.43183528161898"><ele>27.0</ele><time>2026-04-18T12:50:50Z</time></trkpt><trkpt lat="38.989707705142436" lon="8.431725195235172"><ele>27.0</ele><time>2026-04-18T12:50:51Z</time></trkpt><trkpt lat="38.98988240655008" lon="8.431636024771159"><ele>27.0</ele><time>2026-04-18T12:50:52Z</time></trkpt><trkpt lat="38.9900560895595" lon="8.431546454517195"><ele>26.666666666666664</ele><time>2026-04-18T12:50:53Z</time></trkpt><trkpt lat="38.99023112628204" lon="8.431455233459927"><ele>26.333333333333332</ele><time>2026-04-18T12:50:54Z</time></trkpt><trkpt lat="38.99040650735503" lon="8.43136083144932"><ele>26.0</ele><time>2026-04-18T12:50:55Z</time></trkpt><trkpt lat="38.99057927149013" lon="8.431269711879166"><ele>27.0</ele><time>2026-04-18T12:50:56Z</time></trkpt><trkpt lat="38.99076137804069" lon="8.431178771675693"><ele>28.0</ele><time>2026-04-18T12:50:57Z</time></trkpt><trkpt lat="38.99093768045964" lon="8.431081818694938"><ele>29.0</ele><time>2026-04-18T12:50:58Z</time></trkpt><trkpt lat="38.99110428656534" lon="8.430977921698135"><ele>26.666666666666664</ele><time>2026-04-18T12:50:59Z</time></trkpt><trkpt lat="38.991264731314715" lon="8.430861539860322"><ele>24.333333333333332</ele><time>2026-04-18T12:51:00Z</time></trkpt><trkpt lat="38.99141591543167" lon="8.430729418997407"><ele>22.0</ele><time>2026-04-18T12:51:01Z</time></trkpt><trkpt lat="38.99156515647012" lon="8.430581006967625"><ele>21.333333333333332</ele><time>2026-04-18T12:51:02Z</time></trkpt><trkpt lat="38.9917163359508" lon="8.430428646416269"><ele>20.666666666666668</ele><time>2026-04-18T12:51:03Z</time></trkpt><trkpt lat="38.991864903970885" lon="8.4302788891553"><ele>20.0</ele><time>2026-04-18T12:51:04Z</time></trkpt><trkpt lat="38.992023983392166" lon="8.430151725522869"><ele>20.0</ele><time>2026-04-18T12:51:05Z</time></trkpt><trkpt lat="38.992172079479964" lon="8.430008525318616"><ele>20.0</ele><time>2026-04-18T12:51:06Z</time></trkpt><trkpt lat="38.99232193203478" lon="8.42986234856469"><ele>20.0</ele><time>2026-04-18T12:51:07Z</time></trkpt><trkpt lat="38.992472909009926" lon="8.429712909681783"><ele>19.333333333333336</ele><time>2026-04-18T12:51:08Z</time></trkpt><trkpt lat="38.99261591205165" lon="8.429547584217376"><ele>18.666666666666668</ele><time>2026-04-18T12:51:09Z</time></trkpt><trkpt lat="38.99277307316652" lon="8.429398389807314"><ele>18.0</ele><time>2026-04-18T12:51:10Z</time></trkpt><trkpt lat="38.992890897332714" lon="8.429274989176417"><ele>18.0</ele><time>2026-04-18T12:51:11Z</time></trkpt><trkpt lat="38.993031515672364" lon="8.429145347022965"><ele>18.0</ele><time>2026-04-18T12:51:12Z</time></trkpt><trkpt lat="38.99317238734262" lon="8.429027041326234"><ele>18.0</ele><time>2026-04-18T12:51:13Z</time></trkpt><trkpt lat="38.99331571120945" lon="8.428914846300321"><ele>18.333333333333332</ele><time>2026-04-18T12:51:14Z</time></trkpt><trkpt lat="38.993460594737634" lon="8.42881117462548"><ele>18.666666666666664</ele><time>2026-04-18T12:51:15Z</time></trkpt><trkpt lat="38.993602383247776" lon="8.428709567941036"><ele>19.0</ele><time>2026-04-18T12:51:16Z</time></trkpt><trkpt lat="38.993742577770455" lon="8.428610189126811"><ele>19.333333333333332</ele><time>2026-04-18T12:51:17Z</time></trkpt><trkpt lat="38.99387865979047" lon="8.428509399112993"><ele>19.666666666666668</ele><time>2026-04-18T12:51:18Z</time></trkpt><trkpt lat="38.99400937693701" lon="8.428399099269498"><ele>20.0</ele><time>2026-04-18T12:51:19Z</time></trkpt><trkpt lat="38.99414208478395" lon="8.428297748187276"><ele>20.333333333333336</ele><time>2026-04-18T12:51:20Z</time></trkpt><trkpt lat="38.99425568292513" lon="8.42816315411772"><ele>20.666666666666668</ele><time>2026-04-18T12:51:21Z</time></trkpt><trkpt lat="38.99436357245484" lon="8.428023614749494"><ele>21.0</ele><time>2026-04-18T12:51:22Z</time></trkpt><trkpt lat="38.994469001648596" lon="8.427882762187908"><ele>21.333333333333332</ele><time>2026-04-18T12:51:23Z</time></trkpt><trkpt lat="38.99457364635808" lon="8.427740186290912"><ele>21.666666666666664</ele><time>2026-04-18T12:51:24Z</time></trkpt><trkpt lat="38.99468121103472" lon="8.427597966078029"><ele>22.0</ele><time>2026-04-18T12:51:25Z</time></trkpt><trkpt lat="38.99477949482259" lon="8.427441918321565"><ele>22.0</ele><time>2026-04-18T12:51:26Z</time></trkpt><trkpt lat="38.99489660681087" lon="8.42730791545847"><ele>22.0</ele><time>2026-04-18T12:51:27Z</time></trkpt><trkpt lat="38.995000731211725" lon="8.427165147755927"><ele>22.0</ele><time>2026-04-18T12:51:28Z</time></trkpt><trkpt lat="38.995107321123264" lon="8.427035058255186"><ele>22.25</ele><time>2026-04-18T12:51:29Z</time></trkpt><trkpt lat="38.99521136952996" lon="8.426899580373771"><ele>22.5</ele><time>2026-04-18T12:51:30Z</time></trkpt><trkpt lat="38.995336330997546" lon="8.426797510724052"><ele>22.75</ele><time>2026-04-18T12:51:31Z</time></trkpt><trkpt lat="38.995471670327184" lon="8.426721497733201"><ele>23.0</ele><time>2026-04-18T12:51:32Z</time></trkpt><trkpt lat="38.99561612796052" lon="8.42666160216171"><ele>23.0</ele><time>2026-04-18T12:51:33Z</time></trkpt><trkpt lat="38.99576638462918" lon="8.426607514668206"><ele>23.0</ele><time>2026-04-18T12:51:34Z</time></trkpt><trkpt lat="38.99592084161116" lon="8.42655238050489"><ele>23.0</ele><time>2026-04-18T12:51:35Z</time></trkpt><trkpt lat="38.99607919898374" lon="8.426490510068112"><ele>23.0</ele><time>2026-04-18T12:51:36Z</time></trkpt><trkpt lat="38.99624096394007" lon="8.42642996602208"><ele>23.0</ele><time>2026-04-18T12:51:37Z</time></trkpt><trkpt lat="38.996401177918294" lon="8.426376056098318"><ele>23.0</ele><time>2026-04-18T12:51:38Z</time></trkpt><trkpt lat="38.99655718297139" lon="8.426317403425548"><ele>23.333333333333336</ele><time>2026-04-18T12:51:39Z</time></trkpt><trkpt lat="38.99670865899757" lon="8.42623360753206"><ele>23.666666666666668</ele><time>2026-04-18T12:51:40Z</time></trkpt><trkpt lat="38.996847043395036" lon="8.426127588037565"><ele>24.0</ele><time>2026-04-18T12:51:41Z</time></trkpt><trkpt lat="38.99697996648985" lon="8.426004056448129"><ele>24.0</ele><time>2026-04-18T12:51:42Z</time></trkpt><trkpt lat="38.99711190370223" lon="8.425880195201987"><ele>24.0</ele><time>2026-04-18T12:51:43Z</time></trkpt><trkpt lat="38.997234467925665" lon="8.425735109143623"><ele>24.0</ele><time>2026-04-18T12:51:44Z</time></trkpt><trkpt lat="38.99734995744517" lon="8.425589690701953"><ele>24.0</ele><time>2026-04-18T12:51:45Z</time></trkpt><trkpt lat="38.99745634346136" lon="8.425426710857224"><ele>24.0</ele><time>2026-04-18T12:51:46Z</time></trkpt><trkpt lat="38.9975712398452" lon="8.425282059534558"><ele>24.0</ele><time>2026-04-18T12:51:47Z</time></trkpt><trkpt lat="38.997695347936336" lon="8.425156812072444"><ele>24.25</ele><time>2026-04-18T12:51:48Z</time></trkpt><trkpt lat="38.99780264615253" lon="8.425027961767956"><ele>24.5</ele><time>2026-04-18T12:51:49Z</time></trkpt><trkpt lat="38.997899160196454" lon="8.42489780444742"><ele>24.75</ele><time>2026-04-18T12:51:50Z</time></trkpt><trkpt lat="38.998010786721686" lon="8.424801940440325"><ele>25.0</ele><time>2026-04-18T12:51:51Z</time></trkpt><trkpt lat="38.998134437427865" lon="8.424721349350795"><ele>25.0</ele><time>2026-04-18T12:51:52Z</time></trkpt><trkpt lat="38.9982706857232" lon="8.424657125728388"><ele>25.0</ele><time>2026-04-18T12:51:53Z</time></trkpt><trkpt lat="38.99841486377669" lon="8.424594566106665"><ele>25.0</ele><time>2026-04-18T12:51:54Z</time></trkpt><trkpt lat="38.99856844401506" lon="8.4245471988644"><ele>26.0</ele><time>2026-04-18T12:51:55Z</time></trkpt><trkpt lat="38.99871775909728" lon="8.424463257156168"><ele>27.0</ele><time>2026-04-18T12:51:56Z</time></trkpt><trkpt lat="38.998876149334194" lon="8.424408713590992"><ele>28.0</ele><time>2026-04-18T12:51:57Z</time></trkpt><trkpt lat="38.99904037760206" lon="8.424364606093196"><ele>28.333333333333336</ele><time>2026-04-18T12:51:58Z</time></trkpt><trkpt lat="38.9992067085211" lon="8.424341771343737"><ele>28.666666666666664</ele><time>2026-04-18T12:51:59Z</time></trkpt><trkpt lat="38.99936277933625" lon="8.424344168107956"><ele>29.0</ele><time>2026-04-18T12:52:00Z</time></trkpt><trkpt lat="38.9995081100038" lon="8.424353060746826"><ele>29.0</ele><time>2026-04-18T12:52:01Z</time></trkpt><trkpt lat="38.99964040448196" lon="8.424356547976187"><ele>29.0</ele><time>2026-04-18T12:52:02Z</time></trkpt><trkpt lat="38.99975741447043" lon="8.424361058803418"><ele>29.0</ele><time>2026-04-18T12:52:03Z</time></trkpt><trkpt lat="38.99985201836503" lon="8.424362531866764"><ele>29.0</ele><time>2026-04-18T12:52:04Z</time></trkpt><trkpt lat="38.999914954458774" lon="8.42435849414408"><ele>29.0</ele><time>2026-04-18T12:52:05Z</time></trkpt><trkpt lat="38.999993805207254" lon="8.42435170381166"><ele>29.0</ele><time>2026-04-18T12:52:12Z</time></trkpt><trkpt lat="38.99997649388147" lon="8.424122002715587"><ele>29.0</ele><time>2026-04-18T12:52:14Z</time></trkpt><trkpt lat="38.99996436019449" lon="8.424013454959324"><ele>29.0</ele><time>2026-04-18T12:52:15Z</time></trkpt><trkpt lat="38.999936808474445" lon="8.423893182578928"><ele>29.0</ele><time>2026-04-18T12:52:16Z</time></trkpt><trkpt lat="38.999911053743865" lon="8.423769970926807"><ele>30.0</ele><time>2026-04-18T12:52:17Z</time></trkpt><trkpt lat="38.99989609260805" lon="8.423640805120142"><ele>31.0</ele><time>2026-04-18T12:52:18Z</time></trkpt><trkpt lat="38.9998885680496" lon="8.423502523050221"><ele>32.0</ele><time>2026-04-18T12:52:19Z</time></trkpt><trkpt lat="38.99989619327275" lon="8.423369866201144"><ele>33.0</ele><time>2026-04-18T12:52:20Z</time></trkpt><trkpt lat="38.99990394841701" lon="8.423256069297583"><ele>34.0</ele><time>2026-04-18T12:52:21Z</time></trkpt><trkpt lat="38.99991384096403" lon="8.423131396687525"><ele>34.0</ele><time>2026-04-18T12:52:22Z</time></trkpt><trkpt lat="38.99993728809214" lon="8.423010746290101"><ele>34.0</ele><time>2026-04-18T12:52:23Z</time></trkpt><trkpt lat="38.999967023250456" lon="8.422884761883413"><ele>34.0</ele><time>2026-04-18T12:52:24Z</time></trkpt><trkpt lat="38.99999359573114" lon="8.422744585312328"><ele>34.0</ele><time>2026-04-18T12:52:25Z</time></trkpt><trkpt lat="39.0000462884792" lon="8.422604880649025"><ele>34.0</ele><time>2026-04-18T12:52:26Z</time></trkpt><trkpt lat="39.000122553472636" lon="8.422468438040559"><ele>34.25</ele><time>2026-04-18T12:52:27Z</time></trkpt><trkpt lat="39.00019796163931" lon="8.422319283872254"><ele>34.5</ele><time>2026-04-18T12:52:28Z</time></trkpt><trkpt lat="39.000278345656746" lon="8.42216647354153"><ele>34.75</ele><time>2026-04-18T12:52:29Z</time></trkpt><trkpt lat="39.000355513857535" lon="8.422017376433647"><ele>35.0</ele><time>2026-04-18T12:52:30Z</time></trkpt><trkpt lat="39.000432620951386" lon="8.421860652714235"><ele>35.0</ele><time>2026-04-18T12:52:31Z</time></trkpt><trkpt lat="39.00050274562239" lon="8.421693475688887"><ele>35.0</ele><time>2026-04-18T12:52:32Z</time></trkpt><trkpt lat="39.00055118830415" lon="8.421515153884089"><ele>35.0</ele><time>2026-04-18T12:52:33Z</time></trkpt><trkpt lat="39.000577595061955" lon="8.42132288108643"><ele>35.0</ele><time>2026-04-18T12:52:34Z</time></trkpt><trkpt lat="39.00056686285197" lon="8.421122847806604"><ele>35.33333333333333</ele><time>2026-04-18T12:52:35Z</time></trkpt><trkpt lat="39.00052277645345" lon="8.420930298086551"><ele>35.666666666666664</ele><time>2026-04-18T12:52:36Z</time></trkpt><trkpt lat="39.00045299863591" lon="8.420744268604336"><ele>36.0</ele><time>2026-04-18T12:52:37Z</time></trkpt><trkpt lat="39.00036300598773" lon="8.42056952623308"><ele>37.0</ele><time>2026-04-18T12:52:38Z</time></trkpt><trkpt lat="39.00027056039773" lon="8.420401076359378"><ele>38.0</ele><time>2026-04-18T12:52:39Z</time></trkpt><trkpt lat="39.00017652861989" lon="8.420236019256851"><ele>39.0</ele><time>2026-04-18T12:52:40Z</time></trkpt><trkpt lat="39.00008703437811" lon="8.420084702235258"><ele>39.0</ele><time>2026-04-18T12:52:41Z</time></trkpt><trkpt lat="39.00000318239024" lon="8.419950588376027"><ele>39.0</ele><time>2026-04-18T12:52:42Z</time></trkpt><trkpt lat="38.99991617461287" lon="8.419831246763511"><ele>39.0</ele><time>2026-04-18T12:52:43Z</time></trkpt><trkpt lat="38.99981989420376" lon="8.419724234065502"><ele>39.0</ele><time>2026-04-18T12:52:44Z</time></trkpt><trkpt lat="38.99970730546726" lon="8.419615427113586"><ele>38.666666666666664</ele><time>2026-04-18T12:52:45Z</time></trkpt><trkpt lat="38.99958387924636" lon="8.419511965101762"><ele>38.33333333333333</ele><time>2026-04-18T12:52:46Z</time></trkpt><trkpt lat="38.99945343614963" lon="8.419403223226993"><ele>38.0</ele><time>2026-04-18T12:52:47Z</time></trkpt><trkpt lat="38.99932041403831" lon="8.419291624274274"><ele>38.0</ele><time>2026-04-18T12:52:48Z</time></trkpt><trkpt lat="38.999193716337594" lon="8.419182786769172"><ele>38.0</ele><time>2026-04-18T12:52:49Z</time></trkpt><trkpt lat="38.99908268517184" lon="8.41906797134877"><ele>38.0</ele><time>2026-04-18T12:52:50Z</time></trkpt><trkpt lat="38.99898916550806" lon="8.41893245793213"><ele>38.0</ele><time>2026-04-18T12:52:51Z</time></trkpt><trkpt lat="38.99892264446256" lon="8.418777427567473"><ele>36.0</ele><time>2026-04-18T12:52:52Z</time></trkpt><trkpt lat="38.99886939403905" lon="8.418600685458214"><ele>34.0</ele><time>2026-04-18T12:52:53Z</time></trkpt><trkpt lat="38.998819507062414" lon="8.418409356117962"><ele>32.0</ele><time>2026-04-18T12:52:54Z</time></trkpt><trkpt lat="38.99876196910429" lon="8.41821026286923"><ele>32.0</ele><time>2026-04-18T12:52:55Z</time></trkpt><trkpt lat="38.99869735344619" lon="8.418014282104199"><ele>32.0</ele><time>2026-04-18T12:52:56Z</time></trkpt><trkpt lat="38.99863479985003" lon="8.417823182253093"><ele>32.0</ele><time>2026-04-18T12:52:57Z</time></trkpt><trkpt lat="38.9985913603423" lon="8.417641352856828"><ele>31.666666666666664</ele><time>2026-04-18T12:52:58Z</time></trkpt><trkpt lat="38.998577685932666" lon="8.417448642273488"><ele>31.333333333333336</ele><time>2026-04-18T12:52:59Z</time></trkpt><trkpt lat="38.99857358613185" lon="8.417247533769306"><ele>31.0</ele><time>2026-04-18T12:53:00Z</time></trkpt><trkpt lat="38.99858255905289" lon="8.41704309454081"><ele>31.0</ele><time>2026-04-18T12:53:01Z</time></trkpt><trkpt lat="38.99859625452615" lon="8.416834113796734"><ele>31.0</ele><time>2026-04-18T12:53:02Z</time></trkpt><trkpt lat="38.99861221955034" lon="8.41662642120534"><ele>31.0</ele><time>2026-04-18T12:53:03Z</time></trkpt><trkpt lat="38.99863127382081" lon="8.416416665243158"><ele>31.333333333333336</ele><time>2026-04-18T12:53:04Z</time></trkpt><trkpt lat="38.998654911125726" lon="8.416211179833931"><ele>31.666666666666664</ele><time>2026-04-18T12:53:05Z</time></trkpt><trkpt lat="38.99868139171802" lon="8.416001555481575"><ele>32.0</ele><time>2026-04-18T12:53:06Z</time></trkpt><trkpt lat="38.99870802125462" lon="8.415797733557351"><ele>32.0</ele><time>2026-04-18T12:53:07Z</time></trkpt><trkpt lat="38.9987380003733" lon="8.415594450926008"><ele>32.0</ele><time>2026-04-18T12:53:08Z</time></trkpt><trkpt lat="38.99877060252617" lon="8.415395956581056"><ele>32.0</ele><time>2026-04-18T12:53:09Z</time></trkpt><trkpt lat="38.99880364978392" lon="8.41519475512346"><ele>32.0</ele><time>2026-04-18T12:53:10Z</time></trkpt><trkpt lat="38.99883646651056" lon="8.414994957208588"><ele>32.0</ele><time>2026-04-18T12:53:11Z</time></trkpt><trkpt lat="38.99885299482947" lon="8.414795514225627"><ele>32.0</ele><time>2026-04-18T12:53:12Z</time></trkpt><trkpt lat="38.99888841361336" lon="8.414601905332205"><ele>32.0</ele><time>2026-04-18T12:53:13Z</time></trkpt><trkpt lat="38.99892398533731" lon="8.414408897192526"><ele>32.0</ele><time>2026-04-18T12:53:14Z</time></trkpt><trkpt lat="38.9989541791976" lon="8.41421556939834"><ele>32.0</ele><time>2026-04-18T12:53:15Z</time></trkpt><trkpt lat="38.99898098808995" lon="8.414019270870456"><ele>32.33333333333333</ele><time>2026-04-18T12:53:16Z</time></trkpt><trkpt lat="38.999009805985565" lon="8.413820937388236"><ele>32.666666666666664</ele><time>2026-04-18T12:53:17Z</time></trkpt><trkpt lat="38.999041519128696" lon="8.413621309924812"><ele>33.0</ele><time>2026-04-18T12:53:18Z</time></trkpt><trkpt lat="38.999081340080565" lon="8.413425943028246"><ele>33.0</ele><time>2026-04-18T12:53:19Z</time></trkpt><trkpt lat="38.99914007151119" lon="8.413238784536162"><ele>33.0</ele><time>2026-04-18T12:53:20Z</time></trkpt><trkpt lat="38.999206929256914" lon="8.41304978465363"><ele>33.0</ele><time>2026-04-18T12:53:21Z</time></trkpt><trkpt lat="38.999274529850474" lon="8.412858385167613"><ele>34.666666666666664</ele><time>2026-04-18T12:53:22Z</time></trkpt><trkpt lat="38.999338368075385" lon="8.412670159762909"><ele>36.33333333333333</ele><time>2026-04-18T12:53:23Z</time></trkpt><trkpt lat="38.99939018247064" lon="8.412473698348"><ele>38.0</ele><time>2026-04-18T12:53:24Z</time></trkpt><trkpt lat="38.999417016792634" lon="8.412272306229426"><ele>38.666666666666664</ele><time>2026-04-18T12:53:25Z</time></trkpt><trkpt lat="38.99943023271915" lon="8.412069822519666"><ele>39.333333333333336</ele><time>2026-04-18T12:53:26Z</time></trkpt><trkpt lat="38.99942771426787" lon="8.411866235571889"><ele>40.0</ele><time>2026-04-18T12:53:27Z</time></trkpt><trkpt lat="38.9994036716995" lon="8.411665136394543"><ele>40.0</ele><time>2026-04-18T12:53:28Z</time></trkpt><trkpt lat="38.99936472871113" lon="8.411469267090476"><ele>40.0</ele><time>2026-04-18T12:53:29Z</time></trkpt><trkpt lat="38.99931027065127" lon="8.411276889376762"><ele>40.0</ele><time>2026-04-18T12:53:30Z</time></trkpt><trkpt lat="38.99924145976718" lon="8.411088421636306"><ele>39.66666666666667</ele><time>2026-04-18T12:53:31Z</time></trkpt><trkpt lat="38.99916762347549" lon="8.410905358291163"><ele>39.333333333333336</ele><time>2026-04-18T12:53:32Z</time></trkpt><trkpt lat="38.99909997736637" lon="8.4107261540875"><ele>39.0</ele><time>2026-04-18T12:53:33Z</time></trkpt><trkpt lat="38.99904199816248" lon="8.410548983843928"><ele>38.0</ele><time>2026-04-18T12:53:34Z</time></trkpt><trkpt lat="38.9990075266523" lon="8.410369873690772"><ele>37.0</ele><time>2026-04-18T12:53:35Z</time></trkpt><trkpt lat="38.998997356650335" lon="8.410180599504997"><ele>36.0</ele><time>2026-04-18T12:53:36Z</time></trkpt><trkpt lat="38.999019400110164" lon="8.40998546691196"><ele>35.0</ele><time>2026-04-18T12:53:37Z</time></trkpt><trkpt lat="38.99904496196297" lon="8.40978456693196"><ele>35.33333333333333</ele><time>2026-04-18T12:53:38Z</time></trkpt><trkpt lat="38.99907251162544" lon="8.409584605719042"><ele>35.666666666666664</ele><time>2026-04-18T12:53:39Z</time></trkpt><trkpt lat="38.99911219073035" lon="8.409386255685796"><ele>36.0</ele><time>2026-04-18T12:53:40Z</time></trkpt><trkpt lat="38.999175235852036" lon="8.409193164053537"><ele>36.333333333333336</ele><time>2026-04-18T12:53:41Z</time></trkpt><trkpt lat="38.99925428390296" lon="8.409003149972788"><ele>36.66666666666667</ele><time>2026-04-18T12:53:42Z</time></trkpt><trkpt lat="38.99933839447312" lon="8.408819941781756"><ele>37.0</ele><time>2026-04-18T12:53:43Z</time></trkpt><trkpt lat="38.999426543904754" lon="8.408628845423493"><ele>38.0</ele><time>2026-04-18T12:53:44Z</time></trkpt><trkpt lat="38.99951708086507" lon="8.408441424164268"><ele>39.0</ele><time>2026-04-18T12:53:45Z</time></trkpt><trkpt lat="38.99961092295541" lon="8.408259195141088"><ele>40.0</ele><time>2026-04-18T12:53:46Z</time></trkpt><trkpt lat="38.999698570843876" lon="8.408090238795626"><ele>40.66666666666667</ele><time>2026-04-18T12:53:47Z</time></trkpt><trkpt lat="38.99978630124185" lon="8.40791352677874"><ele>41.333333333333336</ele><time>2026-04-18T12:53:48Z</time></trkpt><trkpt lat="38.99987138171232" lon="8.407737696046409"><ele>42.0</ele><time>2026-04-18T12:53:49Z</time></trkpt><trkpt lat="38.99996049018523" lon="8.407557686971547"><ele>42.0</ele><time>2026-04-18T12:53:50Z</time></trkpt><trkpt lat="39.000048052266685" lon="8.407384883522955"><ele>42.0</ele><time>2026-04-18T12:53:51Z</time></trkpt><trkpt lat="39.00013725500539" lon="8.407214115535695"><ele>42.0</ele><time>2026-04-18T12:53:52Z</time></trkpt><trkpt lat="39.000223013378964" lon="8.407047234037147"><ele>43.333333333333336</ele><time>2026-04-18T12:53:53Z</time></trkpt><trkpt lat="39.00031489911997" lon="8.40688281558087"><ele>44.66666666666667</ele><time>2026-04-18T12:53:54Z</time></trkpt><trkpt lat="39.000410065715556" lon="8.406723308152001"><ele>46.0</ele><time>2026-04-18T12:53:55Z</time></trkpt><trkpt lat="39.000503663701544" lon="8.406561200088104"><ele>46.0</ele><time>2026-04-18T12:53:56Z</time></trkpt><trkpt lat="39.000596386822195" lon="8.406404697977617"><ele>46.0</ele><time>2026-04-18T12:53:57Z</time></trkpt><trkpt lat="39.000684032529406" lon="8.406246555961765"><ele>46.0</ele><time>2026-04-18T12:53:58Z</time></trkpt><trkpt lat="39.00077121020982" lon="8.406087829601807"><ele>47.333333333333336</ele><time>2026-04-18T12:53:59Z</time></trkpt><trkpt lat="39.00085362330925" lon="8.405923821660354"><ele>48.66666666666667</ele><time>2026-04-18T12:54:00Z</time></trkpt><trkpt lat="39.00093943212528" lon="8.40575803671195"><ele>50.0</ele><time>2026-04-18T12:54:01Z</time></trkpt><trkpt lat="39.00102582601771" lon="8.405598756062917"><ele>51.66666666666667</ele><time>2026-04-18T12:54:02Z</time></trkpt><trkpt lat="39.00111186710636" lon="8.40544314353214"><ele>53.33333333333333</ele><time>2026-04-18T12:54:03Z</time></trkpt><trkpt lat="39.0012001264061" lon="8.405283469369547"><ele>55.0</ele><time>2026-04-18T12:54:04Z</time></trkpt><trkpt lat="39.00128875255859" lon="8.40511901808626"><ele>55.0</ele><time>2026-04-18T12:54:05Z</time></trkpt><trkpt lat="39.00137306992302" lon="8.404950206708806"><ele>55.0</ele><time>2026-04-18T12:54:06Z</time></trkpt><trkpt lat="39.001462985271246" lon="8.404783931823312"><ele>55.0</ele><time>2026-04-18T12:54:07Z</time></trkpt><trkpt lat="39.00153717993769" lon="8.404601051944985"><ele>55.0</ele><time>2026-04-18T12:54:08Z</time></trkpt><trkpt lat="39.001607996749335" lon="8.404422811335953"><ele>55.0</ele><time>2026-04-18T12:54:09Z</time></trkpt><trkpt lat="39.0016813652249" lon="8.404241952403359"><ele>55.0</ele><time>2026-04-18T12:54:10Z</time></trkpt><trkpt lat="39.001753739091" lon="8.404065596377226"><ele>55.0</ele><time>2026-04-18T12:54:11Z</time></trkpt><trkpt lat="39.00180817612543" lon="8.403896258591832"><ele>55.0</ele><time>2026-04-18T12:54:12Z</time></trkpt><trkpt lat="39.00186922016078" lon="8.403748018423544"><ele>55.0</ele><time>2026-04-18T12:54:13Z</time></trkpt><trkpt lat="39.001917692710805" lon="8.403605669731562"><ele>55.0</ele><time>2026-04-18T12:54:14Z</time></trkpt><trkpt lat="39.00196644652895" lon="8.403462171725304"><ele>56.5</ele><time>2026-04-18T12:54:15Z</time></trkpt><trkpt lat="39.002026183638826" lon="8.403307976904925"><ele>58.0</ele><time>2026-04-18T12:54:16Z</time></trkpt><trkpt lat="39.00206845894892" lon="8.403129628231296"><ele>59.5</ele><time>2026-04-18T12:54:17Z</time></trkpt><trkpt lat="39.00210368658649" lon="8.402943873810733"><ele>61.0</ele><time>2026-04-18T12:54:18Z</time></trkpt><trkpt lat="39.00213292291514" lon="8.402750149442845"><ele>62.33333333333333</ele><time>2026-04-18T12:54:19Z</time></trkpt><trkpt lat="39.00214192956656" lon="8.40255169862068"><ele>63.66666666666667</ele><time>2026-04-18T12:54:20Z</time></trkpt><trkpt lat="39.00218372266586" lon="8.402349763836217"><ele>65.0</ele><time>2026-04-18T12:54:21Z</time></trkpt><trkpt lat="39.0022131036224" lon="8.40214550586262"><ele>65.66666666666667</ele><time>2026-04-18T12:54:22Z</time></trkpt><trkpt lat="39.002239484476185" lon="8.401935787715768"><ele>66.33333333333333</ele><time>2026-04-18T12:54:23Z</time></trkpt><trkpt lat="39.002263306970995" lon="8.40172236626014"><ele>67.0</ele><time>2026-04-18T12:54:24Z</time></trkpt><trkpt lat="39.00227776727248" lon="8.401499496050366"><ele>68.66666666666666</ele><time>2026-04-18T12:54:25Z</time></trkpt><trkpt lat="39.00228016416796" lon="8.40127384417326"><ele>70.33333333333333</ele><time>2026-04-18T12:54:26Z</time></trkpt><trkpt lat="39.00226543652951" lon="8.401052639092258"><ele>72.0</ele><time>2026-04-18T12:54:27Z</time></trkpt><trkpt lat="39.00226448732365" lon="8.40084920102037"><ele>72.0</ele><time>2026-04-18T12:54:28Z</time></trkpt><trkpt lat="39.002278952239905" lon="8.400661253792547"><ele>72.0</ele><time>2026-04-18T12:54:29Z</time></trkpt><trkpt lat="39.00227746479055" lon="8.400487549206705"><ele>72.0</ele><time>2026-04-18T12:54:30Z</time></trkpt><trkpt lat="39.00227598338174" lon="8.400319735981883"><ele>72.0</ele><time>2026-04-18T12:54:31Z</time></trkpt><trkpt lat="39.00227262547638" lon="8.400149548979336"><ele>72.25</ele><time>2026-04-18T12:54:32Z</time></trkpt><trkpt lat="39.00226932011441" lon="8.39998202598594"><ele>72.5</ele><time>2026-04-18T12:54:33Z</time></trkpt><trkpt lat="39.0022660278515" lon="8.399812344754153"><ele>72.75</ele><time>2026-04-18T12:54:34Z</time></trkpt><trkpt lat="39.00226272751796" lon="8.399642581064022"><ele>73.0</ele><time>2026-04-18T12:54:35Z</time></trkpt><trkpt lat="39.00226146125015" lon="8.399477169542182"><ele>73.0</ele><time>2026-04-18T12:54:36Z</time></trkpt><trkpt lat="39.00225684867946" lon="8.399320823826386"><ele>73.0</ele><time>2026-04-18T12:54:37Z</time></trkpt><trkpt lat="39.00228851543923" lon="8.399173767311684"><ele>73.0</ele><time>2026-04-18T12:54:38Z</time></trkpt><trkpt lat="39.00235294092069" lon="8.399040420437334"><ele>73.0</ele><time>2026-04-18T12:54:39Z</time></trkpt><trkpt lat="39.00240355976253" lon="8.398889382357684"><ele>72.25</ele><time>2026-04-18T12:54:40Z</time></trkpt><trkpt lat="39.00247168673549" lon="8.398742561809788"><ele>71.5</ele><time>2026-04-18T12:54:41Z</time></trkpt><trkpt lat="39.002538910702" lon="8.398594177064895"><ele>70.75</ele><time>2026-04-18T12:54:42Z</time></trkpt><trkpt lat="39.00260904588123" lon="8.398445138764112"><ele>70.0</ele><time>2026-04-18T12:54:43Z</time></trkpt><trkpt lat="39.00269311808791" lon="8.398307640716034"><ele>69.0</ele><time>2026-04-18T12:54:44Z</time></trkpt><trkpt lat="39.0027639142269" lon="8.398157700092097"><ele>68.0</ele><time>2026-04-18T12:54:45Z</time></trkpt><trkpt lat="39.00283380600597" lon="8.39801134978988"><ele>67.0</ele><time>2026-04-18T12:54:46Z</time></trkpt><trkpt lat="39.002900046493686" lon="8.397873399328754"><ele>66.0</ele><time>2026-04-18T12:54:47Z</time></trkpt><trkpt lat="39.002953963098605" lon="8.397730678184338"><ele>65.0</ele><time>2026-04-18T12:54:48Z</time></trkpt><trkpt lat="39.00301295655301" lon="8.39759950319442"><ele>64.0</ele><time>2026-04-18T12:54:49Z</time></trkpt><trkpt lat="39.00305534163065" lon="8.397465318933799"><ele>63.0</ele><time>2026-04-18T12:54:50Z</time></trkpt><trkpt lat="39.00310284483607" lon="8.397330891009663"><ele>62.0</ele><time>2026-04-18T12:54:51Z</time></trkpt><trkpt lat="39.00311612828661" lon="8.397177457338422"><ele>60.75</ele><time>2026-04-18T12:54:52Z</time></trkpt><trkpt lat="39.00312567985778" lon="8.39702144481739"><ele>59.5</ele><time>2026-04-18T12:54:53Z</time></trkpt><trkpt lat="39.00313460506899" lon="8.396863165503445"><ele>58.25</ele><time>2026-04-18T12:54:54Z</time></trkpt><trkpt lat="39.00314902104019" lon="8.396700785595634"><ele>57.0</ele><time>2026-04-18T12:54:55Z</time></trkpt><trkpt lat="39.00316894163904" lon="8.396539485983634"><ele>57.0</ele><time>2026-04-18T12:54:56Z</time></trkpt><trkpt lat="39.003193289511565" lon="8.396378044635634"><ele>57.0</ele><time>2026-04-18T12:54:57Z</time></trkpt><trkpt lat="39.00322083565449" lon="8.396214658947056"><ele>57.0</ele><time>2026-04-18T12:54:58Z</time></trkpt><trkpt lat="39.00325008249697" lon="8.396049564226955"><ele>57.0</ele><time>2026-04-18T12:54:59Z</time></trkpt><trkpt lat="39.003280344934595" lon="8.3958834530566"><ele>56.25</ele><time>2026-04-18T12:55:00Z</time></trkpt><trkpt lat="39.00331159120452" lon="8.395717709560243"><ele>55.5</ele><time>2026-04-18T12:55:01Z</time></trkpt><trkpt lat="39.003342525802076" lon="8.395554776523651"><ele>54.75</ele><time>2026-04-18T12:55:02Z</time></trkpt><trkpt lat="39.00337221863469" lon="8.395391892833148"><ele>54.0</ele><time>2026-04-18T12:55:03Z</time></trkpt><trkpt lat="39.0034019413864" lon="8.395228759800796"><ele>53.25</ele><time>2026-04-18T12:55:04Z</time></trkpt><trkpt lat="39.003431391204415" lon="8.39506934607338"><ele>52.5</ele><time>2026-04-18T12:55:05Z</time></trkpt><trkpt lat="39.00346111463346" lon="8.394912629890698"><ele>51.75</ele><time>2026-04-18T12:55:06Z</time></trkpt><trkpt lat="39.0034935994855" lon="8.394758717019183"><ele>51.0</ele><time>2026-04-18T12:55:07Z</time></trkpt><trkpt lat="39.00352683468962" lon="8.394608785771865"><ele>50.5</ele><time>2026-04-18T12:55:08Z</time></trkpt><trkpt lat="39.003564227638236" lon="8.39446201389891"><ele>50.0</ele><time>2026-04-18T12:55:09Z</time></trkpt><trkpt lat="39.00360711622988" lon="8.394322215455281"><ele>49.5</ele><time>2026-04-18T12:55:10Z</time></trkpt><trkpt lat="39.003650117448025" lon="8.394185748195621"><ele>49.0</ele><time>2026-04-18T12:55:11Z</time></trkpt><trkpt lat="39.00372882124575" lon="8.394071609380367"><ele>49.0</ele><time>2026-04-18T12:55:12Z</time></trkpt><trkpt lat="39.003815691639744" lon="8.39396302535675"><ele>49.0</ele><time>2026-04-18T12:55:13Z</time></trkpt><trkpt lat="39.00390868224439" lon="8.393853340845691"><ele>49.0</ele><time>2026-04-18T12:55:14Z</time></trkpt><trkpt lat="39.00400473535021" lon="8.393745652812525"><ele>49.0</ele><time>2026-04-18T12:55:15Z</time></trkpt><trkpt lat="39.004097617664236" lon="8.393626428452604"><ele>48.0</ele><time>2026-04-18T12:55:16Z</time></trkpt><trkpt lat="39.0041998513735" lon="8.393508510246773"><ele>47.0</ele><time>2026-04-18T12:55:17Z</time></trkpt><trkpt lat="39.004284702759776" lon="8.393368200562886"><ele>46.0</ele><time>2026-04-18T12:55:18Z</time></trkpt><trkpt lat="39.004371343122216" lon="8.393224921817778"><ele>45.0</ele><time>2026-04-18T12:55:19Z</time></trkpt><trkpt lat="39.00444951741946" lon="8.393067773739201"><ele>44.0</ele><time>2026-04-18T12:55:20Z</time></trkpt><trkpt lat="39.00453619094318" lon="8.392918418666019"><ele>43.0</ele><time>2026-04-18T12:55:21Z</time></trkpt><trkpt lat="39.004607619380394" lon="8.392761918625812"><ele>42.0</ele><time>2026-04-18T12:55:22Z</time></trkpt><trkpt lat="39.00465847506042" lon="8.392604544796095"><ele>41.0</ele><time>2026-04-18T12:55:23Z</time></trkpt><trkpt lat="39.004680618027834" lon="8.392442394738003"><ele>41.0</ele><time>2026-04-18T12:55:24Z</time></trkpt><trkpt lat="39.00470067474731" lon="8.39228318488636"><ele>41.0</ele><time>2026-04-18T12:55:25Z</time></trkpt><trkpt lat="39.00470182644636" lon="8.392130326990586"><ele>41.0</ele><time>2026-04-18T12:55:26Z</time></trkpt><trkpt lat="39.004703851111515" lon="8.391979652787159"><ele>41.0</ele><time>2026-04-18T12:55:27Z</time></trkpt><trkpt lat="39.00470934159247" lon="8.391830467105919"><ele>39.5</ele><time>2026-04-18T12:55:28Z</time></trkpt><trkpt lat="39.00472133294891" lon="8.391684066620304"><ele>38.0</ele><time>2026-04-18T12:55:29Z</time></trkpt><trkpt lat="39.0047246857918" lon="8.391534094421136"><ele>36.5</ele><time>2026-04-18T12:55:30Z</time></trkpt><trkpt lat="39.00476473269278" lon="8.39139518767456"><ele>35.0</ele><time>2026-04-18T12:55:31Z</time></trkpt><trkpt lat="39.004793272249636" lon="8.391255399550648"><ele>34.8</ele><time>2026-04-18T12:55:32Z</time></trkpt><trkpt lat="39.00482853619051" lon="8.391120423252746"><ele>34.6</ele><time>2026-04-18T12:55:33Z</time></trkpt><trkpt lat="39.00485877316889" lon="8.390984214879515"><ele>34.4</ele><time>2026-04-18T12:55:34Z</time></trkpt><trkpt lat="39.00491851686195" lon="8.390872751371083"><ele>34.2</ele><time>2026-04-18T12:55:35Z</time></trkpt><trkpt lat="39.00499713112966" lon="8.390786053856617"><ele>34.0</ele><time>2026-04-18T12:55:36Z</time></trkpt><trkpt lat="39.005059905218545" lon="8.390686938491498"><ele>34.0</ele><time>2026-04-18T12:55:37Z</time></trkpt><trkpt lat="39.0051194473747" lon="8.390586964890485"><ele>34.0</ele><time>2026-04-18T12:55:38Z</time></trkpt><trkpt lat="39.00517942962022" lon="8.3904882888554"><ele>34.0</ele><time>2026-04-18T12:55:39Z</time></trkpt><trkpt lat="39.00524084429803" lon="8.390388399654077"><ele>34.0</ele><time>2026-04-18T12:55:40Z</time></trkpt><trkpt lat="39.005301474544815" lon="8.390290618732946"><ele>34.0</ele><time>2026-04-18T12:55:41Z</time></trkpt><trkpt lat="39.00536115239145" lon="8.390193605075874"><ele>32.6</ele><time>2026-04-18T12:55:42Z</time></trkpt><trkpt lat="39.00540811133734" lon="8.390081591501191"><ele>31.2</ele><time>2026-04-18T12:55:43Z</time></trkpt><trkpt lat="39.005468292915765" lon="8.389979750000068"><ele>29.800000000000004</ele><time>2026-04-18T12:55:44Z</time></trkpt><trkpt lat="39.00553228176301" lon="8.389875617293653"><ele>28.400000000000002</ele><time>2026-04-18T12:55:45Z</time></trkpt><trkpt lat="39.005595615446495" lon="8.389761786334418"><ele>27.0</ele><time>2026-04-18T12:55:46Z</time></trkpt><trkpt lat="39.00566064626972" lon="8.389643126429643"><ele>26.25</ele><time>2026-04-18T12:55:47Z</time></trkpt><trkpt lat="39.00573016630052" lon="8.389524607945939"><ele>25.5</ele><time>2026-04-18T12:55:48Z</time></trkpt><trkpt lat="39.00580241499663" lon="8.389405283628717"><ele>24.75</ele><time>2026-04-18T12:55:49Z</time></trkpt><trkpt lat="39.00587016653712" lon="8.38927696608239"><ele>24.0</ele><time>2026-04-18T12:55:50Z</time></trkpt><trkpt lat="39.005957227049656" lon="8.389160433582312"><ele>24.0</ele><time>2026-04-18T12:55:51Z</time></trkpt><trkpt lat="39.00602190355694" lon="8.389016666624483"><ele>24.0</ele><time>2026-04-18T12:55:52Z</time></trkpt><trkpt lat="39.00610396860844" lon="8.388885206067757"><ele>24.0</ele><time>2026-04-18T12:55:53Z</time></trkpt><trkpt lat="39.00619302149486" lon="8.388753132990377"><ele>24.0</ele><time>2026-04-18T12:55:54Z</time></trkpt><trkpt lat="39.00628060159834" lon="8.388618167249987"><ele>23.0</ele><time>2026-04-18T12:55:55Z</time></trkpt><trkpt lat="39.00636237229764" lon="8.388478750039473"><ele>22.0</ele><time>2026-04-18T12:55:56Z</time></trkpt><trkpt lat="39.006444916001925" lon="8.388346510743188"><ele>21.0</ele><time>2026-04-18T12:55:57Z</time></trkpt><trkpt lat="39.00652133119064" lon="8.388219090641323"><ele>20.0</ele><time>2026-04-18T12:55:58Z</time></trkpt><trkpt lat="39.0065873840539" lon="8.388089134913862"><ele>19.5</ele><time>2026-04-18T12:55:59Z</time></trkpt><trkpt lat="39.00665058172987" lon="8.387960730966924"><ele>19.0</ele><time>2026-04-18T12:56:00Z</time></trkpt><trkpt lat="39.00671445773209" lon="8.387838347432284"><ele>18.5</ele><time>2026-04-18T12:56:01Z</time></trkpt><trkpt lat="39.006793225334796" lon="8.38773032679689"><ele>18.0</ele><time>2026-04-18T12:56:02Z</time></trkpt><trkpt lat="39.00685940436325" lon="8.387609549442269"><ele>18.0</ele><time>2026-04-18T12:56:03Z</time></trkpt><trkpt lat="39.006925753255" lon="8.387489832644752"><ele>18.0</ele><time>2026-04-18T12:56:04Z</time></trkpt><trkpt lat="39.0069891686377" lon="8.387366308367435"><ele>18.0</ele><time>2026-04-18T12:56:05Z</time></trkpt><trkpt lat="39.00704744233165" lon="8.387244399737051"><ele>18.0</ele><time>2026-04-18T12:56:06Z</time></trkpt><trkpt lat="39.007106323259215" lon="8.387131174737611"><ele>18.0</ele><time>2026-04-18T12:56:07Z</time></trkpt><trkpt lat="39.00716121815654" lon="8.387014015289138"><ele>17.2</ele><time>2026-04-18T12:56:08Z</time></trkpt><trkpt lat="39.00724225305779" lon="8.386921402134254"><ele>16.4</ele><time>2026-04-18T12:56:09Z</time></trkpt><trkpt lat="39.007340297057496" lon="8.386861215470756"><ele>15.599999999999998</ele><time>2026-04-18T12:56:10Z</time></trkpt><trkpt lat="39.0074201135761" lon="8.386773859604913"><ele>14.799999999999999</ele><time>2026-04-18T12:56:11Z</time></trkpt><trkpt lat="39.007510628713725" lon="8.386725793054568"><ele>14.0</ele><time>2026-04-18T12:56:12Z</time></trkpt><trkpt lat="39.00758149677275" lon="8.386649174261763"><ele>13.500000000000002</ele><time>2026-04-18T12:56:13Z</time></trkpt><trkpt lat="39.00764201986945" lon="8.386570852723832"><ele>13.0</ele><time>2026-04-18T12:56:14Z</time></trkpt><trkpt lat="39.00769704775199" lon="8.386497767343156"><ele>12.5</ele><time>2026-04-18T12:56:15Z</time></trkpt><trkpt lat="39.00773619341227" lon="8.386420261979127"><ele>12.0</ele><time>2026-04-18T12:56:16Z</time></trkpt><trkpt lat="39.007781947892425" lon="8.38636102278089"><ele>11.5</ele><time>2026-04-18T12:56:17Z</time></trkpt><trkpt lat="39.00786647604759" lon="8.386250938174646"><ele>11.0</ele><time>2026-04-18T12:56:19Z</time></trkpt><trkpt lat="39.007971744388314" lon="8.386175432700723"><ele>10.333333333333332</ele><time>2026-04-18T12:56:21Z</time></trkpt><trkpt lat="39.008065809079305" lon="8.3861336146695"><ele>9.666666666666666</ele><time>2026-04-18T12:56:23Z</time></trkpt><trkpt lat="39.00813734497951" lon="8.386096635639708"><ele>9.0</ele><time>2026-04-18T12:56:25Z</time></trkpt><trkpt lat="39.00819805716576" lon="8.386065761032427"><ele>8.333333333333334</ele><time>2026-04-18T12:56:27Z</time></trkpt><trkpt lat="39.00826893265328" lon="8.386032803161331"><ele>7.666666666666667</ele><time>2026-04-18T12:56:30Z</time></trkpt><trkpt lat="39.008334042660096" lon="8.385986385006001"><ele>7.0</ele><time>2026-04-18T12:56:57Z</time></trkpt><trkpt lat="39.00840753001125" lon="8.38590949674877"><ele>6.666666666666667</ele><time>2026-04-18T13:12:05Z</time></trkpt><trkpt lat="39.00847606655695" lon="8.385861043199744"><ele>6.333333333333334</ele><time>2026-04-18T13:12:07Z</time></trkpt><trkpt lat="39.00855687890655" lon="8.38581023534519"><ele>6.0</ele><time>2026-04-18T13:12:09Z</time></trkpt><trkpt lat="39.00864862277819" lon="8.385742588600351"><ele>5.666666666666667</ele><time>2026-04-18T13:12:11Z</time></trkpt><trkpt lat="39.00870934796572" lon="8.385701295009564"><ele>5.333333333333334</ele><time>2026-04-18T13:12:12Z</time></trkpt><trkpt lat="39.008768346955286" lon="8.385665659358743"><ele>5.0</ele><time>2026-04-18T13:12:13Z</time></trkpt><trkpt lat="39.008847376438254" lon="8.385677902702778"><ele>5.0</ele><time>2026-04-18T13:12:14Z</time></trkpt><trkpt lat="39.008916831984074" lon="8.385637632377968"><ele>5.0</ele><time>2026-04-18T13:12:15Z</time></trkpt><trkpt lat="39.00899204309873" lon="8.385595033897197"><ele>5.0</ele><time>2026-04-18T13:12:16Z</time></trkpt><trkpt lat="39.009066043499416" lon="8.385555280097401"><ele>5.0</ele><time>2026-04-18T13:12:17Z</time></trkpt><trkpt lat="39.00913809091574" lon="8.385516606018738"><ele>5.0</ele><time>2026-04-18T13:12:18Z</time></trkpt><trkpt lat="39.0092173421222" lon="8.385474843524843"><ele>5.0</ele><time>2026-04-18T13:12:19Z</time></trkpt><trkpt lat="39.00930286057718" lon="8.385431090476807"><ele>4.8</ele><time>2026-04-18T13:12:20Z</time></trkpt><trkpt lat="39.00939267596801" lon="8.385385139061189"><ele>4.6</ele><time>2026-04-18T13:12:21Z</time></trkpt><trkpt lat="39.00948136930155" lon="8.385339761671728"><ele>4.4</ele><time>2026-04-18T13:12:22Z</time></trkpt><trkpt lat="39.00957177485489" lon="8.38529350986887"><ele>4.2</ele><time>2026-04-18T13:12:23Z</time></trkpt><trkpt lat="39.009661987534315" lon="8.385249272275855"><ele>4.0</ele><time>2026-04-18T13:12:24Z</time></trkpt><trkpt lat="39.00975089226287" lon="8.385205921266463"><ele>4.0</ele><time>2026-04-18T13:12:25Z</time></trkpt><trkpt lat="39.009839254110176" lon="8.385160834172181"><ele>4.0</ele><time>2026-04-18T13:12:26Z</time></trkpt><trkpt lat="39.00992974069334" lon="8.385112076113051"><ele>4.0</ele><time>2026-04-18T13:12:27Z</time></trkpt><trkpt lat="39.01001601119369" lon="8.385052995188525"><ele>4.0</ele><time>2026-04-18T13:12:28Z</time></trkpt><trkpt lat="39.0100925980378" lon="8.384954735640939"><ele>4.0</ele><time>2026-04-18T13:12:29Z</time></trkpt><trkpt lat="39.010157112738625" lon="8.384839048636703"><ele>4.6</ele><time>2026-04-18T13:12:30Z</time></trkpt><trkpt lat="39.010221066695486" lon="8.384742022248771"><ele>5.2</ele><time>2026-04-18T13:12:31Z</time></trkpt><trkpt lat="39.010293717832305" lon="8.384646535538534"><ele>5.799999999999999</ele><time>2026-04-18T13:12:32Z</time></trkpt><trkpt lat="39.01037114682424" lon="8.384560803564764"><ele>6.3999999999999995</ele><time>2026-04-18T13:12:33Z</time></trkpt><trkpt lat="39.01045272522693" lon="8.384475003165695"><ele>7.0</ele><time>2026-04-18T13:12:34Z</time></trkpt><trkpt lat="39.01051301101322" lon="8.384352795207029"><ele>8.2</ele><time>2026-04-18T13:12:35Z</time></trkpt><trkpt lat="39.01059339822063" lon="8.384261925580455"><ele>9.399999999999999</ele><time>2026-04-18T13:12:36Z</time></trkpt><trkpt lat="39.010676409629966" lon="8.384169651470815"><ele>10.600000000000001</ele><time>2026-04-18T13:12:37Z</time></trkpt><trkpt lat="39.01076020349243" lon="8.384071012054637"><ele>11.8</ele><time>2026-04-18T13:12:38Z</time></trkpt><trkpt lat="39.01084431634465" lon="8.383967480588332"><ele>13.0</ele><time>2026-04-18T13:12:39Z</time></trkpt><trkpt lat="39.01093232490064" lon="8.383865762683916"><ele>14.0</ele><time>2026-04-18T13:12:40Z</time></trkpt><trkpt lat="39.011020381673085" lon="8.383763579898108"><ele>15.0</ele><time>2026-04-18T13:12:41Z</time></trkpt><trkpt lat="39.011105636384364" lon="8.383654750712141"><ele>16.0</ele><time>2026-04-18T13:12:42Z</time></trkpt><trkpt lat="39.01121657184789" lon="8.383576969556891"><ele>17.0</ele><time>2026-04-18T13:12:43Z</time></trkpt><trkpt lat="39.01130833730439" lon="8.383469921243524"><ele>17.0</ele><time>2026-04-18T13:12:44Z</time></trkpt><trkpt lat="39.01139985119648" lon="8.383366074003929"><ele>17.0</ele><time>2026-04-18T13:12:45Z</time></trkpt><trkpt lat="39.01149405296984" lon="8.383262918965213"><ele>17.0</ele><time>2026-04-18T13:12:46Z</time></trkpt><trkpt lat="39.0115900522625" lon="8.38316273216181"><ele>17.0</ele><time>2026-04-18T13:12:47Z</time></trkpt><trkpt lat="39.0116886368945" lon="8.383063685357685"><ele>18.5</ele><time>2026-04-18T13:12:48Z</time></trkpt><trkpt lat="39.011788956496055" lon="8.382967385708776"><ele>20.0</ele><time>2026-04-18T13:12:49Z</time></trkpt><trkpt lat="39.01188891990686" lon="8.382874689495827"><ele>21.5</ele><time>2026-04-18T13:12:50Z</time></trkpt><trkpt lat="39.0119872384001" lon="8.382783906336499"><ele>23.0</ele><time>2026-04-18T13:12:51Z</time></trkpt><trkpt lat="39.0120841904808" lon="8.382698275217537"><ele>23.0</ele><time>2026-04-18T13:12:52Z</time></trkpt><trkpt lat="39.0121767866296" lon="8.382617363548677"><ele>23.0</ele><time>2026-04-18T13:12:53Z</time></trkpt><trkpt lat="39.01226450903091" lon="8.382541391282253"><ele>23.0</ele><time>2026-04-18T13:12:54Z</time></trkpt><trkpt lat="39.01234050448663" lon="8.382480281681618"><ele>23.0</ele><time>2026-04-18T13:12:55Z</time></trkpt><trkpt lat="39.01240169767629" lon="8.382436920552477"><ele>23.0</ele><time>2026-04-18T13:12:56Z</time></trkpt><trkpt lat="39.01246646797373" lon="8.382402073771031"><ele>23.0</ele><time>2026-04-18T13:12:59Z</time></trkpt><trkpt lat="39.01256171333328" lon="8.38236551221351"><ele>23.333333333333336</ele><time>2026-04-18T13:13:09Z</time></trkpt><trkpt lat="39.01267976028943" lon="8.382356896972336"><ele>23.666666666666668</ele><time>2026-04-18T13:13:11Z</time></trkpt><trkpt lat="39.01275359183223" lon="8.382351897885737"><ele>24.0</ele><time>2026-04-18T13:13:12Z</time></trkpt><trkpt lat="39.012827694525846" lon="8.382307546455682"><ele>24.333333333333336</ele><time>2026-04-18T13:13:13Z</time></trkpt><trkpt lat="39.01289896729686" lon="8.382249167513363"><ele>24.666666666666668</ele><time>2026-04-18T13:13:14Z</time></trkpt><trkpt lat="39.012964096247885" lon="8.38219251606119"><ele>25.0</ele><time>2026-04-18T13:13:15Z</time></trkpt><trkpt lat="39.0130311302477" lon="8.382124806097702"><ele>25.0</ele><time>2026-04-18T13:13:16Z</time></trkpt><trkpt lat="39.013100017660726" lon="8.382056491903386"><ele>25.0</ele><time>2026-04-18T13:13:17Z</time></trkpt><trkpt lat="39.0131722080414" lon="8.38198627088423"><ele>25.0</ele><time>2026-04-18T13:13:18Z</time></trkpt><trkpt lat="39.013247805905756" lon="8.381918377868711"><ele>25.0</ele><time>2026-04-18T13:13:19Z</time></trkpt><trkpt lat="39.01332542268755" lon="8.381848671724008"><ele>25.0</ele><time>2026-04-18T13:13:20Z</time></trkpt><trkpt lat="39.013405231604494" lon="8.381776363851676"><ele>26.8</ele><time>2026-04-18T13:13:21Z</time></trkpt><trkpt lat="39.01348589319771" lon="8.38170008490451"><ele>28.6</ele><time>2026-04-18T13:13:22Z</time></trkpt><trkpt lat="39.01356642711336" lon="8.381617859359187"><ele>30.4</ele><time>2026-04-18T13:13:23Z</time></trkpt><trkpt lat="39.01364611103187" lon="8.38153329158238"><ele>32.2</ele><time>2026-04-18T13:13:24Z</time></trkpt><trkpt lat="39.01372597550007" lon="8.381448199191844"><ele>34.0</ele><time>2026-04-18T13:13:25Z</time></trkpt><trkpt lat="39.01380523779906" lon="8.381363748455554"><ele>34.0</ele><time>2026-04-18T13:13:26Z</time></trkpt><trkpt lat="39.01388550174186" lon="8.381278230500472"><ele>34.0</ele><time>2026-04-18T13:13:27Z</time></trkpt><trkpt lat="39.013965210029085" lon="8.381196320491036"><ele>34.0</ele><time>2026-04-18T13:13:28Z</time></trkpt><trkpt lat="39.01404700726677" lon="8.381115478297087"><ele>34.0</ele><time>2026-04-18T13:13:29Z</time></trkpt><trkpt lat="39.01413020154708" lon="8.381036381816415"><ele>34.0</ele><time>2026-04-18T13:13:30Z</time></trkpt><trkpt lat="39.01421563252052" lon="8.380960556491958"><ele>35.4</ele><time>2026-04-18T13:13:31Z</time></trkpt><trkpt lat="39.014303792150876" lon="8.380887512752047"><ele>36.8</ele><time>2026-04-18T13:13:32Z</time></trkpt><trkpt lat="39.01439455931537" lon="8.380813744202174"><ele>38.199999999999996</ele><time>2026-04-18T13:13:33Z</time></trkpt><trkpt lat="39.014484383732764" lon="8.380740741854261"><ele>39.599999999999994</ele><time>2026-04-18T13:13:34Z</time></trkpt><trkpt lat="39.01457724778495" lon="8.38066526909877"><ele>41.0</ele><time>2026-04-18T13:13:35Z</time></trkpt><trkpt lat="39.01466728081235" lon="8.380598398014122"><ele>41.0</ele><time>2026-04-18T13:13:36Z</time></trkpt><trkpt lat="39.014757521733365" lon="8.380537937555829"><ele>41.0</ele><time>2026-04-18T13:13:37Z</time></trkpt><trkpt lat="39.014840519461316" lon="8.380486852448607"><ele>41.0</ele><time>2026-04-18T13:13:38Z</time></trkpt><trkpt lat="39.014919824490164" lon="8.380450597037202"><ele>41.0</ele><time>2026-04-18T13:13:39Z</time></trkpt><trkpt lat="39.01500372399003" lon="8.380425164472864"><ele>41.0</ele><time>2026-04-18T13:13:40Z</time></trkpt><trkpt lat="39.015092843771455" lon="8.380441413932608"><ele>41.83333333333333</ele><time>2026-04-18T13:13:41Z</time></trkpt><trkpt lat="39.01518288185095" lon="8.38046371195652"><ele>42.666666666666664</ele><time>2026-04-18T13:13:42Z</time></trkpt><trkpt lat="39.01526483819492" lon="8.380504511772862"><ele>43.5</ele><time>2026-04-18T13:13:43Z</time></trkpt><trkpt lat="39.0153445392734" lon="8.380523074092979"><ele>44.333333333333336</ele><time>2026-04-18T13:13:44Z</time></trkpt><trkpt lat="39.01543066088664" lon="8.380529140522668"><ele>45.16666666666667</ele><time>2026-04-18T13:13:45Z</time></trkpt><trkpt lat="39.01552455435923" lon="8.380498882800516"><ele>46.0</ele><time>2026-04-18T13:13:46Z</time></trkpt><trkpt lat="39.0156279521478" lon="8.380508149121706"><ele>46.0</ele><time>2026-04-18T13:13:47Z</time></trkpt><trkpt lat="39.01573841421277" lon="8.38049450736062"><ele>46.0</ele><time>2026-04-18T13:13:48Z</time></trkpt><trkpt lat="39.01585218871581" lon="8.380457629289307"><ele>46.0</ele><time>2026-04-18T13:13:49Z</time></trkpt><trkpt lat="39.0159734287538" lon="8.38046418748328"><ele>46.0</ele><time>2026-04-18T13:13:50Z</time></trkpt><trkpt lat="39.01609495509087" lon="8.380450774045386"><ele>45.5</ele><time>2026-04-18T13:13:51Z</time></trkpt><trkpt lat="39.01621801378392" lon="8.380437191466857"><ele>45.0</ele><time>2026-04-18T13:13:52Z</time></trkpt><trkpt lat="39.016340081913576" lon="8.380403901810233"><ele>44.5</ele><time>2026-04-18T13:13:53Z</time></trkpt><trkpt lat="39.016465529841334" lon="8.380389174026524"><ele>44.0</ele><time>2026-04-18T13:13:54Z</time></trkpt><trkpt lat="39.016588802370705" lon="8.380376146387853"><ele>43.5</ele><time>2026-04-18T13:13:55Z</time></trkpt><trkpt lat="39.016711895284026" lon="8.380364500739404"><ele>43.0</ele><time>2026-04-18T13:13:56Z</time></trkpt><trkpt lat="39.01683544109217" lon="8.380351064590316"><ele>42.5</ele><time>2026-04-18T13:13:57Z</time></trkpt><trkpt lat="39.016960804517524" lon="8.380334591537713"><ele>42.0</ele><time>2026-04-18T13:13:58Z</time></trkpt><trkpt lat="39.01709016348335" lon="8.380316718034939"><ele>42.0</ele><time>2026-04-18T13:13:59Z</time></trkpt><trkpt lat="39.01722364242478" lon="8.380320884031278"><ele>42.0</ele><time>2026-04-18T13:14:00Z</time></trkpt><trkpt lat="39.0173571513563" lon="8.380281710079851"><ele>42.0</ele><time>2026-04-18T13:14:01Z</time></trkpt><trkpt lat="39.0174904281218" lon="8.380266046643703"><ele>42.0</ele><time>2026-04-18T13:14:02Z</time></trkpt><trkpt lat="39.01762177851871" lon="8.380251211270236"><ele>41.25</ele><time>2026-04-18T13:14:03Z</time></trkpt><trkpt lat="39.01775239839946" lon="8.38023789711192"><ele>40.5</ele><time>2026-04-18T13:14:04Z</time></trkpt><trkpt lat="39.0178824031747" lon="8.38022997947937"><ele>39.75</ele><time>2026-04-18T13:14:05Z</time></trkpt><trkpt lat="39.018012595818305" lon="8.380226409519274"><ele>39.0</ele><time>2026-04-18T13:14:06Z</time></trkpt><trkpt lat="39.0181425323666" lon="8.380227785992686"><ele>39.0</ele><time>2026-04-18T13:14:07Z</time></trkpt><trkpt lat="39.018271589810915" lon="8.380229935527245"><ele>39.0</ele><time>2026-04-18T13:14:08Z</time></trkpt><trkpt lat="39.01840013925959" lon="8.380233460721916"><ele>39.0</ele><time>2026-04-18T13:14:09Z</time></trkpt><trkpt lat="39.018532148989685" lon="8.380236216469633"><ele>39.0</ele><time>2026-04-18T13:14:10Z</time></trkpt><trkpt lat="39.01866807331703" lon="8.380239718248403"><ele>38.75</ele><time>2026-04-18T13:14:11Z</time></trkpt><trkpt lat="39.0188015791128" lon="8.380242942430963"><ele>38.5</ele><time>2026-04-18T13:14:12Z</time></trkpt><trkpt lat="39.018937701786456" lon="8.380249991268052"><ele>38.25</ele><time>2026-04-18T13:14:13Z</time></trkpt><trkpt lat="39.019074609060496" lon="8.380256577613384"><ele>38.0</ele><time>2026-04-18T13:14:14Z</time></trkpt><trkpt lat="39.019211124312314" lon="8.380259310888539"><ele>37.5</ele><time>2026-04-18T13:14:15Z</time></trkpt><trkpt lat="39.019346566297806" lon="8.380260054865811"><ele>37.0</ele><time>2026-04-18T13:14:16Z</time></trkpt><trkpt lat="39.019478415260664" lon="8.3802643794847"><ele>36.5</ele><time>2026-04-18T13:14:17Z</time></trkpt><trkpt lat="39.01960671447096" lon="8.380270334614899"><ele>36.0</ele><time>2026-04-18T13:14:18Z</time></trkpt><trkpt lat="39.01973350637168" lon="8.380272670096858"><ele>36.0</ele><time>2026-04-18T13:14:19Z</time></trkpt><trkpt lat="39.01985227975439" lon="8.380276494767768"><ele>36.0</ele><time>2026-04-18T13:14:20Z</time></trkpt><trkpt lat="39.01996209382102" lon="8.38028543630547"><ele>36.0</ele><time>2026-04-18T13:14:21Z</time></trkpt><trkpt lat="39.020067680046836" lon="8.380298160108008"><ele>36.0</ele><time>2026-04-18T13:14:22Z</time></trkpt><trkpt lat="39.020166731891855" lon="8.380308430612915"><ele>36.0</ele><time>2026-04-18T13:14:23Z</time></trkpt><trkpt lat="39.02026446538352" lon="8.38030673333734"><ele>36.0</ele><time>2026-04-18T13:14:24Z</time></trkpt><trkpt lat="39.020364064554265" lon="8.380287065739262"><ele>36.0</ele><time>2026-04-18T13:14:25Z</time></trkpt><trkpt lat="39.020476762670434" lon="8.38028108999187"><ele>36.0</ele><time>2026-04-18T13:14:26Z</time></trkpt><trkpt lat="39.020594270087294" lon="8.380227414121245"><ele>36.0</ele><time>2026-04-18T13:14:27Z</time></trkpt><trkpt lat="39.02071352311288" lon="8.380163087829914"><ele>35.25</ele><time>2026-04-18T13:14:28Z</time></trkpt><trkpt lat="39.02083810954087" lon="8.380101159813565"><ele>34.5</ele><time>2026-04-18T13:14:29Z</time></trkpt><trkpt lat="39.02096537529575" lon="8.38004102068619"><ele>33.75</ele><time>2026-04-18T13:14:30Z</time></trkpt><trkpt lat="39.02109162183081" lon="8.379985561318634"><ele>33.0</ele><time>2026-04-18T13:14:31Z</time></trkpt><trkpt lat="39.021220605252445" lon="8.379935108653724"><ele>33.0</ele><time>2026-04-18T13:14:32Z</time></trkpt><trkpt lat="39.02135137960035" lon="8.379885433798867"><ele>33.0</ele><time>2026-04-18T13:14:33Z</time></trkpt><trkpt lat="39.021481937213984" lon="8.379827615500876"><ele>33.0</ele><time>2026-04-18T13:14:34Z</time></trkpt><trkpt lat="39.021610832401656" lon="8.379766825090762"><ele>33.0</ele><time>2026-04-18T13:14:35Z</time></trkpt><trkpt lat="39.02174110712556" lon="8.379705934518244"><ele>33.25</ele><time>2026-04-18T13:14:36Z</time></trkpt><trkpt lat="39.021870740778574" lon="8.379644751873691"><ele>33.5</ele><time>2026-04-18T13:14:37Z</time></trkpt><trkpt lat="39.02199703064546" lon="8.379566392803776"><ele>33.75</ele><time>2026-04-18T13:14:38Z</time></trkpt><trkpt lat="39.0221159114188" lon="8.379473295359695"><ele>34.0</ele><time>2026-04-18T13:14:39Z</time></trkpt><trkpt lat="39.02223498051265" lon="8.379384617123044"><ele>34.0</ele><time>2026-04-18T13:14:40Z</time></trkpt><trkpt lat="39.02235151715563" lon="8.379302257809828"><ele>34.0</ele><time>2026-04-18T13:14:41Z</time></trkpt><trkpt lat="39.02247073491674" lon="8.379222260105315"><ele>34.0</ele><time>2026-04-18T13:14:42Z</time></trkpt><trkpt lat="39.022595379611836" lon="8.379150124646177"><ele>34.0</ele><time>2026-04-18T13:14:43Z</time></trkpt><trkpt lat="39.02272440296861" lon="8.379082617695286"><ele>34.75</ele><time>2026-04-18T13:14:44Z</time></trkpt><trkpt lat="39.02285394330807" lon="8.379013949917338"><ele>35.5</ele><time>2026-04-18T13:14:45Z</time></trkpt><trkpt lat="39.02297544335066" lon="8.378942807839772"><ele>36.25</ele><time>2026-04-18T13:14:46Z</time></trkpt><trkpt lat="39.02309608859333" lon="8.378874884465882"><ele>37.0</ele><time>2026-04-18T13:14:47Z</time></trkpt><trkpt lat="39.02322156850223" lon="8.378822102475132"><ele>35.5</ele><time>2026-04-18T13:14:48Z</time></trkpt><trkpt lat="39.023347414902794" lon="8.378766459547823"><ele>34.0</ele><time>2026-04-18T13:14:49Z</time></trkpt><trkpt lat="39.023463807060466" lon="8.37871123698228"><ele>32.5</ele><time>2026-04-18T13:14:50Z</time></trkpt><trkpt lat="39.02357776492466" lon="8.378655483729457"><ele>31.0</ele><time>2026-04-18T13:14:51Z</time></trkpt><trkpt lat="39.02369181737608" lon="8.37867868878538"><ele>31.0</ele><time>2026-04-18T13:14:52Z</time></trkpt><trkpt lat="39.02380654297765" lon="8.37866853949006"><ele>31.0</ele><time>2026-04-18T13:14:53Z</time></trkpt><trkpt lat="39.023920134068526" lon="8.378651246754284"><ele>31.0</ele><time>2026-04-18T13:14:54Z</time></trkpt><trkpt lat="39.02402116445832" lon="8.378602503106752"><ele>31.0</ele><time>2026-04-18T13:14:55Z</time></trkpt><trkpt lat="39.024115185659745" lon="8.378563269836627"><ele>31.0</ele><time>2026-04-18T13:14:56Z</time></trkpt><trkpt lat="39.024196222665125" lon="8.378507695146647"><ele>27.6</ele><time>2026-04-18T13:14:57Z</time></trkpt><trkpt lat="39.024270313135325" lon="8.37844810118744"><ele>24.200000000000003</ele><time>2026-04-18T13:14:58Z</time></trkpt><trkpt lat="39.02431742269831" lon="8.378355911836957"><ele>20.799999999999997</ele><time>2026-04-18T13:14:59Z</time></trkpt><trkpt lat="39.02440842083285" lon="8.378255729202948"><ele>17.4</ele><time>2026-04-18T13:15:01Z</time></trkpt><trkpt lat="39.02448471767421" lon="8.378195989618197"><ele>14.0</ele><time>2026-04-18T13:15:02Z</time></trkpt><trkpt lat="39.02453708946736" lon="8.37813447964057"><ele>14.000000000000002</ele><time>2026-04-18T13:15:04Z</time></trkpt><trkpt lat="39.02459797178961" lon="8.378079413050818"><ele>14.0</ele><time>2026-04-18T13:15:09Z</time></trkpt><trkpt lat="39.024676804065734" lon="8.377980668204849"><ele>14.0</ele><time>2026-04-18T13:15:11Z</time></trkpt><trkpt lat="39.02471353488155" lon="8.377898884756794"><ele>14.0</ele><time>2026-04-18T13:15:12Z</time></trkpt><trkpt lat="39.02476820241264" lon="8.377836761941259"><ele>14.000000000000002</ele><time>2026-04-18T13:15:13Z</time></trkpt><trkpt lat="39.02481602528914" lon="8.37777008244579"><ele>14.0</ele><time>2026-04-18T13:15:14Z</time></trkpt><trkpt lat="39.02488637653248" lon="8.377643180285478"><ele>16.6</ele><time>2026-04-18T13:15:16Z</time></trkpt><trkpt lat="39.02490556123547" lon="8.3775033700387"><ele>19.2</ele><time>2026-04-18T13:15:18Z</time></trkpt><trkpt lat="39.02486958749303" lon="8.377341210866184"><ele>21.800000000000004</ele><time>2026-04-18T13:15:20Z</time></trkpt><trkpt lat="39.024831861525946" lon="8.377257975262618"><ele>24.400000000000002</ele><time>2026-04-18T13:15:21Z</time></trkpt><trkpt lat="39.024810323562065" lon="8.377165475854035"><ele>27.0</ele><time>2026-04-18T13:15:22Z</time></trkpt><trkpt lat="39.0247777995049" lon="8.377070010729653"><ele>27.0</ele><time>2026-04-18T13:15:23Z</time></trkpt><trkpt lat="39.02474112854518" lon="8.376962520661339"><ele>27.0</ele><time>2026-04-18T13:15:24Z</time></trkpt><trkpt lat="39.024714101064085" lon="8.37686692237922"><ele>27.0</ele><time>2026-04-18T13:15:25Z</time></trkpt><trkpt lat="39.024688992897296" lon="8.37677213776828"><ele>27.0</ele><time>2026-04-18T13:15:26Z</time></trkpt><trkpt lat="39.024666522587914" lon="8.376675305320024"><ele>27.0</ele><time>2026-04-18T13:15:27Z</time></trkpt><trkpt lat="39.02465013356877" lon="8.376573629063616"><ele>27.0</ele><time>2026-04-18T13:15:28Z</time></trkpt><trkpt lat="39.02463044575742" lon="8.37647238989523"><ele>27.0</ele><time>2026-04-18T13:15:29Z</time></trkpt><trkpt lat="39.02462337422105" lon="8.37636049107517"><ele>27.0</ele><time>2026-04-18T13:15:30Z</time></trkpt><trkpt lat="39.02462499107509" lon="8.376260281705184"><ele>27.0</ele><time>2026-04-18T13:15:31Z</time></trkpt><trkpt lat="39.024619970884885" lon="8.376168716427307"><ele>27.0</ele><time>2026-04-18T13:15:32Z</time></trkpt><trkpt lat="39.024606931003966" lon="8.376085171774386"><ele>27.0</ele><time>2026-04-18T13:15:33Z</time></trkpt><trkpt lat="39.024584414361044" lon="8.376000068782554"><ele>27.0</ele><time>2026-04-18T13:15:34Z</time></trkpt><trkpt lat="39.02455679145898" lon="8.375925878178966"><ele>27.0</ele><time>2026-04-18T13:15:35Z</time></trkpt><trkpt lat="39.02450793375877" lon="8.37585781833665"><ele>24.833333333333332</ele><time>2026-04-18T13:15:36Z</time></trkpt><trkpt lat="39.024470099932465" lon="8.37578549657621"><ele>22.666666666666668</ele><time>2026-04-18T13:15:37Z</time></trkpt><trkpt lat="39.024442039968925" lon="8.375706754321158"><ele>20.5</ele><time>2026-04-18T13:15:38Z</time></trkpt><trkpt lat="39.02439201627572" lon="8.375628353994076"><ele>18.333333333333336</ele><time>2026-04-18T13:15:39Z</time></trkpt><trkpt lat="39.024309116261094" lon="8.375515093533597"><ele>16.166666666666668</ele><time>2026-04-18T13:15:41Z</time></trkpt><trkpt lat="39.02426332119048" lon="8.37545296430015"><ele>14.0</ele><time>2026-04-18T13:15:42Z</time></trkpt><trkpt lat="39.02421868917756" lon="8.375392144069778"><ele>13.2</ele><time>2026-04-18T13:15:43Z</time></trkpt><trkpt lat="39.02417212903171" lon="8.375330143728219"><ele>12.399999999999999</ele><time>2026-04-18T13:15:44Z</time></trkpt><trkpt lat="39.0240869939556" lon="8.37521677635591"><ele>11.6</ele><time>2026-04-18T13:15:46Z</time></trkpt><trkpt lat="39.02400882112613" lon="8.375112680033286"><ele>10.8</ele><time>2026-04-18T13:15:48Z</time></trkpt><trkpt lat="39.02394297996609" lon="8.375025004780955"><ele>10.0</ele><time>2026-04-18T13:15:50Z</time></trkpt><trkpt lat="39.02388047176276" lon="8.374942481223318"><ele>11.333333333333334</ele><time>2026-04-18T13:15:53Z</time></trkpt><trkpt lat="39.02383601485463" lon="8.37485320589147"><ele>12.666666666666668</ele><time>2026-04-18T13:15:57Z</time></trkpt><trkpt lat="39.02379004868901" lon="8.374792797167549"><ele>14.0</ele><time>2026-04-18T13:16:00Z</time></trkpt><trkpt lat="39.02379261292652" lon="8.374974087350076"><ele>15.333333333333334</ele><time>2026-04-18T13:16:25Z</time></trkpt><trkpt lat="39.02385460475507" lon="8.37504070205381"><ele>16.666666666666668</ele><time>2026-04-18T13:16:26Z</time></trkpt><trkpt lat="39.0239149185915" lon="8.375087972062953"><ele>18.0</ele><time>2026-04-18T13:16:27Z</time></trkpt><trkpt lat="39.02398119649181" lon="8.375149543224799"><ele>18.0</ele><time>2026-04-18T13:16:28Z</time></trkpt><trkpt lat="39.02404550748693" lon="8.375223491546194"><ele>18.0</ele><time>2026-04-18T13:16:29Z</time></trkpt><trkpt lat="39.02410046727793" lon="8.375304394043328"><ele>18.0</ele><time>2026-04-18T13:16:30Z</time></trkpt><trkpt lat="39.02415354251569" lon="8.3753880274556"><ele>18.0</ele><time>2026-04-18T13:16:31Z</time></trkpt><trkpt lat="39.024213403456336" lon="8.375464537387767"><ele>18.0</ele><time>2026-04-18T13:16:32Z</time></trkpt><trkpt lat="39.024279835825" lon="8.37553233506937"><ele>18.0</ele><time>2026-04-18T13:16:33Z</time></trkpt><trkpt lat="39.02434421242033" lon="8.375603813836195"><ele>17.333333333333332</ele><time>2026-04-18T13:16:34Z</time></trkpt><trkpt lat="39.024398958446604" lon="8.375681151607147"><ele>16.666666666666668</ele><time>2026-04-18T13:16:35Z</time></trkpt><trkpt lat="39.02444213965478" lon="8.375762905420473"><ele>16.0</ele><time>2026-04-18T13:16:36Z</time></trkpt><trkpt lat="39.02448273060664" lon="8.37584910678086"><ele>15.333333333333334</ele><time>2026-04-18T13:16:37Z</time></trkpt><trkpt lat="39.02452488712442" lon="8.375928888436176"><ele>14.666666666666668</ele><time>2026-04-18T13:16:38Z</time></trkpt><trkpt lat="39.024568063972715" lon="8.376006082917272"><ele>14.0</ele><time>2026-04-18T13:16:39Z</time></trkpt><trkpt lat="39.02457964492466" lon="8.376094119786776"><ele>14.000000000000002</ele><time>2026-04-18T13:16:40Z</time></trkpt><trkpt lat="39.02459595048864" lon="8.376228076532241"><ele>14.0</ele><time>2026-04-18T13:16:42Z</time></trkpt><trkpt lat="39.024612616257954" lon="8.376316117270617"><ele>14.0</ele><time>2026-04-18T13:16:43Z</time></trkpt><trkpt lat="39.02461141853531" lon="8.376413153507126"><ele>14.0</ele><time>2026-04-18T13:16:44Z</time></trkpt><trkpt lat="39.024614065679" lon="8.376522647460392"><ele>14.000000000000002</ele><time>2026-04-18T13:16:45Z</time></trkpt><trkpt lat="39.02462285224162" lon="8.376638126973537"><ele>14.0</ele><time>2026-04-18T13:16:46Z</time></trkpt><trkpt lat="39.024643503033126" lon="8.376752186340523"><ele>16.6</ele><time>2026-04-18T13:16:47Z</time></trkpt><trkpt lat="39.024676345201584" lon="8.37686877740602"><ele>19.2</ele><time>2026-04-18T13:16:48Z</time></trkpt><trkpt lat="39.02471432001113" lon="8.376982393965514"><ele>21.800000000000004</ele><time>2026-04-18T13:16:49Z</time></trkpt><trkpt lat="39.024751703428635" lon="8.37709742845615"><ele>24.400000000000002</ele><time>2026-04-18T13:16:50Z</time></trkpt><trkpt lat="39.02479238069129" lon="8.377210968652454"><ele>27.0</ele><time>2026-04-18T13:16:51Z</time></trkpt><trkpt lat="39.02483323377246" lon="8.377319601555518"><ele>27.200000000000003</ele><time>2026-04-18T13:16:52Z</time></trkpt><trkpt lat="39.024867345429385" lon="8.377423965124459"><ele>27.400000000000002</ele><time>2026-04-18T13:16:53Z</time></trkpt><trkpt lat="39.024887305532424" lon="8.377524025602531"><ele>27.599999999999998</ele><time>2026-04-18T13:16:54Z</time></trkpt><trkpt lat="39.02488482944779" lon="8.377612777375226"><ele>27.799999999999997</ele><time>2026-04-18T13:16:55Z</time></trkpt><trkpt lat="39.024843059461375" lon="8.377737286010452"><ele>28.0</ele><time>2026-04-18T13:16:57Z</time></trkpt><trkpt lat="39.02475391574279" lon="8.377839612519578"><ele>28.0</ele><time>2026-04-18T13:16:59Z</time></trkpt><trkpt lat="39.02469958969009" lon="8.377900822142038"><ele>27.999999999999996</ele><time>2026-04-18T13:17:00Z</time></trkpt><trkpt lat="39.02464381384434" lon="8.377965911886605"><ele>27.999999999999996</ele><time>2026-04-18T13:17:01Z</time></trkpt><trkpt lat="39.024591224624984" lon="8.378055380375203"><ele>28.0</ele><time>2026-04-18T13:17:03Z</time></trkpt><trkpt lat="39.02467495956407" lon="8.378154851328995"><ele>28.0</ele><time>2026-04-18T13:17:07Z</time></trkpt><trkpt lat="39.02476764660661" lon="8.378086396066534"><ele>28.0</ele><time>2026-04-18T13:17:09Z</time></trkpt><trkpt lat="39.024883946976885" lon="8.37801089619998"><ele>27.999999999999996</ele><time>2026-04-18T13:17:11Z</time></trkpt><trkpt lat="39.02494925083662" lon="8.377958118747788"><ele>27.999999999999996</ele><time>2026-04-18T13:17:12Z</time></trkpt><trkpt lat="39.02501129813982" lon="8.37790101678968"><ele>28.0</ele><time>2026-04-18T13:17:13Z</time></trkpt><trkpt lat="39.025065238937096" lon="8.3778433616822"><ele>28.0</ele><time>2026-04-18T13:17:14Z</time></trkpt><trkpt lat="39.02513590045221" lon="8.377726318913632"><ele>23.599999999999998</ele><time>2026-04-18T13:17:16Z</time></trkpt><trkpt lat="39.02522556133805" lon="8.37762686936218"><ele>19.199999999999996</ele><time>2026-04-18T13:17:18Z</time></trkpt><trkpt lat="39.02529946850558" lon="8.37753287016525"><ele>14.799999999999999</ele><time>2026-04-18T13:17:20Z</time></trkpt><trkpt lat="39.02539424073449" lon="8.377461228883774"><ele>10.399999999999999</ele><time>2026-04-18T13:17:22Z</time></trkpt><trkpt lat="39.0254683379211" lon="8.377426878647755"><ele>6.0</ele><time>2026-04-18T13:17:23Z</time></trkpt><trkpt lat="39.02555816978098" lon="8.377405577064316"><ele>6.0</ele><time>2026-04-18T13:17:24Z</time></trkpt><trkpt lat="39.02565503760662" lon="8.377380030308924"><ele>6.0</ele><time>2026-04-18T13:17:25Z</time></trkpt><trkpt lat="39.0257510874343" lon="8.377314671435682"><ele>6.0</ele><time>2026-04-18T13:17:26Z</time></trkpt><trkpt lat="39.02583447798441" lon="8.377199053849878"><ele>6.0</ele><time>2026-04-18T13:17:27Z</time></trkpt><trkpt lat="39.0259300545902" lon="8.377095746122558"><ele>9.5</ele><time>2026-04-18T13:17:28Z</time></trkpt><trkpt lat="39.02604057633053" lon="8.377029419077223"><ele>13.0</ele><time>2026-04-18T13:17:29Z</time></trkpt><trkpt lat="39.02615487393544" lon="8.376932809116832"><ele>16.5</ele><time>2026-04-18T13:17:30Z</time></trkpt><trkpt lat="39.026226948308974" lon="8.3768245225797"><ele>20.0</ele><time>2026-04-18T13:17:31Z</time></trkpt><trkpt lat="39.02632073734702" lon="8.376741092303776"><ele>20.0</ele><time>2026-04-18T13:17:32Z</time></trkpt><trkpt lat="39.02640421991977" lon="8.376662429550322"><ele>20.0</ele><time>2026-04-18T13:17:33Z</time></trkpt><trkpt lat="39.026490285637806" lon="8.37663020866282"><ele>20.0</ele><time>2026-04-18T13:17:34Z</time></trkpt><trkpt lat="39.02658005087078" lon="8.376627626458486"><ele>20.0</ele><time>2026-04-18T13:17:35Z</time></trkpt><trkpt lat="39.02668586262161" lon="8.376614918695745"><ele>20.0</ele><time>2026-04-18T13:17:36Z</time></trkpt><trkpt lat="39.02679218961201" lon="8.376599107057475"><ele>20.4</ele><time>2026-04-18T13:17:37Z</time></trkpt><trkpt lat="39.02689142125537" lon="8.376566367703417"><ele>20.8</ele><time>2026-04-18T13:17:38Z</time></trkpt><trkpt lat="39.02698768328508" lon="8.376499934466736"><ele>21.200000000000003</ele><time>2026-04-18T13:17:39Z</time></trkpt><trkpt lat="39.02706489411052" lon="8.376404878930591"><ele>21.6</ele><time>2026-04-18T13:17:40Z</time></trkpt><trkpt lat="39.02715165470579" lon="8.376327496047098"><ele>22.0</ele><time>2026-04-18T13:17:41Z</time></trkpt><trkpt lat="39.02723040386291" lon="8.376214349743691"><ele>26.25</ele><time>2026-04-18T13:17:42Z</time></trkpt><trkpt lat="39.027306475326604" lon="8.376098333266183"><ele>30.5</ele><time>2026-04-18T13:17:43Z</time></trkpt><trkpt lat="39.02738952099671" lon="8.375995660094084"><ele>34.75</ele><time>2026-04-18T13:17:44Z</time></trkpt><trkpt lat="39.02746439077571" lon="8.375879719304844"><ele>39.0</ele><time>2026-04-18T13:17:45Z</time></trkpt><trkpt lat="39.02753873669158" lon="8.375763495908336"><ele>39.0</ele><time>2026-04-18T13:17:46Z</time></trkpt><trkpt lat="39.027614066416305" lon="8.375646770580463"><ele>39.0</ele><time>2026-04-18T13:17:47Z</time></trkpt><trkpt lat="39.02768080561017" lon="8.375521827369763"><ele>39.0</ele><time>2026-04-18T13:17:48Z</time></trkpt><trkpt lat="39.02775250244824" lon="8.375395314411955"><ele>39.0</ele><time>2026-04-18T13:17:49Z</time></trkpt><trkpt lat="39.02784733246184" lon="8.375293004830818"><ele>41.75</ele><time>2026-04-18T13:17:50Z</time></trkpt><trkpt lat="39.02793862875688" lon="8.375188209591835"><ele>44.5</ele><time>2026-04-18T13:17:51Z</time></trkpt><trkpt lat="39.02803340187377" lon="8.375089079177892"><ele>47.25</ele><time>2026-04-18T13:17:52Z</time></trkpt><trkpt lat="39.02813890062815" lon="8.374986312153125"><ele>50.0</ele><time>2026-04-18T13:17:53Z</time></trkpt><trkpt lat="39.02824068245657" lon="8.37488246329436"><ele>50.2</ele><time>2026-04-18T13:17:54Z</time></trkpt><trkpt lat="39.02831750126828" lon="8.374769929922678"><ele>50.4</ele><time>2026-04-18T13:17:55Z</time></trkpt><trkpt lat="39.02840772960678" lon="8.374685068883212"><ele>50.599999999999994</ele><time>2026-04-18T13:17:56Z</time></trkpt><trkpt lat="39.02848450245715" lon="8.37464093391289"><ele>50.8</ele><time>2026-04-18T13:17:57Z</time></trkpt><trkpt lat="39.02858302067318" lon="8.374693019417977"><ele>51.0</ele><time>2026-04-18T13:17:58Z</time></trkpt><trkpt lat="39.02869617842929" lon="8.374693618529664"><ele>50.5</ele><time>2026-04-18T13:17:59Z</time></trkpt><trkpt lat="39.02882749647993" lon="8.374695859217391"><ele>50.0</ele><time>2026-04-18T13:18:00Z</time></trkpt><trkpt lat="39.028921732627325" lon="8.374696597251923"><ele>49.5</ele><time>2026-04-18T13:18:01Z</time></trkpt><trkpt lat="39.02909899687214" lon="8.374688609393345"><ele>49.0</ele><time>2026-04-18T13:18:02Z</time></trkpt><trkpt lat="39.02927694763345" lon="8.374709486491335"><ele>49.0</ele><time>2026-04-18T13:18:03Z</time></trkpt><trkpt lat="39.029419888748016" lon="8.374712701879753"><ele>49.0</ele><time>2026-04-18T13:18:04Z</time></trkpt><trkpt lat="39.02955876110812" lon="8.374714112280907"><ele>49.0</ele><time>2026-04-18T13:18:05Z</time></trkpt><trkpt lat="39.029700834597996" lon="8.374718807325616"><ele>49.0</ele><time>2026-04-18T13:18:06Z</time></trkpt><trkpt lat="39.0298436353478" lon="8.374728021765486"><ele>51.25</ele><time>2026-04-18T13:18:07Z</time></trkpt><trkpt lat="39.029988265458016" lon="8.374737841800767"><ele>53.5</ele><time>2026-04-18T13:18:08Z</time></trkpt><trkpt lat="39.03013649102352" lon="8.374742731970791"><ele>55.75</ele><time>2026-04-18T13:18:09Z</time></trkpt><trkpt lat="39.0302882658473" lon="8.374741847558031"><ele>58.0</ele><time>2026-04-18T13:18:10Z</time></trkpt><trkpt lat="39.03044271143328" lon="8.374737073693362"><ele>58.0</ele><time>2026-04-18T13:18:11Z</time></trkpt><trkpt lat="39.03059808392639" lon="8.374736210788482"><ele>58.0</ele><time>2026-04-18T13:18:12Z</time></trkpt><trkpt lat="39.03075705467808" lon="8.374740091035399"><ele>58.0</ele><time>2026-04-18T13:18:13Z</time></trkpt><trkpt lat="39.030921320197606" lon="8.374742551666692"><ele>58.33333333333333</ele><time>2026-04-18T13:18:14Z</time></trkpt><trkpt lat="39.031088468105864" lon="8.374742079067353"><ele>58.66666666666667</ele><time>2026-04-18T13:18:15Z</time></trkpt><trkpt lat="39.03126362381728" lon="8.37474338489952"><ele>59.0</ele><time>2026-04-18T13:18:16Z</time></trkpt><trkpt lat="39.03143656123308" lon="8.374747123868422"><ele>59.0</ele><time>2026-04-18T13:18:17Z</time></trkpt><trkpt lat="39.031611674707925" lon="8.374748776748214"><ele>59.0</ele><time>2026-04-18T13:18:18Z</time></trkpt><trkpt lat="39.03178620965982" lon="8.374751623414245"><ele>59.0</ele><time>2026-04-18T13:18:19Z</time></trkpt><trkpt lat="39.031958719406305" lon="8.374755445160112"><ele>58.66666666666667</ele><time>2026-04-18T13:18:20Z</time></trkpt><trkpt lat="39.032126546075474" lon="8.374759176630587"><ele>58.33333333333333</ele><time>2026-04-18T13:18:21Z</time></trkpt><trkpt lat="39.032289360484896" lon="8.374759275807502"><ele>58.0</ele><time>2026-04-18T13:18:22Z</time></trkpt><trkpt lat="39.03245528259377" lon="8.374754130851363"><ele>58.0</ele><time>2026-04-18T13:18:23Z</time></trkpt><trkpt lat="39.032621385526866" lon="8.374750316409248"><ele>58.0</ele><time>2026-04-18T13:18:24Z</time></trkpt><trkpt lat="39.03279074529834" lon="8.374752230011087"><ele>58.0</ele><time>2026-04-18T13:18:25Z</time></trkpt><trkpt lat="39.03296614550578" lon="8.374756728901254"><ele>58.0</ele><time>2026-04-18T13:18:26Z</time></trkpt><trkpt lat="39.03314371644628" lon="8.3747620830993"><ele>58.0</ele><time>2026-04-18T13:18:27Z</time></trkpt><trkpt lat="39.03332432855265" lon="8.374764532988808"><ele>58.0</ele><time>2026-04-18T13:18:28Z</time></trkpt><trkpt lat="39.03350856518951" lon="8.374761148636642"><ele>58.33333333333333</ele><time>2026-04-18T13:18:29Z</time></trkpt><trkpt lat="39.033686048411276" lon="8.374785918557523"><ele>58.66666666666667</ele><time>2026-04-18T13:18:30Z</time></trkpt><trkpt lat="39.03386184607346" lon="8.37479007373169"><ele>59.0</ele><time>2026-04-18T13:18:31Z</time></trkpt><trkpt lat="39.0340380921122" lon="8.374797336829289"><ele>59.66666666666667</ele><time>2026-04-18T13:18:32Z</time></trkpt><trkpt lat="39.0342073061352" lon="8.3747902141357"><ele>60.33333333333333</ele><time>2026-04-18T13:18:33Z</time></trkpt><trkpt lat="39.03437222503456" lon="8.374820712998927"><ele>61.0</ele><time>2026-04-18T13:18:34Z</time></trkpt><trkpt lat="39.03453617076572" lon="8.37485762156074"><ele>61.0</ele><time>2026-04-18T13:18:35Z</time></trkpt><trkpt lat="39.03470320553431" lon="8.374895765259028"><ele>61.0</ele><time>2026-04-18T13:18:36Z</time></trkpt><trkpt lat="39.03487000828623" lon="8.374937493846335"><ele>61.0</ele><time>2026-04-18T13:18:37Z</time></trkpt><trkpt lat="39.035031509103035" lon="8.374977664311125"><ele>61.666666666666664</ele><time>2026-04-18T13:18:38Z</time></trkpt><trkpt lat="39.0351879674182" lon="8.375014246360196"><ele>62.33333333333333</ele><time>2026-04-18T13:18:39Z</time></trkpt><trkpt lat="39.03534263602177" lon="8.375049331981923"><ele>63.0</ele><time>2026-04-18T13:18:40Z</time></trkpt><trkpt lat="39.03548332466211" lon="8.375081697036707"><ele>63.0</ele><time>2026-04-18T13:18:41Z</time></trkpt><trkpt lat="39.035615483390764" lon="8.375116131255561"><ele>63.0</ele><time>2026-04-18T13:18:42Z</time></trkpt><trkpt lat="39.03573599742353" lon="8.375158166031154"><ele>63.0</ele><time>2026-04-18T13:18:43Z</time></trkpt><trkpt lat="39.035844862977406" lon="8.375205382332496"><ele>63.0</ele><time>2026-04-18T13:18:44Z</time></trkpt><trkpt lat="39.03593506725334" lon="8.375255803316268"><ele>63.4</ele><time>2026-04-18T13:18:45Z</time></trkpt><trkpt lat="39.0360103564291" lon="8.375298196762246"><ele>63.8</ele><time>2026-04-18T13:18:46Z</time></trkpt><trkpt lat="39.0361273274437" lon="8.375319825084132"><ele>64.2</ele><time>2026-04-18T13:18:48Z</time></trkpt><trkpt lat="39.036197393263556" lon="8.3752898761128"><ele>64.6</ele><time>2026-04-18T13:18:49Z</time></trkpt><trkpt lat="39.03628376737024" lon="8.37524828125058"><ele>65.0</ele><time>2026-04-18T13:18:50Z</time></trkpt><trkpt lat="39.03638022277804" lon="8.375203210610483"><ele>65.0</ele><time>2026-04-18T13:18:51Z</time></trkpt><trkpt lat="39.03649163371255" lon="8.375184720923944"><ele>65.0</ele><time>2026-04-18T13:18:52Z</time></trkpt><trkpt lat="39.036601798777355" lon="8.375139237722035"><ele>65.0</ele><time>2026-04-18T13:18:53Z</time></trkpt><trkpt lat="39.036719055748655" lon="8.37509243830087"><ele>65.0</ele><time>2026-04-18T13:18:54Z</time></trkpt><trkpt lat="39.03684332257681" lon="8.3750428411069"><ele>65.75</ele><time>2026-04-18T13:18:55Z</time></trkpt><trkpt lat="39.036967600911105" lon="8.374993239334538"><ele>66.5</ele><time>2026-04-18T13:18:56Z</time></trkpt><trkpt lat="39.037089972439645" lon="8.374944398598377"><ele>67.25</ele><time>2026-04-18T13:18:57Z</time></trkpt><trkpt lat="39.03720939971148" lon="8.374896732969077"><ele>68.0</ele><time>2026-04-18T13:18:58Z</time></trkpt><trkpt lat="39.03732786126431" lon="8.374849454184615"><ele>68.0</ele><time>2026-04-18T13:18:59Z</time></trkpt><trkpt lat="39.03744856524094" lon="8.374801278968633"><ele>68.0</ele><time>2026-04-18T13:19:00Z</time></trkpt><trkpt lat="39.037567190011195" lon="8.374752766075899"><ele>68.0</ele><time>2026-04-18T13:19:01Z</time></trkpt><trkpt lat="39.03768492614262" lon="8.374704380814059"><ele>68.0</ele><time>2026-04-18T13:19:02Z</time></trkpt><trkpt lat="39.03780039896471" lon="8.374656727452019"><ele>67.25</ele><time>2026-04-18T13:19:03Z</time></trkpt><trkpt lat="39.03791506963318" lon="8.374609003463526"><ele>66.5</ele><time>2026-04-18T13:19:04Z</time></trkpt><trkpt lat="39.038027990079094" lon="8.374562007906281"><ele>65.75</ele><time>2026-04-18T13:19:05Z</time></trkpt><trkpt lat="39.03814153200416" lon="8.374514753704343"><ele>65.0</ele><time>2026-04-18T13:19:06Z</time></trkpt><trkpt lat="39.03825361260122" lon="8.374468107676933"><ele>64.5</ele><time>2026-04-18T13:19:07Z</time></trkpt><trkpt lat="39.0383676627408" lon="8.374420642215293"><ele>64.0</ele><time>2026-04-18T13:19:08Z</time></trkpt><trkpt lat="39.038483781561816" lon="8.374373294117001"><ele>63.5</ele><time>2026-04-18T13:19:09Z</time></trkpt><trkpt lat="39.03859592098994" lon="8.374306070721653"><ele>63.0</ele><time>2026-04-18T13:19:10Z</time></trkpt><trkpt lat="39.03872155262161" lon="8.37427982197097"><ele>63.0</ele><time>2026-04-18T13:19:11Z</time></trkpt><trkpt lat="39.0388441506202" lon="8.374233019961823"><ele>63.0</ele><time>2026-04-18T13:19:12Z</time></trkpt><trkpt lat="39.0389661667651" lon="8.374181478367467"><ele>63.0</ele><time>2026-04-18T13:19:13Z</time></trkpt><trkpt lat="39.039090622873516" lon="8.374124657986549"><ele>63.0</ele><time>2026-04-18T13:19:14Z</time></trkpt><trkpt lat="39.03921148599216" lon="8.374062388120137"><ele>62.25</ele><time>2026-04-18T13:19:15Z</time></trkpt><trkpt lat="39.0393303356602" lon="8.373993116297017"><ele>61.5</ele><time>2026-04-18T13:19:16Z</time></trkpt><trkpt lat="39.039447811947255" lon="8.373913522953147"><ele>60.75</ele><time>2026-04-18T13:19:17Z</time></trkpt><trkpt lat="39.03955990800481" lon="8.37383248423584"><ele>60.0</ele><time>2026-04-18T13:19:18Z</time></trkpt><trkpt lat="39.039674687362314" lon="8.373749505688687"><ele>60.0</ele><time>2026-04-18T13:19:19Z</time></trkpt><trkpt lat="39.03979158930754" lon="8.373664992597801"><ele>60.0</ele><time>2026-04-18T13:19:20Z</time></trkpt><trkpt lat="39.03990876266784" lon="8.37358007843299"><ele>60.0</ele><time>2026-04-18T13:19:21Z</time></trkpt><trkpt lat="39.04002512466935" lon="8.373495200091511"><ele>60.0</ele><time>2026-04-18T13:19:22Z</time></trkpt><trkpt lat="39.040138394139696" lon="8.373411562960163"><ele>61.25</ele><time>2026-04-18T13:19:23Z</time></trkpt><trkpt lat="39.04025430577939" lon="8.373324229757813"><ele>62.5</ele><time>2026-04-18T13:19:24Z</time></trkpt><trkpt lat="39.040366049347774" lon="8.37323792138652"><ele>63.75</ele><time>2026-04-18T13:19:25Z</time></trkpt><trkpt lat="39.040478019589045" lon="8.373149115090397"><ele>65.0</ele><time>2026-04-18T13:19:26Z</time></trkpt><trkpt lat="39.0405787458636" lon="8.373041740451004"><ele>64.75</ele><time>2026-04-18T13:19:27Z</time></trkpt><trkpt lat="39.04070081079522" lon="8.372964718546001"><ele>64.5</ele><time>2026-04-18T13:19:28Z</time></trkpt><trkpt lat="39.04081400056261" lon="8.372870191479507"><ele>64.25</ele><time>2026-04-18T13:19:29Z</time></trkpt><trkpt lat="39.04092637727282" lon="8.372775293542773"><ele>64.0</ele><time>2026-04-18T13:19:30Z</time></trkpt><trkpt lat="39.041035825299545" lon="8.372682821860506"><ele>64.0</ele><time>2026-04-18T13:19:31Z</time></trkpt><trkpt lat="39.0411469941072" lon="8.372588896275573"><ele>64.0</ele><time>2026-04-18T13:19:32Z</time></trkpt><trkpt lat="39.041260825097424" lon="8.37249272144889"><ele>64.0</ele><time>2026-04-18T13:19:33Z</time></trkpt><trkpt lat="39.04137603830397" lon="8.372395378749607"><ele>64.0</ele><time>2026-04-18T13:19:34Z</time></trkpt><trkpt lat="39.041491192240386" lon="8.37229627608267"><ele>64.0</ele><time>2026-04-18T13:19:35Z</time></trkpt><trkpt lat="39.04160761145804" lon="8.372195916223959"><ele>64.0</ele><time>2026-04-18T13:19:36Z</time></trkpt><trkpt lat="39.04172316862624" lon="8.37209502894641"><ele>64.0</ele><time>2026-04-18T13:19:37Z</time></trkpt><trkpt lat="39.0418351636972" lon="8.371986546590445"><ele>64.0</ele><time>2026-04-18T13:19:38Z</time></trkpt><trkpt lat="39.041939277480395" lon="8.371861060350396"><ele>63.25</ele><time>2026-04-18T13:19:39Z</time></trkpt><trkpt lat="39.04203341930026" lon="8.371717019462988"><ele>62.5</ele><time>2026-04-18T13:19:40Z</time></trkpt><trkpt lat="39.04212186674645" lon="8.371577438306183"><ele>61.75</ele><time>2026-04-18T13:19:41Z</time></trkpt><trkpt lat="39.04220665728889" lon="8.371442642930845"><ele>61.0</ele><time>2026-04-18T13:19:42Z</time></trkpt><trkpt lat="39.04228233363346" lon="8.37131224752181"><ele>59.75</ele><time>2026-04-18T13:19:43Z</time></trkpt><trkpt lat="39.04235571119554" lon="8.371189206920159"><ele>58.5</ele><time>2026-04-18T13:19:44Z</time></trkpt><trkpt lat="39.04243700059106" lon="8.371079125925414"><ele>57.25</ele><time>2026-04-18T13:19:45Z</time></trkpt><trkpt lat="39.042533326458646" lon="8.371000208797115"><ele>56.0</ele><time>2026-04-18T13:19:46Z</time></trkpt><trkpt lat="39.04263982438723" lon="8.37093389954685"><ele>55.75</ele><time>2026-04-18T13:19:47Z</time></trkpt><trkpt lat="39.042751602622694" lon="8.370870407580862"><ele>55.5</ele><time>2026-04-18T13:19:48Z</time></trkpt><trkpt lat="39.042868314999964" lon="8.370806908302006"><ele>55.25</ele><time>2026-04-18T13:19:49Z</time></trkpt><trkpt lat="39.04298890154657" lon="8.37073978903937"><ele>55.0</ele><time>2026-04-18T13:19:50Z</time></trkpt><trkpt lat="39.04311273303657" lon="8.370670003246858"><ele>55.0</ele><time>2026-04-18T13:19:51Z</time></trkpt><trkpt lat="39.04323831052416" lon="8.37060163601359"><ele>55.0</ele><time>2026-04-18T13:19:52Z</time></trkpt><trkpt lat="39.04336831024262" lon="8.37053354458592"><ele>55.0</ele><time>2026-04-18T13:19:53Z</time></trkpt><trkpt lat="39.04349921172286" lon="8.370464980807002"><ele>55.0</ele><time>2026-04-18T13:19:54Z</time></trkpt><trkpt lat="39.04362980749052" lon="8.370393467142721"><ele>54.75</ele><time>2026-04-18T13:19:55Z</time></trkpt><trkpt lat="39.043759077175864" lon="8.370322147979524"><ele>54.5</ele><time>2026-04-18T13:19:56Z</time></trkpt><trkpt lat="39.043888737411265" lon="8.370250613405247"><ele>54.25</ele><time>2026-04-18T13:19:57Z</time></trkpt><trkpt lat="39.04401822824555" lon="8.370180356613801"><ele>54.0</ele><time>2026-04-18T13:19:58Z</time></trkpt><trkpt lat="39.04414520995409" lon="8.370112465842357"><ele>54.0</ele><time>2026-04-18T13:19:59Z</time></trkpt><trkpt lat="39.04427459050886" lon="8.370041251807644"><ele>54.0</ele><time>2026-04-18T13:20:00Z</time></trkpt><trkpt lat="39.04439915466765" lon="8.369969164670842"><ele>54.0</ele><time>2026-04-18T13:20:01Z</time></trkpt><trkpt lat="39.044524692877154" lon="8.369890551159203"><ele>54.0</ele><time>2026-04-18T13:20:02Z</time></trkpt><trkpt lat="39.044645846433326" lon="8.369804567796406"><ele>54.0</ele><time>2026-04-18T13:20:03Z</time></trkpt><trkpt lat="39.0447632756451" lon="8.369700957229593"><ele>54.0</ele><time>2026-04-18T13:20:04Z</time></trkpt><trkpt lat="39.0448679408627" lon="8.369564570309096"><ele>54.0</ele><time>2026-04-18T13:20:05Z</time></trkpt><trkpt lat="39.04497106423425" lon="8.36942824270036"><ele>54.0</ele><time>2026-04-18T13:20:06Z</time></trkpt><trkpt lat="39.04507024110841" lon="8.369288376000064"><ele>54.0</ele><time>2026-04-18T13:20:07Z</time></trkpt><trkpt lat="39.04516560842398" lon="8.369140820611657"><ele>54.0</ele><time>2026-04-18T13:20:08Z</time></trkpt><trkpt lat="39.045250503318734" lon="8.368986946479405"><ele>54.0</ele><time>2026-04-18T13:20:09Z</time></trkpt><trkpt lat="39.04533045723157" lon="8.368823698726528"><ele>54.0</ele><time>2026-04-18T13:20:10Z</time></trkpt><trkpt lat="39.045408419645575" lon="8.368663075360386"><ele>53.25</ele><time>2026-04-18T13:20:11Z</time></trkpt><trkpt lat="39.04548494565835" lon="8.368507934606768"><ele>52.5</ele><time>2026-04-18T13:20:12Z</time></trkpt><trkpt lat="39.045570242631364" lon="8.36836403166413"><ele>51.75</ele><time>2026-04-18T13:20:13Z</time></trkpt><trkpt lat="39.045659564287355" lon="8.368232275048376"><ele>51.0</ele><time>2026-04-18T13:20:14Z</time></trkpt><trkpt lat="39.04576452129382" lon="8.368109063926958"><ele>50.25</ele><time>2026-04-18T13:20:15Z</time></trkpt><trkpt lat="39.04587472596093" lon="8.368001762807353"><ele>49.5</ele><time>2026-04-18T13:20:16Z</time></trkpt><trkpt lat="39.045993500836154" lon="8.36789956045259"><ele>48.75</ele><time>2026-04-18T13:20:17Z</time></trkpt><trkpt lat="39.04611519388376" lon="8.367794308950213"><ele>48.0</ele><time>2026-04-18T13:20:18Z</time></trkpt><trkpt lat="39.04623617313642" lon="8.36768474841248"><ele>48.0</ele><time>2026-04-18T13:20:19Z</time></trkpt><trkpt lat="39.046352495562466" lon="8.367579917458231"><ele>48.0</ele><time>2026-04-18T13:20:20Z</time></trkpt><trkpt lat="39.04646776617304" lon="8.367479385789135"><ele>48.0</ele><time>2026-04-18T13:20:21Z</time></trkpt><trkpt lat="39.04657975487419" lon="8.367381716362669"><ele>48.0</ele><time>2026-04-18T13:20:22Z</time></trkpt><trkpt lat="39.04669158759206" lon="8.367283240887845"><ele>47.5</ele><time>2026-04-18T13:20:23Z</time></trkpt><trkpt lat="39.046804332314316" lon="8.36718153009573"><ele>47.0</ele><time>2026-04-18T13:20:24Z</time></trkpt><trkpt lat="39.0469166273053" lon="8.367083301122326"><ele>46.5</ele><time>2026-04-18T13:20:25Z</time></trkpt><trkpt lat="39.047027019189535" lon="8.366973391043524"><ele>46.0</ele><time>2026-04-18T13:20:26Z</time></trkpt><trkpt lat="39.047152478739534" lon="8.366893636639647"><ele>46.0</ele><time>2026-04-18T13:20:27Z</time></trkpt><trkpt lat="39.04728160882195" lon="8.366819782392401"><ele>46.0</ele><time>2026-04-18T13:20:28Z</time></trkpt><trkpt lat="39.047414605276224" lon="8.366744122124512"><ele>46.0</ele><time>2026-04-18T13:20:29Z</time></trkpt><trkpt lat="39.04755360239954" lon="8.366685176591787"><ele>46.0</ele><time>2026-04-18T13:20:30Z</time></trkpt><trkpt lat="39.04768508802119" lon="8.366604924487314"><ele>47.0</ele><time>2026-04-18T13:20:31Z</time></trkpt><trkpt lat="39.047814383432964" lon="8.36652069144142"><ele>48.0</ele><time>2026-04-18T13:20:32Z</time></trkpt><trkpt lat="39.04793627183003" lon="8.366430444261814"><ele>49.0</ele><time>2026-04-18T13:20:33Z</time></trkpt><trkpt lat="39.04806302477105" lon="8.366389567638878"><ele>50.0</ele><time>2026-04-18T13:20:34Z</time></trkpt><trkpt lat="39.04818480633308" lon="8.366362965847884"><ele>49.75</ele><time>2026-04-18T13:20:35Z</time></trkpt><trkpt lat="39.04830138859963" lon="8.36635090936155"><ele>49.5</ele><time>2026-04-18T13:20:36Z</time></trkpt><trkpt lat="39.04841857873664" lon="8.366304485858603"><ele>49.25</ele><time>2026-04-18T13:20:37Z</time></trkpt><trkpt lat="39.04853212517126" lon="8.366212384578404"><ele>49.0</ele><time>2026-04-18T13:20:38Z</time></trkpt><trkpt lat="39.04863780667179" lon="8.36609051339155"><ele>49.0</ele><time>2026-04-18T13:20:39Z</time></trkpt><trkpt lat="39.04874586941138" lon="8.365963110179313"><ele>49.0</ele><time>2026-04-18T13:20:40Z</time></trkpt><trkpt lat="39.048856121445866" lon="8.365835885369885"><ele>49.0</ele><time>2026-04-18T13:20:41Z</time></trkpt><trkpt lat="39.048974295123344" lon="8.365729277451196"><ele>49.0</ele><time>2026-04-18T13:20:42Z</time></trkpt><trkpt lat="39.04910306499526" lon="8.365632489861243"><ele>49.25</ele><time>2026-04-18T13:20:43Z</time></trkpt><trkpt lat="39.04922633219582" lon="8.365542383509629"><ele>49.5</ele><time>2026-04-18T13:20:44Z</time></trkpt><trkpt lat="39.04934430075193" lon="8.365454739257576"><ele>49.75</ele><time>2026-04-18T13:20:45Z</time></trkpt><trkpt lat="39.049458197785285" lon="8.365370120011807"><ele>50.0</ele><time>2026-04-18T13:20:46Z</time></trkpt><trkpt lat="39.049568539902744" lon="8.365284736386709"><ele>49.75</ele><time>2026-04-18T13:20:47Z</time></trkpt><trkpt lat="39.04967871960499" lon="8.365191694260238"><ele>49.5</ele><time>2026-04-18T13:20:48Z</time></trkpt><trkpt lat="39.04978036327942" lon="8.365085860401456"><ele>49.25</ele><time>2026-04-18T13:20:49Z</time></trkpt><trkpt lat="39.04987815150087" lon="8.36497425646574"><ele>49.0</ele><time>2026-04-18T13:20:50Z</time></trkpt><trkpt lat="39.04997598862534" lon="8.36485830126794"><ele>49.0</ele><time>2026-04-18T13:20:51Z</time></trkpt><trkpt lat="39.050080469879866" lon="8.364758010958184"><ele>49.0</ele><time>2026-04-18T13:20:52Z</time></trkpt><trkpt lat="39.050194082185875" lon="8.364674537921335"><ele>49.0</ele><time>2026-04-18T13:20:53Z</time></trkpt><trkpt lat="39.050315697837455" lon="8.364595533082722"><ele>49.0</ele><time>2026-04-18T13:20:54Z</time></trkpt><trkpt lat="39.050441653844494" lon="8.364511613464924"><ele>49.0</ele><time>2026-04-18T13:20:55Z</time></trkpt><trkpt lat="39.05057365169601" lon="8.364440660520936"><ele>49.0</ele><time>2026-04-18T13:20:56Z</time></trkpt><trkpt lat="39.050712235689986" lon="8.364392752593862"><ele>49.0</ele><time>2026-04-18T13:20:57Z</time></trkpt><trkpt lat="39.05085408698579" lon="8.364344777531894"><ele>49.0</ele><time>2026-04-18T13:20:58Z</time></trkpt><trkpt lat="39.050992491236514" lon="8.364290581472508"><ele>49.0</ele><time>2026-04-18T13:20:59Z</time></trkpt><trkpt lat="39.05112791606495" lon="8.364234382172322"><ele>49.0</ele><time>2026-04-18T13:21:00Z</time></trkpt><trkpt lat="39.0512664900619" lon="8.36417605840699"><ele>49.0</ele><time>2026-04-18T13:21:01Z</time></trkpt><trkpt lat="39.05141095734303" lon="8.364113862005418"><ele>49.0</ele><time>2026-04-18T13:21:02Z</time></trkpt><trkpt lat="39.05155834123113" lon="8.364050409953554"><ele>49.0</ele><time>2026-04-18T13:21:03Z</time></trkpt><trkpt lat="39.05170855923119" lon="8.363985737750982"><ele>49.0</ele><time>2026-04-18T13:21:04Z</time></trkpt><trkpt lat="39.05185510447747" lon="8.363922648218153"><ele>49.0</ele><time>2026-04-18T13:21:05Z</time></trkpt><trkpt lat="39.05199703673311" lon="8.363860576611227"><ele>48.5</ele><time>2026-04-18T13:21:06Z</time></trkpt><trkpt lat="39.05213448842537" lon="8.363797903843796"><ele>48.0</ele><time>2026-04-18T13:21:07Z</time></trkpt><trkpt lat="39.052271958828584" lon="8.363735222741843"><ele>47.5</ele><time>2026-04-18T13:21:08Z</time></trkpt><trkpt lat="39.05240792753101" lon="8.363673668708875"><ele>47.0</ele><time>2026-04-18T13:21:09Z</time></trkpt><trkpt lat="39.052545117112324" lon="8.363611750272339"><ele>47.0</ele><time>2026-04-18T13:21:10Z</time></trkpt><trkpt lat="39.05268281011441" lon="8.36355069803461"><ele>47.0</ele><time>2026-04-18T13:21:11Z</time></trkpt><trkpt lat="39.05282331657036" lon="8.36348650806504"><ele>47.0</ele><time>2026-04-18T13:21:12Z</time></trkpt><trkpt lat="39.052960876916714" lon="8.363406524567106"><ele>47.0</ele><time>2026-04-18T13:21:13Z</time></trkpt><trkpt lat="39.05309820368007" lon="8.36331928154842"><ele>47.0</ele><time>2026-04-18T13:21:14Z</time></trkpt><trkpt lat="39.05323109302507" lon="8.36322963925721"><ele>47.0</ele><time>2026-04-18T13:21:15Z</time></trkpt><trkpt lat="39.053363546539366" lon="8.363141355796444"><ele>47.0</ele><time>2026-04-18T13:21:16Z</time></trkpt><trkpt lat="39.05349366830701" lon="8.363057244461931"><ele>47.0</ele><time>2026-04-18T13:21:17Z</time></trkpt><trkpt lat="39.053621970596446" lon="8.362975637204997"><ele>46.0</ele><time>2026-04-18T13:21:18Z</time></trkpt><trkpt lat="39.05375200794111" lon="8.362898022704575"><ele>45.0</ele><time>2026-04-18T13:21:19Z</time></trkpt><trkpt lat="39.05388133447636" lon="8.362820832503083"><ele>44.0</ele><time>2026-04-18T13:21:20Z</time></trkpt><trkpt lat="39.054011237857964" lon="8.362743297919566"><ele>43.0</ele><time>2026-04-18T13:21:21Z</time></trkpt><trkpt lat="39.054142109970144" lon="8.362666866333822"><ele>43.0</ele><time>2026-04-18T13:21:22Z</time></trkpt><trkpt lat="39.05427207045994" lon="8.362592191862833"><ele>43.0</ele><time>2026-04-18T13:21:23Z</time></trkpt><trkpt lat="39.0544009137731" lon="8.362518159202075"><ele>43.0</ele><time>2026-04-18T13:21:24Z</time></trkpt><trkpt lat="39.05452825121529" lon="8.362445318701651"><ele>43.0</ele><time>2026-04-18T13:21:25Z</time></trkpt><trkpt lat="39.0546500428717" lon="8.36237605406264"><ele>43.0</ele><time>2026-04-18T13:21:26Z</time></trkpt><trkpt lat="39.054769315167704" lon="8.362308222396537"><ele>43.0</ele><time>2026-04-18T13:21:27Z</time></trkpt><trkpt lat="39.054880344105065" lon="8.362222531299315"><ele>43.0</ele><time>2026-04-18T13:21:28Z</time></trkpt><trkpt lat="39.055007251727766" lon="8.362181104019585"><ele>43.0</ele><time>2026-04-18T13:21:29Z</time></trkpt><trkpt lat="39.05513031829464" lon="8.36211921782833"><ele>42.25</ele><time>2026-04-18T13:21:30Z</time></trkpt><trkpt lat="39.055256805335965" lon="8.362055611409259"><ele>41.5</ele><time>2026-04-18T13:21:31Z</time></trkpt><trkpt lat="39.055387530906025" lon="8.36198987354473"><ele>40.75</ele><time>2026-04-18T13:21:32Z</time></trkpt><trkpt lat="39.055520683947314" lon="8.361924869216146"><ele>40.0</ele><time>2026-04-18T13:21:33Z</time></trkpt><trkpt lat="39.055656546100856" lon="8.361856186961012"><ele>39.0</ele><time>2026-04-18T13:21:34Z</time></trkpt><trkpt lat="39.05579380601808" lon="8.36177848308033"><ele>38.0</ele><time>2026-04-18T13:21:35Z</time></trkpt><trkpt lat="39.05593203517882" lon="8.36169733953793"><ele>37.0</ele><time>2026-04-18T13:21:36Z</time></trkpt><trkpt lat="39.056071226763166" lon="8.361616822654781"><ele>37.0</ele><time>2026-04-18T13:21:37Z</time></trkpt><trkpt lat="39.05620934260325" lon="8.36153692830108"><ele>37.0</ele><time>2026-04-18T13:21:38Z</time></trkpt><trkpt lat="39.05634569889625" lon="8.361454902957389"><ele>37.0</ele><time>2026-04-18T13:21:39Z</time></trkpt><trkpt lat="39.056481945617215" lon="8.36137141061309"><ele>37.0</ele><time>2026-04-18T13:21:40Z</time></trkpt><trkpt lat="39.05661799036479" lon="8.361288697456526"><ele>37.0</ele><time>2026-04-18T13:21:41Z</time></trkpt><trkpt lat="39.05675518334042" lon="8.361206758156833"><ele>37.0</ele><time>2026-04-18T13:21:42Z</time></trkpt><trkpt lat="39.05689461260424" lon="8.361123483074216"><ele>37.0</ele><time>2026-04-18T13:21:43Z</time></trkpt><trkpt lat="39.05703447035039" lon="8.361039951830454"><ele>37.0</ele><time>2026-04-18T13:21:44Z</time></trkpt><trkpt lat="39.057172703479175" lon="8.360956936072421"><ele>37.0</ele><time>2026-04-18T13:21:45Z</time></trkpt><trkpt lat="39.05730969936983" lon="8.360874704210074"><ele>37.0</ele><time>2026-04-18T13:21:46Z</time></trkpt><trkpt lat="39.05744678431504" lon="8.360792165959232"><ele>37.0</ele><time>2026-04-18T13:21:47Z</time></trkpt><trkpt lat="39.057582586436865" lon="8.360709337822277"><ele>37.0</ele><time>2026-04-18T13:21:48Z</time></trkpt><trkpt lat="39.05771774834352" lon="8.360626900139517"><ele>36.66666666666667</ele><time>2026-04-18T13:21:49Z</time></trkpt><trkpt lat="39.05785308723177" lon="8.360545130290538"><ele>36.333333333333336</ele><time>2026-04-18T13:21:50Z</time></trkpt><trkpt lat="39.057989878794544" lon="8.360462614496702"><ele>36.0</ele><time>2026-04-18T13:21:51Z</time></trkpt><trkpt lat="39.05812402895445" lon="8.360379166822865"><ele>35.5</ele><time>2026-04-18T13:21:52Z</time></trkpt><trkpt lat="39.05825776881552" lon="8.360294688613973"><ele>35.0</ele><time>2026-04-18T13:21:53Z</time></trkpt><trkpt lat="39.0583900051733" lon="8.360211745583461"><ele>34.5</ele><time>2026-04-18T13:21:54Z</time></trkpt><trkpt lat="39.05852097527223" lon="8.360131418427432"><ele>34.0</ele><time>2026-04-18T13:21:55Z</time></trkpt><trkpt lat="39.05865116918474" lon="8.360051567280479"><ele>33.75</ele><time>2026-04-18T13:21:56Z</time></trkpt><trkpt lat="39.058780394191224" lon="8.35997095431671"><ele>33.5</ele><time>2026-04-18T13:21:57Z</time></trkpt><trkpt lat="39.05890735265736" lon="8.35989160528703"><ele>33.25</ele><time>2026-04-18T13:21:58Z</time></trkpt><trkpt lat="39.05903475218185" lon="8.359812808268401"><ele>33.0</ele><time>2026-04-18T13:21:59Z</time></trkpt><trkpt lat="39.059162746263574" lon="8.359734121467573"><ele>32.0</ele><time>2026-04-18T13:22:00Z</time></trkpt><trkpt lat="39.059291097357914" lon="8.359662456656254"><ele>31.0</ele><time>2026-04-18T13:22:01Z</time></trkpt><trkpt lat="39.05942556392136" lon="8.359595493709048"><ele>30.0</ele><time>2026-04-18T13:22:02Z</time></trkpt><trkpt lat="39.05955615137857" lon="8.35952065946436"><ele>29.0</ele><time>2026-04-18T13:22:03Z</time></trkpt><trkpt lat="39.0596858128694" lon="8.359436978662556"><ele>29.0</ele><time>2026-04-18T13:22:04Z</time></trkpt><trkpt lat="39.05981545791134" lon="8.359353116108414"><ele>29.0</ele><time>2026-04-18T13:22:05Z</time></trkpt><trkpt lat="39.05994437872396" lon="8.35926972205902"><ele>29.0</ele><time>2026-04-18T13:22:06Z</time></trkpt><trkpt lat="39.06007507313685" lon="8.359185180743035"><ele>29.0</ele><time>2026-04-18T13:22:07Z</time></trkpt><trkpt lat="39.060204983663176" lon="8.359101146477304"><ele>28.5</ele><time>2026-04-18T13:22:08Z</time></trkpt><trkpt lat="39.06033502300468" lon="8.359017028892998"><ele>28.0</ele><time>2026-04-18T13:22:09Z</time></trkpt><trkpt lat="39.06046669018403" lon="8.358931858305937"><ele>27.5</ele><time>2026-04-18T13:22:10Z</time></trkpt><trkpt lat="39.060598699477616" lon="8.358846466453702"><ele>27.0</ele><time>2026-04-18T13:22:11Z</time></trkpt><trkpt lat="39.060731117393466" lon="8.35876131022408"><ele>24.75</ele><time>2026-04-18T13:22:12Z</time></trkpt><trkpt lat="39.06086402779759" lon="8.358676429260157"><ele>22.5</ele><time>2026-04-18T13:22:13Z</time></trkpt><trkpt lat="39.060997048096894" lon="8.358594195848724"><ele>20.25</ele><time>2026-04-18T13:22:14Z</time></trkpt><trkpt lat="39.06113343248446" lon="8.358516356603552"><ele>18.0</ele><time>2026-04-18T13:22:15Z</time></trkpt><trkpt lat="39.061272887097054" lon="8.358450255007906"><ele>18.0</ele><time>2026-04-18T13:22:16Z</time></trkpt><trkpt lat="39.061412780623385" lon="8.35838658872657"><ele>18.0</ele><time>2026-04-18T13:22:17Z</time></trkpt><trkpt lat="39.06155242929707" lon="8.358323032538166"><ele>18.0</ele><time>2026-04-18T13:22:18Z</time></trkpt><trkpt lat="39.061692800305316" lon="8.35826200709988"><ele>18.0</ele><time>2026-04-18T13:22:19Z</time></trkpt><trkpt lat="39.06183685773678" lon="8.358203934171225"><ele>18.75</ele><time>2026-04-18T13:22:20Z</time></trkpt><trkpt lat="39.06197835361407" lon="8.358144877620104"><ele>19.5</ele><time>2026-04-18T13:22:21Z</time></trkpt><trkpt lat="39.0621167067184" lon="8.358085958323603"><ele>20.25</ele><time>2026-04-18T13:22:22Z</time></trkpt><trkpt lat="39.06224957364903" lon="8.35803286069479"><ele>21.0</ele><time>2026-04-18T13:22:23Z</time></trkpt><trkpt lat="39.0623769715382" lon="8.35798216933642"><ele>18.2</ele><time>2026-04-18T13:22:24Z</time></trkpt><trkpt lat="39.06249176355863" lon="8.357941625641578"><ele>15.400000000000002</ele><time>2026-04-18T13:22:25Z</time></trkpt><trkpt lat="39.06259651034521" lon="8.35788845886378"><ele>12.6</ele><time>2026-04-18T13:22:26Z</time></trkpt><trkpt lat="39.06269810021105" lon="8.357894749891841"><ele>9.8</ele><time>2026-04-18T13:22:27Z</time></trkpt><trkpt lat="39.06278915551783" lon="8.35788936631756"><ele>7.0</ele><time>2026-04-18T13:22:28Z</time></trkpt><trkpt lat="39.06286798277535" lon="8.357887909976924"><ele>7.000000000000001</ele><time>2026-04-18T13:22:29Z</time></trkpt><trkpt lat="39.062967309018184" lon="8.35788968412487"><ele>7.0</ele><time>2026-04-18T13:22:31Z</time></trkpt><trkpt lat="39.063036589841765" lon="8.35789158500176"><ele>7.0</ele><time>2026-04-18T13:22:33Z</time></trkpt><trkpt lat="39.06310797067177" lon="8.35789354349689"><ele>7.0</ele><time>2026-04-18T13:22:35Z</time></trkpt><trkpt lat="39.063183454593336" lon="8.357895614567907"><ele>7.000000000000001</ele><time>2026-04-18T13:22:38Z</time></trkpt><trkpt lat="39.063276820436116" lon="8.35789740014289"><ele>7.0</ele><time>2026-04-18T13:22:41Z</time></trkpt><trkpt lat="39.06334169095924" lon="8.357898032145306"><ele>7.333333333333334</ele><time>2026-04-18T13:22:43Z</time></trkpt><trkpt lat="39.063406587097425" lon="8.357897049599034"><ele>7.666666666666667</ele><time>2026-04-18T13:22:45Z</time></trkpt><trkpt lat="39.06348140985377" lon="8.357893676953251"><ele>8.0</ele><time>2026-04-18T13:23:11Z</time></trkpt><trkpt lat="39.06355624254184" lon="8.357889528084362"><ele>8.333333333333334</ele><time>2026-04-18T13:23:13Z</time></trkpt><trkpt lat="39.06364294649071" lon="8.357882182691803"><ele>8.666666666666666</ele><time>2026-04-18T13:23:15Z</time></trkpt><trkpt lat="39.06370748290831" lon="8.357875638651102"><ele>9.0</ele><time>2026-04-18T13:23:17Z</time></trkpt><trkpt lat="39.06380238817695" lon="8.357861466513713"><ele>9.0</ele><time>2026-04-18T13:23:20Z</time></trkpt><trkpt lat="39.063927205450106" lon="8.357819489097418"><ele>9.0</ele><time>2026-04-18T13:23:22Z</time></trkpt><trkpt lat="39.06402153548735" lon="8.357777595528212"><ele>9.0</ele><time>2026-04-18T13:23:24Z</time></trkpt><trkpt lat="39.064089513987504" lon="8.357747569627008"><ele>9.0</ele><time>2026-04-18T13:23:26Z</time></trkpt><trkpt lat="39.06418771876272" lon="8.357702216759288"><ele>9.0</ele><time>2026-04-18T13:23:28Z</time></trkpt><trkpt lat="39.06424719911362" lon="8.35767494773342"><ele>10.0</ele><time>2026-04-18T13:23:29Z</time></trkpt><trkpt lat="39.064336701839636" lon="8.357625200794596"><ele>11.0</ele><time>2026-04-18T13:23:31Z</time></trkpt><trkpt lat="39.06440871661761" lon="8.357572060068783"><ele>11.999999999999998</ele><time>2026-04-18T13:23:33Z</time></trkpt><trkpt lat="39.06447412912559" lon="8.357541475857293"><ele>13.0</ele><time>2026-04-18T13:23:34Z</time></trkpt><trkpt lat="39.06456192592136" lon="8.357484803265313"><ele>14.0</ele><time>2026-04-18T13:23:35Z</time></trkpt><trkpt lat="39.06465453027233" lon="8.35742432788891"><ele>14.0</ele><time>2026-04-18T13:23:36Z</time></trkpt><trkpt lat="39.064760323810596" lon="8.3573573853622"><ele>14.0</ele><time>2026-04-18T13:23:37Z</time></trkpt><trkpt lat="39.064881196618224" lon="8.357295395108828"><ele>14.0</ele><time>2026-04-18T13:23:38Z</time></trkpt><trkpt lat="39.06501046702187" lon="8.35724526507534"><ele>14.0</ele><time>2026-04-18T13:23:39Z</time></trkpt><trkpt lat="39.06515983831114" lon="8.357246416688646"><ele>15.0</ele><time>2026-04-18T13:23:40Z</time></trkpt><trkpt lat="39.06530175803875" lon="8.357207704784686"><ele>16.0</ele><time>2026-04-18T13:23:41Z</time></trkpt><trkpt lat="39.06544456925367" lon="8.357167874867008"><ele>17.0</ele><time>2026-04-18T13:23:42Z</time></trkpt><trkpt lat="39.06559494575256" lon="8.357127627003864"><ele>18.0</ele><time>2026-04-18T13:23:43Z</time></trkpt><trkpt lat="39.06574984691028" lon="8.357087941318364"><ele>16.0</ele><time>2026-04-18T13:23:44Z</time></trkpt><trkpt lat="39.065908179205245" lon="8.357047376555373"><ele>14.0</ele><time>2026-04-18T13:23:45Z</time></trkpt><trkpt lat="39.06607323550568" lon="8.35700446476162"><ele>12.0</ele><time>2026-04-18T13:23:46Z</time></trkpt><trkpt lat="39.06623659325911" lon="8.356961713215522"><ele>12.0</ele><time>2026-04-18T13:23:47Z</time></trkpt><trkpt lat="39.06640075553707" lon="8.356918847948094"><ele>12.0</ele><time>2026-04-18T13:23:48Z</time></trkpt><trkpt lat="39.0665607433393" lon="8.35687712358187"><ele>12.0</ele><time>2026-04-18T13:23:49Z</time></trkpt><trkpt lat="39.066719942281445" lon="8.356833704277319"><ele>13.333333333333332</ele><time>2026-04-18T13:23:50Z</time></trkpt><trkpt lat="39.06687339990361" lon="8.356791393856321"><ele>14.666666666666666</ele><time>2026-04-18T13:23:51Z</time></trkpt><trkpt lat="39.067025875834226" lon="8.356756323175384"><ele>16.0</ele><time>2026-04-18T13:23:52Z</time></trkpt><trkpt lat="39.06717965988063" lon="8.35672862910791"><ele>16.0</ele><time>2026-04-18T13:23:53Z</time></trkpt><trkpt lat="39.06733321811663" lon="8.356704223137491"><ele>16.0</ele><time>2026-04-18T13:23:54Z</time></trkpt><trkpt lat="39.06748269483458" lon="8.356682567694559"><ele>16.0</ele><time>2026-04-18T13:23:55Z</time></trkpt><trkpt lat="39.067635574928964" lon="8.356666128498878"><ele>16.25</ele><time>2026-04-18T13:23:56Z</time></trkpt><trkpt lat="39.06778424219595" lon="8.356655023768585"><ele>16.5</ele><time>2026-04-18T13:23:57Z</time></trkpt><trkpt lat="39.06792654817451" lon="8.356645402850694"><ele>16.75</ele><time>2026-04-18T13:23:58Z</time></trkpt><trkpt lat="39.06806714821275" lon="8.35663604592632"><ele>17.0</ele><time>2026-04-18T13:23:59Z</time></trkpt><trkpt lat="39.068203498467405" lon="8.356609038017124"><ele>16.75</ele><time>2026-04-18T13:24:00Z</time></trkpt><trkpt lat="39.06833540509084" lon="8.356623672566986"><ele>16.5</ele><time>2026-04-18T13:24:01Z</time></trkpt><trkpt lat="39.06846655677842" lon="8.356625824466619"><ele>16.25</ele><time>2026-04-18T13:24:02Z</time></trkpt><trkpt lat="39.0686005641375" lon="8.35664836735229"><ele>16.0</ele><time>2026-04-18T13:24:03Z</time></trkpt><trkpt lat="39.068736178716335" lon="8.356685689529368"><ele>16.0</ele><time>2026-04-18T13:24:04Z</time></trkpt><trkpt lat="39.06887287793493" lon="8.356709645491044"><ele>16.0</ele><time>2026-04-18T13:24:05Z</time></trkpt><trkpt lat="39.06900488120774" lon="8.356743374048852"><ele>16.0</ele><time>2026-04-18T13:24:06Z</time></trkpt><trkpt lat="39.069129897380726" lon="8.356779281432347"><ele>16.0</ele><time>2026-04-18T13:24:07Z</time></trkpt><trkpt lat="39.069257946004626" lon="8.356774890889712"><ele>15.25</ele><time>2026-04-18T13:24:08Z</time></trkpt><trkpt lat="39.06939189085496" lon="8.356759477163878"><ele>14.5</ele><time>2026-04-18T13:24:09Z</time></trkpt><trkpt lat="39.069540001349154" lon="8.35675184474797"><ele>13.75</ele><time>2026-04-18T13:24:10Z</time></trkpt><trkpt lat="39.069686993174486" lon="8.356714401300183"><ele>13.0</ele><time>2026-04-18T13:24:11Z</time></trkpt><trkpt lat="39.06982629610542" lon="8.356646908684834"><ele>12.5</ele><time>2026-04-18T13:24:12Z</time></trkpt><trkpt lat="39.06996569146692" lon="8.356591017962215"><ele>12.0</ele><time>2026-04-18T13:24:13Z</time></trkpt><trkpt lat="39.07010930757786" lon="8.356558008019697"><ele>11.5</ele><time>2026-04-18T13:24:14Z</time></trkpt><trkpt lat="39.07023324274571" lon="8.356490348393153"><ele>11.0</ele><time>2026-04-18T13:24:15Z</time></trkpt><trkpt lat="39.07035422304494" lon="8.356455497261218"><ele>11.0</ele><time>2026-04-18T13:24:16Z</time></trkpt><trkpt lat="39.070465462233166" lon="8.356419688653558"><ele>11.0</ele><time>2026-04-18T13:24:17Z</time></trkpt><trkpt lat="39.070568542542475" lon="8.356376051966608"><ele>11.0</ele><time>2026-04-18T13:24:18Z</time></trkpt><trkpt lat="39.07066414584624" lon="8.356356207530458"><ele>11.0</ele><time>2026-04-18T13:24:19Z</time></trkpt><trkpt lat="39.07076454598154" lon="8.356316247371176"><ele>11.0</ele><time>2026-04-18T13:24:20Z</time></trkpt><trkpt lat="39.07088068892755" lon="8.356270021405766"><ele>11.25</ele><time>2026-04-18T13:24:21Z</time></trkpt><trkpt lat="39.071005009657625" lon="8.356220542007424"><ele>11.5</ele><time>2026-04-18T13:24:22Z</time></trkpt><trkpt lat="39.07113279098748" lon="8.356152285248582"><ele>11.75</ele><time>2026-04-18T13:24:23Z</time></trkpt><trkpt lat="39.071267385043114" lon="8.356103052371429"><ele>12.0</ele><time>2026-04-18T13:24:24Z</time></trkpt><trkpt lat="39.07140123673698" lon="8.356050882266722"><ele>12.0</ele><time>2026-04-18T13:24:25Z</time></trkpt><trkpt lat="39.071535798454775" lon="8.356016021893101"><ele>12.0</ele><time>2026-04-18T13:24:26Z</time></trkpt><trkpt lat="39.07165688357124" lon="8.355970889926871"><ele>12.0</ele><time>2026-04-18T13:24:27Z</time></trkpt><trkpt lat="39.07176709425568" lon="8.355937960981414"><ele>12.0</ele><time>2026-04-18T13:24:28Z</time></trkpt><trkpt lat="39.071850108718365" lon="8.355925108270503"><ele>12.2</ele><time>2026-04-18T13:24:29Z</time></trkpt><trkpt lat="39.071930291012976" lon="8.355941784267412"><ele>12.399999999999999</ele><time>2026-04-18T13:24:31Z</time></trkpt><trkpt lat="39.0720049843069" lon="8.3558144226547"><ele>12.600000000000001</ele><time>2026-04-18T13:24:34Z</time></trkpt><trkpt lat="39.072066249010696" lon="8.355738223596124"><ele>12.8</ele><time>2026-04-18T13:24:35Z</time></trkpt><trkpt lat="39.072128761727974" lon="8.355656656633048"><ele>13.0</ele><time>2026-04-18T13:24:36Z</time></trkpt><trkpt lat="39.07219782111799" lon="8.35558547959351"><ele>12.8</ele><time>2026-04-18T13:24:37Z</time></trkpt><trkpt lat="39.07226317169476" lon="8.355493845457632"><ele>12.600000000000001</ele><time>2026-04-18T13:24:38Z</time></trkpt><trkpt lat="39.07234682979079" lon="8.355416650135592"><ele>12.399999999999999</ele><time>2026-04-18T13:24:39Z</time></trkpt><trkpt lat="39.07242986847559" lon="8.355330826972368"><ele>12.2</ele><time>2026-04-18T13:24:40Z</time></trkpt><trkpt lat="39.07251156173171" lon="8.355243516978812"><ele>12.0</ele><time>2026-04-18T13:24:41Z</time></trkpt><trkpt lat="39.07259785675029" lon="8.355154552997854"><ele>12.0</ele><time>2026-04-18T13:24:42Z</time></trkpt><trkpt lat="39.072694272334935" lon="8.355069846620236"><ele>12.0</ele><time>2026-04-18T13:24:43Z</time></trkpt><trkpt lat="39.0728065849458" lon="8.355013795965423"><ele>12.0</ele><time>2026-04-18T13:24:44Z</time></trkpt><trkpt lat="39.072914455001225" lon="8.354934450345041"><ele>12.0</ele><time>2026-04-18T13:24:45Z</time></trkpt><trkpt lat="39.073025358539304" lon="8.35485481550748"><ele>12.0</ele><time>2026-04-18T13:24:46Z</time></trkpt><trkpt lat="39.073131881857684" lon="8.354775933308357"><ele>12.0</ele><time>2026-04-18T13:24:47Z</time></trkpt><trkpt lat="39.07323439116433" lon="8.354696575430484"><ele>12.0</ele><time>2026-04-18T13:24:48Z</time></trkpt><trkpt lat="39.07333618866115" lon="8.35462012448437"><ele>12.0</ele><time>2026-04-18T13:24:49Z</time></trkpt><trkpt lat="39.073430550280115" lon="8.354548805728102"><ele>11.8</ele><time>2026-04-18T13:24:50Z</time></trkpt><trkpt lat="39.07351343204307" lon="8.35446950529032"><ele>11.6</ele><time>2026-04-18T13:24:51Z</time></trkpt><trkpt lat="39.073594009598885" lon="8.354406391192429"><ele>11.4</ele><time>2026-04-18T13:24:52Z</time></trkpt><trkpt lat="39.07368574072006" lon="8.354356367330297"><ele>11.200000000000001</ele><time>2026-04-18T13:24:53Z</time></trkpt><trkpt lat="39.073760674314386" lon="8.354295341597208"><ele>11.0</ele><time>2026-04-18T13:24:54Z</time></trkpt><trkpt lat="39.073827891687394" lon="8.35423480651798"><ele>11.0</ele><time>2026-04-18T13:24:55Z</time></trkpt><trkpt lat="39.07387775018844" lon="8.35415097060072"><ele>11.0</ele><time>2026-04-18T13:24:56Z</time></trkpt><trkpt lat="39.07392418398378" lon="8.354066578201403"><ele>11.0</ele><time>2026-04-18T13:24:57Z</time></trkpt><trkpt lat="39.073950136097864" lon="8.353973580868223"><ele>11.0</ele><time>2026-04-18T13:24:58Z</time></trkpt><trkpt lat="39.073976692044084" lon="8.353874178890646"><ele>11.0</ele><time>2026-04-18T13:24:59Z</time></trkpt><trkpt lat="39.07398970998399" lon="8.353764113315734"><ele>11.0</ele><time>2026-04-18T13:25:00Z</time></trkpt><trkpt lat="39.074006990048176" lon="8.353658933157996"><ele>10.8</ele><time>2026-04-18T13:25:01Z</time></trkpt><trkpt lat="39.074044613897954" lon="8.353555767976262"><ele>10.600000000000001</ele><time>2026-04-18T13:25:02Z</time></trkpt><trkpt lat="39.0740886335209" lon="8.353434464452791"><ele>10.4</ele><time>2026-04-18T13:25:03Z</time></trkpt><trkpt lat="39.074132378118605" lon="8.353315920805459"><ele>10.2</ele><time>2026-04-18T13:25:04Z</time></trkpt><trkpt lat="39.07417128876107" lon="8.353212691284826"><ele>10.0</ele><time>2026-04-18T13:25:05Z</time></trkpt><trkpt lat="39.0742087866204" lon="8.353117044561584"><ele>9.833333333333334</ele><time>2026-04-18T13:25:06Z</time></trkpt><trkpt lat="39.07424644676468" lon="8.353029962661454"><ele>9.666666666666668</ele><time>2026-04-18T13:25:07Z</time></trkpt><trkpt lat="39.074288188366275" lon="8.35295357471776"><ele>9.5</ele><time>2026-04-18T13:25:08Z</time></trkpt><trkpt lat="39.07433337109382" lon="8.352886118554364"><ele>9.333333333333334</ele><time>2026-04-18T13:25:09Z</time></trkpt><trkpt lat="39.074384981753106" lon="8.352825988066112"><ele>9.166666666666666</ele><time>2026-04-18T13:25:10Z</time></trkpt><trkpt lat="39.07445689299773" lon="8.352779050735688"><ele>9.0</ele><time>2026-04-18T13:25:11Z</time></trkpt><trkpt lat="39.07453207951685" lon="8.352713829525879"><ele>9.0</ele><time>2026-04-18T13:25:12Z</time></trkpt><trkpt lat="39.074623842525696" lon="8.35266502580862"><ele>9.0</ele><time>2026-04-18T13:25:13Z</time></trkpt><trkpt lat="39.074710307769664" lon="8.352615273847261"><ele>9.0</ele><time>2026-04-18T13:25:14Z</time></trkpt><trkpt lat="39.07479257651592" lon="8.352559297708408"><ele>9.0</ele><time>2026-04-18T13:25:15Z</time></trkpt><trkpt lat="39.07487232497501" lon="8.352500534513776"><ele>9.0</ele><time>2026-04-18T13:25:16Z</time></trkpt><trkpt lat="39.07494441817913" lon="8.352428269090652"><ele>8.833333333333334</ele><time>2026-04-18T13:25:17Z</time></trkpt><trkpt lat="39.07500488725074" lon="8.352346621103933"><ele>8.666666666666666</ele><time>2026-04-18T13:25:18Z</time></trkpt><trkpt lat="39.07508278520627" lon="8.352285952996834"><ele>8.5</ele><time>2026-04-18T13:25:19Z</time></trkpt><trkpt lat="39.07512162168476" lon="8.352218859832115"><ele>8.333333333333332</ele><time>2026-04-18T13:25:20Z</time></trkpt><trkpt lat="39.07519509941655" lon="8.352195745400202"><ele>8.166666666666666</ele><time>2026-04-18T13:25:21Z</time></trkpt><trkpt lat="39.07525710973195" lon="8.352152287962511"><ele>8.0</ele><time>2026-04-18T13:25:22Z</time></trkpt><trkpt lat="39.075332231060834" lon="8.3521648087507"><ele>8.0</ele><time>2026-04-18T13:25:23Z</time></trkpt><trkpt lat="39.07539481564412" lon="8.352146265599716"><ele>7.999999999999999</ele><time>2026-04-18T13:25:24Z</time></trkpt><trkpt lat="39.075444517257466" lon="8.3520776897859"><ele>8.0</ele><time>2026-04-18T13:25:25Z</time></trkpt><trkpt lat="39.07548984196926" lon="8.352014058804096"><ele>8.0</ele><time>2026-04-18T13:25:26Z</time></trkpt><trkpt lat="39.07554762253269" lon="8.351976753214421"><ele>7.999999999999999</ele><time>2026-04-18T13:25:27Z</time></trkpt><trkpt lat="39.075639111296645" lon="8.351911321387144"><ele>8.0</ele><time>2026-04-18T13:25:29Z</time></trkpt><trkpt lat="39.075694438930974" lon="8.351864815747659"><ele>8.0</ele><time>2026-04-18T13:25:31Z</time></trkpt><trkpt lat="39.075767519599005" lon="8.351853564489886"><ele>7.833333333333333</ele><time>2026-04-18T13:25:34Z</time></trkpt><trkpt lat="39.07583910138551" lon="8.35192072429339"><ele>7.666666666666666</ele><time>2026-04-18T13:25:36Z</time></trkpt><trkpt lat="39.07589252829645" lon="8.35197230879652"><ele>7.5</ele><time>2026-04-18T13:25:37Z</time></trkpt><trkpt lat="39.0759623443291" lon="8.352002923854835"><ele>7.333333333333334</ele><time>2026-04-18T13:25:38Z</time></trkpt><trkpt lat="39.07603186997695" lon="8.352041743397638"><ele>7.166666666666667</ele><time>2026-04-18T13:25:39Z</time></trkpt><trkpt lat="39.07611428806577" lon="8.352146276994356"><ele>7.0</ele><time>2026-04-18T13:25:41Z</time></trkpt><trkpt lat="39.076150800981594" lon="8.35223670248461"><ele>7.000000000000001</ele><time>2026-04-18T13:25:43Z</time></trkpt><trkpt lat="39.07623158258351" lon="8.352200487425517"><ele>7.0</ele><time>2026-04-18T13:25:44Z</time></trkpt><trkpt lat="39.076352439955464" lon="8.352193994637952"><ele>7.0</ele><time>2026-04-18T13:25:46Z</time></trkpt><trkpt lat="39.07642825639793" lon="8.352189106607343"><ele>7.0</ele><time>2026-04-18T13:25:47Z</time></trkpt><trkpt lat="39.07650681159142" lon="8.35218334932359"><ele>7.000000000000001</ele><time>2026-04-18T13:25:48Z</time></trkpt><trkpt lat="39.07658236299644" lon="8.352169611947723"><ele>7.0</ele><time>2026-04-18T13:25:49Z</time></trkpt><trkpt lat="39.0766492617694" lon="8.352116838719706"><ele>6.8</ele><time>2026-04-18T13:25:50Z</time></trkpt><trkpt lat="39.07670896604439" lon="8.352039143603774"><ele>6.6</ele><time>2026-04-18T13:25:51Z</time></trkpt><trkpt lat="39.07676688756699" lon="8.351952669726664"><ele>6.3999999999999995</ele><time>2026-04-18T13:25:52Z</time></trkpt><trkpt lat="39.076827985868746" lon="8.351875721849943"><ele>6.199999999999999</ele><time>2026-04-18T13:25:53Z</time></trkpt><trkpt lat="39.0768889242688" lon="8.351835564492609"><ele>6.0</ele><time>2026-04-18T13:25:54Z</time></trkpt><trkpt lat="39.077030377530704" lon="8.351797919354143"><ele>6.0</ele><time>2026-04-18T13:25:56Z</time></trkpt><trkpt lat="39.077119849760834" lon="8.351766696573934"><ele>6.0</ele><time>2026-04-18T13:25:57Z</time></trkpt><trkpt lat="39.07720825442603" lon="8.35171128940136"><ele>6.0</ele><time>2026-04-18T13:25:58Z</time></trkpt><trkpt lat="39.07728856842559" lon="8.351623307548175"><ele>6.0</ele><time>2026-04-18T13:25:59Z</time></trkpt><trkpt lat="39.077365423692136" lon="8.351550546684795"><ele>6.0</ele><time>2026-04-18T13:26:00Z</time></trkpt><trkpt lat="39.07744242137237" lon="8.351487826529619"><ele>6.0</ele><time>2026-04-18T13:26:01Z</time></trkpt><trkpt lat="39.0775140099916" lon="8.351435308122037"><ele>6.0</ele><time>2026-04-18T13:26:02Z</time></trkpt><trkpt lat="39.07758203766276" lon="8.351381960410084"><ele>6.0</ele><time>2026-04-18T13:26:03Z</time></trkpt><trkpt lat="39.07763695760585" lon="8.35133485724567"><ele>6.0</ele><time>2026-04-18T13:26:04Z</time></trkpt><trkpt lat="39.07768644877724" lon="8.35124819685318"><ele>6.0</ele><time>2026-04-18T13:26:05Z</time></trkpt><trkpt lat="39.07771399913882" lon="8.351150957358113"><ele>6.0</ele><time>2026-04-18T13:26:06Z</time></trkpt><trkpt lat="39.07777877056187" lon="8.351051145674425"><ele>5.333333333333333</ele><time>2026-04-18T13:26:08Z</time></trkpt><trkpt lat="39.07787109911135" lon="8.350961830771178"><ele>4.666666666666667</ele><time>2026-04-18T13:26:10Z</time></trkpt><trkpt lat="39.077940233556475" lon="8.350945342963305"><ele>4.0</ele><time>2026-04-18T13:26:11Z</time></trkpt><trkpt lat="39.07801396734375" lon="8.350955285035552"><ele>3.333333333333333</ele><time>2026-04-18T13:26:12Z</time></trkpt><trkpt lat="39.07809298434419" lon="8.350944760850282"><ele>2.6666666666666665</ele><time>2026-04-18T13:26:13Z</time></trkpt><trkpt lat="39.07817462804032" lon="8.350933136087743"><ele>2.0</ele><time>2026-04-18T13:26:14Z</time></trkpt><trkpt lat="39.07825723330566" lon="8.350925165478385"><ele>2.5</ele><time>2026-04-18T13:26:15Z</time></trkpt><trkpt lat="39.07834020310164" lon="8.350920536324228"><ele>3.0</ele><time>2026-04-18T13:26:16Z</time></trkpt><trkpt lat="39.078421311935905" lon="8.350916412141528"><ele>3.5</ele><time>2026-04-18T13:26:17Z</time></trkpt><trkpt lat="39.078501210230826" lon="8.350907023605199"><ele>4.0</ele><time>2026-04-18T13:26:18Z</time></trkpt><trkpt lat="39.0785778148221" lon="8.350896246523044"><ele>4.5</ele><time>2026-04-18T13:26:19Z</time></trkpt><trkpt lat="39.0786510087775" lon="8.350886609644844"><ele>5.0</ele><time>2026-04-18T13:26:20Z</time></trkpt><trkpt lat="39.078722706486175" lon="8.350877343944914"><ele>5.0</ele><time>2026-04-18T13:26:21Z</time></trkpt><trkpt lat="39.078796416726476" lon="8.35087034829705"><ele>5.0</ele><time>2026-04-18T13:26:22Z</time></trkpt><trkpt lat="39.07886972809857" lon="8.350864032771739"><ele>5.0</ele><time>2026-04-18T13:26:23Z</time></trkpt><trkpt lat="39.07894380080736" lon="8.350858924696098"><ele>5.0</ele><time>2026-04-18T13:26:24Z</time></trkpt><trkpt lat="39.07901887873852" lon="8.350855201824746"><ele>5.0</ele><time>2026-04-18T13:26:25Z</time></trkpt><trkpt lat="39.079097225664015" lon="8.350851316849443"><ele>5.0</ele><time>2026-04-18T13:26:26Z</time></trkpt><trkpt lat="39.07917791715524" lon="8.350827114565359"><ele>5.0</ele><time>2026-04-18T13:26:27Z</time></trkpt><trkpt lat="39.07926130467428" lon="8.350824502858998"><ele>5.0</ele><time>2026-04-18T13:26:28Z</time></trkpt><trkpt lat="39.079347452966694" lon="8.350837837959759"><ele>5.0</ele><time>2026-04-18T13:26:29Z</time></trkpt><trkpt lat="39.07943327717758" lon="8.350812926840941"><ele>5.0</ele><time>2026-04-18T13:26:30Z</time></trkpt><trkpt lat="39.07951901420778" lon="8.350809908314865"><ele>5.0</ele><time>2026-04-18T13:26:31Z</time></trkpt><trkpt lat="39.07960319130645" lon="8.350819180798162"><ele>5.0</ele><time>2026-04-18T13:26:32Z</time></trkpt><trkpt lat="39.07967977798785" lon="8.350791250431904"><ele>5.0</ele><time>2026-04-18T13:26:33Z</time></trkpt><trkpt lat="39.07974793649555" lon="8.350806345950957"><ele>5.0</ele><time>2026-04-18T13:26:34Z</time></trkpt><trkpt lat="39.079842828198785" lon="8.350896799636605"><ele>5.0</ele><time>2026-04-18T13:26:36Z</time></trkpt><trkpt lat="39.07985278643239" lon="8.35097959657513"><ele>5.0</ele><time>2026-04-18T13:26:37Z</time></trkpt><trkpt lat="39.07988935183264" lon="8.35106453446044"><ele>5.0</ele><time>2026-04-18T13:26:38Z</time></trkpt><trkpt lat="39.07991179167784" lon="8.35116840884221"><ele>5.0</ele><time>2026-04-18T13:26:39Z</time></trkpt><trkpt lat="39.079942992754304" lon="8.35127662070913"><ele>4.8</ele><time>2026-04-18T13:26:40Z</time></trkpt><trkpt lat="39.07998951515972" lon="8.351384102837454"><ele>4.6</ele><time>2026-04-18T13:26:41Z</time></trkpt><trkpt lat="39.080036743094915" lon="8.351493387000103"><ele>4.4</ele><time>2026-04-18T13:26:42Z</time></trkpt><trkpt lat="39.08008282435311" lon="8.351599281428303"><ele>4.2</ele><time>2026-04-18T13:26:43Z</time></trkpt><trkpt lat="39.08013246324752" lon="8.351710566007693"><ele>4.0</ele><time>2026-04-18T13:26:44Z</time></trkpt><trkpt lat="39.080174681454345" lon="8.351828328118573"><ele>4.0</ele><time>2026-04-18T13:26:45Z</time></trkpt><trkpt lat="39.08021605032201" lon="8.351952867547586"><ele>4.0</ele><time>2026-04-18T13:26:46Z</time></trkpt><trkpt lat="39.08025908325074" lon="8.352075572896782"><ele>4.0</ele><time>2026-04-18T13:26:47Z</time></trkpt><trkpt lat="39.080302170409254" lon="8.35219379121141"><ele>4.0</ele><time>2026-04-18T13:26:48Z</time></trkpt><trkpt lat="39.080336603419774" lon="8.35230463062112"><ele>4.0</ele><time>2026-04-18T13:26:49Z</time></trkpt><trkpt lat="39.08036774867051" lon="8.352402650619517"><ele>3.9999999999999996</ele><time>2026-04-18T13:26:50Z</time></trkpt><trkpt lat="39.08039575422675" lon="8.352485032524559"><ele>4.0</ele><time>2026-04-18T13:26:51Z</time></trkpt><trkpt lat="39.08043914752105" lon="8.352610585406525"><ele>4.0</ele><time>2026-04-18T13:26:53Z</time></trkpt><trkpt lat="39.080455234021784" lon="8.352691696971156"><ele>4.0</ele><time>2026-04-18T13:26:55Z</time></trkpt><trkpt lat="39.080463300823205" lon="8.352815785009184"><ele>3.9999999999999996</ele><time>2026-04-18T13:26:58Z</time></trkpt><trkpt lat="39.08043851278201" lon="8.352943073713439"><ele>4.0</ele><time>2026-04-18T13:27:00Z</time></trkpt><trkpt lat="39.08038616456141" lon="8.353086142712753"><ele>3.9999999999999996</ele><time>2026-04-18T13:27:02Z</time></trkpt><trkpt lat="39.08035208967194" lon="8.35316141279335"><ele>4.0</ele><time>2026-04-18T13:27:03Z</time></trkpt><trkpt lat="39.08031463458967" lon="8.353241115295468"><ele>4.0</ele><time>2026-04-18T13:27:04Z</time></trkpt><trkpt lat="39.08027148834459" lon="8.353327820381551"><ele>4.0</ele><time>2026-04-18T13:27:05Z</time></trkpt><trkpt lat="39.08022266277091" lon="8.353414840278802"><ele>3.9999999999999996</ele><time>2026-04-18T13:27:06Z</time></trkpt><trkpt lat="39.0801746874632" lon="8.35349664203583"><ele>4.0</ele><time>2026-04-18T13:27:07Z</time></trkpt><trkpt lat="39.0801307117045" lon="8.353580828223226"><ele>3.9999999999999996</ele><time>2026-04-18T13:27:08Z</time></trkpt><trkpt lat="39.0800856005423" lon="8.3536695206215"><ele>4.0</ele><time>2026-04-18T13:27:09Z</time></trkpt><trkpt lat="39.08003910345039" lon="8.353766294964172"><ele>4.0</ele><time>2026-04-18T13:27:10Z</time></trkpt><trkpt lat="39.07999305154254" lon="8.35385592674231"><ele>4.0</ele><time>2026-04-18T13:27:11Z</time></trkpt><trkpt lat="39.07994852503188" lon="8.353930873216713"><ele>3.9999999999999996</ele><time>2026-04-18T13:27:12Z</time></trkpt><trkpt lat="39.079906018261184" lon="8.35399422863215"><ele>4.0</ele><time>2026-04-18T13:27:13Z</time></trkpt><trkpt lat="39.07981325453069" lon="8.354092038015292"><ele>4.5</ele><time>2026-04-18T13:27:15Z</time></trkpt><trkpt lat="39.079749195339744" lon="8.354107998075795"><ele>5.0</ele><time>2026-04-18T13:27:16Z</time></trkpt><trkpt lat="39.07967597936394" lon="8.354092534238001"><ele>5.5</ele><time>2026-04-18T13:27:17Z</time></trkpt><trkpt lat="39.079601584003605" lon="8.354057084206634"><ele>6.0</ele><time>2026-04-18T13:27:18Z</time></trkpt><trkpt lat="39.07952784444298" lon="8.354026516687039"><ele>6.500000000000001</ele><time>2026-04-18T13:27:19Z</time></trkpt><trkpt lat="39.07941966636112" lon="8.354040359567648"><ele>7.0</ele><time>2026-04-18T13:27:21Z</time></trkpt><trkpt lat="39.0793665995573" lon="8.354097726155011"><ele>7.0</ele><time>2026-04-18T13:27:22Z</time></trkpt><trkpt lat="39.07931315448831" lon="8.354177019508482"><ele>6.999999999999999</ele><time>2026-04-18T13:27:23Z</time></trkpt><trkpt lat="39.07925543575122" lon="8.354256318515782"><ele>6.999999999999999</ele><time>2026-04-18T13:27:24Z</time></trkpt><trkpt lat="39.07919150830542" lon="8.354345850605887"><ele>7.0</ele><time>2026-04-18T13:27:25Z</time></trkpt><trkpt lat="39.07914042396595" lon="8.35444331958493"><ele>7.0</ele><time>2026-04-18T13:27:26Z</time></trkpt><trkpt lat="39.07908889672334" lon="8.354554583063438"><ele>7.25</ele><time>2026-04-18T13:27:27Z</time></trkpt><trkpt lat="39.07903141081991" lon="8.354672252384978"><ele>7.5</ele><time>2026-04-18T13:27:28Z</time></trkpt><trkpt lat="39.0789726051748" lon="8.354801439698555"><ele>7.75</ele><time>2026-04-18T13:27:29Z</time></trkpt><trkpt lat="39.078913446746334" lon="8.354930009951174"><ele>8.0</ele><time>2026-04-18T13:27:30Z</time></trkpt><trkpt lat="39.078849784171716" lon="8.355053735955854"><ele>8.25</ele><time>2026-04-18T13:27:31Z</time></trkpt><trkpt lat="39.07878499928041" lon="8.355182614875542"><ele>8.5</ele><time>2026-04-18T13:27:32Z</time></trkpt><trkpt lat="39.078722335074595" lon="8.355316300723077"><ele>8.75</ele><time>2026-04-18T13:27:33Z</time></trkpt><trkpt lat="39.078660616305186" lon="8.355452631615439"><ele>9.0</ele><time>2026-04-18T13:27:34Z</time></trkpt><trkpt lat="39.07859419659873" lon="8.355587472581952"><ele>9.0</ele><time>2026-04-18T13:27:35Z</time></trkpt><trkpt lat="39.07853204407448" lon="8.35570923677204"><ele>9.0</ele><time>2026-04-18T13:27:36Z</time></trkpt><trkpt lat="39.07847161006894" lon="8.355826862509193"><ele>9.0</ele><time>2026-04-18T13:27:37Z</time></trkpt><trkpt lat="39.07841420991641" lon="8.35594707561223"><ele>9.0</ele><time>2026-04-18T13:27:38Z</time></trkpt><trkpt lat="39.078353132532506" lon="8.356068348323296"><ele>9.0</ele><time>2026-04-18T13:27:39Z</time></trkpt><trkpt lat="39.07828055544986" lon="8.356178145211627"><ele>9.25</ele><time>2026-04-18T13:27:40Z</time></trkpt><trkpt lat="39.07821110488693" lon="8.356284194227218"><ele>9.5</ele><time>2026-04-18T13:27:41Z</time></trkpt><trkpt lat="39.07813360367739" lon="8.356387208961554"><ele>9.75</ele><time>2026-04-18T13:27:42Z</time></trkpt><trkpt lat="39.07804679230438" lon="8.356491899552433"><ele>10.0</ele><time>2026-04-18T13:27:43Z</time></trkpt><trkpt lat="39.07796195132833" lon="8.356602095001717"><ele>10.0</ele><time>2026-04-18T13:27:44Z</time></trkpt><trkpt lat="39.077882482031164" lon="8.356716283799377"><ele>10.0</ele><time>2026-04-18T13:27:45Z</time></trkpt><trkpt lat="39.077803521448175" lon="8.356827788156433"><ele>10.0</ele><time>2026-04-18T13:27:46Z</time></trkpt><trkpt lat="39.077722749712734" lon="8.356935334628266"><ele>10.0</ele><time>2026-04-18T13:27:47Z</time></trkpt><trkpt lat="39.07764677857567" lon="8.35703991529323"><ele>10.0</ele><time>2026-04-18T13:27:48Z</time></trkpt><trkpt lat="39.07758275970235" lon="8.35714148041568"><ele>10.0</ele><time>2026-04-18T13:27:49Z</time></trkpt><trkpt lat="39.07753443094516" lon="8.357229964561204"><ele>10.0</ele><time>2026-04-18T13:27:50Z</time></trkpt><trkpt lat="39.077496778194266" lon="8.35731658139806"><ele>10.0</ele><time>2026-04-18T13:27:51Z</time></trkpt><trkpt lat="39.07746002140444" lon="8.357388728803631"><ele>10.0</ele><time>2026-04-18T13:27:52Z</time></trkpt><trkpt lat="39.0773955332583" lon="8.357493606389184"><ele>10.0</ele><time>2026-04-18T13:27:54Z</time></trkpt><trkpt lat="39.077369559246314" lon="8.357620049201833"><ele>10.0</ele><time>2026-04-18T13:27:56Z</time></trkpt><trkpt lat="39.07740835079251" lon="8.357797225138361"><ele>10.0</ele><time>2026-04-18T13:27:58Z</time></trkpt><trkpt lat="39.07743558692252" lon="8.357898543088842"><ele>10.0</ele><time>2026-04-18T13:27:59Z</time></trkpt><trkpt lat="39.07747666167063" lon="8.358023448315581"><ele>10.0</ele><time>2026-04-18T13:28:00Z</time></trkpt><trkpt lat="39.077553073158874" lon="8.358105282334426"><ele>10.0</ele><time>2026-04-18T13:28:01Z</time></trkpt><trkpt lat="39.07762134397861" lon="8.358196318615411"><ele>10.25</ele><time>2026-04-18T13:28:02Z</time></trkpt><trkpt lat="39.077700170189644" lon="8.358287575945978"><ele>10.5</ele><time>2026-04-18T13:28:03Z</time></trkpt><trkpt lat="39.077781194673314" lon="8.358386560588011"><ele>10.75</ele><time>2026-04-18T13:28:04Z</time></trkpt><trkpt lat="39.07786598084164" lon="8.35849298181127"><ele>11.0</ele><time>2026-04-18T13:28:05Z</time></trkpt><trkpt lat="39.07795246379176" lon="8.358601599286404"><ele>11.0</ele><time>2026-04-18T13:28:06Z</time></trkpt><trkpt lat="39.07804396549692" lon="8.358711808206051"><ele>11.0</ele><time>2026-04-18T13:28:07Z</time></trkpt><trkpt lat="39.07813836740627" lon="8.35882237056403"><ele>11.0</ele><time>2026-04-18T13:28:08Z</time></trkpt><trkpt lat="39.078234376260696" lon="8.358937121243343"><ele>11.0</ele><time>2026-04-18T13:28:09Z</time></trkpt><trkpt lat="39.07832772374915" lon="8.359050264518624"><ele>11.0</ele><time>2026-04-18T13:28:10Z</time></trkpt><trkpt lat="39.07841786208833" lon="8.359159461478542"><ele>11.0</ele><time>2026-04-18T13:28:11Z</time></trkpt><trkpt lat="39.07851081393341" lon="8.359271973318476"><ele>11.0</ele><time>2026-04-18T13:28:12Z</time></trkpt><trkpt lat="39.07860627830643" lon="8.359385244996641"><ele>11.0</ele><time>2026-04-18T13:28:13Z</time></trkpt><trkpt lat="39.07870343098545" lon="8.359498563060102"><ele>11.0</ele><time>2026-04-18T13:28:14Z</time></trkpt><trkpt lat="39.07880137207379" lon="8.359614234015535"><ele>11.0</ele><time>2026-04-18T13:28:15Z</time></trkpt><trkpt lat="39.0788958971816" lon="8.35973301174906"><ele>11.0</ele><time>2026-04-18T13:28:16Z</time></trkpt><trkpt lat="39.078987788150265" lon="8.35985233874629"><ele>11.0</ele><time>2026-04-18T13:28:17Z</time></trkpt><trkpt lat="39.0790799841078" lon="8.359972649727053"><ele>11.25</ele><time>2026-04-18T13:28:18Z</time></trkpt><trkpt lat="39.07917066145442" lon="8.360090010593442"><ele>11.5</ele><time>2026-04-18T13:28:19Z</time></trkpt><trkpt lat="39.07926185534452" lon="8.360202920734508"><ele>11.75</ele><time>2026-04-18T13:28:20Z</time></trkpt><trkpt lat="39.07935318638653" lon="8.360312666479498"><ele>12.0</ele><time>2026-04-18T13:28:21Z</time></trkpt><trkpt lat="39.07944237534544" lon="8.360426992699768"><ele>12.5</ele><time>2026-04-18T13:28:22Z</time></trkpt><trkpt lat="39.07952844298185" lon="8.36054138478666"><ele>13.0</ele><time>2026-04-18T13:28:23Z</time></trkpt><trkpt lat="39.07961410164917" lon="8.360657065602934"><ele>13.5</ele><time>2026-04-18T13:28:24Z</time></trkpt><trkpt lat="39.07969407482004" lon="8.360771244656709"><ele>14.0</ele><time>2026-04-18T13:28:25Z</time></trkpt><trkpt lat="39.07976817379413" lon="8.360881840785343"><ele>14.0</ele><time>2026-04-18T13:28:26Z</time></trkpt><trkpt lat="39.07983789018603" lon="8.360988941904203"><ele>13.999999999999998</ele><time>2026-04-18T13:28:27Z</time></trkpt><trkpt lat="39.07990738044453" lon="8.36109111212154"><ele>13.999999999999998</ele><time>2026-04-18T13:28:28Z</time></trkpt><trkpt lat="39.07997266151092" lon="8.361187092552987"><ele>14.0</ele><time>2026-04-18T13:28:29Z</time></trkpt><trkpt lat="39.08002735586505" lon="8.361268951469622"><ele>14.0</ele><time>2026-04-18T13:28:30Z</time></trkpt><trkpt lat="39.0800721323113" lon="8.361338004423025"><ele>14.000000000000002</ele><time>2026-04-18T13:28:31Z</time></trkpt><trkpt lat="39.08011386562711" lon="8.361448552479274"><ele>14.0</ele><time>2026-04-18T13:28:33Z</time></trkpt><trkpt lat="39.080132071003995" lon="8.36154887173278"><ele>14.0</ele><time>2026-04-18T13:28:35Z</time></trkpt><trkpt lat="39.08016175708927" lon="8.36162417118769"><ele>14.0</ele><time>2026-04-18T13:28:37Z</time></trkpt><trkpt lat="39.080257832550004" lon="8.361694123660934"><ele>14.000000000000002</ele><time>2026-04-18T13:28:39Z</time></trkpt><trkpt lat="39.080324948049316" lon="8.361710126868898"><ele>14.0</ele><time>2026-04-18T13:28:40Z</time></trkpt><trkpt lat="39.08040227959979" lon="8.36173080730804"><ele>14.0</ele><time>2026-04-18T13:28:41Z</time></trkpt><trkpt lat="39.08049750243439" lon="8.361741192886049"><ele>13.999999999999998</ele><time>2026-04-18T13:28:42Z</time></trkpt><trkpt lat="39.080595287741154" lon="8.361770580300545"><ele>13.999999999999998</ele><time>2026-04-18T13:28:43Z</time></trkpt><trkpt lat="39.08070383351488" lon="8.361801608726498"><ele>14.0</ele><time>2026-04-18T13:28:44Z</time></trkpt><trkpt lat="39.08080572438496" lon="8.361836232682652"><ele>14.0</ele><time>2026-04-18T13:28:45Z</time></trkpt><trkpt lat="39.08091366489974" lon="8.361870433720142"><ele>14.25</ele><time>2026-04-18T13:28:46Z</time></trkpt><trkpt lat="39.081028069551884" lon="8.361905386538076"><ele>14.5</ele><time>2026-04-18T13:28:47Z</time></trkpt><trkpt lat="39.08114511982485" lon="8.361941642733903"><ele>14.75</ele><time>2026-04-18T13:28:48Z</time></trkpt><trkpt lat="39.0812656743582" lon="8.361976448657213"><ele>15.0</ele><time>2026-04-18T13:28:49Z</time></trkpt><trkpt lat="39.08138836719309" lon="8.362008017070208"><ele>15.0</ele><time>2026-04-18T13:28:50Z</time></trkpt><trkpt lat="39.081510035318516" lon="8.362040557628415"><ele>15.0</ele><time>2026-04-18T13:28:51Z</time></trkpt><trkpt lat="39.081628696697464" lon="8.362072080080498"><ele>15.0</ele><time>2026-04-18T13:28:52Z</time></trkpt><trkpt lat="39.08174113142874" lon="8.36209696993119"><ele>15.0</ele><time>2026-04-18T13:28:53Z</time></trkpt><trkpt lat="39.08185147378383" lon="8.362119959175615"><ele>14.4</ele><time>2026-04-18T13:28:54Z</time></trkpt><trkpt lat="39.0819613614727" lon="8.362138305141697"><ele>13.8</ele><time>2026-04-18T13:28:55Z</time></trkpt><trkpt lat="39.08206783689261" lon="8.36214415679103"><ele>13.2</ele><time>2026-04-18T13:28:56Z</time></trkpt><trkpt lat="39.082176231113024" lon="8.362148495254912"><ele>12.6</ele><time>2026-04-18T13:28:57Z</time></trkpt><trkpt lat="39.08227776963026" lon="8.36214358681906"><ele>12.0</ele><time>2026-04-18T13:28:58Z</time></trkpt><trkpt lat="39.082378275339636" lon="8.362129422399214"><ele>12.0</ele><time>2026-04-18T13:28:59Z</time></trkpt><trkpt lat="39.08247263094915" lon="8.362097233781"><ele>12.0</ele><time>2026-04-18T13:29:00Z</time></trkpt><trkpt lat="39.082578662854075" lon="8.362062413524418"><ele>12.0</ele><time>2026-04-18T13:29:01Z</time></trkpt><trkpt lat="39.08268385527781" lon="8.362005188856173"><ele>12.0</ele><time>2026-04-18T13:29:02Z</time></trkpt><trkpt lat="39.0827953947176" lon="8.36194302428002"><ele>12.0</ele><time>2026-04-18T13:29:03Z</time></trkpt><trkpt lat="39.08290849993337" lon="8.361879944219268"><ele>12.0</ele><time>2026-04-18T13:29:04Z</time></trkpt><trkpt lat="39.08302379697325" lon="8.361821545706045"><ele>12.0</ele><time>2026-04-18T13:29:05Z</time></trkpt><trkpt lat="39.08313924352278" lon="8.361765256699197"><ele>12.0</ele><time>2026-04-18T13:29:06Z</time></trkpt><trkpt lat="39.083246118206766" lon="8.361698204131478"><ele>12.0</ele><time>2026-04-18T13:29:07Z</time></trkpt><trkpt lat="39.083353183640526" lon="8.36165267453357"><ele>11.8</ele><time>2026-04-18T13:29:08Z</time></trkpt><trkpt lat="39.0834590563082" lon="8.361604501372405"><ele>11.6</ele><time>2026-04-18T13:29:09Z</time></trkpt><trkpt lat="39.0835572850077" lon="8.361545477151422"><ele>11.4</ele><time>2026-04-18T13:29:10Z</time></trkpt><trkpt lat="39.083649758403006" lon="8.361491949457857"><ele>11.200000000000001</ele><time>2026-04-18T13:29:11Z</time></trkpt><trkpt lat="39.0837058114572" lon="8.361360484999633"><ele>11.0</ele><time>2026-04-18T13:29:12Z</time></trkpt><trkpt lat="39.08377348512966" lon="8.361240231674715"><ele>10.5</ele><time>2026-04-18T13:29:13Z</time></trkpt><trkpt lat="39.083843534259636" lon="8.361123839835225"><ele>10.0</ele><time>2026-04-18T13:29:14Z</time></trkpt><trkpt lat="39.08393393194794" lon="8.361038599983985"><ele>9.5</ele><time>2026-04-18T13:29:15Z</time></trkpt><trkpt lat="39.084029003082335" lon="8.360964576044305"><ele>9.0</ele><time>2026-04-18T13:29:16Z</time></trkpt><trkpt lat="39.084132332237935" lon="8.360901023734002"><ele>9.0</ele><time>2026-04-18T13:29:17Z</time></trkpt><trkpt lat="39.084240767206026" lon="8.3608332684872"><ele>9.0</ele><time>2026-04-18T13:29:18Z</time></trkpt><trkpt lat="39.08434415649525" lon="8.360757498466521"><ele>9.0</ele><time>2026-04-18T13:29:19Z</time></trkpt><trkpt lat="39.084444639830785" lon="8.360689334430047"><ele>9.0</ele><time>2026-04-18T13:29:20Z</time></trkpt><trkpt lat="39.08454386685313" lon="8.360619502566562"><ele>9.0</ele><time>2026-04-18T13:29:21Z</time></trkpt><trkpt lat="39.08464566245577" lon="8.36056093597307"><ele>9.0</ele><time>2026-04-18T13:29:22Z</time></trkpt><trkpt lat="39.084748927195974" lon="8.360518938102352"><ele>9.0</ele><time>2026-04-18T13:29:23Z</time></trkpt><trkpt lat="39.084857175514614" lon="8.360500563365513"><ele>9.0</ele><time>2026-04-18T13:29:24Z</time></trkpt><trkpt lat="39.084967534896926" lon="8.360514158214546"><ele>9.0</ele><time>2026-04-18T13:29:25Z</time></trkpt><trkpt lat="39.08507834328081" lon="8.360517823321995"><ele>8.5</ele><time>2026-04-18T13:29:26Z</time></trkpt><trkpt lat="39.08518380710249" lon="8.360496683699049"><ele>8.0</ele><time>2026-04-18T13:29:27Z</time></trkpt><trkpt lat="39.08529002581693" lon="8.360462667531062"><ele>7.5</ele><time>2026-04-18T13:29:28Z</time></trkpt><trkpt lat="39.08540173107663" lon="8.360424871834118"><ele>7.0</ele><time>2026-04-18T13:29:29Z</time></trkpt><trkpt lat="39.08551825514344" lon="8.360384978830583"><ele>7.0</ele><time>2026-04-18T13:29:30Z</time></trkpt><trkpt lat="39.08563341020851" lon="8.360341020809974"><ele>7.0</ele><time>2026-04-18T13:29:31Z</time></trkpt><trkpt lat="39.08574411006246" lon="8.360285745754215"><ele>7.0</ele><time>2026-04-18T13:29:32Z</time></trkpt><trkpt lat="39.08585244337766" lon="8.360216119115513"><ele>7.0</ele><time>2026-04-18T13:29:33Z</time></trkpt><trkpt lat="39.085960158169264" lon="8.360145620845985"><ele>6.75</ele><time>2026-04-18T13:29:34Z</time></trkpt><trkpt lat="39.08605359969816" lon="8.360060457429519"><ele>6.5</ele><time>2026-04-18T13:29:35Z</time></trkpt><trkpt lat="39.08613986825767" lon="8.359971610220311"><ele>6.25</ele><time>2026-04-18T13:29:36Z</time></trkpt><trkpt lat="39.08622410789007" lon="8.359879697232296"><ele>6.0</ele><time>2026-04-18T13:29:37Z</time></trkpt><trkpt lat="39.08631245298827" lon="8.35978500770679"><ele>5.8</ele><time>2026-04-18T13:29:38Z</time></trkpt><trkpt lat="39.08639964758582" lon="8.359695756361795"><ele>5.6</ele><time>2026-04-18T13:29:39Z</time></trkpt><trkpt lat="39.08649307660555" lon="8.35961234872634"><ele>5.4</ele><time>2026-04-18T13:29:40Z</time></trkpt><trkpt lat="39.08658565287027" lon="8.359547813526774"><ele>5.2</ele><time>2026-04-18T13:29:41Z</time></trkpt><trkpt lat="39.086681632214365" lon="8.359472886660981"><ele>5.0</ele><time>2026-04-18T13:29:42Z</time></trkpt><trkpt lat="39.086773839808" lon="8.359389795588871"><ele>4.8</ele><time>2026-04-18T13:29:43Z</time></trkpt><trkpt lat="39.08686669738568" lon="8.359313639389725"><ele>4.6</ele><time>2026-04-18T13:29:44Z</time></trkpt><trkpt lat="39.08695816206791" lon="8.359234549798709"><ele>4.4</ele><time>2026-04-18T13:29:45Z</time></trkpt><trkpt lat="39.08704896057551" lon="8.359157310211486"><ele>4.2</ele><time>2026-04-18T13:29:46Z</time></trkpt><trkpt lat="39.087138430856804" lon="8.359082059028378"><ele>4.0</ele><time>2026-04-18T13:29:47Z</time></trkpt><trkpt lat="39.08722338571544" lon="8.359009249600382"><ele>3.9999999999999996</ele><time>2026-04-18T13:29:48Z</time></trkpt><trkpt lat="39.08730577947454" lon="8.35893590988816"><ele>4.0</ele><time>2026-04-18T13:29:49Z</time></trkpt><trkpt lat="39.0873792594857" lon="8.358868507176172"><ele>4.0</ele><time>2026-04-18T13:29:50Z</time></trkpt><trkpt lat="39.08744499050779" lon="8.358846103550988"><ele>4.0</ele><time>2026-04-18T13:29:51Z</time></trkpt><trkpt lat="39.087512423060595" lon="8.358817932235187"><ele>3.9999999999999996</ele><time>2026-04-18T13:29:53Z</time></trkpt><trkpt lat="39.08760690619275" lon="8.358796496892346"><ele>4.0</ele><time>2026-04-18T13:29:56Z</time></trkpt><trkpt lat="39.08766866643463" lon="8.358824417060733"><ele>3.9999999999999996</ele><time>2026-04-18T13:29:57Z</time></trkpt><trkpt lat="39.08774641488228" lon="8.358854255132522"><ele>4.0</ele><time>2026-04-18T13:29:58Z</time></trkpt><trkpt lat="39.087817402062825" lon="8.358900810865574"><ele>4.0</ele><time>2026-04-18T13:29:59Z</time></trkpt><trkpt lat="39.08788241232148" lon="8.358948068707068"><ele>4.0</ele><time>2026-04-18T13:30:00Z</time></trkpt><trkpt lat="39.087952714678444" lon="8.359013058973439"><ele>3.9999999999999996</ele><time>2026-04-18T13:30:01Z</time></trkpt><trkpt lat="39.088032102644114" lon="8.359077025555745"><ele>4.0</ele><time>2026-04-18T13:30:02Z</time></trkpt><trkpt lat="39.08811272073439" lon="8.359137819771275"><ele>4.0</ele><time>2026-04-18T13:30:03Z</time></trkpt><trkpt lat="39.0882011788933" lon="8.359178006224214"><ele>4.0</ele><time>2026-04-18T13:30:04Z</time></trkpt><trkpt lat="39.08829874661479" lon="8.359196652243176"><ele>4.0</ele><time>2026-04-18T13:30:05Z</time></trkpt><trkpt lat="39.08840333440443" lon="8.359180320304338"><ele>4.0</ele><time>2026-04-18T13:30:06Z</time></trkpt><trkpt lat="39.08851447858869" lon="8.359151691786353"><ele>4.0</ele><time>2026-04-18T13:30:07Z</time></trkpt><trkpt lat="39.0886299828544" lon="8.35912876167207"><ele>4.5</ele><time>2026-04-18T13:30:08Z</time></trkpt><trkpt lat="39.08874024734723" lon="8.359107753557971"><ele>5.0</ele><time>2026-04-18T13:30:09Z</time></trkpt><trkpt lat="39.088852370284826" lon="8.359080893268672"><ele>5.5</ele><time>2026-04-18T13:30:10Z</time></trkpt><trkpt lat="39.08897108155785" lon="8.359039150676837"><ele>6.0</ele><time>2026-04-18T13:30:11Z</time></trkpt><trkpt lat="39.08909270763383" lon="8.358985640594604"><ele>6.5</ele><time>2026-04-18T13:30:12Z</time></trkpt><trkpt lat="39.089219992648545" lon="8.358928299051556"><ele>7.0</ele><time>2026-04-18T13:30:13Z</time></trkpt><trkpt lat="39.08934861741692" lon="8.358859590189624"><ele>7.5</ele><time>2026-04-18T13:30:14Z</time></trkpt><trkpt lat="39.08947233883848" lon="8.358766769513673"><ele>8.0</ele><time>2026-04-18T13:30:15Z</time></trkpt><trkpt lat="39.089590473036566" lon="8.358664137478806"><ele>8.5</ele><time>2026-04-18T13:30:16Z</time></trkpt><trkpt lat="39.08970377577455" lon="8.35856076835264"><ele>9.0</ele><time>2026-04-18T13:30:17Z</time></trkpt><trkpt lat="39.089811914238" lon="8.35846079384979"><ele>9.5</ele><time>2026-04-18T13:30:18Z</time></trkpt><trkpt lat="39.08991333065422" lon="8.358360681635201"><ele>10.0</ele><time>2026-04-18T13:30:19Z</time></trkpt><trkpt lat="39.09001465643094" lon="8.358271189423627"><ele>10.0</ele><time>2026-04-18T13:30:20Z</time></trkpt><trkpt lat="39.09011524402093" lon="8.358183683514923"><ele>10.0</ele><time>2026-04-18T13:30:21Z</time></trkpt><trkpt lat="39.09021814408679" lon="8.358106162425088"><ele>10.0</ele><time>2026-04-18T13:30:22Z</time></trkpt><trkpt lat="39.0903223896171" lon="8.35804779361956"><ele>10.0</ele><time>2026-04-18T13:30:23Z</time></trkpt><trkpt lat="39.09042205474351" lon="8.358014480798566"><ele>10.0</ele><time>2026-04-18T13:30:24Z</time></trkpt><trkpt lat="39.09051935526394" lon="8.358013225821033"><ele>10.0</ele><time>2026-04-18T13:30:25Z</time></trkpt><trkpt lat="39.090606138535485" lon="8.35804912963963"><ele>10.0</ele><time>2026-04-18T13:30:26Z</time></trkpt><trkpt lat="39.090688818488815" lon="8.35812012302521"><ele>10.0</ele><time>2026-04-18T13:30:27Z</time></trkpt><trkpt lat="39.090771713136405" lon="8.358215170752153"><ele>10.0</ele><time>2026-04-18T13:30:28Z</time></trkpt><trkpt lat="39.090841928687055" lon="8.35833716881449"><ele>8.75</ele><time>2026-04-18T13:30:29Z</time></trkpt><trkpt lat="39.090896331762615" lon="8.358479727092027"><ele>7.5</ele><time>2026-04-18T13:30:30Z</time></trkpt><trkpt lat="39.09094577870955" lon="8.358628358186463"><ele>6.25</ele><time>2026-04-18T13:30:31Z</time></trkpt><trkpt lat="39.09100241823365" lon="8.358767589363374"><ele>5.0</ele><time>2026-04-18T13:30:32Z</time></trkpt><trkpt lat="39.09106215721723" lon="8.358901830761928"><ele>4.6</ele><time>2026-04-18T13:30:33Z</time></trkpt><trkpt lat="39.09111909740553" lon="8.35903399491982"><ele>4.2</ele><time>2026-04-18T13:30:34Z</time></trkpt><trkpt lat="39.09117895717179" lon="8.359146192917684"><ele>3.8</ele><time>2026-04-18T13:30:35Z</time></trkpt><trkpt lat="39.0912463511981" lon="8.359228209773844"><ele>3.4</ele><time>2026-04-18T13:30:36Z</time></trkpt><trkpt lat="39.09133688296207" lon="8.359281416488042"><ele>3.0</ele><time>2026-04-18T13:30:37Z</time></trkpt><trkpt lat="39.091444393801446" lon="8.35931458420964"><ele>3.0</ele><time>2026-04-18T13:30:38Z</time></trkpt><trkpt lat="39.09155925199271" lon="8.359340493613168"><ele>3.0</ele><time>2026-04-18T13:30:39Z</time></trkpt><trkpt lat="39.09168515114419" lon="8.359352914960589"><ele>3.0</ele><time>2026-04-18T13:30:40Z</time></trkpt><trkpt lat="39.09181837892338" lon="8.359349990304928"><ele>3.0</ele><time>2026-04-18T13:30:41Z</time></trkpt><trkpt lat="39.09194847680379" lon="8.35934212228403"><ele>3.0</ele><time>2026-04-18T13:30:42Z</time></trkpt><trkpt lat="39.0920692773661" lon="8.359337861398243"><ele>3.0</ele><time>2026-04-18T13:30:43Z</time></trkpt><trkpt lat="39.092185881337926" lon="8.359344322061958"><ele>3.0</ele><time>2026-04-18T13:30:44Z</time></trkpt><trkpt lat="39.092306985851764" lon="8.359357431367032"><ele>3.0</ele><time>2026-04-18T13:30:45Z</time></trkpt><trkpt lat="39.09242470578244" lon="8.359394006877604"><ele>2.75</ele><time>2026-04-18T13:30:46Z</time></trkpt><trkpt lat="39.092525902784466" lon="8.359468150844426"><ele>2.5</ele><time>2026-04-18T13:30:47Z</time></trkpt><trkpt lat="39.09261013676633" lon="8.359569053647375"><ele>2.25</ele><time>2026-04-18T13:30:48Z</time></trkpt><trkpt lat="39.09267717946701" lon="8.359691428666352"><ele>2.0</ele><time>2026-04-18T13:30:49Z</time></trkpt><trkpt lat="39.092723306656104" lon="8.359830647451062"><ele>1.75</ele><time>2026-04-18T13:30:50Z</time></trkpt><trkpt lat="39.092772671372614" lon="8.359974251640589"><ele>1.5</ele><time>2026-04-18T13:30:51Z</time></trkpt><trkpt lat="39.09282234911933" lon="8.360122035333154"><ele>1.25</ele><time>2026-04-18T13:30:52Z</time></trkpt><trkpt lat="39.09286754235142" lon="8.360266348438314"><ele>1.0</ele><time>2026-04-18T13:30:53Z</time></trkpt><trkpt lat="39.092906053567624" lon="8.360405295522373"><ele>1.2000000000000002</ele><time>2026-04-18T13:30:54Z</time></trkpt><trkpt lat="39.092936331408445" lon="8.360540272940149"><ele>1.4000000000000001</ele><time>2026-04-18T13:30:55Z</time></trkpt><trkpt lat="39.092967203295956" lon="8.36066974901056"><ele>1.6</ele><time>2026-04-18T13:30:56Z</time></trkpt><trkpt lat="39.09300785477565" lon="8.360795351277503"><ele>1.8</ele><time>2026-04-18T13:30:57Z</time></trkpt><trkpt lat="39.09306520696634" lon="8.36092111312859"><ele>2.0</ele><time>2026-04-18T13:30:58Z</time></trkpt><trkpt lat="39.09313751688887" lon="8.361045348544533"><ele>2.0</ele><time>2026-04-18T13:30:59Z</time></trkpt><trkpt lat="39.09322279518638" lon="8.361161971724243"><ele>2.0</ele><time>2026-04-18T13:31:00Z</time></trkpt><trkpt lat="39.09332247916879" lon="8.361267356182045"><ele>2.0</ele><time>2026-04-18T13:31:01Z</time></trkpt><trkpt lat="39.09342954695175" lon="8.3613558565624"><ele>2.0</ele><time>2026-04-18T13:31:02Z</time></trkpt><trkpt lat="39.09354477162616" lon="8.361424448037507"><ele>1.75</ele><time>2026-04-18T13:31:03Z</time></trkpt><trkpt lat="39.09366512801674" lon="8.361474710829638"><ele>1.5</ele><time>2026-04-18T13:31:04Z</time></trkpt><trkpt lat="39.09378903348069" lon="8.3615024366471"><ele>1.25</ele><time>2026-04-18T13:31:05Z</time></trkpt><trkpt lat="39.093903523239035" lon="8.361526846951255"><ele>1.0</ele><time>2026-04-18T13:31:06Z</time></trkpt><trkpt lat="39.09400652784072" lon="8.361555058998105"><ele>1.2000000000000002</ele><time>2026-04-18T13:31:07Z</time></trkpt><trkpt lat="39.09410339698549" lon="8.361604283138686"><ele>1.4000000000000001</ele><time>2026-04-18T13:31:08Z</time></trkpt><trkpt lat="39.09417305990929" lon="8.361699903546127"><ele>1.6</ele><time>2026-04-18T13:31:09Z</time></trkpt><trkpt lat="39.09425835098503" lon="8.3617754523658"><ele>1.8</ele><time>2026-04-18T13:31:10Z</time></trkpt><trkpt lat="39.09432566877927" lon="8.361876619576831"><ele>2.0</ele><time>2026-04-18T13:31:11Z</time></trkpt><trkpt lat="39.09440229561909" lon="8.361962520589195"><ele>2.0</ele><time>2026-04-18T13:31:12Z</time></trkpt><trkpt lat="39.09449583342615" lon="8.362037888297085"><ele>2.0</ele><time>2026-04-18T13:31:13Z</time></trkpt><trkpt lat="39.094598845243105" lon="8.36209777492563"><ele>2.0</ele><time>2026-04-18T13:31:14Z</time></trkpt><trkpt lat="39.09471161628714" lon="8.362146910779419"><ele>2.0</ele><time>2026-04-18T13:31:15Z</time></trkpt><trkpt lat="39.09483172176389" lon="8.362189607038891"><ele>2.75</ele><time>2026-04-18T13:31:16Z</time></trkpt><trkpt lat="39.09495287233376" lon="8.362238556308396"><ele>3.5</ele><time>2026-04-18T13:31:17Z</time></trkpt><trkpt lat="39.095074537341425" lon="8.3622993433064"><ele>4.25</ele><time>2026-04-18T13:31:18Z</time></trkpt><trkpt lat="39.095195388617135" lon="8.362379269107638"><ele>5.0</ele><time>2026-04-18T13:31:19Z</time></trkpt><trkpt lat="39.09531764249712" lon="8.362464036621782"><ele>5.0</ele><time>2026-04-18T13:31:20Z</time></trkpt><trkpt lat="39.095443562941156" lon="8.362549292593513"><ele>5.0</ele><time>2026-04-18T13:31:21Z</time></trkpt><trkpt lat="39.095571389858335" lon="8.3626386906233"><ele>5.0</ele><time>2026-04-18T13:31:22Z</time></trkpt><trkpt lat="39.09569533076985" lon="8.362731423220408"><ele>5.0</ele><time>2026-04-18T13:31:23Z</time></trkpt><trkpt lat="39.09581727491905" lon="8.3628235853922"><ele>5.5</ele><time>2026-04-18T13:31:24Z</time></trkpt><trkpt lat="39.09593802736832" lon="8.362909334839276"><ele>6.0</ele><time>2026-04-18T13:31:25Z</time></trkpt><trkpt lat="39.096058123955544" lon="8.362989295269955"><ele>6.5</ele><time>2026-04-18T13:31:26Z</time></trkpt><trkpt lat="39.09617337291514" lon="8.363069127440642"><ele>7.0</ele><time>2026-04-18T13:31:27Z</time></trkpt><trkpt lat="39.09628469911119" lon="8.363154716685374"><ele>8.0</ele><time>2026-04-18T13:31:28Z</time></trkpt><trkpt lat="39.09639295691491" lon="8.363247079521274"><ele>9.0</ele><time>2026-04-18T13:31:29Z</time></trkpt><trkpt lat="39.09649946583342" lon="8.36335054350868"><ele>10.0</ele><time>2026-04-18T13:31:30Z</time></trkpt><trkpt lat="39.096604807627784" lon="8.363458371298753"><ele>11.0</ele><time>2026-04-18T13:31:31Z</time></trkpt><trkpt lat="39.09670932319231" lon="8.36356963043796"><ele>11.0</ele><time>2026-04-18T13:31:32Z</time></trkpt><trkpt lat="39.096814760826355" lon="8.36368120377198"><ele>11.0</ele><time>2026-04-18T13:31:33Z</time></trkpt><trkpt lat="39.09691874542098" lon="8.363793463338185"><ele>11.0</ele><time>2026-04-18T13:31:34Z</time></trkpt><trkpt lat="39.09702242695878" lon="8.363903734595944"><ele>11.0</ele><time>2026-04-18T13:31:35Z</time></trkpt><trkpt lat="39.097125819035995" lon="8.364010174441889"><ele>11.75</ele><time>2026-04-18T13:31:36Z</time></trkpt><trkpt lat="39.09722380993838" lon="8.364116284457676"><ele>12.5</ele><time>2026-04-18T13:31:37Z</time></trkpt><trkpt lat="39.09731520326433" lon="8.36421121871864"><ele>13.25</ele><time>2026-04-18T13:31:38Z</time></trkpt><trkpt lat="39.097404900025495" lon="8.364289305729521"><ele>14.0</ele><time>2026-04-18T13:31:39Z</time></trkpt><trkpt lat="39.09749869715069" lon="8.364340868059239"><ele>14.399999999999999</ele><time>2026-04-18T13:31:40Z</time></trkpt><trkpt lat="39.09760432939164" lon="8.364378287890277"><ele>14.799999999999999</ele><time>2026-04-18T13:31:41Z</time></trkpt><trkpt lat="39.09771589534682" lon="8.364386143202587"><ele>15.200000000000001</ele><time>2026-04-18T13:31:42Z</time></trkpt><trkpt lat="39.09781781103838" lon="8.36438794163143"><ele>15.600000000000001</ele><time>2026-04-18T13:31:43Z</time></trkpt><trkpt lat="39.097905915886095" lon="8.364375168814638"><ele>16.0</ele><time>2026-04-18T13:31:44Z</time></trkpt><trkpt lat="39.09798011483637" lon="8.364352890815406"><ele>15.999999999999998</ele><time>2026-04-18T13:31:45Z</time></trkpt><trkpt lat="39.098045483272465" lon="8.364331426237367"><ele>16.0</ele><time>2026-04-18T13:31:46Z</time></trkpt><trkpt lat="39.09812522655062" lon="8.364314403605366"><ele>16.0</ele><time>2026-04-18T13:31:47Z</time></trkpt><trkpt lat="39.098212755604266" lon="8.36430138852551"><ele>16.0</ele><time>2026-04-18T13:31:48Z</time></trkpt><trkpt lat="39.098308382913494" lon="8.36428764002761"><ele>15.999999999999998</ele><time>2026-04-18T13:31:49Z</time></trkpt><trkpt lat="39.09841395533194" lon="8.364273445424391"><ele>16.0</ele><time>2026-04-18T13:31:50Z</time></trkpt><trkpt lat="39.0985267312414" lon="8.36425320806554"><ele>16.75</ele><time>2026-04-18T13:31:51Z</time></trkpt><trkpt lat="39.09864432965066" lon="8.364229181873977"><ele>17.5</ele><time>2026-04-18T13:31:52Z</time></trkpt><trkpt lat="39.098762784962545" lon="8.364202295868155"><ele>18.25</ele><time>2026-04-18T13:31:53Z</time></trkpt><trkpt lat="39.0988824746756" lon="8.364178715025922"><ele>19.0</ele><time>2026-04-18T13:31:54Z</time></trkpt><trkpt lat="39.099001522252934" lon="8.364152069528462"><ele>18.75</ele><time>2026-04-18T13:31:55Z</time></trkpt><trkpt lat="39.099123781099884" lon="8.364129464794303"><ele>18.5</ele><time>2026-04-18T13:31:56Z</time></trkpt><trkpt lat="39.09924685627728" lon="8.364107060269678"><ele>18.25</ele><time>2026-04-18T13:31:57Z</time></trkpt><trkpt lat="39.09936857861758" lon="8.36408507510015"><ele>18.0</ele><time>2026-04-18T13:31:58Z</time></trkpt><trkpt lat="39.09949231678807" lon="8.364068249899892"><ele>18.0</ele><time>2026-04-18T13:31:59Z</time></trkpt><trkpt lat="39.099614847914054" lon="8.36404893426996"><ele>18.0</ele><time>2026-04-18T13:32:00Z</time></trkpt><trkpt lat="39.09973784973238" lon="8.364026277214968"><ele>18.0</ele><time>2026-04-18T13:32:01Z</time></trkpt><trkpt lat="39.099858361441775" lon="8.364003436831524"><ele>18.0</ele><time>2026-04-18T13:32:02Z</time></trkpt><trkpt lat="39.0999801113413" lon="8.363981259721504"><ele>17.75</ele><time>2026-04-18T13:32:03Z</time></trkpt><trkpt lat="39.10010493653785" lon="8.363957020177931"><ele>17.5</ele><time>2026-04-18T13:32:04Z</time></trkpt><trkpt lat="39.10023033232129" lon="8.363922800110013"><ele>17.25</ele><time>2026-04-18T13:32:05Z</time></trkpt><trkpt lat="39.10035252425973" lon="8.36387611143824"><ele>17.0</ele><time>2026-04-18T13:32:06Z</time></trkpt><trkpt lat="39.10046858617962" lon="8.363823473956394"><ele>17.0</ele><time>2026-04-18T13:32:07Z</time></trkpt><trkpt lat="39.10057713488791" lon="8.363758782725192"><ele>17.0</ele><time>2026-04-18T13:32:08Z</time></trkpt><trkpt lat="39.1006804542785" lon="8.363673067374963"><ele>17.0</ele><time>2026-04-18T13:32:09Z</time></trkpt><trkpt lat="39.100783916202076" lon="8.36357994430379"><ele>17.0</ele><time>2026-04-18T13:32:10Z</time></trkpt><trkpt lat="39.100889613537376" lon="8.363481292975287"><ele>17.0</ele><time>2026-04-18T13:32:11Z</time></trkpt><trkpt lat="39.10099758339703" lon="8.36337869565013"><ele>17.0</ele><time>2026-04-18T13:32:12Z</time></trkpt><trkpt lat="39.101108807954986" lon="8.363269961494959"><ele>17.0</ele><time>2026-04-18T13:32:13Z</time></trkpt><trkpt lat="39.101222992523155" lon="8.363161050621848"><ele>17.0</ele><time>2026-04-18T13:32:14Z</time></trkpt><trkpt lat="39.10133958355773" lon="8.36304782246073"><ele>17.25</ele><time>2026-04-18T13:32:15Z</time></trkpt><trkpt lat="39.101455025179966" lon="8.362934218797504"><ele>17.5</ele><time>2026-04-18T13:32:16Z</time></trkpt><trkpt lat="39.10157128546913" lon="8.362823181772157"><ele>17.75</ele><time>2026-04-18T13:32:17Z</time></trkpt><trkpt lat="39.101683647730475" lon="8.362717174809665"><ele>18.0</ele><time>2026-04-18T13:32:18Z</time></trkpt><trkpt lat="39.10179506449383" lon="8.36260875676881"><ele>18.0</ele><time>2026-04-18T13:32:19Z</time></trkpt><trkpt lat="39.10190448645461" lon="8.362502768045182"><ele>18.0</ele><time>2026-04-18T13:32:20Z</time></trkpt><trkpt lat="39.102008687839266" lon="8.362399127594568"><ele>18.0</ele><time>2026-04-18T13:32:21Z</time></trkpt><trkpt lat="39.10210641001166" lon="8.362303249189296"><ele>18.0</ele><time>2026-04-18T13:32:22Z</time></trkpt><trkpt lat="39.102199042812465" lon="8.362208483900384"><ele>17.8</ele><time>2026-04-18T13:32:23Z</time></trkpt><trkpt lat="39.10228739258812" lon="8.362117428096857"><ele>17.6</ele><time>2026-04-18T13:32:24Z</time></trkpt><trkpt lat="39.10237809382646" lon="8.362034970711647"><ele>17.4</ele><time>2026-04-18T13:32:25Z</time></trkpt><trkpt lat="39.10246960684179" lon="8.361961442113154"><ele>17.2</ele><time>2026-04-18T13:32:26Z</time></trkpt><trkpt lat="39.10256938624988" lon="8.361900546812244"><ele>17.0</ele><time>2026-04-18T13:32:27Z</time></trkpt><trkpt lat="39.102681358071244" lon="8.361848827158813"><ele>17.0</ele><time>2026-04-18T13:32:28Z</time></trkpt><trkpt lat="39.10280052853722" lon="8.361820788801477"><ele>17.0</ele><time>2026-04-18T13:32:29Z</time></trkpt><trkpt lat="39.102923445574014" lon="8.361815155203539"><ele>17.0</ele><time>2026-04-18T13:32:30Z</time></trkpt><trkpt lat="39.10305256779282" lon="8.361817259182803"><ele>17.0</ele><time>2026-04-18T13:32:31Z</time></trkpt><trkpt lat="39.10318447218136" lon="8.361823069603618"><ele>17.0</ele><time>2026-04-18T13:32:32Z</time></trkpt><trkpt lat="39.10331281058915" lon="8.361818353780608"><ele>17.0</ele><time>2026-04-18T13:32:33Z</time></trkpt><trkpt lat="39.10344699143789" lon="8.361813192939007"><ele>17.0</ele><time>2026-04-18T13:32:34Z</time></trkpt><trkpt lat="39.103583343976624" lon="8.361813019738406"><ele>17.0</ele><time>2026-04-18T13:32:35Z</time></trkpt><trkpt lat="39.10372014941438" lon="8.361815940141822"><ele>17.0</ele><time>2026-04-18T13:32:36Z</time></trkpt><trkpt lat="39.103856327197654" lon="8.361817975137987"><ele>17.0</ele><time>2026-04-18T13:32:37Z</time></trkpt><trkpt lat="39.10398866824476" lon="8.361820316374269"><ele>17.0</ele><time>2026-04-18T13:32:38Z</time></trkpt><trkpt lat="39.1041170089286" lon="8.361820824504647"><ele>17.0</ele><time>2026-04-18T13:32:39Z</time></trkpt><trkpt lat="39.10424325346718" lon="8.361821411171906"><ele>16.75</ele><time>2026-04-18T13:32:40Z</time></trkpt><trkpt lat="39.104365381254155" lon="8.36182203140194"><ele>16.5</ele><time>2026-04-18T13:32:41Z</time></trkpt><trkpt lat="39.104484926985606" lon="8.361820717436037"><ele>16.25</ele><time>2026-04-18T13:32:42Z</time></trkpt><trkpt lat="39.104607196395605" lon="8.361818899503765"><ele>16.0</ele><time>2026-04-18T13:32:43Z</time></trkpt><trkpt lat="39.10473269333692" lon="8.361819990705333"><ele>16.0</ele><time>2026-04-18T13:32:44Z</time></trkpt><trkpt lat="39.10485929410354" lon="8.361821953467604"><ele>16.0</ele><time>2026-04-18T13:32:45Z</time></trkpt><trkpt lat="39.10499101797857" lon="8.361823956807818"><ele>16.0</ele><time>2026-04-18T13:32:46Z</time></trkpt><trkpt lat="39.10512885292154" lon="8.3618251426312"><ele>16.0</ele><time>2026-04-18T13:32:47Z</time></trkpt><trkpt lat="39.105269356727256" lon="8.36182856401446"><ele>15.0</ele><time>2026-04-18T13:32:48Z</time></trkpt><trkpt lat="39.10540915985557" lon="8.361831784856452"><ele>14.0</ele><time>2026-04-18T13:32:49Z</time></trkpt><trkpt lat="39.10554434423887" lon="8.361834130200185"><ele>13.0</ele><time>2026-04-18T13:32:50Z</time></trkpt><trkpt lat="39.10567464601185" lon="8.361835350327542"><ele>12.0</ele><time>2026-04-18T13:32:51Z</time></trkpt><trkpt lat="39.105798933142054" lon="8.361834714756425"><ele>11.0</ele><time>2026-04-18T13:32:52Z</time></trkpt><trkpt lat="39.105918850419144" lon="8.361833194179004"><ele>10.0</ele><time>2026-04-18T13:32:53Z</time></trkpt><trkpt lat="39.10603265494259" lon="8.361829220241509"><ele>9.0</ele><time>2026-04-18T13:32:54Z</time></trkpt><trkpt lat="39.106143487880324" lon="8.361828218946311"><ele>8.0</ele><time>2026-04-18T13:32:55Z</time></trkpt><trkpt lat="39.10625072837977" lon="8.36183429369127"><ele>8.0</ele><time>2026-04-18T13:32:56Z</time></trkpt><trkpt lat="39.10635792430506" lon="8.361844483128001"><ele>8.0</ele><time>2026-04-18T13:32:57Z</time></trkpt><trkpt lat="39.10646334058337" lon="8.361861503618"><ele>8.0</ele><time>2026-04-18T13:32:58Z</time></trkpt><trkpt lat="39.1065625595513" lon="8.361890046718063"><ele>8.0</ele><time>2026-04-18T13:32:59Z</time></trkpt><trkpt lat="39.10665472768652" lon="8.361931589629963"><ele>8.0</ele><time>2026-04-18T13:33:00Z</time></trkpt><trkpt lat="39.106740396807226" lon="8.361987967454679"><ele>8.0</ele><time>2026-04-18T13:33:01Z</time></trkpt><trkpt lat="39.10682056645903" lon="8.362054904198"><ele>8.0</ele><time>2026-04-18T13:33:02Z</time></trkpt><trkpt lat="39.10689685090575" lon="8.362130850550466"><ele>8.0</ele><time>2026-04-18T13:33:03Z</time></trkpt><trkpt lat="39.10696896004823" lon="8.362216084444393"><ele>8.0</ele><time>2026-04-18T13:33:04Z</time></trkpt><trkpt lat="39.10703490491425" lon="8.362312883618634"><ele>8.0</ele><time>2026-04-18T13:33:05Z</time></trkpt><trkpt lat="39.10709370599225" lon="8.362415393365838"><ele>8.0</ele><time>2026-04-18T13:33:06Z</time></trkpt><trkpt lat="39.10714539920186" lon="8.362529685368242"><ele>8.0</ele><time>2026-04-18T13:33:07Z</time></trkpt><trkpt lat="39.10718994647808" lon="8.362650615714776"><ele>8.0</ele><time>2026-04-18T13:33:08Z</time></trkpt><trkpt lat="39.107231073286144" lon="8.362774502523541"><ele>8.0</ele><time>2026-04-18T13:33:09Z</time></trkpt><trkpt lat="39.1072698320395" lon="8.36290597735384"><ele>8.0</ele><time>2026-04-18T13:33:10Z</time></trkpt><trkpt lat="39.10731220447604" lon="8.36304059345831"><ele>7.5</ele><time>2026-04-18T13:33:11Z</time></trkpt><trkpt lat="39.10735252249393" lon="8.363181453162674"><ele>7.0</ele><time>2026-04-18T13:33:12Z</time></trkpt><trkpt lat="39.107390703139274" lon="8.363326039757489"><ele>6.5</ele><time>2026-04-18T13:33:13Z</time></trkpt><trkpt lat="39.10743137821488" lon="8.363462249383584"><ele>6.0</ele><time>2026-04-18T13:33:14Z</time></trkpt><trkpt lat="39.10746702310271" lon="8.363592971902865"><ele>5.8</ele><time>2026-04-18T13:33:15Z</time></trkpt><trkpt lat="39.10750717846607" lon="8.36371845139382"><ele>5.6</ele><time>2026-04-18T13:33:16Z</time></trkpt><trkpt lat="39.1075448143098" lon="8.36383598326351"><ele>5.4</ele><time>2026-04-18T13:33:17Z</time></trkpt><trkpt lat="39.10758439519474" lon="8.363948061093426"><ele>5.2</ele><time>2026-04-18T13:33:18Z</time></trkpt><trkpt lat="39.10761150435743" lon="8.364064495764989"><ele>5.0</ele><time>2026-04-18T13:33:19Z</time></trkpt><trkpt lat="39.1076523221107" lon="8.364169220659385"><ele>5.0</ele><time>2026-04-18T13:33:20Z</time></trkpt><trkpt lat="39.10769414011141" lon="8.36427071154414"><ele>5.0</ele><time>2026-04-18T13:33:21Z</time></trkpt><trkpt lat="39.10774982715068" lon="8.364362337079484"><ele>5.0</ele><time>2026-04-18T13:33:22Z</time></trkpt><trkpt lat="39.10779084113874" lon="8.364465034048067"><ele>5.0</ele><time>2026-04-18T13:33:23Z</time></trkpt><trkpt lat="39.10783471008566" lon="8.36456985811923"><ele>5.0</ele><time>2026-04-18T13:33:24Z</time></trkpt><trkpt lat="39.10787569834577" lon="8.364674129528163"><ele>5.571428571428571</ele><time>2026-04-18T13:33:25Z</time></trkpt><trkpt lat="39.107916268565674" lon="8.364769082811115"><ele>6.142857142857143</ele><time>2026-04-18T13:33:26Z</time></trkpt><trkpt lat="39.10795098132403" lon="8.364861817772526"><ele>6.714285714285715</ele><time>2026-04-18T13:33:27Z</time></trkpt><trkpt lat="39.10798033346294" lon="8.364943295871663"><ele>7.2857142857142865</ele><time>2026-04-18T13:33:28Z</time></trkpt><trkpt lat="39.108008163156114" lon="8.36502102710721"><ele>7.857142857142858</ele><time>2026-04-18T13:33:29Z</time></trkpt><trkpt lat="39.10803751491145" lon="8.365097345585939"><ele>8.428571428571429</ele><time>2026-04-18T13:33:30Z</time></trkpt><trkpt lat="39.108070902491875" lon="8.365173136502552"><ele>9.0</ele><time>2026-04-18T13:33:31Z</time></trkpt><trkpt lat="39.10810539413542" lon="8.365248447286534"><ele>9.000000000000002</ele><time>2026-04-18T13:33:32Z</time></trkpt><trkpt lat="39.10813969428183" lon="8.365324757599748"><ele>9.0</ele><time>2026-04-18T13:33:33Z</time></trkpt><trkpt lat="39.108171230179565" lon="8.365403186088445"><ele>9.0</ele><time>2026-04-18T13:33:34Z</time></trkpt><trkpt lat="39.10820030345259" lon="8.365489590113715"><ele>9.0</ele><time>2026-04-18T13:33:35Z</time></trkpt><trkpt lat="39.10823473312241" lon="8.365576509769168"><ele>9.0</ele><time>2026-04-18T13:33:36Z</time></trkpt><trkpt lat="39.10826961191286" lon="8.365667466769235"><ele>9.000000000000002</ele><time>2026-04-18T13:33:37Z</time></trkpt><trkpt lat="39.108304885276944" lon="8.3657597552023"><ele>9.0</ele><time>2026-04-18T13:33:38Z</time></trkpt><trkpt lat="39.108344827245844" lon="8.365850783443687"><ele>10.0</ele><time>2026-04-18T13:33:39Z</time></trkpt><trkpt lat="39.10838577214958" lon="8.365936635409966"><ele>11.0</ele><time>2026-04-18T13:33:40Z</time></trkpt><trkpt lat="39.108436091131374" lon="8.366015036333017"><ele>12.0</ele><time>2026-04-18T13:33:41Z</time></trkpt><trkpt lat="39.108501486624256" lon="8.366065178379124"><ele>13.0</ele><time>2026-04-18T13:33:42Z</time></trkpt><trkpt lat="39.10857382919339" lon="8.36609833739458"><ele>14.0</ele><time>2026-04-18T13:33:43Z</time></trkpt><trkpt lat="39.1086558990184" lon="8.366089213728147"><ele>15.0</ele><time>2026-04-18T13:33:44Z</time></trkpt><trkpt lat="39.1087399290753" lon="8.366075767885361"><ele>15.0</ele><time>2026-04-18T13:33:45Z</time></trkpt><trkpt lat="39.108825324604375" lon="8.366061159309282"><ele>15.0</ele><time>2026-04-18T13:33:46Z</time></trkpt><trkpt lat="39.10891391822221" lon="8.36605594975039"><ele>15.0</ele><time>2026-04-18T13:33:47Z</time></trkpt><trkpt lat="39.109003608870665" lon="8.36605420433694"><ele>15.0</ele><time>2026-04-18T13:33:48Z</time></trkpt><trkpt lat="39.109095590874276" lon="8.36604329958326"><ele>15.0</ele><time>2026-04-18T13:33:49Z</time></trkpt><trkpt lat="39.109180498143864" lon="8.366031075088138"><ele>15.0</ele><time>2026-04-18T13:33:50Z</time></trkpt><trkpt lat="39.10926508985773" lon="8.36602135963003"><ele>14.2</ele><time>2026-04-18T13:33:51Z</time></trkpt><trkpt lat="39.10934750058404" lon="8.366012796620424"><ele>13.4</ele><time>2026-04-18T13:33:52Z</time></trkpt><trkpt lat="39.109430564471396" lon="8.366003352248718"><ele>12.600000000000001</ele><time>2026-04-18T13:33:53Z</time></trkpt><trkpt lat="39.10952236435589" lon="8.36599205983993"><ele>11.8</ele><time>2026-04-18T13:33:54Z</time></trkpt><trkpt lat="39.10961736026299" lon="8.365978306337222"><ele>11.0</ele><time>2026-04-18T13:33:55Z</time></trkpt><trkpt lat="39.10971278842214" lon="8.365956430189494"><ele>11.0</ele><time>2026-04-18T13:33:56Z</time></trkpt><trkpt lat="39.10980752657004" lon="8.365928624496826"><ele>11.0</ele><time>2026-04-18T13:33:57Z</time></trkpt><trkpt lat="39.109902413455416" lon="8.365899544060792"><ele>11.0</ele><time>2026-04-18T13:33:58Z</time></trkpt><trkpt lat="39.109997424840785" lon="8.365870102588579"><ele>11.0</ele><time>2026-04-18T13:33:59Z</time></trkpt><trkpt lat="39.11009492584166" lon="8.365843823679935"><ele>11.0</ele><time>2026-04-18T13:34:00Z</time></trkpt><trkpt lat="39.11019129075415" lon="8.36581286107282"><ele>11.0</ele><time>2026-04-18T13:34:01Z</time></trkpt><trkpt lat="39.11028897741201" lon="8.36577905176884"><ele>11.0</ele><time>2026-04-18T13:34:02Z</time></trkpt><trkpt lat="39.110382979961784" lon="8.365745979578776"><ele>11.0</ele><time>2026-04-18T13:34:03Z</time></trkpt><trkpt lat="39.11047901483028" lon="8.365710732469683"><ele>11.0</ele><time>2026-04-18T13:34:04Z</time></trkpt><trkpt lat="39.110579333522175" lon="8.365687213374292"><ele>11.0</ele><time>2026-04-18T13:34:05Z</time></trkpt><trkpt lat="39.11068138575667" lon="8.365677347001148"><ele>10.8</ele><time>2026-04-18T13:34:06Z</time></trkpt><trkpt lat="39.110780950907376" lon="8.365687033232447"><ele>10.600000000000001</ele><time>2026-04-18T13:34:07Z</time></trkpt><trkpt lat="39.11087166149437" lon="8.365712244896196"><ele>10.4</ele><time>2026-04-18T13:34:08Z</time></trkpt><trkpt lat="39.110954486334734" lon="8.365752082304274"><ele>10.2</ele><time>2026-04-18T13:34:09Z</time></trkpt><trkpt lat="39.11102280776528" lon="8.365819122556061"><ele>10.0</ele><time>2026-04-18T13:34:10Z</time></trkpt><trkpt lat="39.111076147104676" lon="8.365908633920755"><ele>10.0</ele><time>2026-04-18T13:34:11Z</time></trkpt><trkpt lat="39.111117861686054" lon="8.366006533265375"><ele>10.0</ele><time>2026-04-18T13:34:12Z</time></trkpt><trkpt lat="39.111143897449644" lon="8.366109304044235"><ele>10.0</ele><time>2026-04-18T13:34:13Z</time></trkpt><trkpt lat="39.11116997724924" lon="8.366211579866514"><ele>10.0</ele><time>2026-04-18T13:34:14Z</time></trkpt><trkpt lat="39.11117310373552" lon="8.36631477570495"><ele>10.0</ele><time>2026-04-18T13:34:15Z</time></trkpt><trkpt lat="39.11115239284803" lon="8.366397126062253"><ele>10.0</ele><time>2026-04-18T13:34:16Z</time></trkpt><trkpt lat="39.11109368735113" lon="8.366458714104025"><ele>11.0</ele><time>2026-04-18T13:34:18Z</time></trkpt><trkpt lat="39.11104664576006" lon="8.366529384794797"><ele>12.0</ele><time>2026-04-18T13:35:03Z</time></trkpt><trkpt lat="39.110986917053644" lon="8.366619162170018"><ele>13.0</ele><time>2026-04-18T13:35:05Z</time></trkpt><trkpt lat="39.1108838905478" lon="8.366714501145236"><ele>14.0</ele><time>2026-04-18T13:35:07Z</time></trkpt><trkpt lat="39.11084118596663" lon="8.36678757825501"><ele>14.999999999999998</ele><time>2026-04-18T13:35:08Z</time></trkpt><trkpt lat="39.11077675782097" lon="8.366863220916608"><ele>16.0</ele><time>2026-04-18T13:35:09Z</time></trkpt><trkpt lat="39.11071818029541" lon="8.366914753261433"><ele>16.428571428571427</ele><time>2026-04-18T13:35:10Z</time></trkpt><trkpt lat="39.11067704044328" lon="8.366992386302243"><ele>16.857142857142854</ele><time>2026-04-18T13:35:11Z</time></trkpt><trkpt lat="39.11061963645578" lon="8.367052963815388"><ele>17.285714285714285</ele><time>2026-04-18T13:35:12Z</time></trkpt><trkpt lat="39.110567547491925" lon="8.367111443490794"><ele>17.714285714285715</ele><time>2026-04-18T13:35:13Z</time></trkpt><trkpt lat="39.110517297035216" lon="8.367168168615839"><ele>18.142857142857146</ele><time>2026-04-18T13:35:14Z</time></trkpt><trkpt lat="39.11046677106058" lon="8.367231064298862"><ele>18.57142857142857</ele><time>2026-04-18T13:35:15Z</time></trkpt><trkpt lat="39.11041458207643" lon="8.367294330048821"><ele>19.0</ele><time>2026-04-18T13:35:16Z</time></trkpt><trkpt lat="39.11036736026896" lon="8.367353660136459"><ele>19.0</ele><time>2026-04-18T13:35:17Z</time></trkpt><trkpt lat="39.11032031997906" lon="8.367408361230613"><ele>19.0</ele><time>2026-04-18T13:35:18Z</time></trkpt><trkpt lat="39.11022857972689" lon="8.367520136374226"><ele>19.0</ele><time>2026-04-18T13:35:20Z</time></trkpt><trkpt lat="39.11014742716728" lon="8.367616444068311"><ele>19.0</ele><time>2026-04-18T13:35:22Z</time></trkpt><trkpt lat="39.110078524574256" lon="8.367711344437971"><ele>19.0</ele><time>2026-04-18T13:35:24Z</time></trkpt><trkpt lat="39.10999881248215" lon="8.367816666638063"><ele>19.0</ele><time>2026-04-18T13:35:26Z</time></trkpt><trkpt lat="39.10994744133135" lon="8.367877710590653"><ele>19.0</ele><time>2026-04-18T13:35:27Z</time></trkpt><trkpt lat="39.109895538554476" lon="8.36793615263145"><ele>19.0</ele><time>2026-04-18T13:35:28Z</time></trkpt><trkpt lat="39.10983695665673" lon="8.367995146557382"><ele>19.0</ele><time>2026-04-18T13:35:29Z</time></trkpt><trkpt lat="39.10978690385606" lon="8.36804668846574"><ele>19.0</ele><time>2026-04-18T13:35:30Z</time></trkpt><trkpt lat="39.10972840544813" lon="8.368123106915863"><ele>19.0</ele><time>2026-04-18T13:35:32Z</time></trkpt><trkpt lat="39.10967452526666" lon="8.368175078627868"><ele>19.0</ele><time>2026-04-18T13:35:37Z</time></trkpt><trkpt lat="39.10963063411499" lon="8.368233571311928"><ele>19.0</ele><time>2026-04-18T13:35:51Z</time></trkpt><trkpt lat="39.10956728507193" lon="8.36831964674912"><ele>19.0</ele><time>2026-04-18T13:35:53Z</time></trkpt><trkpt lat="39.109475046392184" lon="8.368433008214968"><ele>19.0</ele><time>2026-04-18T13:35:55Z</time></trkpt><trkpt lat="39.10942636606072" lon="8.36849205651999"><ele>19.0</ele><time>2026-04-18T13:35:56Z</time></trkpt><trkpt lat="39.10937960178733" lon="8.368548613717847"><ele>19.0</ele><time>2026-04-18T13:35:57Z</time></trkpt><trkpt lat="39.1093326182451" lon="8.368607689752574"><ele>19.0</ele><time>2026-04-18T13:35:58Z</time></trkpt><trkpt lat="39.1092806077819" lon="8.368671645380319"><ele>19.0</ele><time>2026-04-18T13:35:59Z</time></trkpt><trkpt lat="39.10923375938478" lon="8.368736560331879"><ele>19.0</ele><time>2026-04-18T13:36:00Z</time></trkpt><trkpt lat="39.1091765598496" lon="8.368784143917585"><ele>19.0</ele><time>2026-04-18T13:36:01Z</time></trkpt><trkpt lat="39.10912900121083" lon="8.368842354494717"><ele>19.0</ele><time>2026-04-18T13:36:02Z</time></trkpt><trkpt lat="39.10909163694363" lon="8.368913781558096"><ele>19.0</ele><time>2026-04-18T13:36:03Z</time></trkpt><trkpt lat="39.10903998990089" lon="8.368967184988955"><ele>19.0</ele><time>2026-04-18T13:36:04Z</time></trkpt><trkpt lat="39.10899340377649" lon="8.369024958435231"><ele>19.0</ele><time>2026-04-18T13:36:05Z</time></trkpt><trkpt lat="39.10894763040539" lon="8.369081701086726"><ele>18.4</ele><time>2026-04-18T13:36:06Z</time></trkpt><trkpt lat="39.1088731875557" lon="8.369176255039754"><ele>17.799999999999997</ele><time>2026-04-18T13:36:08Z</time></trkpt><trkpt lat="39.10882359126745" lon="8.369232240758013"><ele>17.200000000000003</ele><time>2026-04-18T13:36:11Z</time></trkpt><trkpt lat="39.1087474811228" lon="8.369311928949124"><ele>16.6</ele><time>2026-04-18T13:36:14Z</time></trkpt><trkpt lat="39.108640143414654" lon="8.369420828190144"><ele>16.0</ele><time>2026-04-18T13:36:16Z</time></trkpt><trkpt lat="39.108591787508836" lon="8.369502537441157"><ele>15.999999999999998</ele><time>2026-04-18T13:36:17Z</time></trkpt><trkpt lat="39.108541987329716" lon="8.369564314589198"><ele>16.0</ele><time>2026-04-18T13:36:18Z</time></trkpt><trkpt lat="39.10848624111084" lon="8.369627805722255"><ele>16.0</ele><time>2026-04-18T13:36:19Z</time></trkpt><trkpt lat="39.10842986981468" lon="8.369696308343803"><ele>16.0</ele><time>2026-04-18T13:36:20Z</time></trkpt><trkpt lat="39.10837320763608" lon="8.369766897339668"><ele>15.999999999999998</ele><time>2026-04-18T13:36:21Z</time></trkpt><trkpt lat="39.10831209015301" lon="8.36983693338802"><ele>16.0</ele><time>2026-04-18T13:36:22Z</time></trkpt><trkpt lat="39.10825995322172" lon="8.369906006869487"><ele>15.666666666666666</ele><time>2026-04-18T13:36:23Z</time></trkpt><trkpt lat="39.10821294025392" lon="8.369971357182452"><ele>15.333333333333332</ele><time>2026-04-18T13:36:24Z</time></trkpt><trkpt lat="39.10816606106399" lon="8.370031625326169"><ele>15.0</ele><time>2026-04-18T13:36:25Z</time></trkpt><trkpt lat="39.10811715683441" lon="8.370093974178111"><ele>14.666666666666668</ele><time>2026-04-18T13:36:26Z</time></trkpt><trkpt lat="39.10806427972832" lon="8.370158970741556"><ele>14.333333333333334</ele><time>2026-04-18T13:36:27Z</time></trkpt><trkpt lat="39.108013979558756" lon="8.370216186127148"><ele>14.0</ele><time>2026-04-18T13:36:28Z</time></trkpt><trkpt lat="39.107938420815294" lon="8.370311012326285"><ele>14.0</ele><time>2026-04-18T13:36:30Z</time></trkpt><trkpt lat="39.10787960253453" lon="8.370354551494177"><ele>13.999999999999998</ele><time>2026-04-18T13:36:37Z</time></trkpt><trkpt lat="39.107942554949894" lon="8.370557607146846"><ele>13.999999999999998</ele><time>2026-04-18T13:36:40Z</time></trkpt><trkpt lat="39.10798944760165" lon="8.370634681168392"><ele>14.0</ele><time>2026-04-18T13:36:41Z</time></trkpt><trkpt lat="39.10805801586755" lon="8.370716440597741"><ele>14.0</ele><time>2026-04-18T13:36:42Z</time></trkpt><trkpt lat="39.10810041331963" lon="8.370817916539725"><ele>13.666666666666668</ele><time>2026-04-18T13:36:43Z</time></trkpt><trkpt lat="39.108140162910246" lon="8.370884680463151"><ele>13.333333333333334</ele><time>2026-04-18T13:36:44Z</time></trkpt><trkpt lat="39.10820423568227" lon="8.370992522043956"><ele>13.0</ele><time>2026-04-18T13:36:46Z</time></trkpt><trkpt lat="39.10822071875618" lon="8.371113090132527"><ele>12.666666666666668</ele><time>2026-04-18T13:36:50Z</time></trkpt><trkpt lat="39.10815763707716" lon="8.371155227035992"><ele>12.333333333333334</ele><time>2026-04-18T13:36:51Z</time></trkpt><trkpt lat="39.10808110750051" lon="8.371172864206898"><ele>12.0</ele><time>2026-04-18T13:36:52Z</time></trkpt><trkpt lat="39.10801091336414" lon="8.371219330603909"><ele>12.0</ele><time>2026-04-18T13:36:53Z</time></trkpt><trkpt lat="39.10792671728567" lon="8.371280183863602"><ele>12.0</ele><time>2026-04-18T13:36:54Z</time></trkpt><trkpt lat="39.10784213572041" lon="8.371335437893116"><ele>12.0</ele><time>2026-04-18T13:36:55Z</time></trkpt><trkpt lat="39.10773834519286" lon="8.371380848955628"><ele>12.0</ele><time>2026-04-18T13:36:56Z</time></trkpt><trkpt lat="39.107634687102106" lon="8.371434927866316"><ele>12.0</ele><time>2026-04-18T13:36:57Z</time></trkpt><trkpt lat="39.10753378391376" lon="8.371481215133215"><ele>12.0</ele><time>2026-04-18T13:36:58Z</time></trkpt><trkpt lat="39.10743534164799" lon="8.371525080681808"><ele>12.0</ele><time>2026-04-18T13:36:59Z</time></trkpt><trkpt lat="39.10733634604264" lon="8.371580123705096"><ele>12.0</ele><time>2026-04-18T13:37:00Z</time></trkpt><trkpt lat="39.107232672767324" lon="8.37162976946773"><ele>12.0</ele><time>2026-04-18T13:37:01Z</time></trkpt><trkpt lat="39.107126423250286" lon="8.371679987378023"><ele>12.0</ele><time>2026-04-18T13:37:02Z</time></trkpt><trkpt lat="39.10702315726485" lon="8.371734395367225"><ele>12.0</ele><time>2026-04-18T13:37:03Z</time></trkpt><trkpt lat="39.10692112038106" lon="8.371785806618977"><ele>12.0</ele><time>2026-04-18T13:37:04Z</time></trkpt><trkpt lat="39.106819208363746" lon="8.371839482057075"><ele>12.0</ele><time>2026-04-18T13:37:05Z</time></trkpt><trkpt lat="39.106718637785185" lon="8.37189420072536"><ele>12.0</ele><time>2026-04-18T13:37:06Z</time></trkpt><trkpt lat="39.10661858649927" lon="8.371947695041738"><ele>12.0</ele><time>2026-04-18T13:37:07Z</time></trkpt><trkpt lat="39.10651648200894" lon="8.372003344143813"><ele>12.25</ele><time>2026-04-18T13:37:08Z</time></trkpt><trkpt lat="39.106412228469445" lon="8.372058013345475"><ele>12.5</ele><time>2026-04-18T13:37:09Z</time></trkpt><trkpt lat="39.10630308726968" lon="8.37211276650806"><ele>12.75</ele><time>2026-04-18T13:37:10Z</time></trkpt><trkpt lat="39.10619450250948" lon="8.372168388264328"><ele>13.0</ele><time>2026-04-18T13:37:11Z</time></trkpt><trkpt lat="39.10608199282112" lon="8.3722223375297"><ele>13.0</ele><time>2026-04-18T13:37:12Z</time></trkpt><trkpt lat="39.10596672794435" lon="8.372278898770027"><ele>13.0</ele><time>2026-04-18T13:37:13Z</time></trkpt><trkpt lat="39.10585089655158" lon="8.372339396169407"><ele>13.0</ele><time>2026-04-18T13:37:14Z</time></trkpt><trkpt lat="39.10573335911839" lon="8.372400323492252"><ele>13.0</ele><time>2026-04-18T13:37:15Z</time></trkpt><trkpt lat="39.10561311729982" lon="8.372460925184138"><ele>13.0</ele><time>2026-04-18T13:37:16Z</time></trkpt><trkpt lat="39.10549098584183" lon="8.372521510872295"><ele>13.0</ele><time>2026-04-18T13:37:17Z</time></trkpt><trkpt lat="39.10536709095264" lon="8.37258325708485"><ele>13.0</ele><time>2026-04-18T13:37:18Z</time></trkpt><trkpt lat="39.10523998635234" lon="8.37264944036683"><ele>13.0</ele><time>2026-04-18T13:37:19Z</time></trkpt><trkpt lat="39.10511349214965" lon="8.372717707685615"><ele>13.0</ele><time>2026-04-18T13:37:20Z</time></trkpt><trkpt lat="39.10498396817372" lon="8.372785016572735"><ele>13.0</ele><time>2026-04-18T13:37:21Z</time></trkpt><trkpt lat="39.104852263856756" lon="8.372851488795712"><ele>13.0</ele><time>2026-04-18T13:37:22Z</time></trkpt><trkpt lat="39.10471905351887" lon="8.372919126696312"><ele>13.0</ele><time>2026-04-18T13:37:23Z</time></trkpt><trkpt lat="39.10458410041151" lon="8.372986103571872"><ele>12.75</ele><time>2026-04-18T13:37:24Z</time></trkpt><trkpt lat="39.1044486894781" lon="8.373055714883414"><ele>12.5</ele><time>2026-04-18T13:37:25Z</time></trkpt><trkpt lat="39.10431218385013" lon="8.373126230420564"><ele>12.25</ele><time>2026-04-18T13:37:26Z</time></trkpt><trkpt lat="39.10417488098228" lon="8.373199754353605"><ele>12.0</ele><time>2026-04-18T13:37:27Z</time></trkpt><trkpt lat="39.10403706049391" lon="8.373272240364196"><ele>12.666666666666668</ele><time>2026-04-18T13:37:28Z</time></trkpt><trkpt lat="39.103898660648" lon="8.373343524751917"><ele>13.333333333333334</ele><time>2026-04-18T13:37:29Z</time></trkpt><trkpt lat="39.10375910178596" lon="8.373413445373115"><ele>14.0</ele><time>2026-04-18T13:37:30Z</time></trkpt><trkpt lat="39.10361724705331" lon="8.37348137648692"><ele>14.0</ele><time>2026-04-18T13:37:31Z</time></trkpt><trkpt lat="39.10347583637632" lon="8.373548055186806"><ele>14.0</ele><time>2026-04-18T13:37:32Z</time></trkpt><trkpt lat="39.103336700563574" lon="8.373619182193034"><ele>14.0</ele><time>2026-04-18T13:37:33Z</time></trkpt><trkpt lat="39.10319830248793" lon="8.373693831027865"><ele>14.333333333333334</ele><time>2026-04-18T13:37:34Z</time></trkpt><trkpt lat="39.10305990484061" lon="8.37377170161805"><ele>14.666666666666668</ele><time>2026-04-18T13:37:35Z</time></trkpt><trkpt lat="39.10292280631758" lon="8.373860328943717"><ele>15.0</ele><time>2026-04-18T13:37:36Z</time></trkpt><trkpt lat="39.10278991260154" lon="8.37396885146357"><ele>15.0</ele><time>2026-04-18T13:37:37Z</time></trkpt><trkpt lat="39.10266575312321" lon="8.374093592632432"><ele>15.0</ele><time>2026-04-18T13:37:38Z</time></trkpt><trkpt lat="39.10253905644644" lon="8.37422883400774"><ele>15.0</ele><time>2026-04-18T13:37:39Z</time></trkpt><trkpt lat="39.10240717577442" lon="8.374365134719806"><ele>15.333333333333332</ele><time>2026-04-18T13:37:40Z</time></trkpt><trkpt lat="39.10227136692362" lon="8.374500177387224"><ele>15.666666666666666</ele><time>2026-04-18T13:37:41Z</time></trkpt><trkpt lat="39.10213181282514" lon="8.374640376460723"><ele>16.0</ele><time>2026-04-18T13:37:42Z</time></trkpt><trkpt lat="39.101986022227585" lon="8.3747858913723"><ele>16.0</ele><time>2026-04-18T13:37:43Z</time></trkpt><trkpt lat="39.10184282916547" lon="8.374935207962055"><ele>16.0</ele><time>2026-04-18T13:37:44Z</time></trkpt><trkpt lat="39.101699106663006" lon="8.37507630233082"><ele>16.0</ele><time>2026-04-18T13:37:45Z</time></trkpt><trkpt lat="39.10155622517626" lon="8.375216691999913"><ele>16.0</ele><time>2026-04-18T13:37:46Z</time></trkpt><trkpt lat="39.10142152107409" lon="8.375363360287592"><ele>16.0</ele><time>2026-04-18T13:37:47Z</time></trkpt><trkpt lat="39.101283324983235" lon="8.375508912502807"><ele>16.0</ele><time>2026-04-18T13:37:48Z</time></trkpt><trkpt lat="39.10114105677868" lon="8.375653720489014"><ele>16.0</ele><time>2026-04-18T13:37:49Z</time></trkpt><trkpt lat="39.100997492653725" lon="8.375798602678513"><ele>16.0</ele><time>2026-04-18T13:37:50Z</time></trkpt><trkpt lat="39.10085799013614" lon="8.375943714806436"><ele>16.0</ele><time>2026-04-18T13:37:51Z</time></trkpt><trkpt lat="39.10071657992234" lon="8.376089924691508"><ele>16.333333333333332</ele><time>2026-04-18T13:37:52Z</time></trkpt><trkpt lat="39.10057819624602" lon="8.376233054548283"><ele>16.666666666666668</ele><time>2026-04-18T13:37:53Z</time></trkpt><trkpt lat="39.10044123071849" lon="8.376375330223098"><ele>17.0</ele><time>2026-04-18T13:37:54Z</time></trkpt><trkpt lat="39.10030377638977" lon="8.376518019451805"><ele>16.333333333333336</ele><time>2026-04-18T13:37:55Z</time></trkpt><trkpt lat="39.10016764573691" lon="8.376659880075813"><ele>15.666666666666668</ele><time>2026-04-18T13:37:56Z</time></trkpt><trkpt lat="39.10003313871507" lon="8.37680064009473"><ele>15.0</ele><time>2026-04-18T13:37:57Z</time></trkpt><trkpt lat="39.099895394450634" lon="8.37693979492118"><ele>15.0</ele><time>2026-04-18T13:37:58Z</time></trkpt><trkpt lat="39.09975827936577" lon="8.377078139381302"><ele>15.0</ele><time>2026-04-18T13:37:59Z</time></trkpt><trkpt lat="39.09962084759633" lon="8.377217900897273"><ele>15.0</ele><time>2026-04-18T13:38:00Z</time></trkpt><trkpt lat="39.09948230394951" lon="8.377358770358041"><ele>14.333333333333332</ele><time>2026-04-18T13:38:01Z</time></trkpt><trkpt lat="39.09934399416012" lon="8.377499280421729"><ele>13.666666666666666</ele><time>2026-04-18T13:38:02Z</time></trkpt><trkpt lat="39.099204994055114" lon="8.377639939979614"><ele>13.0</ele><time>2026-04-18T13:38:03Z</time></trkpt><trkpt lat="39.099065947108805" lon="8.377782227532528"><ele>13.0</ele><time>2026-04-18T13:38:04Z</time></trkpt><trkpt lat="39.098928281747185" lon="8.377927164105696"><ele>13.0</ele><time>2026-04-18T13:38:05Z</time></trkpt><trkpt lat="39.09878994819658" lon="8.378068237096647"><ele>13.0</ele><time>2026-04-18T13:38:06Z</time></trkpt><trkpt lat="39.098653980887896" lon="8.378207098215947"><ele>12.0</ele><time>2026-04-18T13:38:07Z</time></trkpt><trkpt lat="39.09852606006398" lon="8.378338396857528"><ele>11.0</ele><time>2026-04-18T13:38:08Z</time></trkpt><trkpt lat="39.098397034275685" lon="8.378466036483461"><ele>10.0</ele><time>2026-04-18T13:38:09Z</time></trkpt><trkpt lat="39.098275494698136" lon="8.378591191142046"><ele>10.0</ele><time>2026-04-18T13:38:10Z</time></trkpt><trkpt lat="39.09815739134499" lon="8.378715785211249"><ele>10.0</ele><time>2026-04-18T13:38:11Z</time></trkpt><trkpt lat="39.09804431659164" lon="8.378832175081435"><ele>10.0</ele><time>2026-04-18T13:38:12Z</time></trkpt><trkpt lat="39.097930309884866" lon="8.378944478982497"><ele>10.0</ele><time>2026-04-18T13:38:13Z</time></trkpt><trkpt lat="39.09780717850389" lon="8.379057342622547"><ele>9.666666666666668</ele><time>2026-04-18T13:38:14Z</time></trkpt><trkpt lat="39.09768333691945" lon="8.37917286035258"><ele>9.333333333333334</ele><time>2026-04-18T13:38:15Z</time></trkpt><trkpt lat="39.09755920153545" lon="8.3792902778082"><ele>9.0</ele><time>2026-04-18T13:38:16Z</time></trkpt><trkpt lat="39.097436503092105" lon="8.379404282285279"><ele>9.0</ele><time>2026-04-18T13:38:17Z</time></trkpt><trkpt lat="39.09731438298799" lon="8.379516216115961"><ele>9.0</ele><time>2026-04-18T13:38:18Z</time></trkpt><trkpt lat="39.09719469968071" lon="8.379628729659347"><ele>9.0</ele><time>2026-04-18T13:38:19Z</time></trkpt><trkpt lat="39.09707468841793" lon="8.379741745023798"><ele>9.0</ele><time>2026-04-18T13:38:20Z</time></trkpt><trkpt lat="39.09695327170628" lon="8.37985619846147"><ele>8.0</ele><time>2026-04-18T13:38:21Z</time></trkpt><trkpt lat="39.09683201414967" lon="8.379968512062119"><ele>7.0</ele><time>2026-04-18T13:38:22Z</time></trkpt><trkpt lat="39.09670831217238" lon="8.380078302944794"><ele>6.0</ele><time>2026-04-18T13:38:23Z</time></trkpt><trkpt lat="39.096586102866446" lon="8.38019267160166"><ele>6.0</ele><time>2026-04-18T13:38:24Z</time></trkpt><trkpt lat="39.096461873417084" lon="8.380309594549617"><ele>6.0</ele><time>2026-04-18T13:38:25Z</time></trkpt><trkpt lat="39.096339103028775" lon="8.380423771881013"><ele>6.0</ele><time>2026-04-18T13:38:26Z</time></trkpt><trkpt lat="39.096222442643125" lon="8.380533858252752"><ele>5.6</ele><time>2026-04-18T13:38:27Z</time></trkpt><trkpt lat="39.09611232177774" lon="8.380636310609841"><ele>5.199999999999999</ele><time>2026-04-18T13:38:28Z</time></trkpt><trkpt lat="39.09602158144179" lon="8.380723635254848"><ele>4.800000000000001</ele><time>2026-04-18T13:38:29Z</time></trkpt><trkpt lat="39.09594337187529" lon="8.380796019792259"><ele>4.4</ele><time>2026-04-18T13:38:30Z</time></trkpt><trkpt lat="39.09587786090888" lon="8.38085802289689"><ele>4.0</ele><time>2026-04-18T13:38:31Z</time></trkpt><trkpt lat="39.09582724884171" lon="8.380907882721395"><ele>3.8000000000000003</ele><time>2026-04-18T13:38:32Z</time></trkpt><trkpt lat="39.095743096624545" lon="8.380989483798054"><ele>3.6000000000000005</ele><time>2026-04-18T13:38:34Z</time></trkpt><trkpt lat="39.09565872698741" lon="8.381069313106044"><ele>3.4</ele><time>2026-04-18T13:38:36Z</time></trkpt><trkpt lat="39.095548291426354" lon="8.381149034408175"><ele>3.2</ele><time>2026-04-18T13:38:38Z</time></trkpt><trkpt lat="39.09548597324274" lon="8.38120783067018"><ele>3.0</ele><time>2026-04-18T13:38:39Z</time></trkpt><trkpt lat="39.09541613649415" lon="8.381273720706636"><ele>3.0</ele><time>2026-04-18T13:38:40Z</time></trkpt><trkpt lat="39.0953458436905" lon="8.381340040898424"><ele>3.0</ele><time>2026-04-18T13:38:41Z</time></trkpt><trkpt lat="39.09527401261788" lon="8.3814086849553"><ele>3.0</ele><time>2026-04-18T13:38:42Z</time></trkpt><trkpt lat="39.09520597021515" lon="8.381474297273328"><ele>3.0</ele><time>2026-04-18T13:38:43Z</time></trkpt><trkpt lat="39.095154197008064" lon="8.381524221494146"><ele>3.0</ele><time>2026-04-18T13:38:45Z</time></trkpt><trkpt lat="39.095097370445984" lon="8.381579017967718"><ele>3.0</ele><time>2026-04-18T13:38:48Z</time></trkpt><trkpt lat="39.09503275965244" lon="8.38164554825427"><ele>3.4</ele><time>2026-04-18T13:38:50Z</time></trkpt><trkpt lat="39.094975415768985" lon="8.38171277635036"><ele>3.8</ele><time>2026-04-18T13:38:51Z</time></trkpt><trkpt lat="39.09490366917343" lon="8.381802764464192"><ele>4.2</ele><time>2026-04-18T13:38:52Z</time></trkpt><trkpt lat="39.09482787699732" lon="8.381904067842795"><ele>4.6</ele><time>2026-04-18T13:38:53Z</time></trkpt><trkpt lat="39.09474492858708" lon="8.382030362281938"><ele>5.0</ele><time>2026-04-18T13:38:54Z</time></trkpt><trkpt lat="39.09466932205754" lon="8.38218065261669"><ele>6.666666666666667</ele><time>2026-04-18T13:38:55Z</time></trkpt><trkpt lat="39.09457502481056" lon="8.382321871017277"><ele>8.333333333333334</ele><time>2026-04-18T13:38:56Z</time></trkpt><trkpt lat="39.094473080655526" lon="8.382472936411252"><ele>10.0</ele><time>2026-04-18T13:38:57Z</time></trkpt><trkpt lat="39.09436703534487" lon="8.38263414778883"><ele>10.0</ele><time>2026-04-18T13:38:58Z</time></trkpt><trkpt lat="39.09426041563051" lon="8.382793278454773"><ele>10.0</ele><time>2026-04-18T13:38:59Z</time></trkpt><trkpt lat="39.09414902297284" lon="8.382961821644283"><ele>10.0</ele><time>2026-04-18T13:39:00Z</time></trkpt><trkpt lat="39.09403038712256" lon="8.383126428223946"><ele>12.333333333333334</ele><time>2026-04-18T13:39:01Z</time></trkpt><trkpt lat="39.093900320136285" lon="8.38329225387944"><ele>14.666666666666668</ele><time>2026-04-18T13:39:02Z</time></trkpt><trkpt lat="39.09376416876161" lon="8.383467846762512"><ele>17.0</ele><time>2026-04-18T13:39:03Z</time></trkpt><trkpt lat="39.093625984945874" lon="8.383648257570773"><ele>17.0</ele><time>2026-04-18T13:39:04Z</time></trkpt><trkpt lat="39.09348119971752" lon="8.383830131131084"><ele>17.0</ele><time>2026-04-18T13:39:05Z</time></trkpt><trkpt lat="39.09333394726562" lon="8.384008658900433"><ele>17.0</ele><time>2026-04-18T13:39:06Z</time></trkpt><trkpt lat="39.093189335498934" lon="8.384183257968756"><ele>18.333333333333336</ele><time>2026-04-18T13:39:07Z</time></trkpt><trkpt lat="39.093045099788924" lon="8.384357174578831"><ele>19.666666666666668</ele><time>2026-04-18T13:39:08Z</time></trkpt><trkpt lat="39.09290387784733" lon="8.384528761799434"><ele>21.0</ele><time>2026-04-18T13:39:09Z</time></trkpt><trkpt lat="39.092761872563536" lon="8.384698174759235"><ele>21.0</ele><time>2026-04-18T13:39:10Z</time></trkpt><trkpt lat="39.09262040368232" lon="8.384869073720907"><ele>21.0</ele><time>2026-04-18T13:39:11Z</time></trkpt><trkpt lat="39.09248116770264" lon="8.38504036946936"><ele>21.0</ele><time>2026-04-18T13:39:12Z</time></trkpt><trkpt lat="39.092338804571874" lon="8.3852133909904"><ele>21.0</ele><time>2026-04-18T13:39:13Z</time></trkpt><trkpt lat="39.092200393485804" lon="8.385380964649691"><ele>21.0</ele><time>2026-04-18T13:39:14Z</time></trkpt><trkpt lat="39.09205862520818" lon="8.385548560715083"><ele>21.0</ele><time>2026-04-18T13:39:15Z</time></trkpt><trkpt lat="39.09191474671229" lon="8.38571577112576"><ele>21.0</ele><time>2026-04-18T13:39:16Z</time></trkpt><trkpt lat="39.091767867783936" lon="8.38589050345099"><ele>21.0</ele><time>2026-04-18T13:39:17Z</time></trkpt><trkpt lat="39.09162046557589" lon="8.386069740455692"><ele>21.0</ele><time>2026-04-18T13:39:18Z</time></trkpt><trkpt lat="39.09147076689738" lon="8.386251633756414"><ele>20.333333333333332</ele><time>2026-04-18T13:39:19Z</time></trkpt><trkpt lat="39.09131802065745" lon="8.386436196262627"><ele>19.666666666666664</ele><time>2026-04-18T13:39:20Z</time></trkpt><trkpt lat="39.09116922579584" lon="8.38661429121256"><ele>19.0</ele><time>2026-04-18T13:39:21Z</time></trkpt><trkpt lat="39.091026705309204" lon="8.386788401253808"><ele>19.0</ele><time>2026-04-18T13:39:22Z</time></trkpt><trkpt lat="39.09088676294954" lon="8.386960550490842"><ele>19.0</ele><time>2026-04-18T13:39:23Z</time></trkpt><trkpt lat="39.090748314192716" lon="8.387129476381949"><ele>19.0</ele><time>2026-04-18T13:39:24Z</time></trkpt><trkpt lat="39.09060943391661" lon="8.387296908522536"><ele>19.333333333333332</ele><time>2026-04-18T13:39:25Z</time></trkpt><trkpt lat="39.0904716789928" lon="8.387464784305953"><ele>19.666666666666668</ele><time>2026-04-18T13:39:26Z</time></trkpt><trkpt lat="39.09033478707299" lon="8.387632439965325"><ele>20.0</ele><time>2026-04-18T13:39:27Z</time></trkpt><trkpt lat="39.09019732034016" lon="8.387800954536177"><ele>20.0</ele><time>2026-04-18T13:39:28Z</time></trkpt><trkpt lat="39.0900617964079" lon="8.387971437103761"><ele>20.0</ele><time>2026-04-18T13:39:29Z</time></trkpt><trkpt lat="39.08992737237859" lon="8.38814060950989"><ele>20.0</ele><time>2026-04-18T13:39:30Z</time></trkpt><trkpt lat="39.089792461738185" lon="8.388311499580468"><ele>20.333333333333336</ele><time>2026-04-18T13:39:31Z</time></trkpt><trkpt lat="39.08965455279205" lon="8.388484343076472"><ele>20.666666666666668</ele><time>2026-04-18T13:39:32Z</time></trkpt><trkpt lat="39.08951409441975" lon="8.3886578096094"><ele>21.0</ele><time>2026-04-18T13:39:33Z</time></trkpt><trkpt lat="39.089375123516525" lon="8.388831086073678"><ele>20.333333333333332</ele><time>2026-04-18T13:39:34Z</time></trkpt><trkpt lat="39.08923750012144" lon="8.389006675533677"><ele>19.666666666666664</ele><time>2026-04-18T13:39:35Z</time></trkpt><trkpt lat="39.089102542273075" lon="8.389184313020232"><ele>19.0</ele><time>2026-04-18T13:39:36Z</time></trkpt><trkpt lat="39.088968529294" lon="8.38936320170201"><ele>19.0</ele><time>2026-04-18T13:39:37Z</time></trkpt><trkpt lat="39.08883683156261" lon="8.389543295657946"><ele>19.0</ele><time>2026-04-18T13:39:38Z</time></trkpt><trkpt lat="39.08871059747344" lon="8.389721350760755"><ele>19.0</ele><time>2026-04-18T13:39:39Z</time></trkpt><trkpt lat="39.088586512828364" lon="8.389898923527037"><ele>19.0</ele><time>2026-04-18T13:39:40Z</time></trkpt><trkpt lat="39.08846412227398" lon="8.390075261999808"><ele>19.0</ele><time>2026-04-18T13:39:41Z</time></trkpt><trkpt lat="39.088343570536715" lon="8.390243769596564"><ele>19.0</ele><time>2026-04-18T13:39:42Z</time></trkpt><trkpt lat="39.08822674109138" lon="8.39041692277312"><ele>18.333333333333332</ele><time>2026-04-18T13:39:43Z</time></trkpt><trkpt lat="39.0881069222629" lon="8.390590389758694"><ele>17.666666666666668</ele><time>2026-04-18T13:39:44Z</time></trkpt><trkpt lat="39.08798611829339" lon="8.390761079815233"><ele>17.0</ele><time>2026-04-18T13:39:45Z</time></trkpt><trkpt lat="39.08786238353898" lon="8.390934133177423"><ele>17.0</ele><time>2026-04-18T13:39:46Z</time></trkpt><trkpt lat="39.0877398615074" lon="8.391108734808943"><ele>17.0</ele><time>2026-04-18T13:39:47Z</time></trkpt><trkpt lat="39.08762274303158" lon="8.391282594598609"><ele>17.0</ele><time>2026-04-18T13:39:48Z</time></trkpt><trkpt lat="39.08749398022993" lon="8.391437729377369"><ele>18.666666666666668</ele><time>2026-04-18T13:39:49Z</time></trkpt><trkpt lat="39.087381085315926" lon="8.391601020829093"><ele>20.333333333333332</ele><time>2026-04-18T13:39:50Z</time></trkpt><trkpt lat="39.087269416373054" lon="8.39176000810932"><ele>22.0</ele><time>2026-04-18T13:39:51Z</time></trkpt><trkpt lat="39.08715913367723" lon="8.391917021799577"><ele>22.0</ele><time>2026-04-18T13:39:52Z</time></trkpt><trkpt lat="39.08706331901068" lon="8.392082712025692"><ele>22.0</ele><time>2026-04-18T13:39:53Z</time></trkpt><trkpt lat="39.086954913246636" lon="8.392236273248002"><ele>22.0</ele><time>2026-04-18T13:39:54Z</time></trkpt><trkpt lat="39.08684865354151" lon="8.392388634924313"><ele>22.333333333333332</ele><time>2026-04-18T13:39:55Z</time></trkpt><trkpt lat="39.08673064144235" lon="8.392526545796514"><ele>22.666666666666668</ele><time>2026-04-18T13:39:56Z</time></trkpt><trkpt lat="39.08661974505234" lon="8.39268375759783"><ele>23.0</ele><time>2026-04-18T13:39:57Z</time></trkpt><trkpt lat="39.08650970201395" lon="8.392839759547938"><ele>23.0</ele><time>2026-04-18T13:39:58Z</time></trkpt><trkpt lat="39.08639764256569" lon="8.392998620811818"><ele>23.0</ele><time>2026-04-18T13:39:59Z</time></trkpt><trkpt lat="39.08628612330473" lon="8.393156289203759"><ele>23.0</ele><time>2026-04-18T13:40:00Z</time></trkpt><trkpt lat="39.08618478774421" lon="8.393329265967045"><ele>23.0</ele><time>2026-04-18T13:40:01Z</time></trkpt><trkpt lat="39.086077437510724" lon="8.393479891057051"><ele>23.0</ele><time>2026-04-18T13:40:02Z</time></trkpt><trkpt lat="39.08597165617118" lon="8.393632414132197"><ele>23.0</ele><time>2026-04-18T13:40:03Z</time></trkpt><trkpt lat="39.08590145525661" lon="8.393792842470054"><ele>23.0</ele><time>2026-04-18T13:40:04Z</time></trkpt><trkpt lat="39.08584668242793" lon="8.3939933035489"><ele>23.0</ele><time>2026-04-18T13:40:05Z</time></trkpt><trkpt lat="39.085813978487366" lon="8.39420245642288"><ele>23.0</ele><time>2026-04-18T13:40:06Z</time></trkpt><trkpt lat="39.08578810617131" lon="8.394407559657662"><ele>23.666666666666668</ele><time>2026-04-18T13:40:07Z</time></trkpt><trkpt lat="39.08575684300768" lon="8.394616193422639"><ele>24.333333333333336</ele><time>2026-04-18T13:40:08Z</time></trkpt><trkpt lat="39.085725403820284" lon="8.394828216613595"><ele>25.0</ele><time>2026-04-18T13:40:09Z</time></trkpt><trkpt lat="39.08569422598099" lon="8.39504799959474"><ele>25.333333333333336</ele><time>2026-04-18T13:40:10Z</time></trkpt><trkpt lat="39.085659812193434" lon="8.39526604246271"><ele>25.666666666666664</ele><time>2026-04-18T13:40:11Z</time></trkpt><trkpt lat="39.08562512717638" lon="8.395488526573727"><ele>26.0</ele><time>2026-04-18T13:40:12Z</time></trkpt><trkpt lat="39.08558970180774" lon="8.395707237289727"><ele>26.0</ele><time>2026-04-18T13:40:13Z</time></trkpt><trkpt lat="39.0855567682447" lon="8.3959266655528"><ele>26.0</ele><time>2026-04-18T13:40:14Z</time></trkpt><trkpt lat="39.08552535010908" lon="8.396144932113296"><ele>26.0</ele><time>2026-04-18T13:40:15Z</time></trkpt><trkpt lat="39.08549456362035" lon="8.396361609234958"><ele>26.333333333333332</ele><time>2026-04-18T13:40:16Z</time></trkpt><trkpt lat="39.085463104029245" lon="8.396576906372879"><ele>26.666666666666664</ele><time>2026-04-18T13:40:17Z</time></trkpt><trkpt lat="39.08542765288233" lon="8.396793271174248"><ele>27.0</ele><time>2026-04-18T13:40:18Z</time></trkpt><trkpt lat="39.08539296005641" lon="8.39700990502608"><ele>27.333333333333336</ele><time>2026-04-18T13:40:19Z</time></trkpt><trkpt lat="39.08535818754972" lon="8.397226623415841"><ele>27.666666666666668</ele><time>2026-04-18T13:40:20Z</time></trkpt><trkpt lat="39.08532588145595" lon="8.397442193119156"><ele>28.0</ele><time>2026-04-18T13:40:21Z</time></trkpt><trkpt lat="39.08529643401783" lon="8.397658368982125"><ele>28.0</ele><time>2026-04-18T13:40:22Z</time></trkpt><trkpt lat="39.08526837267265" lon="8.397875177658149"><ele>28.0</ele><time>2026-04-18T13:40:23Z</time></trkpt><trkpt lat="39.085237796353944" lon="8.39808859209418"><ele>28.0</ele><time>2026-04-18T13:40:24Z</time></trkpt><trkpt lat="39.085202638507006" lon="8.398302504522693"><ele>28.333333333333336</ele><time>2026-04-18T13:40:25Z</time></trkpt><trkpt lat="39.08516807714743" lon="8.398514592598055"><ele>28.666666666666664</ele><time>2026-04-18T13:40:26Z</time></trkpt><trkpt lat="39.085136435180736" lon="8.398727350407064"><ele>29.0</ele><time>2026-04-18T13:40:27Z</time></trkpt><trkpt lat="39.085107225275756" lon="8.398939659060481"><ele>29.666666666666664</ele><time>2026-04-18T13:40:28Z</time></trkpt><trkpt lat="39.08507847335357" lon="8.399152746607328"><ele>30.333333333333336</ele><time>2026-04-18T13:40:29Z</time></trkpt><trkpt lat="39.08504962787483" lon="8.399369352326207"><ele>31.0</ele><time>2026-04-18T13:40:30Z</time></trkpt><trkpt lat="39.08502072627221" lon="8.39958586933333"><ele>31.333333333333336</ele><time>2026-04-18T13:40:31Z</time></trkpt><trkpt lat="39.08499356142825" lon="8.399802108555772"><ele>31.666666666666664</ele><time>2026-04-18T13:40:32Z</time></trkpt><trkpt lat="39.08496558526783" lon="8.400017664100226"><ele>32.0</ele><time>2026-04-18T13:40:33Z</time></trkpt><trkpt lat="39.084940176319705" lon="8.40023114140631"><ele>32.666666666666664</ele><time>2026-04-18T13:40:34Z</time></trkpt><trkpt lat="39.08491439906661" lon="8.400438726563552"><ele>33.333333333333336</ele><time>2026-04-18T13:40:35Z</time></trkpt><trkpt lat="39.084887893099555" lon="8.400648979283947"><ele>34.0</ele><time>2026-04-18T13:40:36Z</time></trkpt><trkpt lat="39.08486703563519" lon="8.40085685931966"><ele>34.66666666666667</ele><time>2026-04-18T13:40:37Z</time></trkpt><trkpt lat="39.08485948146631" lon="8.401067540880018"><ele>35.333333333333336</ele><time>2026-04-18T13:40:38Z</time></trkpt><trkpt lat="39.08485342014754" lon="8.401284181683177"><ele>36.0</ele><time>2026-04-18T13:40:39Z</time></trkpt><trkpt lat="39.08484647470204" lon="8.401503340552782"><ele>36.333333333333336</ele><time>2026-04-18T13:40:40Z</time></trkpt><trkpt lat="39.08483875867878" lon="8.401724780758718"><ele>36.66666666666667</ele><time>2026-04-18T13:40:41Z</time></trkpt><trkpt lat="39.0848339964648" lon="8.401946478054564"><ele>37.0</ele><time>2026-04-18T13:40:42Z</time></trkpt><trkpt lat="39.084829153892294" lon="8.402168764508184"><ele>37.66666666666667</ele><time>2026-04-18T13:40:43Z</time></trkpt><trkpt lat="39.084823194396044" lon="8.402389826147932"><ele>38.333333333333336</ele><time>2026-04-18T13:40:44Z</time></trkpt><trkpt lat="39.08481444325947" lon="8.40260771620654"><ele>39.0</ele><time>2026-04-18T13:40:45Z</time></trkpt><trkpt lat="39.08480370092175" lon="8.402823956960091"><ele>39.333333333333336</ele><time>2026-04-18T13:40:46Z</time></trkpt><trkpt lat="39.084793158940485" lon="8.403041146550688"><ele>39.66666666666667</ele><time>2026-04-18T13:40:47Z</time></trkpt><trkpt lat="39.08478840026936" lon="8.40326150605593"><ele>40.0</ele><time>2026-04-18T13:40:48Z</time></trkpt><trkpt lat="39.08478576527649" lon="8.403483628612996"><ele>40.0</ele><time>2026-04-18T13:40:49Z</time></trkpt><trkpt lat="39.084782847840046" lon="8.403706559379449"><ele>40.0</ele><time>2026-04-18T13:40:50Z</time></trkpt><trkpt lat="39.08477802777815" lon="8.403927308813808"><ele>40.0</ele><time>2026-04-18T13:40:51Z</time></trkpt><trkpt lat="39.084772080254005" lon="8.40414812169491"><ele>40.66666666666667</ele><time>2026-04-18T13:40:52Z</time></trkpt><trkpt lat="39.08476270479898" lon="8.404367829001284"><ele>41.333333333333336</ele><time>2026-04-18T13:40:53Z</time></trkpt><trkpt lat="39.084750785005916" lon="8.404589226533043"><ele>42.0</ele><time>2026-04-18T13:40:54Z</time></trkpt><trkpt lat="39.08473833416497" lon="8.404810709998573"><ele>42.666666666666664</ele><time>2026-04-18T13:40:55Z</time></trkpt><trkpt lat="39.0847277698489" lon="8.405034366541152"><ele>43.33333333333333</ele><time>2026-04-18T13:40:56Z</time></trkpt><trkpt lat="39.084718000237714" lon="8.405260475749788"><ele>44.0</ele><time>2026-04-18T13:40:57Z</time></trkpt><trkpt lat="39.0847095762463" lon="8.405487762084718"><ele>44.0</ele><time>2026-04-18T13:40:58Z</time></trkpt><trkpt lat="39.08469914273735" lon="8.405716582489037"><ele>44.0</ele><time>2026-04-18T13:40:59Z</time></trkpt><trkpt lat="39.08468863251211" lon="8.405944697250206"><ele>44.0</ele><time>2026-04-18T13:41:00Z</time></trkpt><trkpt lat="39.084678644521865" lon="8.406175930212514"><ele>44.0</ele><time>2026-04-18T13:41:01Z</time></trkpt><trkpt lat="39.0846672750671" lon="8.406408695285718"><ele>44.0</ele><time>2026-04-18T13:41:02Z</time></trkpt><trkpt lat="39.08465556115461" lon="8.406635146328492"><ele>44.0</ele><time>2026-04-18T13:41:03Z</time></trkpt><trkpt lat="39.08464229793142" lon="8.406848277738417"><ele>44.0</ele><time>2026-04-18T13:41:04Z</time></trkpt><trkpt lat="39.0846195179588" lon="8.407056435647714"><ele>44.0</ele><time>2026-04-18T13:41:05Z</time></trkpt><trkpt lat="39.08458063962813" lon="8.407257807018103"><ele>44.0</ele><time>2026-04-18T13:41:06Z</time></trkpt><trkpt lat="39.08451272151367" lon="8.407453787100685"><ele>44.0</ele><time>2026-04-18T13:41:07Z</time></trkpt><trkpt lat="39.08441977173188" lon="8.407645279165385"><ele>44.0</ele><time>2026-04-18T13:41:08Z</time></trkpt><trkpt lat="39.08431675084159" lon="8.407822928657517"><ele>44.0</ele><time>2026-04-18T13:41:09Z</time></trkpt><trkpt lat="39.084217457843614" lon="8.40799635672307"><ele>44.0</ele><time>2026-04-18T13:41:10Z</time></trkpt><trkpt lat="39.08412906782164" lon="8.4081606696613"><ele>44.0</ele><time>2026-04-18T13:41:11Z</time></trkpt><trkpt lat="39.08404747021754" lon="8.408323967788768"><ele>44.0</ele><time>2026-04-18T13:41:12Z</time></trkpt><trkpt lat="39.08399078800285" lon="8.40849149981641"><ele>44.0</ele><time>2026-04-18T13:41:13Z</time></trkpt><trkpt lat="39.08397402843767" lon="8.408660163515933"><ele>45.0</ele><time>2026-04-18T13:41:14Z</time></trkpt><trkpt lat="39.08399609732687" lon="8.408831333686871"><ele>46.0</ele><time>2026-04-18T13:41:15Z</time></trkpt><trkpt lat="39.08402710583156" lon="8.409018769823156"><ele>47.0</ele><time>2026-04-18T13:41:16Z</time></trkpt><trkpt lat="39.084016859641594" lon="8.409216058107578"><ele>48.0</ele><time>2026-04-18T13:41:17Z</time></trkpt><trkpt lat="39.083963815667765" lon="8.409413143606416"><ele>48.0</ele><time>2026-04-18T13:41:18Z</time></trkpt><trkpt lat="39.08387499773001" lon="8.409589332657946"><ele>48.0</ele><time>2026-04-18T13:41:19Z</time></trkpt><trkpt lat="39.08375932361491" lon="8.409749956798885"><ele>48.0</ele><time>2026-04-18T13:41:20Z</time></trkpt><trkpt lat="39.08363513020648" lon="8.409914345144168"><ele>49.0</ele><time>2026-04-18T13:41:21Z</time></trkpt><trkpt lat="39.08351509497601" lon="8.410107667394843"><ele>50.0</ele><time>2026-04-18T13:41:22Z</time></trkpt><trkpt lat="39.08340107342393" lon="8.41031134455167"><ele>51.0</ele><time>2026-04-18T13:41:23Z</time></trkpt><trkpt lat="39.08329298850965" lon="8.410512611465872"><ele>51.66666666666667</ele><time>2026-04-18T13:41:24Z</time></trkpt><trkpt lat="39.0831654669729" lon="8.410704092290167"><ele>52.333333333333336</ele><time>2026-04-18T13:41:25Z</time></trkpt><trkpt lat="39.08302736692327" lon="8.410890309955152"><ele>53.0</ele><time>2026-04-18T13:41:26Z</time></trkpt><trkpt lat="39.08288142389871" lon="8.411062626974415"><ele>53.0</ele><time>2026-04-18T13:41:27Z</time></trkpt><trkpt lat="39.082736954646556" lon="8.41123921171136"><ele>53.0</ele><time>2026-04-18T13:41:28Z</time></trkpt><trkpt lat="39.082604628378604" lon="8.411441125774829"><ele>53.0</ele><time>2026-04-18T13:41:29Z</time></trkpt><trkpt lat="39.082481970811436" lon="8.411656525165789"><ele>53.333333333333336</ele><time>2026-04-18T13:41:30Z</time></trkpt><trkpt lat="39.08236398933878" lon="8.411874883033413"><ele>53.66666666666667</ele><time>2026-04-18T13:41:31Z</time></trkpt><trkpt lat="39.08224448724723" lon="8.412092136654834"><ele>54.0</ele><time>2026-04-18T13:41:32Z</time></trkpt><trkpt lat="39.08212931095659" lon="8.41230702633956"><ele>55.66666666666667</ele><time>2026-04-18T13:41:33Z</time></trkpt><trkpt lat="39.0820290974725" lon="8.412527857015649"><ele>57.333333333333336</ele><time>2026-04-18T13:41:34Z</time></trkpt><trkpt lat="39.08193146805034" lon="8.412742882504507"><ele>59.0</ele><time>2026-04-18T13:41:35Z</time></trkpt><trkpt lat="39.08188143234966" lon="8.412983152493057"><ele>61.66666666666667</ele><time>2026-04-18T13:41:36Z</time></trkpt><trkpt lat="39.081876598603536" lon="8.41323005465459"><ele>64.33333333333333</ele><time>2026-04-18T13:41:37Z</time></trkpt><trkpt lat="39.081836157619264" lon="8.413468581677414"><ele>67.0</ele><time>2026-04-18T13:41:38Z</time></trkpt><trkpt lat="39.081764233284545" lon="8.413707326014967"><ele>65.33333333333333</ele><time>2026-04-18T13:41:39Z</time></trkpt><trkpt lat="39.08166857271531" lon="8.413944984340796"><ele>63.66666666666667</ele><time>2026-04-18T13:41:40Z</time></trkpt><trkpt lat="39.08158084590344" lon="8.414192452116335"><ele>62.0</ele><time>2026-04-18T13:41:41Z</time></trkpt><trkpt lat="39.08149072840885" lon="8.414451639515285"><ele>66.0</ele><time>2026-04-18T13:41:42Z</time></trkpt><trkpt lat="39.08139263753038" lon="8.414716292026242"><ele>70.0</ele><time>2026-04-18T13:41:43Z</time></trkpt><trkpt lat="39.081288832612394" lon="8.414979053658483"><ele>70.0</ele><time>2026-04-18T13:41:44Z</time></trkpt><trkpt lat="39.08119656215901" lon="8.415214459074708"><ele>70.0</ele><time>2026-04-18T13:41:45Z</time></trkpt><trkpt lat="39.081099724332105" lon="8.415456596450445"><ele>70.0</ele><time>2026-04-18T13:41:46Z</time></trkpt><trkpt lat="39.08100652883284" lon="8.415685029098213"><ele>71.66666666666666</ele><time>2026-04-18T13:41:47Z</time></trkpt><trkpt lat="39.0809161148063" lon="8.415900743808212"><ele>73.33333333333333</ele><time>2026-04-18T13:41:48Z</time></trkpt><trkpt lat="39.08082717256129" lon="8.416112413381246"><ele>75.0</ele><time>2026-04-18T13:41:49Z</time></trkpt><trkpt lat="39.08074556302053" lon="8.416319947606661"><ele>77.0</ele><time>2026-04-18T13:41:50Z</time></trkpt><trkpt lat="39.08066315714883" lon="8.416512698277737"><ele>79.0</ele><time>2026-04-18T13:41:51Z</time></trkpt><trkpt lat="39.080642415112465" lon="8.416727061487633"><ele>81.0</ele><time>2026-04-18T13:41:52Z</time></trkpt><trkpt lat="39.08067714406037" lon="8.416921313224151"><ele>81.0</ele><time>2026-04-18T13:41:53Z</time></trkpt><trkpt lat="39.08067490194524" lon="8.41710889315614"><ele>81.0</ele><time>2026-04-18T13:41:54Z</time></trkpt><trkpt lat="39.08063668386399" lon="8.41728853249889"><ele>81.0</ele><time>2026-04-18T13:41:55Z</time></trkpt><trkpt lat="39.08055501938652" lon="8.417457623149645"><ele>81.0</ele><time>2026-04-18T13:41:56Z</time></trkpt><trkpt lat="39.08044620263158" lon="8.417610756982572"><ele>81.0</ele><time>2026-04-18T13:41:57Z</time></trkpt><trkpt lat="39.080333388349814" lon="8.417769365404551"><ele>81.0</ele><time>2026-04-18T13:41:58Z</time></trkpt><trkpt lat="39.0802201103945" lon="8.417946771567202"><ele>81.0</ele><time>2026-04-18T13:41:59Z</time></trkpt><trkpt lat="39.08011084393174" lon="8.418124953202215"><ele>82.0</ele><time>2026-04-18T13:42:00Z</time></trkpt><trkpt lat="39.07999912380277" lon="8.418297714231148"><ele>83.0</ele><time>2026-04-18T13:42:01Z</time></trkpt><trkpt lat="39.07988665627182" lon="8.418472163288873"><ele>84.0</ele><time>2026-04-18T13:42:02Z</time></trkpt><trkpt lat="39.07977332621131" lon="8.418645259261815"><ele>82.66666666666667</ele><time>2026-04-18T13:42:03Z</time></trkpt><trkpt lat="39.07966573089617" lon="8.41882525881846"><ele>81.33333333333334</ele><time>2026-04-18T13:42:04Z</time></trkpt><trkpt lat="39.079577546267416" lon="8.419019536384546"><ele>80.0</ele><time>2026-04-18T13:42:05Z</time></trkpt><trkpt lat="39.0795194446802" lon="8.419225139118394"><ele>80.0</ele><time>2026-04-18T13:42:06Z</time></trkpt><trkpt lat="39.079498312166706" lon="8.419442238381755"><ele>80.0</ele><time>2026-04-18T13:42:07Z</time></trkpt><trkpt lat="39.07950754104456" lon="8.419669923744298"><ele>80.0</ele><time>2026-04-18T13:42:08Z</time></trkpt><trkpt lat="39.07952350024127" lon="8.419890207590193"><ele>80.66666666666667</ele><time>2026-04-18T13:42:09Z</time></trkpt><trkpt lat="39.07953509315467" lon="8.42010638831651"><ele>81.33333333333333</ele><time>2026-04-18T13:42:10Z</time></trkpt><trkpt lat="39.07954390023174" lon="8.420334900546548"><ele>82.0</ele><time>2026-04-18T13:42:11Z</time></trkpt><trkpt lat="39.079550364729826" lon="8.420541797877588"><ele>82.25</ele><time>2026-04-18T13:42:12Z</time></trkpt><trkpt lat="39.07955492981913" lon="8.420736029397125"><ele>82.5</ele><time>2026-04-18T13:42:13Z</time></trkpt><trkpt lat="39.07955824485763" lon="8.420918312017955"><ele>82.75</ele><time>2026-04-18T13:42:14Z</time></trkpt><trkpt lat="39.07956122892465" lon="8.421089375875999"><ele>83.0</ele><time>2026-04-18T13:42:15Z</time></trkpt><trkpt lat="39.07956584874515" lon="8.421265019535682"><ele>83.25</ele><time>2026-04-18T13:42:16Z</time></trkpt><trkpt lat="39.07956761367187" lon="8.421441056063586"><ele>83.5</ele><time>2026-04-18T13:42:17Z</time></trkpt><trkpt lat="39.079564164327806" lon="8.421623370188804"><ele>83.75</ele><time>2026-04-18T13:42:18Z</time></trkpt><trkpt lat="39.079560351306334" lon="8.42181224112879"><ele>84.0</ele><time>2026-04-18T13:42:19Z</time></trkpt><trkpt lat="39.07954887018408" lon="8.422006325293143"><ele>83.0</ele><time>2026-04-18T13:42:20Z</time></trkpt><trkpt lat="39.07951559949775" lon="8.42220480232482"><ele>82.0</ele><time>2026-04-18T13:42:21Z</time></trkpt><trkpt lat="39.079466994284374" lon="8.422399720870109"><ele>81.0</ele><time>2026-04-18T13:42:22Z</time></trkpt><trkpt lat="39.079414634639555" lon="8.422601526392716"><ele>81.0</ele><time>2026-04-18T13:42:23Z</time></trkpt><trkpt lat="39.07936443987877" lon="8.422802794641042"><ele>81.0</ele><time>2026-04-18T13:42:24Z</time></trkpt><trkpt lat="39.07931390210671" lon="8.423032009048736"><ele>81.0</ele><time>2026-04-18T13:42:25Z</time></trkpt><trkpt lat="39.07925827084558" lon="8.423287328310433"><ele>80.0</ele><time>2026-04-18T13:42:26Z</time></trkpt><trkpt lat="39.079187805365535" lon="8.423540907482018"><ele>79.0</ele><time>2026-04-18T13:42:27Z</time></trkpt><trkpt lat="39.079115579787086" lon="8.4237783095268"><ele>78.0</ele><time>2026-04-18T13:42:28Z</time></trkpt><trkpt lat="39.079053970407635" lon="8.424011754637634"><ele>78.0</ele><time>2026-04-18T13:42:29Z</time></trkpt><trkpt lat="39.07900005425799" lon="8.424242606433243"><ele>78.0</ele><time>2026-04-18T13:42:30Z</time></trkpt><trkpt lat="39.078954329128045" lon="8.424474153951866"><ele>78.0</ele><time>2026-04-18T13:42:31Z</time></trkpt><trkpt lat="39.07892290996818" lon="8.424707814527098"><ele>77.33333333333333</ele><time>2026-04-18T13:42:32Z</time></trkpt><trkpt lat="39.07890953265634" lon="8.424938817055082"><ele>76.66666666666666</ele><time>2026-04-18T13:42:33Z</time></trkpt><trkpt lat="39.07889901634567" lon="8.425174213031797"><ele>76.0</ele><time>2026-04-18T13:42:34Z</time></trkpt><trkpt lat="39.07888634194375" lon="8.425408712956305"><ele>74.66666666666666</ele><time>2026-04-18T13:42:35Z</time></trkpt><trkpt lat="39.07887659235057" lon="8.425641184520593"><ele>73.33333333333333</ele><time>2026-04-18T13:42:36Z</time></trkpt><trkpt lat="39.07886831084909" lon="8.425871084108667"><ele>72.0</ele><time>2026-04-18T13:42:37Z</time></trkpt><trkpt lat="39.07885885400925" lon="8.426095544581415"><ele>70.66666666666667</ele><time>2026-04-18T13:42:38Z</time></trkpt><trkpt lat="39.07884559341776" lon="8.426314494129407"><ele>69.33333333333334</ele><time>2026-04-18T13:42:39Z</time></trkpt><trkpt lat="39.07883190307328" lon="8.426526596741912"><ele>68.0</ele><time>2026-04-18T13:42:40Z</time></trkpt><trkpt lat="39.07882158818997" lon="8.426733661841794"><ele>68.0</ele><time>2026-04-18T13:42:41Z</time></trkpt><trkpt lat="39.07881261676435" lon="8.426935633037047"><ele>68.0</ele><time>2026-04-18T13:42:42Z</time></trkpt><trkpt lat="39.07880436185937" lon="8.427135774552559"><ele>68.0</ele><time>2026-04-18T13:42:43Z</time></trkpt><trkpt lat="39.078796565627" lon="8.427329491175328"><ele>67.5</ele><time>2026-04-18T13:42:44Z</time></trkpt><trkpt lat="39.078780668254026" lon="8.42751795793611"><ele>67.0</ele><time>2026-04-18T13:42:45Z</time></trkpt><trkpt lat="39.07873505279431" lon="8.427692122569551"><ele>66.5</ele><time>2026-04-18T13:42:46Z</time></trkpt><trkpt lat="39.07865893719827" lon="8.427858765323679"><ele>66.0</ele><time>2026-04-18T13:42:47Z</time></trkpt><trkpt lat="39.078564633586865" lon="8.428026090929006"><ele>65.0</ele><time>2026-04-18T13:42:48Z</time></trkpt><trkpt lat="39.078472161769405" lon="8.42820797113531"><ele>64.0</ele><time>2026-04-18T13:42:49Z</time></trkpt><trkpt lat="39.07837571490043" lon="8.428399446943947"><ele>63.0</ele><time>2026-04-18T13:42:50Z</time></trkpt><trkpt lat="39.07827818622969" lon="8.428590389697094"><ele>63.0</ele><time>2026-04-18T13:42:51Z</time></trkpt><trkpt lat="39.07817869256982" lon="8.428778632584823"><ele>63.0</ele><time>2026-04-18T13:42:52Z</time></trkpt><trkpt lat="39.07807660768029" lon="8.428966946880124"><ele>63.0</ele><time>2026-04-18T13:42:53Z</time></trkpt><trkpt lat="39.07797938292015" lon="8.42916082944408"><ele>62.0</ele><time>2026-04-18T13:42:54Z</time></trkpt><trkpt lat="39.07789234484211" lon="8.429357841783592"><ele>61.0</ele><time>2026-04-18T13:42:55Z</time></trkpt><trkpt lat="39.077813565088256" lon="8.429556502036837"><ele>60.0</ele><time>2026-04-18T13:42:56Z</time></trkpt><trkpt lat="39.077738568299374" lon="8.429751822779377"><ele>58.66666666666667</ele><time>2026-04-18T13:42:57Z</time></trkpt><trkpt lat="39.07766276275886" lon="8.429944161292394"><ele>57.333333333333336</ele><time>2026-04-18T13:42:58Z</time></trkpt><trkpt lat="39.07758895218217" lon="8.43012998077748"><ele>56.0</ele><time>2026-04-18T13:42:59Z</time></trkpt><trkpt lat="39.07751520030529" lon="8.430308257435117"><ele>56.0</ele><time>2026-04-18T13:43:00Z</time></trkpt><trkpt lat="39.077443797687245" lon="8.430481797828866"><ele>56.0</ele><time>2026-04-18T13:43:01Z</time></trkpt><trkpt lat="39.07737489312224" lon="8.430649947646797"><ele>56.0</ele><time>2026-04-18T13:43:02Z</time></trkpt><trkpt lat="39.0772992246919" lon="8.430805467194972"><ele>56.0</ele><time>2026-04-18T13:43:03Z</time></trkpt><trkpt lat="39.077204250077614" lon="8.430942382071983"><ele>55.333333333333336</ele><time>2026-04-18T13:43:04Z</time></trkpt><trkpt lat="39.07709650680771" lon="8.431071086182037"><ele>54.66666666666667</ele><time>2026-04-18T13:43:05Z</time></trkpt><trkpt lat="39.07698823880747" lon="8.431205980908281"><ele>54.0</ele><time>2026-04-18T13:43:06Z</time></trkpt><trkpt lat="39.07687384618218" lon="8.431347457458246"><ele>54.0</ele><time>2026-04-18T13:43:07Z</time></trkpt><trkpt lat="39.07675828629439" lon="8.431497386934494"><ele>54.0</ele><time>2026-04-18T13:43:08Z</time></trkpt><trkpt lat="39.076639464127716" lon="8.431657169735534"><ele>54.0</ele><time>2026-04-18T13:43:09Z</time></trkpt><trkpt lat="39.076519080895345" lon="8.431823525336892"><ele>54.33333333333333</ele><time>2026-04-18T13:43:10Z</time></trkpt><trkpt lat="39.07639064060179" lon="8.431992656777092"><ele>54.666666666666664</ele><time>2026-04-18T13:43:11Z</time></trkpt><trkpt lat="39.07625969582045" lon="8.43215187883474"><ele>55.0</ele><time>2026-04-18T13:43:12Z</time></trkpt><trkpt lat="39.07613422463197" lon="8.432309488097157"><ele>53.0</ele><time>2026-04-18T13:43:13Z</time></trkpt><trkpt lat="39.07601059074612" lon="8.43246824205434"><ele>51.0</ele><time>2026-04-18T13:43:14Z</time></trkpt><trkpt lat="39.07588898431243" lon="8.432623793930038"><ele>49.0</ele><time>2026-04-18T13:43:15Z</time></trkpt><trkpt lat="39.0757743230973" lon="8.432773887395815"><ele>49.0</ele><time>2026-04-18T13:43:16Z</time></trkpt><trkpt lat="39.07565951708111" lon="8.432917401248945"><ele>49.0</ele><time>2026-04-18T13:43:17Z</time></trkpt><trkpt lat="39.07553441833546" lon="8.43303875587326"><ele>49.0</ele><time>2026-04-18T13:43:18Z</time></trkpt><trkpt lat="39.075398114394595" lon="8.433128686746228"><ele>47.33333333333333</ele><time>2026-04-18T13:43:19Z</time></trkpt><trkpt lat="39.07525220509879" lon="8.433199808592999"><ele>45.666666666666664</ele><time>2026-04-18T13:43:20Z</time></trkpt><trkpt lat="39.07510148906684" lon="8.433272836346605"><ele>44.0</ele><time>2026-04-18T13:43:21Z</time></trkpt><trkpt lat="39.074945967554505" lon="8.433348597478789"><ele>43.666666666666664</ele><time>2026-04-18T13:43:22Z</time></trkpt><trkpt lat="39.07478594121435" lon="8.433425955377045"><ele>43.333333333333336</ele><time>2026-04-18T13:43:23Z</time></trkpt><trkpt lat="39.07462458534683" lon="8.433506531095103"><ele>43.0</ele><time>2026-04-18T13:43:24Z</time></trkpt><trkpt lat="39.07446808548329" lon="8.433592646103758"><ele>43.0</ele><time>2026-04-18T13:43:25Z</time></trkpt><trkpt lat="39.07432361897362" lon="8.433700853773487"><ele>43.0</ele><time>2026-04-18T13:43:26Z</time></trkpt><trkpt lat="39.0741900364118" lon="8.433831465974857"><ele>43.0</ele><time>2026-04-18T13:43:27Z</time></trkpt><trkpt lat="39.0740546761597" lon="8.433969673920792"><ele>42.333333333333336</ele><time>2026-04-18T13:43:28Z</time></trkpt><trkpt lat="39.07392130943583" lon="8.43410809692943"><ele>41.666666666666664</ele><time>2026-04-18T13:43:29Z</time></trkpt><trkpt lat="39.0738003444025" lon="8.4342523569608"><ele>41.0</ele><time>2026-04-18T13:43:30Z</time></trkpt><trkpt lat="39.0736885289643" lon="8.434403828732759"><ele>41.0</ele><time>2026-04-18T13:43:31Z</time></trkpt><trkpt lat="39.073578491798415" lon="8.434553346632066"><ele>41.0</ele><time>2026-04-18T13:43:32Z</time></trkpt><trkpt lat="39.07347069220638" lon="8.434688736726988"><ele>41.0</ele><time>2026-04-18T13:43:33Z</time></trkpt><trkpt lat="39.073360893625036" lon="8.434812270454175"><ele>39.5</ele><time>2026-04-18T13:43:34Z</time></trkpt><trkpt lat="39.07325519265883" lon="8.434929460216523"><ele>38.0</ele><time>2026-04-18T13:43:35Z</time></trkpt><trkpt lat="39.07316470469401" lon="8.435040289002831"><ele>36.5</ele><time>2026-04-18T13:43:36Z</time></trkpt><trkpt lat="39.07307714426424" lon="8.435128604419722"><ele>35.0</ele><time>2026-04-18T13:43:37Z</time></trkpt><trkpt lat="39.07303227623946" lon="8.435253239814976"><ele>35.0</ele><time>2026-04-18T13:43:38Z</time></trkpt><trkpt lat="39.07300134638657" lon="8.435374271236476"><ele>35.0</ele><time>2026-04-18T13:43:39Z</time></trkpt><trkpt lat="39.07299526405968" lon="8.435516491065634"><ele>35.0</ele><time>2026-04-18T13:43:40Z</time></trkpt><trkpt lat="39.07297672045319" lon="8.435701583943299"><ele>35.0</ele><time>2026-04-18T13:43:41Z</time></trkpt><trkpt lat="39.072968744370755" lon="8.435932484906017"><ele>33.33333333333333</ele><time>2026-04-18T13:43:42Z</time></trkpt><trkpt lat="39.072960602784896" lon="8.436171071827504"><ele>31.666666666666664</ele><time>2026-04-18T13:43:43Z</time></trkpt><trkpt lat="39.07295215480725" lon="8.436426277870513"><ele>30.0</ele><time>2026-04-18T13:43:44Z</time></trkpt><trkpt lat="39.07295928919819" lon="8.436682032660839"><ele>28.333333333333336</ele><time>2026-04-18T13:43:45Z</time></trkpt><trkpt lat="39.07294403243315" lon="8.436950275991036"><ele>26.666666666666668</ele><time>2026-04-18T13:43:46Z</time></trkpt><trkpt lat="39.072932940851" lon="8.437228786099084"><ele>25.0</ele><time>2026-04-18T13:43:47Z</time></trkpt><trkpt lat="39.07292539860636" lon="8.437511733621598"><ele>24.666666666666668</ele><time>2026-04-18T13:43:48Z</time></trkpt><trkpt lat="39.072917549860875" lon="8.437799738232902"><ele>24.333333333333336</ele><time>2026-04-18T13:43:49Z</time></trkpt><trkpt lat="39.07291077072821" lon="8.438086341335053"><ele>24.0</ele><time>2026-04-18T13:43:50Z</time></trkpt><trkpt lat="39.07290104171372" lon="8.438378242169298"><ele>24.0</ele><time>2026-04-18T13:43:51Z</time></trkpt><trkpt lat="39.07288944488022" lon="8.43867027142053"><ele>24.0</ele><time>2026-04-18T13:43:52Z</time></trkpt><trkpt lat="39.072877394814" lon="8.438957192910953"><ele>24.0</ele><time>2026-04-18T13:43:53Z</time></trkpt><trkpt lat="39.07286501131227" lon="8.439233607085239"><ele>24.0</ele><time>2026-04-18T13:43:54Z</time></trkpt><trkpt lat="39.0728554124843" lon="8.43950693938735"><ele>24.0</ele><time>2026-04-18T13:43:55Z</time></trkpt><trkpt lat="39.07284784512232" lon="8.439776096719093"><ele>24.0</ele><time>2026-04-18T13:43:56Z</time></trkpt><trkpt lat="39.07284065562657" lon="8.440042804059177"><ele>24.0</ele><time>2026-04-18T13:43:57Z</time></trkpt><trkpt lat="39.07283267181225" lon="8.440302714887181"><ele>24.0</ele><time>2026-04-18T13:43:58Z</time></trkpt><trkpt lat="39.07282582959123" lon="8.4405411194018"><ele>24.666666666666664</ele><time>2026-04-18T13:43:59Z</time></trkpt><trkpt lat="39.07281578736623" lon="8.44077480177562"><ele>25.333333333333332</ele><time>2026-04-18T13:44:00Z</time></trkpt><trkpt lat="39.07280445047205" lon="8.44095592892765"><ele>26.0</ele><time>2026-04-18T13:44:01Z</time></trkpt><trkpt lat="39.0727716163614" lon="8.441169935593463"><ele>26.0</ele><time>2026-04-18T13:44:02Z</time></trkpt><trkpt lat="39.07271613942739" lon="8.441384101700498"><ele>26.0</ele><time>2026-04-18T13:44:03Z</time></trkpt><trkpt lat="39.07265103840255" lon="8.441596740063124"><ele>26.0</ele><time>2026-04-18T13:44:04Z</time></trkpt><trkpt lat="39.07256188211121" lon="8.441799159136401"><ele>26.0</ele><time>2026-04-18T13:44:05Z</time></trkpt><trkpt lat="39.072443963155415" lon="8.441982365340445"><ele>26.0</ele><time>2026-04-18T13:44:06Z</time></trkpt><trkpt lat="39.072322951419544" lon="8.44215688878378"><ele>26.0</ele><time>2026-04-18T13:44:07Z</time></trkpt><trkpt lat="39.0722034939889" lon="8.442321544086441"><ele>25.666666666666664</ele><time>2026-04-18T13:44:08Z</time></trkpt><trkpt lat="39.07209043558769" lon="8.44247980501844"><ele>25.333333333333336</ele><time>2026-04-18T13:44:09Z</time></trkpt><trkpt lat="39.07198860812545" lon="8.442633214688748"><ele>25.0</ele><time>2026-04-18T13:44:10Z</time></trkpt><trkpt lat="39.07191409657761" lon="8.44279139352172"><ele>24.666666666666668</ele><time>2026-04-18T13:44:11Z</time></trkpt><trkpt lat="39.07187906668669" lon="8.442981363074484"><ele>24.333333333333336</ele><time>2026-04-18T13:44:12Z</time></trkpt><trkpt lat="39.071869164354055" lon="8.443197354319278"><ele>24.0</ele><time>2026-04-18T13:44:13Z</time></trkpt><trkpt lat="39.07187376485576" lon="8.44340587641367"><ele>24.0</ele><time>2026-04-18T13:44:14Z</time></trkpt><trkpt lat="39.07187288460172" lon="8.443610470902573"><ele>24.0</ele><time>2026-04-18T13:44:15Z</time></trkpt><trkpt lat="39.07186900266877" lon="8.443803810348129"><ele>24.0</ele><time>2026-04-18T13:44:16Z</time></trkpt><trkpt lat="39.07186357871579" lon="8.443992005846544"><ele>24.0</ele><time>2026-04-18T13:44:17Z</time></trkpt><trkpt lat="39.07186075461966" lon="8.444177043742975"><ele>24.0</ele><time>2026-04-18T13:44:18Z</time></trkpt><trkpt lat="39.07185767277102" lon="8.444347874432085"><ele>24.0</ele><time>2026-04-18T13:44:19Z</time></trkpt><trkpt lat="39.071853836886405" lon="8.44451008526541"><ele>24.0</ele><time>2026-04-18T13:44:20Z</time></trkpt><trkpt lat="39.071850359278145" lon="8.444664262197008"><ele>23.799999999999997</ele><time>2026-04-18T13:44:21Z</time></trkpt><trkpt lat="39.071846927131105" lon="8.444810745995461"><ele>23.599999999999998</ele><time>2026-04-18T13:44:22Z</time></trkpt><trkpt lat="39.07184172332197" lon="8.444947915906788"><ele>23.4</ele><time>2026-04-18T13:44:23Z</time></trkpt><trkpt lat="39.071838939090206" lon="8.445079030468282"><ele>23.2</ele><time>2026-04-18T13:44:24Z</time></trkpt><trkpt lat="39.07183540257369" lon="8.445207780555545"><ele>23.0</ele><time>2026-04-18T13:44:25Z</time></trkpt><trkpt lat="39.07183189771604" lon="8.445343373432365"><ele>23.0</ele><time>2026-04-18T13:44:26Z</time></trkpt><trkpt lat="39.07182967729136" lon="8.445484335979385"><ele>23.0</ele><time>2026-04-18T13:44:27Z</time></trkpt><trkpt lat="39.07182859612191" lon="8.445630284553081"><ele>23.0</ele><time>2026-04-18T13:44:28Z</time></trkpt><trkpt lat="39.07182148961826" lon="8.445775512950277"><ele>23.0</ele><time>2026-04-18T13:44:29Z</time></trkpt><trkpt lat="39.07179801898181" lon="8.445917139834599"><ele>23.0</ele><time>2026-04-18T13:44:30Z</time></trkpt><trkpt lat="39.07175028081585" lon="8.446046185991168"><ele>23.0</ele><time>2026-04-18T13:44:31Z</time></trkpt><trkpt lat="39.071701750181724" lon="8.44616573670996"><ele>23.0</ele><time>2026-04-18T13:44:32Z</time></trkpt><trkpt lat="39.07165698570783" lon="8.446273076231185"><ele>23.0</ele><time>2026-04-18T13:44:33Z</time></trkpt><trkpt lat="39.071611249269104" lon="8.446370958983618"><ele>23.0</ele><time>2026-04-18T13:44:34Z</time></trkpt><trkpt lat="39.07156658979569" lon="8.446455905740875"><ele>23.0</ele><time>2026-04-18T13:44:35Z</time></trkpt><trkpt lat="39.07152103827345" lon="8.446531072934944"><ele>23.0</ele><time>2026-04-18T13:44:36Z</time></trkpt><trkpt lat="39.07146873087474" lon="8.446594976566532"><ele>23.75</ele><time>2026-04-18T13:44:37Z</time></trkpt><trkpt lat="39.071323410598616" lon="8.446654297409452"><ele>24.5</ele><time>2026-04-18T13:44:39Z</time></trkpt><trkpt lat="39.07123328366808" lon="8.446647997542257"><ele>25.25</ele><time>2026-04-18T13:44:40Z</time></trkpt><trkpt lat="39.07113472468833" lon="8.446624616590945"><ele>26.0</ele><time>2026-04-18T13:44:41Z</time></trkpt><trkpt lat="39.07102260905162" lon="8.446612267391576"><ele>26.0</ele><time>2026-04-18T13:44:42Z</time></trkpt><trkpt lat="39.0709095176173" lon="8.446608494217026"><ele>26.0</ele><time>2026-04-18T13:44:43Z</time></trkpt><trkpt lat="39.07078377255465" lon="8.446606092032416"><ele>26.0</ele><time>2026-04-18T13:44:44Z</time></trkpt><trkpt lat="39.070649464602" lon="8.44660148864433"><ele>26.0</ele><time>2026-04-18T13:44:45Z</time></trkpt><trkpt lat="39.070512821278726" lon="8.44659401115231"><ele>26.25</ele><time>2026-04-18T13:44:46Z</time></trkpt><trkpt lat="39.07037768708436" lon="8.446583232558313"><ele>26.5</ele><time>2026-04-18T13:44:47Z</time></trkpt><trkpt lat="39.070239739296724" lon="8.44657152215447"><ele>26.75</ele><time>2026-04-18T13:44:48Z</time></trkpt><trkpt lat="39.07010315775619" lon="8.446537826140784"><ele>27.0</ele><time>2026-04-18T13:44:49Z</time></trkpt><trkpt lat="39.06996642118713" lon="8.446549783234639"><ele>27.25</ele><time>2026-04-18T13:44:50Z</time></trkpt><trkpt lat="39.06983891276864" lon="8.446541369529836"><ele>27.5</ele><time>2026-04-18T13:44:51Z</time></trkpt><trkpt lat="39.069709091491184" lon="8.44651215926522"><ele>27.75</ele><time>2026-04-18T13:44:52Z</time></trkpt><trkpt lat="39.06957774678977" lon="8.446522232802543"><ele>28.0</ele><time>2026-04-18T13:44:53Z</time></trkpt><trkpt lat="39.06931307758707" lon="8.446505804587922"><ele>28.0</ele><time>2026-04-18T13:44:55Z</time></trkpt><trkpt lat="39.069181844369" lon="8.44649368137963"><ele>28.0</ele><time>2026-04-18T13:44:56Z</time></trkpt><trkpt lat="39.06904805484082" lon="8.446473592041363"><ele>28.0</ele><time>2026-04-18T13:44:57Z</time></trkpt><trkpt lat="39.06891093418381" lon="8.446467046185441"><ele>28.0</ele><time>2026-04-18T13:44:58Z</time></trkpt><trkpt lat="39.06877435404978" lon="8.446480178735051"><ele>28.75</ele><time>2026-04-18T13:44:59Z</time></trkpt><trkpt lat="39.06863647194311" lon="8.44650212442664"><ele>29.5</ele><time>2026-04-18T13:45:00Z</time></trkpt><trkpt lat="39.068500288465174" lon="8.446534946082767"><ele>30.25</ele><time>2026-04-18T13:45:01Z</time></trkpt><trkpt lat="39.06836777585127" lon="8.446581350538287"><ele>31.0</ele><time>2026-04-18T13:45:02Z</time></trkpt><trkpt lat="39.06824009030592" lon="8.446639654440013"><ele>31.75</ele><time>2026-04-18T13:45:03Z</time></trkpt><trkpt lat="39.06810748283236" lon="8.446679305551777"><ele>32.5</ele><time>2026-04-18T13:45:04Z</time></trkpt><trkpt lat="39.067991617227996" lon="8.44676361392665"><ele>33.25</ele><time>2026-04-18T13:45:05Z</time></trkpt><trkpt lat="39.06786920895312" lon="8.446830191810042"><ele>34.0</ele><time>2026-04-18T13:45:06Z</time></trkpt><trkpt lat="39.06774980189632" lon="8.446901150419539"><ele>34.0</ele><time>2026-04-18T13:45:07Z</time></trkpt><trkpt lat="39.06762415724638" lon="8.446950603141332"><ele>34.0</ele><time>2026-04-18T13:45:08Z</time></trkpt><trkpt lat="39.06750562628281" lon="8.447018082669286"><ele>34.0</ele><time>2026-04-18T13:45:09Z</time></trkpt><trkpt lat="39.06739815578319" lon="8.44710230035749"><ele>34.0</ele><time>2026-04-18T13:45:10Z</time></trkpt><trkpt lat="39.067278591873645" lon="8.447148580996028"><ele>35.2</ele><time>2026-04-18T13:45:11Z</time></trkpt><trkpt lat="39.0671808736103" lon="8.447227904558613"><ele>36.4</ele><time>2026-04-18T13:45:12Z</time></trkpt><trkpt lat="39.06708435088909" lon="8.44727698393812"><ele>37.6</ele><time>2026-04-18T13:45:13Z</time></trkpt><trkpt lat="39.066999543647505" lon="8.447322326588981"><ele>38.8</ele><time>2026-04-18T13:45:14Z</time></trkpt><trkpt lat="39.06693402057566" lon="8.447359979592644"><ele>40.0</ele><time>2026-04-18T13:45:15Z</time></trkpt><trkpt lat="39.06685484919989" lon="8.447378929414128"><ele>40.0</ele><time>2026-04-18T13:45:18Z</time></trkpt><trkpt lat="39.066754074834726" lon="8.4473521575889"><ele>40.0</ele><time>2026-04-18T13:45:20Z</time></trkpt><trkpt lat="39.066678465901326" lon="8.447308571084804"><ele>40.0</ele><time>2026-04-18T13:45:21Z</time></trkpt><trkpt lat="39.06659745119647" lon="8.447281085258247"><ele>40.0</ele><time>2026-04-18T13:45:22Z</time></trkpt><trkpt lat="39.06651980250677" lon="8.44725037489622"><ele>40.0</ele><time>2026-04-18T13:45:23Z</time></trkpt><trkpt lat="39.066436478104166" lon="8.447212357803318"><ele>40.0</ele><time>2026-04-18T13:45:24Z</time></trkpt><trkpt lat="39.06634882649084" lon="8.44717244894698"><ele>39.6</ele><time>2026-04-18T13:45:25Z</time></trkpt><trkpt lat="39.06625549024798" lon="8.447140013822404"><ele>39.2</ele><time>2026-04-18T13:45:26Z</time></trkpt><trkpt lat="39.06616565567591" lon="8.447109351213523"><ele>38.8</ele><time>2026-04-18T13:45:27Z</time></trkpt><trkpt lat="39.06607367266703" lon="8.447075508862351"><ele>38.4</ele><time>2026-04-18T13:45:28Z</time></trkpt><trkpt lat="39.06598129905466" lon="8.447042786907446"><ele>38.0</ele><time>2026-04-18T13:45:29Z</time></trkpt><trkpt lat="39.06588876700303" lon="8.447015284400392"><ele>38.0</ele><time>2026-04-18T13:45:30Z</time></trkpt><trkpt lat="39.0658005172031" lon="8.446969687780525"><ele>38.0</ele><time>2026-04-18T13:45:31Z</time></trkpt><trkpt lat="39.06570547765947" lon="8.446952071961721"><ele>38.0</ele><time>2026-04-18T13:45:32Z</time></trkpt><trkpt lat="39.06561023966885" lon="8.446943930652816"><ele>38.0</ele><time>2026-04-18T13:45:33Z</time></trkpt><trkpt lat="39.06550995920447" lon="8.44694313819507"><ele>38.0</ele><time>2026-04-18T13:45:34Z</time></trkpt><trkpt lat="39.065407465314046" lon="8.44694537171684"><ele>38.4</ele><time>2026-04-18T13:45:35Z</time></trkpt><trkpt lat="39.06530551028266" lon="8.446950459394213"><ele>38.8</ele><time>2026-04-18T13:45:36Z</time></trkpt><trkpt lat="39.065195234121454" lon="8.44695841169403"><ele>39.2</ele><time>2026-04-18T13:45:37Z</time></trkpt><trkpt lat="39.065080942571754" lon="8.446982946298693"><ele>39.6</ele><time>2026-04-18T13:45:38Z</time></trkpt><trkpt lat="39.06496103689184" lon="8.446981638983276"><ele>40.0</ele><time>2026-04-18T13:45:39Z</time></trkpt><trkpt lat="39.06483700457849" lon="8.44697755682942"><ele>40.25</ele><time>2026-04-18T13:45:40Z</time></trkpt><trkpt lat="39.064711305856335" lon="8.446973604118206"><ele>40.5</ele><time>2026-04-18T13:45:41Z</time></trkpt><trkpt lat="39.064581485257946" lon="8.446966855173821"><ele>40.75</ele><time>2026-04-18T13:45:42Z</time></trkpt><trkpt lat="39.064450369999896" lon="8.446954856846869"><ele>41.0</ele><time>2026-04-18T13:45:43Z</time></trkpt><trkpt lat="39.0643152717695" lon="8.446936473937514"><ele>41.0</ele><time>2026-04-18T13:45:44Z</time></trkpt><trkpt lat="39.06417938383111" lon="8.446920593467842"><ele>41.0</ele><time>2026-04-18T13:45:45Z</time></trkpt><trkpt lat="39.064042382808914" lon="8.446918757178736"><ele>41.0</ele><time>2026-04-18T13:45:46Z</time></trkpt><trkpt lat="39.063904647297875" lon="8.44692701170642"><ele>41.0</ele><time>2026-04-18T13:45:47Z</time></trkpt><trkpt lat="39.06376309701928" lon="8.446933192512553"><ele>41.5</ele><time>2026-04-18T13:45:48Z</time></trkpt><trkpt lat="39.063620846861106" lon="8.446950186791602"><ele>42.0</ele><time>2026-04-18T13:45:49Z</time></trkpt><trkpt lat="39.063476517234385" lon="8.446974649275566"><ele>42.5</ele><time>2026-04-18T13:45:50Z</time></trkpt><trkpt lat="39.06332854151317" lon="8.446996598027553"><ele>43.0</ele><time>2026-04-18T13:45:51Z</time></trkpt><trkpt lat="39.06318025498594" lon="8.447010197656565"><ele>43.75</ele><time>2026-04-18T13:45:52Z</time></trkpt><trkpt lat="39.0630309286232" lon="8.447044011593878"><ele>44.5</ele><time>2026-04-18T13:45:53Z</time></trkpt><trkpt lat="39.0628878838752" lon="8.447083201133633"><ele>45.25</ele><time>2026-04-18T13:45:54Z</time></trkpt><trkpt lat="39.06276083754954" lon="8.44714505943104"><ele>46.0</ele><time>2026-04-18T13:45:55Z</time></trkpt><trkpt lat="39.062646243474035" lon="8.44722104857678"><ele>46.25</ele><time>2026-04-18T13:45:56Z</time></trkpt><trkpt lat="39.062540304093545" lon="8.447300532105972"><ele>46.5</ele><time>2026-04-18T13:45:57Z</time></trkpt><trkpt lat="39.06243699319072" lon="8.44737041687606"><ele>46.75</ele><time>2026-04-18T13:45:58Z</time></trkpt><trkpt lat="39.062330361419036" lon="8.447427427629618"><ele>47.0</ele><time>2026-04-18T13:45:59Z</time></trkpt><trkpt lat="39.062222579728655" lon="8.447490506972997"><ele>46.0</ele><time>2026-04-18T13:46:00Z</time></trkpt><trkpt lat="39.06210368059961" lon="8.44753375963706"><ele>45.0</ele><time>2026-04-18T13:46:01Z</time></trkpt><trkpt lat="39.06197360608328" lon="8.44755454842971"><ele>44.0</ele><time>2026-04-18T13:46:02Z</time></trkpt><trkpt lat="39.06183974412813" lon="8.447570221946531"><ele>43.0</ele><time>2026-04-18T13:46:03Z</time></trkpt><trkpt lat="39.06171162187395" lon="8.447589077051031"><ele>42.0</ele><time>2026-04-18T13:46:04Z</time></trkpt><trkpt lat="39.061592289610815" lon="8.447612262075193"><ele>41.0</ele><time>2026-04-18T13:46:05Z</time></trkpt><trkpt lat="39.06147251340131" lon="8.44760697540675"><ele>40.0</ele><time>2026-04-18T13:46:06Z</time></trkpt><trkpt lat="39.06135723058642" lon="8.4476196261013"><ele>39.0</ele><time>2026-04-18T13:46:07Z</time></trkpt><trkpt lat="39.06124533438446" lon="8.447630174172314"><ele>39.0</ele><time>2026-04-18T13:46:08Z</time></trkpt><trkpt lat="39.0611425546023" lon="8.44763986287376"><ele>39.0</ele><time>2026-04-18T13:46:09Z</time></trkpt><trkpt lat="39.061044537497395" lon="8.447649102499906"><ele>39.0</ele><time>2026-04-18T13:46:10Z</time></trkpt><trkpt lat="39.060950723395756" lon="8.447676532649671"><ele>39.0</ele><time>2026-04-18T13:46:11Z</time></trkpt><trkpt lat="39.06085861838581" lon="8.4476756938425"><ele>39.0</ele><time>2026-04-18T13:46:12Z</time></trkpt><trkpt lat="39.06076573527834" lon="8.447679459752555"><ele>39.0</ele><time>2026-04-18T13:46:13Z</time></trkpt><trkpt lat="39.06067097380923" lon="8.44768625540126"><ele>39.0</ele><time>2026-04-18T13:46:14Z</time></trkpt><trkpt lat="39.0605704879679" lon="8.447685244938485"><ele>39.0</ele><time>2026-04-18T13:46:15Z</time></trkpt><trkpt lat="39.06046690757821" lon="8.447683980004138"><ele>39.0</ele><time>2026-04-18T13:46:16Z</time></trkpt><trkpt lat="39.06035996431922" lon="8.447683612083365"><ele>39.0</ele><time>2026-04-18T13:46:17Z</time></trkpt><trkpt lat="39.060249974017225" lon="8.44768053984968"><ele>39.0</ele><time>2026-04-18T13:46:18Z</time></trkpt><trkpt lat="39.06013726093778" lon="8.447681466702273"><ele>39.0</ele><time>2026-04-18T13:46:19Z</time></trkpt><trkpt lat="39.06002307374629" lon="8.447686313831856"><ele>39.0</ele><time>2026-04-18T13:46:20Z</time></trkpt><trkpt lat="39.05990906709639" lon="8.447692484959997"><ele>39.0</ele><time>2026-04-18T13:46:21Z</time></trkpt><trkpt lat="39.05979823232672" lon="8.447697285914465"><ele>39.6</ele><time>2026-04-18T13:46:22Z</time></trkpt><trkpt lat="39.05969033027477" lon="8.44771113216976"><ele>40.2</ele><time>2026-04-18T13:46:23Z</time></trkpt><trkpt lat="39.05958821699011" lon="8.447747424448695"><ele>40.800000000000004</ele><time>2026-04-18T13:46:24Z</time></trkpt><trkpt lat="39.059488203252116" lon="8.447790518433862"><ele>41.4</ele><time>2026-04-18T13:46:25Z</time></trkpt><trkpt lat="39.05938805758848" lon="8.447840522545281"><ele>42.0</ele><time>2026-04-18T13:46:26Z</time></trkpt><trkpt lat="39.05928804319321" lon="8.447897655032643"><ele>42.0</ele><time>2026-04-18T13:46:27Z</time></trkpt><trkpt lat="39.05918647401279" lon="8.44795723501968"><ele>42.0</ele><time>2026-04-18T13:46:28Z</time></trkpt><trkpt lat="39.05908371373137" lon="8.448020399141521"><ele>42.0</ele><time>2026-04-18T13:46:29Z</time></trkpt><trkpt lat="39.058981964655" lon="8.448087253746595"><ele>42.0</ele><time>2026-04-18T13:46:30Z</time></trkpt><trkpt lat="39.05887979133454" lon="8.448161046522666"><ele>40.25</ele><time>2026-04-18T13:46:31Z</time></trkpt><trkpt lat="39.05877996673388" lon="8.448231672700503"><ele>38.5</ele><time>2026-04-18T13:46:32Z</time></trkpt><trkpt lat="39.058678263825634" lon="8.4482955239995"><ele>36.75</ele><time>2026-04-18T13:46:33Z</time></trkpt><trkpt lat="39.058568812786" lon="8.44835174077245"><ele>35.0</ele><time>2026-04-18T13:46:34Z</time></trkpt><trkpt lat="39.05845645964564" lon="8.448402348598947"><ele>35.0</ele><time>2026-04-18T13:46:35Z</time></trkpt><trkpt lat="39.05834284299475" lon="8.448452393505331"><ele>35.0</ele><time>2026-04-18T13:46:36Z</time></trkpt><trkpt lat="39.058223110658695" lon="8.448479731086074"><ele>35.0</ele><time>2026-04-18T13:46:37Z</time></trkpt><trkpt lat="39.05810728449638" lon="8.448525224758166"><ele>35.0</ele><time>2026-04-18T13:46:38Z</time></trkpt><trkpt lat="39.057992427551504" lon="8.448571399619889"><ele>35.0</ele><time>2026-04-18T13:46:39Z</time></trkpt><trkpt lat="39.057877885323414" lon="8.448622464702828"><ele>35.0</ele><time>2026-04-18T13:46:40Z</time></trkpt><trkpt lat="39.05776491301257" lon="8.448674081794595"><ele>35.0</ele><time>2026-04-18T13:46:41Z</time></trkpt><trkpt lat="39.05765426817277" lon="8.448724457562456"><ele>35.0</ele><time>2026-04-18T13:46:42Z</time></trkpt><trkpt lat="39.05754900246357" lon="8.448789853808437"><ele>34.2</ele><time>2026-04-18T13:46:43Z</time></trkpt><trkpt lat="39.05743885143168" lon="8.448816805745228"><ele>33.4</ele><time>2026-04-18T13:46:44Z</time></trkpt><trkpt lat="39.05732637582016" lon="8.44882361285251"><ele>32.6</ele><time>2026-04-18T13:46:45Z</time></trkpt><trkpt lat="39.05721799618945" lon="8.44879954645645"><ele>31.8</ele><time>2026-04-18T13:46:46Z</time></trkpt><trkpt lat="39.057114578797794" lon="8.448756604050311"><ele>31.0</ele><time>2026-04-18T13:46:47Z</time></trkpt><trkpt lat="39.057010095786595" lon="8.44871721134775"><ele>31.0</ele><time>2026-04-18T13:46:48Z</time></trkpt><trkpt lat="39.0569087856668" lon="8.448666257576976"><ele>31.0</ele><time>2026-04-18T13:46:49Z</time></trkpt><trkpt lat="39.05679937789847" lon="8.44864226379228"><ele>31.0</ele><time>2026-04-18T13:46:50Z</time></trkpt><trkpt lat="39.05668726269417" lon="8.448643623335723"><ele>31.0</ele><time>2026-04-18T13:46:51Z</time></trkpt><trkpt lat="39.05657935945091" lon="8.448683494369757"><ele>31.0</ele><time>2026-04-18T13:46:52Z</time></trkpt><trkpt lat="39.05648041288643" lon="8.448755041231692"><ele>31.0</ele><time>2026-04-18T13:46:53Z</time></trkpt><trkpt lat="39.05639591343159" lon="8.448856410926359"><ele>31.0</ele><time>2026-04-18T13:46:54Z</time></trkpt><trkpt lat="39.05632350373549" lon="8.44898114857393"><ele>31.0</ele><time>2026-04-18T13:46:55Z</time></trkpt><trkpt lat="39.05625989747226" lon="8.449114301539538"><ele>31.0</ele><time>2026-04-18T13:46:56Z</time></trkpt><trkpt lat="39.05619512124684" lon="8.449244023399904"><ele>31.0</ele><time>2026-04-18T13:46:57Z</time></trkpt><trkpt lat="39.05612085732081" lon="8.449367894882515"><ele>31.0</ele><time>2026-04-18T13:46:58Z</time></trkpt><trkpt lat="39.05602977620303" lon="8.44947822759562"><ele>31.0</ele><time>2026-04-18T13:46:59Z</time></trkpt><trkpt lat="39.05593173559695" lon="8.449579435632481"><ele>31.0</ele><time>2026-04-18T13:47:00Z</time></trkpt><trkpt lat="39.05582891412286" lon="8.449676915552358"><ele>31.5</ele><time>2026-04-18T13:47:01Z</time></trkpt><trkpt lat="39.055723275934064" lon="8.449769786943829"><ele>32.0</ele><time>2026-04-18T13:47:02Z</time></trkpt><trkpt lat="39.05561662415549" lon="8.449863549965395"><ele>32.5</ele><time>2026-04-18T13:47:03Z</time></trkpt><trkpt lat="39.05551607307723" lon="8.449954405203444"><ele>33.0</ele><time>2026-04-18T13:47:04Z</time></trkpt><trkpt lat="39.05541815921148" lon="8.450046106549195"><ele>33.0</ele><time>2026-04-18T13:47:05Z</time></trkpt><trkpt lat="39.055322679129446" lon="8.450144651598977"><ele>33.0</ele><time>2026-04-18T13:47:06Z</time></trkpt><trkpt lat="39.05522686767285" lon="8.450255297535056"><ele>33.0</ele><time>2026-04-18T13:47:07Z</time></trkpt><trkpt lat="39.055136591386" lon="8.450380951269908"><ele>33.0</ele><time>2026-04-18T13:47:08Z</time></trkpt><trkpt lat="39.05505553555371" lon="8.450525819489023"><ele>31.5</ele><time>2026-04-18T13:47:09Z</time></trkpt><trkpt lat="39.05499318344891" lon="8.450688444356064"><ele>30.0</ele><time>2026-04-18T13:47:10Z</time></trkpt><trkpt lat="39.05494724118639" lon="8.450855412635516"><ele>28.5</ele><time>2026-04-18T13:47:11Z</time></trkpt><trkpt lat="39.05490535158762" lon="8.451018807759676"><ele>27.0</ele><time>2026-04-18T13:47:12Z</time></trkpt><trkpt lat="39.05486381821017" lon="8.451168771410988"><ele>25.833333333333332</ele><time>2026-04-18T13:47:13Z</time></trkpt><trkpt lat="39.054820888229436" lon="8.451301415998481"><ele>24.666666666666668</ele><time>2026-04-18T13:47:14Z</time></trkpt><trkpt lat="39.05477898339382" lon="8.451414848502216"><ele>23.5</ele><time>2026-04-18T13:47:15Z</time></trkpt><trkpt lat="39.05473817181865" lon="8.45150976279095"><ele>22.333333333333336</ele><time>2026-04-18T13:47:16Z</time></trkpt><trkpt lat="39.054711072614026" lon="8.451585395870206"><ele>21.166666666666668</ele><time>2026-04-18T13:47:17Z</time></trkpt><trkpt lat="39.05470726562013" lon="8.451666583024881"><ele>20.0</ele><time>2026-04-18T13:47:19Z</time></trkpt><trkpt lat="39.05469835770518" lon="8.451765871767353"><ele>20.0</ele><time>2026-04-18T13:47:22Z</time></trkpt><trkpt lat="39.054822277370114" lon="8.451849446891494"><ele>20.0</ele><time>2026-04-18T13:47:23Z</time></trkpt><trkpt lat="39.05489868293647" lon="8.451892217623067"><ele>20.0</ele><time>2026-04-18T13:47:24Z</time></trkpt><trkpt lat="39.054983648725326" lon="8.45193918172921"><ele>20.0</ele><time>2026-04-18T13:47:25Z</time></trkpt><trkpt lat="39.05507769893389" lon="8.451987095514598"><ele>20.0</ele><time>2026-04-18T13:47:26Z</time></trkpt><trkpt lat="39.055178626084206" lon="8.452032974792617"><ele>20.0</ele><time>2026-04-18T13:47:27Z</time></trkpt><trkpt lat="39.05529061981847" lon="8.452081723259134"><ele>20.0</ele><time>2026-04-18T13:47:28Z</time></trkpt><trkpt lat="39.05541116501094" lon="8.452121828928156"><ele>20.0</ele><time>2026-04-18T13:47:29Z</time></trkpt><trkpt lat="39.05553370994064" lon="8.452158907611317"><ele>20.0</ele><time>2026-04-18T13:47:30Z</time></trkpt><trkpt lat="39.055664591192524" lon="8.452194936880346"><ele>19.75</ele><time>2026-04-18T13:47:31Z</time></trkpt><trkpt lat="39.05580247413476" lon="8.452231778420675"><ele>19.5</ele><time>2026-04-18T13:47:32Z</time></trkpt><trkpt lat="39.055944237476965" lon="8.45227393955233"><ele>19.25</ele><time>2026-04-18T13:47:33Z</time></trkpt><trkpt lat="39.05608871045073" lon="8.452319812058336"><ele>19.0</ele><time>2026-04-18T13:47:34Z</time></trkpt><trkpt lat="39.056231694005625" lon="8.452366217754454"><ele>19.0</ele><time>2026-04-18T13:47:35Z</time></trkpt><trkpt lat="39.056370731172095" lon="8.452423659224316"><ele>19.0</ele><time>2026-04-18T13:47:36Z</time></trkpt><trkpt lat="39.056496764855574" lon="8.452512155967252"><ele>19.0</ele><time>2026-04-18T13:47:37Z</time></trkpt><trkpt lat="39.05660631791945" lon="8.452631862399112"><ele>19.0</ele><time>2026-04-18T13:47:38Z</time></trkpt><trkpt lat="39.05670489030409" lon="8.452766212134486"><ele>19.0</ele><time>2026-04-18T13:47:39Z</time></trkpt><trkpt lat="39.05680245375706" lon="8.452898349967153"><ele>19.0</ele><time>2026-04-18T13:47:40Z</time></trkpt><trkpt lat="39.05689674219752" lon="8.453019563818861"><ele>19.0</ele><time>2026-04-18T13:47:41Z</time></trkpt><trkpt lat="39.05698776594785" lon="8.453133478669848"><ele>19.0</ele><time>2026-04-18T13:47:42Z</time></trkpt><trkpt lat="39.05707258619994" lon="8.453245559845335"><ele>18.8</ele><time>2026-04-18T13:47:43Z</time></trkpt><trkpt lat="39.0571533538588" lon="8.453353134752572"><ele>18.599999999999998</ele><time>2026-04-18T13:47:44Z</time></trkpt><trkpt lat="39.05723206444435" lon="8.45345045621674"><ele>18.4</ele><time>2026-04-18T13:47:45Z</time></trkpt><trkpt lat="39.057304841551876" lon="8.453536512550945"><ele>18.2</ele><time>2026-04-18T13:47:46Z</time></trkpt><trkpt lat="39.05737227672818" lon="8.453610070179193"><ele>18.0</ele><time>2026-04-18T13:47:47Z</time></trkpt><trkpt lat="39.05744787849625" lon="8.453670891136706"><ele>18.0</ele><time>2026-04-18T13:47:48Z</time></trkpt><trkpt lat="39.057531737574436" lon="8.453727606260399"><ele>18.0</ele><time>2026-04-18T13:47:49Z</time></trkpt><trkpt lat="39.05762196679835" lon="8.453784063350444"><ele>18.0</ele><time>2026-04-18T13:47:50Z</time></trkpt><trkpt lat="39.05771638984746" lon="8.45384368612366"><ele>18.0</ele><time>2026-04-18T13:47:51Z</time></trkpt><trkpt lat="39.05781504578509" lon="8.453911176071436"><ele>18.0</ele><time>2026-04-18T13:47:52Z</time></trkpt><trkpt lat="39.057918542127474" lon="8.453978662792109"><ele>17.5</ele><time>2026-04-18T13:47:53Z</time></trkpt><trkpt lat="39.058026052772405" lon="8.454043151883672"><ele>17.0</ele><time>2026-04-18T13:47:54Z</time></trkpt><trkpt lat="39.058133704214725" lon="8.454107041055108"><ele>16.5</ele><time>2026-04-18T13:47:55Z</time></trkpt><trkpt lat="39.0582247219059" lon="8.454188894564478"><ele>16.0</ele><time>2026-04-18T13:47:56Z</time></trkpt><trkpt lat="39.05832011834014" lon="8.454252974922124"><ele>16.0</ele><time>2026-04-18T13:47:57Z</time></trkpt><trkpt lat="39.058411850581805" lon="8.454313522244805"><ele>16.0</ele><time>2026-04-18T13:47:58Z</time></trkpt><trkpt lat="39.0585045809935" lon="8.454373569050185"><ele>16.0</ele><time>2026-04-18T13:47:59Z</time></trkpt><trkpt lat="39.05860038739388" lon="8.45443108925121"><ele>16.0</ele><time>2026-04-18T13:48:00Z</time></trkpt><trkpt lat="39.05870457379692" lon="8.454480082595197"><ele>16.0</ele><time>2026-04-18T13:48:01Z</time></trkpt><trkpt lat="39.05880704053898" lon="8.454550805623755"><ele>16.0</ele><time>2026-04-18T13:48:02Z</time></trkpt><trkpt lat="39.058913158638426" lon="8.454619962205424"><ele>16.0</ele><time>2026-04-18T13:48:03Z</time></trkpt><trkpt lat="39.0590205222622" lon="8.454685155068109"><ele>16.0</ele><time>2026-04-18T13:48:04Z</time></trkpt><trkpt lat="39.05912665541699" lon="8.454744819331419"><ele>16.0</ele><time>2026-04-18T13:48:05Z</time></trkpt><trkpt lat="39.0592305587439" lon="8.454794403195377"><ele>15.499999999999998</ele><time>2026-04-18T13:48:06Z</time></trkpt><trkpt lat="39.05932544913195" lon="8.454831938950258"><ele>15.0</ele><time>2026-04-18T13:48:07Z</time></trkpt><trkpt lat="39.059393087000004" lon="8.454858343652644"><ele>14.5</ele><time>2026-04-18T13:48:08Z</time></trkpt><trkpt lat="39.05946213497099" lon="8.454910369327246"><ele>14.0</ele><time>2026-04-18T13:48:11Z</time></trkpt><trkpt lat="39.059481817504974" lon="8.455026781680605"><ele>13.499999999999998</ele><time>2026-04-18T13:48:13Z</time></trkpt><trkpt lat="39.05945727533557" lon="8.455108910629539"><ele>13.0</ele><time>2026-04-18T13:48:14Z</time></trkpt><trkpt lat="39.05942881445541" lon="8.455200524123208"><ele>13.0</ele><time>2026-04-18T13:48:15Z</time></trkpt><trkpt lat="39.05940581560058" lon="8.455309632757162"><ele>13.0</ele><time>2026-04-18T13:48:16Z</time></trkpt><trkpt lat="39.05939257499224" lon="8.455433284698973"><ele>13.0</ele><time>2026-04-18T13:48:17Z</time></trkpt><trkpt lat="39.059385261904" lon="8.455569786204677"><ele>13.0</ele><time>2026-04-18T13:48:18Z</time></trkpt><trkpt lat="39.05938102905634" lon="8.455716877035684"><ele>13.0</ele><time>2026-04-18T13:48:19Z</time></trkpt><trkpt lat="39.059378947790165" lon="8.455855811960896"><ele>12.8</ele><time>2026-04-18T13:48:20Z</time></trkpt><trkpt lat="39.05937994180388" lon="8.455988944054385"><ele>12.600000000000001</ele><time>2026-04-18T13:48:21Z</time></trkpt><trkpt lat="39.05938654194535" lon="8.456114129363293"><ele>12.399999999999999</ele><time>2026-04-18T13:48:22Z</time></trkpt><trkpt lat="39.05939319337487" lon="8.456232593284698"><ele>12.2</ele><time>2026-04-18T13:48:23Z</time></trkpt><trkpt lat="39.059390814593634" lon="8.456338270546992"><ele>12.0</ele><time>2026-04-18T13:48:24Z</time></trkpt><trkpt lat="39.05938937100273" lon="8.45644904053514"><ele>11.5</ele><time>2026-04-18T13:48:25Z</time></trkpt><trkpt lat="39.059383994772695" lon="8.456561267967194"><ele>11.0</ele><time>2026-04-18T13:48:26Z</time></trkpt><trkpt lat="39.05938019869098" lon="8.456677236736402"><ele>10.5</ele><time>2026-04-18T13:48:27Z</time></trkpt><trkpt lat="39.059387239781536" lon="8.456789049155132"><ele>10.0</ele><time>2026-04-18T13:48:28Z</time></trkpt><trkpt lat="39.05939571527082" lon="8.456896230197358"><ele>9.5</ele><time>2026-04-18T13:48:29Z</time></trkpt><trkpt lat="39.05940178968464" lon="8.456997284187704"><ele>9.0</ele><time>2026-04-18T13:48:30Z</time></trkpt><trkpt lat="39.05940051195309" lon="8.457094820502618"><ele>8.833333333333334</ele><time>2026-04-18T13:48:31Z</time></trkpt><trkpt lat="39.059399985290995" lon="8.457184895767375"><ele>8.666666666666666</ele><time>2026-04-18T13:48:32Z</time></trkpt><trkpt lat="39.0594014668667" lon="8.457274811510024"><ele>8.5</ele><time>2026-04-18T13:48:33Z</time></trkpt><trkpt lat="39.05940221149377" lon="8.457370380609005"><ele>8.333333333333332</ele><time>2026-04-18T13:48:34Z</time></trkpt><trkpt lat="39.05940552176153" lon="8.457477243756305"><ele>8.166666666666666</ele><time>2026-04-18T13:48:35Z</time></trkpt><trkpt lat="39.05941034118264" lon="8.457585863353714"><ele>8.0</ele><time>2026-04-18T13:48:36Z</time></trkpt><trkpt lat="39.05941144727406" lon="8.457692706219076"><ele>7.999999999999999</ele><time>2026-04-18T13:48:37Z</time></trkpt><trkpt lat="39.05941728625373" lon="8.457789604982072"><ele>8.0</ele><time>2026-04-18T13:48:38Z</time></trkpt><trkpt lat="39.059450812335" lon="8.457881479774251"><ele>8.0</ele><time>2026-04-18T13:48:39Z</time></trkpt><trkpt lat="39.05946014873914" lon="8.457979742909188"><ele>8.0</ele><time>2026-04-18T13:48:40Z</time></trkpt><trkpt lat="39.05949774399886" lon="8.458069981776207"><ele>7.999999999999999</ele><time>2026-04-18T13:48:41Z</time></trkpt><trkpt lat="39.05953785486259" lon="8.458164343121245"><ele>8.0</ele><time>2026-04-18T13:48:42Z</time></trkpt><trkpt lat="39.059573488507844" lon="8.458257436166592"><ele>7.999999999999999</ele><time>2026-04-18T13:48:43Z</time></trkpt><trkpt lat="39.05960595829229" lon="8.458353131531528"><ele>8.0</ele><time>2026-04-18T13:48:44Z</time></trkpt><trkpt lat="39.059637555011015" lon="8.45844742359667"><ele>8.0</ele><time>2026-04-18T13:48:45Z</time></trkpt><trkpt lat="39.05967457204493" lon="8.458545700924992"><ele>8.0</ele><time>2026-04-18T13:48:46Z</time></trkpt><trkpt lat="39.05971327984629" lon="8.458649488553577"><ele>7.999999999999999</ele><time>2026-04-18T13:48:47Z</time></trkpt><trkpt lat="39.059750718059824" lon="8.45875573738495"><ele>8.0</ele><time>2026-04-18T13:48:48Z</time></trkpt><trkpt lat="39.0597869078574" lon="8.458868923343909"><ele>7.666666666666666</ele><time>2026-04-18T13:48:49Z</time></trkpt><trkpt lat="39.05982675636746" lon="8.45898064674553"><ele>7.333333333333333</ele><time>2026-04-18T13:48:50Z</time></trkpt><trkpt lat="39.059872428742764" lon="8.459084747388841"><ele>7.0</ele><time>2026-04-18T13:48:51Z</time></trkpt><trkpt lat="39.059893111031634" lon="8.459190417931628"><ele>6.666666666666666</ele><time>2026-04-18T13:48:52Z</time></trkpt><trkpt lat="39.059928565594916" lon="8.45929181403676"><ele>6.333333333333333</ele><time>2026-04-18T13:48:53Z</time></trkpt><trkpt lat="39.05995716101176" lon="8.459379293482089"><ele>6.0</ele><time>2026-04-18T13:48:54Z</time></trkpt><trkpt lat="39.05999192552918" lon="8.459493057200145"><ele>5.833333333333333</ele><time>2026-04-18T13:48:56Z</time></trkpt><trkpt lat="39.06004711721937" lon="8.459585122087285"><ele>5.666666666666667</ele><time>2026-04-18T13:49:01Z</time></trkpt><trkpt lat="39.06014786372966" lon="8.459582527906068"><ele>5.5</ele><time>2026-04-18T13:49:03Z</time></trkpt><trkpt lat="39.06020886945584" lon="8.459550227187457"><ele>5.333333333333334</ele><time>2026-04-18T13:49:04Z</time></trkpt><trkpt lat="39.06028143148091" lon="8.459531771829031"><ele>5.166666666666667</ele><time>2026-04-18T13:49:06Z</time></trkpt><trkpt lat="39.060326420859695" lon="8.459598240879401"><ele>5.0</ele><time>2026-04-18T13:49:09Z</time></trkpt><trkpt lat="39.060276642301375" lon="8.45968653441924"><ele>5.0</ele><time>2026-04-18T13:49:11Z</time></trkpt><trkpt lat="39.060186850785044" lon="8.459825707134458"><ele>5.0</ele><time>2026-04-18T13:49:13Z</time></trkpt><trkpt lat="39.06011790865847" lon="8.45991038016094"><ele>5.0</ele><time>2026-04-18T13:49:14Z</time></trkpt><trkpt lat="39.06005077172298" lon="8.459998830771324"><ele>5.0</ele><time>2026-04-18T13:49:15Z</time></trkpt><trkpt lat="39.05997931145546" lon="8.460100178690515"><ele>5.0</ele><time>2026-04-18T13:49:16Z</time></trkpt><trkpt lat="39.05990803007109" lon="8.460207206398904"><ele>5.0</ele><time>2026-04-18T13:49:17Z</time></trkpt><trkpt lat="39.05984074660417" lon="8.460302929080989"><ele>5.0</ele><time>2026-04-18T13:49:18Z</time></trkpt><trkpt lat="39.05978045876677" lon="8.460398286276812"><ele>5.0</ele><time>2026-04-18T13:49:19Z</time></trkpt><trkpt lat="39.059724446895224" lon="8.460498968097454"><ele>5.0</ele><time>2026-04-18T13:49:20Z</time></trkpt><trkpt lat="39.05966280198905" lon="8.460605245067725"><ele>5.0</ele><time>2026-04-18T13:49:21Z</time></trkpt><trkpt lat="39.05960090389401" lon="8.460715982399083"><ele>4.8</ele><time>2026-04-18T13:49:22Z</time></trkpt><trkpt lat="39.05953653637961" lon="8.460827993317446"><ele>4.6</ele><time>2026-04-18T13:49:23Z</time></trkpt><trkpt lat="39.059469770089464" lon="8.46093764821954"><ele>4.4</ele><time>2026-04-18T13:49:24Z</time></trkpt><trkpt lat="39.0593996759713" lon="8.46104205604336"><ele>4.2</ele><time>2026-04-18T13:49:25Z</time></trkpt><trkpt lat="39.05933500524149" lon="8.461141896082019"><ele>4.0</ele><time>2026-04-18T13:49:26Z</time></trkpt><trkpt lat="39.05927735843596" lon="8.461233314866519"><ele>4.0</ele><time>2026-04-18T13:49:27Z</time></trkpt><trkpt lat="39.05921990564598" lon="8.461321856220616"><ele>4.0</ele><time>2026-04-18T13:49:28Z</time></trkpt><trkpt lat="39.0591566840977" lon="8.46141173884377"><ele>4.0</ele><time>2026-04-18T13:49:29Z</time></trkpt><trkpt lat="39.05909038827335" lon="8.46150168257256"><ele>4.0</ele><time>2026-04-18T13:49:30Z</time></trkpt><trkpt lat="39.05902129162007" lon="8.461591499706383"><ele>4.0</ele><time>2026-04-18T13:49:31Z</time></trkpt><trkpt lat="39.05894867975291" lon="8.46168219725427"><ele>4.2</ele><time>2026-04-18T13:49:32Z</time></trkpt><trkpt lat="39.05887317426146" lon="8.46177967265612"><ele>4.4</ele><time>2026-04-18T13:49:33Z</time></trkpt><trkpt lat="39.05880050509764" lon="8.461878909792278"><ele>4.6</ele><time>2026-04-18T13:49:34Z</time></trkpt><trkpt lat="39.05872089713118" lon="8.461976950964512"><ele>4.8</ele><time>2026-04-18T13:49:35Z</time></trkpt><trkpt lat="39.058641369767734" lon="8.462075079478359"><ele>5.0</ele><time>2026-04-18T13:49:36Z</time></trkpt><trkpt lat="39.05856238364907" lon="8.462176750656981"><ele>4.8</ele><time>2026-04-18T13:49:37Z</time></trkpt><trkpt lat="39.05847683457681" lon="8.462263416509215"><ele>4.6</ele><time>2026-04-18T13:49:38Z</time></trkpt><trkpt lat="39.05839411567807" lon="8.462356633884417"><ele>4.4</ele><time>2026-04-18T13:49:39Z</time></trkpt><trkpt lat="39.058306196518146" lon="8.462447238535356"><ele>4.2</ele><time>2026-04-18T13:49:40Z</time></trkpt><trkpt lat="39.058220552822625" lon="8.4625391897193"><ele>4.0</ele><time>2026-04-18T13:49:41Z</time></trkpt><trkpt lat="39.05813812975632" lon="8.462628133139766"><ele>4.0</ele><time>2026-04-18T13:49:42Z</time></trkpt><trkpt lat="39.058053423094435" lon="8.46271964327185"><ele>4.0</ele><time>2026-04-18T13:49:43Z</time></trkpt><trkpt lat="39.057970753299074" lon="8.462811035191637"><ele>4.0</ele><time>2026-04-18T13:49:44Z</time></trkpt><trkpt lat="39.057885311045005" lon="8.462899488843064"><ele>4.0</ele><time>2026-04-18T13:49:45Z</time></trkpt><trkpt lat="39.05779508116378" lon="8.462987723922692"><ele>4.0</ele><time>2026-04-18T13:49:46Z</time></trkpt><trkpt lat="39.05770950716776" lon="8.463078246249754"><ele>3.8000000000000003</ele><time>2026-04-18T13:49:47Z</time></trkpt><trkpt lat="39.05762395498571" lon="8.463168716196867"><ele>3.6000000000000005</ele><time>2026-04-18T13:49:48Z</time></trkpt><trkpt lat="39.0575420729089" lon="8.463258640727565"><ele>3.4</ele><time>2026-04-18T13:49:49Z</time></trkpt><trkpt lat="39.05746233591606" lon="8.463349849971808"><ele>3.2</ele><time>2026-04-18T13:49:50Z</time></trkpt><trkpt lat="39.05738833206474" lon="8.463450296630326"><ele>3.0</ele><time>2026-04-18T13:49:51Z</time></trkpt><trkpt lat="39.05731591932069" lon="8.46355430067033"><ele>3.0</ele><time>2026-04-18T13:49:52Z</time></trkpt><trkpt lat="39.05724668136687" lon="8.463666455134685"><ele>3.0</ele><time>2026-04-18T13:49:53Z</time></trkpt><trkpt lat="39.057181337235086" lon="8.463790320564856"><ele>3.0</ele><time>2026-04-18T13:49:54Z</time></trkpt><trkpt lat="39.057120954488866" lon="8.46392220625015"><ele>3.0</ele><time>2026-04-18T13:49:55Z</time></trkpt><trkpt lat="39.057070693825395" lon="8.464069231563151"><ele>3.0</ele><time>2026-04-18T13:49:56Z</time></trkpt><trkpt lat="39.05702069852218" lon="8.464214703971534"><ele>3.0</ele><time>2026-04-18T13:49:57Z</time></trkpt><trkpt lat="39.056981587739934" lon="8.464373275946919"><ele>3.0</ele><time>2026-04-18T13:49:58Z</time></trkpt><trkpt lat="39.056952654258716" lon="8.464533504987843"><ele>3.0</ele><time>2026-04-18T13:49:59Z</time></trkpt><trkpt lat="39.05693073935231" lon="8.464695426249994"><ele>3.0</ele><time>2026-04-18T13:50:00Z</time></trkpt><trkpt lat="39.056925462207346" lon="8.464858592252659"><ele>3.0</ele><time>2026-04-18T13:50:01Z</time></trkpt><trkpt lat="39.0569235701118" lon="8.465024333164031"><ele>3.0</ele><time>2026-04-18T13:50:02Z</time></trkpt><trkpt lat="39.0569334947113" lon="8.465189127416386"><ele>3.0</ele><time>2026-04-18T13:50:03Z</time></trkpt><trkpt lat="39.05695086440176" lon="8.465355227008757"><ele>3.0</ele><time>2026-04-18T13:50:04Z</time></trkpt><trkpt lat="39.05697696809987" lon="8.46551468750788"><ele>3.0</ele><time>2026-04-18T13:50:05Z</time></trkpt><trkpt lat="39.05700842344915" lon="8.465666218639614"><ele>3.0</ele><time>2026-04-18T13:50:06Z</time></trkpt><trkpt lat="39.05704761488967" lon="8.465809488582206"><ele>3.0</ele><time>2026-04-18T13:50:07Z</time></trkpt><trkpt lat="39.05708771047505" lon="8.46594611366046"><ele>3.0</ele><time>2026-04-18T13:50:08Z</time></trkpt><trkpt lat="39.05712497090868" lon="8.466088084998255"><ele>3.0</ele><time>2026-04-18T13:50:09Z</time></trkpt><trkpt lat="39.05715842352144" lon="8.466235556381399"><ele>3.0</ele><time>2026-04-18T13:50:10Z</time></trkpt><trkpt lat="39.05719389781008" lon="8.466384628047187"><ele>3.0</ele><time>2026-04-18T13:50:11Z</time></trkpt><trkpt lat="39.057232730825305" lon="8.466536349729369"><ele>2.75</ele><time>2026-04-18T13:50:12Z</time></trkpt><trkpt lat="39.05727083891625" lon="8.466693799740288"><ele>2.5</ele><time>2026-04-18T13:50:13Z</time></trkpt><trkpt lat="39.057311620308134" lon="8.466848932271123"><ele>2.25</ele><time>2026-04-18T13:50:14Z</time></trkpt><trkpt lat="39.05735208744955" lon="8.467007613685714"><ele>2.0</ele><time>2026-04-18T13:50:15Z</time></trkpt><trkpt lat="39.057392395984664" lon="8.467164410733899"><ele>2.0</ele><time>2026-04-18T13:50:16Z</time></trkpt><trkpt lat="39.05743237332734" lon="8.467327370776205"><ele>2.0</ele><time>2026-04-18T13:50:17Z</time></trkpt><trkpt lat="39.05746987200218" lon="8.467499392933647"><ele>2.0</ele><time>2026-04-18T13:50:18Z</time></trkpt><trkpt lat="39.057510566991176" lon="8.467675959379036"><ele>2.0</ele><time>2026-04-18T13:50:19Z</time></trkpt><trkpt lat="39.057557364385005" lon="8.467855978120983"><ele>2.25</ele><time>2026-04-18T13:50:20Z</time></trkpt><trkpt lat="39.05760475982709" lon="8.468038195638046"><ele>2.5</ele><time>2026-04-18T13:50:21Z</time></trkpt><trkpt lat="39.05765082260412" lon="8.468219549486669"><ele>2.75</ele><time>2026-04-18T13:50:22Z</time></trkpt><trkpt lat="39.05769488997455" lon="8.468404972855696"><ele>3.0</ele><time>2026-04-18T13:50:23Z</time></trkpt><trkpt lat="39.05774117560042" lon="8.468589043751674"><ele>3.0</ele><time>2026-04-18T13:50:24Z</time></trkpt><trkpt lat="39.05779386128136" lon="8.46877010314535"><ele>3.0</ele><time>2026-04-18T13:50:25Z</time></trkpt><trkpt lat="39.05785430871604" lon="8.4689477509522"><ele>3.0</ele><time>2026-04-18T13:50:26Z</time></trkpt><trkpt lat="39.057913274407106" lon="8.469125803834519"><ele>2.5</ele><time>2026-04-18T13:50:27Z</time></trkpt><trkpt lat="39.057969322026736" lon="8.469305647863207"><ele>2.0</ele><time>2026-04-18T13:50:28Z</time></trkpt><trkpt lat="39.058024162501646" lon="8.469483771778123"><ele>1.5</ele><time>2026-04-18T13:50:29Z</time></trkpt><trkpt lat="39.058075215504964" lon="8.469660625036218"><ele>1.0</ele><time>2026-04-18T13:50:30Z</time></trkpt><trkpt lat="39.05812748296255" lon="8.469831249963205"><ele>1.0</ele><time>2026-04-18T13:50:31Z</time></trkpt><trkpt lat="39.05817998246849" lon="8.469999391567852"><ele>1.0</ele><time>2026-04-18T13:50:32Z</time></trkpt><trkpt lat="39.05823260750929" lon="8.47016221100773"><ele>1.0</ele><time>2026-04-18T13:50:33Z</time></trkpt><trkpt lat="39.05828437394349" lon="8.470329632359633"><ele>1.0</ele><time>2026-04-18T13:50:34Z</time></trkpt><trkpt lat="39.05833593702595" lon="8.470491858525623"><ele>1.25</ele><time>2026-04-18T13:50:35Z</time></trkpt><trkpt lat="39.058389177291446" lon="8.470656261653202"><ele>1.5</ele><time>2026-04-18T13:50:36Z</time></trkpt><trkpt lat="39.058441638486265" lon="8.470821802672793"><ele>1.75</ele><time>2026-04-18T13:50:37Z</time></trkpt><trkpt lat="39.05849102340104" lon="8.470990988986333"><ele>2.0</ele><time>2026-04-18T13:50:38Z</time></trkpt><trkpt lat="39.05854168295364" lon="8.471161422098955"><ele>1.75</ele><time>2026-04-18T13:50:39Z</time></trkpt><trkpt lat="39.058586017886014" lon="8.471335237563741"><ele>1.5</ele><time>2026-04-18T13:50:40Z</time></trkpt><trkpt lat="39.058613682047" lon="8.471514564270834"><ele>1.25</ele><time>2026-04-18T13:50:41Z</time></trkpt><trkpt lat="39.0586365850174" lon="8.471693769597877"><ele>1.0</ele><time>2026-04-18T13:50:42Z</time></trkpt><trkpt lat="39.05864835545045" lon="8.47187519963649"><ele>1.0</ele><time>2026-04-18T13:50:43Z</time></trkpt><trkpt lat="39.05864646505065" lon="8.472055517470716"><ele>1.0</ele><time>2026-04-18T13:50:44Z</time></trkpt><trkpt lat="39.05864179621132" lon="8.472237410497302"><ele>1.0</ele><time>2026-04-18T13:50:45Z</time></trkpt><trkpt lat="39.05864175642617" lon="8.472422524279803"><ele>1.0</ele><time>2026-04-18T13:50:46Z</time></trkpt><trkpt lat="39.058642122101666" lon="8.472606378783787"><ele>1.3333333333333333</ele><time>2026-04-18T13:50:47Z</time></trkpt><trkpt lat="39.058643648330495" lon="8.47279872444027"><ele>1.6666666666666665</ele><time>2026-04-18T13:50:48Z</time></trkpt><trkpt lat="39.058647359951685" lon="8.472990133828807"><ele>2.0</ele><time>2026-04-18T13:50:49Z</time></trkpt><trkpt lat="39.05865718537614" lon="8.473185981541079"><ele>2.0</ele><time>2026-04-18T13:50:50Z</time></trkpt><trkpt lat="39.05867246739389" lon="8.473381677501655"><ele>2.0</ele><time>2026-04-18T13:50:51Z</time></trkpt><trkpt lat="39.05869037060609" lon="8.473578339197"><ele>2.0</ele><time>2026-04-18T13:50:52Z</time></trkpt><trkpt lat="39.058712887445495" lon="8.47377645258739"><ele>2.0</ele><time>2026-04-18T13:50:53Z</time></trkpt><trkpt lat="39.05874302411205" lon="8.47397569627353"><ele>2.0</ele><time>2026-04-18T13:50:54Z</time></trkpt><trkpt lat="39.058780290358854" lon="8.474175074218186"><ele>2.0</ele><time>2026-04-18T13:50:55Z</time></trkpt><trkpt lat="39.05882362702018" lon="8.474374937559476"><ele>2.0</ele><time>2026-04-18T13:50:56Z</time></trkpt><trkpt lat="39.05887405695433" lon="8.474571395483467"><ele>2.0</ele><time>2026-04-18T13:50:57Z</time></trkpt><trkpt lat="39.05893264417851" lon="8.474767663337188"><ele>2.0</ele><time>2026-04-18T13:50:58Z</time></trkpt><trkpt lat="39.05899189042623" lon="8.47495838680769"><ele>1.6666666666666665</ele><time>2026-04-18T13:50:59Z</time></trkpt><trkpt lat="39.059056824807094" lon="8.475153421813408"><ele>1.3333333333333333</ele><time>2026-04-18T13:51:00Z</time></trkpt><trkpt lat="39.059122624301246" lon="8.47534146898149"><ele>1.0</ele><time>2026-04-18T13:51:01Z</time></trkpt><trkpt lat="39.05919590001596" lon="8.475527228864614"><ele>0.6666666666666666</ele><time>2026-04-18T13:51:02Z</time></trkpt><trkpt lat="39.05927574522777" lon="8.47570512124495"><ele>0.3333333333333333</ele><time>2026-04-18T13:51:03Z</time></trkpt><trkpt lat="39.059359902062965" lon="8.475872214155"><ele>0.0</ele><time>2026-04-18T13:51:04Z</time></trkpt><trkpt lat="39.05943960875942" lon="8.476044551171325"><ele>0.0</ele><time>2026-04-18T13:51:05Z</time></trkpt><trkpt lat="39.05951726122822" lon="8.476216540356557"><ele>0.0</ele><time>2026-04-18T13:51:06Z</time></trkpt><trkpt lat="39.05959586979413" lon="8.476384534883213"><ele>0.0</ele><time>2026-04-18T13:51:07Z</time></trkpt><trkpt lat="39.05967494322198" lon="8.476550687952509"><ele>0.0</ele><time>2026-04-18T13:51:08Z</time></trkpt><trkpt lat="39.059757533339244" lon="8.476712684275675"><ele>0.0</ele><time>2026-04-18T13:51:09Z</time></trkpt><trkpt lat="39.05983874232939" lon="8.476877665912294"><ele>0.0</ele><time>2026-04-18T13:51:10Z</time></trkpt><trkpt lat="39.059915288302285" lon="8.47704715384154"><ele>0.3333333333333333</ele><time>2026-04-18T13:51:11Z</time></trkpt><trkpt lat="39.05999214852589" lon="8.477216786662472"><ele>0.6666666666666666</ele><time>2026-04-18T13:51:12Z</time></trkpt><trkpt lat="39.06007269506742" lon="8.477383832095272"><ele>1.0</ele><time>2026-04-18T13:51:13Z</time></trkpt><trkpt lat="39.06015704370177" lon="8.477551551349384"><ele>1.0</ele><time>2026-04-18T13:51:14Z</time></trkpt><trkpt lat="39.06024356654664" lon="8.47771384885181"><ele>1.0</ele><time>2026-04-18T13:51:15Z</time></trkpt><trkpt lat="39.060332739221586" lon="8.477874882610825"><ele>1.0</ele><time>2026-04-18T13:51:16Z</time></trkpt><trkpt lat="39.0604361207945" lon="8.478020748745575"><ele>1.0</ele><time>2026-04-18T13:51:17Z</time></trkpt><trkpt lat="39.060543696904034" lon="8.478165256888271"><ele>1.0</ele><time>2026-04-18T13:51:18Z</time></trkpt><trkpt lat="39.06065796216299" lon="8.478296446730054"><ele>1.0</ele><time>2026-04-18T13:51:19Z</time></trkpt><trkpt lat="39.06077953267655" lon="8.478418025560812"><ele>1.0</ele><time>2026-04-18T13:51:20Z</time></trkpt><trkpt lat="39.06090528918289" lon="8.478532075764448"><ele>1.0</ele><time>2026-04-18T13:51:21Z</time></trkpt><trkpt lat="39.06103564968508" lon="8.478635413782573"><ele>1.0</ele><time>2026-04-18T13:51:22Z</time></trkpt><trkpt lat="39.061172446615345" lon="8.478728358370748"><ele>1.3333333333333333</ele><time>2026-04-18T13:51:23Z</time></trkpt><trkpt lat="39.06131434067885" lon="8.478808081703923"><ele>1.6666666666666665</ele><time>2026-04-18T13:51:24Z</time></trkpt><trkpt lat="39.06145959488518" lon="8.478875160512727"><ele>2.0</ele><time>2026-04-18T13:51:25Z</time></trkpt><trkpt lat="39.0616030558348" lon="8.478927721379087"><ele>1.75</ele><time>2026-04-18T13:51:26Z</time></trkpt><trkpt lat="39.061751824733435" lon="8.478962918638064"><ele>1.5</ele><time>2026-04-18T13:51:27Z</time></trkpt><trkpt lat="39.061898818473615" lon="8.478990343416141"><ele>1.25</ele><time>2026-04-18T13:51:28Z</time></trkpt><trkpt lat="39.0620472728499" lon="8.47900845135764"><ele>1.0</ele><time>2026-04-18T13:51:29Z</time></trkpt><trkpt lat="39.06220239908915" lon="8.479017420389448"><ele>1.0</ele><time>2026-04-18T13:51:30Z</time></trkpt><trkpt lat="39.06235784838365" lon="8.479015168197321"><ele>1.0</ele><time>2026-04-18T13:51:31Z</time></trkpt><trkpt lat="39.06251691005925" lon="8.4789998401006"><ele>1.0</ele><time>2026-04-18T13:51:32Z</time></trkpt><trkpt lat="39.06267723814329" lon="8.478969369780378"><ele>1.0</ele><time>2026-04-18T13:51:33Z</time></trkpt><trkpt lat="39.06283795174213" lon="8.47893875240306"><ele>1.0</ele><time>2026-04-18T13:51:34Z</time></trkpt><trkpt lat="39.0629981530401" lon="8.47890759891799"><ele>1.0</ele><time>2026-04-18T13:51:35Z</time></trkpt><trkpt lat="39.063162377999674" lon="8.478874670648"><ele>0.3333333333333333</ele><time>2026-04-18T13:51:36Z</time></trkpt><trkpt lat="39.063322304055596" lon="8.478843328091058"><ele>-0.3333333333333333</ele><time>2026-04-18T13:51:37Z</time></trkpt><trkpt lat="39.06348548635744" lon="8.478811710313526"><ele>-1.0</ele><time>2026-04-18T13:51:38Z</time></trkpt><trkpt lat="39.063646546416905" lon="8.478781661459292"><ele>-0.3333333333333333</ele><time>2026-04-18T13:51:39Z</time></trkpt><trkpt lat="39.063812265134416" lon="8.478753914012637"><ele>0.3333333333333333</ele><time>2026-04-18T13:51:40Z</time></trkpt><trkpt lat="39.063975816142346" lon="8.478727061421761"><ele>1.0</ele><time>2026-04-18T13:51:41Z</time></trkpt><trkpt lat="39.06414170589559" lon="8.47869650476616"><ele>1.0</ele><time>2026-04-18T13:51:42Z</time></trkpt><trkpt lat="39.06430406950959" lon="8.478664246091485"><ele>1.0</ele><time>2026-04-18T13:51:43Z</time></trkpt><trkpt lat="39.064466844616156" lon="8.478633259137196"><ele>1.0</ele><time>2026-04-18T13:51:44Z</time></trkpt><trkpt lat="39.06462645395242" lon="8.47860645617452"><ele>1.0</ele><time>2026-04-18T13:51:45Z</time></trkpt><trkpt lat="39.06478450957739" lon="8.478579267840315"><ele>1.0</ele><time>2026-04-18T13:51:46Z</time></trkpt><trkpt lat="39.06493647856046" lon="8.478551283867487"><ele>1.0</ele><time>2026-04-18T13:51:47Z</time></trkpt><trkpt lat="39.0650884974375" lon="8.478523297652266"><ele>0.6666666666666666</ele><time>2026-04-18T13:51:48Z</time></trkpt><trkpt lat="39.06524348647441" lon="8.478492780046457"><ele>0.3333333333333333</ele><time>2026-04-18T13:51:49Z</time></trkpt><trkpt lat="39.06539566581703" lon="8.47846564815181"><ele>0.0</ele><time>2026-04-18T13:51:50Z</time></trkpt><trkpt lat="39.06554941573564" lon="8.478441113540132"><ele>0.0</ele><time>2026-04-18T13:51:51Z</time></trkpt><trkpt lat="39.06570044785806" lon="8.478413854458976"><ele>0.0</ele><time>2026-04-18T13:51:52Z</time></trkpt><trkpt lat="39.065853372278454" lon="8.47838631471428"><ele>0.0</ele><time>2026-04-18T13:51:53Z</time></trkpt><trkpt lat="39.06600599646684" lon="8.478355279603878"><ele>0.3333333333333333</ele><time>2026-04-18T13:51:54Z</time></trkpt><trkpt lat="39.06616186602499" lon="8.478328376281919"><ele>0.6666666666666666</ele><time>2026-04-18T13:51:55Z</time></trkpt><trkpt lat="39.066315216215074" lon="8.478307387380786"><ele>1.0</ele><time>2026-04-18T13:51:56Z</time></trkpt><trkpt lat="39.06646932170776" lon="8.478283253089279"><ele>0.6666666666666666</ele><time>2026-04-18T13:51:57Z</time></trkpt><trkpt lat="39.066630930749945" lon="8.478255796463795"><ele>0.3333333333333333</ele><time>2026-04-18T13:51:58Z</time></trkpt><trkpt lat="39.06679494506948" lon="8.478225224686517"><ele>0.0</ele><time>2026-04-18T13:51:59Z</time></trkpt><trkpt lat="39.066960638844634" lon="8.478197041019872"><ele>0.0</ele><time>2026-04-18T13:52:00Z</time></trkpt><trkpt lat="39.06712817816409" lon="8.4781662788469"><ele>0.0</ele><time>2026-04-18T13:52:01Z</time></trkpt><trkpt lat="39.06729939139684" lon="8.4781322468075"><ele>0.0</ele><time>2026-04-18T13:52:02Z</time></trkpt><trkpt lat="39.06746785543083" lon="8.478101880906138"><ele>0.0</ele><time>2026-04-18T13:52:03Z</time></trkpt><trkpt lat="39.067637051200805" lon="8.478073489048409"><ele>0.0</ele><time>2026-04-18T13:52:04Z</time></trkpt><trkpt lat="39.06780469268847" lon="8.478044530861702"><ele>0.0</ele><time>2026-04-18T13:52:05Z</time></trkpt><trkpt lat="39.06797384326373" lon="8.478010306956167"><ele>0.0</ele><time>2026-04-18T13:52:06Z</time></trkpt><trkpt lat="39.068140878396825" lon="8.477976498811113"><ele>0.0</ele><time>2026-04-18T13:52:07Z</time></trkpt><trkpt lat="39.06830707553675" lon="8.47794458662762"><ele>0.0</ele><time>2026-04-18T13:52:08Z</time></trkpt><trkpt lat="39.06847113855836" lon="8.477917710391898"><ele>0.0</ele><time>2026-04-18T13:52:09Z</time></trkpt><trkpt lat="39.06863829179186" lon="8.477891336307174"><ele>0.0</ele><time>2026-04-18T13:52:10Z</time></trkpt><trkpt lat="39.06881264657014" lon="8.477862606863036"><ele>0.0</ele><time>2026-04-18T13:52:11Z</time></trkpt><trkpt lat="39.06898850546757" lon="8.477834345037282"><ele>0.0</ele><time>2026-04-18T13:52:12Z</time></trkpt><trkpt lat="39.06917164976291" lon="8.477815458639258"><ele>0.0</ele><time>2026-04-18T13:52:13Z</time></trkpt><trkpt lat="39.069366530339614" lon="8.477821865470002"><ele>0.0</ele><time>2026-04-18T13:52:14Z</time></trkpt><trkpt lat="39.06956888193832" lon="8.47784892066061"><ele>0.0</ele><time>2026-04-18T13:52:15Z</time></trkpt><trkpt lat="39.06977596534522" lon="8.47789555724249"><ele>0.0</ele><time>2026-04-18T13:52:16Z</time></trkpt><trkpt lat="39.06997616300952" lon="8.477967679572872"><ele>0.0</ele><time>2026-04-18T13:52:17Z</time></trkpt><trkpt lat="39.07016970782789" lon="8.478070351308295"><ele>0.0</ele><time>2026-04-18T13:52:18Z</time></trkpt><trkpt lat="39.070355527207155" lon="8.478192507603564"><ele>0.0</ele><time>2026-04-18T13:52:19Z</time></trkpt><trkpt lat="39.070530381844755" lon="8.478325566285905"><ele>0.0</ele><time>2026-04-18T13:52:20Z</time></trkpt><trkpt lat="39.0706948844449" lon="8.478471662545937"><ele>0.0</ele><time>2026-04-18T13:52:21Z</time></trkpt><trkpt lat="39.07084933536715" lon="8.478620582591967"><ele>0.0</ele><time>2026-04-18T13:52:22Z</time></trkpt><trkpt lat="39.070996186965075" lon="8.478760090009423"><ele>0.0</ele><time>2026-04-18T13:52:23Z</time></trkpt><trkpt lat="39.07113379549174" lon="8.478888949305627"><ele>0.0</ele><time>2026-04-18T13:52:24Z</time></trkpt><trkpt lat="39.07126585034727" lon="8.479011326296046"><ele>0.0</ele><time>2026-04-18T13:52:25Z</time></trkpt><trkpt lat="39.07139190924196" lon="8.479128971617797"><ele>0.0</ele><time>2026-04-18T13:52:26Z</time></trkpt><trkpt lat="39.07151463246036" lon="8.479242779038147"><ele>0.0</ele><time>2026-04-18T13:52:27Z</time></trkpt><trkpt lat="39.07163247798946" lon="8.47935112414781"><ele>0.0</ele><time>2026-04-18T13:52:28Z</time></trkpt><trkpt lat="39.07175017318939" lon="8.479461742523506"><ele>0.0</ele><time>2026-04-18T13:52:29Z</time></trkpt><trkpt lat="39.07186509211948" lon="8.479568433628529"><ele>0.0</ele><time>2026-04-18T13:52:30Z</time></trkpt><trkpt lat="39.071975579285635" lon="8.479671569148577"><ele>0.0</ele><time>2026-04-18T13:52:31Z</time></trkpt><trkpt lat="39.07208521078616" lon="8.479774545256278"><ele>0.0</ele><time>2026-04-18T13:52:32Z</time></trkpt><trkpt lat="39.072192340308206" lon="8.479875418729872"><ele>0.0</ele><time>2026-04-18T13:52:33Z</time></trkpt><trkpt lat="39.07229270515816" lon="8.479970492949375"><ele>0.0</ele><time>2026-04-18T13:52:34Z</time></trkpt><trkpt lat="39.07238885579575" lon="8.480057986377675"><ele>0.0</ele><time>2026-04-18T13:52:35Z</time></trkpt><trkpt lat="39.07248117589417" lon="8.480146034562873"><ele>0.0</ele><time>2026-04-18T13:52:36Z</time></trkpt><trkpt lat="39.07257909363381" lon="8.480238686859629"><ele>0.0</ele><time>2026-04-18T13:52:37Z</time></trkpt><trkpt lat="39.072682848274916" lon="8.480329159201487"><ele>0.0</ele><time>2026-04-18T13:52:38Z</time></trkpt><trkpt lat="39.07279311140815" lon="8.480419566452753"><ele>0.25</ele><time>2026-04-18T13:52:39Z</time></trkpt><trkpt lat="39.072907054283675" lon="8.480505577732345"><ele>0.5</ele><time>2026-04-18T13:52:40Z</time></trkpt><trkpt lat="39.07302385202704" lon="8.480589286790075"><ele>0.75</ele><time>2026-04-18T13:52:41Z</time></trkpt><trkpt lat="39.07314256098656" lon="8.480676851686946"><ele>1.0</ele><time>2026-04-18T13:52:42Z</time></trkpt><trkpt lat="39.073259030320465" lon="8.480774506812116"><ele>1.0</ele><time>2026-04-18T13:52:43Z</time></trkpt><trkpt lat="39.07337848700094" lon="8.480870420080532"><ele>1.0</ele><time>2026-04-18T13:52:44Z</time></trkpt><trkpt lat="39.07350271697373" lon="8.480962115683118"><ele>1.0</ele><time>2026-04-18T13:52:45Z</time></trkpt><trkpt lat="39.073627513095786" lon="8.481059849682262"><ele>1.0</ele><time>2026-04-18T13:52:46Z</time></trkpt><trkpt lat="39.07375379923094" lon="8.481161749771688"><ele>1.0</ele><time>2026-04-18T13:52:47Z</time></trkpt><trkpt lat="39.07388036705912" lon="8.481264670839005"><ele>1.0</ele><time>2026-04-18T13:52:48Z</time></trkpt><trkpt lat="39.074010298023545" lon="8.481367712620441"><ele>1.0</ele><time>2026-04-18T13:52:49Z</time></trkpt><trkpt lat="39.07414356553402" lon="8.48146738886265"><ele>0.6666666666666666</ele><time>2026-04-18T13:52:50Z</time></trkpt><trkpt lat="39.074277042084084" lon="8.481568233077551"><ele>0.3333333333333333</ele><time>2026-04-18T13:52:51Z</time></trkpt><trkpt lat="39.07441023015805" lon="8.481668895342445"><ele>0.0</ele><time>2026-04-18T13:52:52Z</time></trkpt><trkpt lat="39.07454058067627" lon="8.481769914356084"><ele>0.0</ele><time>2026-04-18T13:52:53Z</time></trkpt><trkpt lat="39.07467217430297" lon="8.48187058565363"><ele>0.0</ele><time>2026-04-18T13:52:54Z</time></trkpt><trkpt lat="39.074807046003976" lon="8.48197115447923"><ele>0.0</ele><time>2026-04-18T13:52:55Z</time></trkpt><trkpt lat="39.07494227899737" lon="8.482073910593426"><ele>0.0</ele><time>2026-04-18T13:52:56Z</time></trkpt><trkpt lat="39.075078675076135" lon="8.482180815449391"><ele>0.0</ele><time>2026-04-18T13:52:57Z</time></trkpt><trkpt lat="39.07521384248449" lon="8.482284573473757"><ele>0.0</ele><time>2026-04-18T13:52:58Z</time></trkpt><trkpt lat="39.07534834685646" lon="8.482387017252636"><ele>0.0</ele><time>2026-04-18T13:52:59Z</time></trkpt><trkpt lat="39.07547466202015" lon="8.482485701004059"><ele>0.0</ele><time>2026-04-18T13:53:00Z</time></trkpt><trkpt lat="39.07559502348332" lon="8.482578102323258"><ele>0.0</ele><time>2026-04-18T13:53:01Z</time></trkpt><trkpt lat="39.07571206639168" lon="8.48266634061245"><ele>0.0</ele><time>2026-04-18T13:53:02Z</time></trkpt><trkpt lat="39.07583055042625" lon="8.48275666746775"><ele>0.25</ele><time>2026-04-18T13:53:03Z</time></trkpt><trkpt lat="39.07594931342902" lon="8.482848629415043"><ele>0.5</ele><time>2026-04-18T13:53:04Z</time></trkpt><trkpt lat="39.07606975496827" lon="8.482939623777629"><ele>0.75</ele><time>2026-04-18T13:53:05Z</time></trkpt><trkpt lat="39.076190841380175" lon="8.483032207486856"><ele>1.0</ele><time>2026-04-18T13:53:06Z</time></trkpt><trkpt lat="39.076313561489165" lon="8.483126226278637"><ele>1.0</ele><time>2026-04-18T13:53:07Z</time></trkpt><trkpt lat="39.07643660481772" lon="8.483219159934631"><ele>1.0</ele><time>2026-04-18T13:53:08Z</time></trkpt><trkpt lat="39.076563546573205" lon="8.483311430192394"><ele>1.0</ele><time>2026-04-18T13:53:09Z</time></trkpt><trkpt lat="39.07668928542386" lon="8.483406486782142"><ele>1.0</ele><time>2026-04-18T13:53:10Z</time></trkpt><trkpt lat="39.07681746355935" lon="8.483509626465962"><ele>1.0</ele><time>2026-04-18T13:53:11Z</time></trkpt><trkpt lat="39.07694457449768" lon="8.48361057388836"><ele>1.0</ele><time>2026-04-18T13:53:12Z</time></trkpt><trkpt lat="39.07707405817326" lon="8.48371159764932"><ele>1.0</ele><time>2026-04-18T13:53:13Z</time></trkpt><trkpt lat="39.07720535449976" lon="8.483810554599684"><ele>1.0</ele><time>2026-04-18T13:53:14Z</time></trkpt><trkpt lat="39.07734164284346" lon="8.483907681871374"><ele>1.0</ele><time>2026-04-18T13:53:15Z</time></trkpt><trkpt lat="39.07748696881038" lon="8.484004016992557"><ele>1.0</ele><time>2026-04-18T13:53:16Z</time></trkpt><trkpt lat="39.07764412874972" lon="8.484104961152786"><ele>1.0</ele><time>2026-04-18T13:53:17Z</time></trkpt><trkpt lat="39.07780772482754" lon="8.484220680885992"><ele>1.0</ele><time>2026-04-18T13:53:18Z</time></trkpt><trkpt lat="39.07798990684748" lon="8.484364198439977"><ele>1.0</ele><time>2026-04-18T13:53:19Z</time></trkpt><trkpt lat="39.07818858069868" lon="8.484508905095558"><ele>1.5</ele><time>2026-04-18T13:53:20Z</time></trkpt><trkpt lat="39.0783826574302" lon="8.484652015756609"><ele>2.0</ele><time>2026-04-18T13:53:21Z</time></trkpt><trkpt lat="39.07858250070848" lon="8.484811933019092"><ele>2.0</ele><time>2026-04-18T13:53:22Z</time></trkpt><trkpt lat="39.0787705306558" lon="8.485000334178844"><ele>2.0</ele><time>2026-04-18T13:53:23Z</time></trkpt><trkpt lat="39.07897136355054" lon="8.485148188178645"><ele>2.0</ele><time>2026-04-18T13:53:24Z</time></trkpt><trkpt lat="39.07916326306029" lon="8.485306987178872"><ele>2.0</ele><time>2026-04-18T13:53:25Z</time></trkpt><trkpt lat="39.0793614690244" lon="8.485456048558275"><ele>2.0</ele><time>2026-04-18T13:53:26Z</time></trkpt><trkpt lat="39.07956167591047" lon="8.485604045609355"><ele>2.0</ele><time>2026-04-18T13:53:27Z</time></trkpt><trkpt lat="39.07976220213587" lon="8.485753430449483"><ele>2.0</ele><time>2026-04-18T13:53:28Z</time></trkpt><trkpt lat="39.07995766948029" lon="8.485900054974104"><ele>2.0</ele><time>2026-04-18T13:53:29Z</time></trkpt><trkpt lat="39.08015205267769" lon="8.486042180644358"><ele>2.0</ele><time>2026-04-18T13:53:30Z</time></trkpt><trkpt lat="39.080348252798004" lon="8.486186364421545"><ele>2.0</ele><time>2026-04-18T13:53:31Z</time></trkpt><trkpt lat="39.0805401187638" lon="8.486333894134487"><ele>2.0</ele><time>2026-04-18T13:53:32Z</time></trkpt><trkpt lat="39.08073139629105" lon="8.486481807417341"><ele>2.333333333333333</ele><time>2026-04-18T13:53:33Z</time></trkpt><trkpt lat="39.08092160526017" lon="8.48662988010507"><ele>2.6666666666666665</ele><time>2026-04-18T13:53:34Z</time></trkpt><trkpt lat="39.081112059996094" lon="8.486778323321696"><ele>3.0</ele><time>2026-04-18T13:53:35Z</time></trkpt><trkpt lat="39.08130403000541" lon="8.486924361359273"><ele>3.0</ele><time>2026-04-18T13:53:36Z</time></trkpt><trkpt lat="39.081495737880516" lon="8.487066086864958"><ele>3.0</ele><time>2026-04-18T13:53:37Z</time></trkpt><trkpt lat="39.08168561010897" lon="8.487211598319865"><ele>3.0</ele><time>2026-04-18T13:53:38Z</time></trkpt><trkpt lat="39.08187627076059" lon="8.487363140446517"><ele>3.0</ele><time>2026-04-18T13:53:39Z</time></trkpt><trkpt lat="39.08206741443047" lon="8.487510659331873"><ele>3.0</ele><time>2026-04-18T13:53:40Z</time></trkpt><trkpt lat="39.08225790273544" lon="8.48765613776983"><ele>3.0</ele><time>2026-04-18T13:53:41Z</time></trkpt><trkpt lat="39.08244779579167" lon="8.487802065544157"><ele>2.3333333333333335</ele><time>2026-04-18T13:53:42Z</time></trkpt><trkpt lat="39.082638359548035" lon="8.487945849293293"><ele>1.6666666666666665</ele><time>2026-04-18T13:53:43Z</time></trkpt><trkpt lat="39.08283101137276" lon="8.4880883518584"><ele>1.0</ele><time>2026-04-18T13:53:44Z</time></trkpt><trkpt lat="39.08302066862733" lon="8.488232945957543"><ele>1.0</ele><time>2026-04-18T13:53:45Z</time></trkpt><trkpt lat="39.08320607057449" lon="8.488379209527295"><ele>1.0</ele><time>2026-04-18T13:53:46Z</time></trkpt><trkpt lat="39.08339270132985" lon="8.488523454739209"><ele>1.0</ele><time>2026-04-18T13:53:47Z</time></trkpt><trkpt lat="39.083575079283136" lon="8.488684469925042"><ele>0.3333333333333333</ele><time>2026-04-18T13:53:48Z</time></trkpt><trkpt lat="39.083774077296354" lon="8.488806172423738"><ele>-0.3333333333333333</ele><time>2026-04-18T13:53:49Z</time></trkpt><trkpt lat="39.083967029016314" lon="8.488942104024508"><ele>-1.0</ele><time>2026-04-18T13:53:50Z</time></trkpt><trkpt lat="39.08416289364811" lon="8.489062627425863"><ele>0.33333333333333337</ele><time>2026-04-18T13:53:51Z</time></trkpt><trkpt lat="39.084363702718804" lon="8.489173217368734"><ele>1.6666666666666667</ele><time>2026-04-18T13:53:52Z</time></trkpt><trkpt lat="39.08457122073806" lon="8.48926585167515"><ele>3.0</ele><time>2026-04-18T13:53:53Z</time></trkpt><trkpt lat="39.08477703438737" lon="8.4893476435657"><ele>2.3333333333333335</ele><time>2026-04-18T13:53:54Z</time></trkpt><trkpt lat="39.08498121046638" lon="8.489411779980806"><ele>1.6666666666666665</ele><time>2026-04-18T13:53:55Z</time></trkpt><trkpt lat="39.08518506105348" lon="8.489462411631074"><ele>1.0</ele><time>2026-04-18T13:53:56Z</time></trkpt><trkpt lat="39.08539017856231" lon="8.489504966437561"><ele>1.0</ele><time>2026-04-18T13:53:57Z</time></trkpt><trkpt lat="39.08559649737973" lon="8.489545277108203"><ele>1.0</ele><time>2026-04-18T13:53:58Z</time></trkpt><trkpt lat="39.08580434360532" lon="8.489582037448557"><ele>1.0</ele><time>2026-04-18T13:53:59Z</time></trkpt><trkpt lat="39.08601398537111" lon="8.489619958974986"><ele>0.3333333333333333</ele><time>2026-04-18T13:54:00Z</time></trkpt><trkpt lat="39.08622246023728" lon="8.489659093680242"><ele>-0.3333333333333333</ele><time>2026-04-18T13:54:01Z</time></trkpt><trkpt lat="39.08643338800575" lon="8.48969803276029"><ele>-1.0</ele><time>2026-04-18T13:54:02Z</time></trkpt><trkpt lat="39.086646835501654" lon="8.489735960732647"><ele>-1.0</ele><time>2026-04-18T13:54:03Z</time></trkpt><trkpt lat="39.08686079161906" lon="8.4897743748663"><ele>-1.0</ele><time>2026-04-18T13:54:04Z</time></trkpt><trkpt lat="39.08707413670735" lon="8.489814122684798"><ele>-1.0</ele><time>2026-04-18T13:54:05Z</time></trkpt><trkpt lat="39.087282258579606" lon="8.489853783626875"><ele>-1.0</ele><time>2026-04-18T13:54:06Z</time></trkpt><trkpt lat="39.08749015494472" lon="8.489894586576483"><ele>-1.0</ele><time>2026-04-18T13:54:07Z</time></trkpt><trkpt lat="39.087693116796984" lon="8.489934192185064"><ele>-1.0</ele><time>2026-04-18T13:54:08Z</time></trkpt><trkpt lat="39.08789639063016" lon="8.489973981843477"><ele>-1.0</ele><time>2026-04-18T13:54:09Z</time></trkpt><trkpt lat="39.088094272924536" lon="8.490021730765477"><ele>-1.0</ele><time>2026-04-18T13:54:10Z</time></trkpt><trkpt lat="39.08829002148576" lon="8.490082703928254"><ele>-1.0</ele><time>2026-04-18T13:54:11Z</time></trkpt><trkpt lat="39.08848088128317" lon="8.49017463404906"><ele>-0.3333333333333333</ele><time>2026-04-18T13:54:12Z</time></trkpt><trkpt lat="39.08866935193173" lon="8.490282972704318"><ele>0.3333333333333333</ele><time>2026-04-18T13:54:13Z</time></trkpt><trkpt lat="39.08885005532883" lon="8.49041305354682"><ele>1.0</ele><time>2026-04-18T13:54:14Z</time></trkpt><trkpt lat="39.08901527707833" lon="8.49056652866751"><ele>1.0</ele><time>2026-04-18T13:54:15Z</time></trkpt><trkpt lat="39.08917464825235" lon="8.490746277540039"><ele>1.0</ele><time>2026-04-18T13:54:16Z</time></trkpt><trkpt lat="39.08932148693129" lon="8.490940712739217"><ele>1.0</ele><time>2026-04-18T13:54:17Z</time></trkpt><trkpt lat="39.08946565487374" lon="8.49114750733974"><ele>1.0</ele><time>2026-04-18T13:54:18Z</time></trkpt><trkpt lat="39.08961084610771" lon="8.491364248166283"><ele>1.0</ele><time>2026-04-18T13:54:19Z</time></trkpt><trkpt lat="39.08974339999075" lon="8.491569859941217"><ele>1.0</ele><time>2026-04-18T13:54:20Z</time></trkpt><trkpt lat="39.089883968820914" lon="8.491782044424191"><ele>1.0</ele><time>2026-04-18T13:54:21Z</time></trkpt><trkpt lat="39.090026802737654" lon="8.491995251449822"><ele>1.0</ele><time>2026-04-18T13:54:22Z</time></trkpt><trkpt lat="39.090168007211304" lon="8.492206276309515"><ele>1.0</ele><time>2026-04-18T13:54:23Z</time></trkpt><trkpt lat="39.090310295435174" lon="8.49241961867572"><ele>1.0</ele><time>2026-04-18T13:54:24Z</time></trkpt><trkpt lat="39.09045243598122" lon="8.492632266065751"><ele>1.0</ele><time>2026-04-18T13:54:25Z</time></trkpt><trkpt lat="39.090595446896685" lon="8.492844889045001"><ele>1.0</ele><time>2026-04-18T13:54:26Z</time></trkpt><trkpt lat="39.090737542917935" lon="8.49305599815751"><ele>1.3333333333333333</ele><time>2026-04-18T13:54:27Z</time></trkpt><trkpt lat="39.090878422082696" lon="8.493262852143655"><ele>1.6666666666666665</ele><time>2026-04-18T13:54:28Z</time></trkpt><trkpt lat="39.09101579258208" lon="8.493466983635507"><ele>2.0</ele><time>2026-04-18T13:54:29Z</time></trkpt><trkpt lat="39.09115035281489" lon="8.493671382884315"><ele>1.6666666666666665</ele><time>2026-04-18T13:54:30Z</time></trkpt><trkpt lat="39.09128569681743" lon="8.493876286763864"><ele>1.3333333333333333</ele><time>2026-04-18T13:54:31Z</time></trkpt><trkpt lat="39.09142101619664" lon="8.49407906466348"><ele>1.0</ele><time>2026-04-18T13:54:32Z</time></trkpt><trkpt lat="39.091558385021116" lon="8.494283110578998"><ele>1.0</ele><time>2026-04-18T13:54:33Z</time></trkpt><trkpt lat="39.091697537640066" lon="8.494487356737318"><ele>1.0</ele><time>2026-04-18T13:54:34Z</time></trkpt><trkpt lat="39.09183369151262" lon="8.494688970874519"><ele>1.0</ele><time>2026-04-18T13:54:35Z</time></trkpt><trkpt lat="39.09197158174904" lon="8.494892847809709"><ele>1.0</ele><time>2026-04-18T13:54:36Z</time></trkpt><trkpt lat="39.0921088760299" lon="8.495097065170661"><ele>1.0</ele><time>2026-04-18T13:54:37Z</time></trkpt><trkpt lat="39.092246840364595" lon="8.495301125444158"><ele>1.0</ele><time>2026-04-18T13:54:38Z</time></trkpt><trkpt lat="39.09238243808203" lon="8.49550606312142"><ele>1.3333333333333333</ele><time>2026-04-18T13:54:39Z</time></trkpt><trkpt lat="39.092518668647564" lon="8.495710228263427"><ele>1.6666666666666665</ele><time>2026-04-18T13:54:40Z</time></trkpt><trkpt lat="39.09265645873278" lon="8.49591174549312"><ele>2.0</ele><time>2026-04-18T13:54:41Z</time></trkpt><trkpt lat="39.092794024960554" lon="8.496112446135148"><ele>2.333333333333333</ele><time>2026-04-18T13:54:42Z</time></trkpt><trkpt lat="39.09292963150445" lon="8.496314759126712"><ele>2.6666666666666665</ele><time>2026-04-18T13:54:43Z</time></trkpt><trkpt lat="39.0930653224209" lon="8.496516804653673"><ele>3.0</ele><time>2026-04-18T13:54:44Z</time></trkpt><trkpt lat="39.093203292268136" lon="8.49671926933493"><ele>3.0</ele><time>2026-04-18T13:54:45Z</time></trkpt><trkpt lat="39.0933431603714" lon="8.49691262381444"><ele>3.0</ele><time>2026-04-18T13:54:46Z</time></trkpt><trkpt lat="39.0934917865224" lon="8.497107184050016"><ele>3.0</ele><time>2026-04-18T13:54:47Z</time></trkpt><trkpt lat="39.09363991584885" lon="8.497295722559887"><ele>3.333333333333333</ele><time>2026-04-18T13:54:48Z</time></trkpt><trkpt lat="39.09378981307533" lon="8.497484061602606"><ele>3.6666666666666665</ele><time>2026-04-18T13:54:49Z</time></trkpt><trkpt lat="39.09393031751853" lon="8.497690440795902"><ele>4.0</ele><time>2026-04-18T13:54:50Z</time></trkpt><trkpt lat="39.094093358752005" lon="8.497866854592749"><ele>4.0</ele><time>2026-04-18T13:54:51Z</time></trkpt><trkpt lat="39.09424431642307" lon="8.498056809726375"><ele>4.0</ele><time>2026-04-18T13:54:52Z</time></trkpt><trkpt lat="39.09439470887608" lon="8.498245036266844"><ele>4.0</ele><time>2026-04-18T13:54:53Z</time></trkpt><trkpt lat="39.09454281522653" lon="8.498432432275022"><ele>4.0</ele><time>2026-04-18T13:54:54Z</time></trkpt><trkpt lat="39.09469098955966" lon="8.49861926903603"><ele>4.0</ele><time>2026-04-18T13:54:55Z</time></trkpt><trkpt lat="39.094837858470044" lon="8.498802530762205"><ele>4.0</ele><time>2026-04-18T13:54:56Z</time></trkpt><trkpt lat="39.09498527372425" lon="8.498985637209058"><ele>4.0</ele><time>2026-04-18T13:54:57Z</time></trkpt><trkpt lat="39.09512829222025" lon="8.49916942189646"><ele>4.0</ele><time>2026-04-18T13:54:58Z</time></trkpt><trkpt lat="39.09526492020104" lon="8.499355377709495"><ele>4.0</ele><time>2026-04-18T13:54:59Z</time></trkpt><trkpt lat="39.09539143839005" lon="8.49953744743407"><ele>4.0</ele><time>2026-04-18T13:55:00Z</time></trkpt><trkpt lat="39.095509128636515" lon="8.499719780534035"><ele>4.0</ele><time>2026-04-18T13:55:01Z</time></trkpt><trkpt lat="39.095619474727826" lon="8.499900688097878"><ele>4.0</ele><time>2026-04-18T13:55:02Z</time></trkpt><trkpt lat="39.095725216090415" lon="8.50006813622874"><ele>4.0</ele><time>2026-04-18T13:55:03Z</time></trkpt><trkpt lat="39.095828360915014" lon="8.500226502754629"><ele>4.0</ele><time>2026-04-18T13:55:04Z</time></trkpt><trkpt lat="39.09591980590746" lon="8.500378821795815"><ele>4.0</ele><time>2026-04-18T13:55:05Z</time></trkpt><trkpt lat="39.09600659297214" lon="8.500522595671812"><ele>4.4</ele><time>2026-04-18T13:55:06Z</time></trkpt><trkpt lat="39.096085353230386" lon="8.500654106487573"><ele>4.800000000000001</ele><time>2026-04-18T13:55:07Z</time></trkpt><trkpt lat="39.09614963588162" lon="8.500779092984164"><ele>5.199999999999999</ele><time>2026-04-18T13:55:08Z</time></trkpt><trkpt lat="39.096198414840565" lon="8.50088881435916"><ele>5.6</ele><time>2026-04-18T13:55:09Z</time></trkpt><trkpt lat="39.096228317877525" lon="8.500972734348755"><ele>6.0</ele><time>2026-04-18T13:55:10Z</time></trkpt><trkpt lat="39.09623897126081" lon="8.501150463311683"><ele>6.0</ele><time>2026-04-18T13:55:12Z</time></trkpt><trkpt lat="39.09625102306989" lon="8.501245852306214"><ele>6.0</ele><time>2026-04-18T13:55:13Z</time></trkpt><trkpt lat="39.096298119287006" lon="8.50133912865357"><ele>6.0</ele><time>2026-04-18T13:55:14Z</time></trkpt><trkpt lat="39.096371919046625" lon="8.501414383633165"><ele>6.0</ele><time>2026-04-18T13:55:15Z</time></trkpt><trkpt lat="39.0964677677166" lon="8.501464417153802"><ele>6.0</ele><time>2026-04-18T13:55:16Z</time></trkpt><trkpt lat="39.09656442140868" lon="8.501513794401365"><ele>6.0</ele><time>2026-04-18T13:55:17Z</time></trkpt><trkpt lat="39.096643382079016" lon="8.501612479433541"><ele>6.0</ele><time>2026-04-18T13:55:18Z</time></trkpt><trkpt lat="39.09671556141217" lon="8.50174545493979"><ele>6.0</ele><time>2026-04-18T13:55:19Z</time></trkpt><trkpt lat="39.09679516859467" lon="8.5018837293167"><ele>6.0</ele><time>2026-04-18T13:55:20Z</time></trkpt><trkpt lat="39.09688631882294" lon="8.502028878189824"><ele>6.333333333333334</ele><time>2026-04-18T13:55:21Z</time></trkpt><trkpt lat="39.096975545949256" lon="8.502182207746744"><ele>6.666666666666667</ele><time>2026-04-18T13:55:22Z</time></trkpt><trkpt lat="39.09706961665128" lon="8.502343381018004"><ele>7.0</ele><time>2026-04-18T13:55:23Z</time></trkpt><trkpt lat="39.09717053002125" lon="8.502508689499907"><ele>7.0</ele><time>2026-04-18T13:55:24Z</time></trkpt><trkpt lat="39.097270738020434" lon="8.502674092157408"><ele>7.0</ele><time>2026-04-18T13:55:25Z</time></trkpt><trkpt lat="39.09737424303719" lon="8.502848624130573"><ele>7.0</ele><time>2026-04-18T13:55:26Z</time></trkpt><trkpt lat="39.0974812140125" lon="8.503023272665464"><ele>7.666666666666667</ele><time>2026-04-18T13:55:27Z</time></trkpt><trkpt lat="39.09759277395643" lon="8.503200632138904"><ele>8.333333333333334</ele><time>2026-04-18T13:55:28Z</time></trkpt><trkpt lat="39.09770517227162" lon="8.50338416233459"><ele>9.0</ele><time>2026-04-18T13:55:29Z</time></trkpt><trkpt lat="39.09781872620121" lon="8.50357378856582"><ele>9.0</ele><time>2026-04-18T13:55:30Z</time></trkpt><trkpt lat="39.097933860586046" lon="8.503767259952058"><ele>9.0</ele><time>2026-04-18T13:55:31Z</time></trkpt><trkpt lat="39.098052533146046" lon="8.503962649069182"><ele>9.0</ele><time>2026-04-18T13:55:32Z</time></trkpt><trkpt lat="39.09817498921199" lon="8.504162055080302"><ele>8.666666666666666</ele><time>2026-04-18T13:55:33Z</time></trkpt><trkpt lat="39.09829844929148" lon="8.504366331961336"><ele>8.333333333333332</ele><time>2026-04-18T13:55:34Z</time></trkpt><trkpt lat="39.098422180034156" lon="8.50457567552091"><ele>8.0</ele><time>2026-04-18T13:55:35Z</time></trkpt><trkpt lat="39.09854502902843" lon="8.504787921801357"><ele>8.0</ele><time>2026-04-18T13:55:36Z</time></trkpt><trkpt lat="39.09867121193804" lon="8.505000534317531"><ele>8.0</ele><time>2026-04-18T13:55:37Z</time></trkpt><trkpt lat="39.09880052772463" lon="8.505211627448825"><ele>8.0</ele><time>2026-04-18T13:55:38Z</time></trkpt><trkpt lat="39.09893104229922" lon="8.50542420059068"><ele>8.333333333333332</ele><time>2026-04-18T13:55:39Z</time></trkpt><trkpt lat="39.09906134245123" lon="8.505641613313369"><ele>8.666666666666666</ele><time>2026-04-18T13:55:40Z</time></trkpt><trkpt lat="39.09919060385523" lon="8.505854718759347"><ele>9.0</ele><time>2026-04-18T13:55:41Z</time></trkpt><trkpt lat="39.09932102564182" lon="8.506067418426763"><ele>8.666666666666666</ele><time>2026-04-18T13:55:42Z</time></trkpt><trkpt lat="39.09944794958382" lon="8.506269317164456"><ele>8.333333333333332</ele><time>2026-04-18T13:55:43Z</time></trkpt><trkpt lat="39.099572402872425" lon="8.506459950991323"><ele>8.0</ele><time>2026-04-18T13:55:44Z</time></trkpt><trkpt lat="39.099697003129506" lon="8.506647005980215"><ele>8.0</ele><time>2026-04-18T13:55:45Z</time></trkpt><trkpt lat="39.09986034747972" lon="8.506915812245689"><ele>8.0</ele><time>2026-04-18T13:55:46Z</time></trkpt><trkpt lat="39.10000429098423" lon="8.50712768793272"><ele>9.0</ele><time>2026-04-18T13:55:47Z</time></trkpt><trkpt lat="39.100150289313234" lon="8.50733552292072"><ele>10.0</ele><time>2026-04-18T13:55:48Z</time></trkpt><trkpt lat="39.10029555767326" lon="8.507544592396746"><ele>11.0</ele><time>2026-04-18T13:55:49Z</time></trkpt><trkpt lat="39.10044027745719" lon="8.507756485599444"><ele>11.0</ele><time>2026-04-18T13:55:50Z</time></trkpt><trkpt lat="39.100581835105814" lon="8.50796863780615"><ele>11.0</ele><time>2026-04-18T13:55:51Z</time></trkpt><trkpt lat="39.10072668979095" lon="8.508176833877105"><ele>11.0</ele><time>2026-04-18T13:55:52Z</time></trkpt><trkpt lat="39.100868702383266" lon="8.508386087884713"><ele>11.0</ele><time>2026-04-18T13:55:53Z</time></trkpt><trkpt lat="39.101012476994384" lon="8.508593578944854"><ele>11.0</ele><time>2026-04-18T13:55:54Z</time></trkpt><trkpt lat="39.10115396360302" lon="8.50880215537124"><ele>11.0</ele><time>2026-04-18T13:55:55Z</time></trkpt><trkpt lat="39.101293753021096" lon="8.509006499319105"><ele>11.0</ele><time>2026-04-18T13:55:56Z</time></trkpt><trkpt lat="39.10143147807411" lon="8.509210577219251"><ele>11.0</ele><time>2026-04-18T13:55:57Z</time></trkpt><trkpt lat="39.10157419433092" lon="8.509415580764575"><ele>11.0</ele><time>2026-04-18T13:55:58Z</time></trkpt><trkpt lat="39.101713943124366" lon="8.50961701513523"><ele>11.333333333333332</ele><time>2026-04-18T13:55:59Z</time></trkpt><trkpt lat="39.10184941279223" lon="8.50981527393931"><ele>11.666666666666666</ele><time>2026-04-18T13:56:00Z</time></trkpt><trkpt lat="39.10198265043383" lon="8.510012700846682"><ele>12.0</ele><time>2026-04-18T13:56:01Z</time></trkpt><trkpt lat="39.10211651681127" lon="8.510208570093981"><ele>12.0</ele><time>2026-04-18T13:56:02Z</time></trkpt><trkpt lat="39.10225072638829" lon="8.510404632300872"><ele>12.0</ele><time>2026-04-18T13:56:03Z</time></trkpt><trkpt lat="39.10238880535358" lon="8.510600141134338"><ele>12.0</ele><time>2026-04-18T13:56:04Z</time></trkpt><trkpt lat="39.102531281215285" lon="8.510797354100218"><ele>12.333333333333332</ele><time>2026-04-18T13:56:05Z</time></trkpt><trkpt lat="39.10268045654103" lon="8.510988565446711"><ele>12.666666666666666</ele><time>2026-04-18T13:56:06Z</time></trkpt><trkpt lat="39.10284034459925" lon="8.511164516299658"><ele>13.0</ele><time>2026-04-18T13:56:07Z</time></trkpt><trkpt lat="39.103001889554456" lon="8.51134513812479"><ele>13.333333333333332</ele><time>2026-04-18T13:56:08Z</time></trkpt><trkpt lat="39.103161630965566" lon="8.511524644718477"><ele>13.666666666666668</ele><time>2026-04-18T13:56:09Z</time></trkpt><trkpt lat="39.103359538513985" lon="8.51163833479733"><ele>14.0</ele><time>2026-04-18T13:56:10Z</time></trkpt><trkpt lat="39.103541901005414" lon="8.511775901715438"><ele>14.0</ele><time>2026-04-18T13:56:11Z</time></trkpt><trkpt lat="39.10373084882545" lon="8.511901944724663"><ele>14.0</ele><time>2026-04-18T13:56:12Z</time></trkpt><trkpt lat="39.10392174781304" lon="8.512022890116286"><ele>14.0</ele><time>2026-04-18T13:56:13Z</time></trkpt><trkpt lat="39.10412059051786" lon="8.51212794815668"><ele>14.0</ele><time>2026-04-18T13:56:14Z</time></trkpt><trkpt lat="39.10432395908278" lon="8.51222297833495"><ele>14.0</ele><time>2026-04-18T13:56:15Z</time></trkpt><trkpt lat="39.104528801244975" lon="8.512308838997368"><ele>14.0</ele><time>2026-04-18T13:56:16Z</time></trkpt><trkpt lat="39.10473477629781" lon="8.512384762834037"><ele>14.0</ele><time>2026-04-18T13:56:17Z</time></trkpt><trkpt lat="39.10494769402831" lon="8.512448674785098"><ele>14.0</ele><time>2026-04-18T13:56:18Z</time></trkpt><trkpt lat="39.10516172974802" lon="8.512504831040946"><ele>14.0</ele><time>2026-04-18T13:56:19Z</time></trkpt><trkpt lat="39.10537766051973" lon="8.512553840657645"><ele>14.0</ele><time>2026-04-18T13:56:20Z</time></trkpt><trkpt lat="39.105592453206754" lon="8.512605173001726"><ele>14.0</ele><time>2026-04-18T13:56:21Z</time></trkpt><trkpt lat="39.10580540273368" lon="8.512664905281692"><ele>14.0</ele><time>2026-04-18T13:56:22Z</time></trkpt><trkpt lat="39.10601630400188" lon="8.512723096896396"><ele>13.666666666666668</ele><time>2026-04-18T13:56:23Z</time></trkpt><trkpt lat="39.106231959833714" lon="8.512779970262928"><ele>13.333333333333332</ele><time>2026-04-18T13:56:24Z</time></trkpt><trkpt lat="39.10644712977257" lon="8.512833274425823"><ele>13.0</ele><time>2026-04-18T13:56:25Z</time></trkpt><trkpt lat="39.10666422754896" lon="8.51288234698421"><ele>13.0</ele><time>2026-04-18T13:56:26Z</time></trkpt><trkpt lat="39.10688072766086" lon="8.512933295136454"><ele>13.0</ele><time>2026-04-18T13:56:27Z</time></trkpt><trkpt lat="39.10709334128095" lon="8.512984641819465"><ele>13.0</ele><time>2026-04-18T13:56:28Z</time></trkpt><trkpt lat="39.10730343633595" lon="8.513038496195092"><ele>14.0</ele><time>2026-04-18T13:56:29Z</time></trkpt><trkpt lat="39.10751143498227" lon="8.513092691278862"><ele>15.0</ele><time>2026-04-18T13:56:30Z</time></trkpt><trkpt lat="39.10771774396723" lon="8.513147023972017"><ele>16.0</ele><time>2026-04-18T13:56:31Z</time></trkpt><trkpt lat="39.107927009593894" lon="8.513198526011747"><ele>16.0</ele><time>2026-04-18T13:56:32Z</time></trkpt><trkpt lat="39.10813669000338" lon="8.51324970140789"><ele>16.0</ele><time>2026-04-18T13:56:33Z</time></trkpt><trkpt lat="39.10834360292925" lon="8.513300330479783"><ele>16.0</ele><time>2026-04-18T13:56:34Z</time></trkpt><trkpt lat="39.108554019923034" lon="8.513359637479578"><ele>16.333333333333332</ele><time>2026-04-18T13:56:35Z</time></trkpt><trkpt lat="39.10876010632897" lon="8.513412215016658"><ele>16.666666666666668</ele><time>2026-04-18T13:56:36Z</time></trkpt><trkpt lat="39.108965648270285" lon="8.513466474344638"><ele>17.0</ele><time>2026-04-18T13:56:37Z</time></trkpt><trkpt lat="39.109170559588485" lon="8.51351758150554"><ele>16.0</ele><time>2026-04-18T13:56:38Z</time></trkpt><trkpt lat="39.10937603010612" lon="8.513566285004481"><ele>15.0</ele><time>2026-04-18T13:56:39Z</time></trkpt><trkpt lat="39.1095751161738" lon="8.513615595603653"><ele>14.0</ele><time>2026-04-18T13:56:40Z</time></trkpt><trkpt lat="39.1097742558164" lon="8.513664050071327"><ele>15.0</ele><time>2026-04-18T13:56:41Z</time></trkpt><trkpt lat="39.109970026652285" lon="8.51371249260015"><ele>16.0</ele><time>2026-04-18T13:56:42Z</time></trkpt><trkpt lat="39.11015619071574" lon="8.513756040098249"><ele>17.0</ele><time>2026-04-18T13:56:43Z</time></trkpt><trkpt lat="39.11034225719022" lon="8.513802912641797"><ele>17.0</ele><time>2026-04-18T13:56:44Z</time></trkpt><trkpt lat="39.11052547613047" lon="8.51385094095173"><ele>17.0</ele><time>2026-04-18T13:56:45Z</time></trkpt><trkpt lat="39.110710780267944" lon="8.513906875179808"><ele>17.0</ele><time>2026-04-18T13:56:46Z</time></trkpt><trkpt lat="39.11088897549086" lon="8.513968394804495"><ele>17.333333333333336</ele><time>2026-04-18T13:56:47Z</time></trkpt><trkpt lat="39.111068422936036" lon="8.514037154843138"><ele>17.666666666666668</ele><time>2026-04-18T13:56:48Z</time></trkpt><trkpt lat="39.111252680622556" lon="8.514110227224505"><ele>18.0</ele><time>2026-04-18T13:56:49Z</time></trkpt><trkpt lat="39.11144206989026" lon="8.51419403225211"><ele>18.333333333333332</ele><time>2026-04-18T13:56:50Z</time></trkpt><trkpt lat="39.11163187362184" lon="8.514273257992777"><ele>18.666666666666664</ele><time>2026-04-18T13:56:51Z</time></trkpt><trkpt lat="39.11182406621923" lon="8.514357278109213"><ele>19.0</ele><time>2026-04-18T13:56:52Z</time></trkpt><trkpt lat="39.11201852166203" lon="8.514441775204446"><ele>19.0</ele><time>2026-04-18T13:56:53Z</time></trkpt><trkpt lat="39.112215559834624" lon="8.514528308920474"><ele>19.0</ele><time>2026-04-18T13:56:54Z</time></trkpt><trkpt lat="39.11241499957941" lon="8.514615103046873"><ele>19.0</ele><time>2026-04-18T13:56:55Z</time></trkpt><trkpt lat="39.11261653384905" lon="8.51470752579012"><ele>19.0</ele><time>2026-04-18T13:56:56Z</time></trkpt><trkpt lat="39.112820286862146" lon="8.514799534386954"><ele>19.0</ele><time>2026-04-18T13:56:57Z</time></trkpt><trkpt lat="39.11302116302697" lon="8.514889086870916"><ele>19.0</ele><time>2026-04-18T13:56:58Z</time></trkpt><trkpt lat="39.11322570727013" lon="8.514979693862426"><ele>19.0</ele><time>2026-04-18T13:56:59Z</time></trkpt><trkpt lat="39.11343273876897" lon="8.515069438487146"><ele>19.0</ele><time>2026-04-18T13:57:00Z</time></trkpt><trkpt lat="39.11364098752013" lon="8.51515981445845"><ele>19.0</ele><time>2026-04-18T13:57:01Z</time></trkpt><trkpt lat="39.113848408712414" lon="8.515255128806299"><ele>19.0</ele><time>2026-04-18T13:57:02Z</time></trkpt><trkpt lat="39.11405763744536" lon="8.515352146312576"><ele>19.0</ele><time>2026-04-18T13:57:03Z</time></trkpt><trkpt lat="39.11426914758433" lon="8.515448509058993"><ele>19.0</ele><time>2026-04-18T13:57:04Z</time></trkpt><trkpt lat="39.11448188821509" lon="8.515540442628978"><ele>19.0</ele><time>2026-04-18T13:57:05Z</time></trkpt><trkpt lat="39.11469132908738" lon="8.515630045644924"><ele>19.0</ele><time>2026-04-18T13:57:06Z</time></trkpt><trkpt lat="39.11490058908508" lon="8.515723839761579"><ele>19.0</ele><time>2026-04-18T13:57:07Z</time></trkpt><trkpt lat="39.115108030867745" lon="8.515817595231244"><ele>19.0</ele><time>2026-04-18T13:57:08Z</time></trkpt><trkpt lat="39.115312404736656" lon="8.515909544832173"><ele>19.0</ele><time>2026-04-18T13:57:09Z</time></trkpt><trkpt lat="39.11551863866582" lon="8.516000530183168"><ele>19.0</ele><time>2026-04-18T13:57:10Z</time></trkpt><trkpt lat="39.11572112543327" lon="8.516089078863342"><ele>18.666666666666664</ele><time>2026-04-18T13:57:11Z</time></trkpt><trkpt lat="39.1159239493081" lon="8.516179288949784"><ele>18.333333333333332</ele><time>2026-04-18T13:57:12Z</time></trkpt><trkpt lat="39.11612553558367" lon="8.516270265179196"><ele>18.0</ele><time>2026-04-18T13:57:13Z</time></trkpt><trkpt lat="39.11632547581908" lon="8.516356077186853"><ele>18.666666666666668</ele><time>2026-04-18T13:57:14Z</time></trkpt><trkpt lat="39.116524419053704" lon="8.516440668698365"><ele>19.333333333333336</ele><time>2026-04-18T13:57:15Z</time></trkpt><trkpt lat="39.116718984253524" lon="8.516522986320636"><ele>20.0</ele><time>2026-04-18T13:57:16Z</time></trkpt><trkpt lat="39.11691638430456" lon="8.516599227641274"><ele>20.333333333333336</ele><time>2026-04-18T13:57:17Z</time></trkpt><trkpt lat="39.11711676811346" lon="8.516662680366647"><ele>20.666666666666668</ele><time>2026-04-18T13:57:18Z</time></trkpt><trkpt lat="39.1173137635355" lon="8.516711710143754"><ele>21.0</ele><time>2026-04-18T13:57:19Z</time></trkpt><trkpt lat="39.11751876095736" lon="8.516749702640762"><ele>21.0</ele><time>2026-04-18T13:57:20Z</time></trkpt><trkpt lat="39.117719875460644" lon="8.516776433060198"><ele>21.0</ele><time>2026-04-18T13:57:21Z</time></trkpt><trkpt lat="39.11792426162368" lon="8.516792600746113"><ele>21.0</ele><time>2026-04-18T13:57:22Z</time></trkpt><trkpt lat="39.118130414671356" lon="8.5168003951671"><ele>21.333333333333332</ele><time>2026-04-18T13:57:23Z</time></trkpt><trkpt lat="39.11833971946528" lon="8.516798981242006"><ele>21.666666666666664</ele><time>2026-04-18T13:57:24Z</time></trkpt><trkpt lat="39.11854396647675" lon="8.5167867000187"><ele>22.0</ele><time>2026-04-18T13:57:25Z</time></trkpt><trkpt lat="39.11875434446271" lon="8.516763508250806"><ele>22.0</ele><time>2026-04-18T13:57:26Z</time></trkpt><trkpt lat="39.1189622485445" lon="8.516725994154083"><ele>22.0</ele><time>2026-04-18T13:57:27Z</time></trkpt><trkpt lat="39.11916706980868" lon="8.516673506663789"><ele>22.0</ele><time>2026-04-18T13:57:28Z</time></trkpt><trkpt lat="39.119371030295206" lon="8.51660921945639"><ele>22.0</ele><time>2026-04-18T13:57:29Z</time></trkpt><trkpt lat="39.119570908094055" lon="8.516541747794985"><ele>22.0</ele><time>2026-04-18T13:57:30Z</time></trkpt><trkpt lat="39.11977237194969" lon="8.516461690651667"><ele>22.0</ele><time>2026-04-18T13:57:31Z</time></trkpt><trkpt lat="39.119969951678016" lon="8.516367453497365"><ele>22.666666666666664</ele><time>2026-04-18T13:57:32Z</time></trkpt><trkpt lat="39.120163520345095" lon="8.516260755756523"><ele>23.333333333333332</ele><time>2026-04-18T13:57:33Z</time></trkpt><trkpt lat="39.12035504363013" lon="8.516140550484986"><ele>24.0</ele><time>2026-04-18T13:57:34Z</time></trkpt><trkpt lat="39.1205407755074" lon="8.516016968347499"><ele>24.0</ele><time>2026-04-18T13:57:35Z</time></trkpt><trkpt lat="39.12072490662529" lon="8.515896267008838"><ele>24.0</ele><time>2026-04-18T13:57:36Z</time></trkpt><trkpt lat="39.12090536591791" lon="8.515772128463015"><ele>24.0</ele><time>2026-04-18T13:57:37Z</time></trkpt><trkpt lat="39.12108395731091" lon="8.515646781784362"><ele>24.0</ele><time>2026-04-18T13:57:38Z</time></trkpt><trkpt lat="39.12126268280085" lon="8.51552054065122"><ele>24.0</ele><time>2026-04-18T13:57:39Z</time></trkpt><trkpt lat="39.1214401792626" lon="8.515398631368251"><ele>24.0</ele><time>2026-04-18T13:57:40Z</time></trkpt><trkpt lat="39.121618706285936" lon="8.515276593930244"><ele>24.0</ele><time>2026-04-18T13:57:41Z</time></trkpt><trkpt lat="39.121797985682925" lon="8.515153299211317"><ele>24.0</ele><time>2026-04-18T13:57:42Z</time></trkpt><trkpt lat="39.1219764120372" lon="8.515026746429987"><ele>24.0</ele><time>2026-04-18T13:57:43Z</time></trkpt><trkpt lat="39.12215476618076" lon="8.514899792431256"><ele>24.0</ele><time>2026-04-18T13:57:44Z</time></trkpt><trkpt lat="39.122332335684554" lon="8.514778247097118"><ele>24.0</ele><time>2026-04-18T13:57:45Z</time></trkpt><trkpt lat="39.12250877181489" lon="8.514654500305518"><ele>24.0</ele><time>2026-04-18T13:57:46Z</time></trkpt><trkpt lat="39.1226818261146" lon="8.514536620729217"><ele>24.333333333333336</ele><time>2026-04-18T13:57:47Z</time></trkpt><trkpt lat="39.12285491458689" lon="8.514417103907945"><ele>24.666666666666668</ele><time>2026-04-18T13:57:48Z</time></trkpt><trkpt lat="39.123026864296435" lon="8.514296756536956"><ele>25.0</ele><time>2026-04-18T13:57:49Z</time></trkpt><trkpt lat="39.12319669109369" lon="8.51417825074005"><ele>25.0</ele><time>2026-04-18T13:57:50Z</time></trkpt><trkpt lat="39.12336362172488" lon="8.514061413585267"><ele>25.0</ele><time>2026-04-18T13:57:51Z</time></trkpt><trkpt lat="39.123531566308706" lon="8.513944961339917"><ele>25.0</ele><time>2026-04-18T13:57:52Z</time></trkpt><trkpt lat="39.123693163067436" lon="8.513836421691044"><ele>24.666666666666668</ele><time>2026-04-18T13:57:53Z</time></trkpt><trkpt lat="39.123843874716286" lon="8.513729598341309"><ele>24.333333333333336</ele><time>2026-04-18T13:57:54Z</time></trkpt><trkpt lat="39.123985224895186" lon="8.513631378431054"><ele>24.0</ele><time>2026-04-18T13:57:55Z</time></trkpt><trkpt lat="39.12412409512444" lon="8.513537328348187"><ele>24.666666666666664</ele><time>2026-04-18T13:57:56Z</time></trkpt><trkpt lat="39.124267518690736" lon="8.513437278075719"><ele>25.333333333333332</ele><time>2026-04-18T13:57:57Z</time></trkpt><trkpt lat="39.12440613930601" lon="8.513339044766612"><ele>26.0</ele><time>2026-04-18T13:57:58Z</time></trkpt><trkpt lat="39.124546930463495" lon="8.51324644994723"><ele>26.0</ele><time>2026-04-18T13:57:59Z</time></trkpt><trkpt lat="39.1246925029199" lon="8.51315075683328"><ele>26.0</ele><time>2026-04-18T13:58:00Z</time></trkpt><trkpt lat="39.12483585647169" lon="8.513046781489178"><ele>26.0</ele><time>2026-04-18T13:58:01Z</time></trkpt><trkpt lat="39.12497901025715" lon="8.512944285631727"><ele>26.333333333333332</ele><time>2026-04-18T13:58:02Z</time></trkpt><trkpt lat="39.125130422001256" lon="8.512842635457638"><ele>26.666666666666664</ele><time>2026-04-18T13:58:03Z</time></trkpt><trkpt lat="39.1252799784561" lon="8.512739844155513"><ele>27.0</ele><time>2026-04-18T13:58:04Z</time></trkpt><trkpt lat="39.12542798541303" lon="8.512633584355038"><ele>27.0</ele><time>2026-04-18T13:58:05Z</time></trkpt><trkpt lat="39.1255807261014" lon="8.512523402514011"><ele>27.0</ele><time>2026-04-18T13:58:06Z</time></trkpt><trkpt lat="39.12573660326684" lon="8.512414352757418"><ele>27.0</ele><time>2026-04-18T13:58:07Z</time></trkpt><trkpt lat="39.125893557564865" lon="8.51230768154582"><ele>28.0</ele><time>2026-04-18T13:58:08Z</time></trkpt><trkpt lat="39.12605336249835" lon="8.512199833372183"><ele>29.0</ele><time>2026-04-18T13:58:09Z</time></trkpt><trkpt lat="39.12621409418424" lon="8.512089721588621"><ele>30.0</ele><time>2026-04-18T13:58:10Z</time></trkpt><trkpt lat="39.12637128438741" lon="8.511980251121853"><ele>30.0</ele><time>2026-04-18T13:58:11Z</time></trkpt><trkpt lat="39.12653072603994" lon="8.51186821073783"><ele>30.0</ele><time>2026-04-18T13:58:12Z</time></trkpt><trkpt lat="39.12668690360238" lon="8.511754877011905"><ele>30.0</ele><time>2026-04-18T13:58:13Z</time></trkpt><trkpt lat="39.12683968502024" lon="8.511644260395832"><ele>30.666666666666664</ele><time>2026-04-18T13:58:14Z</time></trkpt><trkpt lat="39.12698917261331" lon="8.511536673304363"><ele>31.333333333333332</ele><time>2026-04-18T13:58:15Z</time></trkpt><trkpt lat="39.12713659684926" lon="8.511431796375353"><ele>32.0</ele><time>2026-04-18T13:58:16Z</time></trkpt><trkpt lat="39.127285154369304" lon="8.511332872990604"><ele>33.0</ele><time>2026-04-18T13:58:17Z</time></trkpt><trkpt lat="39.127431829915565" lon="8.511239887226898"><ele>34.0</ele><time>2026-04-18T13:58:18Z</time></trkpt><trkpt lat="39.12757598371739" lon="8.51115618784307"><ele>35.0</ele><time>2026-04-18T13:58:19Z</time></trkpt><trkpt lat="39.127726424860164" lon="8.511074993626261"><ele>35.0</ele><time>2026-04-18T13:58:20Z</time></trkpt><trkpt lat="39.12787704942498" lon="8.510996585659566"><ele>35.0</ele><time>2026-04-18T13:58:21Z</time></trkpt><trkpt lat="39.12802323709995" lon="8.510929546029113"><ele>35.0</ele><time>2026-04-18T13:58:22Z</time></trkpt><trkpt lat="39.12817665332945" lon="8.510856344373813"><ele>35.0</ele><time>2026-04-18T13:58:23Z</time></trkpt><trkpt lat="39.12832824048266" lon="8.510786028740815"><ele>35.0</ele><time>2026-04-18T13:58:24Z</time></trkpt><trkpt lat="39.128469283391325" lon="8.510724833737529"><ele>35.0</ele><time>2026-04-18T13:58:25Z</time></trkpt><trkpt lat="39.12860362629316" lon="8.510674998464717"><ele>35.0</ele><time>2026-04-18T13:58:26Z</time></trkpt><trkpt lat="39.128730467571316" lon="8.510636416192991"><ele>35.0</ele><time>2026-04-18T13:58:27Z</time></trkpt><trkpt lat="39.12884459000963" lon="8.510609183230873"><ele>35.0</ele><time>2026-04-18T13:58:28Z</time></trkpt><trkpt lat="39.128952112094616" lon="8.510589036668508"><ele>35.0</ele><time>2026-04-18T13:58:29Z</time></trkpt><trkpt lat="39.12904877219904" lon="8.510472066212143"><ele>35.0</ele><time>2026-04-18T13:58:30Z</time></trkpt><trkpt lat="39.129132446905075" lon="8.510458519993835"><ele>35.0</ele><time>2026-04-18T13:58:31Z</time></trkpt><trkpt lat="39.129208168560574" lon="8.510482813454157"><ele>35.0</ele><time>2026-04-18T13:58:32Z</time></trkpt><trkpt lat="39.129272336886714" lon="8.510541576280401"><ele>35.0</ele><time>2026-04-18T13:58:33Z</time></trkpt><trkpt lat="39.129330442956146" lon="8.510613652429472"><ele>35.0</ele><time>2026-04-18T13:58:34Z</time></trkpt><trkpt lat="39.12940971646396" lon="8.510660647550182"><ele>35.0</ele><time>2026-04-18T13:58:35Z</time></trkpt><trkpt lat="39.129506916754025" lon="8.51066890340424"><ele>35.0</ele><time>2026-04-18T13:58:36Z</time></trkpt><trkpt lat="39.129594106606284" lon="8.510624429631706"><ele>35.0</ele><time>2026-04-18T13:58:37Z</time></trkpt><trkpt lat="39.12966419436096" lon="8.510542565422266"><ele>35.0</ele><time>2026-04-18T13:58:38Z</time></trkpt><trkpt lat="39.12971922226043" lon="8.510437307955852"><ele>35.0</ele><time>2026-04-18T13:58:39Z</time></trkpt><trkpt lat="39.12975691106102" lon="8.510312505785276"><ele>35.0</ele><time>2026-04-18T13:58:40Z</time></trkpt><trkpt lat="39.12976823484038" lon="8.510186066181774"><ele>35.5</ele><time>2026-04-18T13:58:41Z</time></trkpt><trkpt lat="39.12975529240715" lon="8.510100423016587"><ele>36.0</ele><time>2026-04-18T13:58:42Z</time></trkpt><trkpt lat="39.12994540248902" lon="8.510086387952516"><ele>36.5</ele><time>2026-04-18T13:58:43Z</time></trkpt><trkpt lat="39.130034050190694" lon="8.510023536763455"><ele>37.0</ele><time>2026-04-18T13:58:44Z</time></trkpt><trkpt lat="39.13012787484869" lon="8.509988160538352"><ele>37.0</ele><time>2026-04-18T13:58:45Z</time></trkpt><trkpt lat="39.13021089313367" lon="8.509955056843356"><ele>37.0</ele><time>2026-04-18T13:58:46Z</time></trkpt><trkpt lat="39.130289887640735" lon="8.509929127222643"><ele>37.0</ele><time>2026-04-18T13:58:47Z</time></trkpt><trkpt lat="39.1303730756151" lon="8.509904606874683"><ele>37.0</ele><time>2026-04-18T13:58:48Z</time></trkpt><trkpt lat="39.13046474438971" lon="8.509864935840733"><ele>37.0</ele><time>2026-04-18T13:58:49Z</time></trkpt><trkpt lat="39.130568353204644" lon="8.509824259988667"><ele>37.0</ele><time>2026-04-18T13:58:50Z</time></trkpt><trkpt lat="39.13067849753371" lon="8.509794142949671"><ele>37.0</ele><time>2026-04-18T13:58:51Z</time></trkpt><trkpt lat="39.13078969946787" lon="8.509764112895251"><ele>37.0</ele><time>2026-04-18T13:58:52Z</time></trkpt><trkpt lat="39.130904081208875" lon="8.509735144295313"><ele>37.0</ele><time>2026-04-18T13:58:53Z</time></trkpt><trkpt lat="39.13102724944002" lon="8.509740223369754"><ele>37.0</ele><time>2026-04-18T13:58:54Z</time></trkpt><trkpt lat="39.131153817198935" lon="8.509722040928763"><ele>37.0</ele><time>2026-04-18T13:58:55Z</time></trkpt><trkpt lat="39.13128555987201" lon="8.509729452420656"><ele>37.0</ele><time>2026-04-18T13:58:56Z</time></trkpt><trkpt lat="39.131420038400705" lon="8.50973734249642"><ele>37.0</ele><time>2026-04-18T13:58:57Z</time></trkpt><trkpt lat="39.13155768625409" lon="8.50975084493566"><ele>37.25</ele><time>2026-04-18T13:58:58Z</time></trkpt><trkpt lat="39.13169704641107" lon="8.50977783153893"><ele>37.5</ele><time>2026-04-18T13:58:59Z</time></trkpt><trkpt lat="39.13184190550849" lon="8.509817275203021"><ele>37.75</ele><time>2026-04-18T13:59:00Z</time></trkpt><trkpt lat="39.1319932833801" lon="8.509856860631595"><ele>38.0</ele><time>2026-04-18T13:59:01Z</time></trkpt><trkpt lat="39.1321470514812" lon="8.509900818447642"><ele>38.0</ele><time>2026-04-18T13:59:02Z</time></trkpt><trkpt lat="39.132298706586276" lon="8.509966677330436"><ele>38.0</ele><time>2026-04-18T13:59:03Z</time></trkpt><trkpt lat="39.13246026404453" lon="8.510005720863518"><ele>38.0</ele><time>2026-04-18T13:59:04Z</time></trkpt><trkpt lat="39.13261755803362" lon="8.510068171964873"><ele>38.666666666666664</ele><time>2026-04-18T13:59:05Z</time></trkpt><trkpt lat="39.132777865187265" lon="8.510129910526636"><ele>39.333333333333336</ele><time>2026-04-18T13:59:06Z</time></trkpt><trkpt lat="39.13294849620879" lon="8.510190100067783"><ele>40.0</ele><time>2026-04-18T13:59:07Z</time></trkpt><trkpt lat="39.13312601434701" lon="8.510278413886786"><ele>40.0</ele><time>2026-04-18T13:59:08Z</time></trkpt><trkpt lat="39.133325041248405" lon="8.51035474800123"><ele>40.0</ele><time>2026-04-18T13:59:09Z</time></trkpt><trkpt lat="39.133544011533836" lon="8.510438998660275"><ele>40.0</ele><time>2026-04-18T13:59:10Z</time></trkpt><trkpt lat="39.13377425393209" lon="8.510526690050902"><ele>40.5</ele><time>2026-04-18T13:59:11Z</time></trkpt><trkpt lat="39.13399753250634" lon="8.51059170323849"><ele>41.0</ele><time>2026-04-18T13:59:12Z</time></trkpt><trkpt lat="39.13421911536384" lon="8.51069583666914"><ele>41.33333333333333</ele><time>2026-04-18T13:59:13Z</time></trkpt><trkpt lat="39.134431512415" lon="8.510777662108342"><ele>41.666666666666664</ele><time>2026-04-18T13:59:14Z</time></trkpt><trkpt lat="39.134637488722205" lon="8.510849202442268"><ele>42.0</ele><time>2026-04-18T13:59:15Z</time></trkpt><trkpt lat="39.134835315161816" lon="8.51091725080982"><ele>42.666666666666664</ele><time>2026-04-18T13:59:16Z</time></trkpt><trkpt lat="39.1350264990763" lon="8.510978631956883"><ele>43.33333333333333</ele><time>2026-04-18T13:59:17Z</time></trkpt><trkpt lat="39.135214805204235" lon="8.511031521953354"><ele>44.0</ele><time>2026-04-18T13:59:18Z</time></trkpt><trkpt lat="39.13540271792176" lon="8.51106939442827"><ele>44.0</ele><time>2026-04-18T13:59:19Z</time></trkpt><trkpt lat="39.1355921471809" lon="8.511103419605009"><ele>44.0</ele><time>2026-04-18T13:59:20Z</time></trkpt><trkpt lat="39.135783178684335" lon="8.511132004271888"><ele>44.0</ele><time>2026-04-18T13:59:21Z</time></trkpt><trkpt lat="39.13597282077901" lon="8.511158460598603"><ele>44.666666666666664</ele><time>2026-04-18T13:59:22Z</time></trkpt><trkpt lat="39.136164304328815" lon="8.511174900332707"><ele>45.333333333333336</ele><time>2026-04-18T13:59:23Z</time></trkpt><trkpt lat="39.13635402818884" lon="8.511187742221288"><ele>46.0</ele><time>2026-04-18T13:59:24Z</time></trkpt><trkpt lat="39.13654843715703" lon="8.511197196723048"><ele>46.66666666666667</ele><time>2026-04-18T13:59:25Z</time></trkpt><trkpt lat="39.13674185349422" lon="8.511205986033458"><ele>47.333333333333336</ele><time>2026-04-18T13:59:26Z</time></trkpt><trkpt lat="39.13693697090366" lon="8.511215357998505"><ele>48.0</ele><time>2026-04-18T13:59:27Z</time></trkpt><trkpt lat="39.1371285152875" lon="8.511226525554925"><ele>48.0</ele><time>2026-04-18T13:59:28Z</time></trkpt><trkpt lat="39.13732209699968" lon="8.511237673573223"><ele>48.0</ele><time>2026-04-18T13:59:29Z</time></trkpt><trkpt lat="39.137517021420585" lon="8.511247214808334"><ele>48.0</ele><time>2026-04-18T13:59:30Z</time></trkpt><trkpt lat="39.13771517367377" lon="8.511255527278067"><ele>47.666666666666664</ele><time>2026-04-18T13:59:31Z</time></trkpt><trkpt lat="39.13791516713635" lon="8.511261424439514"><ele>47.33333333333333</ele><time>2026-04-18T13:59:32Z</time></trkpt><trkpt lat="39.13811875665261" lon="8.511266666470338"><ele>47.0</ele><time>2026-04-18T13:59:33Z</time></trkpt><trkpt lat="39.13832335032099" lon="8.511274608537896"><ele>47.0</ele><time>2026-04-18T13:59:34Z</time></trkpt><trkpt lat="39.138529676694674" lon="8.511285672446038"><ele>47.0</ele><time>2026-04-18T13:59:35Z</time></trkpt><trkpt lat="39.13873806931434" lon="8.511298146484512"><ele>47.0</ele><time>2026-04-18T13:59:36Z</time></trkpt><trkpt lat="39.13894975590077" lon="8.511309537078786"><ele>48.0</ele><time>2026-04-18T13:59:37Z</time></trkpt><trkpt lat="39.139162349090135" lon="8.511316057850788"><ele>49.0</ele><time>2026-04-18T13:59:38Z</time></trkpt><trkpt lat="39.13937851296983" lon="8.511322276244492"><ele>50.0</ele><time>2026-04-18T13:59:39Z</time></trkpt><trkpt lat="39.1395883759426" lon="8.511332165368179"><ele>50.0</ele><time>2026-04-18T13:59:40Z</time></trkpt><trkpt lat="39.13979405199685" lon="8.511345555007402"><ele>50.0</ele><time>2026-04-18T13:59:41Z</time></trkpt><trkpt lat="39.140003730664326" lon="8.511355038982913"><ele>50.0</ele><time>2026-04-18T13:59:42Z</time></trkpt><trkpt lat="39.1402252959182" lon="8.511359721308844"><ele>49.333333333333336</ele><time>2026-04-18T13:59:43Z</time></trkpt><trkpt lat="39.14043914951671" lon="8.511365417862432"><ele>48.66666666666667</ele><time>2026-04-18T13:59:44Z</time></trkpt><trkpt lat="39.140654367349775" lon="8.511373076730857"><ele>48.0</ele><time>2026-04-18T13:59:45Z</time></trkpt><trkpt lat="39.14086476545685" lon="8.511385302971906"><ele>48.0</ele><time>2026-04-18T13:59:46Z</time></trkpt><trkpt lat="39.14106780051916" lon="8.511395214061807"><ele>48.0</ele><time>2026-04-18T13:59:47Z</time></trkpt><trkpt lat="39.14126805448146" lon="8.51140642251451"><ele>48.0</ele><time>2026-04-18T13:59:48Z</time></trkpt><trkpt lat="39.14145643322908" lon="8.51141500254607"><ele>49.0</ele><time>2026-04-18T13:59:49Z</time></trkpt><trkpt lat="39.14163666521634" lon="8.511418865291391"><ele>50.0</ele><time>2026-04-18T13:59:50Z</time></trkpt><trkpt lat="39.14182270780612" lon="8.511424771354676"><ele>51.0</ele><time>2026-04-18T13:59:51Z</time></trkpt><trkpt lat="39.14200798863074" lon="8.511437293755888"><ele>51.0</ele><time>2026-04-18T13:59:52Z</time></trkpt><trkpt lat="39.14220057905192" lon="8.511454177193409"><ele>51.0</ele><time>2026-04-18T13:59:53Z</time></trkpt><trkpt lat="39.142395671134175" lon="8.511464344485919"><ele>51.0</ele><time>2026-04-18T13:59:54Z</time></trkpt><trkpt lat="39.14259454756664" lon="8.511471258772584"><ele>50.66666666666667</ele><time>2026-04-18T13:59:55Z</time></trkpt><trkpt lat="39.14279217339559" lon="8.511478680841284"><ele>50.333333333333336</ele><time>2026-04-18T13:59:56Z</time></trkpt><trkpt lat="39.14298822784682" lon="8.511486373747307"><ele>50.0</ele><time>2026-04-18T13:59:57Z</time></trkpt><trkpt lat="39.14318592964025" lon="8.511494827806908"><ele>49.333333333333336</ele><time>2026-04-18T13:59:58Z</time></trkpt><trkpt lat="39.14338699079282" lon="8.511504227410562"><ele>48.66666666666667</ele><time>2026-04-18T13:59:59Z</time></trkpt><trkpt lat="39.14358772440492" lon="8.511512211347563"><ele>48.0</ele><time>2026-04-18T14:00:00Z</time></trkpt><trkpt lat="39.14379203499898" lon="8.511520628404055"><ele>48.0</ele><time>2026-04-18T14:00:01Z</time></trkpt><trkpt lat="39.14399425614284" lon="8.51153102258557"><ele>48.0</ele><time>2026-04-18T14:00:02Z</time></trkpt><trkpt lat="39.144191519196525" lon="8.511540889922399"><ele>48.0</ele><time>2026-04-18T14:00:03Z</time></trkpt><trkpt lat="39.14438689211091" lon="8.511549420829972"><ele>48.0</ele><time>2026-04-18T14:00:04Z</time></trkpt><trkpt lat="39.14457858107492" lon="8.511556575652124"><ele>48.0</ele><time>2026-04-18T14:00:05Z</time></trkpt><trkpt lat="39.144770154655674" lon="8.51156493407599"><ele>48.0</ele><time>2026-04-18T14:00:06Z</time></trkpt><trkpt lat="39.14495970311404" lon="8.511573743940593"><ele>48.0</ele><time>2026-04-18T14:00:07Z</time></trkpt><trkpt lat="39.145150044951365" lon="8.511581978045987"><ele>48.0</ele><time>2026-04-18T14:00:08Z</time></trkpt><trkpt lat="39.14533890092473" lon="8.511588562812829"><ele>48.0</ele><time>2026-04-18T14:00:09Z</time></trkpt><trkpt lat="39.14552667214006" lon="8.511595444432768"><ele>48.0</ele><time>2026-04-18T14:00:10Z</time></trkpt><trkpt lat="39.145711152677535" lon="8.51160518971692"><ele>48.0</ele><time>2026-04-18T14:00:11Z</time></trkpt><trkpt lat="39.14588826810378" lon="8.511613358006661"><ele>48.0</ele><time>2026-04-18T14:00:12Z</time></trkpt><trkpt lat="39.14605473916267" lon="8.511623791441721"><ele>48.0</ele><time>2026-04-18T14:00:13Z</time></trkpt><trkpt lat="39.14620828923148" lon="8.511635131410564"><ele>48.0</ele><time>2026-04-18T14:00:14Z</time></trkpt><trkpt lat="39.14635370374448" lon="8.511645398337254"><ele>48.0</ele><time>2026-04-18T14:00:15Z</time></trkpt><trkpt lat="39.146487457498104" lon="8.511652533764543"><ele>48.0</ele><time>2026-04-18T14:00:16Z</time></trkpt><trkpt lat="39.14660871915799" lon="8.511660687058114"><ele>48.8</ele><time>2026-04-18T14:00:17Z</time></trkpt><trkpt lat="39.14671482554788" lon="8.511676176734019"><ele>49.599999999999994</ele><time>2026-04-18T14:00:18Z</time></trkpt><trkpt lat="39.146801629333694" lon="8.51170754419578"><ele>50.400000000000006</ele><time>2026-04-18T14:00:19Z</time></trkpt><trkpt lat="39.14688168205736" lon="8.511756074400433"><ele>51.2</ele><time>2026-04-18T14:00:20Z</time></trkpt><trkpt lat="39.14696969206254" lon="8.511808957256678"><ele>52.0</ele><time>2026-04-18T14:00:21Z</time></trkpt><trkpt lat="39.14705768886823" lon="8.511824783587135"><ele>52.0</ele><time>2026-04-18T14:00:22Z</time></trkpt><trkpt lat="39.14715323128498" lon="8.511790311870797"><ele>52.0</ele><time>2026-04-18T14:00:23Z</time></trkpt><trkpt lat="39.147244930168576" lon="8.511722138700927"><ele>52.0</ele><time>2026-04-18T14:00:24Z</time></trkpt><trkpt lat="39.147351631472716" lon="8.511652026096204"><ele>52.0</ele><time>2026-04-18T14:00:25Z</time></trkpt><trkpt lat="39.14748052278582" lon="8.511625570703725"><ele>52.5</ele><time>2026-04-18T14:00:26Z</time></trkpt><trkpt lat="39.14762365272148" lon="8.511628008076363"><ele>53.0</ele><time>2026-04-18T14:00:27Z</time></trkpt><trkpt lat="39.14777395391938" lon="8.511620717221144"><ele>53.5</ele><time>2026-04-18T14:00:28Z</time></trkpt><trkpt lat="39.147925759165695" lon="8.51160732430182"><ele>54.0</ele><time>2026-04-18T14:00:29Z</time></trkpt><trkpt lat="39.14808319954642" lon="8.511589639536572"><ele>55.33333333333333</ele><time>2026-04-18T14:00:30Z</time></trkpt><trkpt lat="39.14824321419377" lon="8.511565645746524"><ele>56.666666666666664</ele><time>2026-04-18T14:00:31Z</time></trkpt><trkpt lat="39.148407620901736" lon="8.511532981563077"><ele>58.0</ele><time>2026-04-18T14:00:32Z</time></trkpt><trkpt lat="39.148568990307254" lon="8.511499906289295"><ele>58.0</ele><time>2026-04-18T14:00:33Z</time></trkpt><trkpt lat="39.14872606058671" lon="8.511470812350375"><ele>58.0</ele><time>2026-04-18T14:00:34Z</time></trkpt><trkpt lat="39.14888416027238" lon="8.511444959560906"><ele>58.0</ele><time>2026-04-18T14:00:35Z</time></trkpt><trkpt lat="39.149036855779165" lon="8.511412700094708"><ele>58.0</ele><time>2026-04-18T14:00:36Z</time></trkpt><trkpt lat="39.14918236278867" lon="8.511381537482482"><ele>58.0</ele><time>2026-04-18T14:00:37Z</time></trkpt><trkpt lat="39.1493189031078" lon="8.511354256265296"><ele>58.0</ele><time>2026-04-18T14:00:38Z</time></trkpt><trkpt lat="39.1494553817513" lon="8.511329159496293"><ele>58.0</ele><time>2026-04-18T14:00:39Z</time></trkpt><trkpt lat="39.14959253137553" lon="8.51130230070436"><ele>58.0</ele><time>2026-04-18T14:00:40Z</time></trkpt><trkpt lat="39.14972915062553" lon="8.511272134714092"><ele>58.0</ele><time>2026-04-18T14:00:41Z</time></trkpt><trkpt lat="39.14986051415696" lon="8.511242841975113"><ele>58.0</ele><time>2026-04-18T14:00:42Z</time></trkpt><trkpt lat="39.14998628314826" lon="8.511217383846308"><ele>58.0</ele><time>2026-04-18T14:00:43Z</time></trkpt><trkpt lat="39.15010740108177" lon="8.511195416255976"><ele>58.0</ele><time>2026-04-18T14:00:44Z</time></trkpt><trkpt lat="39.15022569301856" lon="8.51117369870604"><ele>58.0</ele><time>2026-04-18T14:00:45Z</time></trkpt><trkpt lat="39.150345470576795" lon="8.511150568413289"><ele>58.0</ele><time>2026-04-18T14:00:46Z</time></trkpt><trkpt lat="39.15046563472543" lon="8.511123718156728"><ele>58.0</ele><time>2026-04-18T14:00:47Z</time></trkpt><trkpt lat="39.150584995410036" lon="8.511098045667277"><ele>58.0</ele><time>2026-04-18T14:00:48Z</time></trkpt><trkpt lat="39.15070766331185" lon="8.51107524872853"><ele>58.0</ele><time>2026-04-18T14:00:49Z</time></trkpt><trkpt lat="39.15083023115183" lon="8.511051767145693"><ele>58.0</ele><time>2026-04-18T14:00:50Z</time></trkpt><trkpt lat="39.15095251846126" lon="8.51102517090451"><ele>58.0</ele><time>2026-04-18T14:00:51Z</time></trkpt><trkpt lat="39.15107421657098" lon="8.510999213961233"><ele>58.75</ele><time>2026-04-18T14:00:52Z</time></trkpt><trkpt lat="39.1511938460131" lon="8.510978158054666"><ele>59.5</ele><time>2026-04-18T14:00:53Z</time></trkpt><trkpt lat="39.151312441359835" lon="8.510956595138865"><ele>60.25</ele><time>2026-04-18T14:00:54Z</time></trkpt><trkpt lat="39.15143243195534" lon="8.5109324728476"><ele>61.0</ele><time>2026-04-18T14:00:55Z</time></trkpt><trkpt lat="39.15155307913569" lon="8.510905770013855"><ele>61.25</ele><time>2026-04-18T14:00:56Z</time></trkpt><trkpt lat="39.15167431844586" lon="8.510882843009544"><ele>61.5</ele><time>2026-04-18T14:00:57Z</time></trkpt><trkpt lat="39.1517951897514" lon="8.510862411895829"><ele>61.75</ele><time>2026-04-18T14:00:58Z</time></trkpt><trkpt lat="39.15191613869661" lon="8.510841879772414"><ele>62.0</ele><time>2026-04-18T14:00:59Z</time></trkpt><trkpt lat="39.15203496909796" lon="8.510820670794299"><ele>62.0</ele><time>2026-04-18T14:01:00Z</time></trkpt><trkpt lat="39.15215185634155" lon="8.510799989164607"><ele>62.0</ele><time>2026-04-18T14:01:01Z</time></trkpt><trkpt lat="39.15226549829266" lon="8.510774988370004"><ele>62.0</ele><time>2026-04-18T14:01:02Z</time></trkpt><trkpt lat="39.15237700018418" lon="8.510750019172448"><ele>62.0</ele><time>2026-04-18T14:01:03Z</time></trkpt><trkpt lat="39.15248691451896" lon="8.510728671699134"><ele>61.6</ele><time>2026-04-18T14:01:04Z</time></trkpt><trkpt lat="39.15259606370753" lon="8.510712815473669"><ele>61.2</ele><time>2026-04-18T14:01:05Z</time></trkpt><trkpt lat="39.15270443108032" lon="8.510695628735913"><ele>60.8</ele><time>2026-04-18T14:01:06Z</time></trkpt><trkpt lat="39.152813562377105" lon="8.510672842108159"><ele>60.4</ele><time>2026-04-18T14:01:07Z</time></trkpt><trkpt lat="39.152923565551625" lon="8.510649964215052"><ele>60.0</ele><time>2026-04-18T14:01:08Z</time></trkpt><trkpt lat="39.15303122969979" lon="8.510631333549922"><ele>60.0</ele><time>2026-04-18T14:01:09Z</time></trkpt><trkpt lat="39.153137021685026" lon="8.510610979316574"><ele>60.0</ele><time>2026-04-18T14:01:10Z</time></trkpt><trkpt lat="39.153242334911894" lon="8.510586765895889"><ele>60.0</ele><time>2026-04-18T14:01:11Z</time></trkpt><trkpt lat="39.15334439679987" lon="8.510567920645789"><ele>60.0</ele><time>2026-04-18T14:01:12Z</time></trkpt><trkpt lat="39.15344243033654" lon="8.510550114164783"><ele>60.0</ele><time>2026-04-18T14:01:13Z</time></trkpt><trkpt lat="39.153531379072334" lon="8.510533400876218"><ele>60.333333333333336</ele><time>2026-04-18T14:01:14Z</time></trkpt><trkpt lat="39.15360479229547" lon="8.51052829449949"><ele>60.66666666666667</ele><time>2026-04-18T14:01:15Z</time></trkpt><trkpt lat="39.15367065417748" lon="8.51054950450337"><ele>61.0</ele><time>2026-04-18T14:01:16Z</time></trkpt><trkpt lat="39.15373204511333" lon="8.510592150645826"><ele>61.333333333333336</ele><time>2026-04-18T14:01:17Z</time></trkpt><trkpt lat="39.1537879217129" lon="8.510671742523732"><ele>61.66666666666667</ele><time>2026-04-18T14:01:18Z</time></trkpt><trkpt lat="39.15385187863389" lon="8.510736140715094"><ele>62.0</ele><time>2026-04-18T14:01:19Z</time></trkpt><trkpt lat="39.15393364891605" lon="8.510780316457938"><ele>62.0</ele><time>2026-04-18T14:01:20Z</time></trkpt><trkpt lat="39.154024021716104" lon="8.510801985635714"><ele>62.0</ele><time>2026-04-18T14:01:21Z</time></trkpt><trkpt lat="39.15411415532275" lon="8.510792338128494"><ele>62.0</ele><time>2026-04-18T14:01:22Z</time></trkpt><trkpt lat="39.154196889460074" lon="8.510731068301315"><ele>62.0</ele><time>2026-04-18T14:01:23Z</time></trkpt><trkpt lat="39.154260847137074" lon="8.510624877974706"><ele>62.0</ele><time>2026-04-18T14:01:24Z</time></trkpt><trkpt lat="39.15431531816955" lon="8.510512000595392"><ele>61.5</ele><time>2026-04-18T14:01:25Z</time></trkpt><trkpt lat="39.15437759396506" lon="8.510405694358694"><ele>61.0</ele><time>2026-04-18T14:01:26Z</time></trkpt><trkpt lat="39.15447616667644" lon="8.51033764629468"><ele>60.5</ele><time>2026-04-18T14:01:27Z</time></trkpt><trkpt lat="39.15459606458142" lon="8.510317228951166"><ele>60.0</ele><time>2026-04-18T14:01:28Z</time></trkpt><trkpt lat="39.154713892536165" lon="8.510291267945032"><ele>60.0</ele><time>2026-04-18T14:01:29Z</time></trkpt><trkpt lat="39.15484779142527" lon="8.510268649515407"><ele>60.0</ele><time>2026-04-18T14:01:30Z</time></trkpt><trkpt lat="39.1549902164913" lon="8.510239873115388"><ele>60.0</ele><time>2026-04-18T14:01:31Z</time></trkpt><trkpt lat="39.155131894562544" lon="8.510210876238984"><ele>60.0</ele><time>2026-04-18T14:01:32Z</time></trkpt><trkpt lat="39.15528539851248" lon="8.510180467001488"><ele>60.33333333333333</ele><time>2026-04-18T14:01:33Z</time></trkpt><trkpt lat="39.155443653170714" lon="8.510149005948449"><ele>60.666666666666664</ele><time>2026-04-18T14:01:34Z</time></trkpt><trkpt lat="39.155608012939545" lon="8.51011444343903"><ele>61.0</ele><time>2026-04-18T14:01:35Z</time></trkpt><trkpt lat="39.155772627284925" lon="8.51008373677612"><ele>61.0</ele><time>2026-04-18T14:01:36Z</time></trkpt><trkpt lat="39.15594614133226" lon="8.510053658657517"><ele>61.0</ele><time>2026-04-18T14:01:37Z</time></trkpt><trkpt lat="39.15612057765648" lon="8.510017702026518"><ele>61.0</ele><time>2026-04-18T14:01:38Z</time></trkpt><trkpt lat="39.15629778751753" lon="8.509980767505665"><ele>61.0</ele><time>2026-04-18T14:01:39Z</time></trkpt><trkpt lat="39.156476786875366" lon="8.509946153737555"><ele>61.0</ele><time>2026-04-18T14:01:40Z</time></trkpt><trkpt lat="39.15665620770069" lon="8.509912241758855"><ele>61.0</ele><time>2026-04-18T14:01:41Z</time></trkpt><trkpt lat="39.156840597358396" lon="8.509873769961093"><ele>62.666666666666664</ele><time>2026-04-18T14:01:42Z</time></trkpt><trkpt lat="39.15702491815219" lon="8.50983363091903"><ele>64.33333333333333</ele><time>2026-04-18T14:01:43Z</time></trkpt><trkpt lat="39.157213128694565" lon="8.509791207641458"><ele>66.0</ele><time>2026-04-18T14:01:44Z</time></trkpt><trkpt lat="39.1574033595536" lon="8.509751295797294"><ele>68.66666666666667</ele><time>2026-04-18T14:01:45Z</time></trkpt><trkpt lat="39.15759489255516" lon="8.509714967763182"><ele>71.33333333333334</ele><time>2026-04-18T14:01:46Z</time></trkpt><trkpt lat="39.15778729479513" lon="8.509680010030129"><ele>74.0</ele><time>2026-04-18T14:01:47Z</time></trkpt><trkpt lat="39.15798130037189" lon="8.509642181983136"><ele>74.0</ele><time>2026-04-18T14:01:48Z</time></trkpt><trkpt lat="39.15817688324067" lon="8.509603275549464"><ele>74.0</ele><time>2026-04-18T14:01:49Z</time></trkpt><trkpt lat="39.1583745951836" lon="8.509565767547867"><ele>74.0</ele><time>2026-04-18T14:01:50Z</time></trkpt><trkpt lat="39.15857129323585" lon="8.509528308479561"><ele>73.66666666666667</ele><time>2026-04-18T14:01:51Z</time></trkpt><trkpt lat="39.15876901798232" lon="8.509488613042778"><ele>73.33333333333333</ele><time>2026-04-18T14:01:52Z</time></trkpt><trkpt lat="39.15896700743826" lon="8.509447823738766"><ele>73.0</ele><time>2026-04-18T14:01:53Z</time></trkpt><trkpt lat="39.15916203410553" lon="8.509409000727896"><ele>73.0</ele><time>2026-04-18T14:01:54Z</time></trkpt><trkpt lat="39.159347662966404" lon="8.509381830324859"><ele>73.0</ele><time>2026-04-18T14:01:55Z</time></trkpt><trkpt lat="39.15951515715253" lon="8.509344912928848"><ele>73.0</ele><time>2026-04-18T14:01:56Z</time></trkpt><trkpt lat="39.15968478611894" lon="8.509312187682307"><ele>73.0</ele><time>2026-04-18T14:01:57Z</time></trkpt><trkpt lat="39.15985560473526" lon="8.509277868929523"><ele>73.0</ele><time>2026-04-18T14:01:58Z</time></trkpt><trkpt lat="39.1600262535354" lon="8.509241579997658"><ele>73.0</ele><time>2026-04-18T14:01:59Z</time></trkpt><trkpt lat="39.16020122241517" lon="8.509207485156681"><ele>73.0</ele><time>2026-04-18T14:02:00Z</time></trkpt><trkpt lat="39.1603775238452" lon="8.509175316156089"><ele>73.0</ele><time>2026-04-18T14:02:01Z</time></trkpt><trkpt lat="39.16055147924232" lon="8.509139941421525"><ele>73.0</ele><time>2026-04-18T14:02:02Z</time></trkpt><trkpt lat="39.16072079773785" lon="8.509105456630447"><ele>73.0</ele><time>2026-04-18T14:02:03Z</time></trkpt><trkpt lat="39.160889440250045" lon="8.509073527203999"><ele>73.0</ele><time>2026-04-18T14:02:04Z</time></trkpt><trkpt lat="39.161055909261044" lon="8.50904192304175"><ele>73.0</ele><time>2026-04-18T14:02:05Z</time></trkpt><trkpt lat="39.16121813546587" lon="8.509006858667533"><ele>73.0</ele><time>2026-04-18T14:02:06Z</time></trkpt><trkpt lat="39.161377639596324" lon="8.508973303724318"><ele>73.0</ele><time>2026-04-18T14:02:07Z</time></trkpt><trkpt lat="39.16153651164755" lon="8.508942599886343"><ele>73.0</ele><time>2026-04-18T14:02:08Z</time></trkpt><trkpt lat="39.16169778881074" lon="8.508910767908258"><ele>73.66666666666666</ele><time>2026-04-18T14:02:09Z</time></trkpt><trkpt lat="39.161857933444445" lon="8.50887926951059"><ele>74.33333333333333</ele><time>2026-04-18T14:02:10Z</time></trkpt><trkpt lat="39.16202453992921" lon="8.50884607229537"><ele>75.0</ele><time>2026-04-18T14:02:11Z</time></trkpt><trkpt lat="39.162189060654725" lon="8.508814150556013"><ele>75.0</ele><time>2026-04-18T14:02:12Z</time></trkpt><trkpt lat="39.16235771033375" lon="8.508781146839574"><ele>75.0</ele><time>2026-04-18T14:02:13Z</time></trkpt><trkpt lat="39.162524359033085" lon="8.508748120539076"><ele>75.0</ele><time>2026-04-18T14:02:14Z</time></trkpt><trkpt lat="39.16267859144329" lon="8.508712884477635"><ele>74.0</ele><time>2026-04-18T14:02:15Z</time></trkpt><trkpt lat="39.16283161408074" lon="8.508678960516214"><ele>73.0</ele><time>2026-04-18T14:02:16Z</time></trkpt><trkpt lat="39.16298200544558" lon="8.508643271943917"><ele>72.0</ele><time>2026-04-18T14:02:17Z</time></trkpt><trkpt lat="39.16313538919025" lon="8.50860457071752"><ele>72.33333333333333</ele><time>2026-04-18T14:02:18Z</time></trkpt><trkpt lat="39.16328974052993" lon="8.508561535890593"><ele>72.66666666666666</ele><time>2026-04-18T14:02:19Z</time></trkpt><trkpt lat="39.16344495514304" lon="8.508509191245686"><ele>73.0</ele><time>2026-04-18T14:02:20Z</time></trkpt><trkpt lat="39.16360178924607" lon="8.508454240291137"><ele>73.0</ele><time>2026-04-18T14:02:21Z</time></trkpt><trkpt lat="39.16376128565258" lon="8.508398534087704"><ele>73.0</ele><time>2026-04-18T14:02:22Z</time></trkpt><trkpt lat="39.16392110895499" lon="8.508339333341546"><ele>73.0</ele><time>2026-04-18T14:02:23Z</time></trkpt><trkpt lat="39.16408331430627" lon="8.50827143474905"><ele>73.0</ele><time>2026-04-18T14:02:24Z</time></trkpt><trkpt lat="39.16423657820116" lon="8.50820080185819"><ele>73.0</ele><time>2026-04-18T14:02:25Z</time></trkpt><trkpt lat="39.16438286719007" lon="8.508130722846712"><ele>73.0</ele><time>2026-04-18T14:02:26Z</time></trkpt><trkpt lat="39.16451924095415" lon="8.508062807577314"><ele>73.0</ele><time>2026-04-18T14:02:27Z</time></trkpt><trkpt lat="39.16464820804648" lon="8.507996319287258"><ele>73.0</ele><time>2026-04-18T14:02:28Z</time></trkpt><trkpt lat="39.16477060098501" lon="8.507935492537193"><ele>73.0</ele><time>2026-04-18T14:02:29Z</time></trkpt><trkpt lat="39.16488480467544" lon="8.507875568498656"><ele>73.0</ele><time>2026-04-18T14:02:30Z</time></trkpt><trkpt lat="39.164993065006136" lon="8.507813155823522"><ele>72.5</ele><time>2026-04-18T14:02:31Z</time></trkpt><trkpt lat="39.165094982621476" lon="8.507758433071224"><ele>72.0</ele><time>2026-04-18T14:02:32Z</time></trkpt><trkpt lat="39.16518739070796" lon="8.507716807088247"><ele>71.5</ele><time>2026-04-18T14:02:33Z</time></trkpt><trkpt lat="39.165267336465355" lon="8.507687289595948"><ele>71.0</ele><time>2026-04-18T14:02:34Z</time></trkpt><trkpt lat="39.16534333627358" lon="8.50769152668559"><ele>70.5</ele><time>2026-04-18T14:02:35Z</time></trkpt><trkpt lat="39.16541823665754" lon="8.507726426296188"><ele>70.0</ele><time>2026-04-18T14:02:36Z</time></trkpt><trkpt lat="39.16549396770591" lon="8.507767488143346"><ele>70.0</ele><time>2026-04-18T14:02:37Z</time></trkpt><trkpt lat="39.16557869747121" lon="8.507805948233935"><ele>70.0</ele><time>2026-04-18T14:02:38Z</time></trkpt><trkpt lat="39.16567710481549" lon="8.507811988884443"><ele>70.0</ele><time>2026-04-18T14:02:39Z</time></trkpt><trkpt lat="39.165774678757565" lon="8.507789453981676"><ele>70.0</ele><time>2026-04-18T14:02:40Z</time></trkpt><trkpt lat="39.1658636742206" lon="8.507714009773808"><ele>70.0</ele><time>2026-04-18T14:02:41Z</time></trkpt><trkpt lat="39.16592794344223" lon="8.50760780945676"><ele>69.8</ele><time>2026-04-18T14:02:42Z</time></trkpt><trkpt lat="39.165968111895445" lon="8.50748270291477"><ele>69.6</ele><time>2026-04-18T14:02:43Z</time></trkpt><trkpt lat="39.16601104215488" lon="8.50735542886369"><ele>69.4</ele><time>2026-04-18T14:02:44Z</time></trkpt><trkpt lat="39.16608730463193" lon="8.507247621222755"><ele>69.2</ele><time>2026-04-18T14:02:45Z</time></trkpt><trkpt lat="39.16619195359503" lon="8.507171999852634"><ele>69.0</ele><time>2026-04-18T14:02:46Z</time></trkpt><trkpt lat="39.166312253241024" lon="8.507128178907694"><ele>68.75</ele><time>2026-04-18T14:02:47Z</time></trkpt><trkpt lat="39.16642889321487" lon="8.50706641095106"><ele>68.5</ele><time>2026-04-18T14:02:48Z</time></trkpt><trkpt lat="39.16654926988295" lon="8.506999922992524"><ele>68.25</ele><time>2026-04-18T14:02:49Z</time></trkpt><trkpt lat="39.166673627099094" lon="8.506928105973163"><ele>68.0</ele><time>2026-04-18T14:02:50Z</time></trkpt><trkpt lat="39.16680267628243" lon="8.506853952076826"><ele>68.0</ele><time>2026-04-18T14:02:51Z</time></trkpt><trkpt lat="39.16693887277261" lon="8.506784069032468"><ele>68.0</ele><time>2026-04-18T14:02:52Z</time></trkpt><trkpt lat="39.16707590695309" lon="8.506712128344965"><ele>68.0</ele><time>2026-04-18T14:02:53Z</time></trkpt><trkpt lat="39.16721677373708" lon="8.506636404562283"><ele>68.0</ele><time>2026-04-18T14:02:54Z</time></trkpt><trkpt lat="39.167361757649324" lon="8.506561762697485"><ele>68.33333333333334</ele><time>2026-04-18T14:02:55Z</time></trkpt><trkpt lat="39.16750728952069" lon="8.506484622719618"><ele>68.66666666666667</ele><time>2026-04-18T14:02:56Z</time></trkpt><trkpt lat="39.16765346366398" lon="8.506402958848039"><ele>69.0</ele><time>2026-04-18T14:02:57Z</time></trkpt><trkpt lat="39.16780180847535" lon="8.506323691439905"><ele>69.0</ele><time>2026-04-18T14:02:58Z</time></trkpt><trkpt lat="39.16795023716519" lon="8.50625075033878"><ele>69.0</ele><time>2026-04-18T14:02:59Z</time></trkpt><trkpt lat="39.168100569535596" lon="8.506168472166921"><ele>69.0</ele><time>2026-04-18T14:03:00Z</time></trkpt><trkpt lat="39.1682527554593" lon="8.506082435451416"><ele>70.33333333333333</ele><time>2026-04-18T14:03:01Z</time></trkpt><trkpt lat="39.168408918952046" lon="8.505998506282204"><ele>71.66666666666666</ele><time>2026-04-18T14:03:02Z</time></trkpt><trkpt lat="39.16856854479478" lon="8.505916597306754"><ele>73.0</ele><time>2026-04-18T14:03:03Z</time></trkpt><trkpt lat="39.168731524886944" lon="8.505828908952669"><ele>73.0</ele><time>2026-04-18T14:03:04Z</time></trkpt><trkpt lat="39.1688989968885" lon="8.505738290555229"><ele>73.0</ele><time>2026-04-18T14:03:05Z</time></trkpt><trkpt lat="39.169070411600096" lon="8.50564715610638"><ele>73.0</ele><time>2026-04-18T14:03:06Z</time></trkpt><trkpt lat="39.16924388513022" lon="8.505554273165693"><ele>72.66666666666666</ele><time>2026-04-18T14:03:07Z</time></trkpt><trkpt lat="39.16942117116788" lon="8.505457433495481"><ele>72.33333333333333</ele><time>2026-04-18T14:03:08Z</time></trkpt><trkpt lat="39.16960957705207" lon="8.505356784294058"><ele>72.0</ele><time>2026-04-18T14:03:09Z</time></trkpt><trkpt lat="39.169804994061735" lon="8.505254001898617"><ele>71.33333333333333</ele><time>2026-04-18T14:03:10Z</time></trkpt><trkpt lat="39.17000841671843" lon="8.505146814475186"><ele>70.66666666666666</ele><time>2026-04-18T14:03:11Z</time></trkpt><trkpt lat="39.17019874742489" lon="8.505040843224156"><ele>70.0</ele><time>2026-04-18T14:03:12Z</time></trkpt><trkpt lat="39.1703928766575" lon="8.50493361162813"><ele>70.0</ele><time>2026-04-18T14:03:13Z</time></trkpt><trkpt lat="39.170586559667974" lon="8.504832264929911"><ele>70.0</ele><time>2026-04-18T14:03:14Z</time></trkpt><trkpt lat="39.1707813112845" lon="8.50473265716866"><ele>70.0</ele><time>2026-04-18T14:03:15Z</time></trkpt><trkpt lat="39.1709706249587" lon="8.504628378179216"><ele>69.66666666666666</ele><time>2026-04-18T14:03:16Z</time></trkpt><trkpt lat="39.1711590320496" lon="8.504524754771534"><ele>69.33333333333333</ele><time>2026-04-18T14:03:17Z</time></trkpt><trkpt lat="39.171340750608906" lon="8.504426787435248"><ele>69.0</ele><time>2026-04-18T14:03:18Z</time></trkpt><trkpt lat="39.17152092015333" lon="8.504329538265281"><ele>69.66666666666667</ele><time>2026-04-18T14:03:19Z</time></trkpt><trkpt lat="39.1716961116634" lon="8.504234354633864"><ele>70.33333333333334</ele><time>2026-04-18T14:03:20Z</time></trkpt><trkpt lat="39.171865512256694" lon="8.5041416358848"><ele>71.0</ele><time>2026-04-18T14:03:21Z</time></trkpt><trkpt lat="39.17203065588091" lon="8.504053986011147"><ele>71.0</ele><time>2026-04-18T14:03:22Z</time></trkpt><trkpt lat="39.17218995904059" lon="8.503969932125349"><ele>71.0</ele><time>2026-04-18T14:03:23Z</time></trkpt><trkpt lat="39.1723488171994" lon="8.503885703961664"><ele>71.0</ele><time>2026-04-18T14:03:24Z</time></trkpt><trkpt lat="39.17250766554897" lon="8.503799546693195"><ele>71.33333333333334</ele><time>2026-04-18T14:03:25Z</time></trkpt><trkpt lat="39.172668372921656" lon="8.50371265122401"><ele>71.66666666666667</ele><time>2026-04-18T14:03:26Z</time></trkpt><trkpt lat="39.172830879308975" lon="8.503629220363592"><ele>72.0</ele><time>2026-04-18T14:03:27Z</time></trkpt><trkpt lat="39.172995540858786" lon="8.503548353145215"><ele>72.0</ele><time>2026-04-18T14:03:28Z</time></trkpt><trkpt lat="39.17316208542275" lon="8.503460323526818"><ele>72.0</ele><time>2026-04-18T14:03:29Z</time></trkpt><trkpt lat="39.17333008365253" lon="8.503369325170748"><ele>72.0</ele><time>2026-04-18T14:03:30Z</time></trkpt><trkpt lat="39.173504477224604" lon="8.503275430187522"><ele>73.0</ele><time>2026-04-18T14:03:31Z</time></trkpt><trkpt lat="39.17368038684214" lon="8.503180078690045"><ele>74.0</ele><time>2026-04-18T14:03:32Z</time></trkpt><trkpt lat="39.173853741395455" lon="8.503087246092209"><ele>75.0</ele><time>2026-04-18T14:03:33Z</time></trkpt><trkpt lat="39.17402779618134" lon="8.5029932706016"><ele>75.0</ele><time>2026-04-18T14:03:34Z</time></trkpt><trkpt lat="39.17420024530137" lon="8.50289908031891"><ele>75.0</ele><time>2026-04-18T14:03:35Z</time></trkpt><trkpt lat="39.174370739369195" lon="8.502809975848528"><ele>75.0</ele><time>2026-04-18T14:03:36Z</time></trkpt><trkpt lat="39.17453782309423" lon="8.502724432467971"><ele>75.0</ele><time>2026-04-18T14:03:37Z</time></trkpt><trkpt lat="39.17470106487594" lon="8.502639803687995"><ele>75.0</ele><time>2026-04-18T14:03:38Z</time></trkpt><trkpt lat="39.17486081359401" lon="8.502556755816077"><ele>75.0</ele><time>2026-04-18T14:03:39Z</time></trkpt><trkpt lat="39.17501769182377" lon="8.502473019379421"><ele>75.0</ele><time>2026-04-18T14:03:40Z</time></trkpt><trkpt lat="39.17517248087397" lon="8.50239034803536"><ele>75.0</ele><time>2026-04-18T14:03:41Z</time></trkpt><trkpt lat="39.175324544022544" lon="8.502307039462892"><ele>75.0</ele><time>2026-04-18T14:03:42Z</time></trkpt><trkpt lat="39.17547497097605" lon="8.502227643837466"><ele>75.0</ele><time>2026-04-18T14:03:43Z</time></trkpt><trkpt lat="39.175617270406065" lon="8.502157650875745"><ele>75.0</ele><time>2026-04-18T14:03:44Z</time></trkpt><trkpt lat="39.175756236394086" lon="8.502093474471518"><ele>75.0</ele><time>2026-04-18T14:03:45Z</time></trkpt><trkpt lat="39.17588449264578" lon="8.502031588394793"><ele>75.0</ele><time>2026-04-18T14:03:46Z</time></trkpt><trkpt lat="39.17600397215418" lon="8.501972242700903"><ele>75.8</ele><time>2026-04-18T14:03:47Z</time></trkpt><trkpt lat="39.17611259561831" lon="8.501914930350106"><ele>76.6</ele><time>2026-04-18T14:03:48Z</time></trkpt><trkpt lat="39.17621427288153" lon="8.501863966031669"><ele>77.4</ele><time>2026-04-18T14:03:49Z</time></trkpt><trkpt lat="39.17631338770324" lon="8.501827852880561"><ele>78.2</ele><time>2026-04-18T14:03:50Z</time></trkpt><trkpt lat="39.17641454138681" lon="8.501812535801163"><ele>79.0</ele><time>2026-04-18T14:03:51Z</time></trkpt><trkpt lat="39.17651892658602" lon="8.501799375770023"><ele>78.75</ele><time>2026-04-18T14:03:52Z</time></trkpt><trkpt lat="39.17661395859072" lon="8.501762485708545"><ele>78.5</ele><time>2026-04-18T14:03:53Z</time></trkpt><trkpt lat="39.17670076913044" lon="8.501672989163183"><ele>78.25</ele><time>2026-04-18T14:03:54Z</time></trkpt><trkpt lat="39.17678075049144" lon="8.501555994003466"><ele>78.0</ele><time>2026-04-18T14:03:55Z</time></trkpt><trkpt lat="39.17688855742278" lon="8.501459728891477"><ele>78.0</ele><time>2026-04-18T14:03:56Z</time></trkpt><trkpt lat="39.17702197898024" lon="8.501392105142203"><ele>78.0</ele><time>2026-04-18T14:03:57Z</time></trkpt><trkpt lat="39.17716188369607" lon="8.501316479891402"><ele>78.0</ele><time>2026-04-18T14:03:58Z</time></trkpt><trkpt lat="39.177305218632526" lon="8.501240024074317"><ele>79.0</ele><time>2026-04-18T14:03:59Z</time></trkpt><trkpt lat="39.177449414418646" lon="8.50116611556692"><ele>80.0</ele><time>2026-04-18T14:04:00Z</time></trkpt><trkpt lat="39.1775941151417" lon="8.501091276821565"><ele>81.0</ele><time>2026-04-18T14:04:01Z</time></trkpt><trkpt lat="39.17774016705937" lon="8.501017399340704"><ele>81.0</ele><time>2026-04-18T14:04:02Z</time></trkpt><trkpt lat="39.17788686741002" lon="8.500942376952407"><ele>81.0</ele><time>2026-04-18T14:04:03Z</time></trkpt><trkpt lat="39.178030688460346" lon="8.500864380925861"><ele>81.0</ele><time>2026-04-18T14:04:04Z</time></trkpt><trkpt lat="39.178171564177575" lon="8.500789759706773"><ele>82.0</ele><time>2026-04-18T14:04:05Z</time></trkpt><trkpt lat="39.17831142513709" lon="8.500716519645493"><ele>83.0</ele><time>2026-04-18T14:04:06Z</time></trkpt><trkpt lat="39.17845175117872" lon="8.500643818674735"><ele>84.0</ele><time>2026-04-18T14:04:07Z</time></trkpt><trkpt lat="39.178592181785234" lon="8.500567345157942"><ele>84.0</ele><time>2026-04-18T14:04:08Z</time></trkpt><trkpt lat="39.17873101951975" lon="8.5004919131104"><ele>84.0</ele><time>2026-04-18T14:04:09Z</time></trkpt><trkpt lat="39.178871323546865" lon="8.50041781278344"><ele>84.0</ele><time>2026-04-18T14:04:10Z</time></trkpt><trkpt lat="39.179008857976555" lon="8.500346125791372"><ele>84.75</ele><time>2026-04-18T14:04:11Z</time></trkpt><trkpt lat="39.179140760506655" lon="8.500270585808781"><ele>85.5</ele><time>2026-04-18T14:04:12Z</time></trkpt><trkpt lat="39.17926552918617" lon="8.50019966102107"><ele>86.25</ele><time>2026-04-18T14:04:13Z</time></trkpt><trkpt lat="39.17938223097554" lon="8.50013220537341"><ele>87.0</ele><time>2026-04-18T14:04:14Z</time></trkpt><trkpt lat="39.179488337593426" lon="8.500068136292638"><ele>87.0</ele><time>2026-04-18T14:04:15Z</time></trkpt><trkpt lat="39.179590891845756" lon="8.500012735083956"><ele>87.0</ele><time>2026-04-18T14:04:16Z</time></trkpt><trkpt lat="39.17969942402504" lon="8.499963976098336"><ele>87.0</ele><time>2026-04-18T14:04:17Z</time></trkpt><trkpt lat="39.17981442085514" lon="8.499908944026348"><ele>87.0</ele><time>2026-04-18T14:04:18Z</time></trkpt><trkpt lat="39.179934334415066" lon="8.499849854410519"><ele>87.25</ele><time>2026-04-18T14:04:19Z</time></trkpt><trkpt lat="39.18005670948439" lon="8.49978680000083"><ele>87.5</ele><time>2026-04-18T14:04:20Z</time></trkpt><trkpt lat="39.180179989626374" lon="8.49971700644142"><ele>87.75</ele><time>2026-04-18T14:04:21Z</time></trkpt><trkpt lat="39.180301478825285" lon="8.499651655332487"><ele>88.0</ele><time>2026-04-18T14:04:22Z</time></trkpt><trkpt lat="39.18042295226812" lon="8.499585147330869"><ele>88.75</ele><time>2026-04-18T14:04:23Z</time></trkpt><trkpt lat="39.18054510433785" lon="8.499517136015184"><ele>89.5</ele><time>2026-04-18T14:04:24Z</time></trkpt><trkpt lat="39.180668888068816" lon="8.499451929650983"><ele>90.25</ele><time>2026-04-18T14:04:25Z</time></trkpt><trkpt lat="39.1807936467929" lon="8.499385476406855"><ele>91.0</ele><time>2026-04-18T14:04:26Z</time></trkpt><trkpt lat="39.18092084066219" lon="8.499320142929607"><ele>91.75</ele><time>2026-04-18T14:04:27Z</time></trkpt><trkpt lat="39.18105006804009" lon="8.499252722780627"><ele>92.5</ele><time>2026-04-18T14:04:28Z</time></trkpt><trkpt lat="39.181178902000184" lon="8.499183259659588"><ele>93.25</ele><time>2026-04-18T14:04:29Z</time></trkpt><trkpt lat="39.18131014247628" lon="8.49911437635408"><ele>94.0</ele><time>2026-04-18T14:04:30Z</time></trkpt><trkpt lat="39.18144342195192" lon="8.499044277952652"><ele>93.75</ele><time>2026-04-18T14:04:31Z</time></trkpt><trkpt lat="39.181570328914205" lon="8.498975392267091"><ele>93.5</ele><time>2026-04-18T14:04:32Z</time></trkpt><trkpt lat="39.18168987403875" lon="8.498905812710692"><ele>93.25</ele><time>2026-04-18T14:04:33Z</time></trkpt><trkpt lat="39.18180560170264" lon="8.498834913027709"><ele>93.0</ele><time>2026-04-18T14:04:34Z</time></trkpt><trkpt lat="39.18191966658357" lon="8.498757370409185"><ele>92.75</ele><time>2026-04-18T14:04:35Z</time></trkpt><trkpt lat="39.18203600986292" lon="8.498673332541298"><ele>92.5</ele><time>2026-04-18T14:04:36Z</time></trkpt><trkpt lat="39.18215203008367" lon="8.498584345283664"><ele>92.25</ele><time>2026-04-18T14:04:37Z</time></trkpt><trkpt lat="39.182272129355226" lon="8.498491353928431"><ele>92.0</ele><time>2026-04-18T14:04:38Z</time></trkpt><trkpt lat="39.182393245581764" lon="8.49839613833052"><ele>93.0</ele><time>2026-04-18T14:04:39Z</time></trkpt><trkpt lat="39.18251402795478" lon="8.498296723887872"><ele>94.0</ele><time>2026-04-18T14:04:40Z</time></trkpt><trkpt lat="39.18263295754075" lon="8.49819672198656"><ele>95.0</ele><time>2026-04-18T14:04:41Z</time></trkpt><trkpt lat="39.18274941689508" lon="8.49809938160871"><ele>96.0</ele><time>2026-04-18T14:04:42Z</time></trkpt><trkpt lat="39.182863301078875" lon="8.498000154678842"><ele>95.75</ele><time>2026-04-18T14:04:43Z</time></trkpt><trkpt lat="39.182975689075064" lon="8.497900460465251"><ele>95.5</ele><time>2026-04-18T14:04:44Z</time></trkpt><trkpt lat="39.18308938308165" lon="8.497797187504297"><ele>95.25</ele><time>2026-04-18T14:04:45Z</time></trkpt><trkpt lat="39.18320388477677" lon="8.497693649783168"><ele>95.0</ele><time>2026-04-18T14:04:46Z</time></trkpt><trkpt lat="39.18331803991816" lon="8.497589101996851"><ele>95.0</ele><time>2026-04-18T14:04:47Z</time></trkpt><trkpt lat="39.183432563104446" lon="8.497482490707206"><ele>95.0</ele><time>2026-04-18T14:04:48Z</time></trkpt><trkpt lat="39.183543293731454" lon="8.497378587342522"><ele>95.0</ele><time>2026-04-18T14:04:49Z</time></trkpt><trkpt lat="39.183655887387104" lon="8.49727814132996"><ele>95.0</ele><time>2026-04-18T14:04:50Z</time></trkpt><trkpt lat="39.18376810906252" lon="8.497177256201674"><ele>95.25</ele><time>2026-04-18T14:04:51Z</time></trkpt><trkpt lat="39.183881652291376" lon="8.497076632914123"><ele>95.5</ele><time>2026-04-18T14:04:52Z</time></trkpt><trkpt lat="39.183997703585256" lon="8.49697611781196"><ele>95.75</ele><time>2026-04-18T14:04:53Z</time></trkpt><trkpt lat="39.18411351700886" lon="8.496874630256912"><ele>96.0</ele><time>2026-04-18T14:04:54Z</time></trkpt><trkpt lat="39.18422906778162" lon="8.49677066851449"><ele>95.25</ele><time>2026-04-18T14:04:55Z</time></trkpt><trkpt lat="39.18434584219803" lon="8.496671022607897"><ele>94.5</ele><time>2026-04-18T14:04:56Z</time></trkpt><trkpt lat="39.1844615958436" lon="8.496581194841594"><ele>93.75</ele><time>2026-04-18T14:04:57Z</time></trkpt><trkpt lat="39.18457318543888" lon="8.496498902389193"><ele>93.0</ele><time>2026-04-18T14:04:58Z</time></trkpt><trkpt lat="39.184657423691554" lon="8.496373426221886"><ele>93.0</ele><time>2026-04-18T14:04:59Z</time></trkpt><trkpt lat="39.18476062376186" lon="8.496282218873233"><ele>93.0</ele><time>2026-04-18T14:05:00Z</time></trkpt><trkpt lat="39.18486840693504" lon="8.496186191957168"><ele>93.0</ele><time>2026-04-18T14:05:01Z</time></trkpt><trkpt lat="39.18497848826742" lon="8.496087184320468"><ele>93.0</ele><time>2026-04-18T14:05:02Z</time></trkpt><trkpt lat="39.18509242645709" lon="8.495981942481553"><ele>93.0</ele><time>2026-04-18T14:05:03Z</time></trkpt><trkpt lat="39.18520979506438" lon="8.49587271145429"><ele>93.0</ele><time>2026-04-18T14:05:04Z</time></trkpt><trkpt lat="39.18532863557175" lon="8.49576194602406"><ele>93.0</ele><time>2026-04-18T14:05:05Z</time></trkpt><trkpt lat="39.18544742652361" lon="8.49565539304526"><ele>93.0</ele><time>2026-04-18T14:05:06Z</time></trkpt><trkpt lat="39.18555065506969" lon="8.495554016490319"><ele>93.0</ele><time>2026-04-18T14:05:07Z</time></trkpt><trkpt lat="39.185634522393215" lon="8.49547233059815"><ele>93.0</ele><time>2026-04-18T14:05:08Z</time></trkpt><trkpt lat="39.1857081651079" lon="8.495401585559804"><ele>93.0</ele><time>2026-04-18T14:05:09Z</time></trkpt><trkpt lat="39.1857748107836" lon="8.495353900287974"><ele>93.0</ele><time>2026-04-18T14:05:10Z</time></trkpt><trkpt lat="39.185850815397025" lon="8.49531042995536"><ele>93.0</ele><time>2026-04-18T14:05:12Z</time></trkpt><trkpt lat="39.185929922093244" lon="8.495183676416586"><ele>92.60000000000001</ele><time>2026-04-18T14:07:01Z</time></trkpt><trkpt lat="39.1859915577229" lon="8.495114864986867"><ele>92.2</ele><time>2026-04-18T14:07:02Z</time></trkpt><trkpt lat="39.18605612013161" lon="8.495034007074127"><ele>91.8</ele><time>2026-04-18T14:07:03Z</time></trkpt><trkpt lat="39.1861287814363" lon="8.494943524146889"><ele>91.4</ele><time>2026-04-18T14:07:04Z</time></trkpt><trkpt lat="39.18620964979062" lon="8.49484805904837"><ele>91.0</ele><time>2026-04-18T14:07:05Z</time></trkpt><trkpt lat="39.1862956599128" lon="8.494757384414141"><ele>91.0</ele><time>2026-04-18T14:07:06Z</time></trkpt><trkpt lat="39.186395985780784" lon="8.494668724287829"><ele>91.0</ele><time>2026-04-18T14:07:07Z</time></trkpt><trkpt lat="39.18650996249535" lon="8.494592554842034"><ele>91.0</ele><time>2026-04-18T14:07:08Z</time></trkpt><trkpt lat="39.18663644167863" lon="8.494532692405015"><ele>91.0</ele><time>2026-04-18T14:07:09Z</time></trkpt><trkpt lat="39.18677161499467" lon="8.494492407811085"><ele>90.25</ele><time>2026-04-18T14:07:10Z</time></trkpt><trkpt lat="39.18691552983126" lon="8.494467319156115"><ele>89.5</ele><time>2026-04-18T14:07:11Z</time></trkpt><trkpt lat="39.18706140637336" lon="8.4944534732256"><ele>88.75</ele><time>2026-04-18T14:07:12Z</time></trkpt><trkpt lat="39.187206431093934" lon="8.4944456458301"><ele>88.0</ele><time>2026-04-18T14:07:13Z</time></trkpt><trkpt lat="39.18734565988679" lon="8.494435149055631"><ele>86.75</ele><time>2026-04-18T14:07:14Z</time></trkpt><trkpt lat="39.18746656170757" lon="8.49439469134118"><ele>85.5</ele><time>2026-04-18T14:07:15Z</time></trkpt><trkpt lat="39.18758831975422" lon="8.494431781405208"><ele>84.25</ele><time>2026-04-18T14:07:16Z</time></trkpt><trkpt lat="39.18768897777595" lon="8.494461718535394"><ele>83.0</ele><time>2026-04-18T14:07:17Z</time></trkpt><trkpt lat="39.18777529673527" lon="8.494529195540727"><ele>83.0</ele><time>2026-04-18T14:07:18Z</time></trkpt><trkpt lat="39.18783163401025" lon="8.494628324319299"><ele>83.0</ele><time>2026-04-18T14:07:19Z</time></trkpt><trkpt lat="39.18785861795839" lon="8.494748857877681"><ele>83.0</ele><time>2026-04-18T14:07:20Z</time></trkpt><trkpt lat="39.18787179094819" lon="8.494882680628907"><ele>83.0</ele><time>2026-04-18T14:07:21Z</time></trkpt><trkpt lat="39.18788483173275" lon="8.495032633073151"><ele>83.0</ele><time>2026-04-18T14:07:22Z</time></trkpt><trkpt lat="39.18790792187868" lon="8.495195547573159"><ele>83.0</ele><time>2026-04-18T14:07:23Z</time></trkpt><trkpt lat="39.18793162237593" lon="8.495364268545153"><ele>83.0</ele><time>2026-04-18T14:07:24Z</time></trkpt><trkpt lat="39.18795543391796" lon="8.495538071850083"><ele>83.0</ele><time>2026-04-18T14:07:25Z</time></trkpt><trkpt lat="39.18797817316628" lon="8.495723663742591"><ele>83.0</ele><time>2026-04-18T14:07:26Z</time></trkpt><trkpt lat="39.18799647573528" lon="8.495917528057575"><ele>84.66666666666667</ele><time>2026-04-18T14:07:27Z</time></trkpt><trkpt lat="39.188011122814494" lon="8.496119154657352"><ele>86.33333333333333</ele><time>2026-04-18T14:07:27.999Z</time></trkpt><trkpt lat="39.18803104040646" lon="8.496324370533053"><ele>88.0</ele><time>2026-04-18T14:07:28.999Z</time></trkpt><trkpt lat="39.18805625640605" lon="8.496528310554863"><ele>88.33333333333333</ele><time>2026-04-18T14:07:29.999Z</time></trkpt><trkpt lat="39.188082203486616" lon="8.496734126571026"><ele>88.66666666666667</ele><time>2026-04-18T14:07:30.999Z</time></trkpt><trkpt lat="39.188097882384206" lon="8.49694048785163"><ele>89.0</ele><time>2026-04-18T14:07:31.999Z</time></trkpt><trkpt lat="39.18811971648858" lon="8.49713899594596"><ele>89.66666666666667</ele><time>2026-04-18T14:07:32.999Z</time></trkpt><trkpt lat="39.18814631299024" lon="8.497329676513319"><ele>90.33333333333333</ele><time>2026-04-18T14:07:33.999Z</time></trkpt><trkpt lat="39.18818727491459" lon="8.497526296964555"><ele>91.0</ele><time>2026-04-18T14:07:34.999Z</time></trkpt><trkpt lat="39.18824543800024" lon="8.497710830757981"><ele>91.0</ele><time>2026-04-18T14:07:35.999Z</time></trkpt><trkpt lat="39.18832068520077" lon="8.497893032693984"><ele>91.0</ele><time>2026-04-18T14:07:37Z</time></trkpt><trkpt lat="39.188415138628905" lon="8.498070568112887"><ele>91.0</ele><time>2026-04-18T14:07:38Z</time></trkpt><trkpt lat="39.18852287841236" lon="8.498234853177768"><ele>91.66666666666666</ele><time>2026-04-18T14:07:39Z</time></trkpt><trkpt lat="39.1886484042708" lon="8.498390106892938"><ele>92.33333333333333</ele><time>2026-04-18T14:07:40Z</time></trkpt><trkpt lat="39.188787498485844" lon="8.49852865604988"><ele>93.0</ele><time>2026-04-18T14:07:41Z</time></trkpt><trkpt lat="39.18894366523385" lon="8.498648503196625"><ele>93.33333333333333</ele><time>2026-04-18T14:07:42Z</time></trkpt><trkpt lat="39.189106558545696" lon="8.49875167894817"><ele>93.66666666666666</ele><time>2026-04-18T14:07:43Z</time></trkpt><trkpt lat="39.18927390092428" lon="8.49884667312568"><ele>94.0</ele><time>2026-04-18T14:07:44Z</time></trkpt><trkpt lat="39.189440574465735" lon="8.498937259911735"><ele>94.0</ele><time>2026-04-18T14:07:45Z</time></trkpt><trkpt lat="39.189609206676884" lon="8.49903401451491"><ele>94.0</ele><time>2026-04-18T14:07:46Z</time></trkpt><trkpt lat="39.18977947516885" lon="8.499130668927467"><ele>94.0</ele><time>2026-04-18T14:07:47Z</time></trkpt><trkpt lat="39.189953043694175" lon="8.499230326926817"><ele>94.33333333333333</ele><time>2026-04-18T14:07:48Z</time></trkpt><trkpt lat="39.19012656253226" lon="8.49933219785086"><ele>94.66666666666667</ele><time>2026-04-18T14:07:49Z</time></trkpt><trkpt lat="39.190301782346566" lon="8.499435924316694"><ele>95.0</ele><time>2026-04-18T14:07:50Z</time></trkpt><trkpt lat="39.19048036368911" lon="8.499538979570904"><ele>95.33333333333334</ele><time>2026-04-18T14:07:51Z</time></trkpt><trkpt lat="39.190660539224375" lon="8.499640590844884"><ele>95.66666666666667</ele><time>2026-04-18T14:07:52Z</time></trkpt><trkpt lat="39.19084210219605" lon="8.499742795137957"><ele>96.0</ele><time>2026-04-18T14:07:53Z</time></trkpt><trkpt lat="39.19102348632013" lon="8.499846130092635"><ele>96.0</ele><time>2026-04-18T14:07:54Z</time></trkpt><trkpt lat="39.19120490265126" lon="8.49995357816113"><ele>96.0</ele><time>2026-04-18T14:07:55Z</time></trkpt><trkpt lat="39.19138736729687" lon="8.500060314501628"><ele>96.0</ele><time>2026-04-18T14:07:56Z</time></trkpt><trkpt lat="39.19156916504835" lon="8.500167072408045"><ele>96.0</ele><time>2026-04-18T14:07:57Z</time></trkpt><trkpt lat="39.191753240263736" lon="8.500274434335696"><ele>96.0</ele><time>2026-04-18T14:07:58Z</time></trkpt><trkpt lat="39.19193767712096" lon="8.500381410141465"><ele>96.0</ele><time>2026-04-18T14:07:59Z</time></trkpt><trkpt lat="39.19212358000815" lon="8.500488221943646"><ele>96.0</ele><time>2026-04-18T14:08:00Z</time></trkpt><trkpt lat="39.192309379747286" lon="8.500597330728459"><ele>96.0</ele><time>2026-04-18T14:08:01Z</time></trkpt><trkpt lat="39.19249789080719" lon="8.500704664931678"><ele>96.0</ele><time>2026-04-18T14:08:02Z</time></trkpt><trkpt lat="39.19268754036206" lon="8.50081153270822"><ele>96.0</ele><time>2026-04-18T14:08:03Z</time></trkpt><trkpt lat="39.19287738115992" lon="8.500918343666308"><ele>96.0</ele><time>2026-04-18T14:08:04Z</time></trkpt><trkpt lat="39.19306895350263" lon="8.501026002865451"><ele>96.0</ele><time>2026-04-18T14:08:05Z</time></trkpt><trkpt lat="39.1932611024515" lon="8.501134809516563"><ele>95.33333333333333</ele><time>2026-04-18T14:08:06Z</time></trkpt><trkpt lat="39.193454350505135" lon="8.501244840944347"><ele>94.66666666666666</ele><time>2026-04-18T14:08:07Z</time></trkpt><trkpt lat="39.19364844855813" lon="8.501357424609703"><ele>94.0</ele><time>2026-04-18T14:08:08Z</time></trkpt><trkpt lat="39.193841440392" lon="8.501471787888585"><ele>92.66666666666666</ele><time>2026-04-18T14:08:09Z</time></trkpt><trkpt lat="39.19403671629032" lon="8.501588047560597"><ele>91.33333333333333</ele><time>2026-04-18T14:08:10Z</time></trkpt><trkpt lat="39.19423494732503" lon="8.501702447649466"><ele>90.0</ele><time>2026-04-18T14:08:11Z</time></trkpt><trkpt lat="39.1944338508207" lon="8.50181577369348"><ele>90.0</ele><time>2026-04-18T14:08:12Z</time></trkpt><trkpt lat="39.19463371699085" lon="8.501927491040894"><ele>90.0</ele><time>2026-04-18T14:08:13Z</time></trkpt><trkpt lat="39.19483336158154" lon="8.502039927402754"><ele>90.0</ele><time>2026-04-18T14:08:14Z</time></trkpt><trkpt lat="39.19503151277612" lon="8.502151436197128"><ele>90.66666666666667</ele><time>2026-04-18T14:08:15Z</time></trkpt><trkpt lat="39.195228315662405" lon="8.502264422299964"><ele>91.33333333333334</ele><time>2026-04-18T14:08:16Z</time></trkpt><trkpt lat="39.195421270810876" lon="8.502378117177253"><ele>92.0</ele><time>2026-04-18T14:08:17Z</time></trkpt><trkpt lat="39.195611679506186" lon="8.50249043009449"><ele>92.66666666666667</ele><time>2026-04-18T14:08:18Z</time></trkpt><trkpt lat="39.19579666080777" lon="8.50259812887324"><ele>93.33333333333333</ele><time>2026-04-18T14:08:19Z</time></trkpt><trkpt lat="39.19597966409848" lon="8.50269930945803"><ele>94.0</ele><time>2026-04-18T14:08:20Z</time></trkpt><trkpt lat="39.19615837035817" lon="8.50279727401126"><ele>94.0</ele><time>2026-04-18T14:08:21Z</time></trkpt><trkpt lat="39.196332176765985" lon="8.502895989841358"><ele>94.0</ele><time>2026-04-18T14:08:22Z</time></trkpt><trkpt lat="39.19650517066963" lon="8.50299301312477"><ele>94.0</ele><time>2026-04-18T14:08:23Z</time></trkpt><trkpt lat="39.196740794788504" lon="8.50313181863061"><ele>96.0</ele><time>2026-04-18T14:08:24Z</time></trkpt><trkpt lat="39.19692863116772" lon="8.503238782492868"><ele>98.0</ele><time>2026-04-18T14:08:25Z</time></trkpt><trkpt lat="39.19711507715528" lon="8.503345444500972"><ele>100.0</ele><time>2026-04-18T14:08:26Z</time></trkpt><trkpt lat="39.1973003999809" lon="8.503451482685543"><ele>100.0</ele><time>2026-04-18T14:08:27Z</time></trkpt><trkpt lat="39.197486507990085" lon="8.503559137536026"><ele>100.0</ele><time>2026-04-18T14:08:28Z</time></trkpt><trkpt lat="39.19767379998017" lon="8.503666530698744"><ele>100.0</ele><time>2026-04-18T14:08:29Z</time></trkpt><trkpt lat="39.19786501350997" lon="8.503774428605285"><ele>102.66666666666667</ele><time>2026-04-18T14:08:30Z</time></trkpt><trkpt lat="39.19805367270757" lon="8.503877037245623"><ele>105.33333333333334</ele><time>2026-04-18T14:08:31Z</time></trkpt><trkpt lat="39.19824533192727" lon="8.50397955094525"><ele>108.0</ele><time>2026-04-18T14:08:32Z</time></trkpt><trkpt lat="39.19843700655289" lon="8.50408322760782"><ele>108.0</ele><time>2026-04-18T14:08:33Z</time></trkpt><trkpt lat="39.19862964653856" lon="8.504191175090648"><ele>108.0</ele><time>2026-04-18T14:08:34Z</time></trkpt><trkpt lat="39.198823238444525" lon="8.504305063776501"><ele>108.0</ele><time>2026-04-18T14:08:35Z</time></trkpt><trkpt lat="39.19901656457031" lon="8.504418640075142"><ele>108.0</ele><time>2026-04-18T14:08:36Z</time></trkpt><trkpt lat="39.19920711198229" lon="8.504526232771399"><ele>108.0</ele><time>2026-04-18T14:08:37Z</time></trkpt><trkpt lat="39.19939551038248" lon="8.504629267843962"><ele>108.0</ele><time>2026-04-18T14:08:38Z</time></trkpt><trkpt lat="39.19958263982937" lon="8.504730285356576"><ele>109.33333333333334</ele><time>2026-04-18T14:08:39Z</time></trkpt><trkpt lat="39.199784133574425" lon="8.504851957942252"><ele>110.66666666666667</ele><time>2026-04-18T14:08:40Z</time></trkpt><trkpt lat="39.19997733812539" lon="8.50496201172846"><ele>112.0</ele><time>2026-04-18T14:08:41Z</time></trkpt><trkpt lat="39.200169966602814" lon="8.505072713925827"><ele>112.0</ele><time>2026-04-18T14:08:42Z</time></trkpt><trkpt lat="39.200364002576904" lon="8.50518451426235"><ele>112.0</ele><time>2026-04-18T14:08:43Z</time></trkpt><trkpt lat="39.200556999495774" lon="8.505292350079134"><ele>112.0</ele><time>2026-04-18T14:08:44Z</time></trkpt><trkpt lat="39.200743261765126" lon="8.505392389699088"><ele>113.0</ele><time>2026-04-18T14:08:45Z</time></trkpt><trkpt lat="39.2009227904279" lon="8.505485385221851"><ele>114.0</ele><time>2026-04-18T14:08:46Z</time></trkpt><trkpt lat="39.20109806538832" lon="8.505574212830126"><ele>115.0</ele><time>2026-04-18T14:08:47Z</time></trkpt><trkpt lat="39.20132210320421" lon="8.505733814617095"><ele>114.33333333333334</ele><time>2026-04-18T14:08:48Z</time></trkpt><trkpt lat="39.20150537636193" lon="8.505839330093298"><ele>113.66666666666666</ele><time>2026-04-18T14:08:49Z</time></trkpt><trkpt lat="39.2016874924206" lon="8.505944446203841"><ele>113.0</ele><time>2026-04-18T14:08:50Z</time></trkpt><trkpt lat="39.20186739077331" lon="8.506047600730028"><ele>113.0</ele><time>2026-04-18T14:08:51Z</time></trkpt><trkpt lat="39.20204495394925" lon="8.506150405725005"><ele>113.0</ele><time>2026-04-18T14:08:52Z</time></trkpt><trkpt lat="39.20222091946541" lon="8.506255454762227"><ele>113.0</ele><time>2026-04-18T14:08:53Z</time></trkpt><trkpt lat="39.20239563031685" lon="8.50635928863084"><ele>113.66666666666666</ele><time>2026-04-18T14:08:54Z</time></trkpt><trkpt lat="39.202569440600335" lon="8.506458478352602"><ele>114.33333333333334</ele><time>2026-04-18T14:08:55Z</time></trkpt><trkpt lat="39.20274589047703" lon="8.506558833184975"><ele>115.0</ele><time>2026-04-18T14:08:56Z</time></trkpt><trkpt lat="39.20292270991427" lon="8.50665858732024"><ele>115.0</ele><time>2026-04-18T14:08:57Z</time></trkpt><trkpt lat="39.20309916671822" lon="8.506760799202915"><ele>115.0</ele><time>2026-04-18T14:08:58Z</time></trkpt><trkpt lat="39.20327566786326" lon="8.506866412119065"><ele>115.0</ele><time>2026-04-18T14:08:59Z</time></trkpt><trkpt lat="39.20345506214224" lon="8.506969972919121"><ele>114.33333333333334</ele><time>2026-04-18T14:09:00Z</time></trkpt><trkpt lat="39.203635901708594" lon="8.507069737807031"><ele>113.66666666666666</ele><time>2026-04-18T14:09:01Z</time></trkpt><trkpt lat="39.203815326852414" lon="8.507165424774715"><ele>113.0</ele><time>2026-04-18T14:09:02Z</time></trkpt><trkpt lat="39.20399853431365" lon="8.507264614432275"><ele>112.0</ele><time>2026-04-18T14:09:03Z</time></trkpt><trkpt lat="39.20417747526588" lon="8.507367644049923"><ele>111.0</ele><time>2026-04-18T14:09:04Z</time></trkpt><trkpt lat="39.204356159259646" lon="8.50746967881171"><ele>110.0</ele><time>2026-04-18T14:09:05Z</time></trkpt><trkpt lat="39.2045348033149" lon="8.507576078342343"><ele>110.0</ele><time>2026-04-18T14:09:06Z</time></trkpt><trkpt lat="39.20471447014245" lon="8.507679793803005"><ele>110.0</ele><time>2026-04-18T14:09:07Z</time></trkpt><trkpt lat="39.20489169637336" lon="8.507786224182357"><ele>110.0</ele><time>2026-04-18T14:09:08Z</time></trkpt><trkpt lat="39.20507506710646" lon="8.50788929810317"><ele>111.66666666666666</ele><time>2026-04-18T14:09:09Z</time></trkpt><trkpt lat="39.2052563548368" lon="8.507997494013463"><ele>113.33333333333334</ele><time>2026-04-18T14:09:10Z</time></trkpt><trkpt lat="39.205437243146875" lon="8.508105376946014"><ele>115.0</ele><time>2026-04-18T14:09:11Z</time></trkpt><trkpt lat="39.2056189684304" lon="8.508213606772175"><ele>113.33333333333334</ele><time>2026-04-18T14:09:12Z</time></trkpt><trkpt lat="39.20580266435788" lon="8.508323126450389"><ele>111.66666666666666</ele><time>2026-04-18T14:09:13Z</time></trkpt><trkpt lat="39.2059873222679" lon="8.508431131084624"><ele>110.0</ele><time>2026-04-18T14:09:14Z</time></trkpt><trkpt lat="39.20616899935601" lon="8.508545434533831"><ele>110.0</ele><time>2026-04-18T14:09:15Z</time></trkpt><trkpt lat="39.20634594784144" lon="8.508672190675568"><ele>110.0</ele><time>2026-04-18T14:09:16Z</time></trkpt><trkpt lat="39.20651698942352" lon="8.508814318781743"><ele>110.0</ele><time>2026-04-18T14:09:17Z</time></trkpt><trkpt lat="39.20667732149609" lon="8.508964465529212"><ele>109.66666666666666</ele><time>2026-04-18T14:09:18Z</time></trkpt><trkpt lat="39.20683683677942" lon="8.509126981665219"><ele>109.33333333333334</ele><time>2026-04-18T14:09:19Z</time></trkpt><trkpt lat="39.20698546664986" lon="8.509304204765952"><ele>109.0</ele><time>2026-04-18T14:09:20Z</time></trkpt><trkpt lat="39.20712257039486" lon="8.509493382018624"><ele>108.66666666666667</ele><time>2026-04-18T14:09:21Z</time></trkpt><trkpt lat="39.20725255680409" lon="8.509691510233298"><ele>108.33333333333334</ele><time>2026-04-18T14:09:22Z</time></trkpt><trkpt lat="39.20737891326414" lon="8.509892688204863"><ele>108.0</ele><time>2026-04-18T14:09:23Z</time></trkpt><trkpt lat="39.20750582529419" lon="8.510101558796753"><ele>107.33333333333334</ele><time>2026-04-18T14:09:24Z</time></trkpt><trkpt lat="39.20762685273444" lon="8.510311642853628"><ele>106.66666666666667</ele><time>2026-04-18T14:09:25Z</time></trkpt><trkpt lat="39.207747681727845" lon="8.510519944141485"><ele>106.0</ele><time>2026-04-18T14:09:26Z</time></trkpt><trkpt lat="39.20786828116048" lon="8.510728885448174"><ele>106.0</ele><time>2026-04-18T14:09:27Z</time></trkpt><trkpt lat="39.20798980999692" lon="8.510937792086679"><ele>106.0</ele><time>2026-04-18T14:09:28Z</time></trkpt><trkpt lat="39.208111423160766" lon="8.511147189941457"><ele>106.0</ele><time>2026-04-18T14:09:29Z</time></trkpt><trkpt lat="39.20823540703604" lon="8.511355933251695"><ele>107.33333333333334</ele><time>2026-04-18T14:09:30Z</time></trkpt><trkpt lat="39.208359518714026" lon="8.51156756556036"><ele>108.66666666666666</ele><time>2026-04-18T14:09:31Z</time></trkpt><trkpt lat="39.208478466726646" lon="8.51177742730522"><ele>110.0</ele><time>2026-04-18T14:09:32Z</time></trkpt><trkpt lat="39.20859916681291" lon="8.511989218195259"><ele>112.0</ele><time>2026-04-18T14:09:33Z</time></trkpt><trkpt lat="39.20872378016959" lon="8.512201400630824"><ele>114.0</ele><time>2026-04-18T14:09:34Z</time></trkpt><trkpt lat="39.20884433795285" lon="8.512414440148444"><ele>116.0</ele><time>2026-04-18T14:09:35Z</time></trkpt><trkpt lat="39.20895557918617" lon="8.512630943758449"><ele>115.66666666666666</ele><time>2026-04-18T14:09:36Z</time></trkpt><trkpt lat="39.20906020377508" lon="8.512859067480903"><ele>115.33333333333334</ele><time>2026-04-18T14:09:37Z</time></trkpt><trkpt lat="39.209148329337644" lon="8.51309053547787"><ele>115.0</ele><time>2026-04-18T14:09:38Z</time></trkpt><trkpt lat="39.20923491196516" lon="8.513325648738315"><ele>115.0</ele><time>2026-04-18T14:09:39Z</time></trkpt><trkpt lat="39.20931483748015" lon="8.513563014275011"><ele>115.0</ele><time>2026-04-18T14:09:40Z</time></trkpt><trkpt lat="39.209399157941526" lon="8.513803253139393"><ele>115.0</ele><time>2026-04-18T14:09:41Z</time></trkpt><trkpt lat="39.20947854057513" lon="8.514046455532178"><ele>115.0</ele><time>2026-04-18T14:09:42Z</time></trkpt><trkpt lat="39.20955620480767" lon="8.514294204815522"><ele>115.0</ele><time>2026-04-18T14:09:43Z</time></trkpt><trkpt lat="39.209626548877665" lon="8.514540884488111"><ele>115.0</ele><time>2026-04-18T14:09:44Z</time></trkpt><trkpt lat="39.2096984759598" lon="8.514795614752549"><ele>115.0</ele><time>2026-04-18T14:09:45Z</time></trkpt><trkpt lat="39.20976800028618" lon="8.515047946269625"><ele>115.0</ele><time>2026-04-18T14:09:46Z</time></trkpt><trkpt lat="39.20984020425386" lon="8.515305479973033"><ele>115.0</ele><time>2026-04-18T14:09:47Z</time></trkpt><trkpt lat="39.20991231731742" lon="8.515560345146609"><ele>113.66666666666667</ele><time>2026-04-18T14:09:48Z</time></trkpt><trkpt lat="39.20998608645923" lon="8.51582007540464"><ele>112.33333333333334</ele><time>2026-04-18T14:09:49Z</time></trkpt><trkpt lat="39.21005915668063" lon="8.516078342092518"><ele>111.0</ele><time>2026-04-18T14:09:50Z</time></trkpt><trkpt lat="39.2101308670455" lon="8.516335915216462"><ele>111.0</ele><time>2026-04-18T14:09:51Z</time></trkpt><trkpt lat="39.21020324336534" lon="8.51659827804843"><ele>111.0</ele><time>2026-04-18T14:09:52Z</time></trkpt><trkpt lat="39.21027565407264" lon="8.516858123789548"><ele>111.0</ele><time>2026-04-18T14:09:53Z</time></trkpt><trkpt lat="39.210349762993545" lon="8.517120753472225"><ele>112.0</ele><time>2026-04-18T14:09:54Z</time></trkpt><trkpt lat="39.210424377747444" lon="8.517384610610813"><ele>113.0</ele><time>2026-04-18T14:09:55Z</time></trkpt><trkpt lat="39.21049903534814" lon="8.517651280022633"><ele>114.0</ele><time>2026-04-18T14:09:56Z</time></trkpt><trkpt lat="39.21056894782045" lon="8.517915708074176"><ele>113.66666666666666</ele><time>2026-04-18T14:09:57Z</time></trkpt><trkpt lat="39.21063362286129" lon="8.518184825500953"><ele>113.33333333333333</ele><time>2026-04-18T14:09:58Z</time></trkpt><trkpt lat="39.210688669209055" lon="8.518456613759497"><ele>113.0</ele><time>2026-04-18T14:09:59Z</time></trkpt><trkpt lat="39.21073521596472" lon="8.518728290043155"><ele>113.66666666666666</ele><time>2026-04-18T14:10:00Z</time></trkpt><trkpt lat="39.21077883340341" lon="8.518999522000898"><ele>114.33333333333334</ele><time>2026-04-18T14:10:01Z</time></trkpt><trkpt lat="39.21082436095228" lon="8.519273258628568"><ele>115.0</ele><time>2026-04-18T14:10:02Z</time></trkpt><trkpt lat="39.21087197100334" lon="8.51954499545833"><ele>116.33333333333334</ele><time>2026-04-18T14:10:03Z</time></trkpt><trkpt lat="39.21091859790816" lon="8.519815705876653"><ele>117.66666666666666</ele><time>2026-04-18T14:10:04Z</time></trkpt><trkpt lat="39.210968167681806" lon="8.520085355534668"><ele>119.0</ele><time>2026-04-18T14:10:05Z</time></trkpt><trkpt lat="39.211019769838856" lon="8.520353040587956"><ele>120.66666666666666</ele><time>2026-04-18T14:10:06Z</time></trkpt><trkpt lat="39.2110805247559" lon="8.52062498816429"><ele>122.33333333333334</ele><time>2026-04-18T14:10:07Z</time></trkpt><trkpt lat="39.2111499389417" lon="8.520889587107337"><ele>124.0</ele><time>2026-04-18T14:10:08Z</time></trkpt><trkpt lat="39.21123143451253" lon="8.521154524803412"><ele>122.66666666666667</ele><time>2026-04-18T14:10:09Z</time></trkpt><trkpt lat="39.211322354410655" lon="8.521418415165225"><ele>121.33333333333334</ele><time>2026-04-18T14:10:10Z</time></trkpt><trkpt lat="39.21142216080017" lon="8.521674216016452"><ele>120.0</ele><time>2026-04-18T14:10:11Z</time></trkpt><trkpt lat="39.211527230441156" lon="8.521920662886597"><ele>120.66666666666666</ele><time>2026-04-18T14:10:12Z</time></trkpt><trkpt lat="39.21163012106336" lon="8.522154788297003"><ele>121.33333333333333</ele><time>2026-04-18T14:10:13Z</time></trkpt><trkpt lat="39.21172591629843" lon="8.522378339196123"><ele>122.0</ele><time>2026-04-18T14:10:14Z</time></trkpt><trkpt lat="39.21181799639381" lon="8.522596222419569"><ele>122.0</ele><time>2026-04-18T14:10:15Z</time></trkpt><trkpt lat="39.21190748549459" lon="8.522810999336711"><ele>122.0</ele><time>2026-04-18T14:10:16Z</time></trkpt><trkpt lat="39.21199290924459" lon="8.523028502635743"><ele>122.0</ele><time>2026-04-18T14:10:17Z</time></trkpt><trkpt lat="39.21207699012438" lon="8.523244473208678"><ele>122.33333333333333</ele><time>2026-04-18T14:10:18Z</time></trkpt><trkpt lat="39.212161787117665" lon="8.523463496678746"><ele>122.66666666666666</ele><time>2026-04-18T14:10:19Z</time></trkpt><trkpt lat="39.21225072701932" lon="8.523680771187246"><ele>123.0</ele><time>2026-04-18T14:10:20Z</time></trkpt><trkpt lat="39.21234001545053" lon="8.523906994010487"><ele>123.0</ele><time>2026-04-18T14:10:21Z</time></trkpt><trkpt lat="39.21243615091111" lon="8.524132333041186"><ele>123.0</ele><time>2026-04-18T14:10:22Z</time></trkpt><trkpt lat="39.21253478986277" lon="8.52436157409594"><ele>123.0</ele><time>2026-04-18T14:10:23Z</time></trkpt><trkpt lat="39.21263794653948" lon="8.524599087044963"><ele>126.0</ele><time>2026-04-18T14:10:24Z</time></trkpt><trkpt lat="39.21274667213236" lon="8.524842028811852"><ele>129.0</ele><time>2026-04-18T14:10:25Z</time></trkpt><trkpt lat="39.21286087350038" lon="8.525112327875368"><ele>129.0</ele><time>2026-04-18T14:10:26Z</time></trkpt><trkpt lat="39.212989702005835" lon="8.525388465598816"><ele>129.0</ele><time>2026-04-18T14:10:27Z</time></trkpt><trkpt lat="39.213117797518656" lon="8.525676439540137"><ele>129.0</ele><time>2026-04-18T14:10:28Z</time></trkpt><trkpt lat="39.21325094504684" lon="8.525976092905134"><ele>129.0</ele><time>2026-04-18T14:10:29Z</time></trkpt><trkpt lat="39.21338554906992" lon="8.526283527372978"><ele>129.0</ele><time>2026-04-18T14:10:30Z</time></trkpt><trkpt lat="39.21352302219165" lon="8.526599548691507"><ele>129.0</ele><time>2026-04-18T14:10:31Z</time></trkpt><trkpt lat="39.21365657155577" lon="8.526918492417641"><ele>130.5</ele><time>2026-04-18T14:10:32Z</time></trkpt><trkpt lat="39.213784096574294" lon="8.527244960860793"><ele>132.0</ele><time>2026-04-18T14:10:33Z</time></trkpt><trkpt lat="39.213911867783196" lon="8.527563865509412"><ele>132.5</ele><time>2026-04-18T14:10:34Z</time></trkpt><trkpt lat="39.21404018246668" lon="8.527868423003527"><ele>133.0</ele><time>2026-04-18T14:10:35Z</time></trkpt><trkpt lat="39.21416874033621" lon="8.528163159855891"><ele>133.0</ele><time>2026-04-18T14:10:36Z</time></trkpt><trkpt lat="39.214296978332065" lon="8.528450694612049"><ele>133.0</ele><time>2026-04-18T14:10:37Z</time></trkpt><trkpt lat="39.2144266906553" lon="8.52872675464851"><ele>135.0</ele><time>2026-04-18T14:10:38Z</time></trkpt><trkpt lat="39.21456411018601" lon="8.528988492345668"><ele>137.0</ele><time>2026-04-18T14:10:39Z</time></trkpt><trkpt lat="39.214716789164015" lon="8.529231232235425"><ele>138.0</ele><time>2026-04-18T14:10:40Z</time></trkpt><trkpt lat="39.21488209233009" lon="8.529456158744946"><ele>139.0</ele><time>2026-04-18T14:10:41Z</time></trkpt><trkpt lat="39.21505250286115" lon="8.529667946793264"><ele>139.0</ele><time>2026-04-18T14:10:42Z</time></trkpt><trkpt lat="39.21522198364239" lon="8.529873750129815"><ele>139.0</ele><time>2026-04-18T14:10:43Z</time></trkpt><trkpt lat="39.21538670478382" lon="8.53007789068387"><ele>139.0</ele><time>2026-04-18T14:10:44Z</time></trkpt><trkpt lat="39.21554667494169" lon="8.53028383798974"><ele>139.0</ele><time>2026-04-18T14:10:45Z</time></trkpt><trkpt lat="39.215702571255484" lon="8.530485878850238"><ele>139.0</ele><time>2026-04-18T14:10:46Z</time></trkpt><trkpt lat="39.21585541812166" lon="8.530684542585801"><ele>139.33333333333334</ele><time>2026-04-18T14:10:47Z</time></trkpt><trkpt lat="39.21600603024094" lon="8.530882936933985"><ele>139.66666666666666</ele><time>2026-04-18T14:10:48Z</time></trkpt><trkpt lat="39.21615824390446" lon="8.53108105515848"><ele>140.0</ele><time>2026-04-18T14:10:49Z</time></trkpt><trkpt lat="39.21631144567694" lon="8.531276654514668"><ele>140.0</ele><time>2026-04-18T14:10:50Z</time></trkpt><trkpt lat="39.216465300754926" lon="8.53147061153727"><ele>140.0</ele><time>2026-04-18T14:10:51Z</time></trkpt><trkpt lat="39.21661887155525" lon="8.531665357068587"><ele>140.0</ele><time>2026-04-18T14:10:52Z</time></trkpt><trkpt lat="39.21677062510699" lon="8.53185922620492"><ele>140.0</ele><time>2026-04-18T14:10:53Z</time></trkpt><trkpt lat="39.216923014526834" lon="8.532054456147684"><ele>140.0</ele><time>2026-04-18T14:10:54Z</time></trkpt><trkpt lat="39.2170730663038" lon="8.532251810723203"><ele>140.0</ele><time>2026-04-18T14:10:55Z</time></trkpt><trkpt lat="39.21722272926741" lon="8.532451711213428"><ele>140.66666666666666</ele><time>2026-04-18T14:10:56Z</time></trkpt><trkpt lat="39.217373894145894" lon="8.532648576983542"><ele>141.33333333333334</ele><time>2026-04-18T14:10:57Z</time></trkpt><trkpt lat="39.21752908490464" lon="8.532847036526377"><ele>142.0</ele><time>2026-04-18T14:10:58Z</time></trkpt><trkpt lat="39.217684428027695" lon="8.533042977013855"><ele>143.33333333333334</ele><time>2026-04-18T14:10:59Z</time></trkpt><trkpt lat="39.21783840558628" lon="8.53323663448058"><ele>144.66666666666666</ele><time>2026-04-18T14:11:00Z</time></trkpt><trkpt lat="39.217990879175176" lon="8.53343161070865"><ele>146.0</ele><time>2026-04-18T14:11:01Z</time></trkpt><trkpt lat="39.21814088748539" lon="8.53362886869622"><ele>145.33333333333331</ele><time>2026-04-18T14:11:02Z</time></trkpt><trkpt lat="39.21829074481999" lon="8.533828492277742"><ele>144.66666666666666</ele><time>2026-04-18T14:11:03Z</time></trkpt><trkpt lat="39.218446671888266" lon="8.534029683265674"><ele>144.0</ele><time>2026-04-18T14:11:04Z</time></trkpt><trkpt lat="39.218600769207605" lon="8.53422861305446"><ele>144.0</ele><time>2026-04-18T14:11:05Z</time></trkpt><trkpt lat="39.21875640171924" lon="8.534424016380003"><ele>144.0</ele><time>2026-04-18T14:11:06Z</time></trkpt><trkpt lat="39.218913307399795" lon="8.534619604664949"><ele>144.0</ele><time>2026-04-18T14:11:07Z</time></trkpt><trkpt lat="39.219066581034376" lon="8.534814292542226"><ele>145.33333333333334</ele><time>2026-04-18T14:11:08Z</time></trkpt><trkpt lat="39.21922339652716" lon="8.535015140640514"><ele>146.66666666666669</ele><time>2026-04-18T14:11:09Z</time></trkpt><trkpt lat="39.21937708434283" lon="8.535214232678074"><ele>148.0</ele><time>2026-04-18T14:11:10Z</time></trkpt><trkpt lat="39.219533429840396" lon="8.535415807496681"><ele>148.0</ele><time>2026-04-18T14:11:11Z</time></trkpt><trkpt lat="39.21969281468553" lon="8.535617383569006"><ele>148.0</ele><time>2026-04-18T14:11:12Z</time></trkpt><trkpt lat="39.21984858082851" lon="8.535818152028156"><ele>148.0</ele><time>2026-04-18T14:11:13Z</time></trkpt><trkpt lat="39.22000855768993" lon="8.536020652807299"><ele>150.0</ele><time>2026-04-18T14:11:14Z</time></trkpt><trkpt lat="39.220169396467725" lon="8.536226870888571"><ele>152.0</ele><time>2026-04-18T14:11:15Z</time></trkpt><trkpt lat="39.22032702063698" lon="8.53643422709683"><ele>152.0</ele><time>2026-04-18T14:11:16Z</time></trkpt><trkpt lat="39.22048525087488" lon="8.53664464369297"><ele>152.0</ele><time>2026-04-18T14:11:17Z</time></trkpt><trkpt lat="39.22064455092549" lon="8.536856188314871"><ele>150.66666666666666</ele><time>2026-04-18T14:11:18Z</time></trkpt><trkpt lat="39.22080008075242" lon="8.53706310547335"><ele>149.33333333333334</ele><time>2026-04-18T14:11:19Z</time></trkpt><trkpt lat="39.22095790046455" lon="8.537270800855662"><ele>148.0</ele><time>2026-04-18T14:11:20Z</time></trkpt><trkpt lat="39.2211130515095" lon="8.537477660439722"><ele>148.0</ele><time>2026-04-18T14:11:21Z</time></trkpt><trkpt lat="39.22127108317063" lon="8.537683805152525"><ele>148.0</ele><time>2026-04-18T14:11:22Z</time></trkpt><trkpt lat="39.221427282276096" lon="8.537889181246424"><ele>148.0</ele><time>2026-04-18T14:11:23Z</time></trkpt><trkpt lat="39.221583848663606" lon="8.538097178348284"><ele>147.0</ele><time>2026-04-18T14:11:24Z</time></trkpt><trkpt lat="39.22173346818446" lon="8.538298241798264"><ele>146.0</ele><time>2026-04-18T14:11:25Z</time></trkpt><trkpt lat="39.22188476221975" lon="8.538506934271066"><ele>145.0</ele><time>2026-04-18T14:11:26Z</time></trkpt><trkpt lat="39.22202378078888" lon="8.538712318318916"><ele>145.0</ele><time>2026-04-18T14:11:27Z</time></trkpt><trkpt lat="39.222157810652874" lon="8.538909029467035"><ele>145.0</ele><time>2026-04-18T14:11:28Z</time></trkpt><trkpt lat="39.22228877808313" lon="8.53910704740483"><ele>145.0</ele><time>2026-04-18T14:11:29Z</time></trkpt><trkpt lat="39.222418718301775" lon="8.539305186027926"><ele>145.0</ele><time>2026-04-18T14:11:30Z</time></trkpt><trkpt lat="39.22255163613241" lon="8.539502453503895"><ele>145.0</ele><time>2026-04-18T14:11:31Z</time></trkpt><trkpt lat="39.22268530317352" lon="8.53969691565921"><ele>145.0</ele><time>2026-04-18T14:11:32Z</time></trkpt><trkpt lat="39.22282134311109" lon="8.5398917128434"><ele>146.66666666666669</ele><time>2026-04-18T14:11:33Z</time></trkpt><trkpt lat="39.22295857668664" lon="8.540085104571851"><ele>148.33333333333334</ele><time>2026-04-18T14:11:33.999Z</time></trkpt><trkpt lat="39.223100815325054" lon="8.540273610680305"><ele>150.0</ele><time>2026-04-18T14:11:34.999Z</time></trkpt><trkpt lat="39.22324943661933" lon="8.540457098775631"><ele>150.66666666666666</ele><time>2026-04-18T14:11:35.999Z</time></trkpt><trkpt lat="39.223401552932174" lon="8.540635153592419"><ele>151.33333333333331</ele><time>2026-04-18T14:11:36.999Z</time></trkpt><trkpt lat="39.223561072985966" lon="8.540809403764856"><ele>152.0</ele><time>2026-04-18T14:11:37.999Z</time></trkpt><trkpt lat="39.22372492757874" lon="8.540974571927636"><ele>152.0</ele><time>2026-04-18T14:11:39Z</time></trkpt><trkpt lat="39.223899687237854" lon="8.541133196875462"><ele>152.0</ele><time>2026-04-18T14:11:40Z</time></trkpt><trkpt lat="39.224082095627246" lon="8.541283118738612"><ele>152.0</ele><time>2026-04-18T14:11:41Z</time></trkpt><trkpt lat="39.224269347879634" lon="8.5414264232833"><ele>151.0</ele><time>2026-04-18T14:11:42Z</time></trkpt><trkpt lat="39.22446320882583" lon="8.541562450727461"><ele>150.0</ele><time>2026-04-18T14:11:43Z</time></trkpt><trkpt lat="39.22465856390051" lon="8.54169904539624"><ele>149.0</ele><time>2026-04-18T14:11:44Z</time></trkpt><trkpt lat="39.22485365597871" lon="8.541834092291566"><ele>149.0</ele><time>2026-04-18T14:11:45Z</time></trkpt><trkpt lat="39.225050928080215" lon="8.541971571576283"><ele>149.0</ele><time>2026-04-18T14:11:46Z</time></trkpt><trkpt lat="39.22524752288286" lon="8.542108953391525"><ele>149.0</ele><time>2026-04-18T14:11:47Z</time></trkpt><trkpt lat="39.22544601135089" lon="8.542247704703698"><ele>144.5</ele><time>2026-04-18T14:11:48Z</time></trkpt><trkpt lat="39.22564586314708" lon="8.542385672840668"><ele>140.0</ele><time>2026-04-18T14:11:49Z</time></trkpt><trkpt lat="39.22584513959246" lon="8.542523506000403"><ele>140.0</ele><time>2026-04-18T14:11:50Z</time></trkpt><trkpt lat="39.22604091065404" lon="8.542660415510426"><ele>140.0</ele><time>2026-04-18T14:11:51Z</time></trkpt><trkpt lat="39.22623789357016" lon="8.542799534974032"><ele>140.0</ele><time>2026-04-18T14:11:52Z</time></trkpt><trkpt lat="39.226432019914" lon="8.542936803574612"><ele>138.33333333333331</ele><time>2026-04-18T14:11:53Z</time></trkpt><trkpt lat="39.22662609008187" lon="8.543073763410753"><ele>136.66666666666666</ele><time>2026-04-18T14:11:54Z</time></trkpt><trkpt lat="39.226821637995265" lon="8.543212230853364"><ele>135.0</ele><time>2026-04-18T14:11:55Z</time></trkpt><trkpt lat="39.22701867132087" lon="8.54335074526145"><ele>135.0</ele><time>2026-04-18T14:11:56Z</time></trkpt><trkpt lat="39.22721671136928" lon="8.54348974355721"><ele>135.0</ele><time>2026-04-18T14:11:57Z</time></trkpt><trkpt lat="39.22741630233969" lon="8.543629318363736"><ele>134.0</ele><time>2026-04-18T14:11:58Z</time></trkpt><trkpt lat="39.22761348922423" lon="8.543769496887606"><ele>133.0</ele><time>2026-04-18T14:11:59Z</time></trkpt><trkpt lat="39.22781218047854" lon="8.543909655237943"><ele>133.0</ele><time>2026-04-18T14:12:00Z</time></trkpt><trkpt lat="39.2280111206011" lon="8.544048261379231"><ele>133.0</ele><time>2026-04-18T14:12:01Z</time></trkpt><trkpt lat="39.22820880949056" lon="8.54418543272555"><ele>133.33333333333334</ele><time>2026-04-18T14:12:02Z</time></trkpt><trkpt lat="39.2284058986423" lon="8.544317390777307"><ele>133.66666666666666</ele><time>2026-04-18T14:12:03.001Z</time></trkpt><trkpt lat="39.228603613103125" lon="8.544453504209265"><ele>134.0</ele><time>2026-04-18T14:12:04.001Z</time></trkpt><trkpt lat="39.22879962664632" lon="8.544588263429475"><ele>133.66666666666666</ele><time>2026-04-18T14:12:05.001Z</time></trkpt><trkpt lat="39.2289938583544" lon="8.544721826418472"><ele>133.33333333333334</ele><time>2026-04-18T14:12:06.001Z</time></trkpt><trkpt lat="39.22918662049432" lon="8.544855723932509"><ele>133.0</ele><time>2026-04-18T14:12:07.001Z</time></trkpt><trkpt lat="39.22937773503966" lon="8.54498967222794"><ele>133.0</ele><time>2026-04-18T14:12:08.001Z</time></trkpt><trkpt lat="39.22957103459111" lon="8.545123029869464"><ele>133.0</ele><time>2026-04-18T14:12:09.001Z</time></trkpt><trkpt lat="39.229764904179326" lon="8.54525430662727"><ele>133.0</ele><time>2026-04-18T14:12:10.001Z</time></trkpt><trkpt lat="39.229956323253276" lon="8.54538584557034"><ele>132.0</ele><time>2026-04-18T14:12:11.001Z</time></trkpt><trkpt lat="39.230150449431235" lon="8.545519569430644"><ele>131.0</ele><time>2026-04-18T14:12:12.001Z</time></trkpt><trkpt lat="39.230343640168606" lon="8.545653098484301"><ele>130.0</ele><time>2026-04-18T14:12:13.001Z</time></trkpt><trkpt lat="39.23053645616577" lon="8.545785316610605"><ele>128.66666666666669</ele><time>2026-04-18T14:12:14.001Z</time></trkpt><trkpt lat="39.2307296892241" lon="8.545922071940618"><ele>127.33333333333334</ele><time>2026-04-18T14:12:15.001Z</time></trkpt><trkpt lat="39.230920580719605" lon="8.54606369254885"><ele>126.0</ele><time>2026-04-18T14:12:16.001Z</time></trkpt><trkpt lat="39.231109342728566" lon="8.546216591409888"><ele>126.0</ele><time>2026-04-18T14:12:17.001Z</time></trkpt><trkpt lat="39.23129334608432" lon="8.54638020374666"><ele>126.0</ele><time>2026-04-18T14:12:18.001Z</time></trkpt><trkpt lat="39.23147177708348" lon="8.546558321001196"><ele>126.0</ele><time>2026-04-18T14:12:19.001Z</time></trkpt><trkpt lat="39.23164825267393" lon="8.546746604365529"><ele>126.0</ele><time>2026-04-18T14:12:20.001Z</time></trkpt><trkpt lat="39.231823579025196" lon="8.546943147730438"><ele>126.0</ele><time>2026-04-18T14:12:21.001Z</time></trkpt><trkpt lat="39.23199002799228" lon="8.54713830008297"><ele>126.0</ele><time>2026-04-18T14:12:22.001Z</time></trkpt><trkpt lat="39.232153073874066" lon="8.547347491561478"><ele>126.0</ele><time>2026-04-18T14:12:23.001Z</time></trkpt><trkpt lat="39.23230749740603" lon="8.547561461204076"><ele>126.33333333333334</ele><time>2026-04-18T14:12:24.001Z</time></trkpt><trkpt lat="39.2324570168223" lon="8.54777485021976"><ele>126.66666666666667</ele><time>2026-04-18T14:12:25.001Z</time></trkpt><trkpt lat="39.232606974270425" lon="8.547987663830995"><ele>127.0</ele><time>2026-04-18T14:12:26.001Z</time></trkpt><trkpt lat="39.23275670217204" lon="8.548197847247165"><ele>127.33333333333334</ele><time>2026-04-18T14:12:27.001Z</time></trkpt><trkpt lat="39.23290842239338" lon="8.548410972888341"><ele>127.66666666666666</ele><time>2026-04-18T14:12:28.001Z</time></trkpt><trkpt lat="39.233058982320586" lon="8.548624460255994"><ele>128.0</ele><time>2026-04-18T14:12:29.001Z</time></trkpt><trkpt lat="39.233210512942335" lon="8.548839560802593"><ele>129.0</ele><time>2026-04-18T14:12:30.001Z</time></trkpt><trkpt lat="39.23336189845685" lon="8.549054704376209"><ele>130.0</ele><time>2026-04-18T14:12:31.001Z</time></trkpt><trkpt lat="39.233515788050646" lon="8.54927208129654"><ele>130.0</ele><time>2026-04-18T14:12:32.001Z</time></trkpt><trkpt lat="39.23366729315508" lon="8.549487754317363"><ele>130.0</ele><time>2026-04-18T14:12:33.001Z</time></trkpt><trkpt lat="39.23381882680818" lon="8.54970552517173"><ele>130.5</ele><time>2026-04-18T14:12:34.001Z</time></trkpt><trkpt lat="39.23397237289784" lon="8.549926842079753"><ele>131.0</ele><time>2026-04-18T14:12:35.001Z</time></trkpt><trkpt lat="39.234123277651655" lon="8.550143905822157"><ele>131.0</ele><time>2026-04-18T14:12:36.001Z</time></trkpt><trkpt lat="39.234274528886566" lon="8.550363242352244"><ele>131.0</ele><time>2026-04-18T14:12:37.001Z</time></trkpt><trkpt lat="39.23442828015656" lon="8.550580009615281"><ele>131.5</ele><time>2026-04-18T14:12:38.001Z</time></trkpt><trkpt lat="39.23458259824521" lon="8.550796051494755"><ele>132.0</ele><time>2026-04-18T14:12:39.001Z</time></trkpt><trkpt lat="39.23473752017867" lon="8.551013817803195"><ele>133.0</ele><time>2026-04-18T14:12:40.001Z</time></trkpt><trkpt lat="39.23488960914674" lon="8.551230752520297"><ele>134.0</ele><time>2026-04-18T14:12:41.001Z</time></trkpt><trkpt lat="39.235040976633734" lon="8.551449442094059"><ele>134.0</ele><time>2026-04-18T14:12:42.001Z</time></trkpt><trkpt lat="39.2351922531567" lon="8.551668139004798"><ele>134.0</ele><time>2026-04-18T14:12:43.001Z</time></trkpt><trkpt lat="39.23534452433503" lon="8.551888795886347"><ele>135.0</ele><time>2026-04-18T14:12:44.001Z</time></trkpt><trkpt lat="39.23549703267863" lon="8.552108260877985"><ele>136.0</ele><time>2026-04-18T14:12:45.001Z</time></trkpt><trkpt lat="39.23565087606037" lon="8.552327782237294"><ele>136.0</ele><time>2026-04-18T14:12:46.001Z</time></trkpt><trkpt lat="39.235805049668514" lon="8.552546612680914"><ele>136.0</ele><time>2026-04-18T14:12:47.001Z</time></trkpt><trkpt lat="39.23595947277265" lon="8.552767162941976"><ele>137.5</ele><time>2026-04-18T14:12:48.001Z</time></trkpt><trkpt lat="39.236112879468" lon="8.552988124365573"><ele>139.0</ele><time>2026-04-18T14:12:49.001Z</time></trkpt><trkpt lat="39.23626698827723" lon="8.553210986000794"><ele>139.0</ele><time>2026-04-18T14:12:50.001Z</time></trkpt><trkpt lat="39.23641976468782" lon="8.553430519944747"><ele>139.0</ele><time>2026-04-18T14:12:51.001Z</time></trkpt><trkpt lat="39.236574391066746" lon="8.553651592529881"><ele>140.5</ele><time>2026-04-18T14:12:52.001Z</time></trkpt><trkpt lat="39.236729336218005" lon="8.553870961896877"><ele>142.0</ele><time>2026-04-18T14:12:53.001Z</time></trkpt><trkpt lat="39.23688491857865" lon="8.554089658951545"><ele>142.0</ele><time>2026-04-18T14:12:54.001Z</time></trkpt><trkpt lat="39.2370403912591" lon="8.55430674566933"><ele>142.0</ele><time>2026-04-18T14:12:55.001Z</time></trkpt><trkpt lat="39.237196279005545" lon="8.554524927014167"><ele>142.5</ele><time>2026-04-18T14:12:56.001Z</time></trkpt><trkpt lat="39.23735169147289" lon="8.554743489663538"><ele>143.0</ele><time>2026-04-18T14:12:57.001Z</time></trkpt><trkpt lat="39.23750534779348" lon="8.554960935130776"><ele>143.0</ele><time>2026-04-18T14:12:58.001Z</time></trkpt><trkpt lat="39.23765761265015" lon="8.555179690414564"><ele>143.0</ele><time>2026-04-18T14:12:59.001Z</time></trkpt><trkpt lat="39.23781033688007" lon="8.55539989887491"><ele>144.5</ele><time>2026-04-18T14:13:00.001Z</time></trkpt><trkpt lat="39.23796245990532" lon="8.555620684532798"><ele>146.0</ele><time>2026-04-18T14:13:01.001Z</time></trkpt><trkpt lat="39.23811344646794" lon="8.555839651015036"><ele>146.0</ele><time>2026-04-18T14:13:02.001Z</time></trkpt><trkpt lat="39.238260763775145" lon="8.55605144077254"><ele>146.0</ele><time>2026-04-18T14:13:03.001Z</time></trkpt><trkpt lat="39.238402810894485" lon="8.556257592790097"><ele>146.0</ele><time>2026-04-18T14:13:04.001Z</time></trkpt><trkpt lat="39.238543955924754" lon="8.556459488679923"><ele>146.0</ele><time>2026-04-18T14:13:05.001Z</time></trkpt><trkpt lat="39.23868309099652" lon="8.55665764329992"><ele>146.0</ele><time>2026-04-18T14:13:06.001Z</time></trkpt><trkpt lat="39.238824533093165" lon="8.556857299306689"><ele>146.0</ele><time>2026-04-18T14:13:07.001Z</time></trkpt><trkpt lat="39.23896837429333" lon="8.557058217481803"><ele>147.0</ele><time>2026-04-18T14:13:08.001Z</time></trkpt><trkpt lat="39.23911387616967" lon="8.557260166774277"><ele>148.0</ele><time>2026-04-18T14:13:09.001Z</time></trkpt><trkpt lat="39.23925837950931" lon="8.55746309682523"><ele>149.0</ele><time>2026-04-18T14:13:10.001Z</time></trkpt><trkpt lat="39.239399835548035" lon="8.557666998155279"><ele>149.0</ele><time>2026-04-18T14:13:11.001Z</time></trkpt><trkpt lat="39.23954302886212" lon="8.557876204138195"><ele>149.0</ele><time>2026-04-18T14:13:12.001Z</time></trkpt><trkpt lat="39.23968607781252" lon="8.55808624400058"><ele>149.0</ele><time>2026-04-18T14:13:13.001Z</time></trkpt><trkpt lat="39.23983131903345" lon="8.558296967192563"><ele>148.33333333333331</ele><time>2026-04-18T14:13:14.001Z</time></trkpt><trkpt lat="39.239976952124444" lon="8.558505694871226"><ele>147.66666666666666</ele><time>2026-04-18T14:13:15.001Z</time></trkpt><trkpt lat="39.240125103770396" lon="8.558714541817292"><ele>147.0</ele><time>2026-04-18T14:13:16.001Z</time></trkpt><trkpt lat="39.240274555238294" lon="8.558922883168092"><ele>148.33333333333334</ele><time>2026-04-18T14:13:17.001Z</time></trkpt><trkpt lat="39.24042268058163" lon="8.55913047692195"><ele>149.66666666666669</ele><time>2026-04-18T14:13:18.001Z</time></trkpt><trkpt lat="39.24057081136808" lon="8.559340899182304"><ele>151.0</ele><time>2026-04-18T14:13:19.001Z</time></trkpt><trkpt lat="39.240718104073615" lon="8.559550807277605"><ele>151.33333333333334</ele><time>2026-04-18T14:13:20.001Z</time></trkpt><trkpt lat="39.24086664201767" lon="8.559760305067881"><ele>151.66666666666666</ele><time>2026-04-18T14:13:21.001Z</time></trkpt><trkpt lat="39.24101520716124" lon="8.559967433782145"><ele>152.0</ele><time>2026-04-18T14:13:22.001Z</time></trkpt><trkpt lat="39.24116402306129" lon="8.56017484551391"><ele>152.0</ele><time>2026-04-18T14:13:23.001Z</time></trkpt><trkpt lat="39.241311845149355" lon="8.560383247190522"><ele>152.0</ele><time>2026-04-18T14:13:24.001Z</time></trkpt><trkpt lat="39.241458986866235" lon="8.560592438189428"><ele>152.0</ele><time>2026-04-18T14:13:25.001Z</time></trkpt><trkpt lat="39.241607358655386" lon="8.560802045267335"><ele>152.0</ele><time>2026-04-18T14:13:26.001Z</time></trkpt><trkpt lat="39.24175597275014" lon="8.561012425543687"><ele>152.0</ele><time>2026-04-18T14:13:27.001Z</time></trkpt><trkpt lat="39.24190562706896" lon="8.561225039342379"><ele>152.0</ele><time>2026-04-18T14:13:28.001Z</time></trkpt><trkpt lat="39.24205457976249" lon="8.561437683096647"><ele>152.5</ele><time>2026-04-18T14:13:29.001Z</time></trkpt><trkpt lat="39.24220546325903" lon="8.561653318230837"><ele>153.0</ele><time>2026-04-18T14:13:30.001Z</time></trkpt><trkpt lat="39.242356582197495" lon="8.56187142733204"><ele>152.5</ele><time>2026-04-18T14:13:31.001Z</time></trkpt><trkpt lat="39.24251194700877" lon="8.562089296364405"><ele>152.0</ele><time>2026-04-18T14:13:32.001Z</time></trkpt><trkpt lat="39.24266690999457" lon="8.562309344701193"><ele>152.0</ele><time>2026-04-18T14:13:33.001Z</time></trkpt><trkpt lat="39.242821707141616" lon="8.56253302265923"><ele>152.0</ele><time>2026-04-18T14:13:34.001Z</time></trkpt><trkpt lat="39.242973664772215" lon="8.562760651530736"><ele>151.5</ele><time>2026-04-18T14:13:35.001Z</time></trkpt><trkpt lat="39.243127392447384" lon="8.562994107208272"><ele>151.0</ele><time>2026-04-18T14:13:36.001Z</time></trkpt><trkpt lat="39.24328428060521" lon="8.563225476716534"><ele>151.0</ele><time>2026-04-18T14:13:37.001Z</time></trkpt><trkpt lat="39.24344246841734" lon="8.563453848309052"><ele>151.0</ele><time>2026-04-18T14:13:38.001Z</time></trkpt><trkpt lat="39.243604130633905" lon="8.563682627983813"><ele>150.5</ele><time>2026-04-18T14:13:39Z</time></trkpt><trkpt lat="39.24376710653909" lon="8.563908961311713"><ele>150.0</ele><time>2026-04-18T14:13:40Z</time></trkpt><trkpt lat="39.24392906515048" lon="8.564136176408844"><ele>148.5</ele><time>2026-04-18T14:13:41Z</time></trkpt><trkpt lat="39.244086250304846" lon="8.564362800073802"><ele>147.0</ele><time>2026-04-18T14:13:42Z</time></trkpt><trkpt lat="39.244242067285064" lon="8.564587577228039"><ele>147.0</ele><time>2026-04-18T14:13:43Z</time></trkpt><trkpt lat="39.244396419015516" lon="8.564807880798243"><ele>147.0</ele><time>2026-04-18T14:13:44.001Z</time></trkpt><trkpt lat="39.244551165895814" lon="8.565026832535645"><ele>147.0</ele><time>2026-04-18T14:13:45.001Z</time></trkpt><trkpt lat="39.24470403805957" lon="8.565243953874946"><ele>147.0</ele><time>2026-04-18T14:13:46.001Z</time></trkpt><trkpt lat="39.244855916747895" lon="8.56546090934727"><ele>148.0</ele><time>2026-04-18T14:13:47.001Z</time></trkpt><trkpt lat="39.24500639577272" lon="8.565676971901"><ele>149.0</ele><time>2026-04-18T14:13:48.001Z</time></trkpt><trkpt lat="39.24515943743387" lon="8.565898909114514"><ele>149.0</ele><time>2026-04-18T14:13:49.001Z</time></trkpt><trkpt lat="39.245312257948065" lon="8.566118337229348"><ele>149.0</ele><time>2026-04-18T14:13:50.001Z</time></trkpt><trkpt lat="39.245468294130085" lon="8.566340711220871"><ele>149.0</ele><time>2026-04-18T14:13:51.001Z</time></trkpt><trkpt lat="39.24562541370066" lon="8.566563468408798"><ele>149.0</ele><time>2026-04-18T14:13:52.001Z</time></trkpt><trkpt lat="39.24578351160513" lon="8.566784155959754"><ele>148.5</ele><time>2026-04-18T14:13:53.001Z</time></trkpt><trkpt lat="39.24594162657843" lon="8.567006509628447"><ele>148.0</ele><time>2026-04-18T14:13:54.001Z</time></trkpt><trkpt lat="39.246099701571026" lon="8.56722866230668"><ele>148.0</ele><time>2026-04-18T14:13:55.001Z</time></trkpt><trkpt lat="39.24625868866297" lon="8.567454673632007"><ele>148.0</ele><time>2026-04-18T14:13:56.001Z</time></trkpt><trkpt lat="39.24641697400126" lon="8.5676807117507"><ele>149.5</ele><time>2026-04-18T14:13:57.001Z</time></trkpt><trkpt lat="39.246575210130594" lon="8.567906929529192"><ele>151.0</ele><time>2026-04-18T14:13:58.001Z</time></trkpt><trkpt lat="39.246734136543864" lon="8.56813391183461"><ele>151.0</ele><time>2026-04-18T14:13:59.001Z</time></trkpt><trkpt lat="39.246892838081976" lon="8.568359810268705"><ele>151.0</ele><time>2026-04-18T14:14:00.001Z</time></trkpt><trkpt lat="39.247053196552656" lon="8.568586109101219"><ele>151.0</ele><time>2026-04-18T14:14:01.001Z</time></trkpt><trkpt lat="39.247213433384935" lon="8.568812360536143"><ele>151.0</ele><time>2026-04-18T14:14:02.001Z</time></trkpt><trkpt lat="39.247371662674496" lon="8.56903620050722"><ele>151.5</ele><time>2026-04-18T14:14:03.001Z</time></trkpt><trkpt lat="39.247528344312" lon="8.569265853160182"><ele>152.0</ele><time>2026-04-18T14:14:04.001Z</time></trkpt><trkpt lat="39.247683434013254" lon="8.569499276334222"><ele>152.5</ele><time>2026-04-18T14:14:05.001Z</time></trkpt><trkpt lat="39.2478318837033" lon="8.569736087862513"><ele>153.0</ele><time>2026-04-18T14:14:06.001Z</time></trkpt><trkpt lat="39.247975170386134" lon="8.569978448614323"><ele>153.0</ele><time>2026-04-18T14:14:07.001Z</time></trkpt><trkpt lat="39.24811364685487" lon="8.570225509890703"><ele>153.0</ele><time>2026-04-18T14:14:08.001Z</time></trkpt><trkpt lat="39.24824464366809" lon="8.57047563696952"><ele>154.5</ele><time>2026-04-18T14:14:09.001Z</time></trkpt><trkpt lat="39.248365200732565" lon="8.570728650236864"><ele>156.0</ele><time>2026-04-18T14:14:10.001Z</time></trkpt><trkpt lat="39.248474241708095" lon="8.570983534582"><ele>156.66666666666666</ele><time>2026-04-18T14:14:11.001Z</time></trkpt><trkpt lat="39.24857270009929" lon="8.571239911703229"><ele>157.33333333333331</ele><time>2026-04-18T14:14:12.001Z</time></trkpt><trkpt lat="39.248663571883796" lon="8.571498299132388"><ele>158.0</ele><time>2026-04-18T14:14:13.001Z</time></trkpt><trkpt lat="39.248747189587554" lon="8.571759636726824"><ele>158.0</ele><time>2026-04-18T14:14:14.001Z</time></trkpt><trkpt lat="39.24882574811074" lon="8.572023529594846"><ele>158.0</ele><time>2026-04-18T14:14:15.001Z</time></trkpt><trkpt lat="39.24890229112819" lon="8.572291667547397"><ele>158.0</ele><time>2026-04-18T14:14:16.001Z</time></trkpt><trkpt lat="39.24897683348696" lon="8.572560278770744"><ele>158.0</ele><time>2026-04-18T14:14:17.001Z</time></trkpt><trkpt lat="39.249050346967465" lon="8.572831866892223"><ele>158.0</ele><time>2026-04-18T14:14:18.001Z</time></trkpt><trkpt lat="39.24912460893731" lon="8.573106087760365"><ele>158.0</ele><time>2026-04-18T14:14:19.001Z</time></trkpt><trkpt lat="39.249200565326774" lon="8.57338389787255"><ele>158.5</ele><time>2026-04-18T14:14:20.001Z</time></trkpt><trkpt lat="39.24927808880529" lon="8.573665176541958"><ele>159.0</ele><time>2026-04-18T14:14:21.001Z</time></trkpt><trkpt lat="39.24935516340878" lon="8.57394821510904"><ele>160.0</ele><time>2026-04-18T14:14:22.001Z</time></trkpt><trkpt lat="39.249510985556626" lon="8.574522214804329"><ele>160.0</ele><time>2026-04-18T14:14:24.001Z</time></trkpt><trkpt lat="39.24958569730372" lon="8.574807834746386"><ele>160.0</ele><time>2026-04-18T14:14:25.001Z</time></trkpt><trkpt lat="39.24965801277088" lon="8.575086839549883"><ele>159.66666666666669</ele><time>2026-04-18T14:14:26.001Z</time></trkpt><trkpt lat="39.24973110400166" lon="8.575357136994596"><ele>159.33333333333334</ele><time>2026-04-18T14:14:27.001Z</time></trkpt><trkpt lat="39.24980668399814" lon="8.575628117243957"><ele>159.0</ele><time>2026-04-18T14:14:28.001Z</time></trkpt><trkpt lat="39.249881863094515" lon="8.575893890327821"><ele>159.0</ele><time>2026-04-18T14:14:29.001Z</time></trkpt><trkpt lat="39.2499516556951" lon="8.576154319137444"><ele>159.0</ele><time>2026-04-18T14:14:30.001Z</time></trkpt><trkpt lat="39.25002563475326" lon="8.576417625647402"><ele>159.0</ele><time>2026-04-18T14:14:31.001Z</time></trkpt><trkpt lat="39.25009469460698" lon="8.576676432695098"><ele>159.33333333333334</ele><time>2026-04-18T14:14:32.001Z</time></trkpt><trkpt lat="39.250161823757054" lon="8.576929187765101"><ele>159.66666666666669</ele><time>2026-04-18T14:14:33.001Z</time></trkpt><trkpt lat="39.25022776928661" lon="8.57717662564576"><ele>160.0</ele><time>2026-04-18T14:14:34.001Z</time></trkpt><trkpt lat="39.250294297084494" lon="8.577424098958423"><ele>160.66666666666669</ele><time>2026-04-18T14:14:35.001Z</time></trkpt><trkpt lat="39.250361712030305" lon="8.577673029897483"><ele>161.33333333333334</ele><time>2026-04-18T14:14:36.001Z</time></trkpt><trkpt lat="39.25042865761038" lon="8.57792463001565"><ele>162.0</ele><time>2026-04-18T14:14:37.001Z</time></trkpt><trkpt lat="39.2504970618831" lon="8.57818228947162"><ele>163.0</ele><time>2026-04-18T14:14:38.001Z</time></trkpt><trkpt lat="39.25056612848991" lon="8.578441572064722"><ele>164.0</ele><time>2026-04-18T14:14:39.001Z</time></trkpt><trkpt lat="39.25063664418584" lon="8.578704629309627"><ele>165.0</ele><time>2026-04-18T14:14:40.001Z</time></trkpt><trkpt lat="39.250708012580745" lon="8.578971511507092"><ele>165.0</ele><time>2026-04-18T14:14:41.001Z</time></trkpt><trkpt lat="39.250780870103625" lon="8.579239773126638"><ele>165.0</ele><time>2026-04-18T14:14:42.001Z</time></trkpt><trkpt lat="39.25085565708106" lon="8.579514026894778"><ele>165.0</ele><time>2026-04-18T14:14:43.001Z</time></trkpt><trkpt lat="39.250931789876354" lon="8.57978937532534"><ele>165.0</ele><time>2026-04-18T14:14:44.001Z</time></trkpt><trkpt lat="39.25100869544024" lon="8.580067343874374"><ele>165.0</ele><time>2026-04-18T14:14:45.001Z</time></trkpt><trkpt lat="39.25108478053836" lon="8.580345897522673"><ele>165.0</ele><time>2026-04-18T14:14:46.001Z</time></trkpt><trkpt lat="39.2511609285557" lon="8.580624788240431"><ele>165.0</ele><time>2026-04-18T14:14:47.001Z</time></trkpt><trkpt lat="39.25123401078767" lon="8.580902129639199"><ele>165.0</ele><time>2026-04-18T14:14:48.001Z</time></trkpt><trkpt lat="39.25130722301626" lon="8.581179430326625"><ele>165.0</ele><time>2026-04-18T14:14:49.001Z</time></trkpt><trkpt lat="39.25137852921111" lon="8.581453489435184"><ele>164.66666666666666</ele><time>2026-04-18T14:14:50.001Z</time></trkpt><trkpt lat="39.25144995671407" lon="8.581728581655351"><ele>164.33333333333331</ele><time>2026-04-18T14:14:51.001Z</time></trkpt><trkpt lat="39.251521008854205" lon="8.582001544390458"><ele>164.0</ele><time>2026-04-18T14:14:52.001Z</time></trkpt><trkpt lat="39.251593252570125" lon="8.58227394200566"><ele>164.0</ele><time>2026-04-18T14:14:53.001Z</time></trkpt><trkpt lat="39.25166895994105" lon="8.58254120447409"><ele>164.0</ele><time>2026-04-18T14:14:54.001Z</time></trkpt><trkpt lat="39.25174743187606" lon="8.582806583502403"><ele>164.0</ele><time>2026-04-18T14:14:55.001Z</time></trkpt><trkpt lat="39.2518286954815" lon="8.583076724739133"><ele>163.0</ele><time>2026-04-18T14:14:56.001Z</time></trkpt><trkpt lat="39.251909097472065" lon="8.583351464639655"><ele>162.0</ele><time>2026-04-18T14:14:57.001Z</time></trkpt><trkpt lat="39.25198428729526" lon="8.583632244929124"><ele>161.5</ele><time>2026-04-18T14:14:58.001Z</time></trkpt><trkpt lat="39.25205725301721" lon="8.583917283837511"><ele>161.0</ele><time>2026-04-18T14:14:59.001Z</time></trkpt><trkpt lat="39.252131608777425" lon="8.584205383722477"><ele>161.0</ele><time>2026-04-18T14:15:00.001Z</time></trkpt><trkpt lat="39.252206331727145" lon="8.584498905605733"><ele>161.0</ele><time>2026-04-18T14:15:01.001Z</time></trkpt><trkpt lat="39.25228438206676" lon="8.58479233578393"><ele>160.5</ele><time>2026-04-18T14:15:02.001Z</time></trkpt><trkpt lat="39.25235993976547" lon="8.585089542429632"><ele>160.0</ele><time>2026-04-18T14:15:03.001Z</time></trkpt><trkpt lat="39.252433916105645" lon="8.585388782727325"><ele>160.0</ele><time>2026-04-18T14:15:04.001Z</time></trkpt><trkpt lat="39.252509574302074" lon="8.58568657398789"><ele>160.0</ele><time>2026-04-18T14:15:05.001Z</time></trkpt><trkpt lat="39.25259142388807" lon="8.585976478461966"><ele>160.5</ele><time>2026-04-18T14:15:06.001Z</time></trkpt><trkpt lat="39.25267017711977" lon="8.586262552241918"><ele>161.0</ele><time>2026-04-18T14:15:07.001Z</time></trkpt><trkpt lat="39.25274862226016" lon="8.586554971241346"><ele>161.0</ele><time>2026-04-18T14:15:08.001Z</time></trkpt><trkpt lat="39.25282561830907" lon="8.586838831204837"><ele>161.0</ele><time>2026-04-18T14:15:09.001Z</time></trkpt><trkpt lat="39.25290479023754" lon="8.587121972983413"><ele>163.5</ele><time>2026-04-18T14:15:10.001Z</time></trkpt><trkpt lat="39.25298266946621" lon="8.587406869003406"><ele>166.0</ele><time>2026-04-18T14:15:11.001Z</time></trkpt><trkpt lat="39.2530605293933" lon="8.587686565737751"><ele>164.5</ele><time>2026-04-18T14:15:12.001Z</time></trkpt><trkpt lat="39.25313989039535" lon="8.587969663739036"><ele>163.0</ele><time>2026-04-18T14:15:13.001Z</time></trkpt><trkpt lat="39.253213741954944" lon="8.588253974599121"><ele>163.0</ele><time>2026-04-18T14:15:14.001Z</time></trkpt><trkpt lat="39.253288901518616" lon="8.588540780918734"><ele>163.0</ele><time>2026-04-18T14:15:15.001Z</time></trkpt><trkpt lat="39.253363724526395" lon="8.588828180861228"><ele>164.5</ele><time>2026-04-18T14:15:16.001Z</time></trkpt><trkpt lat="39.25343987819154" lon="8.589116947565927"><ele>166.0</ele><time>2026-04-18T14:15:17.001Z</time></trkpt><trkpt lat="39.253517373737736" lon="8.589408993881534"><ele>168.0</ele><time>2026-04-18T14:15:18.001Z</time></trkpt><trkpt lat="39.25359926700691" lon="8.589698338094276"><ele>170.0</ele><time>2026-04-18T14:15:19.001Z</time></trkpt><trkpt lat="39.25368002473578" lon="8.58999221807319"><ele>170.0</ele><time>2026-04-18T14:15:20.001Z</time></trkpt><trkpt lat="39.253762829801836" lon="8.59028854359679"><ele>170.0</ele><time>2026-04-18T14:15:21.001Z</time></trkpt><trkpt lat="39.25384277110167" lon="8.590582926612385"><ele>171.0</ele><time>2026-04-18T14:15:22.001Z</time></trkpt><trkpt lat="39.25391906440088" lon="8.590880959695793"><ele>172.0</ele><time>2026-04-18T14:15:23.001Z</time></trkpt><trkpt lat="39.25400219681673" lon="8.591176571922357"><ele>166.5</ele><time>2026-04-18T14:15:24.001Z</time></trkpt><trkpt lat="39.25407493500305" lon="8.591474708775094"><ele>161.0</ele><time>2026-04-18T14:15:25.001Z</time></trkpt><trkpt lat="39.25415513400289" lon="8.591762042952828"><ele>161.5</ele><time>2026-04-18T14:15:26.001Z</time></trkpt><trkpt lat="39.25422818302589" lon="8.592044374328696"><ele>162.0</ele><time>2026-04-18T14:15:27.001Z</time></trkpt><trkpt lat="39.25430537902326" lon="8.592326717457503"><ele>162.0</ele><time>2026-04-18T14:15:28.001Z</time></trkpt><trkpt lat="39.25438406377257" lon="8.592605120530166"><ele>162.0</ele><time>2026-04-18T14:15:29.001Z</time></trkpt><trkpt lat="39.254456375718064" lon="8.59288922340327"><ele>163.0</ele><time>2026-04-18T14:15:30.001Z</time></trkpt><trkpt lat="39.25453336764336" lon="8.593174061764675"><ele>164.0</ele><time>2026-04-18T14:15:31.001Z</time></trkpt><trkpt lat="39.254609812693644" lon="8.59345944016625"><ele>163.0</ele><time>2026-04-18T14:15:32.001Z</time></trkpt><trkpt lat="39.25468654723407" lon="8.593746925172702"><ele>162.0</ele><time>2026-04-18T14:15:33.001Z</time></trkpt><trkpt lat="39.25476263870885" lon="8.594037916308581"><ele>160.5</ele><time>2026-04-18T14:15:34.001Z</time></trkpt><trkpt lat="39.254839599993744" lon="8.594330907765455"><ele>159.0</ele><time>2026-04-18T14:15:35.001Z</time></trkpt><trkpt lat="39.254918016933416" lon="8.594623023490021"><ele>159.0</ele><time>2026-04-18T14:15:36.001Z</time></trkpt><trkpt lat="39.2549966754154" lon="8.594916605297376"><ele>159.0</ele><time>2026-04-18T14:15:37.001Z</time></trkpt><trkpt lat="39.255076808919846" lon="8.595212177940105"><ele>160.0</ele><time>2026-04-18T14:15:38.001Z</time></trkpt><trkpt lat="39.255157364213744" lon="8.595512681420042"><ele>161.0</ele><time>2026-04-18T14:15:39.001Z</time></trkpt><trkpt lat="39.255237831580075" lon="8.595809868649681"><ele>161.0</ele><time>2026-04-18T14:15:40.001Z</time></trkpt><trkpt lat="39.25531918753036" lon="8.596107736424244"><ele>161.0</ele><time>2026-04-18T14:15:41.001Z</time></trkpt><trkpt lat="39.25540421848375" lon="8.596400223809518"><ele>160.0</ele><time>2026-04-18T14:15:42.001Z</time></trkpt><trkpt lat="39.25556128541324" lon="8.596986640280303"><ele>160.5</ele><time>2026-04-18T14:15:44.001Z</time></trkpt><trkpt lat="39.25563958798988" lon="8.597277219142754"><ele>161.0</ele><time>2026-04-18T14:15:45.001Z</time></trkpt><trkpt lat="39.25571613166672" lon="8.597566823579868"><ele>161.0</ele><time>2026-04-18T14:15:46.001Z</time></trkpt><trkpt lat="39.25579355285792" lon="8.597856071438779"><ele>161.0</ele><time>2026-04-18T14:15:47.001Z</time></trkpt><trkpt lat="39.25587120393283" lon="8.59814383246453"><ele>161.0</ele><time>2026-04-18T14:15:48.001Z</time></trkpt><trkpt lat="39.255954146806744" lon="8.598425346204113"><ele>161.0</ele><time>2026-04-18T14:15:49.001Z</time></trkpt><trkpt lat="39.25602785753069" lon="8.598711013319232"><ele>160.5</ele><time>2026-04-18T14:15:50.001Z</time></trkpt><trkpt lat="39.25611202730095" lon="8.598990822411547"><ele>160.0</ele><time>2026-04-18T14:15:51.001Z</time></trkpt><trkpt lat="39.256213347365744" lon="8.599258544900957"><ele>159.5</ele><time>2026-04-18T14:15:52.001Z</time></trkpt><trkpt lat="39.25632021691587" lon="8.59952108094196"><ele>159.0</ele><time>2026-04-18T14:15:53.001Z</time></trkpt><trkpt lat="39.25642114962666" lon="8.599788357691553"><ele>159.0</ele><time>2026-04-18T14:15:54.001Z</time></trkpt><trkpt lat="39.25651891104294" lon="8.600057332448069"><ele>159.0</ele><time>2026-04-18T14:15:55.001Z</time></trkpt><trkpt lat="39.25661969632251" lon="8.600323997332524"><ele>158.5</ele><time>2026-04-18T14:15:56.001Z</time></trkpt><trkpt lat="39.256720232769446" lon="8.600592723875133"><ele>158.0</ele><time>2026-04-18T14:15:57.001Z</time></trkpt><trkpt lat="39.25682295422102" lon="8.600860584294049"><ele>158.0</ele><time>2026-04-18T14:15:58.001Z</time></trkpt><trkpt lat="39.256923074983966" lon="8.601127090706603"><ele>158.0</ele><time>2026-04-18T14:15:59.001Z</time></trkpt><trkpt lat="39.2570246722968" lon="8.601395684705583"><ele>158.0</ele><time>2026-04-18T14:16:00.001Z</time></trkpt><trkpt lat="39.25712401450318" lon="8.601666654953178"><ele>158.0</ele><time>2026-04-18T14:16:01.001Z</time></trkpt><trkpt lat="39.257224978430685" lon="8.601936574134527"><ele>156.5</ele><time>2026-04-18T14:16:02.001Z</time></trkpt><trkpt lat="39.25732582046532" lon="8.602212411765016"><ele>155.0</ele><time>2026-04-18T14:16:03.001Z</time></trkpt><trkpt lat="39.25742835462996" lon="8.602486299907685"><ele>155.0</ele><time>2026-04-18T14:16:04.001Z</time></trkpt><trkpt lat="39.257530583176674" lon="8.602765853949684"><ele>155.0</ele><time>2026-04-18T14:16:05.001Z</time></trkpt><trkpt lat="39.2576345280862" lon="8.603044712838418"><ele>155.0</ele><time>2026-04-18T14:16:06.001Z</time></trkpt><trkpt lat="39.25774007940171" lon="8.603325319475477"><ele>155.0</ele><time>2026-04-18T14:16:07.001Z</time></trkpt><trkpt lat="39.25784648878433" lon="8.603603154740618"><ele>154.5</ele><time>2026-04-18T14:16:08.001Z</time></trkpt><trkpt lat="39.25795376650986" lon="8.60388326975139"><ele>154.0</ele><time>2026-04-18T14:16:09.001Z</time></trkpt><trkpt lat="39.25805905984371" lon="8.604161392566615"><ele>154.0</ele><time>2026-04-18T14:16:10.001Z</time></trkpt><trkpt lat="39.25816958506124" lon="8.604441344283126"><ele>154.0</ele><time>2026-04-18T14:16:11.001Z</time></trkpt><trkpt lat="39.258276161595084" lon="8.604719490673954"><ele>152.5</ele><time>2026-04-18T14:16:12.001Z</time></trkpt><trkpt lat="39.2583824726049" lon="8.604999034747383"><ele>151.0</ele><time>2026-04-18T14:16:13.001Z</time></trkpt><trkpt lat="39.258487187106596" lon="8.60527698244589"><ele>150.5</ele><time>2026-04-18T14:16:14.001Z</time></trkpt><trkpt lat="39.2585923503296" lon="8.605555809532937"><ele>150.0</ele><time>2026-04-18T14:16:15.001Z</time></trkpt><trkpt lat="39.25869587560342" lon="8.605834177982995"><ele>150.0</ele><time>2026-04-18T14:16:16.001Z</time></trkpt><trkpt lat="39.258799210387934" lon="8.606110958630666"><ele>150.0</ele><time>2026-04-18T14:16:17.001Z</time></trkpt><trkpt lat="39.25890183689955" lon="8.606388865702138"><ele>149.0</ele><time>2026-04-18T14:16:18.001Z</time></trkpt><trkpt lat="39.2590055259082" lon="8.606660735406805"><ele>148.0</ele><time>2026-04-18T14:16:19.001Z</time></trkpt><trkpt lat="39.25910939722011" lon="8.606933210494793"><ele>149.0</ele><time>2026-04-18T14:16:20.001Z</time></trkpt><trkpt lat="39.25921210247505" lon="8.607206797288324"><ele>150.0</ele><time>2026-04-18T14:16:21.001Z</time></trkpt><trkpt lat="39.259315923611005" lon="8.607480197904264"><ele>150.0</ele><time>2026-04-18T14:16:22.001Z</time></trkpt><trkpt lat="39.259416603189095" lon="8.607752688541954"><ele>150.0</ele><time>2026-04-18T14:16:23.001Z</time></trkpt><trkpt lat="39.25951968182198" lon="8.608024539249469"><ele>151.0</ele><time>2026-04-18T14:16:24.001Z</time></trkpt><trkpt lat="39.25962248757873" lon="8.608300943442813"><ele>152.0</ele><time>2026-04-18T14:16:25.001Z</time></trkpt><trkpt lat="39.25972897218771" lon="8.608577023940152"><ele>150.5</ele><time>2026-04-18T14:16:26.001Z</time></trkpt><trkpt lat="39.2598363353404" lon="8.608853359899106"><ele>149.0</ele><time>2026-04-18T14:16:27.001Z</time></trkpt><trkpt lat="39.259944907441266" lon="8.609133758818434"><ele>149.0</ele><time>2026-04-18T14:16:28.001Z</time></trkpt><trkpt lat="39.26004677703778" lon="8.609416598612277"><ele>149.0</ele><time>2026-04-18T14:16:29.001Z</time></trkpt><trkpt lat="39.26015220582588" lon="8.609699995658865"><ele>148.0</ele><time>2026-04-18T14:16:30.001Z</time></trkpt><trkpt lat="39.26025662368693" lon="8.609984972235464"><ele>147.0</ele><time>2026-04-18T14:16:31.001Z</time></trkpt><trkpt lat="39.260361145909364" lon="8.610271464788541"><ele>146.5</ele><time>2026-04-18T14:16:32.001Z</time></trkpt><trkpt lat="39.260466067324145" lon="8.610550985543757"><ele>146.0</ele><time>2026-04-18T14:16:33.001Z</time></trkpt><trkpt lat="39.26057062025375" lon="8.610824732681259"><ele>146.5</ele><time>2026-04-18T14:16:34.001Z</time></trkpt><trkpt lat="39.260673179652606" lon="8.611097649240776"><ele>147.0</ele><time>2026-04-18T14:16:35.001Z</time></trkpt><trkpt lat="39.26077328578189" lon="8.611369115950119"><ele>147.0</ele><time>2026-04-18T14:16:36.001Z</time></trkpt><trkpt lat="39.260876307825704" lon="8.611641730737505"><ele>147.0</ele><time>2026-04-18T14:16:37.001Z</time></trkpt><trkpt lat="39.260881511873386" lon="8.611973641896391"><ele>145.5</ele><time>2026-04-18T14:16:38.001Z</time></trkpt><trkpt lat="39.26098159003384" lon="8.612249473044512"><ele>144.0</ele><time>2026-04-18T14:16:39.001Z</time></trkpt><trkpt lat="39.261083637408625" lon="8.612526673722295"><ele>144.0</ele><time>2026-04-18T14:16:40.001Z</time></trkpt><trkpt lat="39.26118722932823" lon="8.612808069989288"><ele>144.0</ele><time>2026-04-18T14:16:41.001Z</time></trkpt><trkpt lat="39.261294158345294" lon="8.613090608485834"><ele>143.5</ele><time>2026-04-18T14:16:42.001Z</time></trkpt><trkpt lat="39.26140101987029" lon="8.613372306155444"><ele>143.0</ele><time>2026-04-18T14:16:43.001Z</time></trkpt><trkpt lat="39.261507121781165" lon="8.613652000555813"><ele>142.0</ele><time>2026-04-18T14:16:44.001Z</time></trkpt><trkpt lat="39.261614405567585" lon="8.613934810490415"><ele>141.0</ele><time>2026-04-18T14:16:45.001Z</time></trkpt><trkpt lat="39.26182358413959" lon="8.614154462073232"><ele>141.0</ele><time>2026-04-18T14:16:46.001Z</time></trkpt><trkpt lat="39.26192645745241" lon="8.61443435886378"><ele>141.0</ele><time>2026-04-18T14:16:47.001Z</time></trkpt><trkpt lat="39.26202916535869" lon="8.614713138420523"><ele>140.5</ele><time>2026-04-18T14:16:48.001Z</time></trkpt><trkpt lat="39.262132184447715" lon="8.614992204250047"><ele>140.0</ele><time>2026-04-18T14:16:49.001Z</time></trkpt><trkpt lat="39.26223836484481" lon="8.615265521087458"><ele>139.5</ele><time>2026-04-18T14:16:50.001Z</time></trkpt><trkpt lat="39.26234106014557" lon="8.615545791949717"><ele>139.0</ele><time>2026-04-18T14:16:51.001Z</time></trkpt><trkpt lat="39.26244659656746" lon="8.615824060548727"><ele>139.0</ele><time>2026-04-18T14:16:52.001Z</time></trkpt><trkpt lat="39.262553439387595" lon="8.616103727609628"><ele>139.0</ele><time>2026-04-18T14:16:53.001Z</time></trkpt><trkpt lat="39.262657207290935" lon="8.616382883154877"><ele>138.5</ele><time>2026-04-18T14:16:54.001Z</time></trkpt><trkpt lat="39.26276082036722" lon="8.616658714626816"><ele>138.0</ele><time>2026-04-18T14:16:55.001Z</time></trkpt><trkpt lat="39.26286388770754" lon="8.616932295201615"><ele>137.5</ele><time>2026-04-18T14:16:56.001Z</time></trkpt><trkpt lat="39.262965315796365" lon="8.617203078415082"><ele>137.0</ele><time>2026-04-18T14:16:57.001Z</time></trkpt><trkpt lat="39.26306749142779" lon="8.617474826185617"><ele>136.5</ele><time>2026-04-18T14:16:58.001Z</time></trkpt><trkpt lat="39.26316944016144" lon="8.61774552170177"><ele>136.0</ele><time>2026-04-18T14:16:59.001Z</time></trkpt><trkpt lat="39.263271853915356" lon="8.618019351066014"><ele>135.5</ele><time>2026-04-18T14:17:00.001Z</time></trkpt><trkpt lat="39.26337685135629" lon="8.618290172993131"><ele>135.0</ele><time>2026-04-18T14:17:01.001Z</time></trkpt><trkpt lat="39.263480073608605" lon="8.618566066392267"><ele>136.5</ele><time>2026-04-18T14:17:02.001Z</time></trkpt><trkpt lat="39.263581581856734" lon="8.618841412412399"><ele>138.0</ele><time>2026-04-18T14:17:03.001Z</time></trkpt><trkpt lat="39.26368453644149" lon="8.619117835611204"><ele>138.0</ele><time>2026-04-18T14:17:04.001Z</time></trkpt><trkpt lat="39.263788939273034" lon="8.619393502303812"><ele>138.0</ele><time>2026-04-18T14:17:05.001Z</time></trkpt><trkpt lat="39.263893105011164" lon="8.619669119004257"><ele>140.0</ele><time>2026-04-18T14:17:06.001Z</time></trkpt><trkpt lat="39.26399622193434" lon="8.619947671022956"><ele>142.0</ele><time>2026-04-18T14:17:07.001Z</time></trkpt><trkpt lat="39.264099976580034" lon="8.620226158205538"><ele>142.5</ele><time>2026-04-18T14:17:08.001Z</time></trkpt><trkpt lat="39.264201716938025" lon="8.620501341194599"><ele>143.0</ele><time>2026-04-18T14:17:09.001Z</time></trkpt><trkpt lat="39.26430312334153" lon="8.620770101688846"><ele>143.0</ele><time>2026-04-18T14:17:10.001Z</time></trkpt><trkpt lat="39.26440498041802" lon="8.621038563418066"><ele>143.0</ele><time>2026-04-18T14:17:11.001Z</time></trkpt><trkpt lat="39.26450372417782" lon="8.621305322866563"><ele>143.0</ele><time>2026-04-18T14:17:12.001Z</time></trkpt><trkpt lat="39.26460031973738" lon="8.621571552124763"><ele>143.0</ele><time>2026-04-18T14:17:13.001Z</time></trkpt><trkpt lat="39.26469851516414" lon="8.621838947574888"><ele>143.5</ele><time>2026-04-18T14:17:14.001Z</time></trkpt><trkpt lat="39.26479844474011" lon="8.622105358575816"><ele>144.0</ele><time>2026-04-18T14:17:15.001Z</time></trkpt><trkpt lat="39.26490096137006" lon="8.622370204078155"><ele>144.0</ele><time>2026-04-18T14:17:16.001Z</time></trkpt><trkpt lat="39.2650117086701" lon="8.622630607836738"><ele>144.0</ele><time>2026-04-18T14:17:17.001Z</time></trkpt><trkpt lat="39.265138660018145" lon="8.622878931806577"><ele>143.5</ele><time>2026-04-18T14:17:18.001Z</time></trkpt><trkpt lat="39.265271246453494" lon="8.623129120492386"><ele>143.0</ele><time>2026-04-18T14:17:19.001Z</time></trkpt><trkpt lat="39.26541923784748" lon="8.623364412358274"><ele>143.0</ele><time>2026-04-18T14:17:20.001Z</time></trkpt><trkpt lat="39.265575901185315" lon="8.623593262747999"><ele>143.0</ele><time>2026-04-18T14:17:21.001Z</time></trkpt><trkpt lat="39.26573988314625" lon="8.623815665744651"><ele>142.5</ele><time>2026-04-18T14:17:22.001Z</time></trkpt><trkpt lat="39.26591425785572" lon="8.624028707008948"><ele>142.0</ele><time>2026-04-18T14:17:23.001Z</time></trkpt><trkpt lat="39.2661009923097" lon="8.624228963898286"><ele>142.0</ele><time>2026-04-18T14:17:24.001Z</time></trkpt><trkpt lat="39.2662983635836" lon="8.624408034042304"><ele>142.0</ele><time>2026-04-18T14:17:25.001Z</time></trkpt><trkpt lat="39.26649371626934" lon="8.624593717427551"><ele>142.5</ele><time>2026-04-18T14:17:26.001Z</time></trkpt><trkpt lat="39.26669394614121" lon="8.624776387931165"><ele>143.0</ele><time>2026-04-18T14:17:27.001Z</time></trkpt><trkpt lat="39.2668925963149" lon="8.62496050416089"><ele>143.0</ele><time>2026-04-18T14:17:28.001Z</time></trkpt><trkpt lat="39.26708956064373" lon="8.625145173591891"><ele>143.0</ele><time>2026-04-18T14:17:29.001Z</time></trkpt><trkpt lat="39.26728664163764" lon="8.625331198944744"><ele>142.5</ele><time>2026-04-18T14:17:30.001Z</time></trkpt><trkpt lat="39.26748319308062" lon="8.625516063716292"><ele>142.0</ele><time>2026-04-18T14:17:31.001Z</time></trkpt><trkpt lat="39.267680717263325" lon="8.625698246906753"><ele>142.0</ele><time>2026-04-18T14:17:32.001Z</time></trkpt><trkpt lat="39.267877473346516" lon="8.625877472518761"><ele>142.0</ele><time>2026-04-18T14:17:33.001Z</time></trkpt><trkpt lat="39.26807124329077" lon="8.626053555794156"><ele>141.0</ele><time>2026-04-18T14:17:34.001Z</time></trkpt><trkpt lat="39.26826077196547" lon="8.626228166058526"><ele>140.0</ele><time>2026-04-18T14:17:35.001Z</time></trkpt><trkpt lat="39.26844862596533" lon="8.626403995135664"><ele>140.0</ele><time>2026-04-18T14:17:36.001Z</time></trkpt><trkpt lat="39.26863351698296" lon="8.62658257349057"><ele>140.0</ele><time>2026-04-18T14:17:37.001Z</time></trkpt><trkpt lat="39.26881657984413" lon="8.626762030544697"><ele>138.5</ele><time>2026-04-18T14:17:38.001Z</time></trkpt><trkpt lat="39.26900018321908" lon="8.626937386859067"><ele>137.0</ele><time>2026-04-18T14:17:39.001Z</time></trkpt><trkpt lat="39.26918628546589" lon="8.627110201159262"><ele>136.5</ele><time>2026-04-18T14:17:40.001Z</time></trkpt><trkpt lat="39.269372624859635" lon="8.627282171391471"><ele>136.0</ele><time>2026-04-18T14:17:41.001Z</time></trkpt><trkpt lat="39.26956018338654" lon="8.62745589820643"><ele>136.0</ele><time>2026-04-18T14:17:42.001Z</time></trkpt><trkpt lat="39.269746977916526" lon="8.627629384716183"><ele>136.0</ele><time>2026-04-18T14:17:43.001Z</time></trkpt><trkpt lat="39.26993139840357" lon="8.627803896909288"><ele>136.0</ele><time>2026-04-18T14:17:44.001Z</time></trkpt><trkpt lat="39.27011627029314" lon="8.627983158391451"><ele>136.0</ele><time>2026-04-18T14:17:45.001Z</time></trkpt><trkpt lat="39.27029978497763" lon="8.628161989343221"><ele>136.0</ele><time>2026-04-18T14:17:46.001Z</time></trkpt><trkpt lat="39.270484353134094" lon="8.62834472523451"><ele>136.0</ele><time>2026-04-18T14:17:47.001Z</time></trkpt><trkpt lat="39.2706596201122" lon="8.62854057607243"><ele>135.0</ele><time>2026-04-18T14:17:48.001Z</time></trkpt><trkpt lat="39.270815411123834" lon="8.628766934127176"><ele>134.0</ele><time>2026-04-18T14:17:49.001Z</time></trkpt><trkpt lat="39.27096064200021" lon="8.629004467807288"><ele>134.0</ele><time>2026-04-18T14:17:50.001Z</time></trkpt><trkpt lat="39.27110846897428" lon="8.62924256942243"><ele>134.0</ele><time>2026-04-18T14:17:51Z</time></trkpt><trkpt lat="39.27126347864845" lon="8.629479235607635"><ele>133.5</ele><time>2026-04-18T14:17:52Z</time></trkpt><trkpt lat="39.271420445235094" lon="8.629717917364427"><ele>133.0</ele><time>2026-04-18T14:17:53Z</time></trkpt><trkpt lat="39.27157838251182" lon="8.629957338061372"><ele>132.0</ele><time>2026-04-18T14:17:54Z</time></trkpt><trkpt lat="39.27173716377558" lon="8.630198349521333"><ele>131.0</ele><time>2026-04-18T14:17:55Z</time></trkpt><trkpt lat="39.27189734030305" lon="8.630443454682178"><ele>128.5</ele><time>2026-04-18T14:17:56Z</time></trkpt><trkpt lat="39.27205777014201" lon="8.630690800350097"><ele>126.0</ele><time>2026-04-18T14:17:57Z</time></trkpt><trkpt lat="39.27221408506098" lon="8.630937526223008"><ele>125.5</ele><time>2026-04-18T14:17:58Z</time></trkpt><trkpt lat="39.27236861210772" lon="8.631181125574187"><ele>125.0</ele><time>2026-04-18T14:17:59Z</time></trkpt><trkpt lat="39.27252287945174" lon="8.631422830103805"><ele>125.0</ele><time>2026-04-18T14:18:00Z</time></trkpt><trkpt lat="39.272675215133326" lon="8.631661079051062"><ele>125.0</ele><time>2026-04-18T14:18:01Z</time></trkpt><trkpt lat="39.27282403554806" lon="8.631894785659087"><ele>124.5</ele><time>2026-04-18T14:18:02Z</time></trkpt><trkpt lat="39.272973171101484" lon="8.632125724446958"><ele>124.0</ele><time>2026-04-18T14:18:03Z</time></trkpt><trkpt lat="39.273121144222436" lon="8.63235002676605"><ele>123.5</ele><time>2026-04-18T14:18:04Z</time></trkpt><trkpt lat="39.27326822141202" lon="8.632572085023119"><ele>123.0</ele><time>2026-04-18T14:18:05Z</time></trkpt><trkpt lat="39.27341299035883" lon="8.632793227172497"><ele>124.0</ele><time>2026-04-18T14:18:06Z</time></trkpt><trkpt lat="39.27354605378087" lon="8.633001449887791"><ele>125.0</ele><time>2026-04-18T14:18:07Z</time></trkpt><trkpt lat="39.27367327000827" lon="8.633202067231634"><ele>126.0</ele><time>2026-04-18T14:18:08Z</time></trkpt><trkpt lat="39.27379808278686" lon="8.633397863456272"><ele>126.0</ele><time>2026-04-18T14:18:09Z</time></trkpt><trkpt lat="39.27392258274432" lon="8.633589096995973"><ele>126.0</ele><time>2026-04-18T14:18:10Z</time></trkpt><trkpt lat="39.27403895953926" lon="8.63376558116914"><ele>126.0</ele><time>2026-04-18T14:18:11Z</time></trkpt><trkpt lat="39.27415011424307" lon="8.633933849263682"><ele>126.66666666666666</ele><time>2026-04-18T14:18:12Z</time></trkpt><trkpt lat="39.274261621995834" lon="8.634101937138183"><ele>127.33333333333333</ele><time>2026-04-18T14:18:13Z</time></trkpt><trkpt lat="39.27436567290034" lon="8.634261839509449"><ele>128.0</ele><time>2026-04-18T14:18:14Z</time></trkpt><trkpt lat="39.27446846761006" lon="8.63442147781285"><ele>127.66666666666666</ele><time>2026-04-18T14:18:15Z</time></trkpt><trkpt lat="39.27457722418881" lon="8.634588599446843"><ele>127.33333333333334</ele><time>2026-04-18T14:18:16Z</time></trkpt><trkpt lat="39.27468715129328" lon="8.634755987736018"><ele>127.0</ele><time>2026-04-18T14:18:17Z</time></trkpt><trkpt lat="39.274798749889044" lon="8.634924339624657"><ele>126.66666666666667</ele><time>2026-04-18T14:18:18Z</time></trkpt><trkpt lat="39.27491273575068" lon="8.63509844740087"><ele>126.33333333333334</ele><time>2026-04-18T14:18:19Z</time></trkpt><trkpt lat="39.27502622135291" lon="8.635274724579551"><ele>126.0</ele><time>2026-04-18T14:18:20Z</time></trkpt><trkpt lat="39.27514171418912" lon="8.635455987099485"><ele>126.0</ele><time>2026-04-18T14:18:21Z</time></trkpt><trkpt lat="39.27525972451033" lon="8.635638200051547"><ele>126.0</ele><time>2026-04-18T14:18:22Z</time></trkpt><trkpt lat="39.27537663641026" lon="8.635816720134946"><ele>126.0</ele><time>2026-04-18T14:18:23Z</time></trkpt><trkpt lat="39.27549644649402" lon="8.63599980908682"><ele>125.66666666666666</ele><time>2026-04-18T14:18:24Z</time></trkpt><trkpt lat="39.2756132504704" lon="8.636177996359258"><ele>125.33333333333333</ele><time>2026-04-18T14:18:25Z</time></trkpt><trkpt lat="39.27572993101387" lon="8.636362047558976"><ele>125.0</ele><time>2026-04-18T14:18:26Z</time></trkpt><trkpt lat="39.275844099682445" lon="8.636544629106599"><ele>125.0</ele><time>2026-04-18T14:18:27Z</time></trkpt><trkpt lat="39.275959932766455" lon="8.636731616196"><ele>125.0</ele><time>2026-04-18T14:18:28Z</time></trkpt><trkpt lat="39.276077751794865" lon="8.636914716890717"><ele>125.0</ele><time>2026-04-18T14:18:29Z</time></trkpt><trkpt lat="39.27619563463462" lon="8.63709375899174"><ele>125.0</ele><time>2026-04-18T14:18:30Z</time></trkpt><trkpt lat="39.276314143796505" lon="8.637273606930808"><ele>125.0</ele><time>2026-04-18T14:18:31Z</time></trkpt><trkpt lat="39.276412889235864" lon="8.63746612943586"><ele>125.0</ele><time>2026-04-18T14:18:32.001Z</time></trkpt><trkpt lat="39.27652405358087" lon="8.637638570861185"><ele>122.66666666666666</ele><time>2026-04-18T14:18:33.001Z</time></trkpt><trkpt lat="39.27664446387101" lon="8.637793262510026"><ele>120.33333333333334</ele><time>2026-04-18T14:18:34.001Z</time></trkpt><trkpt lat="39.27674971427743" lon="8.63796106975811"><ele>118.0</ele><time>2026-04-18T14:18:35.001Z</time></trkpt><trkpt lat="39.276852735244084" lon="8.638125933844965"><ele>118.0</ele><time>2026-04-18T14:18:36.001Z</time></trkpt><trkpt lat="39.27695694577595" lon="8.63829013987036"><ele>118.0</ele><time>2026-04-18T14:18:37.001Z</time></trkpt><trkpt lat="39.2770584014359" lon="8.638450072085538"><ele>118.0</ele><time>2026-04-18T14:18:38.001Z</time></trkpt><trkpt lat="39.277161297918774" lon="8.638606741393396"><ele>118.33333333333334</ele><time>2026-04-18T14:18:39.001Z</time></trkpt><trkpt lat="39.27726459897334" lon="8.638759451562843"><ele>118.66666666666666</ele><time>2026-04-18T14:18:40.001Z</time></trkpt><trkpt lat="39.27735147216346" lon="8.638928007815467"><ele>119.0</ele><time>2026-04-18T14:18:41.001Z</time></trkpt><trkpt lat="39.27745474858237" lon="8.639069048368798"><ele>117.5</ele><time>2026-04-18T14:18:42.001Z</time></trkpt><trkpt lat="39.27755074742194" lon="8.639218158055293"><ele>116.0</ele><time>2026-04-18T14:18:43.001Z</time></trkpt><trkpt lat="39.27764494119757" lon="8.639364244723568"><ele>114.5</ele><time>2026-04-18T14:18:44.001Z</time></trkpt><trkpt lat="39.27773834688806" lon="8.639507302754117"><ele>113.0</ele><time>2026-04-18T14:18:45.001Z</time></trkpt><trkpt lat="39.27783334580656" lon="8.639644939388349"><ele>113.0</ele><time>2026-04-18T14:18:46.001Z</time></trkpt><trkpt lat="39.27792345891863" lon="8.639788596493151"><ele>113.0</ele><time>2026-04-18T14:18:47.001Z</time></trkpt><trkpt lat="39.27802665088474" lon="8.639919374704741"><ele>113.0</ele><time>2026-04-18T14:18:48.001Z</time></trkpt><trkpt lat="39.27814482906135" lon="8.64003395072529"><ele>113.0</ele><time>2026-04-18T14:18:49.001Z</time></trkpt><trkpt lat="39.27825289475345" lon="8.640166123750907"><ele>112.5</ele><time>2026-04-18T14:18:50.001Z</time></trkpt><trkpt lat="39.27835737074269" lon="8.640300548588588"><ele>112.0</ele><time>2026-04-18T14:18:51.001Z</time></trkpt><trkpt lat="39.27846431394865" lon="8.640434085199082"><ele>111.5</ele><time>2026-04-18T14:18:52.001Z</time></trkpt><trkpt lat="39.278573947695214" lon="8.640568228477893"><ele>111.0</ele><time>2026-04-18T14:18:53.001Z</time></trkpt><trkpt lat="39.27868536550412" lon="8.640700555425857"><ele>111.0</ele><time>2026-04-18T14:18:54.001Z</time></trkpt><trkpt lat="39.27879616411442" lon="8.640829928512922"><ele>111.0</ele><time>2026-04-18T14:18:55.001Z</time></trkpt><trkpt lat="39.27890636087241" lon="8.640965076993202"><ele>111.0</ele><time>2026-04-18T14:18:56.001Z</time></trkpt><trkpt lat="39.27901174914861" lon="8.641103618311393"><ele>111.0</ele><time>2026-04-18T14:18:57.001Z</time></trkpt><trkpt lat="39.27911928882907" lon="8.641235066262986"><ele>111.0</ele><time>2026-04-18T14:18:58.001Z</time></trkpt><trkpt lat="39.279223127989276" lon="8.641362723373764"><ele>111.0</ele><time>2026-04-18T14:18:59.001Z</time></trkpt><trkpt lat="39.2793224751495" lon="8.641470581654653"><ele>111.0</ele><time>2026-04-18T14:19:00.001Z</time></trkpt><trkpt lat="39.27941367664093" lon="8.641561273968739"><ele>111.0</ele><time>2026-04-18T14:19:01.001Z</time></trkpt><trkpt lat="39.279501337244305" lon="8.64165437913187"><ele>111.0</ele><time>2026-04-18T14:19:02.001Z</time></trkpt><trkpt lat="39.27954290149411" lon="8.641734718208669"><ele>111.0</ele><time>2026-04-18T14:19:03.001Z</time></trkpt><trkpt lat="39.27956292715072" lon="8.641823677324846"><ele>111.0</ele><time>2026-04-18T14:19:04.001Z</time></trkpt><trkpt lat="39.2795502093249" lon="8.641909123939907"><ele>111.0</ele><time>2026-04-18T14:19:05.001Z</time></trkpt><trkpt lat="39.2795190883193" lon="8.641982377057225"><ele>111.0</ele><time>2026-04-18T14:19:06.001Z</time></trkpt><trkpt lat="39.27949334185863" lon="8.642064089402428"><ele>111.33333333333333</ele><time>2026-04-18T14:19:07.001Z</time></trkpt><trkpt lat="39.279488476721696" lon="8.642162556142427"><ele>111.66666666666666</ele><time>2026-04-18T14:19:08.001Z</time></trkpt><trkpt lat="39.27951114459458" lon="8.642259283501351"><ele>112.0</ele><time>2026-04-18T14:19:09.001Z</time></trkpt><trkpt lat="39.27956076772325" lon="8.642331195054155"><ele>112.33333333333333</ele><time>2026-04-18T14:19:10.001Z</time></trkpt><trkpt lat="39.279672440358105" lon="8.642395821526273"><ele>112.66666666666666</ele><time>2026-04-18T14:19:12.001Z</time></trkpt><trkpt lat="39.27972655041737" lon="8.642456295345692"><ele>113.0</ele><time>2026-04-18T14:19:13.001Z</time></trkpt><trkpt lat="39.2797649417659" lon="8.642555458904535"><ele>112.4</ele><time>2026-04-18T14:19:14.001Z</time></trkpt><trkpt lat="39.279782736070835" lon="8.642681961294064"><ele>111.80000000000001</ele><time>2026-04-18T14:19:15.001Z</time></trkpt><trkpt lat="39.27979744885505" lon="8.642817054189413"><ele>111.2</ele><time>2026-04-18T14:19:16.001Z</time></trkpt><trkpt lat="39.27981706672892" lon="8.642962173848057"><ele>110.6</ele><time>2026-04-18T14:19:17.001Z</time></trkpt><trkpt lat="39.279837073113754" lon="8.6431172738027"><ele>110.0</ele><time>2026-04-18T14:19:18.001Z</time></trkpt><trkpt lat="39.279848439373986" lon="8.643285612901376"><ele>109.75</ele><time>2026-04-18T14:19:19.001Z</time></trkpt><trkpt lat="39.27985129258652" lon="8.64346281051238"><ele>109.5</ele><time>2026-04-18T14:19:20.001Z</time></trkpt><trkpt lat="39.27984219788185" lon="8.643646581905008"><ele>109.25</ele><time>2026-04-18T14:19:21.001Z</time></trkpt><trkpt lat="39.27982537000088" lon="8.643829334439134"><ele>109.0</ele><time>2026-04-18T14:19:22.001Z</time></trkpt><trkpt lat="39.279801655351896" lon="8.644023031964004"><ele>109.0</ele><time>2026-04-18T14:19:23.001Z</time></trkpt><trkpt lat="39.27976926500997" lon="8.644223612611281"><ele>109.0</ele><time>2026-04-18T14:19:24.001Z</time></trkpt><trkpt lat="39.27971786595119" lon="8.64442298312697"><ele>109.0</ele><time>2026-04-18T14:19:25.001Z</time></trkpt><trkpt lat="39.279653434102634" lon="8.64461550592893"><ele>110.0</ele><time>2026-04-18T14:19:26.001Z</time></trkpt><trkpt lat="39.279581013017136" lon="8.644812008683955"><ele>111.0</ele><time>2026-04-18T14:19:27.001Z</time></trkpt><trkpt lat="39.27950160201719" lon="8.645003987879441"><ele>112.0</ele><time>2026-04-18T14:19:28.001Z</time></trkpt><trkpt lat="39.2794113939588" lon="8.64519688531835"><ele>111.0</ele><time>2026-04-18T14:19:29.001Z</time></trkpt><trkpt lat="39.279310932836694" lon="8.645386372082635"><ele>110.0</ele><time>2026-04-18T14:19:30.001Z</time></trkpt><trkpt lat="39.279210505649516" lon="8.645580181588041"><ele>109.0</ele><time>2026-04-18T14:19:31.001Z</time></trkpt><trkpt lat="39.279112105772555" lon="8.64577990246614"><ele>109.0</ele><time>2026-04-18T14:19:32.001Z</time></trkpt><trkpt lat="39.27901884369627" lon="8.645980750015365"><ele>109.0</ele><time>2026-04-18T14:19:33.001Z</time></trkpt><trkpt lat="39.278923051264115" lon="8.646185409205579"><ele>109.0</ele><time>2026-04-18T14:19:34.001Z</time></trkpt><trkpt lat="39.27883052990483" lon="8.646391641223191"><ele>109.0</ele><time>2026-04-18T14:19:35.001Z</time></trkpt><trkpt lat="39.27874237617964" lon="8.646607198413784"><ele>109.0</ele><time>2026-04-18T14:19:36.001Z</time></trkpt><trkpt lat="39.27866825192733" lon="8.646830822700156"><ele>109.0</ele><time>2026-04-18T14:19:37.001Z</time></trkpt><trkpt lat="39.27861131755813" lon="8.64706350686975"><ele>108.33333333333334</ele><time>2026-04-18T14:19:38.001Z</time></trkpt><trkpt lat="39.278566735250834" lon="8.647305912738036"><ele>107.66666666666666</ele><time>2026-04-18T14:19:39.001Z</time></trkpt><trkpt lat="39.27852833121975" lon="8.647553243711618"><ele>107.0</ele><time>2026-04-18T14:19:40.001Z</time></trkpt><trkpt lat="39.27848833109324" lon="8.647803272750263"><ele>107.0</ele><time>2026-04-18T14:19:41.001Z</time></trkpt><trkpt lat="39.278448285549516" lon="8.648060403236547"><ele>107.0</ele><time>2026-04-18T14:19:42.001Z</time></trkpt><trkpt lat="39.27841093792567" lon="8.64831865037182"><ele>107.0</ele><time>2026-04-18T14:19:43.001Z</time></trkpt><trkpt lat="39.278372567078094" lon="8.648576239113764"><ele>107.0</ele><time>2026-04-18T14:19:44.001Z</time></trkpt><trkpt lat="39.27833293963284" lon="8.648836667471343"><ele>107.0</ele><time>2026-04-18T14:19:45.001Z</time></trkpt><trkpt lat="39.27829491881527" lon="8.649096834636861"><ele>107.0</ele><time>2026-04-18T14:19:46.001Z</time></trkpt><trkpt lat="39.27826101587442" lon="8.649357901630855"><ele>106.66666666666666</ele><time>2026-04-18T14:19:47.001Z</time></trkpt><trkpt lat="39.27823831184032" lon="8.64962488371398"><ele>106.33333333333334</ele><time>2026-04-18T14:19:48.001Z</time></trkpt><trkpt lat="39.27822795681664" lon="8.64989123467612"><ele>106.0</ele><time>2026-04-18T14:19:49.001Z</time></trkpt><trkpt lat="39.27820973674969" lon="8.650158357361967"><ele>105.33333333333334</ele><time>2026-04-18T14:19:50.001Z</time></trkpt><trkpt lat="39.27820976760995" lon="8.650427014966246"><ele>104.66666666666666</ele><time>2026-04-18T14:19:51.001Z</time></trkpt><trkpt lat="39.27821072114239" lon="8.650694773299486"><ele>104.0</ele><time>2026-04-18T14:19:52.001Z</time></trkpt><trkpt lat="39.278227983684964" lon="8.650957392769074"><ele>104.0</ele><time>2026-04-18T14:19:53.001Z</time></trkpt><trkpt lat="39.2782275150426" lon="8.651215300148502"><ele>104.0</ele><time>2026-04-18T14:19:54.001Z</time></trkpt><trkpt lat="39.2782274179291" lon="8.651468967633493"><ele>104.0</ele><time>2026-04-18T14:19:55.001Z</time></trkpt><trkpt lat="39.27823062849597" lon="8.651718178319873"><ele>104.66666666666666</ele><time>2026-04-18T14:19:56.001Z</time></trkpt><trkpt lat="39.27823198815965" lon="8.651974961549435"><ele>105.33333333333334</ele><time>2026-04-18T14:19:57Z</time></trkpt><trkpt lat="39.27823467295767" lon="8.652228601533666"><ele>106.0</ele><time>2026-04-18T14:19:58Z</time></trkpt><trkpt lat="39.27823513449701" lon="8.652482300424918"><ele>106.0</ele><time>2026-04-18T14:19:59Z</time></trkpt><trkpt lat="39.278235760025126" lon="8.652741028857127"><ele>106.0</ele><time>2026-04-18T14:20:00Z</time></trkpt><trkpt lat="39.27823566809922" lon="8.65300282425037"><ele>106.0</ele><time>2026-04-18T14:20:01Z</time></trkpt><trkpt lat="39.27823314791857" lon="8.65326651570246"><ele>105.66666666666667</ele><time>2026-04-18T14:20:02Z</time></trkpt><trkpt lat="39.278229500061116" lon="8.653534034883265"><ele>105.33333333333334</ele><time>2026-04-18T14:20:03Z</time></trkpt><trkpt lat="39.278225690078294" lon="8.653805296085459"><ele>105.0</ele><time>2026-04-18T14:20:04Z</time></trkpt><trkpt lat="39.278220797559584" lon="8.654079898365778"><ele>105.0</ele><time>2026-04-18T14:20:05Z</time></trkpt><trkpt lat="39.27821494096287" lon="8.654361128790114"><ele>105.0</ele><time>2026-04-18T14:20:06Z</time></trkpt><trkpt lat="39.27820899159826" lon="8.654646318402737"><ele>105.0</ele><time>2026-04-18T14:20:07Z</time></trkpt><trkpt lat="39.27820190324233" lon="8.654935410808898"><ele>104.33333333333334</ele><time>2026-04-18T14:20:08Z</time></trkpt><trkpt lat="39.27820171572956" lon="8.655211229234876"><ele>103.66666666666667</ele><time>2026-04-18T14:20:09Z</time></trkpt><trkpt lat="39.27819657298297" lon="8.655488852142021"><ele>103.0</ele><time>2026-04-18T14:20:10Z</time></trkpt><trkpt lat="39.27819022057157" lon="8.655776936789902"><ele>102.33333333333334</ele><time>2026-04-18T14:20:11Z</time></trkpt><trkpt lat="39.27818322742139" lon="8.656060846862154"><ele>101.66666666666666</ele><time>2026-04-18T14:20:12Z</time></trkpt><trkpt lat="39.27817618692363" lon="8.656350565674991"><ele>101.0</ele><time>2026-04-18T14:20:13Z</time></trkpt><trkpt lat="39.278168837365676" lon="8.656640118295297"><ele>101.0</ele><time>2026-04-18T14:20:14Z</time></trkpt><trkpt lat="39.27816231253079" lon="8.656934832607078"><ele>101.0</ele><time>2026-04-18T14:20:15Z</time></trkpt><trkpt lat="39.27815541218947" lon="8.657229854093652"><ele>101.0</ele><time>2026-04-18T14:20:16Z</time></trkpt><trkpt lat="39.27814892144364" lon="8.65752784189804"><ele>101.0</ele><time>2026-04-18T14:20:17Z</time></trkpt><trkpt lat="39.278145365807504" lon="8.657828606938464"><ele>100.5</ele><time>2026-04-18T14:20:18Z</time></trkpt><trkpt lat="39.27814334467592" lon="8.658129562484596"><ele>100.0</ele><time>2026-04-18T14:20:19Z</time></trkpt><trkpt lat="39.27813704600314" lon="8.65843001532744"><ele>100.0</ele><time>2026-04-18T14:20:20Z</time></trkpt><trkpt lat="39.27812613954154" lon="8.658731484764187"><ele>100.0</ele><time>2026-04-18T14:20:21Z</time></trkpt><trkpt lat="39.278118187147804" lon="8.65903444541443"><ele>100.0</ele><time>2026-04-18T14:20:22Z</time></trkpt><trkpt lat="39.278110138177006" lon="8.659340029373874"><ele>100.0</ele><time>2026-04-18T14:20:23Z</time></trkpt><trkpt lat="39.27810370092845" lon="8.659646571763156"><ele>101.0</ele><time>2026-04-18T14:20:24Z</time></trkpt><trkpt lat="39.27809421504472" lon="8.659958202000219"><ele>102.0</ele><time>2026-04-18T14:20:25Z</time></trkpt><trkpt lat="39.27808736830973" lon="8.660270538809918"><ele>104.0</ele><time>2026-04-18T14:20:26Z</time></trkpt><trkpt lat="39.27808171209206" lon="8.660586382549893"><ele>106.0</ele><time>2026-04-18T14:20:27Z</time></trkpt><trkpt lat="39.27807454444686" lon="8.660905274896376"><ele>107.0</ele><time>2026-04-18T14:20:28Z</time></trkpt><trkpt lat="39.27806420318973" lon="8.661222862912417"><ele>108.0</ele><time>2026-04-18T14:20:29Z</time></trkpt><trkpt lat="39.27805771449865" lon="8.661541547099564"><ele>108.0</ele><time>2026-04-18T14:20:30Z</time></trkpt><trkpt lat="39.27805704037679" lon="8.661863637866526"><ele>108.0</ele><time>2026-04-18T14:20:31Z</time></trkpt><trkpt lat="39.27807842928009" lon="8.662185896112922"><ele>105.0</ele><time>2026-04-18T14:20:32Z</time></trkpt><trkpt lat="39.27811435530159" lon="8.662506132322264"><ele>102.0</ele><time>2026-04-18T14:20:33Z</time></trkpt><trkpt lat="39.27817318119019" lon="8.662824222397482"><ele>102.0</ele><time>2026-04-18T14:20:34Z</time></trkpt><trkpt lat="39.278226983041876" lon="8.663137568886597"><ele>102.0</ele><time>2026-04-18T14:20:35Z</time></trkpt><trkpt lat="39.27827673220881" lon="8.663440766934759"><ele>102.5</ele><time>2026-04-18T14:20:36Z</time></trkpt><trkpt lat="39.27832018560655" lon="8.66373415175235"><ele>103.0</ele><time>2026-04-18T14:20:37Z</time></trkpt><trkpt lat="39.27835664177566" lon="8.664021481899313"><ele>103.0</ele><time>2026-04-18T14:20:38Z</time></trkpt><trkpt lat="39.278390085822615" lon="8.664302002807625"><ele>103.0</ele><time>2026-04-18T14:20:39Z</time></trkpt><trkpt lat="39.278419879858795" lon="8.66457436436894"><ele>103.0</ele><time>2026-04-18T14:20:40Z</time></trkpt><trkpt lat="39.278444920690646" lon="8.664834133640364"><ele>102.33333333333334</ele><time>2026-04-18T14:20:41Z</time></trkpt><trkpt lat="39.278468463560216" lon="8.665088485021876"><ele>101.66666666666666</ele><time>2026-04-18T14:20:42Z</time></trkpt><trkpt lat="39.278486826163494" lon="8.66530737909903"><ele>101.0</ele><time>2026-04-18T14:20:43Z</time></trkpt><trkpt lat="39.27850215454116" lon="8.66549533236581"><ele>100.5</ele><time>2026-04-18T14:20:44Z</time></trkpt><trkpt lat="39.278516303527084" lon="8.665661354348138"><ele>100.0</ele><time>2026-04-18T14:20:45Z</time></trkpt><trkpt lat="39.278528943979644" lon="8.665813078565924"><ele>99.5</ele><time>2026-04-18T14:20:46Z</time></trkpt><trkpt lat="39.27853446458171" lon="8.665962146069464"><ele>99.0</ele><time>2026-04-18T14:20:47Z</time></trkpt><trkpt lat="39.27853471001665" lon="8.666103980547199"><ele>98.80000000000001</ele><time>2026-04-18T14:20:48Z</time></trkpt><trkpt lat="39.278530785580315" lon="8.666241368756744"><ele>98.60000000000001</ele><time>2026-04-18T14:20:49Z</time></trkpt><trkpt lat="39.27852343437295" lon="8.666367179250528"><ele>98.4</ele><time>2026-04-18T14:20:50Z</time></trkpt><trkpt lat="39.27851440722751" lon="8.666457276211366"><ele>98.2</ele><time>2026-04-18T14:20:51Z</time></trkpt><trkpt lat="39.278497019013294" lon="8.666604922325606"><ele>98.0</ele><time>2026-04-18T14:20:53Z</time></trkpt><trkpt lat="39.278487341265944" lon="8.666703757766989"><ele>98.0</ele><time>2026-04-18T14:20:54Z</time></trkpt><trkpt lat="39.27846958380741" lon="8.666825209972211"><ele>98.0</ele><time>2026-04-18T14:20:55Z</time></trkpt><trkpt lat="39.278436193214446" lon="8.66696905413885"><ele>98.0</ele><time>2026-04-18T14:20:56Z</time></trkpt><trkpt lat="39.27839250524374" lon="8.667124410101767"><ele>98.0</ele><time>2026-04-18T14:20:57Z</time></trkpt><trkpt lat="39.27833920685945" lon="8.667294686869191"><ele>97.0</ele><time>2026-04-18T14:20:58Z</time></trkpt><trkpt lat="39.278275996301204" lon="8.667477266922592"><ele>96.0</ele><time>2026-04-18T14:20:59Z</time></trkpt><trkpt lat="39.27820176128808" lon="8.667670320655676"><ele>95.0</ele><time>2026-04-18T14:21:00Z</time></trkpt><trkpt lat="39.278114200012226" lon="8.66785674603345"><ele>95.33333333333334</ele><time>2026-04-18T14:21:01Z</time></trkpt><trkpt lat="39.27801953441587" lon="8.668038230637588"><ele>95.66666666666667</ele><time>2026-04-18T14:21:02Z</time></trkpt><trkpt lat="39.27791612895621" lon="8.668230768567678"><ele>96.0</ele><time>2026-04-18T14:21:03Z</time></trkpt><trkpt lat="39.27781452117922" lon="8.668436106753882"><ele>96.33333333333334</ele><time>2026-04-18T14:21:04Z</time></trkpt><trkpt lat="39.27770992874279" lon="8.668653655551786"><ele>96.66666666666667</ele><time>2026-04-18T14:21:05Z</time></trkpt><trkpt lat="39.27760412482088" lon="8.66886838628569"><ele>97.0</ele><time>2026-04-18T14:21:06Z</time></trkpt><trkpt lat="39.27749314733965" lon="8.669093453446903"><ele>97.0</ele><time>2026-04-18T14:21:07Z</time></trkpt><trkpt lat="39.27738095227245" lon="8.66932833270355"><ele>97.0</ele><time>2026-04-18T14:21:08Z</time></trkpt><trkpt lat="39.277264766125526" lon="8.669569303125312"><ele>97.0</ele><time>2026-04-18T14:21:09Z</time></trkpt><trkpt lat="39.277142234511786" lon="8.669812050796478"><ele>97.0</ele><time>2026-04-18T14:21:10Z</time></trkpt><trkpt lat="39.277019431243595" lon="8.670052726181904"><ele>97.0</ele><time>2026-04-18T14:21:11Z</time></trkpt><trkpt lat="39.276900339796434" lon="8.670291799033118"><ele>97.0</ele><time>2026-04-18T14:21:12Z</time></trkpt><trkpt lat="39.27677680703747" lon="8.670542544667022"><ele>98.0</ele><time>2026-04-18T14:21:13Z</time></trkpt><trkpt lat="39.27664917332782" lon="8.670800235268242"><ele>99.0</ele><time>2026-04-18T14:21:14.001Z</time></trkpt><trkpt lat="39.27652168314353" lon="8.671057745349293"><ele>99.5</ele><time>2026-04-18T14:21:15.001Z</time></trkpt><trkpt lat="39.27639342226769" lon="8.671315759870403"><ele>100.0</ele><time>2026-04-18T14:21:16.001Z</time></trkpt><trkpt lat="39.276263869318015" lon="8.671577459433397"><ele>100.0</ele><time>2026-04-18T14:21:17.001Z</time></trkpt><trkpt lat="39.276135319710114" lon="8.671837969475861"><ele>100.0</ele><time>2026-04-18T14:21:18.001Z</time></trkpt><trkpt lat="39.2760058727199" lon="8.672099523811651"><ele>100.0</ele><time>2026-04-18T14:21:19.001Z</time></trkpt><trkpt lat="39.27587090319095" lon="8.67236621853228"><ele>100.0</ele><time>2026-04-18T14:21:20.001Z</time></trkpt><trkpt lat="39.27573343720422" lon="8.672637348595758"><ele>102.0</ele><time>2026-04-18T14:21:21.001Z</time></trkpt><trkpt lat="39.27559280564769" lon="8.672910403234047"><ele>104.0</ele><time>2026-04-18T14:21:22.001Z</time></trkpt><trkpt lat="39.2754568085281" lon="8.673180166995182"><ele>104.0</ele><time>2026-04-18T14:21:23.001Z</time></trkpt><trkpt lat="39.275322554010124" lon="8.673450704146099"><ele>104.0</ele><time>2026-04-18T14:21:24.001Z</time></trkpt><trkpt lat="39.27519654122634" lon="8.6737102324132"><ele>104.5</ele><time>2026-04-18T14:21:25.001Z</time></trkpt><trkpt lat="39.275077593292295" lon="8.673966033646028"><ele>105.0</ele><time>2026-04-18T14:21:26.001Z</time></trkpt><trkpt lat="39.274966107563856" lon="8.674219673503634"><ele>104.0</ele><time>2026-04-18T14:21:27.001Z</time></trkpt><trkpt lat="39.27485998373978" lon="8.674481168898277"><ele>103.0</ele><time>2026-04-18T14:21:28.001Z</time></trkpt><trkpt lat="39.27475742415737" lon="8.674751164466876"><ele>104.0</ele><time>2026-04-18T14:21:29.001Z</time></trkpt><trkpt lat="39.27465573511228" lon="8.675021003607732"><ele>105.0</ele><time>2026-04-18T14:21:30.001Z</time></trkpt><trkpt lat="39.274551675701964" lon="8.675294462372618"><ele>105.0</ele><time>2026-04-18T14:21:31.001Z</time></trkpt><trkpt lat="39.274445759180104" lon="8.67556996229658"><ele>105.0</ele><time>2026-04-18T14:21:32.001Z</time></trkpt><trkpt lat="39.27433888917021" lon="8.675848269982643"><ele>104.0</ele><time>2026-04-18T14:21:33.001Z</time></trkpt><trkpt lat="39.274232388215154" lon="8.676128003768858"><ele>103.0</ele><time>2026-04-18T14:21:34.001Z</time></trkpt><trkpt lat="39.274125124775324" lon="8.67641092729765"><ele>103.0</ele><time>2026-04-18T14:21:35.001Z</time></trkpt><trkpt lat="39.27401408799918" lon="8.676699658879269"><ele>103.0</ele><time>2026-04-18T14:21:36.001Z</time></trkpt><trkpt lat="39.273898974320765" lon="8.676997165783533"><ele>105.0</ele><time>2026-04-18T14:21:37.001Z</time></trkpt><trkpt lat="39.27378445619075" lon="8.677297087463971"><ele>107.0</ele><time>2026-04-18T14:21:38.001Z</time></trkpt><trkpt lat="39.273673623610655" lon="8.677595941014921"><ele>107.0</ele><time>2026-04-18T14:21:39.001Z</time></trkpt><trkpt lat="39.27356920407563" lon="8.677882362341533"><ele>107.0</ele><time>2026-04-18T14:21:40.001Z</time></trkpt><trkpt lat="39.27347117771098" lon="8.67817184192921"><ele>107.0</ele><time>2026-04-18T14:21:41.001Z</time></trkpt><trkpt lat="39.273381592235" lon="8.678472766300148"><ele>107.0</ele><time>2026-04-18T14:21:42.001Z</time></trkpt><trkpt lat="39.27328441565197" lon="8.678786375287753"><ele>107.0</ele><time>2026-04-18T14:21:43.001Z</time></trkpt><trkpt lat="39.2732294639544" lon="8.679121448557288"><ele>107.0</ele><time>2026-04-18T14:21:44.001Z</time></trkpt><trkpt lat="39.2731653201891" lon="8.679457963588101"><ele>107.0</ele><time>2026-04-18T14:21:45.001Z</time></trkpt><trkpt lat="39.27310609472379" lon="8.679791312895237"><ele>107.0</ele><time>2026-04-18T14:21:46.001Z</time></trkpt><trkpt lat="39.27305003784246" lon="8.68012386494262"><ele>106.0</ele><time>2026-04-18T14:21:47.001Z</time></trkpt><trkpt lat="39.27299597282799" lon="8.680451294950144"><ele>105.0</ele><time>2026-04-18T14:21:48.001Z</time></trkpt><trkpt lat="39.27294013292897" lon="8.680781520177348"><ele>105.0</ele><time>2026-04-18T14:21:49.001Z</time></trkpt><trkpt lat="39.27288381204602" lon="8.681107046663149"><ele>105.0</ele><time>2026-04-18T14:21:50.001Z</time></trkpt><trkpt lat="39.272827556593924" lon="8.681436410340218"><ele>105.0</ele><time>2026-04-18T14:21:51.001Z</time></trkpt><trkpt lat="39.27277179780439" lon="8.681764560877765"><ele>105.0</ele><time>2026-04-18T14:21:52.001Z</time></trkpt><trkpt lat="39.272715965139206" lon="8.682089331950815"><ele>104.5</ele><time>2026-04-18T14:21:53.001Z</time></trkpt><trkpt lat="39.272659538361204" lon="8.682413229549594"><ele>104.0</ele><time>2026-04-18T14:21:54.001Z</time></trkpt><trkpt lat="39.2726023741649" lon="8.682737184418562"><ele>103.0</ele><time>2026-04-18T14:21:55.001Z</time></trkpt><trkpt lat="39.27254539171366" lon="8.68305995945979"><ele>102.0</ele><time>2026-04-18T14:21:56.001Z</time></trkpt><trkpt lat="39.272490604971054" lon="8.683383033654362"><ele>101.5</ele><time>2026-04-18T14:21:57.001Z</time></trkpt><trkpt lat="39.27243531669028" lon="8.683706474871457"><ele>101.0</ele><time>2026-04-18T14:21:58.001Z</time></trkpt><trkpt lat="39.27238075746012" lon="8.684025977292746"><ele>101.0</ele><time>2026-04-18T14:21:59.001Z</time></trkpt><trkpt lat="39.2723245625219" lon="8.684345884548664"><ele>101.0</ele><time>2026-04-18T14:22:00.001Z</time></trkpt><trkpt lat="39.2722674527497" lon="8.684663186424777"><ele>101.0</ele><time>2026-04-18T14:22:01.001Z</time></trkpt><trkpt lat="39.272209816282476" lon="8.684979230779794"><ele>101.0</ele><time>2026-04-18T14:22:02.001Z</time></trkpt><trkpt lat="39.27215243341212" lon="8.685294814482665"><ele>101.0</ele><time>2026-04-18T14:22:03Z</time></trkpt><trkpt lat="39.272096988256315" lon="8.685614051922391"><ele>101.0</ele><time>2026-04-18T14:22:04Z</time></trkpt><trkpt lat="39.27204001170413" lon="8.685937318956766"><ele>101.5</ele><time>2026-04-18T14:22:05Z</time></trkpt><trkpt lat="39.27198542407965" lon="8.686260304530002"><ele>102.0</ele><time>2026-04-18T14:22:06Z</time></trkpt><trkpt lat="39.27192857287211" lon="8.686586822737182"><ele>102.0</ele><time>2026-04-18T14:22:07Z</time></trkpt><trkpt lat="39.2718723638098" lon="8.686915424981889"><ele>102.0</ele><time>2026-04-18T14:22:08Z</time></trkpt><trkpt lat="39.271813339667155" lon="8.687248068449753"><ele>101.0</ele><time>2026-04-18T14:22:09Z</time></trkpt><trkpt lat="39.27175276915816" lon="8.687584278143744"><ele>100.0</ele><time>2026-04-18T14:22:10Z</time></trkpt><trkpt lat="39.271692992243466" lon="8.68792154739793"><ele>100.0</ele><time>2026-04-18T14:22:11Z</time></trkpt><trkpt lat="39.27163700054702" lon="8.688255200778494"><ele>100.0</ele><time>2026-04-18T14:22:12Z</time></trkpt><trkpt lat="39.27157950789791" lon="8.68858722144343"><ele>100.0</ele><time>2026-04-18T14:22:13Z</time></trkpt><trkpt lat="39.27152084814104" lon="8.688920491467288"><ele>100.0</ele><time>2026-04-18T14:22:14Z</time></trkpt><trkpt lat="39.27146198865695" lon="8.689255047669132"><ele>101.0</ele><time>2026-04-18T14:22:15Z</time></trkpt><trkpt lat="39.27140562913088" lon="8.689593761873805"><ele>102.0</ele><time>2026-04-18T14:22:16Z</time></trkpt><trkpt lat="39.27134794777916" lon="8.689934258463381"><ele>101.5</ele><time>2026-04-18T14:22:17Z</time></trkpt><trkpt lat="39.27128779600391" lon="8.690275498625356"><ele>101.0</ele><time>2026-04-18T14:22:18Z</time></trkpt><trkpt lat="39.27122823634951" lon="8.690617382848679"><ele>101.0</ele><time>2026-04-18T14:22:19Z</time></trkpt><trkpt lat="39.27116809462617" lon="8.690962761676229"><ele>101.0</ele><time>2026-04-18T14:22:20Z</time></trkpt><trkpt lat="39.271109852296284" lon="8.691315766488025"><ele>100.0</ele><time>2026-04-18T14:22:21Z</time></trkpt><trkpt lat="39.27105231148459" lon="8.69167266731932"><ele>99.0</ele><time>2026-04-18T14:22:22Z</time></trkpt><trkpt lat="39.27099097205292" lon="8.692035058401887"><ele>99.0</ele><time>2026-04-18T14:22:23Z</time></trkpt><trkpt lat="39.27092426748879" lon="8.69240431301763"><ele>99.0</ele><time>2026-04-18T14:22:24Z</time></trkpt><trkpt lat="39.27085634570791" lon="8.692776685644853"><ele>98.5</ele><time>2026-04-18T14:22:25Z</time></trkpt><trkpt lat="39.27079013732815" lon="8.693155864106709"><ele>98.0</ele><time>2026-04-18T14:22:26Z</time></trkpt><trkpt lat="39.27072373730832" lon="8.693528690769922"><ele>98.0</ele><time>2026-04-18T14:22:27Z</time></trkpt><trkpt lat="39.2706585387304" lon="8.693899836998654"><ele>98.0</ele><time>2026-04-18T14:22:28Z</time></trkpt><trkpt lat="39.27059438936502" lon="8.694269340936685"><ele>99.0</ele><time>2026-04-18T14:22:29Z</time></trkpt><trkpt lat="39.270531902479895" lon="8.694639087193323"><ele>100.0</ele><time>2026-04-18T14:22:30Z</time></trkpt><trkpt lat="39.27047242639155" lon="8.695006098179471"><ele>99.0</ele><time>2026-04-18T14:22:31Z</time></trkpt><trkpt lat="39.27042173848437" lon="8.6953677616906"><ele>98.0</ele><time>2026-04-18T14:22:32Z</time></trkpt><trkpt lat="39.27037825495437" lon="8.695731524544266"><ele>97.5</ele><time>2026-04-18T14:22:33Z</time></trkpt><trkpt lat="39.27034500916508" lon="8.696099989167033"><ele>97.0</ele><time>2026-04-18T14:22:34Z</time></trkpt><trkpt lat="39.27031338631097" lon="8.696468554091927"><ele>97.0</ele><time>2026-04-18T14:22:35Z</time></trkpt><trkpt lat="39.270281517167085" lon="8.696833286163802"><ele>97.0</ele><time>2026-04-18T14:22:36Z</time></trkpt><trkpt lat="39.27025579655666" lon="8.697198526500172"><ele>97.0</ele><time>2026-04-18T14:22:37Z</time></trkpt><trkpt lat="39.27022848977" lon="8.69755479501053"><ele>97.0</ele><time>2026-04-18T14:22:38Z</time></trkpt><trkpt lat="39.27020073648946" lon="8.69790234925161"><ele>96.5</ele><time>2026-04-18T14:22:39Z</time></trkpt><trkpt lat="39.270171260045544" lon="8.69824546599452"><ele>96.0</ele><time>2026-04-18T14:22:40Z</time></trkpt><trkpt lat="39.27014263068591" lon="8.698587452118588"><ele>95.5</ele><time>2026-04-18T14:22:41Z</time></trkpt><trkpt lat="39.2701160955161" lon="8.698929461921283"><ele>95.0</ele><time>2026-04-18T14:22:42Z</time></trkpt><trkpt lat="39.27009416817667" lon="8.699270713295155"><ele>95.5</ele><time>2026-04-18T14:22:43Z</time></trkpt><trkpt lat="39.27007162092643" lon="8.699609971280587"><ele>96.0</ele><time>2026-04-18T14:22:44Z</time></trkpt><trkpt lat="39.27004670568308" lon="8.699951725158455"><ele>96.5</ele><time>2026-04-18T14:22:45Z</time></trkpt><trkpt lat="39.27001480386108" lon="8.700288427718654"><ele>97.0</ele><time>2026-04-18T14:22:46Z</time></trkpt><trkpt lat="39.26998650623353" lon="8.700618014160312"><ele>97.0</ele><time>2026-04-18T14:22:47Z</time></trkpt><trkpt lat="39.26996087996734" lon="8.700943214654313"><ele>97.0</ele><time>2026-04-18T14:22:48Z</time></trkpt><trkpt lat="39.2699408765229" lon="8.701264097283117"><ele>96.5</ele><time>2026-04-18T14:22:49Z</time></trkpt><trkpt lat="39.26991991028694" lon="8.70157895641828"><ele>96.0</ele><time>2026-04-18T14:22:50Z</time></trkpt><trkpt lat="39.269897353675695" lon="8.701898205343385"><ele>95.5</ele><time>2026-04-18T14:22:51Z</time></trkpt><trkpt lat="39.26986190792103" lon="8.702213133250952"><ele>95.0</ele><time>2026-04-18T14:22:52Z</time></trkpt><trkpt lat="39.26983178204836" lon="8.702531903977901"><ele>94.0</ele><time>2026-04-18T14:22:53Z</time></trkpt><trkpt lat="39.26980288577766" lon="8.702852606194185"><ele>93.0</ele><time>2026-04-18T14:22:54Z</time></trkpt><trkpt lat="39.26977583299442" lon="8.703173042832743"><ele>92.5</ele><time>2026-04-18T14:22:55Z</time></trkpt><trkpt lat="39.269749169930144" lon="8.703496561813239"><ele>92.0</ele><time>2026-04-18T14:22:56Z</time></trkpt><trkpt lat="39.26972274961293" lon="8.703822126688992"><ele>92.0</ele><time>2026-04-18T14:22:57Z</time></trkpt><trkpt lat="39.26969441062637" lon="8.704148225981939"><ele>92.0</ele><time>2026-04-18T14:22:58Z</time></trkpt><trkpt lat="39.26967034414311" lon="8.704477093371183"><ele>91.0</ele><time>2026-04-18T14:22:59Z</time></trkpt><trkpt lat="39.269644427501866" lon="8.704810228336598"><ele>90.0</ele><time>2026-04-18T14:23:00Z</time></trkpt><trkpt lat="39.269620293191174" lon="8.705140058231576"><ele>90.0</ele><time>2026-04-18T14:23:01Z</time></trkpt><trkpt lat="39.269595489802214" lon="8.705472899927246"><ele>90.0</ele><time>2026-04-18T14:23:02Z</time></trkpt><trkpt lat="39.26957008902868" lon="8.705807024515671"><ele>89.5</ele><time>2026-04-18T14:23:03Z</time></trkpt><trkpt lat="39.269544733211916" lon="8.706141237334032"><ele>89.0</ele><time>2026-04-18T14:23:04Z</time></trkpt><trkpt lat="39.26952192726534" lon="8.70647244702419"><ele>89.0</ele><time>2026-04-18T14:23:05Z</time></trkpt><trkpt lat="39.26949612031263" lon="8.706807290228218"><ele>89.0</ele><time>2026-04-18T14:23:06Z</time></trkpt><trkpt lat="39.26946952357467" lon="8.707143303254533"><ele>87.5</ele><time>2026-04-18T14:23:07Z</time></trkpt><trkpt lat="39.269443652263206" lon="8.707483704109881"><ele>86.0</ele><time>2026-04-18T14:23:08Z</time></trkpt><trkpt lat="39.269414664181795" lon="8.707826071264915"><ele>85.0</ele><time>2026-04-18T14:23:09Z</time></trkpt><trkpt lat="39.26938636494666" lon="8.708173105913604"><ele>84.0</ele><time>2026-04-18T14:23:10Z</time></trkpt><trkpt lat="39.26935611546" lon="8.708517503651207"><ele>84.5</ele><time>2026-04-18T14:23:11Z</time></trkpt><trkpt lat="39.269326370918144" lon="8.708858644013722"><ele>85.0</ele><time>2026-04-18T14:23:12Z</time></trkpt><trkpt lat="39.26929902625076" lon="8.70919405139298"><ele>84.5</ele><time>2026-04-18T14:23:13Z</time></trkpt><trkpt lat="39.26927287139198" lon="8.709525650663767"><ele>84.0</ele><time>2026-04-18T14:23:14Z</time></trkpt><trkpt lat="39.26924878393813" lon="8.70985538350987"><ele>84.0</ele><time>2026-04-18T14:23:15Z</time></trkpt><trkpt lat="39.269225183665796" lon="8.710186784136507"><ele>84.0</ele><time>2026-04-18T14:23:16Z</time></trkpt><trkpt lat="39.26919734727871" lon="8.710517078129243"><ele>84.5</ele><time>2026-04-18T14:23:17Z</time></trkpt><trkpt lat="39.26917069074902" lon="8.710847333985585"><ele>85.0</ele><time>2026-04-18T14:23:18Z</time></trkpt><trkpt lat="39.269142579776215" lon="8.71117211911893"><ele>86.0</ele><time>2026-04-18T14:23:19Z</time></trkpt><trkpt lat="39.26911291374076" lon="8.711494974067735"><ele>87.0</ele><time>2026-04-18T14:23:20Z</time></trkpt><trkpt lat="39.26908402434021" lon="8.711820401869865"><ele>87.0</ele><time>2026-04-18T14:23:21Z</time></trkpt><trkpt lat="39.26905308996314" lon="8.712143925905679"><ele>87.0</ele><time>2026-04-18T14:23:22Z</time></trkpt><trkpt lat="39.269028040477906" lon="8.71247029512007"><ele>88.0</ele><time>2026-04-18T14:23:23Z</time></trkpt><trkpt lat="39.26900357030415" lon="8.712792863255515"><ele>89.0</ele><time>2026-04-18T14:23:24Z</time></trkpt><trkpt lat="39.26897646866894" lon="8.713117430859397"><ele>88.5</ele><time>2026-04-18T14:23:25Z</time></trkpt><trkpt lat="39.26894086761494" lon="8.713441695232754"><ele>88.0</ele><time>2026-04-18T14:23:26Z</time></trkpt><trkpt lat="39.26889534234681" lon="8.713765867741008"><ele>88.0</ele><time>2026-04-18T14:23:27Z</time></trkpt><trkpt lat="39.268846837025556" lon="8.714087578224186"><ele>88.0</ele><time>2026-04-18T14:23:28Z</time></trkpt><trkpt lat="39.268804724127406" lon="8.714411069870756"><ele>87.0</ele><time>2026-04-18T14:23:29Z</time></trkpt><trkpt lat="39.26875941870079" lon="8.714735923517782"><ele>86.0</ele><time>2026-04-18T14:23:30Z</time></trkpt><trkpt lat="39.26869233078613" lon="8.715056855880524"><ele>86.0</ele><time>2026-04-18T14:23:31Z</time></trkpt><trkpt lat="39.268640494358586" lon="8.715379374913415"><ele>86.0</ele><time>2026-04-18T14:23:32Z</time></trkpt><trkpt lat="39.2685887366" lon="8.715701404407517"><ele>86.0</ele><time>2026-04-18T14:23:33Z</time></trkpt><trkpt lat="39.26853822445019" lon="8.716021725922584"><ele>86.0</ele><time>2026-04-18T14:23:34Z</time></trkpt><trkpt lat="39.26850228677888" lon="8.71634686481877"><ele>86.5</ele><time>2026-04-18T14:23:35Z</time></trkpt><trkpt lat="39.26844950315348" lon="8.716670405542386"><ele>87.0</ele><time>2026-04-18T14:23:36Z</time></trkpt><trkpt lat="39.26839899093165" lon="8.716992517672235"><ele>87.0</ele><time>2026-04-18T14:23:37Z</time></trkpt><trkpt lat="39.26835099411231" lon="8.717313917804546"><ele>87.0</ele><time>2026-04-18T14:23:38Z</time></trkpt><trkpt lat="39.268287702233856" lon="8.717627705184487"><ele>86.0</ele><time>2026-04-18T14:23:39Z</time></trkpt><trkpt lat="39.268238056222806" lon="8.717945714341605"><ele>85.0</ele><time>2026-04-18T14:23:40Z</time></trkpt><trkpt lat="39.26818877219768" lon="8.718261404735236"><ele>85.0</ele><time>2026-04-18T14:23:41Z</time></trkpt><trkpt lat="39.26815488665032" lon="8.718577768040488"><ele>85.0</ele><time>2026-04-18T14:23:42Z</time></trkpt><trkpt lat="39.268102094107896" lon="8.718887969294382"><ele>86.5</ele><time>2026-04-18T14:23:43Z</time></trkpt><trkpt lat="39.26805240760298" lon="8.719194718379246"><ele>88.0</ele><time>2026-04-18T14:23:44Z</time></trkpt><trkpt lat="39.26800528090741" lon="8.719501684286124"><ele>88.0</ele><time>2026-04-18T14:23:45Z</time></trkpt><trkpt lat="39.26795315878252" lon="8.71980743054988"><ele>88.0</ele><time>2026-04-18T14:23:46Z</time></trkpt><trkpt lat="39.2679079868027" lon="8.720119987041812"><ele>87.5</ele><time>2026-04-18T14:23:47Z</time></trkpt><trkpt lat="39.2678608162303" lon="8.720433602688622"><ele>87.0</ele><time>2026-04-18T14:23:48Z</time></trkpt><trkpt lat="39.26781061831877" lon="8.720744972335188"><ele>87.0</ele><time>2026-04-18T14:23:49Z</time></trkpt><trkpt lat="39.26776096147668" lon="8.721056133889782"><ele>87.0</ele><time>2026-04-18T14:23:50Z</time></trkpt><trkpt lat="39.267712820494665" lon="8.721366786808138"><ele>87.5</ele><time>2026-04-18T14:23:51Z</time></trkpt><trkpt lat="39.26766370971977" lon="8.721678416636236"><ele>88.0</ele><time>2026-04-18T14:23:52Z</time></trkpt><trkpt lat="39.26761809740783" lon="8.721986018156343"><ele>88.5</ele><time>2026-04-18T14:23:53Z</time></trkpt><trkpt lat="39.267572060153974" lon="8.722291699415392"><ele>89.0</ele><time>2026-04-18T14:23:54Z</time></trkpt><trkpt lat="39.26750842197686" lon="8.722590572860309"><ele>88.0</ele><time>2026-04-18T14:23:55Z</time></trkpt><trkpt lat="39.267460210965666" lon="8.722896390298768"><ele>87.0</ele><time>2026-04-18T14:23:56Z</time></trkpt><trkpt lat="39.267412417646234" lon="8.723199540903261"><ele>87.0</ele><time>2026-04-18T14:23:57Z</time></trkpt><trkpt lat="39.267364110515025" lon="8.723505877776669"><ele>87.0</ele><time>2026-04-18T14:23:58Z</time></trkpt><trkpt lat="39.26731611454179" lon="8.72381024208067"><ele>87.0</ele><time>2026-04-18T14:23:59Z</time></trkpt><trkpt lat="39.26726864571742" lon="8.724114211428185"><ele>87.0</ele><time>2026-04-18T14:24:00Z</time></trkpt><trkpt lat="39.267220798820674" lon="8.72442043307536"><ele>87.0</ele><time>2026-04-18T14:24:01Z</time></trkpt><trkpt lat="39.26717283684551" lon="8.724727391779792"><ele>87.0</ele><time>2026-04-18T14:24:02Z</time></trkpt><trkpt lat="39.2671249484789" lon="8.725033879386507"><ele>86.5</ele><time>2026-04-18T14:24:03Z</time></trkpt><trkpt lat="39.26707868277996" lon="8.725329981740934"><ele>86.0</ele><time>2026-04-18T14:24:04Z</time></trkpt><trkpt lat="39.2670324615144" lon="8.725625800160655"><ele>86.0</ele><time>2026-04-18T14:24:05Z</time></trkpt><trkpt lat="39.26698576501039" lon="8.725924659783534"><ele>86.0</ele><time>2026-04-18T14:24:06Z</time></trkpt><trkpt lat="39.26695395815348" lon="8.726222181596254"><ele>85.5</ele><time>2026-04-18T14:24:07Z</time></trkpt><trkpt lat="39.266905917768014" lon="8.726515457151256"><ele>85.0</ele><time>2026-04-18T14:24:08Z</time></trkpt><trkpt lat="39.26686277363353" lon="8.726807987914977"><ele>84.0</ele><time>2026-04-18T14:24:09Z</time></trkpt><trkpt lat="39.266818447461" lon="8.727101137126583"><ele>83.0</ele><time>2026-04-18T14:24:10Z</time></trkpt><trkpt lat="39.26675717380798" lon="8.727389222260381"><ele>83.0</ele><time>2026-04-18T14:24:11Z</time></trkpt><trkpt lat="39.26671091906624" lon="8.727685998197789"><ele>83.0</ele><time>2026-04-18T14:24:12Z</time></trkpt><trkpt lat="39.26666501808317" lon="8.727982152830759"><ele>82.0</ele><time>2026-04-18T14:24:13Z</time></trkpt><trkpt lat="39.266618514894645" lon="8.728279531600737"><ele>81.0</ele><time>2026-04-18T14:24:14Z</time></trkpt><trkpt lat="39.26657168157615" lon="8.728577591445516"><ele>81.0</ele><time>2026-04-18T14:24:15Z</time></trkpt><trkpt lat="39.26652481034966" lon="8.72887665073373"><ele>81.0</ele><time>2026-04-18T14:24:16Z</time></trkpt><trkpt lat="39.26647777119293" lon="8.729176929111865"><ele>82.0</ele><time>2026-04-18T14:24:17Z</time></trkpt><trkpt lat="39.26643052691075" lon="8.729478516948095"><ele>83.0</ele><time>2026-04-18T14:24:18Z</time></trkpt><trkpt lat="39.2663833769998" lon="8.72977950235667"><ele>83.0</ele><time>2026-04-18T14:24:19Z</time></trkpt><trkpt lat="39.26635226963296" lon="8.730083796010845"><ele>83.0</ele><time>2026-04-18T14:24:20Z</time></trkpt><trkpt lat="39.26628944631452" lon="8.730378598346137"><ele>84.0</ele><time>2026-04-18T14:24:21Z</time></trkpt><trkpt lat="39.26625833012164" lon="8.730680383966046"><ele>85.0</ele><time>2026-04-18T14:24:22Z</time></trkpt><trkpt lat="39.266195953494304" lon="8.730971857875504"><ele>86.5</ele><time>2026-04-18T14:24:23Z</time></trkpt><trkpt lat="39.26616354136804" lon="8.731264552722383"><ele>88.0</ele><time>2026-04-18T14:24:24Z</time></trkpt><trkpt lat="39.266119649606864" lon="8.731557203744629"><ele>88.0</ele><time>2026-04-18T14:24:25Z</time></trkpt><trkpt lat="39.26606152112901" lon="8.731846784801123"><ele>88.0</ele><time>2026-04-18T14:24:26Z</time></trkpt><trkpt lat="39.266018425881455" lon="8.732140802617337"><ele>90.0</ele><time>2026-04-18T14:24:27Z</time></trkpt><trkpt lat="39.265976026118764" lon="8.732430075530825"><ele>92.0</ele><time>2026-04-18T14:24:28Z</time></trkpt><trkpt lat="39.26593280598717" lon="8.732724945251315"><ele>92.5</ele><time>2026-04-18T14:24:29Z</time></trkpt><trkpt lat="39.26588816666013" lon="8.733017160221085"><ele>93.0</ele><time>2026-04-18T14:24:30Z</time></trkpt><trkpt lat="39.26584197028071" lon="8.733314361455882"><ele>92.0</ele><time>2026-04-18T14:24:31Z</time></trkpt><trkpt lat="39.265795913743226" lon="8.733607297273267"><ele>91.0</ele><time>2026-04-18T14:24:32Z</time></trkpt><trkpt lat="39.26574882370473" lon="8.733906802479321"><ele>91.0</ele><time>2026-04-18T14:24:33Z</time></trkpt><trkpt lat="39.26570144061457" lon="8.734208165107924"><ele>91.0</ele><time>2026-04-18T14:24:34Z</time></trkpt><trkpt lat="39.26565328646901" lon="8.734514431746033"><ele>90.5</ele><time>2026-04-18T14:24:35Z</time></trkpt><trkpt lat="39.26562155423616" lon="8.73483276802948"><ele>90.0</ele><time>2026-04-18T14:24:36Z</time></trkpt><trkpt lat="39.26556538909295" lon="8.735143189913053"><ele>88.5</ele><time>2026-04-18T14:24:37Z</time></trkpt><trkpt lat="39.265514351841794" lon="8.735462103018518"><ele>87.0</ele><time>2026-04-18T14:24:38Z</time></trkpt><trkpt lat="39.265461300954655" lon="8.735782129932067"><ele>87.0</ele><time>2026-04-18T14:24:39Z</time></trkpt><trkpt lat="39.26540715365894" lon="8.73610724026356"><ele>87.0</ele><time>2026-04-18T14:24:40Z</time></trkpt><trkpt lat="39.26536109186647" lon="8.736433613480838"><ele>87.0</ele><time>2026-04-18T14:24:41Z</time></trkpt><trkpt lat="39.2653165735242" lon="8.73676102346324"><ele>87.0</ele><time>2026-04-18T14:24:42Z</time></trkpt><trkpt lat="39.26526452295571" lon="8.737094415125847"><ele>86.0</ele><time>2026-04-18T14:24:43Z</time></trkpt><trkpt lat="39.26520961830923" lon="8.737430273891835"><ele>85.0</ele><time>2026-04-18T14:24:44Z</time></trkpt><trkpt lat="39.26515235291278" lon="8.737767949837579"><ele>83.5</ele><time>2026-04-18T14:24:45Z</time></trkpt><trkpt lat="39.26509782866721" lon="8.73810773201648"><ele>82.0</ele><time>2026-04-18T14:24:46Z</time></trkpt><trkpt lat="39.26504243000978" lon="8.738446140178265"><ele>82.0</ele><time>2026-04-18T14:24:47Z</time></trkpt><trkpt lat="39.26498862855062" lon="8.738783190012427"><ele>82.0</ele><time>2026-04-18T14:24:48Z</time></trkpt><trkpt lat="39.264936481924025" lon="8.739123326694472"><ele>84.0</ele><time>2026-04-18T14:24:49Z</time></trkpt><trkpt lat="39.26488828412968" lon="8.739443836197847"><ele>86.0</ele><time>2026-04-18T14:24:50Z</time></trkpt><trkpt lat="39.264837026221144" lon="8.739748198148504"><ele>86.0</ele><time>2026-04-18T14:24:51Z</time></trkpt><trkpt lat="39.2647896292243" lon="8.740047474129483"><ele>86.0</ele><time>2026-04-18T14:24:52Z</time></trkpt><trkpt lat="39.264739798514476" lon="8.74034088886113"><ele>88.5</ele><time>2026-04-18T14:24:53Z</time></trkpt><trkpt lat="39.26469681111681" lon="8.740637300814607"><ele>91.0</ele><time>2026-04-18T14:24:54Z</time></trkpt><trkpt lat="39.26466209014572" lon="8.740937214468984"><ele>92.5</ele><time>2026-04-18T14:24:55Z</time></trkpt><trkpt lat="39.26464828636704" lon="8.741236887043419"><ele>94.0</ele><time>2026-04-18T14:24:56Z</time></trkpt><trkpt lat="39.26464982842482" lon="8.741534310222786"><ele>94.0</ele><time>2026-04-18T14:24:57Z</time></trkpt><trkpt lat="39.264653779133184" lon="8.741839904483891"><ele>94.0</ele><time>2026-04-18T14:24:58Z</time></trkpt><trkpt lat="39.26465823693163" lon="8.742136509219371"><ele>93.0</ele><time>2026-04-18T14:24:59Z</time></trkpt><trkpt lat="39.264665401881146" lon="8.742428350047785"><ele>92.0</ele><time>2026-04-18T14:25:00Z</time></trkpt><trkpt lat="39.2646713886512" lon="8.742717651368617"><ele>93.33333333333334</ele><time>2026-04-18T14:25:01Z</time></trkpt><trkpt lat="39.264678253408526" lon="8.743001765913073"><ele>94.66666666666667</ele><time>2026-04-18T14:25:02Z</time></trkpt><trkpt lat="39.26468767094172" lon="8.74327756663388"><ele>96.0</ele><time>2026-04-18T14:25:03Z</time></trkpt><trkpt lat="39.26469765593912" lon="8.743547279880735"><ele>98.33333333333334</ele><time>2026-04-18T14:25:04Z</time></trkpt><trkpt lat="39.26470456991973" lon="8.743819884787781"><ele>100.66666666666667</ele><time>2026-04-18T14:25:05Z</time></trkpt><trkpt lat="39.26471052468963" lon="8.744091803089455"><ele>103.0</ele><time>2026-04-18T14:25:06Z</time></trkpt><trkpt lat="39.26472495242725" lon="8.744374085959642"><ele>103.5</ele><time>2026-04-18T14:25:07Z</time></trkpt><trkpt lat="39.26473908576287" lon="8.744664483408569"><ele>104.0</ele><time>2026-04-18T14:25:08Z</time></trkpt><trkpt lat="39.26474816200779" lon="8.74496166753133"><ele>107.0</ele><time>2026-04-18T14:25:09Z</time></trkpt><trkpt lat="39.26475223864382" lon="8.745262383024425"><ele>110.0</ele><time>2026-04-18T14:25:10Z</time></trkpt><trkpt lat="39.26475709861035" lon="8.745563273020174"><ele>110.0</ele><time>2026-04-18T14:25:11Z</time></trkpt><trkpt lat="39.264770254464544" lon="8.745866661700486"><ele>110.0</ele><time>2026-04-18T14:25:12Z</time></trkpt><trkpt lat="39.26479288348572" lon="8.746169292800746"><ele>106.5</ele><time>2026-04-18T14:25:13Z</time></trkpt><trkpt lat="39.264818583086935" lon="8.746474956571692"><ele>103.0</ele><time>2026-04-18T14:25:14Z</time></trkpt><trkpt lat="39.26484589061136" lon="8.746773153670572"><ele>104.0</ele><time>2026-04-18T14:25:15Z</time></trkpt><trkpt lat="39.26487373807562" lon="8.747069674394165"><ele>105.0</ele><time>2026-04-18T14:25:16Z</time></trkpt><trkpt lat="39.26490349796754" lon="8.747362421894406"><ele>105.0</ele><time>2026-04-18T14:25:17Z</time></trkpt><trkpt lat="39.26493856132062" lon="8.747649853570424"><ele>105.0</ele><time>2026-04-18T14:25:18Z</time></trkpt><trkpt lat="39.26497947342053" lon="8.747939155494954"><ele>105.5</ele><time>2026-04-18T14:25:19Z</time></trkpt><trkpt lat="39.26502325118408" lon="8.748228738995946"><ele>106.0</ele><time>2026-04-18T14:25:20Z</time></trkpt><trkpt lat="39.26507202477217" lon="8.748522167433185"><ele>104.5</ele><time>2026-04-18T14:25:21Z</time></trkpt><trkpt lat="39.26511885830363" lon="8.748820755913046"><ele>103.0</ele><time>2026-04-18T14:25:22Z</time></trkpt><trkpt lat="39.26516439768335" lon="8.749122642873838"><ele>102.5</ele><time>2026-04-18T14:25:23Z</time></trkpt><trkpt lat="39.265211555668984" lon="8.749427464721727"><ele>102.0</ele><time>2026-04-18T14:25:24Z</time></trkpt><trkpt lat="39.26525999407358" lon="8.749736476298327"><ele>102.0</ele><time>2026-04-18T14:25:25Z</time></trkpt><trkpt lat="39.265308513125504" lon="8.750047213456236"><ele>102.0</ele><time>2026-04-18T14:25:26Z</time></trkpt><trkpt lat="39.265357539796774" lon="8.750359781238492"><ele>102.5</ele><time>2026-04-18T14:25:27Z</time></trkpt><trkpt lat="39.26540793139085" lon="8.750677416815362"><ele>103.0</ele><time>2026-04-18T14:25:28Z</time></trkpt><trkpt lat="39.26545910655515" lon="8.75099383625755"><ele>103.0</ele><time>2026-04-18T14:25:29Z</time></trkpt><trkpt lat="39.26550983345499" lon="8.751308825541043"><ele>103.0</ele><time>2026-04-18T14:25:30Z</time></trkpt><trkpt lat="39.26556031583273" lon="8.751620228829829"><ele>103.5</ele><time>2026-04-18T14:25:31Z</time></trkpt><trkpt lat="39.265609218173104" lon="8.75193117868854"><ele>104.0</ele><time>2026-04-18T14:25:32Z</time></trkpt><trkpt lat="39.265658042609225" lon="8.752243372413561"><ele>104.0</ele><time>2026-04-18T14:25:33Z</time></trkpt><trkpt lat="39.265707315693945" lon="8.752555541379976"><ele>104.0</ele><time>2026-04-18T14:25:34Z</time></trkpt><trkpt lat="39.26575281484897" lon="8.75285336050868"><ele>103.5</ele><time>2026-04-18T14:25:35Z</time></trkpt><trkpt lat="39.26579705955147" lon="8.753151521324003"><ele>103.0</ele><time>2026-04-18T14:25:36Z</time></trkpt><trkpt lat="39.26583673107488" lon="8.75345135697444"><ele>102.0</ele><time>2026-04-18T14:25:37Z</time></trkpt><trkpt lat="39.26587311691757" lon="8.753746270356206"><ele>101.0</ele><time>2026-04-18T14:25:38Z</time></trkpt><trkpt lat="39.26591635054812" lon="8.754039564940568"><ele>101.0</ele><time>2026-04-18T14:25:39Z</time></trkpt><trkpt lat="39.2659659962153" lon="8.754332784736635"><ele>101.0</ele><time>2026-04-18T14:25:40Z</time></trkpt><trkpt lat="39.26601578002239" lon="8.754622770333057"><ele>99.5</ele><time>2026-04-18T14:25:41Z</time></trkpt><trkpt lat="39.26606284626642" lon="8.754913066947754"><ele>98.0</ele><time>2026-04-18T14:25:42Z</time></trkpt><trkpt lat="39.2661063679957" lon="8.755207716630093"><ele>96.5</ele><time>2026-04-18T14:25:43Z</time></trkpt><trkpt lat="39.26615094991811" lon="8.755504458450446"><ele>95.0</ele><time>2026-04-18T14:25:44Z</time></trkpt><trkpt lat="39.26619671696432" lon="8.755805699076333"><ele>96.0</ele><time>2026-04-18T14:25:45Z</time></trkpt><trkpt lat="39.26624627511305" lon="8.756109607240491"><ele>97.0</ele><time>2026-04-18T14:25:46Z</time></trkpt><trkpt lat="39.26628005018085" lon="8.756420868529663"><ele>97.0</ele><time>2026-04-18T14:25:47Z</time></trkpt><trkpt lat="39.26632828255862" lon="8.75673087966424"><ele>97.0</ele><time>2026-04-18T14:25:48Z</time></trkpt><trkpt lat="39.26637582397067" lon="8.75703644972195"><ele>96.5</ele><time>2026-04-18T14:25:49Z</time></trkpt><trkpt lat="39.266423519601155" lon="8.757343010900325"><ele>96.0</ele><time>2026-04-18T14:25:50Z</time></trkpt><trkpt lat="39.26648548288033" lon="8.757643970199565"><ele>94.5</ele><time>2026-04-18T14:25:51Z</time></trkpt><trkpt lat="39.26653196191011" lon="8.757948414345856"><ele>93.0</ele><time>2026-04-18T14:25:52Z</time></trkpt><trkpt lat="39.266565695797034" lon="8.758256841053663"><ele>93.5</ele><time>2026-04-18T14:25:53Z</time></trkpt><trkpt lat="39.26661162437764" lon="8.758560654753273"><ele>94.0</ele><time>2026-04-18T14:25:54Z</time></trkpt><trkpt lat="39.26667131541868" lon="8.758855961292149"><ele>94.0</ele><time>2026-04-18T14:25:55Z</time></trkpt><trkpt lat="39.2666939856621" lon="8.759163446622422"><ele>94.0</ele><time>2026-04-18T14:25:56Z</time></trkpt><trkpt lat="39.26672585325881" lon="8.759465966841525"><ele>93.5</ele><time>2026-04-18T14:25:57Z</time></trkpt><trkpt lat="39.266748211633406" lon="8.759771491521565"><ele>93.0</ele><time>2026-04-18T14:25:58Z</time></trkpt><trkpt lat="39.26676441866507" lon="8.76007416481851"><ele>92.0</ele><time>2026-04-18T14:25:59Z</time></trkpt><trkpt lat="39.26677634639947" lon="8.760372849464662"><ele>91.0</ele><time>2026-04-18T14:26:00Z</time></trkpt><trkpt lat="39.26680299950261" lon="8.760674141231052"><ele>91.0</ele><time>2026-04-18T14:26:01Z</time></trkpt><trkpt lat="39.266807852402046" lon="8.76097907203695"><ele>91.0</ele><time>2026-04-18T14:26:02Z</time></trkpt><trkpt lat="39.26681983148281" lon="8.761285406156048"><ele>90.5</ele><time>2026-04-18T14:26:03Z</time></trkpt><trkpt lat="39.26683272542891" lon="8.76159791317545"><ele>90.0</ele><time>2026-04-18T14:26:04Z</time></trkpt><trkpt lat="39.26684661850537" lon="8.761910922542462"><ele>90.0</ele><time>2026-04-18T14:26:05Z</time></trkpt><trkpt lat="39.26685903069474" lon="8.762223064929003"><ele>90.0</ele><time>2026-04-18T14:26:06Z</time></trkpt><trkpt lat="39.26687019611589" lon="8.762532386729667"><ele>90.0</ele><time>2026-04-18T14:26:07Z</time></trkpt><trkpt lat="39.266880569857086" lon="8.762840422102292"><ele>90.0</ele><time>2026-04-18T14:26:08Z</time></trkpt><trkpt lat="39.266892606951544" lon="8.763151372795148"><ele>90.0</ele><time>2026-04-18T14:26:09Z</time></trkpt><trkpt lat="39.26690533955712" lon="8.763460093679793"><ele>90.0</ele><time>2026-04-18T14:26:10Z</time></trkpt><trkpt lat="39.2669163438285" lon="8.763771743974178"><ele>89.0</ele><time>2026-04-18T14:26:11Z</time></trkpt><trkpt lat="39.266927578225854" lon="8.764083365063271"><ele>88.0</ele><time>2026-04-18T14:26:12Z</time></trkpt><trkpt lat="39.26692427934298" lon="8.764397709698656"><ele>87.0</ele><time>2026-04-18T14:26:13Z</time></trkpt><trkpt lat="39.26693541176532" lon="8.764711405489809"><ele>86.0</ele><time>2026-04-18T14:26:14Z</time></trkpt><trkpt lat="39.266946704050504" lon="8.76502960592261"><ele>85.5</ele><time>2026-04-18T14:26:15Z</time></trkpt><trkpt lat="39.26695797499077" lon="8.765347204975955"><ele>85.0</ele><time>2026-04-18T14:26:16Z</time></trkpt><trkpt lat="39.26696888819677" lon="8.765654723675873"><ele>85.0</ele><time>2026-04-18T14:26:17Z</time></trkpt><trkpt lat="39.266979496854326" lon="8.765953660513714"><ele>85.0</ele><time>2026-04-18T14:26:18Z</time></trkpt><trkpt lat="39.26699046143982" lon="8.766250007807614"><ele>85.0</ele><time>2026-04-18T14:26:19Z</time></trkpt><trkpt lat="39.26700148490047" lon="8.766547136523169"><ele>85.0</ele><time>2026-04-18T14:26:20Z</time></trkpt><trkpt lat="39.26701238601616" lon="8.76684096764892"><ele>85.5</ele><time>2026-04-18T14:26:21Z</time></trkpt><trkpt lat="39.26702328754379" lon="8.767134808250582"><ele>86.0</ele><time>2026-04-18T14:26:22Z</time></trkpt><trkpt lat="39.26703442103177" lon="8.7674348926268"><ele>86.5</ele><time>2026-04-18T14:26:23Z</time></trkpt><trkpt lat="39.267045653884374" lon="8.767737655193978"><ele>87.0</ele><time>2026-04-18T14:26:24Z</time></trkpt><trkpt lat="39.26708285093836" lon="8.768042970114744"><ele>87.0</ele><time>2026-04-18T14:26:25Z</time></trkpt><trkpt lat="39.26709389959289" lon="8.768349379400098"><ele>87.0</ele><time>2026-04-18T14:26:26Z</time></trkpt><trkpt lat="39.267105156246416" lon="8.768652521373165"><ele>87.0</ele><time>2026-04-18T14:26:27Z</time></trkpt><trkpt lat="39.26711538890171" lon="8.76896235717777"><ele>87.0</ele><time>2026-04-18T14:26:28Z</time></trkpt><trkpt lat="39.26712651323642" lon="8.769271126317534"><ele>86.5</ele><time>2026-04-18T14:26:29Z</time></trkpt><trkpt lat="39.267137585606264" lon="8.769581729083864"><ele>86.0</ele><time>2026-04-18T14:26:30Z</time></trkpt><trkpt lat="39.26714586473661" lon="8.769894542562316"><ele>86.0</ele><time>2026-04-18T14:26:31Z</time></trkpt><trkpt lat="39.26715470035683" lon="8.770211635993803"><ele>86.0</ele><time>2026-04-18T14:26:32Z</time></trkpt><trkpt lat="39.26716336518512" lon="8.770524556778001"><ele>86.0</ele><time>2026-04-18T14:26:33Z</time></trkpt><trkpt lat="39.267176038399114" lon="8.770837687060602"><ele>86.0</ele><time>2026-04-18T14:26:34Z</time></trkpt><trkpt lat="39.267188930959406" lon="8.77114999208178"><ele>87.0</ele><time>2026-04-18T14:26:35Z</time></trkpt><trkpt lat="39.267203269705554" lon="8.771457698194848"><ele>88.0</ele><time>2026-04-18T14:26:36Z</time></trkpt><trkpt lat="39.26721534983308" lon="8.771756898580376"><ele>88.5</ele><time>2026-04-18T14:26:37Z</time></trkpt><trkpt lat="39.267225523677844" lon="8.772057155907563"><ele>89.0</ele><time>2026-04-18T14:26:38Z</time></trkpt><trkpt lat="39.267237971971554" lon="8.772356169637746"><ele>89.0</ele><time>2026-04-18T14:26:39Z</time></trkpt><trkpt lat="39.267251063178676" lon="8.772652627277337"><ele>89.0</ele><time>2026-04-18T14:26:40Z</time></trkpt><trkpt lat="39.267262083136856" lon="8.7729489475511"><ele>87.5</ele><time>2026-04-18T14:26:41Z</time></trkpt><trkpt lat="39.26727313940757" lon="8.77324485487361"><ele>86.0</ele><time>2026-04-18T14:26:42Z</time></trkpt><trkpt lat="39.26728200225355" lon="8.773544999275359"><ele>85.0</ele><time>2026-04-18T14:26:43Z</time></trkpt><trkpt lat="39.267292736360915" lon="8.773849426816652"><ele>84.0</ele><time>2026-04-18T14:26:44Z</time></trkpt><trkpt lat="39.26730439304482" lon="8.774153175673117"><ele>84.5</ele><time>2026-04-18T14:26:45Z</time></trkpt><trkpt lat="39.267317035461474" lon="8.774456887770096"><ele>85.0</ele><time>2026-04-18T14:26:46Z</time></trkpt><trkpt lat="39.267328317894155" lon="8.774760574905653"><ele>85.0</ele><time>2026-04-18T14:26:47Z</time></trkpt><trkpt lat="39.26733861962302" lon="8.775062901999334"><ele>85.0</ele><time>2026-04-18T14:26:48Z</time></trkpt><trkpt lat="39.26735001926958" lon="8.775368522669467"><ele>85.0</ele><time>2026-04-18T14:26:49Z</time></trkpt><trkpt lat="39.26736162156559" lon="8.775673155604904"><ele>85.0</ele><time>2026-04-18T14:26:50Z</time></trkpt><trkpt lat="39.267374724951566" lon="8.775976594283879"><ele>85.5</ele><time>2026-04-18T14:26:51Z</time></trkpt><trkpt lat="39.26738886414863" lon="8.77628335317747"><ele>86.0</ele><time>2026-04-18T14:26:52Z</time></trkpt><trkpt lat="39.267401869388436" lon="8.77659111310382"><ele>86.5</ele><time>2026-04-18T14:26:53Z</time></trkpt><trkpt lat="39.26741408076935" lon="8.776900436901073"><ele>87.0</ele><time>2026-04-18T14:26:54Z</time></trkpt><trkpt lat="39.26742477715927" lon="8.777214126346378"><ele>87.0</ele><time>2026-04-18T14:26:55Z</time></trkpt><trkpt lat="39.267437125710124" lon="8.777524334331158"><ele>87.0</ele><time>2026-04-18T14:26:56Z</time></trkpt><trkpt lat="39.2674477673617" lon="8.777838017896148"><ele>86.0</ele><time>2026-04-18T14:26:57Z</time></trkpt><trkpt lat="39.267459319088175" lon="8.77814693329501"><ele>85.0</ele><time>2026-04-18T14:26:58Z</time></trkpt><trkpt lat="39.26746797282784" lon="8.778452016247616"><ele>84.0</ele><time>2026-04-18T14:26:59Z</time></trkpt><trkpt lat="39.267479557437404" lon="8.778762578837208"><ele>83.0</ele><time>2026-04-18T14:27:00Z</time></trkpt><trkpt lat="39.26748859043266" lon="8.779070347041754"><ele>82.5</ele><time>2026-04-18T14:27:01Z</time></trkpt><trkpt lat="39.26749893765798" lon="8.779377225449563"><ele>82.0</ele><time>2026-04-18T14:27:02Z</time></trkpt><trkpt lat="39.26751189144559" lon="8.779685779854535"><ele>82.0</ele><time>2026-04-18T14:27:03Z</time></trkpt><trkpt lat="39.267524570051776" lon="8.779994088767303"><ele>82.0</ele><time>2026-04-18T14:27:04Z</time></trkpt><trkpt lat="39.26753532141416" lon="8.78030341412096"><ele>81.5</ele><time>2026-04-18T14:27:05Z</time></trkpt><trkpt lat="39.26754774679368" lon="8.780611654568052"><ele>81.0</ele><time>2026-04-18T14:27:06Z</time></trkpt><trkpt lat="39.26756101547155" lon="8.780924789068953"><ele>82.0</ele><time>2026-04-18T14:27:07Z</time></trkpt><trkpt lat="39.26757410399474" lon="8.78124109354576"><ele>83.0</ele><time>2026-04-18T14:27:08Z</time></trkpt><trkpt lat="39.26758458593538" lon="8.781550754771251"><ele>84.5</ele><time>2026-04-18T14:27:09Z</time></trkpt><trkpt lat="39.26759513284425" lon="8.781860369687834"><ele>86.0</ele><time>2026-04-18T14:27:10Z</time></trkpt><trkpt lat="39.2676064484953" lon="8.782169549653215"><ele>86.0</ele><time>2026-04-18T14:27:11Z</time></trkpt><trkpt lat="39.26761867278852" lon="8.782475397308193"><ele>86.0</ele><time>2026-04-18T14:27:12Z</time></trkpt><trkpt lat="39.26763073948684" lon="8.782777793539028"><ele>86.5</ele><time>2026-04-18T14:27:13Z</time></trkpt><trkpt lat="39.267638800248584" lon="8.783079761943442"><ele>87.0</ele><time>2026-04-18T14:27:14Z</time></trkpt><trkpt lat="39.2676535338633" lon="8.783388130679587"><ele>88.5</ele><time>2026-04-18T14:27:15Z</time></trkpt><trkpt lat="39.267664100109094" lon="8.783694085213247"><ele>90.0</ele><time>2026-04-18T14:27:16Z</time></trkpt><trkpt lat="39.26767494547372" lon="8.784003226687725"><ele>90.0</ele><time>2026-04-18T14:27:17Z</time></trkpt><trkpt lat="39.26768541536298" lon="8.784312994304877"><ele>90.0</ele><time>2026-04-18T14:27:18Z</time></trkpt><trkpt lat="39.267695919606396" lon="8.78462749075474"><ele>91.0</ele><time>2026-04-18T14:27:19Z</time></trkpt><trkpt lat="39.267707228689815" lon="8.784940937655291"><ele>92.0</ele><time>2026-04-18T14:27:20Z</time></trkpt><trkpt lat="39.26772148619152" lon="8.785257260364155"><ele>92.0</ele><time>2026-04-18T14:27:21Z</time></trkpt><trkpt lat="39.26773302288181" lon="8.785570964169032"><ele>92.0</ele><time>2026-04-18T14:27:22Z</time></trkpt><trkpt lat="39.26774252796948" lon="8.785883566344582"><ele>90.5</ele><time>2026-04-18T14:27:23Z</time></trkpt><trkpt lat="39.26775458431334" lon="8.786198109325108"><ele>89.0</ele><time>2026-04-18T14:27:24Z</time></trkpt><trkpt lat="39.26776784148891" lon="8.786512137677654"><ele>89.0</ele><time>2026-04-18T14:27:25Z</time></trkpt><trkpt lat="39.267778095409525" lon="8.786825777827737"><ele>89.0</ele><time>2026-04-18T14:27:26Z</time></trkpt><trkpt lat="39.267788871281994" lon="8.787129115507161"><ele>88.0</ele><time>2026-04-18T14:27:27Z</time></trkpt><trkpt lat="39.267798234163735" lon="8.787428891528506"><ele>87.0</ele><time>2026-04-18T14:27:28Z</time></trkpt><trkpt lat="39.267809056885355" lon="8.787726526107564"><ele>86.0</ele><time>2026-04-18T14:27:29Z</time></trkpt><trkpt lat="39.26780208553851" lon="8.788025398470028"><ele>85.0</ele><time>2026-04-18T14:27:30Z</time></trkpt><trkpt lat="39.26781331232415" lon="8.788325238439803"><ele>85.0</ele><time>2026-04-18T14:27:31Z</time></trkpt><trkpt lat="39.267824455110144" lon="8.788622834688695"><ele>85.0</ele><time>2026-04-18T14:27:32Z</time></trkpt><trkpt lat="39.26783571121254" lon="8.788923457437095"><ele>85.0</ele><time>2026-04-18T14:27:33Z</time></trkpt><trkpt lat="39.267847055537445" lon="8.789221127802925"><ele>85.0</ele><time>2026-04-18T14:27:34Z</time></trkpt><trkpt lat="39.26785863207315" lon="8.78952023191557"><ele>87.0</ele><time>2026-04-18T14:27:35Z</time></trkpt><trkpt lat="39.26787041299163" lon="8.78982461651719"><ele>89.0</ele><time>2026-04-18T14:27:36Z</time></trkpt><trkpt lat="39.267881681796936" lon="8.790115769821167"><ele>90.5</ele><time>2026-04-18T14:27:37Z</time></trkpt><trkpt lat="39.26789354007161" lon="8.790422153480923"><ele>92.0</ele><time>2026-04-18T14:27:38Z</time></trkpt><trkpt lat="39.26790523994641" lon="8.790724444613836"><ele>92.5</ele><time>2026-04-18T14:27:39Z</time></trkpt><trkpt lat="39.26791683047731" lon="8.791031072387023"><ele>93.0</ele><time>2026-04-18T14:27:40Z</time></trkpt><trkpt lat="39.267928218595955" lon="8.791340772828065"><ele>93.0</ele><time>2026-04-18T14:27:41Z</time></trkpt><trkpt lat="39.26793967409154" lon="8.791652305579134"><ele>93.0</ele><time>2026-04-18T14:27:42Z</time></trkpt><trkpt lat="39.26795125927633" lon="8.791965477173159"><ele>91.5</ele><time>2026-04-18T14:27:43Z</time></trkpt><trkpt lat="39.26796310792975" lon="8.79228092966487"><ele>90.0</ele><time>2026-04-18T14:27:44Z</time></trkpt><trkpt lat="39.267974882346294" lon="8.792594405686168"><ele>90.0</ele><time>2026-04-18T14:27:45Z</time></trkpt><trkpt lat="39.267986828364414" lon="8.792909568552005"><ele>90.0</ele><time>2026-04-18T14:27:46Z</time></trkpt><trkpt lat="39.268014015285694" lon="8.793220446653464"><ele>90.5</ele><time>2026-04-18T14:27:47Z</time></trkpt><trkpt lat="39.26801030575851" lon="8.793531663561303"><ele>91.0</ele><time>2026-04-18T14:27:48Z</time></trkpt><trkpt lat="39.26802177031236" lon="8.793843386147044"><ele>91.0</ele><time>2026-04-18T14:27:49Z</time></trkpt><trkpt lat="39.2680334487012" lon="8.794160922892267"><ele>91.0</ele><time>2026-04-18T14:27:50Z</time></trkpt><trkpt lat="39.268045236775116" lon="8.794482220250522"><ele>92.0</ele><time>2026-04-18T14:27:51Z</time></trkpt><trkpt lat="39.268056977570495" lon="8.794804738575966"><ele>93.0</ele><time>2026-04-18T14:27:52Z</time></trkpt><trkpt lat="39.268068386297465" lon="8.795118134933245"><ele>94.0</ele><time>2026-04-18T14:27:53Z</time></trkpt><trkpt lat="39.268079935254" lon="8.795435383358862"><ele>95.0</ele><time>2026-04-18T14:27:54Z</time></trkpt><trkpt lat="39.268091682586025" lon="8.79574841917684"><ele>94.0</ele><time>2026-04-18T14:27:55Z</time></trkpt><trkpt lat="39.268103792163316" lon="8.796065925400072"><ele>93.0</ele><time>2026-04-18T14:27:56Z</time></trkpt><trkpt lat="39.26811579117965" lon="8.796380532795686"><ele>92.5</ele><time>2026-04-18T14:27:57Z</time></trkpt><trkpt lat="39.26812778235421" lon="8.79669493453789"><ele>92.0</ele><time>2026-04-18T14:27:58Z</time></trkpt><trkpt lat="39.268154843085036" lon="8.797007807307091"><ele>92.0</ele><time>2026-04-18T14:27:59Z</time></trkpt><trkpt lat="39.26816492155305" lon="8.797321821692073"><ele>92.0</ele><time>2026-04-18T14:28:00Z</time></trkpt><trkpt lat="39.26817464280736" lon="8.797632314706695"><ele>92.0</ele><time>2026-04-18T14:28:01Z</time></trkpt><trkpt lat="39.26818636850303" lon="8.797944367345861"><ele>92.0</ele><time>2026-04-18T14:28:02Z</time></trkpt><trkpt lat="39.26819709322121" lon="8.798257231399846"><ele>91.0</ele><time>2026-04-18T14:28:03Z</time></trkpt><trkpt lat="39.26819910830516" lon="8.798565060324103"><ele>90.0</ele><time>2026-04-18T14:28:04Z</time></trkpt><trkpt lat="39.26821087166417" lon="8.79887531499775"><ele>90.0</ele><time>2026-04-18T14:28:05Z</time></trkpt><trkpt lat="39.268222550692265" lon="8.799184370463761"><ele>90.0</ele><time>2026-04-18T14:28:06Z</time></trkpt><trkpt lat="39.26823433019588" lon="8.799496084696353"><ele>90.0</ele><time>2026-04-18T14:28:07Z</time></trkpt><trkpt lat="39.26824602745094" lon="8.799805622483309"><ele>90.0</ele><time>2026-04-18T14:28:08Z</time></trkpt><trkpt lat="39.2682577150908" lon="8.800114903596468"><ele>91.0</ele><time>2026-04-18T14:28:09Z</time></trkpt><trkpt lat="39.26826939576543" lon="8.80042399213042"><ele>92.0</ele><time>2026-04-18T14:28:10Z</time></trkpt><trkpt lat="39.26829765109507" lon="8.80073252408427"><ele>92.0</ele><time>2026-04-18T14:28:11Z</time></trkpt><trkpt lat="39.26829370433585" lon="8.801041995621077"><ele>92.0</ele><time>2026-04-18T14:28:12Z</time></trkpt><trkpt lat="39.26832330582059" lon="8.801349365467878"><ele>92.0</ele><time>2026-04-18T14:28:13Z</time></trkpt><trkpt lat="39.26833199952844" lon="8.801663194397129"><ele>92.0</ele><time>2026-04-18T14:28:14Z</time></trkpt><trkpt lat="39.26834356947365" lon="8.801970739945888"><ele>92.5</ele><time>2026-04-18T14:28:15Z</time></trkpt><trkpt lat="39.268356460033964" lon="8.80227874935064"><ele>93.0</ele><time>2026-04-18T14:28:16Z</time></trkpt><trkpt lat="39.268366901317215" lon="8.802590009009217"><ele>93.0</ele><time>2026-04-18T14:28:17Z</time></trkpt><trkpt lat="39.26837956218493" lon="8.802900520728793"><ele>93.0</ele><time>2026-04-18T14:28:18Z</time></trkpt><trkpt lat="39.268392082284166" lon="8.803213644736845"><ele>93.0</ele><time>2026-04-18T14:28:19Z</time></trkpt><trkpt lat="39.26840580520538" lon="8.803524547968495"><ele>93.0</ele><time>2026-04-18T14:28:20Z</time></trkpt><trkpt lat="39.26841824395125" lon="8.803837474505734"><ele>93.0</ele><time>2026-04-18T14:28:21Z</time></trkpt><trkpt lat="39.268433090710616" lon="8.804149358673886"><ele>93.0</ele><time>2026-04-18T14:28:22Z</time></trkpt><trkpt lat="39.26844292282335" lon="8.804465394940058"><ele>92.0</ele><time>2026-04-18T14:28:23Z</time></trkpt><trkpt lat="39.26845166359804" lon="8.80478314078118"><ele>91.0</ele><time>2026-04-18T14:28:24Z</time></trkpt><trkpt lat="39.26846083915735" lon="8.805103638415776"><ele>90.0</ele><time>2026-04-18T14:28:25Z</time></trkpt><trkpt lat="39.2684736252798" lon="8.8054225802168"><ele>89.0</ele><time>2026-04-18T14:28:26Z</time></trkpt><trkpt lat="39.268486357238785" lon="8.805742731872629"><ele>89.0</ele><time>2026-04-18T14:28:27Z</time></trkpt><trkpt lat="39.26850023277833" lon="8.806062199973871"><ele>89.0</ele><time>2026-04-18T14:28:28Z</time></trkpt><trkpt lat="39.26851216689775" lon="8.80638222930292"><ele>89.0</ele><time>2026-04-18T14:28:29Z</time></trkpt><trkpt lat="39.2685231276471" lon="8.806702544270818"><ele>89.0</ele><time>2026-04-18T14:28:30Z</time></trkpt><trkpt lat="39.268534538596995" lon="8.807026039200338"><ele>88.0</ele><time>2026-04-18T14:28:31Z</time></trkpt><trkpt lat="39.26854852535324" lon="8.807349272862918"><ele>87.0</ele><time>2026-04-18T14:28:32Z</time></trkpt><trkpt lat="39.2685556398104" lon="8.807652979918082"><ele>86.5</ele><time>2026-04-18T14:28:33Z</time></trkpt><trkpt lat="39.26856044833742" lon="8.807950820734149"><ele>86.0</ele><time>2026-04-18T14:28:34Z</time></trkpt><trkpt lat="39.26856261201049" lon="8.80824354071437"><ele>86.0</ele><time>2026-04-18T14:28:35Z</time></trkpt><trkpt lat="39.26857778645416" lon="8.808541823734659"><ele>86.0</ele><time>2026-04-18T14:28:36Z</time></trkpt><trkpt lat="39.268590703149" lon="8.808819759981736"><ele>86.0</ele><time>2026-04-18T14:28:37Z</time></trkpt><trkpt lat="39.268613768177225" lon="8.80909738054169"><ele>85.66666666666667</ele><time>2026-04-18T14:28:38Z</time></trkpt><trkpt lat="39.268655261465895" lon="8.809366806061261"><ele>85.33333333333333</ele><time>2026-04-18T14:28:39Z</time></trkpt><trkpt lat="39.26872552503116" lon="8.809627265820001"><ele>85.0</ele><time>2026-04-18T14:28:40Z</time></trkpt><trkpt lat="39.268816642240274" lon="8.809884509207258"><ele>85.0</ele><time>2026-04-18T14:28:41Z</time></trkpt><trkpt lat="39.26892641396051" lon="8.81013244809088"><ele>85.0</ele><time>2026-04-18T14:28:42Z</time></trkpt><trkpt lat="39.26905184801642" lon="8.810371181601143"><ele>85.0</ele><time>2026-04-18T14:28:43Z</time></trkpt><trkpt lat="39.269182746814714" lon="8.81061417869941"><ele>85.0</ele><time>2026-04-18T14:28:44Z</time></trkpt><trkpt lat="39.26931336213172" lon="8.810870034756853"><ele>85.0</ele><time>2026-04-18T14:28:45Z</time></trkpt><trkpt lat="39.26943290324391" lon="8.811132011919192"><ele>84.0</ele><time>2026-04-18T14:28:46Z</time></trkpt><trkpt lat="39.269551798470694" lon="8.811398160630155"><ele>83.0</ele><time>2026-04-18T14:28:47Z</time></trkpt><trkpt lat="39.2696754192997" lon="8.81165790370415"><ele>84.0</ele><time>2026-04-18T14:28:48Z</time></trkpt><trkpt lat="39.269801764041844" lon="8.811919062421614"><ele>85.0</ele><time>2026-04-18T14:28:49Z</time></trkpt><trkpt lat="39.269925778986064" lon="8.812178846163132"><ele>85.0</ele><time>2026-04-18T14:28:50Z</time></trkpt><trkpt lat="39.270048975654774" lon="8.812437030318542"><ele>85.0</ele><time>2026-04-18T14:28:51Z</time></trkpt><trkpt lat="39.270170286062516" lon="8.81269046179584"><ele>84.33333333333333</ele><time>2026-04-18T14:28:52Z</time></trkpt><trkpt lat="39.27028615366077" lon="8.812923286437167"><ele>83.66666666666667</ele><time>2026-04-18T14:28:53Z</time></trkpt><trkpt lat="39.27039265684687" lon="8.81314504776874"><ele>83.0</ele><time>2026-04-18T14:28:54Z</time></trkpt><trkpt lat="39.2704897744894" lon="8.81335361062952"><ele>82.66666666666667</ele><time>2026-04-18T14:28:55Z</time></trkpt><trkpt lat="39.27057654943344" lon="8.813534341676961"><ele>82.33333333333333</ele><time>2026-04-18T14:28:56Z</time></trkpt><trkpt lat="39.270655282575895" lon="8.813703744616141"><ele>82.0</ele><time>2026-04-18T14:28:57Z</time></trkpt><trkpt lat="39.270733186942444" lon="8.813865795958227"><ele>82.0</ele><time>2026-04-18T14:28:58Z</time></trkpt><trkpt lat="39.27080554411864" lon="8.814019119754803"><ele>82.0</ele><time>2026-04-18T14:28:59Z</time></trkpt><trkpt lat="39.270870101631395" lon="8.814164478514833"><ele>82.0</ele><time>2026-04-18T14:29:00Z</time></trkpt><trkpt lat="39.270929499974656" lon="8.814303313173777"><ele>82.0</ele><time>2026-04-18T14:29:01Z</time></trkpt><trkpt lat="39.27098131016316" lon="8.814423194811823"><ele>82.16666666666666</ele><time>2026-04-18T14:29:02Z</time></trkpt><trkpt lat="39.27102050089775" lon="8.814524729257094"><ele>82.33333333333333</ele><time>2026-04-18T14:29:03Z</time></trkpt><trkpt lat="39.27104006493064" lon="8.814638530127384"><ele>82.5</ele><time>2026-04-18T14:29:05Z</time></trkpt><trkpt lat="39.27103789052483" lon="8.814761435820055"><ele>82.66666666666667</ele><time>2026-04-18T14:29:10Z</time></trkpt><trkpt lat="39.27104654661151" lon="8.814844413013121"><ele>82.83333333333334</ele><time>2026-04-18T14:29:11Z</time></trkpt><trkpt lat="39.271061865376694" lon="8.814948431136402"><ele>83.0</ele><time>2026-04-18T14:29:12Z</time></trkpt><trkpt lat="39.2710960344043" lon="8.815041927936806"><ele>83.0</ele><time>2026-04-18T14:29:13Z</time></trkpt><trkpt lat="39.271157132826275" lon="8.815098047649862"><ele>83.0</ele><time>2026-04-18T14:29:14Z</time></trkpt><trkpt lat="39.27123122278423" lon="8.815144476285967"><ele>83.0</ele><time>2026-04-18T14:29:15Z</time></trkpt><trkpt lat="39.271321032957005" lon="8.815201733383667"><ele>83.0</ele><time>2026-04-18T14:29:16Z</time></trkpt><trkpt lat="39.271390268349016" lon="8.815285493143094"><ele>83.0</ele><time>2026-04-18T14:29:17Z</time></trkpt><trkpt lat="39.27146673398013" lon="8.815399946272553"><ele>82.5</ele><time>2026-04-18T14:29:18Z</time></trkpt><trkpt lat="39.2715119471367" lon="8.815562954547005"><ele>82.0</ele><time>2026-04-18T14:29:19Z</time></trkpt><trkpt lat="39.27159249263082" lon="8.815709562183805"><ele>81.5</ele><time>2026-04-18T14:29:20Z</time></trkpt><trkpt lat="39.27166593860649" lon="8.81587527703603"><ele>81.0</ele><time>2026-04-18T14:29:21Z</time></trkpt><trkpt lat="39.271758952427625" lon="8.816049108671232"><ele>80.66666666666667</ele><time>2026-04-18T14:29:22Z</time></trkpt><trkpt lat="39.27183593391961" lon="8.816248704440834"><ele>80.33333333333334</ele><time>2026-04-18T14:29:23Z</time></trkpt><trkpt lat="39.271929700093075" lon="8.816447169661323"><ele>80.0</ele><time>2026-04-18T14:29:24Z</time></trkpt><trkpt lat="39.272037738265986" lon="8.81663502664039"><ele>79.33333333333334</ele><time>2026-04-18T14:29:25Z</time></trkpt><trkpt lat="39.2721270867263" lon="8.816833212667438"><ele>78.66666666666667</ele><time>2026-04-18T14:29:26Z</time></trkpt><trkpt lat="39.272212801736316" lon="8.817019762184298"><ele>78.0</ele><time>2026-04-18T14:29:27Z</time></trkpt><trkpt lat="39.272265967549906" lon="8.817222940690867"><ele>76.66666666666667</ele><time>2026-04-18T14:29:28Z</time></trkpt><trkpt lat="39.272315559924905" lon="8.817427119490235"><ele>75.33333333333334</ele><time>2026-04-18T14:29:29Z</time></trkpt><trkpt lat="39.272353885777875" lon="8.817648531742215"><ele>74.0</ele><time>2026-04-18T14:29:30Z</time></trkpt><trkpt lat="39.27238860136058" lon="8.817881009268044"><ele>73.0</ele><time>2026-04-18T14:29:31Z</time></trkpt><trkpt lat="39.27243676462456" lon="8.818119885949516"><ele>72.0</ele><time>2026-04-18T14:29:32Z</time></trkpt><trkpt lat="39.272471987372214" lon="8.818376812082056"><ele>71.0</ele><time>2026-04-18T14:29:33Z</time></trkpt><trkpt lat="39.272495278634416" lon="8.818667800670518"><ele>71.0</ele><time>2026-04-18T14:29:34Z</time></trkpt><trkpt lat="39.27253574712801" lon="8.818967177720511"><ele>71.0</ele><time>2026-04-18T14:29:35Z</time></trkpt><trkpt lat="39.27257861812078" lon="8.819289555212428"><ele>69.0</ele><time>2026-04-18T14:29:36Z</time></trkpt><trkpt lat="39.27262405394291" lon="8.819627541571055"><ele>67.0</ele><time>2026-04-18T14:29:37Z</time></trkpt><trkpt lat="39.27267255923292" lon="8.819981988434975"><ele>66.0</ele><time>2026-04-18T14:29:38Z</time></trkpt><trkpt lat="39.272734115005534" lon="8.820342323645464"><ele>65.0</ele><time>2026-04-18T14:29:39Z</time></trkpt><trkpt lat="39.2727828473415" lon="8.82071380169857"><ele>64.0</ele><time>2026-04-18T14:29:40Z</time></trkpt><trkpt lat="39.27283218555752" lon="8.821081851718802"><ele>63.0</ele><time>2026-04-18T14:29:41Z</time></trkpt><trkpt lat="39.27288275418884" lon="8.821444117358041"><ele>63.0</ele><time>2026-04-18T14:29:42Z</time></trkpt><trkpt lat="39.27293245625716" lon="8.821795056658827"><ele>63.0</ele><time>2026-04-18T14:29:43Z</time></trkpt><trkpt lat="39.27298244851978" lon="8.822145638293092"><ele>63.0</ele><time>2026-04-18T14:29:44Z</time></trkpt><trkpt lat="39.273031940899095" lon="8.822492889948855"><ele>63.0</ele><time>2026-04-18T14:29:45Z</time></trkpt><trkpt lat="39.273077957852564" lon="8.822836982566352"><ele>63.0</ele><time>2026-04-18T14:29:46Z</time></trkpt><trkpt lat="39.27312236127267" lon="8.823180047179335"><ele>63.0</ele><time>2026-04-18T14:29:47Z</time></trkpt><trkpt lat="39.27316935868789" lon="8.823520393550444"><ele>63.5</ele><time>2026-04-18T14:29:48Z</time></trkpt><trkpt lat="39.27321583185107" lon="8.82386574837824"><ele>64.0</ele><time>2026-04-18T14:29:49Z</time></trkpt><trkpt lat="39.27326341753668" lon="8.824206244652457"><ele>64.5</ele><time>2026-04-18T14:29:50Z</time></trkpt><trkpt lat="39.27331091286352" lon="8.82454788818753"><ele>65.0</ele><time>2026-04-18T14:29:51Z</time></trkpt><trkpt lat="39.27335893984043" lon="8.824889713735631"><ele>66.5</ele><time>2026-04-18T14:29:52Z</time></trkpt><trkpt lat="39.27340606721278" lon="8.825232649651719"><ele>68.0</ele><time>2026-04-18T14:29:53Z</time></trkpt><trkpt lat="39.27345152265292" lon="8.825574660810933"><ele>68.0</ele><time>2026-04-18T14:29:54Z</time></trkpt><trkpt lat="39.27349714319078" lon="8.825918562456428"><ele>68.0</ele><time>2026-04-18T14:29:55Z</time></trkpt><trkpt lat="39.2735434291061" lon="8.826263413580252"><ele>66.0</ele><time>2026-04-18T14:29:56Z</time></trkpt><trkpt lat="39.27358801915529" lon="8.82660843945266"><ele>64.0</ele><time>2026-04-18T14:29:57Z</time></trkpt><trkpt lat="39.27363522737442" lon="8.82695624843969"><ele>63.0</ele><time>2026-04-18T14:29:58Z</time></trkpt><trkpt lat="39.27368397493577" lon="8.827307439032934"><ele>62.0</ele><time>2026-04-18T14:29:59Z</time></trkpt><trkpt lat="39.27373398673155" lon="8.827665461642484"><ele>61.5</ele><time>2026-04-18T14:30:00Z</time></trkpt><trkpt lat="39.27377918764906" lon="8.82801929955458"><ele>61.0</ele><time>2026-04-18T14:30:01Z</time></trkpt><trkpt lat="39.273827774605586" lon="8.82837382525893"><ele>60.5</ele><time>2026-04-18T14:30:02Z</time></trkpt><trkpt lat="39.27387767223839" lon="8.828726943249643"><ele>60.0</ele><time>2026-04-18T14:30:03Z</time></trkpt><trkpt lat="39.27392850850478" lon="8.8290790250586"><ele>58.5</ele><time>2026-04-18T14:30:04Z</time></trkpt><trkpt lat="39.27397820411031" lon="8.829427027118035"><ele>57.0</ele><time>2026-04-18T14:30:05Z</time></trkpt><trkpt lat="39.2740263462741" lon="8.829774208887645"><ele>57.0</ele><time>2026-04-18T14:30:06Z</time></trkpt><trkpt lat="39.27407383381417" lon="8.83011369830423"><ele>57.0</ele><time>2026-04-18T14:30:07Z</time></trkpt><trkpt lat="39.27412296356122" lon="8.830446847182863"><ele>56.5</ele><time>2026-04-18T14:30:08Z</time></trkpt><trkpt lat="39.27416788595143" lon="8.830777882889597"><ele>56.0</ele><time>2026-04-18T14:30:09Z</time></trkpt><trkpt lat="39.274213008633566" lon="8.831104393674584"><ele>55.5</ele><time>2026-04-18T14:30:10Z</time></trkpt><trkpt lat="39.274259502466045" lon="8.831435962245717"><ele>55.0</ele><time>2026-04-18T14:30:11Z</time></trkpt><trkpt lat="39.27430532440247" lon="8.831764778015845"><ele>55.0</ele><time>2026-04-18T14:30:12Z</time></trkpt><trkpt lat="39.274352036495294" lon="8.832097520539087"><ele>55.0</ele><time>2026-04-18T14:30:13Z</time></trkpt><trkpt lat="39.274395360252925" lon="8.832427809296316"><ele>55.5</ele><time>2026-04-18T14:30:14Z</time></trkpt><trkpt lat="39.27443998472289" lon="8.832762037910507"><ele>56.0</ele><time>2026-04-18T14:30:15Z</time></trkpt><trkpt lat="39.27446814593879" lon="8.833101950472878"><ele>56.0</ele><time>2026-04-18T14:30:16Z</time></trkpt><trkpt lat="39.27453137269693" lon="8.833436988759084"><ele>56.0</ele><time>2026-04-18T14:30:17Z</time></trkpt><trkpt lat="39.27458174538336" lon="8.83377757486755"><ele>56.5</ele><time>2026-04-18T14:30:18Z</time></trkpt><trkpt lat="39.27463097885142" lon="8.834120458836436"><ele>57.0</ele><time>2026-04-18T14:30:19Z</time></trkpt><trkpt lat="39.27467975009341" lon="8.834452698112328"><ele>57.5</ele><time>2026-04-18T14:30:20Z</time></trkpt><trkpt lat="39.27472236256816" lon="8.834764008263283"><ele>58.0</ele><time>2026-04-18T14:30:21Z</time></trkpt><trkpt lat="39.2747612271254" lon="8.835061747753972"><ele>60.0</ele><time>2026-04-18T14:30:22Z</time></trkpt><trkpt lat="39.274789217468" lon="8.835349323475658"><ele>62.0</ele><time>2026-04-18T14:30:23Z</time></trkpt><trkpt lat="39.2748114582101" lon="8.83563469765892"><ele>64.0</ele><time>2026-04-18T14:30:24Z</time></trkpt><trkpt lat="39.27481885466833" lon="8.835916234610727"><ele>63.666666666666664</ele><time>2026-04-18T14:30:25Z</time></trkpt><trkpt lat="39.274799849391094" lon="8.836197597701796"><ele>63.33333333333333</ele><time>2026-04-18T14:30:26Z</time></trkpt><trkpt lat="39.274760423436085" lon="8.836481195514484"><ele>63.0</ele><time>2026-04-18T14:30:27Z</time></trkpt><trkpt lat="39.27470952009107" lon="8.83676716742362"><ele>58.5</ele><time>2026-04-18T14:30:28Z</time></trkpt><trkpt lat="39.27465508104264" lon="8.837063257555739"><ele>54.0</ele><time>2026-04-18T14:30:29Z</time></trkpt><trkpt lat="39.2746037907994" lon="8.83736640940429"><ele>53.5</ele><time>2026-04-18T14:30:30Z</time></trkpt><trkpt lat="39.274552249421596" lon="8.837677874892824"><ele>53.0</ele><time>2026-04-18T14:30:31Z</time></trkpt><trkpt lat="39.274498198563236" lon="8.837995362721154"><ele>53.0</ele><time>2026-04-18T14:30:32Z</time></trkpt><trkpt lat="39.2744443632684" lon="8.838318063180841"><ele>53.0</ele><time>2026-04-18T14:30:33Z</time></trkpt><trkpt lat="39.2743887176149" lon="8.838646962827927"><ele>51.5</ele><time>2026-04-18T14:30:34Z</time></trkpt><trkpt lat="39.274331255630344" lon="8.838980597445117"><ele>50.0</ele><time>2026-04-18T14:30:35Z</time></trkpt><trkpt lat="39.274271396893326" lon="8.83931492959605"><ele>49.0</ele><time>2026-04-18T14:30:36Z</time></trkpt><trkpt lat="39.274211537042156" lon="8.839651391143821"><ele>48.0</ele><time>2026-04-18T14:30:37Z</time></trkpt><trkpt lat="39.274153977478406" lon="8.839988525659669"><ele>48.5</ele><time>2026-04-18T14:30:38Z</time></trkpt><trkpt lat="39.274098464352086" lon="8.840324579085282"><ele>49.0</ele><time>2026-04-18T14:30:39Z</time></trkpt><trkpt lat="39.27404324299621" lon="8.840661366387984"><ele>49.0</ele><time>2026-04-18T14:30:40Z</time></trkpt><trkpt lat="39.27398847875164" lon="8.840995667954465"><ele>49.0</ele><time>2026-04-18T14:30:41Z</time></trkpt><trkpt lat="39.27393285972467" lon="8.841329402523083"><ele>49.0</ele><time>2026-04-18T14:30:42Z</time></trkpt><trkpt lat="39.27387666505659" lon="8.841659712410666"><ele>49.0</ele><time>2026-04-18T14:30:43Z</time></trkpt><trkpt lat="39.27381976118363" lon="8.84198454649422"><ele>47.5</ele><time>2026-04-18T14:30:44Z</time></trkpt><trkpt lat="39.27376206094729" lon="8.842311441368993"><ele>46.0</ele><time>2026-04-18T14:30:45Z</time></trkpt><trkpt lat="39.27370508389941" lon="8.84263965795212"><ele>46.0</ele><time>2026-04-18T14:30:46Z</time></trkpt><trkpt lat="39.27365078225819" lon="8.84296443359406"><ele>46.0</ele><time>2026-04-18T14:30:47Z</time></trkpt><trkpt lat="39.27359850914859" lon="8.843279058421405"><ele>46.0</ele><time>2026-04-18T14:30:48Z</time></trkpt><trkpt lat="39.27354579300334" lon="8.843588762495026"><ele>46.0</ele><time>2026-04-18T14:30:49Z</time></trkpt><trkpt lat="39.27348782275796" lon="8.843896944913684"><ele>46.0</ele><time>2026-04-18T14:30:50Z</time></trkpt><trkpt lat="39.27342315052302" lon="8.844194901111162"><ele>46.0</ele><time>2026-04-18T14:30:51Z</time></trkpt><trkpt lat="39.27335032240414" lon="8.844493594059502"><ele>45.5</ele><time>2026-04-18T14:30:52Z</time></trkpt><trkpt lat="39.27326793005636" lon="8.84478736250602"><ele>45.0</ele><time>2026-04-18T14:30:53Z</time></trkpt><trkpt lat="39.273177340439595" lon="8.845081067399764"><ele>44.5</ele><time>2026-04-18T14:30:54Z</time></trkpt><trkpt lat="39.273084649428554" lon="8.845377571836334"><ele>44.0</ele><time>2026-04-18T14:30:55Z</time></trkpt><trkpt lat="39.272994180258394" lon="8.845679820128945"><ele>43.5</ele><time>2026-04-18T14:30:56Z</time></trkpt><trkpt lat="39.27290703794937" lon="8.845987885782309"><ele>43.0</ele><time>2026-04-18T14:30:57Z</time></trkpt><trkpt lat="39.27281954121654" lon="8.846302514914244"><ele>43.0</ele><time>2026-04-18T14:30:58Z</time></trkpt><trkpt lat="39.27272782744046" lon="8.846619841378851"><ele>43.0</ele><time>2026-04-18T14:30:59Z</time></trkpt><trkpt lat="39.272636753383445" lon="8.846924765955206"><ele>43.0</ele><time>2026-04-18T14:31:00Z</time></trkpt><trkpt lat="39.27254688938236" lon="8.847221270811145"><ele>43.0</ele><time>2026-04-18T14:31:01Z</time></trkpt><trkpt lat="39.27245759597005" lon="8.847511916694414"><ele>44.5</ele><time>2026-04-18T14:31:02Z</time></trkpt><trkpt lat="39.27237248949016" lon="8.847803546316872"><ele>46.0</ele><time>2026-04-18T14:31:03Z</time></trkpt><trkpt lat="39.272287254717895" lon="8.848090021299745"><ele>46.5</ele><time>2026-04-18T14:31:04Z</time></trkpt><trkpt lat="39.272202098932624" lon="8.848377055245077"><ele>47.0</ele><time>2026-04-18T14:31:05Z</time></trkpt><trkpt lat="39.272117105471025" lon="8.84865880894708"><ele>49.5</ele><time>2026-04-18T14:31:06Z</time></trkpt><trkpt lat="39.27203150565654" lon="8.848941617862945"><ele>52.0</ele><time>2026-04-18T14:31:07Z</time></trkpt><trkpt lat="39.271944936248445" lon="8.849221487673736"><ele>57.5</ele><time>2026-04-18T14:31:08Z</time></trkpt><trkpt lat="39.27185053060203" lon="8.849498642117398"><ele>63.0</ele><time>2026-04-18T14:31:09Z</time></trkpt><trkpt lat="39.27175084690159" lon="8.849766750587982"><ele>63.0</ele><time>2026-04-18T14:31:10Z</time></trkpt><trkpt lat="39.271651507088684" lon="8.850033142178766"><ele>63.0</ele><time>2026-04-18T14:31:11Z</time></trkpt><trkpt lat="39.27155154788485" lon="8.850298416307574"><ele>63.0</ele><time>2026-04-18T14:31:12Z</time></trkpt><trkpt lat="39.27145468384411" lon="8.850566696570203"><ele>63.0</ele><time>2026-04-18T14:31:13Z</time></trkpt><trkpt lat="39.271354327840825" lon="8.850833892467339"><ele>62.5</ele><time>2026-04-18T14:31:14Z</time></trkpt><trkpt lat="39.271251843087775" lon="8.851100787846525"><ele>62.0</ele><time>2026-04-18T14:31:15Z</time></trkpt><trkpt lat="39.27115367376146" lon="8.851371024468573"><ele>62.0</ele><time>2026-04-18T14:31:16Z</time></trkpt><trkpt lat="39.27105668129232" lon="8.85164701934697"><ele>62.0</ele><time>2026-04-18T14:31:17Z</time></trkpt><trkpt lat="39.270956903715195" lon="8.851919801990205"><ele>59.5</ele><time>2026-04-18T14:31:18Z</time></trkpt><trkpt lat="39.27085742613308" lon="8.852196006047652"><ele>57.0</ele><time>2026-04-18T14:31:19Z</time></trkpt><trkpt lat="39.27075521432839" lon="8.852475709911452"><ele>57.5</ele><time>2026-04-18T14:31:20Z</time></trkpt><trkpt lat="39.27065430194996" lon="8.852749784578053"><ele>58.0</ele><time>2026-04-18T14:31:21Z</time></trkpt><trkpt lat="39.27055181088814" lon="8.853032728489383"><ele>60.0</ele><time>2026-04-18T14:31:22Z</time></trkpt><trkpt lat="39.270448052918866" lon="8.853311261387391"><ele>62.0</ele><time>2026-04-18T14:31:23Z</time></trkpt><trkpt lat="39.27034456230677" lon="8.85358863269261"><ele>64.0</ele><time>2026-04-18T14:31:24Z</time></trkpt><trkpt lat="39.2702409800452" lon="8.853866972887655"><ele>66.0</ele><time>2026-04-18T14:31:25Z</time></trkpt><trkpt lat="39.270137940525785" lon="8.854147223153825"><ele>65.5</ele><time>2026-04-18T14:31:26Z</time></trkpt><trkpt lat="39.27003576015474" lon="8.854429126993159"><ele>65.0</ele><time>2026-04-18T14:31:27Z</time></trkpt><trkpt lat="39.26993433246252" lon="8.854715810840334"><ele>65.0</ele><time>2026-04-18T14:31:28Z</time></trkpt><trkpt lat="39.26983189297065" lon="8.855003177214273"><ele>65.0</ele><time>2026-04-18T14:31:29Z</time></trkpt><trkpt lat="39.269727492582" lon="8.855292482253056"><ele>59.5</ele><time>2026-04-18T14:31:30Z</time></trkpt><trkpt lat="39.26962049436206" lon="8.855578870295625"><ele>54.0</ele><time>2026-04-18T14:31:31Z</time></trkpt><trkpt lat="39.26951231040606" lon="8.855866530568601"><ele>51.5</ele><time>2026-04-18T14:31:32Z</time></trkpt><trkpt lat="39.26940576921387" lon="8.856155768439098"><ele>49.0</ele><time>2026-04-18T14:31:33Z</time></trkpt><trkpt lat="39.26930117041807" lon="8.856443886487412"><ele>49.0</ele><time>2026-04-18T14:31:34Z</time></trkpt><trkpt lat="39.26919361654279" lon="8.856734382627842"><ele>49.0</ele><time>2026-04-18T14:31:35Z</time></trkpt><trkpt lat="39.26908572011379" lon="8.857025548056212"><ele>49.5</ele><time>2026-04-18T14:31:36Z</time></trkpt><trkpt lat="39.26897831709225" lon="8.857319177298663"><ele>50.0</ele><time>2026-04-18T14:31:37Z</time></trkpt><trkpt lat="39.26887222347716" lon="8.85760621398734"><ele>49.5</ele><time>2026-04-18T14:31:38Z</time></trkpt><trkpt lat="39.26876675616177" lon="8.85789279614816"><ele>49.0</ele><time>2026-04-18T14:31:39Z</time></trkpt><trkpt lat="39.268662083635256" lon="8.858177203336096"><ele>49.0</ele><time>2026-04-18T14:31:40Z</time></trkpt><trkpt lat="39.26855996627827" lon="8.858454392182757"><ele>49.0</ele><time>2026-04-18T14:31:41Z</time></trkpt><trkpt lat="39.26845685466072" lon="8.858728404876722"><ele>49.0</ele><time>2026-04-18T14:31:42Z</time></trkpt><trkpt lat="39.26835632043106" lon="8.858995159316475"><ele>49.0</ele><time>2026-04-18T14:31:43Z</time></trkpt><trkpt lat="39.26825628238021" lon="8.859261216052023"><ele>48.5</ele><time>2026-04-18T14:31:44Z</time></trkpt><trkpt lat="39.26815846501335" lon="8.859530183797798"><ele>48.0</ele><time>2026-04-18T14:31:45Z</time></trkpt><trkpt lat="39.268065288298125" lon="8.859801526238895"><ele>49.5</ele><time>2026-04-18T14:31:46Z</time></trkpt><trkpt lat="39.26797541917762" lon="8.860077843753846"><ele>51.0</ele><time>2026-04-18T14:31:47Z</time></trkpt><trkpt lat="39.26789401517394" lon="8.860359601830963"><ele>51.0</ele><time>2026-04-18T14:31:48Z</time></trkpt><trkpt lat="39.26783453868471" lon="8.860656074234262"><ele>51.0</ele><time>2026-04-18T14:31:49Z</time></trkpt><trkpt lat="39.26779431883348" lon="8.860961303110788"><ele>52.5</ele><time>2026-04-18T14:31:50Z</time></trkpt><trkpt lat="39.267771348757556" lon="8.86127106919727"><ele>54.0</ele><time>2026-04-18T14:31:51Z</time></trkpt><trkpt lat="39.2677638327075" lon="8.861584583996631"><ele>55.0</ele><time>2026-04-18T14:31:52Z</time></trkpt><trkpt lat="39.26777249220284" lon="8.861898845691535"><ele>56.0</ele><time>2026-04-18T14:31:53Z</time></trkpt><trkpt lat="39.26779429170405" lon="8.862216903961155"><ele>56.0</ele><time>2026-04-18T14:31:54Z</time></trkpt><trkpt lat="39.26782227355826" lon="8.862537343042575"><ele>56.0</ele><time>2026-04-18T14:31:55Z</time></trkpt><trkpt lat="39.26785218839264" lon="8.862858277862104"><ele>55.5</ele><time>2026-04-18T14:31:56Z</time></trkpt><trkpt lat="39.26788157929408" lon="8.863185602587434"><ele>55.0</ele><time>2026-04-18T14:31:57Z</time></trkpt><trkpt lat="39.26791129475779" lon="8.863510633229312"><ele>55.0</ele><time>2026-04-18T14:31:58Z</time></trkpt><trkpt lat="39.26794077748578" lon="8.863830334048588"><ele>55.0</ele><time>2026-04-18T14:31:59Z</time></trkpt><trkpt lat="39.26797063282406" lon="8.864145646990249"><ele>53.5</ele><time>2026-04-18T14:32:00Z</time></trkpt><trkpt lat="39.267982956023026" lon="8.864461613034825"><ele>52.0</ele><time>2026-04-18T14:32:01Z</time></trkpt><trkpt lat="39.268011109223266" lon="8.864773478157272"><ele>52.0</ele><time>2026-04-18T14:32:02Z</time></trkpt><trkpt lat="39.26803909101043" lon="8.865083444459914"><ele>52.0</ele><time>2026-04-18T14:32:03Z</time></trkpt><trkpt lat="39.268067310339696" lon="8.865385520757718"><ele>50.666666666666664</ele><time>2026-04-18T14:32:04Z</time></trkpt><trkpt lat="39.26811153913591" lon="8.865671514731881"><ele>49.33333333333333</ele><time>2026-04-18T14:32:05Z</time></trkpt><trkpt lat="39.26813711014411" lon="8.865956807597241"><ele>48.0</ele><time>2026-04-18T14:32:06Z</time></trkpt><trkpt lat="39.26816098700556" lon="8.866239464099857"><ele>48.0</ele><time>2026-04-18T14:32:07Z</time></trkpt><trkpt lat="39.26817731019267" lon="8.86652474791054"><ele>48.0</ele><time>2026-04-18T14:32:08Z</time></trkpt><trkpt lat="39.26817488704943" lon="8.866815609152525"><ele>48.0</ele><time>2026-04-18T14:32:09Z</time></trkpt><trkpt lat="39.2681490984867" lon="8.867114421397162"><ele>47.0</ele><time>2026-04-18T14:32:10Z</time></trkpt><trkpt lat="39.2681061322135" lon="8.867413933003736"><ele>46.0</ele><time>2026-04-18T14:32:11Z</time></trkpt><trkpt lat="39.26804336751722" lon="8.867712051924158"><ele>46.0</ele><time>2026-04-18T14:32:12Z</time></trkpt><trkpt lat="39.267965134902745" lon="8.867994248550472"><ele>46.0</ele><time>2026-04-18T14:32:13Z</time></trkpt><trkpt lat="39.26786565623365" lon="8.868260546338476"><ele>45.5</ele><time>2026-04-18T14:32:14Z</time></trkpt><trkpt lat="39.26773889839119" lon="8.868514162161716"><ele>45.0</ele><time>2026-04-18T14:32:15Z</time></trkpt><trkpt lat="39.26759853644965" lon="8.868759177419808"><ele>45.0</ele><time>2026-04-18T14:32:16Z</time></trkpt><trkpt lat="39.26745684192016" lon="8.869006426737217"><ele>45.0</ele><time>2026-04-18T14:32:17Z</time></trkpt><trkpt lat="39.2673167880201" lon="8.869258570160618"><ele>46.0</ele><time>2026-04-18T14:32:18Z</time></trkpt><trkpt lat="39.26717784992526" lon="8.869513014885204"><ele>47.0</ele><time>2026-04-18T14:32:19Z</time></trkpt><trkpt lat="39.26703871776057" lon="8.869768451320075"><ele>47.0</ele><time>2026-04-18T14:32:20Z</time></trkpt><trkpt lat="39.2668955686123" lon="8.87002451676487"><ele>47.0</ele><time>2026-04-18T14:32:21Z</time></trkpt><trkpt lat="39.26675307721182" lon="8.870278130293102"><ele>45.5</ele><time>2026-04-18T14:32:22Z</time></trkpt><trkpt lat="39.26661125012294" lon="8.870534007825523"><ele>44.0</ele><time>2026-04-18T14:32:23Z</time></trkpt><trkpt lat="39.266468629844525" lon="8.870791207462787"><ele>46.5</ele><time>2026-04-18T14:32:24Z</time></trkpt><trkpt lat="39.26632435143757" lon="8.871048984913534"><ele>49.0</ele><time>2026-04-18T14:32:25Z</time></trkpt><trkpt lat="39.266180245547474" lon="8.871308199706563"><ele>49.0</ele><time>2026-04-18T14:32:26Z</time></trkpt><trkpt lat="39.26603837745791" lon="8.871569914964503"><ele>49.0</ele><time>2026-04-18T14:32:27Z</time></trkpt><trkpt lat="39.26589947274873" lon="8.871829988373502"><ele>49.5</ele><time>2026-04-18T14:32:28Z</time></trkpt><trkpt lat="39.26576337916482" lon="8.872085679506158"><ele>50.0</ele><time>2026-04-18T14:32:29Z</time></trkpt><trkpt lat="39.26563113322274" lon="8.872338676503492"><ele>50.0</ele><time>2026-04-18T14:32:30Z</time></trkpt><trkpt lat="39.26550162405444" lon="8.872593060349054"><ele>50.0</ele><time>2026-04-18T14:32:31Z</time></trkpt><trkpt lat="39.265373150185205" lon="8.87285125408268"><ele>50.0</ele><time>2026-04-18T14:32:32Z</time></trkpt><trkpt lat="39.26524629194459" lon="8.87311064815687"><ele>50.0</ele><time>2026-04-18T14:32:33Z</time></trkpt><trkpt lat="39.265119415591656" lon="8.873371271773344"><ele>50.5</ele><time>2026-04-18T14:32:34Z</time></trkpt><trkpt lat="39.26499084601763" lon="8.873632008718095"><ele>51.0</ele><time>2026-04-18T14:32:35Z</time></trkpt><trkpt lat="39.264861167017365" lon="8.873892527620699"><ele>52.5</ele><time>2026-04-18T14:32:36Z</time></trkpt><trkpt lat="39.26473108972823" lon="8.874151634854822"><ele>54.0</ele><time>2026-04-18T14:32:37Z</time></trkpt><trkpt lat="39.2646007684301" lon="8.87441174470372"><ele>54.5</ele><time>2026-04-18T14:32:38Z</time></trkpt><trkpt lat="39.26447087921111" lon="8.874671334974574"><ele>55.0</ele><time>2026-04-18T14:32:39Z</time></trkpt><trkpt lat="39.26434009962007" lon="8.874933538746436"><ele>54.0</ele><time>2026-04-18T14:32:40Z</time></trkpt><trkpt lat="39.26421077702782" lon="8.875195407355623"><ele>53.0</ele><time>2026-04-18T14:32:41Z</time></trkpt><trkpt lat="39.26408261865528" lon="8.875459893663306"><ele>53.0</ele><time>2026-04-18T14:32:42Z</time></trkpt><trkpt lat="39.26395461557033" lon="8.87572441931061"><ele>53.0</ele><time>2026-04-18T14:32:43Z</time></trkpt><trkpt lat="39.263825409873164" lon="8.875987721464675"><ele>53.5</ele><time>2026-04-18T14:32:44Z</time></trkpt><trkpt lat="39.26369517124" lon="8.87624783879456"><ele>54.0</ele><time>2026-04-18T14:32:45Z</time></trkpt><trkpt lat="39.26356910668781" lon="8.876500396235068"><ele>54.0</ele><time>2026-04-18T14:32:46Z</time></trkpt><trkpt lat="39.26344785561798" lon="8.876745529589186"><ele>54.0</ele><time>2026-04-18T14:32:47Z</time></trkpt><trkpt lat="39.263329775999054" lon="8.876991816462002"><ele>54.0</ele><time>2026-04-18T14:32:48Z</time></trkpt><trkpt lat="39.26321328137046" lon="8.877241144029352"><ele>54.0</ele><time>2026-04-18T14:32:49Z</time></trkpt><trkpt lat="39.26310274899124" lon="8.877489525734378"><ele>54.0</ele><time>2026-04-18T14:32:50Z</time></trkpt><trkpt lat="39.26299961464132" lon="8.877747556614452"><ele>54.0</ele><time>2026-04-18T14:32:51Z</time></trkpt><trkpt lat="39.26292251776164" lon="8.878024844591096"><ele>54.5</ele><time>2026-04-18T14:32:52Z</time></trkpt><trkpt lat="39.26287124107991" lon="8.878311156126559"><ele>55.0</ele><time>2026-04-18T14:32:53Z</time></trkpt><trkpt lat="39.262842177509455" lon="8.878607723586185"><ele>54.0</ele><time>2026-04-18T14:32:54Z</time></trkpt><trkpt lat="39.26282619422021" lon="8.878913217671801"><ele>53.0</ele><time>2026-04-18T14:32:55Z</time></trkpt><trkpt lat="39.26282101252108" lon="8.87921662142114"><ele>50.0</ele><time>2026-04-18T14:32:56Z</time></trkpt><trkpt lat="39.2628384256482" lon="8.879522344123297"><ele>47.0</ele><time>2026-04-18T14:32:57Z</time></trkpt><trkpt lat="39.2628833614347" lon="8.879824906017648"><ele>46.0</ele><time>2026-04-18T14:32:58Z</time></trkpt><trkpt lat="39.262947407538235" lon="8.880121614591657"><ele>45.0</ele><time>2026-04-18T14:32:59Z</time></trkpt><trkpt lat="39.263015128420335" lon="8.880420501027519"><ele>45.0</ele><time>2026-04-18T14:33:00Z</time></trkpt><trkpt lat="39.26307928960541" lon="8.88072041513827"><ele>45.0</ele><time>2026-04-18T14:33:01Z</time></trkpt><trkpt lat="39.26314063731856" lon="8.881021885041081"><ele>44.5</ele><time>2026-04-18T14:33:02Z</time></trkpt><trkpt lat="39.263200529979514" lon="8.881319611778016"><ele>44.0</ele><time>2026-04-18T14:33:03Z</time></trkpt><trkpt lat="39.263261030099216" lon="8.881607475673995"><ele>42.33333333333333</ele><time>2026-04-18T14:33:04Z</time></trkpt><trkpt lat="39.26332108388834" lon="8.88188782372183"><ele>40.666666666666664</ele><time>2026-04-18T14:33:05Z</time></trkpt><trkpt lat="39.26337801262967" lon="8.882163106057702"><ele>39.0</ele><time>2026-04-18T14:33:06Z</time></trkpt><trkpt lat="39.26342748971764" lon="8.88244032991441"><ele>38.666666666666664</ele><time>2026-04-18T14:33:07Z</time></trkpt><trkpt lat="39.26345391163583" lon="8.882719548213718"><ele>38.33333333333333</ele><time>2026-04-18T14:33:08Z</time></trkpt><trkpt lat="39.26344930023512" lon="8.88300653538217"><ele>38.0</ele><time>2026-04-18T14:33:09Z</time></trkpt><trkpt lat="39.26341038746971" lon="8.883291719637342"><ele>37.0</ele><time>2026-04-18T14:33:10Z</time></trkpt><trkpt lat="39.2633326687091" lon="8.883572939218922"><ele>36.0</ele><time>2026-04-18T14:33:11Z</time></trkpt><trkpt lat="39.263233803062946" lon="8.8838436304203"><ele>36.0</ele><time>2026-04-18T14:33:12Z</time></trkpt><trkpt lat="39.26312601928187" lon="8.884116010079124"><ele>36.0</ele><time>2026-04-18T14:33:13Z</time></trkpt><trkpt lat="39.26302099416741" lon="8.884395557516806"><ele>37.5</ele><time>2026-04-18T14:33:14Z</time></trkpt><trkpt lat="39.262915266347214" lon="8.884676999599996"><ele>39.0</ele><time>2026-04-18T14:33:15Z</time></trkpt><trkpt lat="39.26280621844223" lon="8.88495916752716"><ele>38.0</ele><time>2026-04-18T14:33:16Z</time></trkpt><trkpt lat="39.262696312735585" lon="8.885243276799681"><ele>37.0</ele><time>2026-04-18T14:33:17Z</time></trkpt><trkpt lat="39.262587275020955" lon="8.885530805337655"><ele>37.0</ele><time>2026-04-18T14:33:18Z</time></trkpt><trkpt lat="39.26247613043647" lon="8.885821085449292"><ele>37.0</ele><time>2026-04-18T14:33:19Z</time></trkpt><trkpt lat="39.26236386999142" lon="8.886110502964097"><ele>39.5</ele><time>2026-04-18T14:33:20Z</time></trkpt><trkpt lat="39.2622492630806" lon="8.886399417594234"><ele>42.0</ele><time>2026-04-18T14:33:21Z</time></trkpt><trkpt lat="39.26213432462016" lon="8.88668914868312"><ele>43.5</ele><time>2026-04-18T14:33:22Z</time></trkpt><trkpt lat="39.26202061967814" lon="8.886982542998405"><ele>45.0</ele><time>2026-04-18T14:33:23Z</time></trkpt><trkpt lat="39.261909677070186" lon="8.887273575504622"><ele>45.0</ele><time>2026-04-18T14:33:24Z</time></trkpt><trkpt lat="39.26179860709929" lon="8.887567771957881"><ele>45.0</ele><time>2026-04-18T14:33:25Z</time></trkpt><trkpt lat="39.26168188567107" lon="8.88786674576137"><ele>45.5</ele><time>2026-04-18T14:33:26Z</time></trkpt><trkpt lat="39.26156270797273" lon="8.888167010037304"><ele>46.0</ele><time>2026-04-18T14:33:27Z</time></trkpt><trkpt lat="39.261447169139075" lon="8.888465498081539"><ele>46.5</ele><time>2026-04-18T14:33:28Z</time></trkpt><trkpt lat="39.26133536398559" lon="8.888760020549004"><ele>47.0</ele><time>2026-04-18T14:33:29Z</time></trkpt><trkpt lat="39.26122365839413" lon="8.88905172896636"><ele>49.0</ele><time>2026-04-18T14:33:30Z</time></trkpt><trkpt lat="39.261114682815375" lon="8.889331753622102"><ele>51.0</ele><time>2026-04-18T14:33:31Z</time></trkpt><trkpt lat="39.26100664136742" lon="8.889605755814962"><ele>51.0</ele><time>2026-04-18T14:33:32Z</time></trkpt><trkpt lat="39.260899880914096" lon="8.889875944203514"><ele>51.0</ele><time>2026-04-18T14:33:33Z</time></trkpt><trkpt lat="39.260794003261005" lon="8.89014512081594"><ele>50.0</ele><time>2026-04-18T14:33:34Z</time></trkpt><trkpt lat="39.260689461533204" lon="8.890408578749334"><ele>49.0</ele><time>2026-04-18T14:33:35Z</time></trkpt><trkpt lat="39.26058535201847" lon="8.89067346241815"><ele>49.5</ele><time>2026-04-18T14:33:36Z</time></trkpt><trkpt lat="39.26048442346325" lon="8.890939910834035"><ele>50.0</ele><time>2026-04-18T14:33:37Z</time></trkpt><trkpt lat="39.260382873596654" lon="8.891210101953023"><ele>50.0</ele><time>2026-04-18T14:33:38Z</time></trkpt><trkpt lat="39.26027916254329" lon="8.891482296875276"><ele>50.0</ele><time>2026-04-18T14:33:39Z</time></trkpt><trkpt lat="39.26017860036323" lon="8.891754333254156"><ele>48.0</ele><time>2026-04-18T14:33:40Z</time></trkpt><trkpt lat="39.260085010728055" lon="8.892033102954642"><ele>46.0</ele><time>2026-04-18T14:33:41Z</time></trkpt><trkpt lat="39.259999967858285" lon="8.892320269780008"><ele>46.0</ele><time>2026-04-18T14:33:42Z</time></trkpt><trkpt lat="39.25991992169257" lon="8.892607083895124"><ele>46.0</ele><time>2026-04-18T14:33:43Z</time></trkpt><trkpt lat="39.25983470345548" lon="8.892900532381729"><ele>47.0</ele><time>2026-04-18T14:33:44Z</time></trkpt><trkpt lat="39.259745408179676" lon="8.893190845415353"><ele>48.0</ele><time>2026-04-18T14:33:45Z</time></trkpt><trkpt lat="39.259655631798836" lon="8.893483245267474"><ele>49.0</ele><time>2026-04-18T14:33:46Z</time></trkpt><trkpt lat="39.25956816379925" lon="8.893778882682783"><ele>50.0</ele><time>2026-04-18T14:33:47Z</time></trkpt><trkpt lat="39.25948212250484" lon="8.894075087413507"><ele>50.5</ele><time>2026-04-18T14:33:48Z</time></trkpt><trkpt lat="39.25939372934268" lon="8.894374200313722"><ele>51.0</ele><time>2026-04-18T14:33:49Z</time></trkpt><trkpt lat="39.259305340073716" lon="8.894672509111619"><ele>51.0</ele><time>2026-04-18T14:33:50Z</time></trkpt><trkpt lat="39.25921716778703" lon="8.894967145928662"><ele>51.0</ele><time>2026-04-18T14:33:51Z</time></trkpt><trkpt lat="39.25912962313947" lon="8.895263282303093"><ele>51.5</ele><time>2026-04-18T14:33:52Z</time></trkpt><trkpt lat="39.259042410673985" lon="8.895560259366752"><ele>52.0</ele><time>2026-04-18T14:33:53Z</time></trkpt><trkpt lat="39.258954232088534" lon="8.895857053720725"><ele>53.0</ele><time>2026-04-18T14:33:54Z</time></trkpt><trkpt lat="39.25886533783849" lon="8.896154947319756"><ele>54.0</ele><time>2026-04-18T14:33:55Z</time></trkpt><trkpt lat="39.25877559034459" lon="8.896451142056428"><ele>54.0</ele><time>2026-04-18T14:33:56Z</time></trkpt><trkpt lat="39.25868397795908" lon="8.896750402894577"><ele>54.0</ele><time>2026-04-18T14:33:57Z</time></trkpt><trkpt lat="39.258592229680175" lon="8.897052604481525"><ele>55.0</ele><time>2026-04-18T14:33:58Z</time></trkpt><trkpt lat="39.25850112707895" lon="8.897358318357945"><ele>56.0</ele><time>2026-04-18T14:33:59Z</time></trkpt><trkpt lat="39.25840985404825" lon="8.897666981435638"><ele>57.0</ele><time>2026-04-18T14:34:00Z</time></trkpt><trkpt lat="39.258318478205275" lon="8.897983017532404"><ele>58.0</ele><time>2026-04-18T14:34:01Z</time></trkpt><trkpt lat="39.258222933999456" lon="8.898311091629939"><ele>60.0</ele><time>2026-04-18T14:34:02Z</time></trkpt><trkpt lat="39.2581223297347" lon="8.898655150164272"><ele>62.0</ele><time>2026-04-18T14:34:03Z</time></trkpt><trkpt lat="39.258024015519126" lon="8.899011157432525"><ele>64.0</ele><time>2026-04-18T14:34:04Z</time></trkpt><trkpt lat="39.25792429733452" lon="8.899372752443064"><ele>66.0</ele><time>2026-04-18T14:34:05Z</time></trkpt><trkpt lat="39.257817799653004" lon="8.899754380640285"><ele>67.5</ele><time>2026-04-18T14:34:06Z</time></trkpt><trkpt lat="39.25770600525518" lon="8.900140852511507"><ele>69.0</ele><time>2026-04-18T14:34:07Z</time></trkpt><trkpt lat="39.25758615309858" lon="8.90053064268521"><ele>69.0</ele><time>2026-04-18T14:34:08Z</time></trkpt><trkpt lat="39.25746204823934" lon="8.900913827481157"><ele>69.0</ele><time>2026-04-18T14:34:09Z</time></trkpt><trkpt lat="39.25734825145738" lon="8.901269390021183"><ele>73.5</ele><time>2026-04-18T14:34:10Z</time></trkpt><trkpt lat="39.25724708698198" lon="8.901610319210013"><ele>78.0</ele><time>2026-04-18T14:34:11Z</time></trkpt><trkpt lat="39.25715252048333" lon="8.901938151227673"><ele>80.5</ele><time>2026-04-18T14:34:12Z</time></trkpt><trkpt lat="39.25705969562675" lon="8.902251414675316"><ele>83.0</ele><time>2026-04-18T14:34:13Z</time></trkpt><trkpt lat="39.256968568243146" lon="8.902547851979193"><ele>90.0</ele><time>2026-04-18T14:34:14Z</time></trkpt><trkpt lat="39.25687031398338" lon="8.90282817694331"><ele>97.0</ele><time>2026-04-18T14:34:15Z</time></trkpt><trkpt lat="39.25674427265618" lon="8.90307427523633"><ele>97.0</ele><time>2026-04-18T14:34:16Z</time></trkpt><trkpt lat="39.25658768711296" lon="8.903279747679369"><ele>97.0</ele><time>2026-04-18T14:34:17Z</time></trkpt><trkpt lat="39.25640074959163" lon="8.903453534940201"><ele>103.0</ele><time>2026-04-18T14:34:18Z</time></trkpt><trkpt lat="39.25618918381292" lon="8.903605255707186"><ele>109.0</ele><time>2026-04-18T14:34:19Z</time></trkpt><trkpt lat="39.25597498460214" lon="8.903752002745884"><ele>109.0</ele><time>2026-04-18T14:34:20Z</time></trkpt><trkpt lat="39.25576052337087" lon="8.903906995207528"><ele>109.0</ele><time>2026-04-18T14:34:21Z</time></trkpt><trkpt lat="39.2555474989187" lon="8.904064208298198"><ele>106.0</ele><time>2026-04-18T14:34:22Z</time></trkpt><trkpt lat="39.25533780027347" lon="8.904219488600843"><ele>103.0</ele><time>2026-04-18T14:34:23Z</time></trkpt><trkpt lat="39.25513153501095" lon="8.90438165663672"><ele>111.0</ele><time>2026-04-18T14:34:24Z</time></trkpt><trkpt lat="39.2549374781957" lon="8.904564786410733"><ele>119.0</ele><time>2026-04-18T14:34:25Z</time></trkpt><trkpt lat="39.25475293570347" lon="8.904770314510595"><ele>119.0</ele><time>2026-04-18T14:34:26Z</time></trkpt><trkpt lat="39.2545746573177" lon="8.904978584322473"><ele>119.0</ele><time>2026-04-18T14:34:27Z</time></trkpt><trkpt lat="39.254399951306176" lon="8.905177873573345"><ele>118.0</ele><time>2026-04-18T14:34:28Z</time></trkpt><trkpt lat="39.25423514456207" lon="8.905362810847803"><ele>117.0</ele><time>2026-04-18T14:34:29Z</time></trkpt><trkpt lat="39.25408006087501" lon="8.905534537972878"><ele>116.0</ele><time>2026-04-18T14:34:30Z</time></trkpt><trkpt lat="39.253932613644466" lon="8.905699328892416"><ele>116.0</ele><time>2026-04-18T14:34:31Z</time></trkpt><trkpt lat="39.25378182949815" lon="8.905885355434803"><ele>116.0</ele><time>2026-04-18T14:34:32Z</time></trkpt><trkpt lat="39.25365436834897" lon="8.906085800546071"><ele>116.0</ele><time>2026-04-18T14:34:33Z</time></trkpt><trkpt lat="39.25355866358548" lon="8.906316096005005"><ele>116.0</ele><time>2026-04-18T14:34:34Z</time></trkpt><trkpt lat="39.25348728360372" lon="8.906559800662958"><ele>116.0</ele><time>2026-04-18T14:34:35Z</time></trkpt><trkpt lat="39.253437350052444" lon="8.906822089946262"><ele>116.0</ele><time>2026-04-18T14:34:36Z</time></trkpt><trkpt lat="39.253372675994456" lon="8.907085144202336"><ele>112.66666666666666</ele><time>2026-04-18T14:34:37Z</time></trkpt><trkpt lat="39.253316401787664" lon="8.907351378125338"><ele>109.33333333333334</ele><time>2026-04-18T14:34:38Z</time></trkpt><trkpt lat="39.25325140122024" lon="8.90762046875663"><ele>106.0</ele><time>2026-04-18T14:34:39Z</time></trkpt><trkpt lat="39.25317709925905" lon="8.907887377247452"><ele>104.66666666666667</ele><time>2026-04-18T14:34:40Z</time></trkpt><trkpt lat="39.25309314375855" lon="8.908140084240841"><ele>103.33333333333334</ele><time>2026-04-18T14:34:41Z</time></trkpt><trkpt lat="39.2530036398585" lon="8.908381049175924"><ele>102.0</ele><time>2026-04-18T14:34:42Z</time></trkpt><trkpt lat="39.25292672531767" lon="8.908625026571924"><ele>102.0</ele><time>2026-04-18T14:34:43Z</time></trkpt><trkpt lat="39.252892047253624" lon="8.908887200711668"><ele>102.0</ele><time>2026-04-18T14:34:44Z</time></trkpt><trkpt lat="39.25290542968611" lon="8.909154930819136"><ele>102.0</ele><time>2026-04-18T14:34:45Z</time></trkpt><trkpt lat="39.252964438602255" lon="8.909422710802883"><ele>104.33333333333334</ele><time>2026-04-18T14:34:46Z</time></trkpt><trkpt lat="39.25303951901921" lon="8.909684194072335"><ele>106.66666666666667</ele><time>2026-04-18T14:34:47Z</time></trkpt><trkpt lat="39.25310503391416" lon="8.909959211039633"><ele>109.0</ele><time>2026-04-18T14:34:48Z</time></trkpt><trkpt lat="39.25314711043282" lon="8.910253821457752"><ele>95.0</ele><time>2026-04-18T14:34:49Z</time></trkpt><trkpt lat="39.253170743921665" lon="8.910553249266252"><ele>81.0</ele><time>2026-04-18T14:34:50Z</time></trkpt><trkpt lat="39.25317863169199" lon="8.910855199086685"><ele>80.0</ele><time>2026-04-18T14:34:51Z</time></trkpt><trkpt lat="39.253188621747114" lon="8.911160360266129"><ele>79.0</ele><time>2026-04-18T14:34:52Z</time></trkpt><trkpt lat="39.253198972584606" lon="8.911467540558503"><ele>78.5</ele><time>2026-04-18T14:34:53Z</time></trkpt><trkpt lat="39.25320521930629" lon="8.911776220682844"><ele>78.0</ele><time>2026-04-18T14:34:54Z</time></trkpt><trkpt lat="39.25320447952119" lon="8.912088061772781"><ele>78.0</ele><time>2026-04-18T14:34:55Z</time></trkpt><trkpt lat="39.25319667592924" lon="8.912401234993318"><ele>78.0</ele><time>2026-04-18T14:34:56Z</time></trkpt><trkpt lat="39.25318177656221" lon="8.912716009403969"><ele>77.0</ele><time>2026-04-18T14:34:57Z</time></trkpt><trkpt lat="39.25316538904946" lon="8.913033568293633"><ele>76.0</ele><time>2026-04-18T14:34:58Z</time></trkpt><trkpt lat="39.253148679494316" lon="8.913350900754907"><ele>74.5</ele><time>2026-04-18T14:34:59Z</time></trkpt><trkpt lat="39.253129545814616" lon="8.913673159372038"><ele>73.0</ele><time>2026-04-18T14:35:00Z</time></trkpt><trkpt lat="39.25310762647208" lon="8.913999106166163"><ele>75.0</ele><time>2026-04-18T14:35:01Z</time></trkpt><trkpt lat="39.25308605885715" lon="8.914329662379222"><ele>77.0</ele><time>2026-04-18T14:35:02Z</time></trkpt><trkpt lat="39.25306499767727" lon="8.914664055773539"><ele>77.0</ele><time>2026-04-18T14:35:03Z</time></trkpt><trkpt lat="39.25304605482242" lon="8.914999842520505"><ele>77.0</ele><time>2026-04-18T14:35:04Z</time></trkpt><trkpt lat="39.25302572617218" lon="8.915343718012597"><ele>72.0</ele><time>2026-04-18T14:35:05Z</time></trkpt><trkpt lat="39.25300366975603" lon="8.915693785810475"><ele>67.0</ele><time>2026-04-18T14:35:06Z</time></trkpt><trkpt lat="39.25298135569905" lon="8.916049349226011"><ele>65.0</ele><time>2026-04-18T14:35:07Z</time></trkpt><trkpt lat="39.252956128132745" lon="8.916409938662465"><ele>63.0</ele><time>2026-04-18T14:35:08Z</time></trkpt><trkpt lat="39.25293191269385" lon="8.916772839177257"><ele>61.5</ele><time>2026-04-18T14:35:09Z</time></trkpt><trkpt lat="39.2529081466974" lon="8.91713465828035"><ele>60.0</ele><time>2026-04-18T14:35:10Z</time></trkpt><trkpt lat="39.252884169285025" lon="8.917495113519974"><ele>58.0</ele><time>2026-04-18T14:35:11Z</time></trkpt><trkpt lat="39.25286157440429" lon="8.917854954029364"><ele>56.0</ele><time>2026-04-18T14:35:12Z</time></trkpt><trkpt lat="39.25284537734672" lon="8.91820703202067"><ele>57.0</ele><time>2026-04-18T14:35:13Z</time></trkpt><trkpt lat="39.25284521809061" lon="8.918552526810723"><ele>58.0</ele><time>2026-04-18T14:35:14Z</time></trkpt><trkpt lat="39.25286648444721" lon="8.918960920435419"><ele>56.0</ele><time>2026-04-18T14:35:15Z</time></trkpt><trkpt lat="39.25290595290249" lon="8.91933288692742"><ele>54.0</ele><time>2026-04-18T14:35:16Z</time></trkpt><trkpt lat="39.25296128439179" lon="8.919700642571463"><ele>54.0</ele><time>2026-04-18T14:35:17Z</time></trkpt><trkpt lat="39.25303011149203" lon="8.920064735336693"><ele>54.0</ele><time>2026-04-18T14:35:18Z</time></trkpt><trkpt lat="39.253115926665004" lon="8.920423699272565"><ele>51.5</ele><time>2026-04-18T14:35:19Z</time></trkpt><trkpt lat="39.2532201024999" lon="8.920779283822911"><ele>49.0</ele><time>2026-04-18T14:35:20Z</time></trkpt><trkpt lat="39.25334215849883" lon="8.92112622906601"><ele>49.0</ele><time>2026-04-18T14:35:21Z</time></trkpt><trkpt lat="39.2534787844042" lon="8.92146465473856"><ele>49.0</ele><time>2026-04-18T14:35:22Z</time></trkpt><trkpt lat="39.253614077781265" lon="8.921804087694921"><ele>50.0</ele><time>2026-04-18T14:35:23Z</time></trkpt><trkpt lat="39.25374229666987" lon="8.922147607326515"><ele>51.0</ele><time>2026-04-18T14:35:24Z</time></trkpt><trkpt lat="39.25386763424663" lon="8.922491198704371"><ele>48.0</ele><time>2026-04-18T14:35:25Z</time></trkpt><trkpt lat="39.25399419803449" lon="8.92282988353792"><ele>45.0</ele><time>2026-04-18T14:35:26Z</time></trkpt><trkpt lat="39.25412554200896" lon="8.923170099857987"><ele>44.0</ele><time>2026-04-18T14:35:27Z</time></trkpt><trkpt lat="39.254257918092016" lon="8.923507437166746"><ele>43.0</ele><time>2026-04-18T14:35:28Z</time></trkpt><trkpt lat="39.25439029792125" lon="8.923844442485546"><ele>43.0</ele><time>2026-04-18T14:35:29Z</time></trkpt><trkpt lat="39.25450136132368" lon="8.92418596018712"><ele>43.0</ele><time>2026-04-18T14:35:30Z</time></trkpt><trkpt lat="39.25462574647161" lon="8.924516325993675"><ele>42.5</ele><time>2026-04-18T14:35:31Z</time></trkpt><trkpt lat="39.254761505560225" lon="8.924834384370888"><ele>42.0</ele><time>2026-04-18T14:35:32Z</time></trkpt><trkpt lat="39.254879318508145" lon="8.925160761652474"><ele>40.0</ele><time>2026-04-18T14:35:33Z</time></trkpt><trkpt lat="39.254999779533094" lon="8.92548410392774"><ele>38.0</ele><time>2026-04-18T14:35:34Z</time></trkpt><trkpt lat="39.25511760828797" lon="8.92580416502167"><ele>37.0</ele><time>2026-04-18T14:35:35Z</time></trkpt><trkpt lat="39.255234837454594" lon="8.92611621829057"><ele>36.0</ele><time>2026-04-18T14:35:36Z</time></trkpt><trkpt lat="39.25535104407757" lon="8.92642441018973"><ele>36.0</ele><time>2026-04-18T14:35:37Z</time></trkpt><trkpt lat="39.25546434311558" lon="8.926727656925884"><ele>36.0</ele><time>2026-04-18T14:35:38Z</time></trkpt><trkpt lat="39.25557566311446" lon="8.92702691883469"><ele>37.5</ele><time>2026-04-18T14:35:39Z</time></trkpt><trkpt lat="39.25568700781521" lon="8.927322774000595"><ele>39.0</ele><time>2026-04-18T14:35:40Z</time></trkpt><trkpt lat="39.25579884661231" lon="8.927615939341008"><ele>39.0</ele><time>2026-04-18T14:35:41Z</time></trkpt><trkpt lat="39.255910633794365" lon="8.927908357743519"><ele>39.0</ele><time>2026-04-18T14:35:42Z</time></trkpt><trkpt lat="39.256021477594466" lon="8.928199596869145"><ele>38.0</ele><time>2026-04-18T14:35:43Z</time></trkpt><trkpt lat="39.25613065461063" lon="8.92848975846784"><ele>37.0</ele><time>2026-04-18T14:35:44Z</time></trkpt><trkpt lat="39.25624000925772" lon="8.928776730792721"><ele>37.0</ele><time>2026-04-18T14:35:45Z</time></trkpt><trkpt lat="39.25634843350149" lon="8.929065113921933"><ele>37.0</ele><time>2026-04-18T14:35:46Z</time></trkpt><trkpt lat="39.25645541797915" lon="8.929352146942897"><ele>35.5</ele><time>2026-04-18T14:35:47Z</time></trkpt><trkpt lat="39.25656073455916" lon="8.929641838062754"><ele>34.0</ele><time>2026-04-18T14:35:48Z</time></trkpt><trkpt lat="39.25666196244279" lon="8.92990856579725"><ele>33.66666666666667</ele><time>2026-04-18T14:35:49Z</time></trkpt><trkpt lat="39.256760108397806" lon="8.93015770665781"><ele>33.333333333333336</ele><time>2026-04-18T14:35:50Z</time></trkpt><trkpt lat="39.25683546339267" lon="8.930405706364832"><ele>33.0</ele><time>2026-04-18T14:35:51Z</time></trkpt><trkpt lat="39.25693860159545" lon="8.930639578984172"><ele>33.0</ele><time>2026-04-18T14:35:52Z</time></trkpt><trkpt lat="39.25703003591989" lon="8.930890756817643"><ele>33.0</ele><time>2026-04-18T14:35:53Z</time></trkpt><trkpt lat="39.2571269191048" lon="8.931154632111763"><ele>33.0</ele><time>2026-04-18T14:35:54Z</time></trkpt><trkpt lat="39.257228796651766" lon="8.931429247183722"><ele>33.0</ele><time>2026-04-18T14:35:55Z</time></trkpt><trkpt lat="39.2573331304074" lon="8.93170867190846"><ele>33.0</ele><time>2026-04-18T14:35:56Z</time></trkpt><trkpt lat="39.25744077204737" lon="8.93199608563133"><ele>33.0</ele><time>2026-04-18T14:35:57Z</time></trkpt><trkpt lat="39.25754950238728" lon="8.932284305441181"><ele>33.0</ele><time>2026-04-18T14:35:58Z</time></trkpt><trkpt lat="39.25765687049554" lon="8.932566249483838"><ele>33.5</ele><time>2026-04-18T14:35:59Z</time></trkpt><trkpt lat="39.257756448357576" lon="8.932834113787647"><ele>34.0</ele><time>2026-04-18T14:36:00Z</time></trkpt><trkpt lat="39.25785276902798" lon="8.933100132975738"><ele>34.0</ele><time>2026-04-18T14:36:01Z</time></trkpt><trkpt lat="39.257948460887064" lon="8.93336310702129"><ele>34.0</ele><time>2026-04-18T14:36:02Z</time></trkpt><trkpt lat="39.258046128533074" lon="8.933620845121942"><ele>34.0</ele><time>2026-04-18T14:36:03Z</time></trkpt><trkpt lat="39.258144999398205" lon="8.933874141866092"><ele>33.333333333333336</ele><time>2026-04-18T14:36:04Z</time></trkpt><trkpt lat="39.25824026692091" lon="8.93412589001229"><ele>32.666666666666664</ele><time>2026-04-18T14:36:05Z</time></trkpt><trkpt lat="39.25833335069046" lon="8.934373679540887"><ele>32.0</ele><time>2026-04-18T14:36:06Z</time></trkpt><trkpt lat="39.25842549133154" lon="8.934617116306647"><ele>31.333333333333332</ele><time>2026-04-18T14:36:07Z</time></trkpt><trkpt lat="39.258516681464904" lon="8.934856728730834"><ele>30.666666666666664</ele><time>2026-04-18T14:36:08Z</time></trkpt><trkpt lat="39.258607187732984" lon="8.935096343331862"><ele>30.0</ele><time>2026-04-18T14:36:09Z</time></trkpt><trkpt lat="39.258694953935326" lon="8.935334235761143"><ele>30.0</ele><time>2026-04-18T14:36:10Z</time></trkpt><trkpt lat="39.25878229225936" lon="8.935574276964276"><ele>30.0</ele><time>2026-04-18T14:36:11Z</time></trkpt><trkpt lat="39.25886982864692" lon="8.935814458703659"><ele>30.0</ele><time>2026-04-18T14:36:12Z</time></trkpt><trkpt lat="39.25895811006993" lon="8.936055148249464"><ele>29.666666666666664</ele><time>2026-04-18T14:36:13Z</time></trkpt><trkpt lat="39.2590476460082" lon="8.936296855376394"><ele>29.333333333333332</ele><time>2026-04-18T14:36:14Z</time></trkpt><trkpt lat="39.25913878735194" lon="8.936540325355939"><ele>29.0</ele><time>2026-04-18T14:36:15Z</time></trkpt><trkpt lat="39.25923163537876" lon="8.936784511101017"><ele>28.0</ele><time>2026-04-18T14:36:16Z</time></trkpt><trkpt lat="39.25932400780365" lon="8.937028785923186"><ele>27.0</ele><time>2026-04-18T14:36:17Z</time></trkpt><trkpt lat="39.25941598628837" lon="8.937277600728258"><ele>26.0</ele><time>2026-04-18T14:36:18Z</time></trkpt><trkpt lat="39.25950669978296" lon="8.937531478280821"><ele>25.666666666666664</ele><time>2026-04-18T14:36:19Z</time></trkpt><trkpt lat="39.259597390365876" lon="8.937791261496093"><ele>25.333333333333336</ele><time>2026-04-18T14:36:20Z</time></trkpt><trkpt lat="39.25968338676731" lon="8.93805843790639"><ele>25.0</ele><time>2026-04-18T14:36:21Z</time></trkpt><trkpt lat="39.25976465230569" lon="8.938333325338824"><ele>23.5</ele><time>2026-04-18T14:36:22Z</time></trkpt><trkpt lat="39.259849198127796" lon="8.938612078750968"><ele>22.0</ele><time>2026-04-18T14:36:23Z</time></trkpt><trkpt lat="39.25993647422821" lon="8.938892798065242"><ele>22.0</ele><time>2026-04-18T14:36:24Z</time></trkpt><trkpt lat="39.26000451864721" lon="8.939102833437587"><ele>22.0</ele><time>2026-04-18T14:36:25Z</time></trkpt><trkpt lat="39.260085326136334" lon="8.93936834411057"><ele>22.0</ele><time>2026-04-18T14:36:26Z</time></trkpt><trkpt lat="39.26016816305197" lon="8.93963663731592"><ele>22.5</ele><time>2026-04-18T14:36:27Z</time></trkpt><trkpt lat="39.26024853335038" lon="8.939908916226898"><ele>23.0</ele><time>2026-04-18T14:36:28Z</time></trkpt><trkpt lat="39.26032994844995" lon="8.94018197902591"><ele>22.0</ele><time>2026-04-18T14:36:29Z</time></trkpt><trkpt lat="39.26041083467228" lon="8.94045687999342"><ele>21.0</ele><time>2026-04-18T14:36:30Z</time></trkpt><trkpt lat="39.26049416094964" lon="8.940730243242632"><ele>21.0</ele><time>2026-04-18T14:36:31Z</time></trkpt><trkpt lat="39.26057757127396" lon="8.941004897182399"><ele>21.0</ele><time>2026-04-18T14:36:32Z</time></trkpt><trkpt lat="39.2606604010952" lon="8.941281814884483"><ele>20.5</ele><time>2026-04-18T14:36:33Z</time></trkpt><trkpt lat="39.26074333756106" lon="8.94155755347561"><ele>20.0</ele><time>2026-04-18T14:36:34Z</time></trkpt><trkpt lat="39.26082758677056" lon="8.9418347422575"><ele>19.0</ele><time>2026-04-18T14:36:35Z</time></trkpt><trkpt lat="39.26091322082898" lon="8.942111692431325"><ele>18.0</ele><time>2026-04-18T14:36:36Z</time></trkpt><trkpt lat="39.26100086713852" lon="8.94238805760367"><ele>18.0</ele><time>2026-04-18T14:36:37Z</time></trkpt><trkpt lat="39.26108670783677" lon="8.942669086918384"><ele>18.0</ele><time>2026-04-18T14:36:38Z</time></trkpt><trkpt lat="39.26116917967125" lon="8.942950444525204"><ele>18.0</ele><time>2026-04-18T14:36:39Z</time></trkpt><trkpt lat="39.261257886990656" lon="8.943230836801419"><ele>18.0</ele><time>2026-04-18T14:36:40Z</time></trkpt><trkpt lat="39.26135099691894" lon="8.943510822564283"><ele>18.0</ele><time>2026-04-18T14:36:41Z</time></trkpt><trkpt lat="39.261438990014845" lon="8.943799280862374"><ele>18.0</ele><time>2026-04-18T14:36:42Z</time></trkpt><trkpt lat="39.2615295853962" lon="8.944090669211738"><ele>17.0</ele><time>2026-04-18T14:36:43Z</time></trkpt><trkpt lat="39.26161659863678" lon="8.944385682451758"><ele>16.0</ele><time>2026-04-18T14:36:44Z</time></trkpt><trkpt lat="39.261705378292646" lon="8.94469494296202"><ele>16.0</ele><time>2026-04-18T14:36:45Z</time></trkpt><trkpt lat="39.261800795361964" lon="8.945013693310834"><ele>16.0</ele><time>2026-04-18T14:36:46Z</time></trkpt><trkpt lat="39.26189956154834" lon="8.945347907102146"><ele>16.0</ele><time>2026-04-18T14:36:47Z</time></trkpt><trkpt lat="39.261999634949" lon="8.945677152218721"><ele>16.0</ele><time>2026-04-18T14:36:48Z</time></trkpt><trkpt lat="39.26210055497138" lon="8.945998965460225"><ele>15.5</ele><time>2026-04-18T14:36:49Z</time></trkpt><trkpt lat="39.262198686532166" lon="8.946321673430953"><ele>15.0</ele><time>2026-04-18T14:36:50Z</time></trkpt><trkpt lat="39.26229518475776" lon="8.946641295532192"><ele>14.0</ele><time>2026-04-18T14:36:51Z</time></trkpt><trkpt lat="39.26239180565517" lon="8.946958238843385"><ele>13.0</ele><time>2026-04-18T14:36:52Z</time></trkpt><trkpt lat="39.26248707644139" lon="8.947275292540295"><ele>13.0</ele><time>2026-04-18T14:36:53Z</time></trkpt><trkpt lat="39.26258303529543" lon="8.947588930113156"><ele>13.0</ele><time>2026-04-18T14:36:54Z</time></trkpt><trkpt lat="39.26267918512904" lon="8.947904160014591"><ele>13.0</ele><time>2026-04-18T14:36:55Z</time></trkpt><trkpt lat="39.26277589734799" lon="8.948219085862936"><ele>13.0</ele><time>2026-04-18T14:36:56Z</time></trkpt><trkpt lat="39.26286868898456" lon="8.948529086829392"><ele>13.5</ele><time>2026-04-18T14:36:57Z</time></trkpt><trkpt lat="39.26296092312742" lon="8.948835483386693"><ele>14.0</ele><time>2026-04-18T14:36:58Z</time></trkpt><trkpt lat="39.263052723385655" lon="8.949138143211433"><ele>13.0</ele><time>2026-04-18T14:36:59Z</time></trkpt><trkpt lat="39.26314410105168" lon="8.949433722155685"><ele>12.0</ele><time>2026-04-18T14:37:00Z</time></trkpt><trkpt lat="39.26323413137733" lon="8.949727494185302"><ele>12.0</ele><time>2026-04-18T14:37:01Z</time></trkpt><trkpt lat="39.26332473329714" lon="8.950021384599925"><ele>12.0</ele><time>2026-04-18T14:37:02Z</time></trkpt><trkpt lat="39.263413468545714" lon="8.95031285457621"><ele>11.0</ele><time>2026-04-18T14:37:03Z</time></trkpt><trkpt lat="39.263501995893186" lon="8.9506057058654"><ele>10.0</ele><time>2026-04-18T14:37:04Z</time></trkpt><trkpt lat="39.263592600817184" lon="8.950898885907765"><ele>9.5</ele><time>2026-04-18T14:37:05Z</time></trkpt><trkpt lat="39.26366748900554" lon="8.95119549354433"><ele>9.0</ele><time>2026-04-18T14:37:06Z</time></trkpt><trkpt lat="39.26375551340057" lon="8.951484995996283"><ele>9.5</ele><time>2026-04-18T14:37:07Z</time></trkpt><trkpt lat="39.26384335845327" lon="8.95177390861283"><ele>10.0</ele><time>2026-04-18T14:37:08Z</time></trkpt><trkpt lat="39.263930973228995" lon="8.952062063879469"><ele>9.5</ele><time>2026-04-18T14:37:09Z</time></trkpt><trkpt lat="39.26403147474359" lon="8.952343917074053"><ele>9.0</ele><time>2026-04-18T14:37:10Z</time></trkpt><trkpt lat="39.26411916210175" lon="8.952631976444541"><ele>9.0</ele><time>2026-04-18T14:37:11Z</time></trkpt><trkpt lat="39.264206340628704" lon="8.952922234148241"><ele>9.0</ele><time>2026-04-18T14:37:12Z</time></trkpt><trkpt lat="39.26429348895821" lon="8.953212942055673"><ele>8.0</ele><time>2026-04-18T14:37:13Z</time></trkpt><trkpt lat="39.264382846086555" lon="8.953504800998354"><ele>7.0</ele><time>2026-04-18T14:37:14Z</time></trkpt><trkpt lat="39.264470035085495" lon="8.953795926193543"><ele>7.0</ele><time>2026-04-18T14:37:15Z</time></trkpt><trkpt lat="39.26454460837773" lon="8.954088798652167"><ele>7.0</ele><time>2026-04-18T14:37:16Z</time></trkpt><trkpt lat="39.264646407780255" lon="8.954367979215201"><ele>7.0</ele><time>2026-04-18T14:37:17Z</time></trkpt><trkpt lat="39.26471935424704" lon="8.95466590698724"><ele>7.0</ele><time>2026-04-18T14:37:18Z</time></trkpt><trkpt lat="39.264818558765434" lon="8.954948599842595"><ele>6.5</ele><time>2026-04-18T14:37:19Z</time></trkpt><trkpt lat="39.264905586215136" lon="8.955239293927884"><ele>6.0</ele><time>2026-04-18T14:37:20Z</time></trkpt><trkpt lat="39.26499462040727" lon="8.95552968757602"><ele>6.0</ele><time>2026-04-18T14:37:21Z</time></trkpt><trkpt lat="39.265083076777756" lon="8.955824897034065"><ele>6.0</ele><time>2026-04-18T14:37:22Z</time></trkpt><trkpt lat="39.265172681144385" lon="8.956116595738592"><ele>6.0</ele><time>2026-04-18T14:37:23Z</time></trkpt><trkpt lat="39.265259381951935" lon="8.95641185202252"><ele>6.0</ele><time>2026-04-18T14:37:24Z</time></trkpt><trkpt lat="39.26534898062329" lon="8.956710396104171"><ele>6.0</ele><time>2026-04-18T14:37:25Z</time></trkpt><trkpt lat="39.26543471656292" lon="8.95700144144362"><ele>6.0</ele><time>2026-04-18T14:37:26Z</time></trkpt><trkpt lat="39.26552428319566" lon="8.957294475975521"><ele>5.5</ele><time>2026-04-18T14:37:27Z</time></trkpt><trkpt lat="39.26561409547459" lon="8.957586170704056"><ele>5.0</ele><time>2026-04-18T14:37:28Z</time></trkpt><trkpt lat="39.26570248002941" lon="8.957876186952134"><ele>5.0</ele><time>2026-04-18T14:37:29Z</time></trkpt><trkpt lat="39.26578910048923" lon="8.958163820957617"><ele>5.0</ele><time>2026-04-18T14:37:30Z</time></trkpt><trkpt lat="39.26587819172889" lon="8.958450731116212"><ele>4.5</ele><time>2026-04-18T14:37:31Z</time></trkpt><trkpt lat="39.26596648452918" lon="8.958739893919631"><ele>4.0</ele><time>2026-04-18T14:37:32Z</time></trkpt><trkpt lat="39.26605424140797" lon="8.959030630677013"><ele>3.5</ele><time>2026-04-18T14:37:33Z</time></trkpt><trkpt lat="39.266143536868896" lon="8.959321846374838"><ele>3.0</ele><time>2026-04-18T14:37:34Z</time></trkpt><trkpt lat="39.26623454964918" lon="8.959616234736572"><ele>3.0</ele><time>2026-04-18T14:37:35Z</time></trkpt><trkpt lat="39.26632303589828" lon="8.959906945264885"><ele>3.0</ele><time>2026-04-18T14:37:36Z</time></trkpt><trkpt lat="39.26640970867889" lon="8.960194526960418"><ele>3.5</ele><time>2026-04-18T14:37:37Z</time></trkpt><trkpt lat="39.26649698800517" lon="8.96048102862998"><ele>4.0</ele><time>2026-04-18T14:37:38Z</time></trkpt><trkpt lat="39.26658299800184" lon="8.960763686635424"><ele>3.6666666666666665</ele><time>2026-04-18T14:37:39Z</time></trkpt><trkpt lat="39.26666655743181" lon="8.961034358661745"><ele>3.333333333333333</ele><time>2026-04-18T14:37:40Z</time></trkpt><trkpt lat="39.26674832387499" lon="8.961286399312229"><ele>3.0</ele><time>2026-04-18T14:37:41Z</time></trkpt><trkpt lat="39.266821761350535" lon="8.96152496385161"><ele>2.6666666666666665</ele><time>2026-04-18T14:37:42Z</time></trkpt><trkpt lat="39.26689098217406" lon="8.96175742420217"><ele>2.333333333333333</ele><time>2026-04-18T14:37:43Z</time></trkpt><trkpt lat="39.266963702533445" lon="8.961990284633208"><ele>2.0</ele><time>2026-04-18T14:37:44Z</time></trkpt><trkpt lat="39.26703796379166" lon="8.962223306066013"><ele>2.0</ele><time>2026-04-18T14:37:45Z</time></trkpt><trkpt lat="39.26710948068639" lon="8.962453126406505"><ele>2.0</ele><time>2026-04-18T14:37:46Z</time></trkpt><trkpt lat="39.267175995520866" lon="8.96267581196578"><ele>2.0</ele><time>2026-04-18T14:37:47Z</time></trkpt><trkpt lat="39.26724223308461" lon="8.96288391477345"><ele>1.75</ele><time>2026-04-18T14:37:48Z</time></trkpt><trkpt lat="39.26730440663867" lon="8.963069807560636"><ele>1.5</ele><time>2026-04-18T14:37:49Z</time></trkpt><trkpt lat="39.26735430090569" lon="8.963235262104131"><ele>1.25</ele><time>2026-04-18T14:37:50Z</time></trkpt><trkpt lat="39.26739322824754" lon="8.963375919872142"><ele>1.0</ele><time>2026-04-18T14:37:51Z</time></trkpt><trkpt lat="39.26742506634832" lon="8.963542663903532"><ele>1.0</ele><time>2026-04-18T14:37:52Z</time></trkpt><trkpt lat="39.26739302870673" lon="8.963620201893843"><ele>1.0</ele><time>2026-04-18T14:37:53Z</time></trkpt><trkpt lat="39.26740258678436" lon="8.963756707078023"><ele>1.0</ele><time>2026-04-18T14:37:55Z</time></trkpt><trkpt lat="39.26730209926614" lon="8.963889254224815"><ele>1.0</ele><time>2026-04-18T14:37:56Z</time></trkpt><trkpt lat="39.26730226765084" lon="8.963989526785571"><ele>1.0</ele><time>2026-04-18T14:37:57Z</time></trkpt><trkpt lat="39.267333437453836" lon="8.964084424875004"><ele>1.0</ele><time>2026-04-18T14:37:58Z</time></trkpt><trkpt lat="39.26739396185961" lon="8.96416072757291"><ele>1.0</ele><time>2026-04-18T14:37:59Z</time></trkpt><trkpt lat="39.26747155306996" lon="8.964201350664897"><ele>1.0</ele><time>2026-04-18T14:38:00Z</time></trkpt><trkpt lat="39.26755682591592" lon="8.964227937186827"><ele>1.0</ele><time>2026-04-18T14:38:01Z</time></trkpt><trkpt lat="39.267635074924094" lon="8.964299275727473"><ele>1.0</ele><time>2026-04-18T14:38:02Z</time></trkpt><trkpt lat="39.267696678658254" lon="8.96441500805143"><ele>1.0</ele><time>2026-04-18T14:38:03Z</time></trkpt><trkpt lat="39.26773815527775" lon="8.96456100503924"><ele>1.0</ele><time>2026-04-18T14:38:04Z</time></trkpt><trkpt lat="39.26778004137261" lon="8.964720929934069"><ele>1.0</ele><time>2026-04-18T14:38:05Z</time></trkpt><trkpt lat="39.26782599900357" lon="8.96487251097785"><ele>1.0</ele><time>2026-04-18T14:38:06Z</time></trkpt><trkpt lat="39.26788084395191" lon="8.965034442242096"><ele>1.0</ele><time>2026-04-18T14:38:07Z</time></trkpt><trkpt lat="39.26793581356194" lon="8.965206828820621"><ele>1.0</ele><time>2026-04-18T14:38:08Z</time></trkpt><trkpt lat="39.2679884806759" lon="8.965386417079465"><ele>1.0</ele><time>2026-04-18T14:38:09Z</time></trkpt><trkpt lat="39.268046616921474" lon="8.965575920830357"><ele>1.3333333333333333</ele><time>2026-04-18T14:38:10Z</time></trkpt><trkpt lat="39.2681152271448" lon="8.965777674988107"><ele>1.6666666666666665</ele><time>2026-04-18T14:38:11Z</time></trkpt><trkpt lat="39.268192019903935" lon="8.96600440159158"><ele>2.0</ele><time>2026-04-18T14:38:12Z</time></trkpt><trkpt lat="39.268262769524846" lon="8.966239713818641"><ele>2.333333333333333</ele><time>2026-04-18T14:38:13Z</time></trkpt><trkpt lat="39.268332588226315" lon="8.966492848129505"><ele>2.6666666666666665</ele><time>2026-04-18T14:38:14Z</time></trkpt><trkpt lat="39.26839986569004" lon="8.966733406840115"><ele>3.0</ele><time>2026-04-18T14:38:15Z</time></trkpt><trkpt lat="39.26847096132999" lon="8.966975032372561"><ele>2.6666666666666665</ele><time>2026-04-18T14:38:16Z</time></trkpt><trkpt lat="39.2685455559257" lon="8.967218450512249"><ele>2.333333333333333</ele><time>2026-04-18T14:38:17Z</time></trkpt><trkpt lat="39.268621017406" lon="8.967461072411432"><ele>2.0</ele><time>2026-04-18T14:38:18Z</time></trkpt><trkpt lat="39.26869609068431" lon="8.967706480730708"><ele>2.0</ele><time>2026-04-18T14:38:19Z</time></trkpt><trkpt lat="39.268769239897686" lon="8.967951830461812"><ele>2.0</ele><time>2026-04-18T14:38:20Z</time></trkpt><trkpt lat="39.26884286797193" lon="8.968198174599213"><ele>2.0</ele><time>2026-04-18T14:38:21Z</time></trkpt><trkpt lat="39.268916028575816" lon="8.968446227961481"><ele>1.3333333333333333</ele><time>2026-04-18T14:38:22Z</time></trkpt><trkpt lat="39.268985690265495" lon="8.96869575430498"><ele>0.6666666666666666</ele><time>2026-04-18T14:38:23Z</time></trkpt><trkpt lat="39.269049887419015" lon="8.968949930257324"><ele>0.0</ele><time>2026-04-18T14:38:24Z</time></trkpt><trkpt lat="39.26910968523611" lon="8.969206074064207"><ele>-0.3333333333333333</ele><time>2026-04-18T14:38:25Z</time></trkpt><trkpt lat="39.269168237575" lon="8.9694622208428"><ele>-0.6666666666666666</ele><time>2026-04-18T14:38:26Z</time></trkpt><trkpt lat="39.269228825910574" lon="8.969720853494074"><ele>-1.0</ele><time>2026-04-18T14:38:27Z</time></trkpt><trkpt lat="39.2692859902234" lon="8.9699793945224"><ele>-0.6666666666666666</ele><time>2026-04-18T14:38:28Z</time></trkpt><trkpt lat="39.26933712914389" lon="8.97024209442101"><ele>-0.3333333333333333</ele><time>2026-04-18T14:38:29Z</time></trkpt><trkpt lat="39.26938219008862" lon="8.970505400481363"><ele>0.0</ele><time>2026-04-18T14:38:30Z</time></trkpt><trkpt lat="39.269422973005895" lon="8.9707710670323"><ele>-0.3333333333333333</ele><time>2026-04-18T14:38:31Z</time></trkpt><trkpt lat="39.2694629322127" lon="8.971037818230444"><ele>-0.6666666666666666</ele><time>2026-04-18T14:38:32Z</time></trkpt><trkpt lat="39.26950220016462" lon="8.97130541724338"><ele>-1.0</ele><time>2026-04-18T14:38:33Z</time></trkpt><trkpt lat="39.269538435907755" lon="8.97157207937429"><ele>-0.6666666666666666</ele><time>2026-04-18T14:38:34Z</time></trkpt><trkpt lat="39.26957305242581" lon="8.971846733834223"><ele>-0.3333333333333333</ele><time>2026-04-18T14:38:35Z</time></trkpt><trkpt lat="39.269607744071024" lon="8.97211570499918"><ele>0.0</ele><time>2026-04-18T14:38:36Z</time></trkpt><trkpt lat="39.26964386392812" lon="8.972385931199923"><ele>0.0</ele><time>2026-04-18T14:38:37Z</time></trkpt><trkpt lat="39.2696768046601" lon="8.972663025386405"><ele>0.0</ele><time>2026-04-18T14:38:38Z</time></trkpt><trkpt lat="39.26971511343193" lon="8.972939670357913"><ele>0.0</ele><time>2026-04-18T14:38:39Z</time></trkpt><trkpt lat="39.26975289318491" lon="8.97322016651514"><ele>0.3333333333333333</ele><time>2026-04-18T14:38:40Z</time></trkpt><trkpt lat="39.269789581936266" lon="8.973501105152232"><ele>0.6666666666666666</ele><time>2026-04-18T14:38:41Z</time></trkpt><trkpt lat="39.26982856032193" lon="8.973782164661637"><ele>1.0</ele><time>2026-04-18T14:38:42Z</time></trkpt><trkpt lat="39.26986614426602" lon="8.974064977597688"><ele>0.3333333333333333</ele><time>2026-04-18T14:38:43Z</time></trkpt><trkpt lat="39.2699038960405" lon="8.974348431047446"><ele>-0.3333333333333333</ele><time>2026-04-18T14:38:44Z</time></trkpt><trkpt lat="39.26993913344249" lon="8.974633310634584"><ele>-1.0</ele><time>2026-04-18T14:38:45Z</time></trkpt><trkpt lat="39.26997635044338" lon="8.974918091454457"><ele>-0.6666666666666666</ele><time>2026-04-18T14:38:46Z</time></trkpt><trkpt lat="39.27001212140986" lon="8.975200766772918"><ele>-0.3333333333333333</ele><time>2026-04-18T14:38:47Z</time></trkpt><trkpt lat="39.27004915206917" lon="8.975480982640947"><ele>0.0</ele><time>2026-04-18T14:38:48Z</time></trkpt><trkpt lat="39.27008790397572" lon="8.975758941983205"><ele>-0.3333333333333333</ele><time>2026-04-18T14:38:49Z</time></trkpt><trkpt lat="39.27012535428818" lon="8.976035045620074"><ele>-0.6666666666666666</ele><time>2026-04-18T14:38:50Z</time></trkpt><trkpt lat="39.27016108071484" lon="8.976311445500242"><ele>-1.0</ele><time>2026-04-18T14:38:51Z</time></trkpt><trkpt lat="39.270191555025704" lon="8.976582646845081"><ele>-1.3333333333333333</ele><time>2026-04-18T14:38:52Z</time></trkpt><trkpt lat="39.27022691841977" lon="8.976851752365477"><ele>-1.6666666666666665</ele><time>2026-04-18T14:38:53Z</time></trkpt><trkpt lat="39.27027143028548" lon="8.97712278325569"><ele>-2.0</ele><time>2026-04-18T14:38:54Z</time></trkpt><trkpt lat="39.27031043889762" lon="8.977402159500775"><ele>-1.0</ele><time>2026-04-18T14:38:55Z</time></trkpt><trkpt lat="39.270350816131916" lon="8.9776862628705"><ele>0.0</ele><time>2026-04-18T14:38:56Z</time></trkpt><trkpt lat="39.27038953994887" lon="8.97797595140584"><ele>0.0</ele><time>2026-04-18T14:38:57Z</time></trkpt><trkpt lat="39.270425919970734" lon="8.978269016215524"><ele>0.0</ele><time>2026-04-18T14:38:58Z</time></trkpt><trkpt lat="39.27045639879398" lon="8.978507797590565"><ele>0.0</ele><time>2026-04-18T14:38:59Z</time></trkpt><trkpt lat="39.27049274369148" lon="8.978788075628033"><ele>0.3333333333333333</ele><time>2026-04-18T14:39:00Z</time></trkpt><trkpt lat="39.27053086575489" lon="8.979070094521171"><ele>0.6666666666666666</ele><time>2026-04-18T14:39:01Z</time></trkpt><trkpt lat="39.27056927932035" lon="8.979353986148812"><ele>1.0</ele><time>2026-04-18T14:39:02Z</time></trkpt><trkpt lat="39.270607452236625" lon="8.979639259133528"><ele>1.0</ele><time>2026-04-18T14:39:03Z</time></trkpt><trkpt lat="39.27064893049183" lon="8.979928268103754"><ele>1.0</ele><time>2026-04-18T14:39:04Z</time></trkpt><trkpt lat="39.2706846078952" lon="8.980216401948656"><ele>1.0</ele><time>2026-04-18T14:39:05Z</time></trkpt><trkpt lat="39.2707250520917" lon="8.980505622203289"><ele>1.0</ele><time>2026-04-18T14:39:06Z</time></trkpt><trkpt lat="39.27076110932484" lon="8.980792948053045"><ele>1.0</ele><time>2026-04-18T14:39:07Z</time></trkpt><trkpt lat="39.27079663775718" lon="8.981078031837088"><ele>1.0</ele><time>2026-04-18T14:39:08Z</time></trkpt><trkpt lat="39.27083259890745" lon="8.981361745350497"><ele>1.0</ele><time>2026-04-18T14:39:09Z</time></trkpt><trkpt lat="39.27087087452776" lon="8.981643927061656"><ele>0.6666666666666666</ele><time>2026-04-18T14:39:10Z</time></trkpt><trkpt lat="39.27091221062261" lon="8.981924035886495"><ele>0.3333333333333333</ele><time>2026-04-18T14:39:11Z</time></trkpt><trkpt lat="39.270948639070674" lon="8.982204932636927"><ele>0.0</ele><time>2026-04-18T14:39:12Z</time></trkpt><trkpt lat="39.2709791672549" lon="8.982484148313745"><ele>-0.3333333333333333</ele><time>2026-04-18T14:39:13Z</time></trkpt><trkpt lat="39.27101459784486" lon="8.982759839421826"><ele>-0.6666666666666666</ele><time>2026-04-18T14:39:14Z</time></trkpt><trkpt lat="39.2710489489123" lon="8.983037755458868"><ele>-1.0</ele><time>2026-04-18T14:39:15Z</time></trkpt><trkpt lat="39.27108697226844" lon="8.983314818420775"><ele>-1.3333333333333333</ele><time>2026-04-18T14:39:16Z</time></trkpt><trkpt lat="39.27112245027633" lon="8.983590746852043"><ele>-1.6666666666666665</ele><time>2026-04-18T14:39:17Z</time></trkpt><trkpt lat="39.27116355038058" lon="8.983867232250917"><ele>-2.0</ele><time>2026-04-18T14:39:18Z</time></trkpt><trkpt lat="39.27119925366121" lon="8.98414664485679"><ele>-1.3333333333333333</ele><time>2026-04-18T14:39:19Z</time></trkpt><trkpt lat="39.271234936279555" lon="8.98442528777834"><ele>-0.6666666666666666</ele><time>2026-04-18T14:39:20Z</time></trkpt><trkpt lat="39.27127223971482" lon="8.984704440467477"><ele>0.0</ele><time>2026-04-18T14:39:21Z</time></trkpt><trkpt lat="39.27131164981125" lon="8.984981176960144"><ele>-0.3333333333333333</ele><time>2026-04-18T14:39:22Z</time></trkpt><trkpt lat="39.27135137680102" lon="8.985259659461425"><ele>-0.6666666666666666</ele><time>2026-04-18T14:39:23Z</time></trkpt><trkpt lat="39.27139032109544" lon="8.985536741535574"><ele>-1.0</ele><time>2026-04-18T14:39:24Z</time></trkpt><trkpt lat="39.27142783647761" lon="8.985813496358576"><ele>-1.0</ele><time>2026-04-18T14:39:25Z</time></trkpt><trkpt lat="39.27146197554417" lon="8.986088566251647"><ele>-1.0</ele><time>2026-04-18T14:39:26Z</time></trkpt><trkpt lat="39.27149507186917" lon="8.986364159591876"><ele>-1.0</ele><time>2026-04-18T14:39:27Z</time></trkpt><trkpt lat="39.271529253483585" lon="8.986640276300017"><ele>-0.6666666666666666</ele><time>2026-04-18T14:39:28Z</time></trkpt><trkpt lat="39.2715673196868" lon="8.986915550955484"><ele>-0.3333333333333333</ele><time>2026-04-18T14:39:29Z</time></trkpt><trkpt lat="39.27160485097142" lon="8.98719307422351"><ele>0.0</ele><time>2026-04-18T14:39:30Z</time></trkpt><trkpt lat="39.27163673871405" lon="8.98746839482048"><ele>0.3333333333333333</ele><time>2026-04-18T14:39:31Z</time></trkpt><trkpt lat="39.27167575561345" lon="8.987741732633914"><ele>0.6666666666666666</ele><time>2026-04-18T14:39:32Z</time></trkpt><trkpt lat="39.27171203134658" lon="8.988015205817756"><ele>1.0</ele><time>2026-04-18T14:39:33Z</time></trkpt><trkpt lat="39.27174664921228" lon="8.988285729095548"><ele>1.3333333333333333</ele><time>2026-04-18T14:39:34Z</time></trkpt><trkpt lat="39.271782531642366" lon="8.98856110449122"><ele>1.6666666666666665</ele><time>2026-04-18T14:39:35Z</time></trkpt><trkpt lat="39.27181854045832" lon="8.98883764752763"><ele>2.0</ele><time>2026-04-18T14:39:36Z</time></trkpt><trkpt lat="39.271857516708344" lon="8.989115554705114"><ele>2.333333333333333</ele><time>2026-04-18T14:39:37Z</time></trkpt><trkpt lat="39.27189412506597" lon="8.98939688896975"><ele>2.6666666666666665</ele><time>2026-04-18T14:39:38Z</time></trkpt><trkpt lat="39.27193081167663" lon="8.989679746591438"><ele>3.0</ele><time>2026-04-18T14:39:39Z</time></trkpt><trkpt lat="39.27196478365487" lon="8.98996144845012"><ele>2.3333333333333335</ele><time>2026-04-18T14:39:40Z</time></trkpt><trkpt lat="39.271999923798354" lon="8.990243408570567"><ele>1.6666666666666665</ele><time>2026-04-18T14:39:41Z</time></trkpt><trkpt lat="39.272033194558446" lon="8.990529916192266"><ele>1.0</ele><time>2026-04-18T14:39:42Z</time></trkpt><trkpt lat="39.27206768919974" lon="8.990814396002794"><ele>1.0</ele><time>2026-04-18T14:39:43Z</time></trkpt><trkpt lat="39.272103456865466" lon="8.991098725243482"><ele>1.0</ele><time>2026-04-18T14:39:44Z</time></trkpt><trkpt lat="39.27213843021243" lon="8.991386404009619"><ele>1.0</ele><time>2026-04-18T14:39:45Z</time></trkpt><trkpt lat="39.27217545924857" lon="8.991677087945627"><ele>0.6666666666666666</ele><time>2026-04-18T14:39:46Z</time></trkpt><trkpt lat="39.27221467145055" lon="8.991959962012308"><ele>0.3333333333333333</ele><time>2026-04-18T14:39:47Z</time></trkpt><trkpt lat="39.27225394325803" lon="8.99223823515362"><ele>0.0</ele><time>2026-04-18T14:39:48Z</time></trkpt><trkpt lat="39.272294402314905" lon="8.992524340107321"><ele>0.0</ele><time>2026-04-18T14:39:49Z</time></trkpt><trkpt lat="39.272325678912516" lon="8.992804661397615"><ele>0.0</ele><time>2026-04-18T14:39:50Z</time></trkpt><trkpt lat="39.272360704031456" lon="8.99308392208793"><ele>0.0</ele><time>2026-04-18T14:39:51Z</time></trkpt><trkpt lat="39.27239690931089" lon="8.99336390031237"><ele>0.0</ele><time>2026-04-18T14:39:52Z</time></trkpt><trkpt lat="39.27243763196271" lon="8.993643293441135"><ele>0.0</ele><time>2026-04-18T14:39:53Z</time></trkpt><trkpt lat="39.27247375430728" lon="8.993929420738677"><ele>0.0</ele><time>2026-04-18T14:39:54Z</time></trkpt><trkpt lat="39.27250958466802" lon="8.994212517500504"><ele>0.0</ele><time>2026-04-18T14:39:55Z</time></trkpt><trkpt lat="39.27254802319261" lon="8.99450066219073"><ele>0.0</ele><time>2026-04-18T14:39:56Z</time></trkpt><trkpt lat="39.27258630845176" lon="8.99479204863437"><ele>1.0</ele><time>2026-04-18T14:39:57Z</time></trkpt><trkpt lat="39.27262511609238" lon="8.995081285728354"><ele>2.0</ele><time>2026-04-18T14:39:58Z</time></trkpt><trkpt lat="39.272663846170204" lon="8.99537337436463"><ele>2.0</ele><time>2026-04-18T14:39:59Z</time></trkpt><trkpt lat="39.27270008575456" lon="8.995663067021425"><ele>2.0</ele><time>2026-04-18T14:40:00Z</time></trkpt><trkpt lat="39.27273729895422" lon="8.995954758970749"><ele>1.0</ele><time>2026-04-18T14:40:01Z</time></trkpt><trkpt lat="39.27277740872386" lon="8.996244427390849"><ele>0.0</ele><time>2026-04-18T14:40:02Z</time></trkpt><trkpt lat="39.27281419368821" lon="8.996534339313214"><ele>-0.5</ele><time>2026-04-18T14:40:03Z</time></trkpt><trkpt lat="39.27285158808705" lon="8.99682670755616"><ele>-1.0</ele><time>2026-04-18T14:40:04Z</time></trkpt><trkpt lat="39.27288927348235" lon="8.997118045802315"><ele>-1.0</ele><time>2026-04-18T14:40:05Z</time></trkpt><trkpt lat="39.27292764753521" lon="8.997410630654242"><ele>-1.0</ele><time>2026-04-18T14:40:06Z</time></trkpt><trkpt lat="39.272965974673106" lon="8.997700912321076"><ele>-1.0</ele><time>2026-04-18T14:40:07Z</time></trkpt><trkpt lat="39.27300555314295" lon="8.998004374731721"><ele>-1.0</ele><time>2026-04-18T14:40:08Z</time></trkpt><trkpt lat="39.273049358095825" lon="8.99830266719756"><ele>-0.5</ele><time>2026-04-18T14:40:09Z</time></trkpt><trkpt lat="39.27308315858975" lon="8.998603093669702"><ele>0.0</ele><time>2026-04-18T14:40:10Z</time></trkpt><trkpt lat="39.27312326219329" lon="8.998906455892602"><ele>1.0</ele><time>2026-04-18T14:40:11Z</time></trkpt><trkpt lat="39.273158888017115" lon="8.99919975357523"><ele>2.0</ele><time>2026-04-18T14:40:12Z</time></trkpt><trkpt lat="39.27320331788707" lon="8.999495089779167"><ele>2.0</ele><time>2026-04-18T14:40:13Z</time></trkpt><trkpt lat="39.27324186825682" lon="8.999790595357336"><ele>2.0</ele><time>2026-04-18T14:40:14Z</time></trkpt><trkpt lat="39.2732833949611" lon="9.00008995499832"><ele>2.0</ele><time>2026-04-18T14:40:15Z</time></trkpt><trkpt lat="39.27332295997343" lon="9.000392313266861"><ele>2.0</ele><time>2026-04-18T14:40:16Z</time></trkpt><trkpt lat="39.27336287508589" lon="9.000694130785377"><ele>2.0</ele><time>2026-04-18T14:40:17Z</time></trkpt><trkpt lat="39.273401015913905" lon="9.00099803564549"><ele>2.0</ele><time>2026-04-18T14:40:18Z</time></trkpt><trkpt lat="39.27344549665026" lon="9.001297677010239"><ele>2.0</ele><time>2026-04-18T14:40:19Z</time></trkpt><trkpt lat="39.2734838192323" lon="9.00160227979418"><ele>2.0</ele><time>2026-04-18T14:40:20Z</time></trkpt><trkpt lat="39.27352531004477" lon="9.001898755847698"><ele>1.5</ele><time>2026-04-18T14:40:21Z</time></trkpt><trkpt lat="39.27356053950852" lon="9.002190567169338"><ele>1.0</ele><time>2026-04-18T14:40:22Z</time></trkpt><trkpt lat="39.27359863840027" lon="9.002476732034463"><ele>0.5</ele><time>2026-04-18T14:40:23Z</time></trkpt><trkpt lat="39.27363628246011" lon="9.002763226173556"><ele>0.0</ele><time>2026-04-18T14:40:24Z</time></trkpt><trkpt lat="39.2736754490278" lon="9.003066321039725"><ele>1.0</ele><time>2026-04-18T14:40:25Z</time></trkpt><trkpt lat="39.27371427376253" lon="9.003360822129762"><ele>2.0</ele><time>2026-04-18T14:40:26Z</time></trkpt><trkpt lat="39.27375372244914" lon="9.003655018927322"><ele>2.0</ele><time>2026-04-18T14:40:27Z</time></trkpt><trkpt lat="39.273796264074996" lon="9.003947001092067"><ele>2.0</ele><time>2026-04-18T14:40:28Z</time></trkpt><trkpt lat="39.27383546793198" lon="9.00424281725206"><ele>2.0</ele><time>2026-04-18T14:40:29Z</time></trkpt><trkpt lat="39.27387828329015" lon="9.004538276810083"><ele>2.0</ele><time>2026-04-18T14:40:30Z</time></trkpt><trkpt lat="39.273913965128706" lon="9.00483547140051"><ele>1.0</ele><time>2026-04-18T14:40:31Z</time></trkpt><trkpt lat="39.27394830824181" lon="9.005132920074907"><ele>0.0</ele><time>2026-04-18T14:40:32Z</time></trkpt><trkpt lat="39.273990910310914" lon="9.00542546850381"><ele>0.0</ele><time>2026-04-18T14:40:33Z</time></trkpt><trkpt lat="39.27402587795055" lon="9.005720996155096"><ele>0.0</ele><time>2026-04-18T14:40:34Z</time></trkpt><trkpt lat="39.274058054906526" lon="9.006012179123129"><ele>-0.5</ele><time>2026-04-18T14:40:35Z</time></trkpt><trkpt lat="39.274097542997964" lon="9.006302324128875"><ele>-1.0</ele><time>2026-04-18T14:40:36Z</time></trkpt><trkpt lat="39.27413410897723" lon="9.006592706601072"><ele>0.0</ele><time>2026-04-18T14:40:37Z</time></trkpt><trkpt lat="39.274173940223584" lon="9.00688255272655"><ele>1.0</ele><time>2026-04-18T14:40:38Z</time></trkpt><trkpt lat="39.27421382291994" lon="9.007172553621311"><ele>1.0</ele><time>2026-04-18T14:40:39Z</time></trkpt><trkpt lat="39.27425128119471" lon="9.007463692051838"><ele>1.0</ele><time>2026-04-18T14:40:40Z</time></trkpt><trkpt lat="39.2742956227479" lon="9.00775383702021"><ele>1.0</ele><time>2026-04-18T14:40:41Z</time></trkpt><trkpt lat="39.27433137551044" lon="9.008044322167775"><ele>1.0</ele><time>2026-04-18T14:40:42Z</time></trkpt><trkpt lat="39.27436736966098" lon="9.008335948051853"><ele>0.5</ele><time>2026-04-18T14:40:43Z</time></trkpt><trkpt lat="39.27440596797494" lon="9.008626702684998"><ele>0.0</ele><time>2026-04-18T14:40:44Z</time></trkpt><trkpt lat="39.274443826596716" lon="9.008919557012078"><ele>-0.5</ele><time>2026-04-18T14:40:45Z</time></trkpt><trkpt lat="39.274482035239366" lon="9.009211836859151"><ele>-1.0</ele><time>2026-04-18T14:40:46Z</time></trkpt><trkpt lat="39.27451591693536" lon="9.009504907841762"><ele>-1.0</ele><time>2026-04-18T14:40:47Z</time></trkpt><trkpt lat="39.27455901469358" lon="9.00979986312351"><ele>-1.0</ele><time>2026-04-18T14:40:48Z</time></trkpt><trkpt lat="39.27459429629198" lon="9.010095786966417"><ele>-1.5</ele><time>2026-04-18T14:40:49Z</time></trkpt><trkpt lat="39.2746454287451" lon="9.010382140394864"><ele>-2.0</ele><time>2026-04-18T14:40:50Z</time></trkpt><trkpt lat="39.2746760811102" lon="9.010674489620294"><ele>-2.0</ele><time>2026-04-18T14:40:51Z</time></trkpt><trkpt lat="39.2747114212421" lon="9.010957085997994"><ele>-2.0</ele><time>2026-04-18T14:40:52Z</time></trkpt><trkpt lat="39.27475125171677" lon="9.011234192095964"><ele>-2.0</ele><time>2026-04-18T14:40:53Z</time></trkpt><trkpt lat="39.2747835791693" lon="9.011512301777033"><ele>-1.3333333333333333</ele><time>2026-04-18T14:40:54Z</time></trkpt><trkpt lat="39.274821019100585" lon="9.011788643670373"><ele>-0.6666666666666666</ele><time>2026-04-18T14:40:55Z</time></trkpt><trkpt lat="39.27486357029576" lon="9.012059577682288"><ele>0.0</ele><time>2026-04-18T14:40:56Z</time></trkpt><trkpt lat="39.27490057197581" lon="9.012331133100238"><ele>0.0</ele><time>2026-04-18T14:40:57Z</time></trkpt><trkpt lat="39.27493848688976" lon="9.012603316171225"><ele>0.0</ele><time>2026-04-18T14:40:58Z</time></trkpt><trkpt lat="39.27497540341135" lon="9.012879283475636"><ele>0.0</ele><time>2026-04-18T14:40:59Z</time></trkpt><trkpt lat="39.275015530049956" lon="9.013152630876638"><ele>0.0</ele><time>2026-04-18T14:41:00Z</time></trkpt><trkpt lat="39.27504744960098" lon="9.013422860915162"><ele>0.0</ele><time>2026-04-18T14:41:01Z</time></trkpt><trkpt lat="39.27507956250631" lon="9.01369282307288"><ele>0.0</ele><time>2026-04-18T14:41:02Z</time></trkpt><trkpt lat="39.27511015475315" lon="9.01396813286144"><ele>1.0</ele><time>2026-04-18T14:41:03Z</time></trkpt><trkpt lat="39.27514571766986" lon="9.014238377242677"><ele>2.0</ele><time>2026-04-18T14:41:04Z</time></trkpt><trkpt lat="39.275176203059175" lon="9.01449735547578"><ele>3.0</ele><time>2026-04-18T14:41:05Z</time></trkpt><trkpt lat="39.275216856608196" lon="9.014766667683471"><ele>2.6666666666666665</ele><time>2026-04-18T14:41:06Z</time></trkpt><trkpt lat="39.27525674524368" lon="9.015038658937645"><ele>2.333333333333333</ele><time>2026-04-18T14:41:07Z</time></trkpt><trkpt lat="39.275288516995474" lon="9.015312422535208"><ele>2.0</ele><time>2026-04-18T14:41:08Z</time></trkpt><trkpt lat="39.275304138699305" lon="9.015592123295185"><ele>2.0</ele><time>2026-04-18T14:41:09Z</time></trkpt><trkpt lat="39.27535783671042" lon="9.015862404599067"><ele>2.0</ele><time>2026-04-18T14:41:10Z</time></trkpt><trkpt lat="39.27539118064493" lon="9.016141255279743"><ele>2.0</ele><time>2026-04-18T14:41:11Z</time></trkpt><trkpt lat="39.27542960424159" lon="9.016420087942432"><ele>1.3333333333333333</ele><time>2026-04-18T14:41:12Z</time></trkpt><trkpt lat="39.275474055185526" lon="9.016700682510573"><ele>0.6666666666666666</ele><time>2026-04-18T14:41:13Z</time></trkpt><trkpt lat="39.2755256443012" lon="9.01698055591622"><ele>0.0</ele><time>2026-04-18T14:41:14Z</time></trkpt><trkpt lat="39.27557864405944" lon="9.017260955431682"><ele>0.0</ele><time>2026-04-18T14:41:15Z</time></trkpt><trkpt lat="39.27563248065218" lon="9.01754038574186"><ele>0.0</ele><time>2026-04-18T14:41:16Z</time></trkpt><trkpt lat="39.27568900191548" lon="9.01782151090407"><ele>0.0</ele><time>2026-04-18T14:41:17Z</time></trkpt><trkpt lat="39.275751771881225" lon="9.018098408396867"><ele>1.0</ele><time>2026-04-18T14:41:18Z</time></trkpt><trkpt lat="39.27582152831652" lon="9.01837334409766"><ele>2.0</ele><time>2026-04-18T14:41:19Z</time></trkpt><trkpt lat="39.275893794557014" lon="9.018644274661861"><ele>3.0</ele><time>2026-04-18T14:41:20Z</time></trkpt><trkpt lat="39.275970387190505" lon="9.018909581831"><ele>3.333333333333333</ele><time>2026-04-18T14:41:21Z</time></trkpt><trkpt lat="39.27605361401519" lon="9.01917420285468"><ele>3.6666666666666665</ele><time>2026-04-18T14:41:22Z</time></trkpt><trkpt lat="39.27614422455461" lon="9.019432544352057"><ele>4.0</ele><time>2026-04-18T14:41:23Z</time></trkpt><trkpt lat="39.27623846584311" lon="9.019688088653584"><ele>4.0</ele><time>2026-04-18T14:41:24Z</time></trkpt><trkpt lat="39.276338951973216" lon="9.019942226088398"><ele>4.0</ele><time>2026-04-18T14:41:25Z</time></trkpt><trkpt lat="39.276441660999645" lon="9.020188952936971"><ele>4.0</ele><time>2026-04-18T14:41:26Z</time></trkpt><trkpt lat="39.276552856170326" lon="9.020431736163076"><ele>3.6666666666666665</ele><time>2026-04-18T14:41:27Z</time></trkpt><trkpt lat="39.27667102904351" lon="9.02066712021451"><ele>3.333333333333333</ele><time>2026-04-18T14:41:28Z</time></trkpt><trkpt lat="39.27679704898218" lon="9.020897586731575"><ele>3.0</ele><time>2026-04-18T14:41:29Z</time></trkpt><trkpt lat="39.27692980180113" lon="9.021118654355293"><ele>3.0</ele><time>2026-04-18T14:41:30Z</time></trkpt><trkpt lat="39.277067519930235" lon="9.021335648250684"><ele>3.0</ele><time>2026-04-18T14:41:31Z</time></trkpt><trkpt lat="39.27720604372382" lon="9.02154818957282"><ele>3.0</ele><time>2026-04-18T14:41:32Z</time></trkpt><trkpt lat="39.277353634195066" lon="9.021751736771607"><ele>3.666666666666667</ele><time>2026-04-18T14:41:33Z</time></trkpt><trkpt lat="39.2775090825543" lon="9.021945979888937"><ele>4.333333333333334</ele><time>2026-04-18T14:41:34Z</time></trkpt><trkpt lat="39.27766708973478" lon="9.022139271564091"><ele>5.0</ele><time>2026-04-18T14:41:35Z</time></trkpt><trkpt lat="39.27782689071443" lon="9.022327117338248"><ele>5.666666666666667</ele><time>2026-04-18T14:41:36Z</time></trkpt><trkpt lat="39.27799144842324" lon="9.022514830642"><ele>6.333333333333334</ele><time>2026-04-18T14:41:37Z</time></trkpt><trkpt lat="39.278155986433525" lon="9.022696608121896"><ele>7.0</ele><time>2026-04-18T14:41:38Z</time></trkpt><trkpt lat="39.27832680312628" lon="9.022876356288082"><ele>7.333333333333334</ele><time>2026-04-18T14:41:39Z</time></trkpt><trkpt lat="39.27850181070428" lon="9.023044636450724"><ele>7.666666666666666</ele><time>2026-04-18T14:41:40Z</time></trkpt><trkpt lat="39.27868172034709" lon="9.023210695461684"><ele>8.0</ele><time>2026-04-18T14:41:41Z</time></trkpt><trkpt lat="39.27886200700586" lon="9.023370742472277"><ele>7.666666666666666</ele><time>2026-04-18T14:41:42Z</time></trkpt><trkpt lat="39.27904792891808" lon="9.023528912232292"><ele>7.333333333333334</ele><time>2026-04-18T14:41:43Z</time></trkpt><trkpt lat="39.27923126205244" lon="9.02368620231824"><ele>7.0</ele><time>2026-04-18T14:41:44Z</time></trkpt><trkpt lat="39.27941888568399" lon="9.023836178141654"><ele>7.0</ele><time>2026-04-18T14:41:45Z</time></trkpt><trkpt lat="39.279609807025295" lon="9.023977302713686"><ele>7.0</ele><time>2026-04-18T14:41:46Z</time></trkpt><trkpt lat="39.27980629979466" lon="9.024123284402235"><ele>7.0</ele><time>2026-04-18T14:41:47Z</time></trkpt><trkpt lat="39.27999676631084" lon="9.024277844121288"><ele>6.0</ele><time>2026-04-18T14:41:48Z</time></trkpt><trkpt lat="39.2801885492504" lon="9.024429406026837"><ele>5.0</ele><time>2026-04-18T14:41:49Z</time></trkpt><trkpt lat="39.28038425661317" lon="9.024575374063451"><ele>5.0</ele><time>2026-04-18T14:41:50Z</time></trkpt><trkpt lat="39.28058171856581" lon="9.024718762795189"><ele>5.0</ele><time>2026-04-18T14:41:51Z</time></trkpt><trkpt lat="39.28077868535353" lon="9.02485151920878"><ele>5.0</ele><time>2026-04-18T14:41:52Z</time></trkpt><trkpt lat="39.28097211691594" lon="9.024990925932483"><ele>5.0</ele><time>2026-04-18T14:41:53Z</time></trkpt><trkpt lat="39.281163451361365" lon="9.025132535715933"><ele>5.0</ele><time>2026-04-18T14:41:54Z</time></trkpt><trkpt lat="39.28135307576858" lon="9.025273047413718"><ele>5.0</ele><time>2026-04-18T14:41:55Z</time></trkpt><trkpt lat="39.28154410355473" lon="9.025412163546585"><ele>5.666666666666667</ele><time>2026-04-18T14:41:56Z</time></trkpt><trkpt lat="39.28173319608267" lon="9.025548991870275"><ele>6.333333333333334</ele><time>2026-04-18T14:41:57Z</time></trkpt><trkpt lat="39.2819238614688" lon="9.025685165395632"><ele>7.0</ele><time>2026-04-18T14:41:58Z</time></trkpt><trkpt lat="39.28211365200904" lon="9.025820696211289"><ele>6.666666666666667</ele><time>2026-04-18T14:41:59Z</time></trkpt><trkpt lat="39.28230368313311" lon="9.025959587145985"><ele>6.333333333333334</ele><time>2026-04-18T14:42:00Z</time></trkpt><trkpt lat="39.28249319844156" lon="9.026100127960481"><ele>6.0</ele><time>2026-04-18T14:42:01Z</time></trkpt><trkpt lat="39.282685575026775" lon="9.026237892378015"><ele>6.0</ele><time>2026-04-18T14:42:02Z</time></trkpt><trkpt lat="39.28287854425377" lon="9.02637512203833"><ele>6.0</ele><time>2026-04-18T14:42:03Z</time></trkpt><trkpt lat="39.28307273306868" lon="9.026512105870612"><ele>6.0</ele><time>2026-04-18T14:42:04Z</time></trkpt><trkpt lat="39.28326887285907" lon="9.026651723846438"><ele>6.333333333333334</ele><time>2026-04-18T14:42:05Z</time></trkpt><trkpt lat="39.28346218742125" lon="9.026794948919916"><ele>6.666666666666667</ele><time>2026-04-18T14:42:06Z</time></trkpt><trkpt lat="39.283658395120376" lon="9.026935955971892"><ele>7.0</ele><time>2026-04-18T14:42:07Z</time></trkpt><trkpt lat="39.283853977375266" lon="9.027077519383909"><ele>7.0</ele><time>2026-04-18T14:42:08Z</time></trkpt><trkpt lat="39.28405107132702" lon="9.027219219808277"><ele>7.0</ele><time>2026-04-18T14:42:09Z</time></trkpt><trkpt lat="39.28424740427365" lon="9.02735750914259"><ele>7.0</ele><time>2026-04-18T14:42:10Z</time></trkpt><trkpt lat="39.28444404876687" lon="9.027500431648066"><ele>7.0</ele><time>2026-04-18T14:42:11Z</time></trkpt><trkpt lat="39.28463970707244" lon="9.027641865335045"><ele>7.0</ele><time>2026-04-18T14:42:12Z</time></trkpt><trkpt lat="39.28483641094814" lon="9.02778267701777"><ele>7.0</ele><time>2026-04-18T14:42:13Z</time></trkpt><trkpt lat="39.28503201993311" lon="9.027926450280185"><ele>7.0</ele><time>2026-04-18T14:42:14Z</time></trkpt><trkpt lat="39.28522866992565" lon="9.02807411729408"><ele>7.0</ele><time>2026-04-18T14:42:15Z</time></trkpt><trkpt lat="39.285424588978124" lon="9.028219626616679"><ele>7.0</ele><time>2026-04-18T14:42:16Z</time></trkpt><trkpt lat="39.285619243217525" lon="9.028368757171814"><ele>7.0</ele><time>2026-04-18T14:42:17Z</time></trkpt><trkpt lat="39.285816884543785" lon="9.028507926085883"><ele>7.0</ele><time>2026-04-18T14:42:18Z</time></trkpt><trkpt lat="39.28601007989278" lon="9.028658313083811"><ele>7.0</ele><time>2026-04-18T14:42:19Z</time></trkpt><trkpt lat="39.28620327837989" lon="9.028803170996527"><ele>7.0</ele><time>2026-04-18T14:42:20Z</time></trkpt><trkpt lat="39.28639690526547" lon="9.028950088753648"><ele>7.5</ele><time>2026-04-18T14:42:21Z</time></trkpt><trkpt lat="39.28659114091181" lon="9.029097331688284"><ele>8.0</ele><time>2026-04-18T14:42:22Z</time></trkpt><trkpt lat="39.28678558613474" lon="9.02924193976154"><ele>8.0</ele><time>2026-04-18T14:42:23Z</time></trkpt><trkpt lat="39.286981905316374" lon="9.029387032266154"><ele>8.0</ele><time>2026-04-18T14:42:24Z</time></trkpt><trkpt lat="39.28717994454241" lon="9.029528096694795"><ele>8.0</ele><time>2026-04-18T14:42:25Z</time></trkpt><trkpt lat="39.28737506527948" lon="9.029670654747637"><ele>8.0</ele><time>2026-04-18T14:42:26Z</time></trkpt><trkpt lat="39.28756628027848" lon="9.029819859728402"><ele>8.0</ele><time>2026-04-18T14:42:27Z</time></trkpt><trkpt lat="39.287765623003246" lon="9.029962599930462"><ele>8.666666666666666</ele><time>2026-04-18T14:42:28Z</time></trkpt><trkpt lat="39.287959305755926" lon="9.03010568442497"><ele>9.333333333333334</ele><time>2026-04-18T14:42:29Z</time></trkpt><trkpt lat="39.28815291211735" lon="9.030245003561433"><ele>10.0</ele><time>2026-04-18T14:42:30Z</time></trkpt><trkpt lat="39.28834946918466" lon="9.030387195487844"><ele>10.0</ele><time>2026-04-18T14:42:31Z</time></trkpt><trkpt lat="39.28854536932809" lon="9.030527215390798"><ele>10.0</ele><time>2026-04-18T14:42:32Z</time></trkpt><trkpt lat="39.28873955303934" lon="9.030667660698017"><ele>10.0</ele><time>2026-04-18T14:42:33Z</time></trkpt><trkpt lat="39.28893298618957" lon="9.030812541565096"><ele>10.666666666666668</ele><time>2026-04-18T14:42:34Z</time></trkpt><trkpt lat="39.28912430557405" lon="9.030952840286567"><ele>11.333333333333334</ele><time>2026-04-18T14:42:35Z</time></trkpt><trkpt lat="39.28931886404289" lon="9.03109555229936"><ele>12.0</ele><time>2026-04-18T14:42:36Z</time></trkpt><trkpt lat="39.28951396648131" lon="9.031235031534848"><ele>12.0</ele><time>2026-04-18T14:42:37Z</time></trkpt><trkpt lat="39.28971215342524" lon="9.03137680193523"><ele>12.0</ele><time>2026-04-18T14:42:38Z</time></trkpt><trkpt lat="39.2899028980336" lon="9.031517333204249"><ele>12.0</ele><time>2026-04-18T14:42:39Z</time></trkpt><trkpt lat="39.2900989072169" lon="9.031660342041842"><ele>12.0</ele><time>2026-04-18T14:42:40Z</time></trkpt><trkpt lat="39.290294397604576" lon="9.031802784019241"><ele>12.0</ele><time>2026-04-18T14:42:41Z</time></trkpt><trkpt lat="39.29049216465672" lon="9.031942774719374"><ele>13.0</ele><time>2026-04-18T14:42:42Z</time></trkpt><trkpt lat="39.29068848382743" lon="9.032087632346807"><ele>14.0</ele><time>2026-04-18T14:42:43Z</time></trkpt><trkpt lat="39.29088353687063" lon="9.03223207378592"><ele>14.0</ele><time>2026-04-18T14:42:44Z</time></trkpt><trkpt lat="39.291080202132186" lon="9.032381174866806"><ele>14.0</ele><time>2026-04-18T14:42:45Z</time></trkpt><trkpt lat="39.29127769687903" lon="9.032527641582172"><ele>13.0</ele><time>2026-04-18T14:42:46Z</time></trkpt><trkpt lat="39.2914760451615" lon="9.032676475674895"><ele>12.0</ele><time>2026-04-18T14:42:47Z</time></trkpt><trkpt lat="39.29168016298473" lon="9.032823178145678"><ele>12.0</ele><time>2026-04-18T14:42:48Z</time></trkpt><trkpt lat="39.29188163145893" lon="9.032966723351025"><ele>12.0</ele><time>2026-04-18T14:42:49Z</time></trkpt><trkpt lat="39.29208433152662" lon="9.033116053433446"><ele>11.0</ele><time>2026-04-18T14:42:50Z</time></trkpt><trkpt lat="39.292286781004016" lon="9.033265585338123"><ele>10.0</ele><time>2026-04-18T14:42:51Z</time></trkpt><trkpt lat="39.29248858840209" lon="9.03341476990718"><ele>10.0</ele><time>2026-04-18T14:42:52Z</time></trkpt><trkpt lat="39.29269025144792" lon="9.033562503687678"><ele>10.0</ele><time>2026-04-18T14:42:53Z</time></trkpt><trkpt lat="39.29289277177124" lon="9.03371038854656"><ele>10.0</ele><time>2026-04-18T14:42:54Z</time></trkpt><trkpt lat="39.29309568039207" lon="9.033855576734402"><ele>10.0</ele><time>2026-04-18T14:42:55Z</time></trkpt><trkpt lat="39.29329909240043" lon="9.03400113466943"><ele>11.5</ele><time>2026-04-18T14:42:56Z</time></trkpt><trkpt lat="39.29349830497796" lon="9.034150528325918"><ele>13.0</ele><time>2026-04-18T14:42:57Z</time></trkpt><trkpt lat="39.29369434434906" lon="9.034301790846431"><ele>13.0</ele><time>2026-04-18T14:42:58Z</time></trkpt><trkpt lat="39.29389470144779" lon="9.034450240395149"><ele>13.0</ele><time>2026-04-18T14:42:59Z</time></trkpt><trkpt lat="39.29409420598908" lon="9.034592366798693"><ele>13.0</ele><time>2026-04-18T14:43:00Z</time></trkpt><trkpt lat="39.294295992477515" lon="9.03473411268236"><ele>13.0</ele><time>2026-04-18T14:43:01Z</time></trkpt><trkpt lat="39.2944975565769" lon="9.034877492623929"><ele>14.0</ele><time>2026-04-18T14:43:02Z</time></trkpt><trkpt lat="39.29469665726044" lon="9.035020465013867"><ele>15.0</ele><time>2026-04-18T14:43:03Z</time></trkpt><trkpt lat="39.29489497342325" lon="9.035167584840357"><ele>15.5</ele><time>2026-04-18T14:43:04Z</time></trkpt><trkpt lat="39.29509347159784" lon="9.035312573254473"><ele>16.0</ele><time>2026-04-18T14:43:05Z</time></trkpt><trkpt lat="39.29529394001153" lon="9.035458217383885"><ele>16.0</ele><time>2026-04-18T14:43:06Z</time></trkpt><trkpt lat="39.295496563689426" lon="9.035600557885779"><ele>16.0</ele><time>2026-04-18T14:43:07Z</time></trkpt><trkpt lat="39.29569863992122" lon="9.03574376284918"><ele>16.5</ele><time>2026-04-18T14:43:08Z</time></trkpt><trkpt lat="39.29589826448846" lon="9.035889720359956"><ele>17.0</ele><time>2026-04-18T14:43:09Z</time></trkpt><trkpt lat="39.2960972180234" lon="9.03603722892276"><ele>17.0</ele><time>2026-04-18T14:43:10Z</time></trkpt><trkpt lat="39.29629392583771" lon="9.036179477189291"><ele>17.0</ele><time>2026-04-18T14:43:11Z</time></trkpt><trkpt lat="39.29648860496057" lon="9.036319876886461"><ele>17.0</ele><time>2026-04-18T14:43:12Z</time></trkpt><trkpt lat="39.29668022334109" lon="9.036459499503152"><ele>17.0</ele><time>2026-04-18T14:43:13Z</time></trkpt><trkpt lat="39.29686882957354" lon="9.036593945498037"><ele>17.0</ele><time>2026-04-18T14:43:14Z</time></trkpt><trkpt lat="39.29705606394496" lon="9.03672590206346"><ele>17.0</ele><time>2026-04-18T14:43:15Z</time></trkpt><trkpt lat="39.297240871345494" lon="9.036861175360984"><ele>19.0</ele><time>2026-04-18T14:43:16Z</time></trkpt><trkpt lat="39.29742453528385" lon="9.036987621342574"><ele>21.0</ele><time>2026-04-18T14:43:17Z</time></trkpt><trkpt lat="39.29759649678376" lon="9.037124625368497"><ele>23.0</ele><time>2026-04-18T14:43:18Z</time></trkpt><trkpt lat="39.29777886071224" lon="9.03726841621898"><ele>23.0</ele><time>2026-04-18T14:43:19Z</time></trkpt><trkpt lat="39.297965349087875" lon="9.037388846723998"><ele>23.0</ele><time>2026-04-18T14:43:20Z</time></trkpt><trkpt lat="39.298150484730876" lon="9.037512487744966"><ele>23.0</ele><time>2026-04-18T14:43:21Z</time></trkpt><trkpt lat="39.298331208492975" lon="9.037648878351584"><ele>23.0</ele><time>2026-04-18T14:43:22Z</time></trkpt><trkpt lat="39.29851497278503" lon="9.037784019277154"><ele>23.0</ele><time>2026-04-18T14:43:23Z</time></trkpt><trkpt lat="39.29869527776973" lon="9.037924048584317"><ele>23.0</ele><time>2026-04-18T14:43:24Z</time></trkpt><trkpt lat="39.29887902579947" lon="9.038061858959393"><ele>23.333333333333336</ele><time>2026-04-18T14:43:25Z</time></trkpt><trkpt lat="39.299059362933505" lon="9.03820363832871"><ele>23.666666666666668</ele><time>2026-04-18T14:43:26Z</time></trkpt><trkpt lat="39.29924479247653" lon="9.038333332961187"><ele>24.0</ele><time>2026-04-18T14:43:27Z</time></trkpt><trkpt lat="39.2994283414127" lon="9.0384660969303"><ele>24.0</ele><time>2026-04-18T14:43:28Z</time></trkpt><trkpt lat="39.2996095573414" lon="9.03860189744192"><ele>24.0</ele><time>2026-04-18T14:43:29Z</time></trkpt><trkpt lat="39.29979309430267" lon="9.038736332754041"><ele>24.0</ele><time>2026-04-18T14:43:30Z</time></trkpt><trkpt lat="39.29997629071491" lon="9.038870641973112"><ele>24.333333333333336</ele><time>2026-04-18T14:43:31Z</time></trkpt><trkpt lat="39.30015849581878" lon="9.039003168447065"><ele>24.666666666666668</ele><time>2026-04-18T14:43:32Z</time></trkpt><trkpt lat="39.300341356238455" lon="9.039136849375712"><ele>25.0</ele><time>2026-04-18T14:43:33Z</time></trkpt><trkpt lat="39.30052503804387" lon="9.039264358808948"><ele>25.0</ele><time>2026-04-18T14:43:34Z</time></trkpt><trkpt lat="39.30070878500808" lon="9.039396970806465"><ele>25.0</ele><time>2026-04-18T14:43:35Z</time></trkpt><trkpt lat="39.30089315867778" lon="9.03953020490774"><ele>25.0</ele><time>2026-04-18T14:43:36Z</time></trkpt><trkpt lat="39.301075754746726" lon="9.039668009395243"><ele>25.0</ele><time>2026-04-18T14:43:37Z</time></trkpt><trkpt lat="39.3012574695892" lon="9.039799867814802"><ele>25.0</ele><time>2026-04-18T14:43:38Z</time></trkpt><trkpt lat="39.30143992272805" lon="9.039933132193436"><ele>25.0</ele><time>2026-04-18T14:43:39Z</time></trkpt><trkpt lat="39.30162360808699" lon="9.040065448210225"><ele>24.666666666666668</ele><time>2026-04-18T14:43:40Z</time></trkpt><trkpt lat="39.30181124233822" lon="9.04020128706509"><ele>24.333333333333336</ele><time>2026-04-18T14:43:41Z</time></trkpt><trkpt lat="39.30199895590207" lon="9.040335668343483"><ele>24.0</ele><time>2026-04-18T14:43:42Z</time></trkpt><trkpt lat="39.30218476271108" lon="9.040470643111922"><ele>24.333333333333336</ele><time>2026-04-18T14:43:43Z</time></trkpt><trkpt lat="39.30237295266531" lon="9.040608404744715"><ele>24.666666666666668</ele><time>2026-04-18T14:43:44Z</time></trkpt><trkpt lat="39.302561010804006" lon="9.040744193687999"><ele>25.0</ele><time>2026-04-18T14:43:45Z</time></trkpt><trkpt lat="39.302747030282546" lon="9.040879864534556"><ele>25.0</ele><time>2026-04-18T14:43:46Z</time></trkpt><trkpt lat="39.30293474153841" lon="9.0410157929539"><ele>25.0</ele><time>2026-04-18T14:43:47Z</time></trkpt><trkpt lat="39.30312003921602" lon="9.041153538369953"><ele>25.0</ele><time>2026-04-18T14:43:48Z</time></trkpt><trkpt lat="39.3033062348387" lon="9.041294860545978"><ele>25.0</ele><time>2026-04-18T14:43:49Z</time></trkpt><trkpt lat="39.30349249513672" lon="9.041426675080565"><ele>25.0</ele><time>2026-04-18T14:43:50Z</time></trkpt><trkpt lat="39.303680096415" lon="9.041560785983242"><ele>25.0</ele><time>2026-04-18T14:43:51Z</time></trkpt><trkpt lat="39.303865451476064" lon="9.041697551847282"><ele>25.0</ele><time>2026-04-18T14:43:52Z</time></trkpt><trkpt lat="39.30405226687094" lon="9.041834961653374"><ele>25.0</ele><time>2026-04-18T14:43:53Z</time></trkpt><trkpt lat="39.30423794295657" lon="9.041969157732728"><ele>25.0</ele><time>2026-04-18T14:43:54Z</time></trkpt><trkpt lat="39.30442605600892" lon="9.042107180239876"><ele>25.0</ele><time>2026-04-18T14:43:55Z</time></trkpt><trkpt lat="39.304614751595835" lon="9.042243168411709"><ele>25.0</ele><time>2026-04-18T14:43:56Z</time></trkpt><trkpt lat="39.304800276451516" lon="9.042384597685565"><ele>25.0</ele><time>2026-04-18T14:43:57Z</time></trkpt><trkpt lat="39.304986984346066" lon="9.042520210063932"><ele>25.666666666666668</ele><time>2026-04-18T14:43:58Z</time></trkpt><trkpt lat="39.3051732675816" lon="9.042648908229438"><ele>26.333333333333336</ele><time>2026-04-18T14:43:59Z</time></trkpt><trkpt lat="39.30535572802399" lon="9.042793062801607"><ele>27.0</ele><time>2026-04-18T14:44:00Z</time></trkpt><trkpt lat="39.3055194923595" lon="9.042958794726118"><ele>27.333333333333336</ele><time>2026-04-18T14:44:01Z</time></trkpt><trkpt lat="39.3056979648643" lon="9.043104596334286"><ele>27.666666666666668</ele><time>2026-04-18T14:44:02Z</time></trkpt><trkpt lat="39.30587552715036" lon="9.04324632922532"><ele>28.0</ele><time>2026-04-18T14:44:03Z</time></trkpt><trkpt lat="39.30604865809603" lon="9.043386847888733"><ele>28.666666666666668</ele><time>2026-04-18T14:44:04Z</time></trkpt><trkpt lat="39.30621566779066" lon="9.043530877691156"><ele>29.333333333333336</ele><time>2026-04-18T14:44:05Z</time></trkpt><trkpt lat="39.30638050336456" lon="9.043674693390829"><ele>30.0</ele><time>2026-04-18T14:44:06Z</time></trkpt><trkpt lat="39.306541482746624" lon="9.043819442164779"><ele>30.0</ele><time>2026-04-18T14:44:07Z</time></trkpt><trkpt lat="39.30670177652651" lon="9.043967906135187"><ele>30.0</ele><time>2026-04-18T14:44:08Z</time></trkpt><trkpt lat="39.30685816310886" lon="9.04411787404856"><ele>30.0</ele><time>2026-04-18T14:44:09Z</time></trkpt><trkpt lat="39.30701361026293" lon="9.04427012971505"><ele>30.0</ele><time>2026-04-18T14:44:10Z</time></trkpt><trkpt lat="39.30716762694175" lon="9.044416637816523"><ele>30.0</ele><time>2026-04-18T14:44:11Z</time></trkpt><trkpt lat="39.307318593974585" lon="9.04457430501939"><ele>30.0</ele><time>2026-04-18T14:44:12Z</time></trkpt><trkpt lat="39.30746920504469" lon="9.044730929861842"><ele>30.333333333333336</ele><time>2026-04-18T14:44:13Z</time></trkpt><trkpt lat="39.30761817101095" lon="9.044890608977806"><ele>30.666666666666668</ele><time>2026-04-18T14:44:14Z</time></trkpt><trkpt lat="39.307766686547616" lon="9.045052315588428"><ele>31.0</ele><time>2026-04-18T14:44:15Z</time></trkpt><trkpt lat="39.307914550660605" lon="9.0452130325725"><ele>31.0</ele><time>2026-04-18T14:44:16Z</time></trkpt><trkpt lat="39.30805845619902" lon="9.045375899550832"><ele>31.0</ele><time>2026-04-18T14:44:17Z</time></trkpt><trkpt lat="39.30820039443" lon="9.045537718522244"><ele>31.0</ele><time>2026-04-18T14:44:18Z</time></trkpt><trkpt lat="39.30833949182994" lon="9.045703022837117"><ele>31.333333333333336</ele><time>2026-04-18T14:44:19Z</time></trkpt><trkpt lat="39.30847023375298" lon="9.045869881051138"><ele>31.666666666666664</ele><time>2026-04-18T14:44:20Z</time></trkpt><trkpt lat="39.30860459561802" lon="9.04603200480526"><ele>32.0</ele><time>2026-04-18T14:44:21Z</time></trkpt><trkpt lat="39.30873631286225" lon="9.046188390630247"><ele>32.0</ele><time>2026-04-18T14:44:22Z</time></trkpt><trkpt lat="39.308860145281024" lon="9.046353639924467"><ele>32.0</ele><time>2026-04-18T14:44:23Z</time></trkpt><trkpt lat="39.308983828727094" lon="9.046514125190004"><ele>32.0</ele><time>2026-04-18T14:44:24Z</time></trkpt><trkpt lat="39.309095278024735" lon="9.04668474271042"><ele>32.666666666666664</ele><time>2026-04-18T14:44:25Z</time></trkpt><trkpt lat="39.30921357098618" lon="9.046843020476642"><ele>33.333333333333336</ele><time>2026-04-18T14:44:26Z</time></trkpt><trkpt lat="39.30933156939279" lon="9.046999590617036"><ele>34.0</ele><time>2026-04-18T14:44:27Z</time></trkpt><trkpt lat="39.30944636554358" lon="9.047158379462047"><ele>34.0</ele><time>2026-04-18T14:44:28Z</time></trkpt><trkpt lat="39.30955643536727" lon="9.047317420009572"><ele>34.0</ele><time>2026-04-18T14:44:29Z</time></trkpt><trkpt lat="39.30966163201073" lon="9.047481512027284"><ele>34.0</ele><time>2026-04-18T14:44:30Z</time></trkpt><trkpt lat="39.309770816349044" lon="9.047648728147522"><ele>35.333333333333336</ele><time>2026-04-18T14:44:31Z</time></trkpt><trkpt lat="39.309876385599445" lon="9.04781757207679"><ele>36.666666666666664</ele><time>2026-04-18T14:44:32Z</time></trkpt><trkpt lat="39.309983728269835" lon="9.047982724566243"><ele>38.0</ele><time>2026-04-18T14:44:33Z</time></trkpt><trkpt lat="39.31009261671401" lon="9.048156394573796"><ele>38.666666666666664</ele><time>2026-04-18T14:44:34Z</time></trkpt><trkpt lat="39.31020044790163" lon="9.048323163970966"><ele>39.333333333333336</ele><time>2026-04-18T14:44:35Z</time></trkpt><trkpt lat="39.310312256945195" lon="9.04849197358744"><ele>40.0</ele><time>2026-04-18T14:44:36Z</time></trkpt><trkpt lat="39.31041181804438" lon="9.048673134709466"><ele>40.0</ele><time>2026-04-18T14:44:37Z</time></trkpt><trkpt lat="39.310515187993545" lon="9.048854411558574"><ele>40.0</ele><time>2026-04-18T14:44:38Z</time></trkpt><trkpt lat="39.310620453840045" lon="9.049036919903443"><ele>40.0</ele><time>2026-04-18T14:44:39Z</time></trkpt><trkpt lat="39.31072146194958" lon="9.049220209271798"><ele>40.0</ele><time>2026-04-18T14:44:40Z</time></trkpt><trkpt lat="39.31082620798365" lon="9.049407150491636"><ele>40.0</ele><time>2026-04-18T14:44:41Z</time></trkpt><trkpt lat="39.3109261359357" lon="9.049598500156566"><ele>40.0</ele><time>2026-04-18T14:44:42Z</time></trkpt><trkpt lat="39.311022426423484" lon="9.04978885662784"><ele>41.0</ele><time>2026-04-18T14:44:43Z</time></trkpt><trkpt lat="39.31111682875516" lon="9.049980810579557"><ele>42.0</ele><time>2026-04-18T14:44:44Z</time></trkpt><trkpt lat="39.31121331791668" lon="9.050169800839134"><ele>43.0</ele><time>2026-04-18T14:44:45Z</time></trkpt><trkpt lat="39.311311493024085" lon="9.050354539564761"><ele>43.0</ele><time>2026-04-18T14:44:46Z</time></trkpt><trkpt lat="39.31140322616745" lon="9.050541927431418"><ele>43.0</ele><time>2026-04-18T14:44:47Z</time></trkpt><trkpt lat="39.31149530447033" lon="9.050729273394298"><ele>43.0</ele><time>2026-04-18T14:44:48Z</time></trkpt><trkpt lat="39.31158356436846" lon="9.050918419962027"><ele>43.0</ele><time>2026-04-18T14:44:49Z</time></trkpt><trkpt lat="39.31166628471123" lon="9.051113428060205"><ele>43.0</ele><time>2026-04-18T14:44:50Z</time></trkpt><trkpt lat="39.31174714065074" lon="9.051314727877793"><ele>43.0</ele><time>2026-04-18T14:44:51Z</time></trkpt><trkpt lat="39.311832521095994" lon="9.051515226323213"><ele>44.0</ele><time>2026-04-18T14:44:52Z</time></trkpt><trkpt lat="39.31191721820875" lon="9.051724553116344"><ele>45.0</ele><time>2026-04-18T14:44:53Z</time></trkpt><trkpt lat="39.31200028142164" lon="9.051933321084785"><ele>46.0</ele><time>2026-04-18T14:44:54Z</time></trkpt><trkpt lat="39.31208180292916" lon="9.0521406158782"><ele>46.0</ele><time>2026-04-18T14:44:55Z</time></trkpt><trkpt lat="39.312161559544926" lon="9.052356628751081"><ele>46.0</ele><time>2026-04-18T14:44:56Z</time></trkpt><trkpt lat="39.31224208691654" lon="9.052569049613941"><ele>46.0</ele><time>2026-04-18T14:44:57Z</time></trkpt><trkpt lat="39.312319097209816" lon="9.052785007149042"><ele>48.0</ele><time>2026-04-18T14:44:58Z</time></trkpt><trkpt lat="39.31239461143837" lon="9.053000825940456"><ele>50.0</ele><time>2026-04-18T14:44:59Z</time></trkpt><trkpt lat="39.312471586870515" lon="9.053216474274986"><ele>52.0</ele><time>2026-04-18T14:45:00Z</time></trkpt><trkpt lat="39.312546517024536" lon="9.053433563542372"><ele>53.0</ele><time>2026-04-18T14:45:01Z</time></trkpt><trkpt lat="39.312618057456646" lon="9.053651624850255"><ele>54.0</ele><time>2026-04-18T14:45:02Z</time></trkpt><trkpt lat="39.31268703151684" lon="9.053869021852158"><ele>55.0</ele><time>2026-04-18T14:45:03Z</time></trkpt><trkpt lat="39.3127554768345" lon="9.054090029344142"><ele>54.666666666666664</ele><time>2026-04-18T14:45:04Z</time></trkpt><trkpt lat="39.31282063937239" lon="9.054306612069004"><ele>54.33333333333333</ele><time>2026-04-18T14:45:05Z</time></trkpt><trkpt lat="39.31288856628882" lon="9.054527090827568"><ele>54.0</ele><time>2026-04-18T14:45:06Z</time></trkpt><trkpt lat="39.312952615317286" lon="9.054746778615625"><ele>54.0</ele><time>2026-04-18T14:45:07Z</time></trkpt><trkpt lat="39.313014398201034" lon="9.054968401938808"><ele>54.0</ele><time>2026-04-18T14:45:08Z</time></trkpt><trkpt lat="39.31307057133937" lon="9.055189602836768"><ele>54.0</ele><time>2026-04-18T14:45:09Z</time></trkpt><trkpt lat="39.31312727657892" lon="9.055413741752703"><ele>54.33333333333333</ele><time>2026-04-18T14:45:10Z</time></trkpt><trkpt lat="39.31317987900994" lon="9.055637014093586"><ele>54.666666666666664</ele><time>2026-04-18T14:45:11Z</time></trkpt><trkpt lat="39.313234598975356" lon="9.055855868072715"><ele>55.0</ele><time>2026-04-18T14:45:12Z</time></trkpt><trkpt lat="39.31328553225917" lon="9.05607937235311"><ele>55.0</ele><time>2026-04-18T14:45:13Z</time></trkpt><trkpt lat="39.313343612202715" lon="9.05629884475869"><ele>55.0</ele><time>2026-04-18T14:45:14Z</time></trkpt><trkpt lat="39.313410789323406" lon="9.056509223676779"><ele>55.0</ele><time>2026-04-18T14:45:15Z</time></trkpt><trkpt lat="39.31348190893428" lon="9.056707576618377"><ele>54.666666666666664</ele><time>2026-04-18T14:45:16Z</time></trkpt><trkpt lat="39.31355998364025" lon="9.05689288661717"><ele>54.33333333333333</ele><time>2026-04-18T14:45:17Z</time></trkpt><trkpt lat="39.31365234202653" lon="9.057060841912309"><ele>54.0</ele><time>2026-04-18T14:45:18Z</time></trkpt><trkpt lat="39.313754789786906" lon="9.057216728638446"><ele>54.0</ele><time>2026-04-18T14:45:19Z</time></trkpt><trkpt lat="39.313854132353434" lon="9.057367632723075"><ele>54.0</ele><time>2026-04-18T14:45:20Z</time></trkpt><trkpt lat="39.31395354911446" lon="9.057506029495537"><ele>54.0</ele><time>2026-04-18T14:45:21Z</time></trkpt><trkpt lat="39.31407041370581" lon="9.05763158311294"><ele>54.0</ele><time>2026-04-18T14:45:22Z</time></trkpt><trkpt lat="39.31414434554316" lon="9.057769050312531"><ele>54.0</ele><time>2026-04-18T14:45:23Z</time></trkpt><trkpt lat="39.31420102553152" lon="9.057912368552609"><ele>54.0</ele><time>2026-04-18T14:45:24Z</time></trkpt><trkpt lat="39.31422133856906" lon="9.058072330460014"><ele>54.0</ele><time>2026-04-18T14:45:25Z</time></trkpt><trkpt lat="39.31421049187389" lon="9.058229765852625"><ele>54.0</ele><time>2026-04-18T14:45:26Z</time></trkpt><trkpt lat="39.31416472557895" lon="9.058377941337437"><ele>54.0</ele><time>2026-04-18T14:45:27Z</time></trkpt><trkpt lat="39.3141365267394" lon="9.058554525032099"><ele>54.0</ele><time>2026-04-18T14:45:28Z</time></trkpt><trkpt lat="39.314079352106745" lon="9.058730301273684"><ele>54.0</ele><time>2026-04-18T14:45:29Z</time></trkpt><trkpt lat="39.31406080000163" lon="9.058937488532186"><ele>54.33333333333333</ele><time>2026-04-18T14:45:30Z</time></trkpt><trkpt lat="39.31404632692911" lon="9.05914394369425"><ele>54.666666666666664</ele><time>2026-04-18T14:45:31Z</time></trkpt><trkpt lat="39.31404048591835" lon="9.059356118299856"><ele>55.0</ele><time>2026-04-18T14:45:32Z</time></trkpt><trkpt lat="39.31404240268049" lon="9.059567483909078"><ele>55.0</ele><time>2026-04-18T14:45:33Z</time></trkpt><trkpt lat="39.31404932085899" lon="9.059788048912607"><ele>55.0</ele><time>2026-04-18T14:45:34Z</time></trkpt><trkpt lat="39.31405878328371" lon="9.060005521848412"><ele>55.0</ele><time>2026-04-18T14:45:35Z</time></trkpt><trkpt lat="39.31406677190918" lon="9.060229054063894"><ele>54.666666666666664</ele><time>2026-04-18T14:45:36Z</time></trkpt><trkpt lat="39.3140723095645" lon="9.060453302697358"><ele>54.33333333333333</ele><time>2026-04-18T14:45:37Z</time></trkpt><trkpt lat="39.31408394525181" lon="9.060677171280608"><ele>54.0</ele><time>2026-04-18T14:45:38Z</time></trkpt><trkpt lat="39.314113727271376" lon="9.060888524416056"><ele>53.0</ele><time>2026-04-18T14:45:39Z</time></trkpt><trkpt lat="39.31416325786258" lon="9.061093114580052"><ele>52.0</ele><time>2026-04-18T14:45:40Z</time></trkpt><trkpt lat="39.31423322275794" lon="9.061282986937002"><ele>51.0</ele><time>2026-04-18T14:45:41Z</time></trkpt><trkpt lat="39.31432547242884" lon="9.06145039682251"><ele>51.0</ele><time>2026-04-18T14:45:42Z</time></trkpt><trkpt lat="39.31443794560664" lon="9.061595974055829"><ele>51.0</ele><time>2026-04-18T14:45:43Z</time></trkpt><trkpt lat="39.31455690275068" lon="9.0617102365979"><ele>51.0</ele><time>2026-04-18T14:45:44Z</time></trkpt><trkpt lat="39.314675014025035" lon="9.061808785079755"><ele>51.0</ele><time>2026-04-18T14:45:45Z</time></trkpt><trkpt lat="39.31478929280457" lon="9.061906513666719"><ele>51.25</ele><time>2026-04-18T14:45:46Z</time></trkpt><trkpt lat="39.314890094150016" lon="9.062012842737136"><ele>51.5</ele><time>2026-04-18T14:45:47Z</time></trkpt><trkpt lat="39.31495623030297" lon="9.062151645003576"><ele>51.75</ele><time>2026-04-18T14:45:48Z</time></trkpt><trkpt lat="39.314982476321035" lon="9.062319956584219"><ele>52.0</ele><time>2026-04-18T14:45:49Z</time></trkpt><trkpt lat="39.31496752063129" lon="9.062493747179216"><ele>52.0</ele><time>2026-04-18T14:45:50Z</time></trkpt><trkpt lat="39.31490915506401" lon="9.062645256644101"><ele>52.0</ele><time>2026-04-18T14:45:51Z</time></trkpt><trkpt lat="39.31481223943999" lon="9.062771561202275"><ele>52.0</ele><time>2026-04-18T14:45:52Z</time></trkpt><trkpt lat="39.314688926200375" lon="9.06288067075282"><ele>52.0</ele><time>2026-04-18T14:45:53Z</time></trkpt><trkpt lat="39.31457207985969" lon="9.063004870633655"><ele>51.0</ele><time>2026-04-18T14:45:54Z</time></trkpt><trkpt lat="39.314454526365786" lon="9.063137675024436"><ele>50.0</ele><time>2026-04-18T14:45:55Z</time></trkpt><trkpt lat="39.31433172557212" lon="9.063273467024493"><ele>49.0</ele><time>2026-04-18T14:45:56Z</time></trkpt><trkpt lat="39.314202408750084" lon="9.063405838869985"><ele>49.0</ele><time>2026-04-18T14:45:57Z</time></trkpt><trkpt lat="39.31406757851518" lon="9.063542123609372"><ele>49.0</ele><time>2026-04-18T14:45:58Z</time></trkpt><trkpt lat="39.31393495702099" lon="9.063678961008913"><ele>49.0</ele><time>2026-04-18T14:45:59Z</time></trkpt><trkpt lat="39.313802286350864" lon="9.063822004126523"><ele>48.0</ele><time>2026-04-18T14:46:00Z</time></trkpt><trkpt lat="39.31366912893876" lon="9.063968296676107"><ele>47.0</ele><time>2026-04-18T14:46:01Z</time></trkpt><trkpt lat="39.313533045522135" lon="9.064112166821335"><ele>46.0</ele><time>2026-04-18T14:46:02Z</time></trkpt><trkpt lat="39.313399245987554" lon="9.06424719234052"><ele>45.66666666666667</ele><time>2026-04-18T14:46:03Z</time></trkpt><trkpt lat="39.313268392093896" lon="9.064381287418616"><ele>45.333333333333336</ele><time>2026-04-18T14:46:04Z</time></trkpt><trkpt lat="39.31313654566056" lon="9.06452026221924"><ele>45.0</ele><time>2026-04-18T14:46:05Z</time></trkpt><trkpt lat="39.31300164887221" lon="9.064665890150277"><ele>45.0</ele><time>2026-04-18T14:46:06Z</time></trkpt><trkpt lat="39.31286046268434" lon="9.06481227481936"><ele>45.0</ele><time>2026-04-18T14:46:07Z</time></trkpt><trkpt lat="39.31270889583455" lon="9.064950040796608"><ele>45.0</ele><time>2026-04-18T14:46:08Z</time></trkpt><trkpt lat="39.312544975744096" lon="9.065071287513213"><ele>45.0</ele><time>2026-04-18T14:46:09Z</time></trkpt><trkpt lat="39.31237521540419" lon="9.065182543622619"><ele>45.0</ele><time>2026-04-18T14:46:10Z</time></trkpt><trkpt lat="39.3122017071057" lon="9.065290462679027"><ele>45.0</ele><time>2026-04-18T14:46:11Z</time></trkpt><trkpt lat="39.31202972232469" lon="9.065400895526412"><ele>44.0</ele><time>2026-04-18T14:46:12Z</time></trkpt><trkpt lat="39.31186229948275" lon="9.065511534975426"><ele>43.0</ele><time>2026-04-18T14:46:13Z</time></trkpt><trkpt lat="39.31169665087647" lon="9.065619941481796"><ele>42.0</ele><time>2026-04-18T14:46:14Z</time></trkpt><trkpt lat="39.311532985183824" lon="9.065723913054706"><ele>42.666666666666664</ele><time>2026-04-18T14:46:15Z</time></trkpt><trkpt lat="39.31136767881756" lon="9.065829724978187"><ele>43.33333333333333</ele><time>2026-04-18T14:46:16Z</time></trkpt><trkpt lat="39.311217723183844" lon="9.065947665887096"><ele>44.0</ele><time>2026-04-18T14:46:17Z</time></trkpt><trkpt lat="39.31108152588132" lon="9.066105787837321"><ele>44.0</ele><time>2026-04-18T14:46:18Z</time></trkpt><trkpt lat="39.31097728166441" lon="9.066299956965077"><ele>44.0</ele><time>2026-04-18T14:46:19Z</time></trkpt><trkpt lat="39.310903660712604" lon="9.066521121341538"><ele>44.0</ele><time>2026-04-18T14:46:20Z</time></trkpt><trkpt lat="39.31086178244874" lon="9.066752540163353"><ele>44.33333333333333</ele><time>2026-04-18T14:46:21Z</time></trkpt><trkpt lat="39.31084680477463" lon="9.06699338865786"><ele>44.666666666666664</ele><time>2026-04-18T14:46:22Z</time></trkpt><trkpt lat="39.31085071097846" lon="9.067241748994693"><ele>45.0</ele><time>2026-04-18T14:46:23Z</time></trkpt><trkpt lat="39.31085283646942" lon="9.067490954288512"><ele>45.0</ele><time>2026-04-18T14:46:24Z</time></trkpt><trkpt lat="39.31084037479514" lon="9.067739501583684"><ele>45.0</ele><time>2026-04-18T14:46:25Z</time></trkpt><trkpt lat="39.31081500039566" lon="9.067988355697109"><ele>45.0</ele><time>2026-04-18T14:46:26Z</time></trkpt><trkpt lat="39.31077503509145" lon="9.068234448945407"><ele>44.666666666666664</ele><time>2026-04-18T14:46:27Z</time></trkpt><trkpt lat="39.31071021357163" lon="9.068472099885499"><ele>44.33333333333333</ele><time>2026-04-18T14:46:28Z</time></trkpt><trkpt lat="39.310635578200326" lon="9.068706512041727"><ele>44.0</ele><time>2026-04-18T14:46:29Z</time></trkpt><trkpt lat="39.31056832260589" lon="9.068941308374194"><ele>44.0</ele><time>2026-04-18T14:46:30Z</time></trkpt><trkpt lat="39.31049836450164" lon="9.069180071841116"><ele>44.0</ele><time>2026-04-18T14:46:31Z</time></trkpt><trkpt lat="39.310425941927456" lon="9.069421043505457"><ele>44.0</ele><time>2026-04-18T14:46:32Z</time></trkpt><trkpt lat="39.31035341219511" lon="9.069666042016612"><ele>44.0</ele><time>2026-04-18T14:46:33Z</time></trkpt><trkpt lat="39.31028049901933" lon="9.069914792791211"><ele>44.0</ele><time>2026-04-18T14:46:34Z</time></trkpt><trkpt lat="39.31020744715355" lon="9.070164027786332"><ele>44.0</ele><time>2026-04-18T14:46:35Z</time></trkpt><trkpt lat="39.31013154780354" lon="9.070415599664091"><ele>44.0</ele><time>2026-04-18T14:46:36Z</time></trkpt><trkpt lat="39.31005464788824" lon="9.070665326448418"><ele>44.0</ele><time>2026-04-18T14:46:37Z</time></trkpt><trkpt lat="39.30997884884119" lon="9.070911272454321"><ele>44.0</ele><time>2026-04-18T14:46:38Z</time></trkpt><trkpt lat="39.30990419087191" lon="9.071155924407265"><ele>44.0</ele><time>2026-04-18T14:46:39Z</time></trkpt><trkpt lat="39.309833192230656" lon="9.071397890471719"><ele>44.0</ele><time>2026-04-18T14:46:40Z</time></trkpt><trkpt lat="39.30976410624242" lon="9.071637277496377"><ele>44.0</ele><time>2026-04-18T14:46:41Z</time></trkpt><trkpt lat="39.309691613366994" lon="9.071871937217852"><ele>44.666666666666664</ele><time>2026-04-18T14:46:42Z</time></trkpt><trkpt lat="39.30962169758349" lon="9.072104291396695"><ele>45.333333333333336</ele><time>2026-04-18T14:46:43Z</time></trkpt><trkpt lat="39.309563824878325" lon="9.072337178992086"><ele>46.0</ele><time>2026-04-18T14:46:44Z</time></trkpt><trkpt lat="39.30951459751996" lon="9.072569950037046"><ele>46.0</ele><time>2026-04-18T14:46:45Z</time></trkpt><trkpt lat="39.30947577303146" lon="9.072805862987678"><ele>46.0</ele><time>2026-04-18T14:46:46Z</time></trkpt><trkpt lat="39.30944921844192" lon="9.073040252788296"><ele>46.0</ele><time>2026-04-18T14:46:47Z</time></trkpt><trkpt lat="39.30943057210739" lon="9.073278437852096"><ele>46.0</ele><time>2026-04-18T14:46:48Z</time></trkpt><trkpt lat="39.309414865918555" lon="9.073518199302207"><ele>46.0</ele><time>2026-04-18T14:46:49Z</time></trkpt><trkpt lat="39.309401571675174" lon="9.073758419691746"><ele>46.0</ele><time>2026-04-18T14:46:50Z</time></trkpt><trkpt lat="39.30938999027277" lon="9.074002127157843"><ele>45.66666666666667</ele><time>2026-04-18T14:46:51Z</time></trkpt><trkpt lat="39.30937367486835" lon="9.074244048999589"><ele>45.333333333333336</ele><time>2026-04-18T14:46:52Z</time></trkpt><trkpt lat="39.30935730756702" lon="9.07448296370968"><ele>45.0</ele><time>2026-04-18T14:46:53Z</time></trkpt><trkpt lat="39.30933778283819" lon="9.074718781899499"><ele>44.0</ele><time>2026-04-18T14:46:54Z</time></trkpt><trkpt lat="39.30931849183621" lon="9.074954145310103"><ele>43.0</ele><time>2026-04-18T14:46:55Z</time></trkpt><trkpt lat="39.309297781335935" lon="9.075183974526254"><ele>42.0</ele><time>2026-04-18T14:46:56Z</time></trkpt><trkpt lat="39.30926658373832" lon="9.075411984039437"><ele>42.0</ele><time>2026-04-18T14:46:57Z</time></trkpt><trkpt lat="39.309210001937025" lon="9.075629689371619"><ele>42.0</ele><time>2026-04-18T14:46:58Z</time></trkpt><trkpt lat="39.30917150194941" lon="9.075849983719408"><ele>42.0</ele><time>2026-04-18T14:46:59Z</time></trkpt><trkpt lat="39.30910390283664" lon="9.076056509918892"><ele>42.0</ele><time>2026-04-18T14:47:00Z</time></trkpt><trkpt lat="39.309035018233686" lon="9.07626907426874"><ele>42.0</ele><time>2026-04-18T14:47:01Z</time></trkpt><trkpt lat="39.30896641463622" lon="9.076485695983541"><ele>42.0</ele><time>2026-04-18T14:47:02Z</time></trkpt><trkpt lat="39.308895115291605" lon="9.076700324707751"><ele>42.333333333333336</ele><time>2026-04-18T14:47:03Z</time></trkpt><trkpt lat="39.308824347349145" lon="9.076918558044683"><ele>42.66666666666667</ele><time>2026-04-18T14:47:04Z</time></trkpt><trkpt lat="39.30875452419581" lon="9.07714148341775"><ele>43.0</ele><time>2026-04-18T14:47:05Z</time></trkpt><trkpt lat="39.30868595782661" lon="9.077361776302286"><ele>42.0</ele><time>2026-04-18T14:47:06Z</time></trkpt><trkpt lat="39.30861603091225" lon="9.077583086957574"><ele>41.0</ele><time>2026-04-18T14:47:07Z</time></trkpt><trkpt lat="39.30854701575915" lon="9.077805578546304"><ele>40.0</ele><time>2026-04-18T14:47:08Z</time></trkpt><trkpt lat="39.30847753651393" lon="9.078023540468665"><ele>40.0</ele><time>2026-04-18T14:47:09Z</time></trkpt><trkpt lat="39.308406920735585" lon="9.078242265255815"><ele>40.0</ele><time>2026-04-18T14:47:10Z</time></trkpt><trkpt lat="39.3083357296382" lon="9.078456710910352"><ele>40.0</ele><time>2026-04-18T14:47:11Z</time></trkpt><trkpt lat="39.30826576597301" lon="9.078671229317983"><ele>39.333333333333336</ele><time>2026-04-18T14:47:12Z</time></trkpt><trkpt lat="39.30819539874374" lon="9.078888281948101"><ele>38.666666666666664</ele><time>2026-04-18T14:47:13Z</time></trkpt><trkpt lat="39.30812126627514" lon="9.079114023800667"><ele>38.0</ele><time>2026-04-18T14:47:14Z</time></trkpt><trkpt lat="39.30804543167333" lon="9.079339592490747"><ele>38.0</ele><time>2026-04-18T14:47:15Z</time></trkpt><trkpt lat="39.3079699711466" lon="9.079569146002473"><ele>38.0</ele><time>2026-04-18T14:47:16Z</time></trkpt><trkpt lat="39.30789712995448" lon="9.079803559885617"><ele>38.0</ele><time>2026-04-18T14:47:17Z</time></trkpt><trkpt lat="39.307825624675495" lon="9.080040251769956"><ele>38.0</ele><time>2026-04-18T14:47:18Z</time></trkpt><trkpt lat="39.30775289838324" lon="9.080275712982944"><ele>38.0</ele><time>2026-04-18T14:47:19Z</time></trkpt><trkpt lat="39.30767941184817" lon="9.080507170550497"><ele>38.0</ele><time>2026-04-18T14:47:20Z</time></trkpt><trkpt lat="39.30760840811025" lon="9.08073930977368"><ele>37.33333333333333</ele><time>2026-04-18T14:47:21Z</time></trkpt><trkpt lat="39.30753877329606" lon="9.080972176688295"><ele>36.666666666666664</ele><time>2026-04-18T14:47:22Z</time></trkpt><trkpt lat="39.30746830464921" lon="9.081203291659508"><ele>36.0</ele><time>2026-04-18T14:47:23Z</time></trkpt><trkpt lat="39.30740030265175" lon="9.081431997774748"><ele>35.333333333333336</ele><time>2026-04-18T14:47:24Z</time></trkpt><trkpt lat="39.30733960273458" lon="9.081649404642604"><ele>34.66666666666667</ele><time>2026-04-18T14:47:25Z</time></trkpt><trkpt lat="39.30728373844218" lon="9.081855338506674"><ele>34.0</ele><time>2026-04-18T14:47:26Z</time></trkpt><trkpt lat="39.30723105480613" lon="9.082056344258975"><ele>34.0</ele><time>2026-04-18T14:47:27Z</time></trkpt><trkpt lat="39.307179686539946" lon="9.082256006335044"><ele>34.0</ele><time>2026-04-18T14:47:28Z</time></trkpt><trkpt lat="39.30712986624166" lon="9.08245508922906"><ele>34.0</ele><time>2026-04-18T14:47:29Z</time></trkpt><trkpt lat="39.30708058928533" lon="9.082650943771815"><ele>34.5</ele><time>2026-04-18T14:47:30Z</time></trkpt><trkpt lat="39.30703087443033" lon="9.082837284735575"><ele>35.0</ele><time>2026-04-18T14:47:31Z</time></trkpt><trkpt lat="39.30698341339289" lon="9.083018605436575"><ele>35.5</ele><time>2026-04-18T14:47:32Z</time></trkpt><trkpt lat="39.30693973333415" lon="9.083198291121876"><ele>36.0</ele><time>2026-04-18T14:47:33Z</time></trkpt><trkpt lat="39.30690318225232" lon="9.083371780072438"><ele>36.0</ele><time>2026-04-18T14:47:34Z</time></trkpt><trkpt lat="39.30686445954369" lon="9.083541998516488"><ele>36.0</ele><time>2026-04-18T14:47:35Z</time></trkpt><trkpt lat="39.3068218880744" lon="9.083711897630108"><ele>36.0</ele><time>2026-04-18T14:47:36Z</time></trkpt><trkpt lat="39.306770282952066" lon="9.083879841243427"><ele>36.0</ele><time>2026-04-18T14:47:37Z</time></trkpt><trkpt lat="39.30673328535169" lon="9.08404410182974"><ele>36.75</ele><time>2026-04-18T14:47:38Z</time></trkpt><trkpt lat="39.30669171297587" lon="9.08420959721481"><ele>37.5</ele><time>2026-04-18T14:47:39Z</time></trkpt><trkpt lat="39.306649418990105" lon="9.084368725137761"><ele>38.25</ele><time>2026-04-18T14:47:40Z</time></trkpt><trkpt lat="39.30660962570659" lon="9.084524197655963"><ele>39.0</ele><time>2026-04-18T14:47:41Z</time></trkpt><trkpt lat="39.30657154137821" lon="9.084677643015834"><ele>39.0</ele><time>2026-04-18T14:47:42Z</time></trkpt><trkpt lat="39.30653411992235" lon="9.084835865342486"><ele>39.0</ele><time>2026-04-18T14:47:43Z</time></trkpt><trkpt lat="39.30650620586842" lon="9.084998410233796"><ele>39.0</ele><time>2026-04-18T14:47:44Z</time></trkpt><trkpt lat="39.30649082952519" lon="9.085165601850326"><ele>39.0</ele><time>2026-04-18T14:47:45Z</time></trkpt><trkpt lat="39.306486479520395" lon="9.085333958054642"><ele>38.75</ele><time>2026-04-18T14:47:46Z</time></trkpt><trkpt lat="39.30649696017241" lon="9.085500124379061"><ele>38.5</ele><time>2026-04-18T14:47:47Z</time></trkpt><trkpt lat="39.30652294538661" lon="9.085664423022935"><ele>38.25</ele><time>2026-04-18T14:47:48Z</time></trkpt><trkpt lat="39.30655796560092" lon="9.085825998875622"><ele>38.0</ele><time>2026-04-18T14:47:49Z</time></trkpt><trkpt lat="39.30660539271433" lon="9.085983136493095"><ele>38.0</ele><time>2026-04-18T14:47:50Z</time></trkpt><trkpt lat="39.3066626824192" lon="9.086129362396637"><ele>38.0</ele><time>2026-04-18T14:47:51Z</time></trkpt><trkpt lat="39.30672724949092" lon="9.086266910713157"><ele>38.0</ele><time>2026-04-18T14:47:52Z</time></trkpt><trkpt lat="39.30679802132335" lon="9.08640082323642"><ele>38.0</ele><time>2026-04-18T14:47:53Z</time></trkpt><trkpt lat="39.3068607251017" lon="9.086528096564148"><ele>38.25</ele><time>2026-04-18T14:47:54Z</time></trkpt><trkpt lat="39.30692329775548" lon="9.086656680694013"><ele>38.5</ele><time>2026-04-18T14:47:55Z</time></trkpt><trkpt lat="39.30698393020685" lon="9.086782888729017"><ele>38.75</ele><time>2026-04-18T14:47:56Z</time></trkpt><trkpt lat="39.307025257009464" lon="9.086913776541815"><ele>39.0</ele><time>2026-04-18T14:47:57Z</time></trkpt><trkpt lat="39.30706865942731" lon="9.087048855611448"><ele>39.0</ele><time>2026-04-18T14:47:58Z</time></trkpt><trkpt lat="39.30709439814869" lon="9.087162962673437"><ele>39.0</ele><time>2026-04-18T14:47:59Z</time></trkpt><trkpt lat="39.307085969492" lon="9.087282995242164"><ele>39.0</ele><time>2026-04-18T14:48:00Z</time></trkpt><trkpt lat="39.307064796722685" lon="9.087398763869839"><ele>39.0</ele><time>2026-04-18T14:48:01Z</time></trkpt><trkpt lat="39.30702430391365" lon="9.08749269546722"><ele>39.0</ele><time>2026-04-18T14:48:02Z</time></trkpt><trkpt lat="39.30697041869264" lon="9.087576082684322"><ele>39.0</ele><time>2026-04-18T14:48:03Z</time></trkpt><trkpt lat="39.306903760565106" lon="9.087653523080585"><ele>39.166666666666664</ele><time>2026-04-18T14:48:04Z</time></trkpt><trkpt lat="39.30682944172055" lon="9.087716459147769"><ele>39.333333333333336</ele><time>2026-04-18T14:48:05Z</time></trkpt><trkpt lat="39.30675371527092" lon="9.087774615067202"><ele>39.5</ele><time>2026-04-18T14:48:06Z</time></trkpt><trkpt lat="39.30668458710643" lon="9.0878364209424"><ele>39.66666666666667</ele><time>2026-04-18T14:48:07Z</time></trkpt><trkpt lat="39.30661448499821" lon="9.087900372222668"><ele>39.833333333333336</ele><time>2026-04-18T14:48:08Z</time></trkpt><trkpt lat="39.30654355994328" lon="9.08796499033934"><ele>40.0</ele><time>2026-04-18T14:48:09Z</time></trkpt><trkpt lat="39.306477073323975" lon="9.088029981036064"><ele>40.0</ele><time>2026-04-18T14:48:10Z</time></trkpt><trkpt lat="39.306411972948936" lon="9.088094053868742"><ele>40.0</ele><time>2026-04-18T14:48:11Z</time></trkpt><trkpt lat="39.306344596991195" lon="9.088152695544654"><ele>40.0</ele><time>2026-04-18T14:48:12Z</time></trkpt><trkpt lat="39.30627380898539" lon="9.088212435017022"><ele>40.0</ele><time>2026-04-18T14:48:13Z</time></trkpt><trkpt lat="39.30620038823063" lon="9.088271686384399"><ele>40.0</ele><time>2026-04-18T14:48:14Z</time></trkpt><trkpt lat="39.30612322040435" lon="9.088329232515173"><ele>40.0</ele><time>2026-04-18T14:48:15Z</time></trkpt><trkpt lat="39.306044648667175" lon="9.088392168094554"><ele>40.4</ele><time>2026-04-18T14:48:16Z</time></trkpt><trkpt lat="39.305968683925" lon="9.08846036371484"><ele>40.8</ele><time>2026-04-18T14:48:17Z</time></trkpt><trkpt lat="39.30589084695168" lon="9.088528934805"><ele>41.2</ele><time>2026-04-18T14:48:18Z</time></trkpt><trkpt lat="39.30581726542258" lon="9.088599303427344"><ele>41.6</ele><time>2026-04-18T14:48:19Z</time></trkpt><trkpt lat="39.30574903265309" lon="9.088675894209723"><ele>42.0</ele><time>2026-04-18T14:48:20Z</time></trkpt><trkpt lat="39.30567715794087" lon="9.088744192003"><ele>42.0</ele><time>2026-04-18T14:48:21Z</time></trkpt><trkpt lat="39.30560832348437" lon="9.088813635950686"><ele>42.0</ele><time>2026-04-18T14:48:22Z</time></trkpt><trkpt lat="39.30554203850718" lon="9.088888738312779"><ele>42.0</ele><time>2026-04-18T14:48:23Z</time></trkpt><trkpt lat="39.30547508491537" lon="9.088960262602097"><ele>42.0</ele><time>2026-04-18T14:48:24Z</time></trkpt><trkpt lat="39.30540681049576" lon="9.089030614156293"><ele>42.0</ele><time>2026-04-18T14:48:25Z</time></trkpt><trkpt lat="39.305342556577706" lon="9.089105068129891"><ele>42.0</ele><time>2026-04-18T14:48:26Z</time></trkpt><trkpt lat="39.30527623236006" lon="9.089177050957108"><ele>42.166666666666664</ele><time>2026-04-18T14:48:27Z</time></trkpt><trkpt lat="39.30521061824733" lon="9.089250516058208"><ele>42.333333333333336</ele><time>2026-04-18T14:48:28Z</time></trkpt><trkpt lat="39.30514491047591" lon="9.0893225106506"><ele>42.5</ele><time>2026-04-18T14:48:29Z</time></trkpt><trkpt lat="39.305079715848336" lon="9.08939400263543"><ele>42.66666666666667</ele><time>2026-04-18T14:48:30Z</time></trkpt><trkpt lat="39.30501250197166" lon="9.089463065013966"><ele>42.833333333333336</ele><time>2026-04-18T14:48:31Z</time></trkpt><trkpt lat="39.304938877718904" lon="9.089523583217835"><ele>43.0</ele><time>2026-04-18T14:48:32Z</time></trkpt><trkpt lat="39.30486564011049" lon="9.089588528063043"><ele>43.0</ele><time>2026-04-18T14:48:33Z</time></trkpt><trkpt lat="39.30479171119672" lon="9.089658650312888"><ele>43.0</ele><time>2026-04-18T14:48:34Z</time></trkpt><trkpt lat="39.30472054784678" lon="9.089724593699497"><ele>43.0</ele><time>2026-04-18T14:48:35Z</time></trkpt><trkpt lat="39.304656160881194" lon="9.089792369594308"><ele>43.0</ele><time>2026-04-18T14:48:36Z</time></trkpt><trkpt lat="39.30459792124765" lon="9.089855461432197"><ele>43.0</ele><time>2026-04-18T14:48:37Z</time></trkpt><trkpt lat="39.30457631764264" lon="9.089945571156045"><ele>43.0</ele><time>2026-04-18T14:48:38Z</time></trkpt><trkpt lat="39.304544010246325" lon="9.090019256165856"><ele>43.0</ele><time>2026-04-18T14:48:39Z</time></trkpt><trkpt lat="39.30454318742307" lon="9.090119930666445"><ele>43.0</ele><time>2026-04-18T14:48:40Z</time></trkpt><trkpt lat="39.30454768121777" lon="9.090234045417931"><ele>43.0</ele><time>2026-04-18T14:48:41Z</time></trkpt><trkpt lat="39.30454466545559" lon="9.09034563899685"><ele>43.0</ele><time>2026-04-18T14:48:42Z</time></trkpt><trkpt lat="39.30453759128881" lon="9.090454193270682"><ele>43.0</ele><time>2026-04-18T14:48:43Z</time></trkpt><trkpt lat="39.30453010446074" lon="9.090554654776785"><ele>43.0</ele><time>2026-04-18T14:48:44Z</time></trkpt><trkpt lat="39.30453073522052" lon="9.090649019288199"><ele>43.16666666666667</ele><time>2026-04-18T14:48:45Z</time></trkpt><trkpt lat="39.304528396227454" lon="9.090765065537028"><ele>43.333333333333336</ele><time>2026-04-18T14:48:47Z</time></trkpt><trkpt lat="39.30452301742546" lon="9.0908637833236"><ele>43.5</ele><time>2026-04-18T14:48:50Z</time></trkpt><trkpt lat="39.304527664703784" lon="9.090947262633758"><ele>43.666666666666664</ele><time>2026-04-18T14:48:54Z</time></trkpt><trkpt lat="39.30451406831909" lon="9.091039656330517"><ele>43.83333333333333</ele><time>2026-04-18T14:48:58Z</time></trkpt><trkpt lat="39.30438220299006" lon="9.091097840544364"><ele>44.0</ele><time>2026-04-18T14:49:00Z</time></trkpt><trkpt lat="39.30431696140338" lon="9.091134021803832"><ele>44.0</ele><time>2026-04-18T14:49:01Z</time></trkpt><trkpt lat="39.30424328872318" lon="9.091175993804898"><ele>44.0</ele><time>2026-04-18T14:49:02Z</time></trkpt><trkpt lat="39.30416916849017" lon="9.091204002154546"><ele>44.0</ele><time>2026-04-18T14:49:03Z</time></trkpt><trkpt lat="39.3040869359778" lon="9.091219698654388"><ele>44.0</ele><time>2026-04-18T14:49:04Z</time></trkpt><trkpt lat="39.30400062641227" lon="9.091235344150387"><ele>44.0</ele><time>2026-04-18T14:49:05Z</time></trkpt><trkpt lat="39.30392160268953" lon="9.091246082167931"><ele>44.0</ele><time>2026-04-18T14:49:06Z</time></trkpt><trkpt lat="39.303845423513096" lon="9.091255953825483"><ele>43.85714285714286</ele><time>2026-04-18T14:49:07Z</time></trkpt><trkpt lat="39.303768310989405" lon="9.091261471010563"><ele>43.714285714285715</ele><time>2026-04-18T14:49:08Z</time></trkpt><trkpt lat="39.30368521632748" lon="9.091256644752663"><ele>43.57142857142857</ele><time>2026-04-18T14:49:09Z</time></trkpt><trkpt lat="39.30360564329345" lon="9.091245434762966"><ele>43.42857142857143</ele><time>2026-04-18T14:49:10Z</time></trkpt><trkpt lat="39.30353403578208" lon="9.091232531276221"><ele>43.285714285714285</ele><time>2026-04-18T14:49:11Z</time></trkpt><trkpt lat="39.30346878555428" lon="9.091206860904492"><ele>43.142857142857146</ele><time>2026-04-18T14:49:12Z</time></trkpt><trkpt lat="39.303412361812825" lon="9.091170475341386"><ele>43.0</ele><time>2026-04-18T14:49:13Z</time></trkpt><trkpt lat="39.30329772740949" lon="9.091105360241139"><ele>43.0</ele><time>2026-04-18T14:49:15Z</time></trkpt><trkpt lat="39.30317122300576" lon="9.091115115966984"><ele>43.0</ele><time>2026-04-18T14:49:17Z</time></trkpt><trkpt lat="39.30310574665392" lon="9.091151955077816"><ele>43.0</ele><time>2026-04-18T14:49:18Z</time></trkpt><trkpt lat="39.303027620141656" lon="9.091201825924054"><ele>43.0</ele><time>2026-04-18T14:49:19Z</time></trkpt><trkpt lat="39.302954094626834" lon="9.091243531827585"><ele>43.0</ele><time>2026-04-18T14:49:20Z</time></trkpt><trkpt lat="39.30288025655263" lon="9.091289202894185"><ele>43.0</ele><time>2026-04-18T14:49:21Z</time></trkpt><trkpt lat="39.30280911801674" lon="9.091341231289737"><ele>43.0</ele><time>2026-04-18T14:49:22Z</time></trkpt><trkpt lat="39.30274589155751" lon="9.091390558769573"><ele>43.0</ele><time>2026-04-18T14:49:23Z</time></trkpt><trkpt lat="39.30268753607663" lon="9.091443050772991"><ele>43.0</ele><time>2026-04-18T14:49:24Z</time></trkpt><trkpt lat="39.302590310474294" lon="9.091487391652993"><ele>43.0</ele><time>2026-04-18T14:49:26Z</time></trkpt><trkpt lat="39.302519344515225" lon="9.091499483645666"><ele>43.0</ele><time>2026-04-18T14:49:29Z</time></trkpt><trkpt lat="39.30245620325887" lon="9.091495115325102"><ele>43.0</ele><time>2026-04-18T14:49:34Z</time></trkpt><trkpt lat="39.30240790108964" lon="9.091390584762477"><ele>43.00000000000001</ele><time>2026-04-18T14:49:36Z</time></trkpt><trkpt lat="39.302355702860424" lon="9.0913377258816"><ele>43.0</ele><time>2026-04-18T14:49:53Z</time></trkpt><trkpt lat="39.30230391067222" lon="9.091246662700474"><ele>43.0</ele><time>2026-04-18T14:49:56Z</time></trkpt><trkpt lat="39.302268474545805" lon="9.091165249714333"><ele>43.0</ele><time>2026-04-18T14:49:59Z</time></trkpt><trkpt lat="39.30224001995788" lon="9.091080793809482"><ele>43.0</ele><time>2026-04-18T14:50:03Z</time></trkpt><trkpt lat="39.302208715163" lon="9.091001171796243"><ele>43.00000000000001</ele><time>2026-04-18T14:50:08Z</time></trkpt><trkpt lat="39.30217823065564" lon="9.090911403201382"><ele>43.0</ele><time>2026-04-18T14:50:13Z</time></trkpt><trkpt lat="39.30214066591294" lon="9.090838275913496"><ele>42.833333333333336</ele><time>2026-04-18T14:50:17Z</time></trkpt><trkpt lat="39.30210131540024" lon="9.090752150022071"><ele>42.66666666666667</ele><time>2026-04-18T14:50:20Z</time></trkpt><trkpt lat="39.30205984094755" lon="9.09066797674589"><ele>42.5</ele><time>2026-04-18T14:50:23Z</time></trkpt><trkpt lat="39.30199846792099" lon="9.090582074190463"><ele>42.333333333333336</ele><time>2026-04-18T14:50:26Z</time></trkpt><trkpt lat="39.30195057725642" lon="9.0905235340558"><ele>42.166666666666664</ele><time>2026-04-18T14:50:28Z</time></trkpt><trkpt lat="39.30188239482745" lon="9.090464247170226"><ele>42.0</ele><time>2026-04-18T14:50:30Z</time></trkpt><trkpt lat="39.30180591301671" lon="9.090405663927456"><ele>42.0</ele><time>2026-04-18T14:50:32Z</time></trkpt><trkpt lat="39.30173685209006" lon="9.09035292409157"><ele>42.0</ele><time>2026-04-18T14:50:34Z</time></trkpt><trkpt lat="39.30167747095066" lon="9.090306423877836"><ele>42.0</ele><time>2026-04-18T14:50:36Z</time></trkpt><trkpt lat="39.30158399893393" lon="9.090232183231604"><ele>42.0</ele><time>2026-04-18T14:50:38Z</time></trkpt><trkpt lat="39.30152925928268" lon="9.090190852573896"><ele>42.0</ele><time>2026-04-18T14:50:39Z</time></trkpt><trkpt lat="39.30147018528717" lon="9.090141526199666"><ele>42.0</ele><time>2026-04-18T14:50:40Z</time></trkpt><trkpt lat="39.30141813803572" lon="9.090071273316957"><ele>41.857142857142854</ele><time>2026-04-18T14:50:41Z</time></trkpt><trkpt lat="39.3013507660647" lon="9.090030254805605"><ele>41.714285714285715</ele><time>2026-04-18T14:50:42Z</time></trkpt><trkpt lat="39.30129740183766" lon="9.089973052421177"><ele>41.57142857142857</ele><time>2026-04-18T14:50:43Z</time></trkpt><trkpt lat="39.30124687947559" lon="9.089921216425138"><ele>41.42857142857143</ele><time>2026-04-18T14:50:44Z</time></trkpt><trkpt lat="39.30117998223721" lon="9.089861586655866"><ele>41.285714285714285</ele><time>2026-04-18T14:50:46Z</time></trkpt><trkpt lat="39.30112473952962" lon="9.089808043625148"><ele>41.14285714285714</ele><time>2026-04-18T14:50:51Z</time></trkpt><trkpt lat="39.301067400965565" lon="9.089768671946263"><ele>41.0</ele><time>2026-04-18T14:50:53Z</time></trkpt><trkpt lat="39.30099122948641" lon="9.089734792945029"><ele>41.0</ele><time>2026-04-18T14:50:56Z</time></trkpt><trkpt lat="39.30093180507696" lon="9.089918982003894"><ele>41.0</ele><time>2026-04-18T14:50:59Z</time></trkpt><trkpt lat="39.30092421389394" lon="9.09004546494993"><ele>41.0</ele><time>2026-04-18T14:51:01Z</time></trkpt><trkpt lat="39.300909376083396" lon="9.09018047082019"><ele>41.0</ele><time>2026-04-18T14:51:03Z</time></trkpt><trkpt lat="39.30089042975657" lon="9.090315620422187"><ele>41.0</ele><time>2026-04-18T14:51:05Z</time></trkpt><trkpt lat="39.30087067636679" lon="9.090449166852336"><ele>41.0</ele><time>2026-04-18T14:51:07Z</time></trkpt><trkpt lat="39.300854766885855" lon="9.090577342081245"><ele>41.0</ele><time>2026-04-18T14:51:09Z</time></trkpt><trkpt lat="39.30083693869942" lon="9.090709061480021"><ele>41.0</ele><time>2026-04-18T14:51:11Z</time></trkpt><trkpt lat="39.300825773661195" lon="9.090820877330728"><ele>41.0</ele><time>2026-04-18T14:51:13Z</time></trkpt><trkpt lat="39.300809391081096" lon="9.090948027979588"><ele>41.5</ele><time>2026-04-18T14:51:15Z</time></trkpt><trkpt lat="39.300794042432614" lon="9.091090093526951"><ele>42.0</ele><time>2026-04-18T14:51:17Z</time></trkpt><trkpt lat="39.30077106008568" lon="9.09123883768344"><ele>42.5</ele><time>2026-04-18T14:51:19Z</time></trkpt><trkpt lat="39.30074808016793" lon="9.09138343441973"><ele>43.0</ele><time>2026-04-18T14:51:21Z</time></trkpt><trkpt lat="39.30072222969562" lon="9.091533095379884"><ele>43.0</ele><time>2026-04-18T14:51:23Z</time></trkpt><trkpt lat="39.3006762501664" lon="9.09168904425749"><ele>43.0</ele><time>2026-04-18T14:51:25Z</time></trkpt><trkpt lat="39.30064553360141" lon="9.091765619429694"><ele>43.0</ele><time>2026-04-18T14:51:26Z</time></trkpt><trkpt lat="39.30058521552703" lon="9.09189929321073"><ele>43.0</ele><time>2026-04-18T14:51:28Z</time></trkpt><trkpt lat="39.30053695182149" lon="9.092034952053647"><ele>43.0</ele><time>2026-04-18T14:51:30Z</time></trkpt><trkpt lat="39.30048629561219" lon="9.092164999175468"><ele>43.0</ele><time>2026-04-18T14:51:32Z</time></trkpt><trkpt lat="39.30043360221413" lon="9.09230669830886"><ele>43.0</ele><time>2026-04-18T14:51:34Z</time></trkpt><trkpt lat="39.30038612003898" lon="9.092437711065891"><ele>43.0</ele><time>2026-04-18T14:51:36Z</time></trkpt><trkpt lat="39.300341603589864" lon="9.092543859298166"><ele>43.0</ele><time>2026-04-18T14:51:38Z</time></trkpt><trkpt lat="39.30030703417747" lon="9.092618601935968"><ele>43.0</ele><time>2026-04-18T14:51:41Z</time></trkpt><trkpt lat="39.30026248263958" lon="9.092700082414588"><ele>43.0</ele><time>2026-04-18T14:51:44Z</time></trkpt><trkpt lat="39.300220904880426" lon="9.092780832203527"><ele>43.0</ele><time>2026-04-18T14:51:46Z</time></trkpt><trkpt lat="39.30009579807109" lon="9.092759256404356"><ele>43.0</ele><time>2026-04-18T14:51:49Z</time></trkpt><trkpt lat="39.30003122069808" lon="9.092697515590512"><ele>43.0</ele><time>2026-04-18T14:51:51Z</time></trkpt><trkpt lat="39.29994119679737" lon="9.0926680465193"><ele>43.0</ele><time>2026-04-18T14:51:54Z</time></trkpt><trkpt lat="39.29984580441057" lon="9.092697568817714"><ele>43.4</ele><time>2026-04-18T14:51:56Z</time></trkpt><trkpt lat="39.299734662988726" lon="9.092754428659905"><ele>43.8</ele><time>2026-04-18T14:51:58Z</time></trkpt><trkpt lat="39.29963052561418" lon="9.092803977646122"><ele>44.2</ele><time>2026-04-18T14:52:00Z</time></trkpt><trkpt lat="39.29953456965616" lon="9.092824583518816"><ele>44.6</ele><time>2026-04-18T14:52:02Z</time></trkpt><trkpt lat="39.299458317237196" lon="9.09288110069992"><ele>45.0</ele><time>2026-04-18T14:52:04Z</time></trkpt><trkpt lat="39.29936985717744" lon="9.092815810324586"><ele>45.0</ele><time>2026-04-18T14:52:06Z</time></trkpt><trkpt lat="39.29927856939198" lon="9.092713117155883"><ele>45.0</ele><time>2026-04-18T14:52:08Z</time></trkpt><trkpt lat="39.29922803486063" lon="9.092654309890241"><ele>45.0</ele><time>2026-04-18T14:52:09Z</time></trkpt><trkpt lat="39.29917512558281" lon="9.092587453327555"><ele>45.0</ele><time>2026-04-18T14:52:10Z</time></trkpt><trkpt lat="39.299121671993035" lon="9.092539842519148"><ele>45.0</ele><time>2026-04-18T14:52:11Z</time></trkpt><trkpt lat="39.29905582253519" lon="9.092487092466843"><ele>45.0</ele><time>2026-04-18T14:52:12Z</time></trkpt><trkpt lat="39.29899349207133" lon="9.092443527263281"><ele>44.857142857142854</ele><time>2026-04-18T14:52:13Z</time></trkpt><trkpt lat="39.29892085611033" lon="9.092400011532774"><ele>44.714285714285715</ele><time>2026-04-18T14:52:14Z</time></trkpt><trkpt lat="39.29885105879679" lon="9.09235926902964"><ele>44.57142857142857</ele><time>2026-04-18T14:52:15Z</time></trkpt><trkpt lat="39.29878050127845" lon="9.092322112434811"><ele>44.42857142857143</ele><time>2026-04-18T14:52:16Z</time></trkpt><trkpt lat="39.29871579770113" lon="9.092285455292602"><ele>44.285714285714285</ele><time>2026-04-18T14:52:17Z</time></trkpt><trkpt lat="39.29865458977416" lon="9.092247947509922"><ele>44.142857142857146</ele><time>2026-04-18T14:52:18Z</time></trkpt><trkpt lat="39.29859653056196" lon="9.092211589614092"><ele>44.0</ele><time>2026-04-18T14:52:19Z</time></trkpt><trkpt lat="39.2984921070517" lon="9.092145711998766"><ele>44.0</ele><time>2026-04-18T14:52:21Z</time></trkpt><trkpt lat="39.29838292115333" lon="9.092092111472393"><ele>44.0</ele><time>2026-04-18T14:52:23Z</time></trkpt><trkpt lat="39.298275665038894" lon="9.092040909889944"><ele>44.0</ele><time>2026-04-18T14:52:25Z</time></trkpt><trkpt lat="39.29821375550083" lon="9.092014614906644"><ele>44.0</ele><time>2026-04-18T14:52:26Z</time></trkpt><trkpt lat="39.29810609451064" lon="9.091960994415935"><ele>44.0</ele><time>2026-04-18T14:52:28Z</time></trkpt><trkpt lat="39.2980492321199" lon="9.091921477301334"><ele>44.0</ele><time>2026-04-18T14:52:30Z</time></trkpt><trkpt lat="39.29800311052387" lon="9.092114863552764"><ele>44.0</ele><time>2026-04-18T14:52:35Z</time></trkpt><trkpt lat="39.29797921663118" lon="9.092234297851752"><ele>44.0</ele><time>2026-04-18T14:52:37Z</time></trkpt><trkpt lat="39.297890519515384" lon="9.092333686442299"><ele>44.0</ele><time>2026-04-18T14:52:39Z</time></trkpt><trkpt lat="39.29783846303391" lon="9.092381803958906"><ele>44.0</ele><time>2026-04-18T14:52:40Z</time></trkpt><trkpt lat="39.29778318879495" lon="9.092446782394884"><ele>43.83333333333333</ele><time>2026-04-18T14:52:41Z</time></trkpt><trkpt lat="39.29771836644276" lon="9.092510275077766"><ele>43.666666666666664</ele><time>2026-04-18T14:52:42Z</time></trkpt><trkpt lat="39.29765427902868" lon="9.092582407499991"><ele>43.5</ele><time>2026-04-18T14:52:43Z</time></trkpt><trkpt lat="39.29758450173609" lon="9.092656444839484"><ele>43.333333333333336</ele><time>2026-04-18T14:52:44Z</time></trkpt><trkpt lat="39.29750712086692" lon="9.09272614278652"><ele>43.16666666666667</ele><time>2026-04-18T14:52:45Z</time></trkpt><trkpt lat="39.297430134007165" lon="9.092780541994241"><ele>43.0</ele><time>2026-04-18T14:52:46Z</time></trkpt><trkpt lat="39.297355547728685" lon="9.09283260514945"><ele>43.0</ele><time>2026-04-18T14:52:47Z</time></trkpt><trkpt lat="39.29728321041496" lon="9.092885029253747"><ele>43.0</ele><time>2026-04-18T14:52:48Z</time></trkpt><trkpt lat="39.29721679709361" lon="9.092933750304972"><ele>43.0</ele><time>2026-04-18T14:52:49Z</time></trkpt><trkpt lat="39.29716167780047" lon="9.092973151575263"><ele>43.0</ele><time>2026-04-18T14:52:50Z</time></trkpt><trkpt lat="39.29710352205293" lon="9.093021569364572"><ele>43.0</ele><time>2026-04-18T14:52:53Z</time></trkpt><trkpt lat="39.29708326234516" lon="9.093113748765607"><ele>43.0</ele><time>2026-04-18T14:52:58Z</time></trkpt><trkpt lat="39.29716575348216" lon="9.093251745173058"><ele>43.16666666666667</ele><time>2026-04-18T14:53:00Z</time></trkpt><trkpt lat="39.297210569426895" lon="9.093336892404936"><ele>43.333333333333336</ele><time>2026-04-18T14:53:01Z</time></trkpt><trkpt lat="39.29725600299131" lon="9.093414831990623"><ele>43.5</ele><time>2026-04-18T14:53:02Z</time></trkpt><trkpt lat="39.297303600310386" lon="9.093503422236827"><ele>43.666666666666664</ele><time>2026-04-18T14:53:03Z</time></trkpt><trkpt lat="39.29734429050641" lon="9.093605881485576"><ele>43.83333333333333</ele><time>2026-04-18T14:53:04Z</time></trkpt><trkpt lat="39.2973858789408" lon="9.093699483936007"><ele>44.0</ele><time>2026-04-18T14:53:05Z</time></trkpt><trkpt lat="39.297436717677805" lon="9.093770010097645"><ele>44.0</ele><time>2026-04-18T14:53:06Z</time></trkpt><trkpt lat="39.2974575023136" lon="9.093848332549415"><ele>44.0</ele><time>2026-04-18T14:53:07Z</time></trkpt><trkpt lat="39.29749578641594" lon="9.093920575958236"><ele>44.0</ele><time>2026-04-18T14:53:09Z</time></trkpt><trkpt lat="39.297385803795336" lon="9.094028592121287"><ele>44.0</ele><time>2026-04-18T14:53:12Z</time></trkpt><trkpt lat="39.29731155675635" lon="9.094063282531554"><ele>44.0</ele><time>2026-04-18T14:53:13Z</time></trkpt><trkpt lat="39.2972406055908" lon="9.094102049926871"><ele>44.0</ele><time>2026-04-18T14:53:14Z</time></trkpt><trkpt lat="39.297169977518905" lon="9.094134237442546"><ele>44.166666666666664</ele><time>2026-04-18T14:53:15Z</time></trkpt><trkpt lat="39.29709030924298" lon="9.094165377624835"><ele>44.33333333333333</ele><time>2026-04-18T14:53:16Z</time></trkpt><trkpt lat="39.29701629723907" lon="9.094197292763376"><ele>44.5</ele><time>2026-04-18T14:53:17Z</time></trkpt><trkpt lat="39.29694376522151" lon="9.094228911091149"><ele>44.666666666666664</ele><time>2026-04-18T14:53:18Z</time></trkpt><trkpt lat="39.29686463264353" lon="9.09426949890762"><ele>44.833333333333336</ele><time>2026-04-18T14:53:19Z</time></trkpt><trkpt lat="39.29678009469589" lon="9.09430468837517"><ele>45.0</ele><time>2026-04-18T14:53:20Z</time></trkpt><trkpt lat="39.296688669634946" lon="9.094342706436336"><ele>45.0</ele><time>2026-04-18T14:53:21Z</time></trkpt><trkpt lat="39.296595078101305" lon="9.094377475752706"><ele>45.0</ele><time>2026-04-18T14:53:22Z</time></trkpt><trkpt lat="39.296502438505364" lon="9.094418238773518"><ele>45.0</ele><time>2026-04-18T14:53:23Z</time></trkpt><trkpt lat="39.29640961156133" lon="9.094459386843814"><ele>45.0</ele><time>2026-04-18T14:53:24Z</time></trkpt><trkpt lat="39.29631622553163" lon="9.094498621106617"><ele>45.0</ele><time>2026-04-18T14:53:25Z</time></trkpt><trkpt lat="39.296223738174994" lon="9.094534718900965"><ele>44.8</ele><time>2026-04-18T14:53:26Z</time></trkpt><trkpt lat="39.296133802595214" lon="9.094571537243642"><ele>44.6</ele><time>2026-04-18T14:53:27Z</time></trkpt><trkpt lat="39.296046360773964" lon="9.094607285327456"><ele>44.400000000000006</ele><time>2026-04-18T14:53:28Z</time></trkpt><trkpt lat="39.29595594203557" lon="9.094624142951563"><ele>44.2</ele><time>2026-04-18T14:53:29Z</time></trkpt><trkpt lat="39.29588068781805" lon="9.094677385187985"><ele>44.0</ele><time>2026-04-18T14:53:30Z</time></trkpt><trkpt lat="39.29579654258226" lon="9.094710105838587"><ele>44.0</ele><time>2026-04-18T14:53:31Z</time></trkpt><trkpt lat="39.295709404104066" lon="9.094742377949554"><ele>44.0</ele><time>2026-04-18T14:53:32Z</time></trkpt><trkpt lat="39.2956268421301" lon="9.094769406806119"><ele>44.0</ele><time>2026-04-18T14:53:33Z</time></trkpt><trkpt lat="39.29554538512411" lon="9.094793527312962"><ele>44.0</ele><time>2026-04-18T14:53:34Z</time></trkpt><trkpt lat="39.295467560419844" lon="9.094816746155807"><ele>44.0</ele><time>2026-04-18T14:53:35Z</time></trkpt><trkpt lat="39.2953895390159" lon="9.094837694039388"><ele>44.0</ele><time>2026-04-18T14:53:36Z</time></trkpt><trkpt lat="39.29530785716156" lon="9.094859495124652"><ele>44.0</ele><time>2026-04-18T14:53:37Z</time></trkpt><trkpt lat="39.29522741717588" lon="9.094878073780615"><ele>44.0</ele><time>2026-04-18T14:53:38Z</time></trkpt><trkpt lat="39.29514425811347" lon="9.094895007072877"><ele>44.0</ele><time>2026-04-18T14:53:39Z</time></trkpt><trkpt lat="39.295062936627275" lon="9.094917689442577"><ele>44.0</ele><time>2026-04-18T14:53:40Z</time></trkpt><trkpt lat="39.294979264465944" lon="9.094941693408787"><ele>44.0</ele><time>2026-04-18T14:53:41Z</time></trkpt><trkpt lat="39.29489603606417" lon="9.094962960978167"><ele>44.0</ele><time>2026-04-18T14:53:42Z</time></trkpt><trkpt lat="39.29481610779505" lon="9.094980969520579"><ele>44.0</ele><time>2026-04-18T14:53:43Z</time></trkpt><trkpt lat="39.29473082718038" lon="9.095002752705112"><ele>44.0</ele><time>2026-04-18T14:53:44Z</time></trkpt><trkpt lat="39.29464025805654" lon="9.095003111132277"><ele>44.0</ele><time>2026-04-18T14:53:45Z</time></trkpt><trkpt lat="39.29455418242434" lon="9.095023445003394"><ele>44.0</ele><time>2026-04-18T14:53:46Z</time></trkpt><trkpt lat="39.29446842062953" lon="9.095044511970334"><ele>44.0</ele><time>2026-04-18T14:53:47Z</time></trkpt><trkpt lat="39.29438099282021" lon="9.095065706594724"><ele>44.0</ele><time>2026-04-18T14:53:48Z</time></trkpt><trkpt lat="39.29429765119172" lon="9.095106576210455"><ele>44.0</ele><time>2026-04-18T14:53:49Z</time></trkpt><trkpt lat="39.29420948252797" lon="9.095126933531738"><ele>44.0</ele><time>2026-04-18T14:53:50Z</time></trkpt><trkpt lat="39.29411915060416" lon="9.095150465556031"><ele>44.0</ele><time>2026-04-18T14:53:51Z</time></trkpt><trkpt lat="39.29403213261481" lon="9.095175112711882"><ele>44.0</ele><time>2026-04-18T14:53:52Z</time></trkpt><trkpt lat="39.293947744339064" lon="9.095199165889237"><ele>44.0</ele><time>2026-04-18T14:53:53Z</time></trkpt><trkpt lat="39.29386325584165" lon="9.095221741255695"><ele>44.0</ele><time>2026-04-18T14:53:54Z</time></trkpt><trkpt lat="39.29378851570708" lon="9.095240130575482"><ele>43.666666666666664</ele><time>2026-04-18T14:53:55Z</time></trkpt><trkpt lat="39.29371627472044" lon="9.095255547736231"><ele>43.33333333333333</ele><time>2026-04-18T14:53:56Z</time></trkpt><trkpt lat="39.2936482237194" lon="9.095267863962544"><ele>43.0</ele><time>2026-04-18T14:53:57Z</time></trkpt><trkpt lat="39.293582475734254" lon="9.095278058588956"><ele>42.666666666666664</ele><time>2026-04-18T14:53:58Z</time></trkpt><trkpt lat="39.29348934315026" lon="9.095270285719746"><ele>42.333333333333336</ele><time>2026-04-18T14:54:00Z</time></trkpt><trkpt lat="39.293398254452626" lon="9.095270157092514"><ele>42.0</ele><time>2026-04-18T14:54:02Z</time></trkpt><trkpt lat="39.29326970110606" lon="9.095307129588845"><ele>42.0</ele><time>2026-04-18T14:54:04Z</time></trkpt><trkpt lat="39.29320028300396" lon="9.095341563593289"><ele>42.0</ele><time>2026-04-18T14:54:05Z</time></trkpt><trkpt lat="39.29312411295321" lon="9.095368362056961"><ele>42.0</ele><time>2026-04-18T14:54:06Z</time></trkpt><trkpt lat="39.29303762714089" lon="9.095393539210637"><ele>42.0</ele><time>2026-04-18T14:54:07Z</time></trkpt><trkpt lat="39.292944961186976" lon="9.095417144623266"><ele>42.0</ele><time>2026-04-18T14:54:08Z</time></trkpt><trkpt lat="39.29285221399512" lon="9.095439448647767"><ele>42.0</ele><time>2026-04-18T14:54:09Z</time></trkpt><trkpt lat="39.29276082865601" lon="9.095465017827642"><ele>42.0</ele><time>2026-04-18T14:54:10Z</time></trkpt><trkpt lat="39.29267307092353" lon="9.09549068405245"><ele>42.0</ele><time>2026-04-18T14:54:11Z</time></trkpt><trkpt lat="39.29257971863651" lon="9.095512175075266"><ele>42.0</ele><time>2026-04-18T14:54:12Z</time></trkpt><trkpt lat="39.292487377334695" lon="9.09553041582976"><ele>42.0</ele><time>2026-04-18T14:54:13Z</time></trkpt><trkpt lat="39.292393227296536" lon="9.095550185933021"><ele>42.0</ele><time>2026-04-18T14:54:14Z</time></trkpt><trkpt lat="39.292299160644" lon="9.095572818125454"><ele>42.2</ele><time>2026-04-18T14:54:15Z</time></trkpt><trkpt lat="39.29220514884447" lon="9.095597842494515"><ele>42.400000000000006</ele><time>2026-04-18T14:54:16Z</time></trkpt><trkpt lat="39.292113060756776" lon="9.095625480339999"><ele>42.599999999999994</ele><time>2026-04-18T14:54:17Z</time></trkpt><trkpt lat="39.29202114582525" lon="9.095647804210726"><ele>42.8</ele><time>2026-04-18T14:54:18Z</time></trkpt><trkpt lat="39.2919270180892" lon="9.09566878519223"><ele>43.0</ele><time>2026-04-18T14:54:19Z</time></trkpt><trkpt lat="39.291833471310326" lon="9.095694138745264"><ele>43.0</ele><time>2026-04-18T14:54:20Z</time></trkpt><trkpt lat="39.291749219258705" lon="9.095714083081177"><ele>43.0</ele><time>2026-04-18T14:54:21Z</time></trkpt><trkpt lat="39.2916712290296" lon="9.095732043940702"><ele>43.0</ele><time>2026-04-18T14:54:22Z</time></trkpt><trkpt lat="39.29159922925689" lon="9.095743967677357"><ele>43.0</ele><time>2026-04-18T14:54:23Z</time></trkpt><trkpt lat="39.291526968625014" lon="9.095764575206669"><ele>43.0</ele><time>2026-04-18T14:54:24Z</time></trkpt><trkpt lat="39.291450735617495" lon="9.095782386737678"><ele>43.0</ele><time>2026-04-18T14:54:25Z</time></trkpt><trkpt lat="39.291365788802196" lon="9.095796311148774"><ele>43.2</ele><time>2026-04-18T14:54:26Z</time></trkpt><trkpt lat="39.2912799681888" lon="9.095819534064345"><ele>43.4</ele><time>2026-04-18T14:54:27Z</time></trkpt><trkpt lat="39.291186278647" lon="9.095842395313692"><ele>43.6</ele><time>2026-04-18T14:54:28Z</time></trkpt><trkpt lat="39.291088474191255" lon="9.095862966066424"><ele>43.800000000000004</ele><time>2026-04-18T14:54:29Z</time></trkpt><trkpt lat="39.290983905005305" lon="9.095883262487119"><ele>44.0</ele><time>2026-04-18T14:54:30Z</time></trkpt><trkpt lat="39.29087612475407" lon="9.095901561889002"><ele>44.0</ele><time>2026-04-18T14:54:31Z</time></trkpt><trkpt lat="39.29076564259046" lon="9.095921753502537"><ele>44.0</ele><time>2026-04-18T14:54:32Z</time></trkpt><trkpt lat="39.29065665953987" lon="9.09593548129024"><ele>44.0</ele><time>2026-04-18T14:54:33Z</time></trkpt><trkpt lat="39.29055418486277" lon="9.095946499083539"><ele>44.0</ele><time>2026-04-18T14:54:34Z</time></trkpt><trkpt lat="39.290450514255696" lon="9.095960486941037"><ele>44.0</ele><time>2026-04-18T14:54:35Z</time></trkpt><trkpt lat="39.29034521713562" lon="9.09597938588485"><ele>44.0</ele><time>2026-04-18T14:54:36Z</time></trkpt><trkpt lat="39.29023402670274" lon="9.0959984633619"><ele>44.0</ele><time>2026-04-18T14:54:37Z</time></trkpt><trkpt lat="39.29011524988477" lon="9.096021188423604"><ele>44.0</ele><time>2026-04-18T14:54:38Z</time></trkpt><trkpt lat="39.28999586808981" lon="9.096042489605953"><ele>44.0</ele><time>2026-04-18T14:54:39Z</time></trkpt><trkpt lat="39.28987874698937" lon="9.096057086842832"><ele>44.0</ele><time>2026-04-18T14:54:40Z</time></trkpt><trkpt lat="39.28976270982393" lon="9.096080934488814"><ele>44.0</ele><time>2026-04-18T14:54:41Z</time></trkpt><trkpt lat="39.28964491756377" lon="9.096107636721346"><ele>44.0</ele><time>2026-04-18T14:54:42Z</time></trkpt><trkpt lat="39.28952533818045" lon="9.096127997540519"><ele>44.0</ele><time>2026-04-18T14:54:43Z</time></trkpt><trkpt lat="39.289404289230376" lon="9.096142001355805"><ele>44.25</ele><time>2026-04-18T14:54:44Z</time></trkpt><trkpt lat="39.28928099586287" lon="9.096159663320128"><ele>44.5</ele><time>2026-04-18T14:54:45Z</time></trkpt><trkpt lat="39.289157351032856" lon="9.096185915455772"><ele>44.75</ele><time>2026-04-18T14:54:46Z</time></trkpt><trkpt lat="39.28903361442886" lon="9.096220438084348"><ele>45.0</ele><time>2026-04-18T14:54:47Z</time></trkpt><trkpt lat="39.28890895982255" lon="9.09626785989005"><ele>47.0</ele><time>2026-04-18T14:54:48Z</time></trkpt><trkpt lat="39.28878384524059" lon="9.096320033418724"><ele>49.0</ele><time>2026-04-18T14:54:49Z</time></trkpt><trkpt lat="39.288658836198735" lon="9.096371279971612"><ele>51.0</ele><time>2026-04-18T14:54:50Z</time></trkpt><trkpt lat="39.28852959479385" lon="9.096423190575697"><ele>53.0</ele><time>2026-04-18T14:54:51Z</time></trkpt><trkpt lat="39.28840053893997" lon="9.09648077044688"><ele>53.0</ele><time>2026-04-18T14:54:52Z</time></trkpt><trkpt lat="39.28827215783704" lon="9.0965432300449"><ele>53.0</ele><time>2026-04-18T14:54:53Z</time></trkpt><trkpt lat="39.288143509487234" lon="9.096609923322314"><ele>53.0</ele><time>2026-04-18T14:54:54Z</time></trkpt><trkpt lat="39.28801436735277" lon="9.096675561589718"><ele>53.0</ele><time>2026-04-18T14:54:55Z</time></trkpt><trkpt lat="39.28788406056896" lon="9.096741757340991"><ele>54.25</ele><time>2026-04-18T14:54:56Z</time></trkpt><trkpt lat="39.28775556866117" lon="9.096812178651621"><ele>55.5</ele><time>2026-04-18T14:54:57Z</time></trkpt><trkpt lat="39.28763265557725" lon="9.096889322764083"><ele>56.75</ele><time>2026-04-18T14:54:58Z</time></trkpt><trkpt lat="39.28752399389368" lon="9.096964604553987"><ele>58.0</ele><time>2026-04-18T14:54:59Z</time></trkpt><trkpt lat="39.28742010737939" lon="9.097039433789547"><ele>58.0</ele><time>2026-04-18T14:55:00Z</time></trkpt><trkpt lat="39.28731578820579" lon="9.097107412115127"><ele>58.0</ele><time>2026-04-18T14:55:01Z</time></trkpt><trkpt lat="39.28721465303439" lon="9.097160194583305"><ele>58.0</ele><time>2026-04-18T14:55:02Z</time></trkpt><trkpt lat="39.287109943012965" lon="9.097202666959594"><ele>58.0</ele><time>2026-04-18T14:55:03Z</time></trkpt><trkpt lat="39.286996328568186" lon="9.097240651815422"><ele>57.0</ele><time>2026-04-18T14:55:04Z</time></trkpt><trkpt lat="39.28687499753679" lon="9.097273917558246"><ele>56.0</ele><time>2026-04-18T14:55:05Z</time></trkpt><trkpt lat="39.28674670095111" lon="9.097305982620844"><ele>55.0</ele><time>2026-04-18T14:55:06Z</time></trkpt><trkpt lat="39.28661722499278" lon="9.097339546386939"><ele>54.0</ele><time>2026-04-18T14:55:07Z</time></trkpt><trkpt lat="39.28648910754097" lon="9.097373700630822"><ele>52.0</ele><time>2026-04-18T14:55:08Z</time></trkpt><trkpt lat="39.286360210208244" lon="9.097406156760275"><ele>50.0</ele><time>2026-04-18T14:55:09Z</time></trkpt><trkpt lat="39.28623445985214" lon="9.097436690125557"><ele>48.0</ele><time>2026-04-18T14:55:10Z</time></trkpt><trkpt lat="39.28611232799131" lon="9.097471213271993"><ele>46.0</ele><time>2026-04-18T14:55:11Z</time></trkpt><trkpt lat="39.285992765223156" lon="9.097501958916345"><ele>45.75</ele><time>2026-04-18T14:55:12Z</time></trkpt><trkpt lat="39.28587480213529" lon="9.097538620840094"><ele>45.5</ele><time>2026-04-18T14:55:13Z</time></trkpt><trkpt lat="39.285749421004304" lon="9.097585629549224"><ele>45.25</ele><time>2026-04-18T14:55:14Z</time></trkpt><trkpt lat="39.28561816163169" lon="9.097655387985734"><ele>45.0</ele><time>2026-04-18T14:55:15Z</time></trkpt><trkpt lat="39.28549263245052" lon="9.097743875961958"><ele>44.75</ele><time>2026-04-18T14:55:16Z</time></trkpt><trkpt lat="39.285375074053086" lon="9.097846394439395"><ele>44.5</ele><time>2026-04-18T14:55:17Z</time></trkpt><trkpt lat="39.28526959181101" lon="9.097951110295341"><ele>44.25</ele><time>2026-04-18T14:55:18Z</time></trkpt><trkpt lat="39.28517523773092" lon="9.098059323712892"><ele>44.0</ele><time>2026-04-18T14:55:19Z</time></trkpt><trkpt lat="39.285085633686585" lon="9.098154340249177"><ele>44.0</ele><time>2026-04-18T14:55:20Z</time></trkpt><trkpt lat="39.28500758997666" lon="9.098233843746629"><ele>44.0</ele><time>2026-04-18T14:55:21Z</time></trkpt><trkpt lat="39.28494739611618" lon="9.098307097105641"><ele>44.0</ele><time>2026-04-18T14:55:22Z</time></trkpt><trkpt lat="39.28489351902813" lon="9.098376959383048"><ele>44.0</ele><time>2026-04-18T14:55:23Z</time></trkpt><trkpt lat="39.28482072529449" lon="9.098429633566646"><ele>44.0</ele><time>2026-04-18T14:55:24Z</time></trkpt><trkpt lat="39.28474695665143" lon="9.09849851831203"><ele>44.0</ele><time>2026-04-18T14:55:25Z</time></trkpt><trkpt lat="39.28467036244705" lon="9.09858366183831"><ele>43.0</ele><time>2026-04-18T14:55:26Z</time></trkpt><trkpt lat="39.28457351807022" lon="9.098654471649288"><ele>42.0</ele><time>2026-04-18T14:55:27Z</time></trkpt><trkpt lat="39.28447195248461" lon="9.098741908065596"><ele>41.0</ele><time>2026-04-18T14:55:28Z</time></trkpt><trkpt lat="39.28437476898204" lon="9.09885665197713"><ele>40.0</ele><time>2026-04-18T14:55:29Z</time></trkpt><trkpt lat="39.2842783891994" lon="9.098982036939706"><ele>40.0</ele><time>2026-04-18T14:55:30Z</time></trkpt><trkpt lat="39.28418365348722" lon="9.099117537943345"><ele>40.0</ele><time>2026-04-18T14:55:31Z</time></trkpt><trkpt lat="39.28409126088203" lon="9.099256385140512"><ele>40.0</ele><time>2026-04-18T14:55:32Z</time></trkpt><trkpt lat="39.2840054077976" lon="9.099393321323177"><ele>40.0</ele><time>2026-04-18T14:55:33Z</time></trkpt><trkpt lat="39.283924221214704" lon="9.099532096247305"><ele>39.5</ele><time>2026-04-18T14:55:34Z</time></trkpt><trkpt lat="39.28385047204245" lon="9.099670749452493"><ele>39.0</ele><time>2026-04-18T14:55:35Z</time></trkpt><trkpt lat="39.283772064600946" lon="9.099812386864423"><ele>38.5</ele><time>2026-04-18T14:55:36Z</time></trkpt><trkpt lat="39.28368387570265" lon="9.099949271069397"><ele>38.0</ele><time>2026-04-18T14:55:37Z</time></trkpt><trkpt lat="39.28358213675588" lon="9.100075930987957"><ele>37.25</ele><time>2026-04-18T14:55:38Z</time></trkpt><trkpt lat="39.28346812527276" lon="9.100192330918164"><ele>36.5</ele><time>2026-04-18T14:55:39Z</time></trkpt><trkpt lat="39.28334581626565" lon="9.100302592168271"><ele>35.75</ele><time>2026-04-18T14:55:40Z</time></trkpt><trkpt lat="39.28321485970098" lon="9.100409836782708"><ele>35.0</ele><time>2026-04-18T14:55:41Z</time></trkpt><trkpt lat="39.28308288043691" lon="9.100510153815705"><ele>35.0</ele><time>2026-04-18T14:55:42Z</time></trkpt><trkpt lat="39.28294913567426" lon="9.100613493673722"><ele>35.0</ele><time>2026-04-18T14:55:43Z</time></trkpt><trkpt lat="39.2828100588903" lon="9.100721606754265"><ele>35.0</ele><time>2026-04-18T14:55:44Z</time></trkpt><trkpt lat="39.2826675530385" lon="9.100832714506327"><ele>34.666666666666664</ele><time>2026-04-18T14:55:45Z</time></trkpt><trkpt lat="39.282525183086555" lon="9.10094529193076"><ele>34.333333333333336</ele><time>2026-04-18T14:55:46Z</time></trkpt><trkpt lat="39.28238226233056" lon="9.101057898263893"><ele>34.0</ele><time>2026-04-18T14:55:47Z</time></trkpt><trkpt lat="39.28223627682325" lon="9.10117329321344"><ele>32.66666666666667</ele><time>2026-04-18T14:55:48Z</time></trkpt><trkpt lat="39.28209109711731" lon="9.101283664753163"><ele>31.333333333333336</ele><time>2026-04-18T14:55:49Z</time></trkpt><trkpt lat="39.28194217738756" lon="9.101397386335142"><ele>30.0</ele><time>2026-04-18T14:55:50Z</time></trkpt><trkpt lat="39.281792839008084" lon="9.101513318257469"><ele>30.0</ele><time>2026-04-18T14:55:51Z</time></trkpt><trkpt lat="39.28164179010429" lon="9.101630796095336"><ele>30.0</ele><time>2026-04-18T14:55:52Z</time></trkpt><trkpt lat="39.281488912098254" lon="9.101748701354717"><ele>30.0</ele><time>2026-04-18T14:55:53Z</time></trkpt><trkpt lat="39.281335176141226" lon="9.101866639519594"><ele>29.333333333333336</ele><time>2026-04-18T14:55:54Z</time></trkpt><trkpt lat="39.28118251528435" lon="9.101985965165666"><ele>28.666666666666668</ele><time>2026-04-18T14:55:55Z</time></trkpt><trkpt lat="39.28103070335526" lon="9.102108781059803"><ele>28.0</ele><time>2026-04-18T14:55:56Z</time></trkpt><trkpt lat="39.28088021649953" lon="9.102238251802492"><ele>28.0</ele><time>2026-04-18T14:55:57Z</time></trkpt><trkpt lat="39.28073131666894" lon="9.102375530102853"><ele>28.0</ele><time>2026-04-18T14:55:58Z</time></trkpt><trkpt lat="39.28058406884659" lon="9.102512918262208"><ele>28.0</ele><time>2026-04-18T14:55:59Z</time></trkpt><trkpt lat="39.280435339911904" lon="9.10265617699815"><ele>27.666666666666668</ele><time>2026-04-18T14:56:00Z</time></trkpt><trkpt lat="39.28028896966232" lon="9.102802553005832"><ele>27.333333333333336</ele><time>2026-04-18T14:56:01Z</time></trkpt><trkpt lat="39.28014146905946" lon="9.10295302408783"><ele>27.0</ele><time>2026-04-18T14:56:02Z</time></trkpt><trkpt lat="39.27999355613301" lon="9.103104960031008"><ele>27.333333333333336</ele><time>2026-04-18T14:56:03Z</time></trkpt><trkpt lat="39.279846755337395" lon="9.10325471580763"><ele>27.666666666666668</ele><time>2026-04-18T14:56:04Z</time></trkpt><trkpt lat="39.27970003002023" lon="9.103406508046534"><ele>28.0</ele><time>2026-04-18T14:56:05Z</time></trkpt><trkpt lat="39.27955134444103" lon="9.103562913911437"><ele>27.333333333333336</ele><time>2026-04-18T14:56:06Z</time></trkpt><trkpt lat="39.27940285822656" lon="9.103719843171495"><ele>26.666666666666664</ele><time>2026-04-18T14:56:07Z</time></trkpt><trkpt lat="39.27925491520379" lon="9.103876575206922"><ele>26.0</ele><time>2026-04-18T14:56:08Z</time></trkpt><trkpt lat="39.27910543443225" lon="9.10402933074435"><ele>25.333333333333332</ele><time>2026-04-18T14:56:09Z</time></trkpt><trkpt lat="39.27895706029263" lon="9.104183611559023"><ele>24.666666666666664</ele><time>2026-04-18T14:56:10Z</time></trkpt><trkpt lat="39.278823846577" lon="9.104335938754643"><ele>24.0</ele><time>2026-04-18T14:56:11Z</time></trkpt><trkpt lat="39.27868630049327" lon="9.10449176148334"><ele>23.666666666666668</ele><time>2026-04-18T14:56:12Z</time></trkpt><trkpt lat="39.278557560335095" lon="9.104648707819377"><ele>23.333333333333336</ele><time>2026-04-18T14:56:13Z</time></trkpt><trkpt lat="39.27843487782498" lon="9.104817541033269"><ele>23.0</ele><time>2026-04-18T14:56:14Z</time></trkpt><trkpt lat="39.278327172229076" lon="9.104996994153309"><ele>23.0</ele><time>2026-04-18T14:56:15Z</time></trkpt><trkpt lat="39.27823013004049" lon="9.105186135786697"><ele>23.0</ele><time>2026-04-18T14:56:16Z</time></trkpt><trkpt lat="39.27813375571211" lon="9.105376140935665"><ele>23.0</ele><time>2026-04-18T14:56:17Z</time></trkpt><trkpt lat="39.278034611679495" lon="9.10555871284861"><ele>23.333333333333336</ele><time>2026-04-18T14:56:18Z</time></trkpt><trkpt lat="39.277931568248164" lon="9.105745612757916"><ele>23.666666666666668</ele><time>2026-04-18T14:56:19Z</time></trkpt><trkpt lat="39.27782898690781" lon="9.105940722190146"><ele>24.0</ele><time>2026-04-18T14:56:20Z</time></trkpt><trkpt lat="39.27772857366261" lon="9.106136079838713"><ele>24.0</ele><time>2026-04-18T14:56:21Z</time></trkpt><trkpt lat="39.277634280225065" lon="9.106317973255033"><ele>24.0</ele><time>2026-04-18T14:56:22Z</time></trkpt><trkpt lat="39.277545668428516" lon="9.106489229877711"><ele>24.0</ele><time>2026-04-18T14:56:23Z</time></trkpt><trkpt lat="39.27746023122922" lon="9.106653799657662"><ele>24.333333333333336</ele><time>2026-04-18T14:56:24Z</time></trkpt><trkpt lat="39.27738072247965" lon="9.106816907182832"><ele>24.666666666666668</ele><time>2026-04-18T14:56:25Z</time></trkpt><trkpt lat="39.277308419587584" lon="9.107004646497753"><ele>25.0</ele><time>2026-04-18T14:56:26Z</time></trkpt><trkpt lat="39.2772491209046" lon="9.107201239667107"><ele>25.0</ele><time>2026-04-18T14:56:27Z</time></trkpt><trkpt lat="39.27719770937611" lon="9.107399649953795"><ele>25.0</ele><time>2026-04-18T14:56:28Z</time></trkpt><trkpt lat="39.277151254554056" lon="9.107598092181833"><ele>25.0</ele><time>2026-04-18T14:56:29Z</time></trkpt><trkpt lat="39.277103839858945" lon="9.107788413854998"><ele>26.0</ele><time>2026-04-18T14:56:30Z</time></trkpt><trkpt lat="39.2770557282195" lon="9.107977812517644"><ele>27.0</ele><time>2026-04-18T14:56:31Z</time></trkpt><trkpt lat="39.27700808421958" lon="9.108164077660875"><ele>28.0</ele><time>2026-04-18T14:56:32Z</time></trkpt><trkpt lat="39.276963236928104" lon="9.108351504497477"><ele>29.333333333333336</ele><time>2026-04-18T14:56:33Z</time></trkpt><trkpt lat="39.27691609160094" lon="9.108537303786434"><ele>30.666666666666664</ele><time>2026-04-18T14:56:34Z</time></trkpt><trkpt lat="39.27687125123572" lon="9.108722785656786"><ele>32.0</ele><time>2026-04-18T14:56:35Z</time></trkpt><trkpt lat="39.276828925728545" lon="9.108908382447618"><ele>33.25</ele><time>2026-04-18T14:56:36Z</time></trkpt><trkpt lat="39.276789379502674" lon="9.109093179040118"><ele>34.5</ele><time>2026-04-18T14:56:37Z</time></trkpt><trkpt lat="39.2767591439387" lon="9.109279918633627"><ele>35.75</ele><time>2026-04-18T14:56:38Z</time></trkpt><trkpt lat="39.276740395911105" lon="9.109464526042624"><ele>37.0</ele><time>2026-04-18T14:56:39Z</time></trkpt><trkpt lat="39.276728960672756" lon="9.10964946342733"><ele>38.0</ele><time>2026-04-18T14:56:40Z</time></trkpt><trkpt lat="39.27671800085647" lon="9.110014769101543"><ele>39.0</ele><time>2026-04-18T14:56:42Z</time></trkpt><trkpt lat="39.27670974172106" lon="9.110192082691668"><ele>40.0</ele><time>2026-04-18T14:56:43Z</time></trkpt><trkpt lat="39.27669726914319" lon="9.110368983746982"><ele>40.0</ele><time>2026-04-18T14:56:44Z</time></trkpt><trkpt lat="39.27667106979752" lon="9.110548629813637"><ele>40.0</ele><time>2026-04-18T14:56:45Z</time></trkpt><trkpt lat="39.2766245276137" lon="9.110724368515456"><ele>40.0</ele><time>2026-04-18T14:56:46Z</time></trkpt><trkpt lat="39.27656424883138" lon="9.110892088670385"><ele>40.0</ele><time>2026-04-18T14:56:47Z</time></trkpt><trkpt lat="39.276483539122964" lon="9.111050248343691"><ele>40.333333333333336</ele><time>2026-04-18T14:56:48Z</time></trkpt><trkpt lat="39.27638478654125" lon="9.11119219922741"><ele>40.666666666666664</ele><time>2026-04-18T14:56:49Z</time></trkpt><trkpt lat="39.27628129145767" lon="9.111332482486068"><ele>41.0</ele><time>2026-04-18T14:56:50Z</time></trkpt><trkpt lat="39.276174679770214" lon="9.111477182972552"><ele>39.666666666666664</ele><time>2026-04-18T14:56:51Z</time></trkpt><trkpt lat="39.27606803354102" lon="9.11163168597248"><ele>38.333333333333336</ele><time>2026-04-18T14:56:52Z</time></trkpt><trkpt lat="39.275961747861096" lon="9.111791449571658"><ele>37.0</ele><time>2026-04-18T14:56:53Z</time></trkpt><trkpt lat="39.275857514435216" lon="9.111954055192967"><ele>37.0</ele><time>2026-04-18T14:56:54Z</time></trkpt><trkpt lat="39.27576194570034" lon="9.112133767320723"><ele>37.0</ele><time>2026-04-18T14:56:55Z</time></trkpt><trkpt lat="39.27568437715182" lon="9.11232311646815"><ele>37.0</ele><time>2026-04-18T14:56:56Z</time></trkpt><trkpt lat="39.275613200087214" lon="9.112519331326576"><ele>37.333333333333336</ele><time>2026-04-18T14:56:57Z</time></trkpt><trkpt lat="39.27554989427115" lon="9.11272698219251"><ele>37.666666666666664</ele><time>2026-04-18T14:56:58Z</time></trkpt><trkpt lat="39.27549590588419" lon="9.112934635987441"><ele>38.0</ele><time>2026-04-18T14:56:59Z</time></trkpt><trkpt lat="39.275440975070175" lon="9.113140614145536"><ele>40.0</ele><time>2026-04-18T14:57:00Z</time></trkpt><trkpt lat="39.27538532772863" lon="9.11334513228467"><ele>42.0</ele><time>2026-04-18T14:57:01Z</time></trkpt><trkpt lat="39.275328492007496" lon="9.113548358943897"><ele>44.0</ele><time>2026-04-18T14:57:02Z</time></trkpt><trkpt lat="39.27527372671484" lon="9.113750569239572"><ele>44.0</ele><time>2026-04-18T14:57:03Z</time></trkpt><trkpt lat="39.27522382072184" lon="9.113944861739924"><ele>44.0</ele><time>2026-04-18T14:57:04Z</time></trkpt><trkpt lat="39.27517383725052" lon="9.11413752295605"><ele>44.0</ele><time>2026-04-18T14:57:05Z</time></trkpt><trkpt lat="39.27512081822839" lon="9.114331725795859"><ele>44.33333333333333</ele><time>2026-04-18T14:57:06Z</time></trkpt><trkpt lat="39.27506893944601" lon="9.114519334376869"><ele>44.666666666666664</ele><time>2026-04-18T14:57:07Z</time></trkpt><trkpt lat="39.27500706170892" lon="9.114701589377008"><ele>45.0</ele><time>2026-04-18T14:57:08Z</time></trkpt><trkpt lat="39.27492412212437" lon="9.114870187332185"><ele>45.333333333333336</ele><time>2026-04-18T14:57:09Z</time></trkpt><trkpt lat="39.27482299772377" lon="9.115017302893595"><ele>45.66666666666667</ele><time>2026-04-18T14:57:10Z</time></trkpt><trkpt lat="39.27470270598929" lon="9.11513835309633"><ele>46.0</ele><time>2026-04-18T14:57:11Z</time></trkpt><trkpt lat="39.27457516778053" lon="9.115243113975103"><ele>46.333333333333336</ele><time>2026-04-18T14:57:12Z</time></trkpt><trkpt lat="39.27444062367423" lon="9.115335903639288"><ele>46.666666666666664</ele><time>2026-04-18T14:57:13Z</time></trkpt><trkpt lat="39.274301973828194" lon="9.115432163401003"><ele>47.0</ele><time>2026-04-18T14:57:14Z</time></trkpt><trkpt lat="39.27416684439268" lon="9.115527378784169"><ele>47.0</ele><time>2026-04-18T14:57:15Z</time></trkpt><trkpt lat="39.27403727603306" lon="9.115621658867664"><ele>47.0</ele><time>2026-04-18T14:57:16Z</time></trkpt><trkpt lat="39.27391410085102" lon="9.115717495855007"><ele>47.0</ele><time>2026-04-18T14:57:17Z</time></trkpt><trkpt lat="39.27379868824931" lon="9.115820637886786"><ele>47.0</ele><time>2026-04-18T14:57:18Z</time></trkpt><trkpt lat="39.2736802914199" lon="9.115946948878102"><ele>46.5</ele><time>2026-04-18T14:57:19Z</time></trkpt><trkpt lat="39.27356806984959" lon="9.116088838376811"><ele>46.0</ele><time>2026-04-18T14:57:20Z</time></trkpt><trkpt lat="39.273468928314635" lon="9.116229430076546"><ele>45.5</ele><time>2026-04-18T14:57:21Z</time></trkpt><trkpt lat="39.2733791787106" lon="9.116366051189239"><ele>45.0</ele><time>2026-04-18T14:57:22Z</time></trkpt><trkpt lat="39.27329454516002" lon="9.1165164873634"><ele>44.75</ele><time>2026-04-18T14:57:23Z</time></trkpt><trkpt lat="39.273211437672074" lon="9.116672452566405"><ele>44.5</ele><time>2026-04-18T14:57:24Z</time></trkpt><trkpt lat="39.27312877692325" lon="9.116830147168073"><ele>44.25</ele><time>2026-04-18T14:57:25Z</time></trkpt><trkpt lat="39.27304477980782" lon="9.116981094171948"><ele>44.0</ele><time>2026-04-18T14:57:26Z</time></trkpt><trkpt lat="39.272957475213104" lon="9.117138238619424"><ele>44.0</ele><time>2026-04-18T14:57:27Z</time></trkpt><trkpt lat="39.272869536729615" lon="9.117300839711195"><ele>44.0</ele><time>2026-04-18T14:57:28Z</time></trkpt><trkpt lat="39.27277827205988" lon="9.117469875749329"><ele>44.0</ele><time>2026-04-18T14:57:29Z</time></trkpt><trkpt lat="39.27268797603505" lon="9.117642575608802"><ele>44.0</ele><time>2026-04-18T14:57:30Z</time></trkpt><trkpt lat="39.272603359290954" lon="9.117820397889403"><ele>44.0</ele><time>2026-04-18T14:57:31Z</time></trkpt><trkpt lat="39.27252154070795" lon="9.118007710064491"><ele>44.0</ele><time>2026-04-18T14:57:32Z</time></trkpt><trkpt lat="39.272443144889905" lon="9.118194605416097"><ele>43.33333333333333</ele><time>2026-04-18T14:57:33Z</time></trkpt><trkpt lat="39.27236135808295" lon="9.118380072184705"><ele>42.666666666666664</ele><time>2026-04-18T14:57:34Z</time></trkpt><trkpt lat="39.27226523373627" lon="9.11854977664217"><ele>42.0</ele><time>2026-04-18T14:57:35Z</time></trkpt><trkpt lat="39.27215513656551" lon="9.118713838487894"><ele>42.0</ele><time>2026-04-18T14:57:36Z</time></trkpt><trkpt lat="39.27203956803389" lon="9.118871173222404"><ele>42.0</ele><time>2026-04-18T14:57:37Z</time></trkpt><trkpt lat="39.27192856049238" lon="9.119027109622083"><ele>42.0</ele><time>2026-04-18T14:57:38Z</time></trkpt><trkpt lat="39.27181416207191" lon="9.119182782552077"><ele>41.333333333333336</ele><time>2026-04-18T14:57:39Z</time></trkpt><trkpt lat="39.271695068883574" lon="9.119325355020678"><ele>40.66666666666667</ele><time>2026-04-18T14:57:40Z</time></trkpt><trkpt lat="39.27156879486773" lon="9.119458648895389"><ele>40.0</ele><time>2026-04-18T14:57:41Z</time></trkpt><trkpt lat="39.27144011589911" lon="9.119582288840348"><ele>40.0</ele><time>2026-04-18T14:57:42Z</time></trkpt><trkpt lat="39.27131103671218" lon="9.11970169967489"><ele>40.0</ele><time>2026-04-18T14:57:43Z</time></trkpt><trkpt lat="39.27118277093503" lon="9.119816015984862"><ele>40.0</ele><time>2026-04-18T14:57:44Z</time></trkpt><trkpt lat="39.271055411050156" lon="9.119924974837522"><ele>40.0</ele><time>2026-04-18T14:57:45Z</time></trkpt><trkpt lat="39.27092962139743" lon="9.120033085144524"><ele>40.0</ele><time>2026-04-18T14:57:46Z</time></trkpt><trkpt lat="39.27080571844289" lon="9.120144683373857"><ele>40.0</ele><time>2026-04-18T14:57:47Z</time></trkpt><trkpt lat="39.270682140441636" lon="9.12025801167238"><ele>39.333333333333336</ele><time>2026-04-18T14:57:48Z</time></trkpt><trkpt lat="39.27055860953694" lon="9.120370816753047"><ele>38.666666666666664</ele><time>2026-04-18T14:57:49Z</time></trkpt><trkpt lat="39.270435418332944" lon="9.120482059557409"><ele>38.0</ele><time>2026-04-18T14:57:50Z</time></trkpt><trkpt lat="39.27031223495396" lon="9.120591674620139"><ele>38.0</ele><time>2026-04-18T14:57:51Z</time></trkpt><trkpt lat="39.27019034469528" lon="9.120698487916794"><ele>38.0</ele><time>2026-04-18T14:57:52Z</time></trkpt><trkpt lat="39.27006876096678" lon="9.120805041016421"><ele>38.0</ele><time>2026-04-18T14:57:53Z</time></trkpt><trkpt lat="39.26994694956451" lon="9.120906266619743"><ele>38.0</ele><time>2026-04-18T14:57:54Z</time></trkpt><trkpt lat="39.26983217023339" lon="9.12100202706029"><ele>38.25</ele><time>2026-04-18T14:57:55Z</time></trkpt><trkpt lat="39.26972021167665" lon="9.121094775470429"><ele>38.5</ele><time>2026-04-18T14:57:56Z</time></trkpt><trkpt lat="39.269606199768695" lon="9.121191189319"><ele>38.75</ele><time>2026-04-18T14:57:57Z</time></trkpt><trkpt lat="39.26948843721934" lon="9.121289616014161"><ele>39.0</ele><time>2026-04-18T14:57:58Z</time></trkpt><trkpt lat="39.269370732068076" lon="9.121386934452778"><ele>39.0</ele><time>2026-04-18T14:57:59Z</time></trkpt><trkpt lat="39.26926012134427" lon="9.121483838870304"><ele>39.0</ele><time>2026-04-18T14:58:00Z</time></trkpt><trkpt lat="39.2691526893241" lon="9.121580025971298"><ele>39.0</ele><time>2026-04-18T14:58:01Z</time></trkpt><trkpt lat="39.26905806947312" lon="9.12166323948011"><ele>39.0</ele><time>2026-04-18T14:58:02Z</time></trkpt><trkpt lat="39.268974395594675" lon="9.12173144716763"><ele>38.333333333333336</ele><time>2026-04-18T14:58:03Z</time></trkpt><trkpt lat="39.26889914392668" lon="9.121782020521472"><ele>37.666666666666664</ele><time>2026-04-18T14:58:04Z</time></trkpt><trkpt lat="39.26882813949884" lon="9.12181830771194"><ele>37.0</ele><time>2026-04-18T14:58:05Z</time></trkpt><trkpt lat="39.26876450688112" lon="9.121839535371903"><ele>36.33333333333333</ele><time>2026-04-18T14:58:06Z</time></trkpt><trkpt lat="39.26869370889113" lon="9.121852856312369"><ele>35.666666666666664</ele><time>2026-04-18T14:58:07Z</time></trkpt><trkpt lat="39.268629785113156" lon="9.121817907132339"><ele>35.0</ele><time>2026-04-18T14:58:08Z</time></trkpt><trkpt lat="39.26854333217735" lon="9.12187221239233"><ele>35.0</ele><time>2026-04-18T14:58:09Z</time></trkpt><trkpt lat="39.26850267012206" lon="9.122004885080164"><ele>35.0</ele><time>2026-04-18T14:58:10Z</time></trkpt><trkpt lat="39.26844437299458" lon="9.122104618538007"><ele>35.0</ele><time>2026-04-18T14:58:11Z</time></trkpt><trkpt lat="39.26836537484447" lon="9.122199099695864"><ele>35.0</ele><time>2026-04-18T14:58:12Z</time></trkpt><trkpt lat="39.268282640055176" lon="9.122288616379564"><ele>35.0</ele><time>2026-04-18T14:58:13Z</time></trkpt><trkpt lat="39.26819148323007" lon="9.122383547969513"><ele>34.75</ele><time>2026-04-18T14:58:14Z</time></trkpt><trkpt lat="39.26809895863266" lon="9.122478295697652"><ele>34.5</ele><time>2026-04-18T14:58:15Z</time></trkpt><trkpt lat="39.26801151753303" lon="9.122569947415322"><ele>34.25</ele><time>2026-04-18T14:58:16Z</time></trkpt><trkpt lat="39.2679287232859" lon="9.12266819738602"><ele>34.0</ele><time>2026-04-18T14:58:17Z</time></trkpt><trkpt lat="39.26785344625328" lon="9.122768414723652"><ele>34.0</ele><time>2026-04-18T14:58:18Z</time></trkpt><trkpt lat="39.26778595417237" lon="9.122873294075832"><ele>34.0</ele><time>2026-04-18T14:58:19Z</time></trkpt><trkpt lat="39.26771634621145" lon="9.122991696888187"><ele>34.0</ele><time>2026-04-18T14:58:20Z</time></trkpt><trkpt lat="39.267652858380444" lon="9.12311496284916"><ele>34.0</ele><time>2026-04-18T14:58:21Z</time></trkpt><trkpt lat="39.267589744195384" lon="9.123248841112545"><ele>33.5</ele><time>2026-04-18T14:58:22Z</time></trkpt><trkpt lat="39.26753257484494" lon="9.123391355092535"><ele>33.0</ele><time>2026-04-18T14:58:23Z</time></trkpt><trkpt lat="39.26748127368883" lon="9.123541266043485"><ele>32.5</ele><time>2026-04-18T14:58:24Z</time></trkpt><trkpt lat="39.267434641978745" lon="9.123696213663678"><ele>32.0</ele><time>2026-04-18T14:58:25Z</time></trkpt><trkpt lat="39.2673951890587" lon="9.123857313920212"><ele>32.0</ele><time>2026-04-18T14:58:26Z</time></trkpt><trkpt lat="39.267359089226275" lon="9.124023563162895"><ele>32.0</ele><time>2026-04-18T14:58:27Z</time></trkpt><trkpt lat="39.267324474925594" lon="9.124192305443788"><ele>32.0</ele><time>2026-04-18T14:58:28Z</time></trkpt><trkpt lat="39.26729157271468" lon="9.124363274121032"><ele>32.0</ele><time>2026-04-18T14:58:29Z</time></trkpt><trkpt lat="39.267258507075084" lon="9.124530524874377"><ele>32.25</ele><time>2026-04-18T14:58:30Z</time></trkpt><trkpt lat="39.267227475639395" lon="9.124694398791183"><ele>32.5</ele><time>2026-04-18T14:58:31Z</time></trkpt><trkpt lat="39.26719753820502" lon="9.124858308384441"><ele>32.75</ele><time>2026-04-18T14:58:32Z</time></trkpt><trkpt lat="39.2671609754109" lon="9.1250185329348"><ele>33.0</ele><time>2026-04-18T14:58:33Z</time></trkpt><trkpt lat="39.26711714669648" lon="9.125174004086977"><ele>32.5</ele><time>2026-04-18T14:58:34Z</time></trkpt><trkpt lat="39.267066925595934" lon="9.125328084486577"><ele>32.0</ele><time>2026-04-18T14:58:35Z</time></trkpt><trkpt lat="39.26701225727312" lon="9.125482099168739"><ele>31.5</ele><time>2026-04-18T14:58:36Z</time></trkpt><trkpt lat="39.26695359841553" lon="9.125633955586954"><ele>31.0</ele><time>2026-04-18T14:58:37Z</time></trkpt><trkpt lat="39.266887822899164" lon="9.125783588722133"><ele>31.0</ele><time>2026-04-18T14:58:38Z</time></trkpt><trkpt lat="39.26681181833608" lon="9.125927308195513"><ele>31.0</ele><time>2026-04-18T14:58:39Z</time></trkpt><trkpt lat="39.26672697316033" lon="9.12606730582487"><ele>31.0</ele><time>2026-04-18T14:58:40Z</time></trkpt><trkpt lat="39.26663748165194" lon="9.126205331950816"><ele>31.0</ele><time>2026-04-18T14:58:41Z</time></trkpt><trkpt lat="39.26653880534035" lon="9.126333185144373"><ele>30.0</ele><time>2026-04-18T14:58:42Z</time></trkpt><trkpt lat="39.26643543801303" lon="9.126450835458582"><ele>29.0</ele><time>2026-04-18T14:58:43Z</time></trkpt><trkpt lat="39.26633605983403" lon="9.126567748749077"><ele>28.0</ele><time>2026-04-18T14:58:44Z</time></trkpt><trkpt lat="39.266242348577016" lon="9.126685182162806"><ele>27.0</ele><time>2026-04-18T14:58:45Z</time></trkpt><trkpt lat="39.266147176069325" lon="9.126796718370512"><ele>26.5</ele><time>2026-04-18T14:58:46Z</time></trkpt><trkpt lat="39.26604897689414" lon="9.126904595422701"><ele>26.0</ele><time>2026-04-18T14:58:47Z</time></trkpt><trkpt lat="39.265947423802245" lon="9.127014371413125"><ele>25.5</ele><time>2026-04-18T14:58:48Z</time></trkpt><trkpt lat="39.26584439156294" lon="9.127123486751076"><ele>25.0</ele><time>2026-04-18T14:58:49Z</time></trkpt><trkpt lat="39.2657409190808" lon="9.127238248490064"><ele>25.0</ele><time>2026-04-18T14:58:50Z</time></trkpt><trkpt lat="39.26563805096976" lon="9.12735886790631"><ele>25.0</ele><time>2026-04-18T14:58:51Z</time></trkpt><trkpt lat="39.265536239397825" lon="9.127473934828332"><ele>25.0</ele><time>2026-04-18T14:58:52Z</time></trkpt><trkpt lat="39.265438661953304" lon="9.127576237908738"><ele>25.0</ele><time>2026-04-18T14:58:53Z</time></trkpt><trkpt lat="39.26534452700206" lon="9.12767071450519"><ele>24.8</ele><time>2026-04-18T14:58:54Z</time></trkpt><trkpt lat="39.26525787759864" lon="9.127761321556493"><ele>24.6</ele><time>2026-04-18T14:58:55Z</time></trkpt><trkpt lat="39.26517317136948" lon="9.12784353749211"><ele>24.4</ele><time>2026-04-18T14:58:56Z</time></trkpt><trkpt lat="39.26508459678815" lon="9.127908973808845"><ele>24.2</ele><time>2026-04-18T14:58:57Z</time></trkpt><trkpt lat="39.264989216768534" lon="9.127926615418843"><ele>24.0</ele><time>2026-04-18T14:58:58Z</time></trkpt><trkpt lat="39.26488507157662" lon="9.127901854539012"><ele>24.0</ele><time>2026-04-18T14:58:59Z</time></trkpt><trkpt lat="39.26479671959101" lon="9.127836445796897"><ele>24.0</ele><time>2026-04-18T14:59:00Z</time></trkpt><trkpt lat="39.26471982322962" lon="9.127739923223809"><ele>24.0</ele><time>2026-04-18T14:59:01Z</time></trkpt><trkpt lat="39.26467273000001" lon="9.127620959608883"><ele>24.0</ele><time>2026-04-18T14:59:02Z</time></trkpt><trkpt lat="39.26466713272541" lon="9.127481257753871"><ele>24.0</ele><time>2026-04-18T14:59:03Z</time></trkpt><trkpt lat="39.26469913795352" lon="9.127339038260075"><ele>25.0</ele><time>2026-04-18T14:59:04Z</time></trkpt><trkpt lat="39.26477020368664" lon="9.127220076564308"><ele>26.0</ele><time>2026-04-18T14:59:05Z</time></trkpt><trkpt lat="39.264867235514195" lon="9.127137573303946"><ele>27.0</ele><time>2026-04-18T14:59:06Z</time></trkpt><trkpt lat="39.264976667250174" lon="9.127103463258987"><ele>28.0</ele><time>2026-04-18T14:59:07Z</time></trkpt><trkpt lat="39.265088726306146" lon="9.127122935621134"><ele>28.25</ele><time>2026-04-18T14:59:08Z</time></trkpt><trkpt lat="39.265186562984596" lon="9.127184975095345"><ele>28.5</ele><time>2026-04-18T14:59:09Z</time></trkpt><trkpt lat="39.26525779866807" lon="9.127301870974447"><ele>28.75</ele><time>2026-04-18T14:59:10Z</time></trkpt><trkpt lat="39.265310272946294" lon="9.127438129011175"><ele>29.0</ele><time>2026-04-18T14:59:11Z</time></trkpt><trkpt lat="39.26533363500889" lon="9.127592185249638"><ele>27.75</ele><time>2026-04-18T14:59:12Z</time></trkpt><trkpt lat="39.26534883487737" lon="9.127744088414337"><ele>26.5</ele><time>2026-04-18T14:59:13Z</time></trkpt><trkpt lat="39.265370704118" lon="9.127907421064137"><ele>25.25</ele><time>2026-04-18T14:59:14Z</time></trkpt><trkpt lat="39.2653987643722" lon="9.128080589188002"><ele>24.0</ele><time>2026-04-18T14:59:15Z</time></trkpt><trkpt lat="39.26542856624176" lon="9.128261009047955"><ele>23.666666666666668</ele><time>2026-04-18T14:59:16Z</time></trkpt><trkpt lat="39.265449654313166" lon="9.12845377431083"><ele>23.333333333333336</ele><time>2026-04-18T14:59:17Z</time></trkpt><trkpt lat="39.26547118337347" lon="9.128655179185952"><ele>23.0</ele><time>2026-04-18T14:59:18Z</time></trkpt><trkpt lat="39.26549202236796" lon="9.128864544769355"><ele>22.666666666666668</ele><time>2026-04-18T14:59:19Z</time></trkpt><trkpt lat="39.265511798066285" lon="9.129083090996255"><ele>22.333333333333332</ele><time>2026-04-18T14:59:20Z</time></trkpt><trkpt lat="39.265532901578005" lon="9.129307870360954"><ele>22.0</ele><time>2026-04-18T14:59:21Z</time></trkpt><trkpt lat="39.26555727779613" lon="9.12954027804597"><ele>22.0</ele><time>2026-04-18T14:59:22Z</time></trkpt><trkpt lat="39.265581234251584" lon="9.129774165286248"><ele>22.0</ele><time>2026-04-18T14:59:23Z</time></trkpt><trkpt lat="39.265606759505474" lon="9.130009483941576"><ele>22.0</ele><time>2026-04-18T14:59:24Z</time></trkpt><trkpt lat="39.26562912515629" lon="9.130240870682524"><ele>21.0</ele><time>2026-04-18T14:59:25Z</time></trkpt><trkpt lat="39.265649724137845" lon="9.13047388599408"><ele>20.0</ele><time>2026-04-18T14:59:26Z</time></trkpt><trkpt lat="39.265672773945084" lon="9.13070610430065"><ele>19.0</ele><time>2026-04-18T14:59:27Z</time></trkpt><trkpt lat="39.26569715087644" lon="9.130939797186704"><ele>19.0</ele><time>2026-04-18T14:59:28Z</time></trkpt><trkpt lat="39.265724075908814" lon="9.131176841700668"><ele>19.0</ele><time>2026-04-18T14:59:29Z</time></trkpt><trkpt lat="39.26575085898917" lon="9.131417247219845"><ele>19.0</ele><time>2026-04-18T14:59:30Z</time></trkpt><trkpt lat="39.26577527031408" lon="9.131659510267113"><ele>19.0</ele><time>2026-04-18T14:59:31Z</time></trkpt><trkpt lat="39.26580059265945" lon="9.131905307012973"><ele>19.0</ele><time>2026-04-18T14:59:32Z</time></trkpt><trkpt lat="39.26582614697414" lon="9.132149239765926"><ele>19.0</ele><time>2026-04-18T14:59:33Z</time></trkpt><trkpt lat="39.2658504651575" lon="9.132390955132076"><ele>19.0</ele><time>2026-04-18T14:59:34Z</time></trkpt><trkpt lat="39.265874836082716" lon="9.132630898747214"><ele>19.0</ele><time>2026-04-18T14:59:35Z</time></trkpt><trkpt lat="39.265899974036756" lon="9.132869316834368"><ele>19.0</ele><time>2026-04-18T14:59:36Z</time></trkpt><trkpt lat="39.265924019214665" lon="9.133103237592508"><ele>19.0</ele><time>2026-04-18T14:59:37Z</time></trkpt><trkpt lat="39.26594656023145" lon="9.133338128876478"><ele>19.0</ele><time>2026-04-18T14:59:38Z</time></trkpt><trkpt lat="39.26596870294738" lon="9.133574596209485"><ele>19.0</ele><time>2026-04-18T14:59:39Z</time></trkpt><trkpt lat="39.265990977021325" lon="9.133812499827238"><ele>19.0</ele><time>2026-04-18T14:59:40Z</time></trkpt><trkpt lat="39.26601452261662" lon="9.134051317362113"><ele>19.0</ele><time>2026-04-18T14:59:41Z</time></trkpt><trkpt lat="39.26603769013096" lon="9.134291067540628"><ele>19.0</ele><time>2026-04-18T14:59:42Z</time></trkpt><trkpt lat="39.26606043195042" lon="9.134533714289832"><ele>18.333333333333332</ele><time>2026-04-18T14:59:43Z</time></trkpt><trkpt lat="39.2660836617024" lon="9.134773575058555"><ele>17.666666666666668</ele><time>2026-04-18T14:59:44Z</time></trkpt><trkpt lat="39.266108183044274" lon="9.135011601484448"><ele>17.0</ele><time>2026-04-18T14:59:45Z</time></trkpt><trkpt lat="39.266133846913625" lon="9.135247859293676"><ele>17.0</ele><time>2026-04-18T14:59:46Z</time></trkpt><trkpt lat="39.26615732207012" lon="9.135479819662816"><ele>17.0</ele><time>2026-04-18T14:59:47Z</time></trkpt><trkpt lat="39.2661781756218" lon="9.135692850590946"><ele>17.0</ele><time>2026-04-18T14:59:48Z</time></trkpt><trkpt lat="39.266198375115295" lon="9.135904987611704"><ele>16.666666666666668</ele><time>2026-04-18T14:59:49Z</time></trkpt><trkpt lat="39.26621921067598" lon="9.13610976005315"><ele>16.333333333333332</ele><time>2026-04-18T14:59:50Z</time></trkpt><trkpt lat="39.26623985028249" lon="9.136302805846066"><ele>16.0</ele><time>2026-04-18T14:59:51Z</time></trkpt><trkpt lat="39.266256660642135" lon="9.136488653184497"><ele>15.75</ele><time>2026-04-18T14:59:52Z</time></trkpt><trkpt lat="39.26627339578088" lon="9.136666474553879"><ele>15.5</ele><time>2026-04-18T14:59:53Z</time></trkpt><trkpt lat="39.26628980433305" lon="9.136835816599897"><ele>15.25</ele><time>2026-04-18T14:59:54Z</time></trkpt><trkpt lat="39.26630625540832" lon="9.136999390401805"><ele>15.0</ele><time>2026-04-18T14:59:55Z</time></trkpt><trkpt lat="39.26632198464755" lon="9.137152946946765"><ele>15.0</ele><time>2026-04-18T14:59:56Z</time></trkpt><trkpt lat="39.26633495095395" lon="9.13728101275102"><ele>15.0</ele><time>2026-04-18T14:59:57Z</time></trkpt><trkpt lat="39.2663458813619" lon="9.137386624509704"><ele>15.0</ele><time>2026-04-18T14:59:58Z</time></trkpt><trkpt lat="39.26635478948516" lon="9.137471834012578"><ele>15.0</ele><time>2026-04-18T14:59:59Z</time></trkpt><trkpt lat="39.2663683905265" lon="9.137599173553363"><ele>15.0</ele><time>2026-04-18T15:00:01Z</time></trkpt><trkpt lat="39.26637541344511" lon="9.137687156710845"><ele>15.0</ele><time>2026-04-18T15:00:04Z</time></trkpt><trkpt lat="39.26638713526592" lon="9.137824993164227"><ele>15.2</ele><time>2026-04-18T15:00:11Z</time></trkpt><trkpt lat="39.26641244378249" lon="9.137974673662548"><ele>15.4</ele><time>2026-04-18T15:00:13Z</time></trkpt><trkpt lat="39.266434147076794" lon="9.138141194303113"><ele>15.600000000000001</ele><time>2026-04-18T15:00:15Z</time></trkpt><trkpt lat="39.26644015914064" lon="9.1382405566096"><ele>15.8</ele><time>2026-04-18T15:00:16Z</time></trkpt><trkpt lat="39.266446506053754" lon="9.138348259377027"><ele>16.0</ele><time>2026-04-18T15:00:17Z</time></trkpt><trkpt lat="39.26645501749847" lon="9.138463903973333"><ele>16.0</ele><time>2026-04-18T15:00:18Z</time></trkpt><trkpt lat="39.26646510569019" lon="9.138582557098395"><ele>16.0</ele><time>2026-04-18T15:00:19Z</time></trkpt><trkpt lat="39.26648130567106" lon="9.138715613868529"><ele>16.0</ele><time>2026-04-18T15:00:20Z</time></trkpt><trkpt lat="39.26649842082425" lon="9.138858975895165"><ele>16.0</ele><time>2026-04-18T15:00:21Z</time></trkpt><trkpt lat="39.26651064084061" lon="9.139014617201616"><ele>16.0</ele><time>2026-04-18T15:00:22Z</time></trkpt><trkpt lat="39.266522807163355" lon="9.139183625429029"><ele>16.0</ele><time>2026-04-18T15:00:23Z</time></trkpt><trkpt lat="39.2665381625536" lon="9.139352464620563"><ele>16.0</ele><time>2026-04-18T15:00:24Z</time></trkpt><trkpt lat="39.26655520208276" lon="9.139535690198539"><ele>16.0</ele><time>2026-04-18T15:00:25Z</time></trkpt><trkpt lat="39.26657353069996" lon="9.139728278706997"><ele>16.0</ele><time>2026-04-18T15:00:26Z</time></trkpt><trkpt lat="39.266593846591356" lon="9.139920465163094"><ele>16.333333333333332</ele><time>2026-04-18T15:00:27Z</time></trkpt><trkpt lat="39.26661574334694" lon="9.140114257509667"><ele>16.666666666666668</ele><time>2026-04-18T15:00:28Z</time></trkpt><trkpt lat="39.266637974239146" lon="9.140311933460595"><ele>17.0</ele><time>2026-04-18T15:00:29Z</time></trkpt><trkpt lat="39.266659845696175" lon="9.140508682060208"><ele>17.0</ele><time>2026-04-18T15:00:30Z</time></trkpt><trkpt lat="39.266679616205046" lon="9.140697004859012"><ele>17.0</ele><time>2026-04-18T15:00:31Z</time></trkpt><trkpt lat="39.26669961434237" lon="9.140880306766219"><ele>17.0</ele><time>2026-04-18T15:00:32Z</time></trkpt><trkpt lat="39.26671744606015" lon="9.141062766233773"><ele>17.0</ele><time>2026-04-18T15:00:33Z</time></trkpt><trkpt lat="39.26673332591503" lon="9.14124836944688"><ele>16.5</ele><time>2026-04-18T15:00:34Z</time></trkpt><trkpt lat="39.26675013251233" lon="9.14143595362365"><ele>16.0</ele><time>2026-04-18T15:00:35Z</time></trkpt><trkpt lat="39.266766064484834" lon="9.1416259491013"><ele>15.5</ele><time>2026-04-18T15:00:36Z</time></trkpt><trkpt lat="39.26678456350281" lon="9.141816587617603"><ele>15.0</ele><time>2026-04-18T15:00:37Z</time></trkpt><trkpt lat="39.266808474431976" lon="9.142006173497668"><ele>15.0</ele><time>2026-04-18T15:00:38Z</time></trkpt><trkpt lat="39.266830295571346" lon="9.142199416960706"><ele>15.0</ele><time>2026-04-18T15:00:39Z</time></trkpt><trkpt lat="39.26685048159531" lon="9.142398167463387"><ele>15.0</ele><time>2026-04-18T15:00:40Z</time></trkpt><trkpt lat="39.26686750557224" lon="9.142599153435077"><ele>15.0</ele><time>2026-04-18T15:00:41Z</time></trkpt><trkpt lat="39.26688648557403" lon="9.142802138963276"><ele>15.0</ele><time>2026-04-18T15:00:42Z</time></trkpt><trkpt lat="39.266906681266036" lon="9.143008205855155"><ele>15.0</ele><time>2026-04-18T15:00:43Z</time></trkpt><trkpt lat="39.26692715774959" lon="9.143217812658632"><ele>15.666666666666668</ele><time>2026-04-18T15:00:44Z</time></trkpt><trkpt lat="39.26694610334265" lon="9.14342365189458"><ele>16.333333333333336</ele><time>2026-04-18T15:00:45Z</time></trkpt><trkpt lat="39.266967407824424" lon="9.143637289477914"><ele>17.0</ele><time>2026-04-18T15:00:46Z</time></trkpt><trkpt lat="39.26699149138753" lon="9.143847059361477"><ele>17.333333333333336</ele><time>2026-04-18T15:00:47Z</time></trkpt><trkpt lat="39.26701385779858" lon="9.144062923071392"><ele>17.666666666666668</ele><time>2026-04-18T15:00:48Z</time></trkpt><trkpt lat="39.26703570029676" lon="9.144278417700225"><ele>18.0</ele><time>2026-04-18T15:00:49Z</time></trkpt><trkpt lat="39.26705456301182" lon="9.144491285940225"><ele>18.0</ele><time>2026-04-18T15:00:50Z</time></trkpt><trkpt lat="39.26707477384235" lon="9.144707437272158"><ele>18.0</ele><time>2026-04-18T15:00:51Z</time></trkpt><trkpt lat="39.267095770045174" lon="9.144926547500603"><ele>18.0</ele><time>2026-04-18T15:00:52Z</time></trkpt><trkpt lat="39.26712031893237" lon="9.145142129944956"><ele>18.0</ele><time>2026-04-18T15:00:53Z</time></trkpt><trkpt lat="39.26714054368172" lon="9.145356307378828"><ele>18.0</ele><time>2026-04-18T15:00:54Z</time></trkpt><trkpt lat="39.267163246759445" lon="9.145571496141558"><ele>18.0</ele><time>2026-04-18T15:00:55Z</time></trkpt><trkpt lat="39.26718346682441" lon="9.145790570123017"><ele>18.0</ele><time>2026-04-18T15:00:56Z</time></trkpt><trkpt lat="39.26720463205937" lon="9.146010052631082"><ele>18.0</ele><time>2026-04-18T15:00:57Z</time></trkpt><trkpt lat="39.26722744808966" lon="9.146231578764477"><ele>18.0</ele><time>2026-04-18T15:00:58Z</time></trkpt><trkpt lat="39.26724910864952" lon="9.146452277688573"><ele>18.0</ele><time>2026-04-18T15:00:59Z</time></trkpt><trkpt lat="39.26727051607853" lon="9.14667051150297"><ele>18.0</ele><time>2026-04-18T15:01:00Z</time></trkpt><trkpt lat="39.26729015909199" lon="9.146881598917954"><ele>18.0</ele><time>2026-04-18T15:01:01Z</time></trkpt><trkpt lat="39.26731045447835" lon="9.14709138552429"><ele>18.0</ele><time>2026-04-18T15:01:02Z</time></trkpt><trkpt lat="39.267329476288545" lon="9.147295784655173"><ele>18.0</ele><time>2026-04-18T15:01:03Z</time></trkpt><trkpt lat="39.26735333176962" lon="9.147487098599925"><ele>18.0</ele><time>2026-04-18T15:01:04Z</time></trkpt><trkpt lat="39.267376202573" lon="9.147669450601015"><ele>18.0</ele><time>2026-04-18T15:01:05Z</time></trkpt><trkpt lat="39.26739634473047" lon="9.147839673649456"><ele>18.0</ele><time>2026-04-18T15:01:06Z</time></trkpt><trkpt lat="39.26741247931122" lon="9.148000271483452"><ele>18.0</ele><time>2026-04-18T15:01:07Z</time></trkpt><trkpt lat="39.26742686669395" lon="9.14814833662266"><ele>18.0</ele><time>2026-04-18T15:01:08Z</time></trkpt><trkpt lat="39.26744087992191" lon="9.148286085668015"><ele>18.0</ele><time>2026-04-18T15:01:09Z</time></trkpt><trkpt lat="39.26745586247926" lon="9.148418544192173"><ele>18.0</ele><time>2026-04-18T15:01:10Z</time></trkpt><trkpt lat="39.26746848588116" lon="9.148547173293945"><ele>18.0</ele><time>2026-04-18T15:01:11Z</time></trkpt><trkpt lat="39.26747887225729" lon="9.148670472642264"><ele>18.0</ele><time>2026-04-18T15:01:12Z</time></trkpt><trkpt lat="39.26749063029031" lon="9.148788804435176"><ele>18.0</ele><time>2026-04-18T15:01:13Z</time></trkpt><trkpt lat="39.267505104134685" lon="9.148900883376545"><ele>18.000000000000004</ele><time>2026-04-18T15:01:14Z</time></trkpt><trkpt lat="39.267516477157514" lon="9.149007316403473"><ele>18.0</ele><time>2026-04-18T15:01:15Z</time></trkpt><trkpt lat="39.26752626581001" lon="9.149106982254224"><ele>18.0</ele><time>2026-04-18T15:01:16Z</time></trkpt><trkpt lat="39.267535787672166" lon="9.149201650943022"><ele>18.0</ele><time>2026-04-18T15:01:17Z</time></trkpt><trkpt lat="39.267543583953454" lon="9.149290191441652"><ele>18.0</ele><time>2026-04-18T15:01:18Z</time></trkpt><trkpt lat="39.267552275710166" lon="9.149375020076441"><ele>18.000000000000004</ele><time>2026-04-18T15:01:19Z</time></trkpt><trkpt lat="39.267560008940265" lon="9.14945775336412"><ele>18.0</ele><time>2026-04-18T15:01:20Z</time></trkpt><trkpt lat="39.2675753588675" lon="9.149618404618431"><ele>17.75</ele><time>2026-04-18T15:01:22Z</time></trkpt><trkpt lat="39.26758999857935" lon="9.149770693943768"><ele>17.5</ele><time>2026-04-18T15:01:24Z</time></trkpt><trkpt lat="39.26760524053231" lon="9.149927499334407"><ele>17.25</ele><time>2026-04-18T15:01:26Z</time></trkpt><trkpt lat="39.26762167578186" lon="9.150073811888195"><ele>17.0</ele><time>2026-04-18T15:01:28Z</time></trkpt><trkpt lat="39.26763456405353" lon="9.15021514883662"><ele>17.0</ele><time>2026-04-18T15:01:30Z</time></trkpt><trkpt lat="39.26764999750788" lon="9.150353415630166"><ele>17.0</ele><time>2026-04-18T15:01:32Z</time></trkpt><trkpt lat="39.267662525099624" lon="9.150483946636932"><ele>17.0</ele><time>2026-04-18T15:01:34Z</time></trkpt><trkpt lat="39.26767720257121" lon="9.150604187797041"><ele>17.0</ele><time>2026-04-18T15:01:36Z</time></trkpt><trkpt lat="39.26769231701369" lon="9.150720073742605"><ele>17.0</ele><time>2026-04-18T15:01:38Z</time></trkpt><trkpt lat="39.26770418906771" lon="9.150831048723434"><ele>17.0</ele><time>2026-04-18T15:01:40Z</time></trkpt><trkpt lat="39.26771219715687" lon="9.150918517260068"><ele>17.0</ele><time>2026-04-18T15:01:42Z</time></trkpt><trkpt lat="39.267711882996316" lon="9.151014028977452"><ele>17.0</ele><time>2026-04-18T15:01:46Z</time></trkpt><trkpt lat="39.26772807612993" lon="9.151116316740882"><ele>17.0</ele><time>2026-04-18T15:01:50Z</time></trkpt><trkpt lat="39.26773483153043" lon="9.15121520876253"><ele>17.0</ele><time>2026-04-18T15:01:53Z</time></trkpt><trkpt lat="39.26774276688345" lon="9.15131512181641"><ele>17.0</ele><time>2026-04-18T15:01:56Z</time></trkpt><trkpt lat="39.26775273493529" lon="9.151432434516378"><ele>17.0</ele><time>2026-04-18T15:02:08Z</time></trkpt><trkpt lat="39.26775981513961" lon="9.151580240620138"><ele>17.0</ele><time>2026-04-18T15:02:10Z</time></trkpt><trkpt lat="39.2677706335174" lon="9.15167127898194"><ele>17.0</ele><time>2026-04-18T15:02:11Z</time></trkpt><trkpt lat="39.26777842660104" lon="9.151783094374693"><ele>17.0</ele><time>2026-04-18T15:02:12Z</time></trkpt><trkpt lat="39.26778937915567" lon="9.151896601862944"><ele>17.0</ele><time>2026-04-18T15:02:13Z</time></trkpt><trkpt lat="39.26779823813293" lon="9.152030646310996"><ele>17.0</ele><time>2026-04-18T15:02:14Z</time></trkpt><trkpt lat="39.26781006050697" lon="9.152177051105102"><ele>17.0</ele><time>2026-04-18T15:02:15Z</time></trkpt><trkpt lat="39.26782571623179" lon="9.15232873017499"><ele>17.0</ele><time>2026-04-18T15:02:16Z</time></trkpt><trkpt lat="39.26784258436347" lon="9.152493118797429"><ele>17.0</ele><time>2026-04-18T15:02:17Z</time></trkpt><trkpt lat="39.26785985090174" lon="9.152664603515637"><ele>17.5</ele><time>2026-04-18T15:02:18Z</time></trkpt><trkpt lat="39.2678770112678" lon="9.152835174026984"><ele>18.0</ele><time>2026-04-18T15:02:19Z</time></trkpt><trkpt lat="39.26789227907841" lon="9.15300874782676"><ele>18.5</ele><time>2026-04-18T15:02:20Z</time></trkpt><trkpt lat="39.26790841906709" lon="9.153186792347507"><ele>19.0</ele><time>2026-04-18T15:02:21Z</time></trkpt><trkpt lat="39.26792969316903" lon="9.153370068162351"><ele>19.333333333333332</ele><time>2026-04-18T15:02:22Z</time></trkpt><trkpt lat="39.2679503122232" lon="9.153557890802364"><ele>19.666666666666668</ele><time>2026-04-18T15:02:23Z</time></trkpt><trkpt lat="39.267966977892485" lon="9.153751163775615"><ele>20.0</ele><time>2026-04-18T15:02:24Z</time></trkpt><trkpt lat="39.26798744175581" lon="9.153947017655849"><ele>20.0</ele><time>2026-04-18T15:02:25Z</time></trkpt><trkpt lat="39.268006199067884" lon="9.154146626737136"><ele>20.0</ele><time>2026-04-18T15:02:26Z</time></trkpt><trkpt lat="39.26802325745648" lon="9.154346616475614"><ele>20.0</ele><time>2026-04-18T15:02:27Z</time></trkpt><trkpt lat="39.26803642312814" lon="9.154551039391414"><ele>20.0</ele><time>2026-04-18T15:02:28Z</time></trkpt><trkpt lat="39.268041311330386" lon="9.15475747522798"><ele>20.0</ele><time>2026-04-18T15:02:29Z</time></trkpt><trkpt lat="39.26803549316027" lon="9.154963116626881"><ele>20.0</ele><time>2026-04-18T15:02:30Z</time></trkpt><trkpt lat="39.26802331203502" lon="9.155176992645357"><ele>19.666666666666668</ele><time>2026-04-18T15:02:31Z</time></trkpt><trkpt lat="39.26800528835244" lon="9.155391221370238"><ele>19.333333333333332</ele><time>2026-04-18T15:02:32Z</time></trkpt><trkpt lat="39.26797877209222" lon="9.15561188410044"><ele>19.0</ele><time>2026-04-18T15:02:33Z</time></trkpt><trkpt lat="39.26794464583902" lon="9.155834113544355"><ele>18.666666666666664</ele><time>2026-04-18T15:02:34Z</time></trkpt><trkpt lat="39.26790012617583" lon="9.156057065472398"><ele>18.333333333333332</ele><time>2026-04-18T15:02:35Z</time></trkpt><trkpt lat="39.26784520330569" lon="9.156276263342148"><ele>18.0</ele><time>2026-04-18T15:02:36Z</time></trkpt><trkpt lat="39.2677851652047" lon="9.156498933977655"><ele>18.0</ele><time>2026-04-18T15:02:37Z</time></trkpt><trkpt lat="39.26772418210553" lon="9.156725043509901"><ele>18.0</ele><time>2026-04-18T15:02:38Z</time></trkpt><trkpt lat="39.267661866428384" lon="9.15695301485991"><ele>18.0</ele><time>2026-04-18T15:02:39Z</time></trkpt><trkpt lat="39.26759470505554" lon="9.157185445432228"><ele>18.0</ele><time>2026-04-18T15:02:40Z</time></trkpt><trkpt lat="39.267527722051504" lon="9.157417649684474"><ele>18.0</ele><time>2026-04-18T15:02:41Z</time></trkpt><trkpt lat="39.26746029962701" lon="9.157656525959707"><ele>18.0</ele><time>2026-04-18T15:02:42Z</time></trkpt><trkpt lat="39.26739329291125" lon="9.15789654654639"><ele>18.0</ele><time>2026-04-18T15:02:43Z</time></trkpt><trkpt lat="39.26732397400566" lon="9.158135472062694"><ele>18.0</ele><time>2026-04-18T15:02:44Z</time></trkpt><trkpt lat="39.267253749004134" lon="9.15837631197498"><ele>18.0</ele><time>2026-04-18T15:02:45Z</time></trkpt><trkpt lat="39.2671825859135" lon="9.158614949922725"><ele>17.666666666666668</ele><time>2026-04-18T15:02:46Z</time></trkpt><trkpt lat="39.26711323431349" lon="9.158855265287592"><ele>17.333333333333336</ele><time>2026-04-18T15:02:47Z</time></trkpt><trkpt lat="39.26704169443261" lon="9.159093784155164"><ele>17.0</ele><time>2026-04-18T15:02:48Z</time></trkpt><trkpt lat="39.26697407671417" lon="9.15933214988672"><ele>17.0</ele><time>2026-04-18T15:02:49Z</time></trkpt><trkpt lat="39.26690746877718" lon="9.15956879274776"><ele>17.0</ele><time>2026-04-18T15:02:50Z</time></trkpt><trkpt lat="39.26683873986422" lon="9.159804572774991"><ele>17.0</ele><time>2026-04-18T15:02:51Z</time></trkpt><trkpt lat="39.26677283700592" lon="9.160042023514773"><ele>16.333333333333336</ele><time>2026-04-18T15:02:52Z</time></trkpt><trkpt lat="39.26670565047104" lon="9.16027730673535"><ele>15.666666666666668</ele><time>2026-04-18T15:02:53Z</time></trkpt><trkpt lat="39.2666400882885" lon="9.160511723236905"><ele>15.0</ele><time>2026-04-18T15:02:54Z</time></trkpt><trkpt lat="39.26657405234015" lon="9.160746395080444"><ele>15.0</ele><time>2026-04-18T15:02:55Z</time></trkpt><trkpt lat="39.26650753816251" lon="9.16097653531944"><ele>15.0</ele><time>2026-04-18T15:02:56Z</time></trkpt><trkpt lat="39.26644140415674" lon="9.161210824348155"><ele>15.0</ele><time>2026-04-18T15:02:57Z</time></trkpt><trkpt lat="39.26637635395204" lon="9.161442630154994"><ele>14.333333333333332</ele><time>2026-04-18T15:02:58Z</time></trkpt><trkpt lat="39.26630994620875" lon="9.161676239357945"><ele>13.666666666666666</ele><time>2026-04-18T15:02:59Z</time></trkpt><trkpt lat="39.26624243724213" lon="9.16190909187239"><ele>13.0</ele><time>2026-04-18T15:03:00Z</time></trkpt><trkpt lat="39.266175172687035" lon="9.162143482281875"><ele>13.666666666666666</ele><time>2026-04-18T15:03:01Z</time></trkpt><trkpt lat="39.26610804207138" lon="9.162379138314563"><ele>14.333333333333332</ele><time>2026-04-18T15:03:02Z</time></trkpt><trkpt lat="39.26604187326174" lon="9.162614095438089"><ele>15.0</ele><time>2026-04-18T15:03:03Z</time></trkpt><trkpt lat="39.26597597192114" lon="9.162846334628993"><ele>15.0</ele><time>2026-04-18T15:03:04Z</time></trkpt><trkpt lat="39.26590993783551" lon="9.163075547839455"><ele>15.0</ele><time>2026-04-18T15:03:05Z</time></trkpt><trkpt lat="39.26584305343145" lon="9.163303717848677"><ele>15.0</ele><time>2026-04-18T15:03:06Z</time></trkpt><trkpt lat="39.26577840037147" lon="9.163535821173962"><ele>14.666666666666668</ele><time>2026-04-18T15:03:07Z</time></trkpt><trkpt lat="39.265710079366364" lon="9.163767412270843"><ele>14.333333333333334</ele><time>2026-04-18T15:03:08Z</time></trkpt><trkpt lat="39.265644452276746" lon="9.163995443145511"><ele>14.0</ele><time>2026-04-18T15:03:09Z</time></trkpt><trkpt lat="39.26558114208347" lon="9.164218738133075"><ele>14.0</ele><time>2026-04-18T15:03:10Z</time></trkpt><trkpt lat="39.26552177339108" lon="9.16444052063494"><ele>14.0</ele><time>2026-04-18T15:03:11Z</time></trkpt><trkpt lat="39.26546309754938" lon="9.164652514756979"><ele>14.0</ele><time>2026-04-18T15:03:12Z</time></trkpt><trkpt lat="39.26540466684956" lon="9.164860677878039"><ele>14.666666666666668</ele><time>2026-04-18T15:03:13Z</time></trkpt><trkpt lat="39.26534543528924" lon="9.165061003990628"><ele>15.333333333333332</ele><time>2026-04-18T15:03:14Z</time></trkpt><trkpt lat="39.26529055659287" lon="9.165260490037927"><ele>16.0</ele><time>2026-04-18T15:03:15Z</time></trkpt><trkpt lat="39.26523116877905" lon="9.165462147145272"><ele>16.0</ele><time>2026-04-18T15:03:16Z</time></trkpt><trkpt lat="39.26517413860874" lon="9.16566226923235"><ele>16.0</ele><time>2026-04-18T15:03:17Z</time></trkpt><trkpt lat="39.26511575933425" lon="9.165863324492982"><ele>16.0</ele><time>2026-04-18T15:03:18Z</time></trkpt><trkpt lat="39.2650562336028" lon="9.16606817022207"><ele>16.0</ele><time>2026-04-18T15:03:19Z</time></trkpt><trkpt lat="39.264995705078995" lon="9.166272736505784"><ele>16.0</ele><time>2026-04-18T15:03:20Z</time></trkpt><trkpt lat="39.26493809607345" lon="9.166472764881949"><ele>16.0</ele><time>2026-04-18T15:03:21Z</time></trkpt><trkpt lat="39.26487997670109" lon="9.16667643091911"><ele>16.0</ele><time>2026-04-18T15:03:22Z</time></trkpt><trkpt lat="39.26482067517103" lon="9.166881407786388"><ele>16.0</ele><time>2026-04-18T15:03:23Z</time></trkpt><trkpt lat="39.2647639224684" lon="9.167083522158856"><ele>16.0</ele><time>2026-04-18T15:03:24Z</time></trkpt><trkpt lat="39.26470521809617" lon="9.167281159260408"><ele>16.333333333333332</ele><time>2026-04-18T15:03:25Z</time></trkpt><trkpt lat="39.26464841065762" lon="9.167482864260373"><ele>16.666666666666668</ele><time>2026-04-18T15:03:26Z</time></trkpt><trkpt lat="39.26458956443204" lon="9.167685089883218"><ele>17.0</ele><time>2026-04-18T15:03:27Z</time></trkpt><trkpt lat="39.26453698224886" lon="9.167885474705445"><ele>17.0</ele><time>2026-04-18T15:03:28Z</time></trkpt><trkpt lat="39.2644802134704" lon="9.168087207152816"><ele>17.0</ele><time>2026-04-18T15:03:29Z</time></trkpt><trkpt lat="39.26442285107288" lon="9.168286866958619"><ele>17.0</ele><time>2026-04-18T15:03:30Z</time></trkpt><trkpt lat="39.26436463529334" lon="9.168486208214171"><ele>17.0</ele><time>2026-04-18T15:03:31Z</time></trkpt><trkpt lat="39.264307322460695" lon="9.168685351143496"><ele>17.0</ele><time>2026-04-18T15:03:32Z</time></trkpt><trkpt lat="39.26424594657451" lon="9.168890055967472"><ele>17.0</ele><time>2026-04-18T15:03:33Z</time></trkpt><trkpt lat="39.264188245142414" lon="9.169090199871892"><ele>17.333333333333336</ele><time>2026-04-18T15:03:34Z</time></trkpt><trkpt lat="39.26412768095617" lon="9.169294124924221"><ele>17.666666666666668</ele><time>2026-04-18T15:03:35Z</time></trkpt><trkpt lat="39.26406887381605" lon="9.169498995503417"><ele>18.0</ele><time>2026-04-18T15:03:36Z</time></trkpt><trkpt lat="39.264013300148356" lon="9.169703163093594"><ele>18.0</ele><time>2026-04-18T15:03:37Z</time></trkpt><trkpt lat="39.26395561608066" lon="9.169906325938882"><ele>18.0</ele><time>2026-04-18T15:03:38Z</time></trkpt><trkpt lat="39.26390104104759" lon="9.170115743524196"><ele>18.0</ele><time>2026-04-18T15:03:39Z</time></trkpt><trkpt lat="39.26383943341042" lon="9.170321989215685"><ele>18.0</ele><time>2026-04-18T15:03:40Z</time></trkpt><trkpt lat="39.26377539251422" lon="9.170522502879004"><ele>18.0</ele><time>2026-04-18T15:03:41Z</time></trkpt><trkpt lat="39.26371469385301" lon="9.170728090097759"><ele>18.0</ele><time>2026-04-18T15:03:42Z</time></trkpt><trkpt lat="39.26365528227036" lon="9.170933746273086"><ele>18.333333333333332</ele><time>2026-04-18T15:03:43Z</time></trkpt><trkpt lat="39.26359589888615" lon="9.171139387152904"><ele>18.666666666666664</ele><time>2026-04-18T15:03:44Z</time></trkpt><trkpt lat="39.26353763690231" lon="9.171345787417494"><ele>19.0</ele><time>2026-04-18T15:03:45Z</time></trkpt><trkpt lat="39.26347929396451" lon="9.171552509921014"><ele>19.333333333333332</ele><time>2026-04-18T15:03:46Z</time></trkpt><trkpt lat="39.26341902890312" lon="9.171754652604058"><ele>19.666666666666668</ele><time>2026-04-18T15:03:47Z</time></trkpt><trkpt lat="39.263353988760116" lon="9.17194750393459"><ele>20.0</ele><time>2026-04-18T15:03:48Z</time></trkpt><trkpt lat="39.263296750378714" lon="9.172148532960657"><ele>20.0</ele><time>2026-04-18T15:03:49Z</time></trkpt><trkpt lat="39.26323526157635" lon="9.17234807122512"><ele>20.0</ele><time>2026-04-18T15:03:50Z</time></trkpt><trkpt lat="39.26318311779744" lon="9.172547846836954"><ele>20.0</ele><time>2026-04-18T15:03:51Z</time></trkpt><trkpt lat="39.26312818322114" lon="9.172748389114831"><ele>20.0</ele><time>2026-04-18T15:03:52Z</time></trkpt><trkpt lat="39.26307621467015" lon="9.172945867896125"><ele>20.0</ele><time>2026-04-18T15:03:53Z</time></trkpt><trkpt lat="39.26302334628324" lon="9.173146642715896"><ele>20.0</ele><time>2026-04-18T15:03:54Z</time></trkpt><trkpt lat="39.26296257157716" lon="9.173339178214192"><ele>20.0</ele><time>2026-04-18T15:03:55Z</time></trkpt><trkpt lat="39.26290524107034" lon="9.173535230099404"><ele>20.0</ele><time>2026-04-18T15:03:56Z</time></trkpt><trkpt lat="39.26285916478218" lon="9.173718541091185"><ele>20.0</ele><time>2026-04-18T15:03:57Z</time></trkpt><trkpt lat="39.26281271262953" lon="9.173892547112297"><ele>20.0</ele><time>2026-04-18T15:03:58Z</time></trkpt><trkpt lat="39.26276462344449" lon="9.174049088104221"><ele>20.0</ele><time>2026-04-18T15:03:59Z</time></trkpt><trkpt lat="39.26272321136941" lon="9.174185613914878"><ele>20.0</ele><time>2026-04-18T15:04:00Z</time></trkpt><trkpt lat="39.262689867368856" lon="9.174303139789963"><ele>20.0</ele><time>2026-04-18T15:04:01Z</time></trkpt><trkpt lat="39.26266333780927" lon="9.174399004332376"><ele>20.0</ele><time>2026-04-18T15:04:02Z</time></trkpt><trkpt lat="39.26263070638979" lon="9.17451736410254"><ele>20.0</ele><time>2026-04-18T15:04:04Z</time></trkpt><trkpt lat="39.262581235079274" lon="9.17462534560744"><ele>20.0</ele><time>2026-04-18T15:05:16Z</time></trkpt><trkpt lat="39.26255985633232" lon="9.174709796713223"><ele>20.0</ele><time>2026-04-18T15:05:17Z</time></trkpt><trkpt lat="39.26253657092231" lon="9.174804436209943"><ele>20.0</ele><time>2026-04-18T15:05:18Z</time></trkpt><trkpt lat="39.262504439641866" lon="9.174912418192529"><ele>20.0</ele><time>2026-04-18T15:05:19Z</time></trkpt><trkpt lat="39.26246704896276" lon="9.17503307109174"><ele>20.0</ele><time>2026-04-18T15:05:20Z</time></trkpt><trkpt lat="39.262424920304134" lon="9.175163382982474"><ele>20.25</ele><time>2026-04-18T15:05:21Z</time></trkpt><trkpt lat="39.26238154649626" lon="9.175305163515295"><ele>20.5</ele><time>2026-04-18T15:05:22Z</time></trkpt><trkpt lat="39.262338750683355" lon="9.175453610340199"><ele>20.75</ele><time>2026-04-18T15:05:23Z</time></trkpt><trkpt lat="39.262297777278796" lon="9.17560749419663"><ele>21.0</ele><time>2026-04-18T15:05:24Z</time></trkpt><trkpt lat="39.262253197137525" lon="9.175769224256362"><ele>21.0</ele><time>2026-04-18T15:05:25Z</time></trkpt><trkpt lat="39.26220833741897" lon="9.175927224214586"><ele>21.0</ele><time>2026-04-18T15:05:26Z</time></trkpt><trkpt lat="39.262159116617056" lon="9.176094028596713"><ele>21.0</ele><time>2026-04-18T15:05:27Z</time></trkpt><trkpt lat="39.26210936106862" lon="9.176268715565943"><ele>21.0</ele><time>2026-04-18T15:05:28Z</time></trkpt><trkpt lat="39.262059910062476" lon="9.176445684374482"><ele>21.25</ele><time>2026-04-18T15:05:29Z</time></trkpt><trkpt lat="39.262006610161286" lon="9.176626831215462"><ele>21.5</ele><time>2026-04-18T15:05:30Z</time></trkpt><trkpt lat="39.261955661205256" lon="9.17680341040518"><ele>21.75</ele><time>2026-04-18T15:05:31Z</time></trkpt><trkpt lat="39.26190467802876" lon="9.176988905710163"><ele>22.0</ele><time>2026-04-18T15:05:32Z</time></trkpt><trkpt lat="39.261851842771186" lon="9.17717839118623"><ele>22.333333333333332</ele><time>2026-04-18T15:05:33Z</time></trkpt><trkpt lat="39.26179368774544" lon="9.177373129864208"><ele>22.666666666666668</ele><time>2026-04-18T15:05:34Z</time></trkpt><trkpt lat="39.26173341744917" lon="9.177569701352196"><ele>23.0</ele><time>2026-04-18T15:05:35Z</time></trkpt><trkpt lat="39.26167178956775" lon="9.177770652663332"><ele>23.0</ele><time>2026-04-18T15:05:36Z</time></trkpt><trkpt lat="39.26161103562347" lon="9.177979385398215"><ele>23.0</ele><time>2026-04-18T15:05:37Z</time></trkpt><trkpt lat="39.26155576967333" lon="9.178188675657355"><ele>23.0</ele><time>2026-04-18T15:05:38Z</time></trkpt><trkpt lat="39.26149723866237" lon="9.178398963468908"><ele>22.333333333333336</ele><time>2026-04-18T15:05:39Z</time></trkpt><trkpt lat="39.26143651531878" lon="9.17860872281157"><ele>21.666666666666668</ele><time>2026-04-18T15:05:40Z</time></trkpt><trkpt lat="39.26137266096894" lon="9.178819316955929"><ele>21.0</ele><time>2026-04-18T15:05:41Z</time></trkpt><trkpt lat="39.26131106537487" lon="9.179036767217905"><ele>21.0</ele><time>2026-04-18T15:05:42Z</time></trkpt><trkpt lat="39.261250357149954" lon="9.179249997549112"><ele>21.0</ele><time>2026-04-18T15:05:43Z</time></trkpt><trkpt lat="39.2611913231314" lon="9.179465093748203"><ele>21.0</ele><time>2026-04-18T15:05:44Z</time></trkpt><trkpt lat="39.26113275749293" lon="9.179679911451265"><ele>21.0</ele><time>2026-04-18T15:05:45Z</time></trkpt><trkpt lat="39.26107296354509" lon="9.179895645712547"><ele>21.0</ele><time>2026-04-18T15:05:46Z</time></trkpt><trkpt lat="39.26101105556707" lon="9.180112294999851"><ele>21.0</ele><time>2026-04-18T15:05:47Z</time></trkpt><trkpt lat="39.26094898003968" lon="9.180329299338505"><ele>21.0</ele><time>2026-04-18T15:05:48Z</time></trkpt><trkpt lat="39.26088625650324" lon="9.180545743761254"><ele>21.0</ele><time>2026-04-18T15:05:49Z</time></trkpt><trkpt lat="39.26082279038187" lon="9.180763219123024"><ele>21.0</ele><time>2026-04-18T15:05:50Z</time></trkpt><trkpt lat="39.26075865206295" lon="9.180981160281194"><ele>22.0</ele><time>2026-04-18T15:05:51Z</time></trkpt><trkpt lat="39.260696619794814" lon="9.181198092589733"><ele>23.0</ele><time>2026-04-18T15:05:52Z</time></trkpt><trkpt lat="39.26063648552466" lon="9.181415233442625"><ele>24.0</ele><time>2026-04-18T15:05:53Z</time></trkpt><trkpt lat="39.26057591232405" lon="9.181634195367543"><ele>24.0</ele><time>2026-04-18T15:05:54Z</time></trkpt><trkpt lat="39.26051730742689" lon="9.181852384730592"><ele>24.0</ele><time>2026-04-18T15:05:55Z</time></trkpt><trkpt lat="39.260457543705094" lon="9.182072628215838"><ele>24.0</ele><time>2026-04-18T15:05:56Z</time></trkpt><trkpt lat="39.260394320222446" lon="9.182290068279046"><ele>24.0</ele><time>2026-04-18T15:05:57Z</time></trkpt><trkpt lat="39.26033202372485" lon="9.182506421853171"><ele>24.0</ele><time>2026-04-18T15:05:58Z</time></trkpt><trkpt lat="39.26027036091607" lon="9.182726533336051"><ele>24.0</ele><time>2026-04-18T15:05:59Z</time></trkpt><trkpt lat="39.26021116135736" lon="9.182943440218203"><ele>24.0</ele><time>2026-04-18T15:06:00Z</time></trkpt><trkpt lat="39.260148364953146" lon="9.183166895495116"><ele>24.0</ele><time>2026-04-18T15:06:01Z</time></trkpt><trkpt lat="39.260085020646294" lon="9.183386353091741"><ele>24.0</ele><time>2026-04-18T15:06:02Z</time></trkpt><trkpt lat="39.26002320895182" lon="9.183600016903037"><ele>24.0</ele><time>2026-04-18T15:06:03Z</time></trkpt><trkpt lat="39.259960222891024" lon="9.18381822560858"><ele>24.0</ele><time>2026-04-18T15:06:04Z</time></trkpt><trkpt lat="39.25989865086012" lon="9.184035672853485"><ele>24.0</ele><time>2026-04-18T15:06:05Z</time></trkpt><trkpt lat="39.25983936501123" lon="9.184251712871708"><ele>23.666666666666668</ele><time>2026-04-18T15:06:06Z</time></trkpt><trkpt lat="39.25977792646071" lon="9.18447287975404"><ele>23.333333333333336</ele><time>2026-04-18T15:06:07Z</time></trkpt><trkpt lat="39.25971621265619" lon="9.184688473375072"><ele>23.0</ele><time>2026-04-18T15:06:08Z</time></trkpt><trkpt lat="39.259654530143834" lon="9.184904826659787"><ele>23.0</ele><time>2026-04-18T15:06:09Z</time></trkpt><trkpt lat="39.2595910118786" lon="9.185123057907951"><ele>23.0</ele><time>2026-04-18T15:06:10Z</time></trkpt><trkpt lat="39.25952842574308" lon="9.185339222522808"><ele>23.0</ele><time>2026-04-18T15:06:11Z</time></trkpt><trkpt lat="39.25946733682629" lon="9.185555181524586"><ele>23.333333333333336</ele><time>2026-04-18T15:06:12Z</time></trkpt><trkpt lat="39.259404619165444" lon="9.185769406718276"><ele>23.666666666666668</ele><time>2026-04-18T15:06:13Z</time></trkpt><trkpt lat="39.25934162982375" lon="9.185982297914927"><ele>24.0</ele><time>2026-04-18T15:06:14Z</time></trkpt><trkpt lat="39.25927917310838" lon="9.186190824309051"><ele>24.0</ele><time>2026-04-18T15:06:15Z</time></trkpt><trkpt lat="39.25921472130973" lon="9.186393835657839"><ele>24.0</ele><time>2026-04-18T15:06:16Z</time></trkpt><trkpt lat="39.259147243256876" lon="9.186577397554153"><ele>24.0</ele><time>2026-04-18T15:06:17Z</time></trkpt><trkpt lat="39.259078688895016" lon="9.186737994899316"><ele>24.4</ele><time>2026-04-18T15:06:18Z</time></trkpt><trkpt lat="39.259019601513174" lon="9.186879068003803"><ele>24.799999999999997</ele><time>2026-04-18T15:06:19Z</time></trkpt><trkpt lat="39.258962408629486" lon="9.186994990358805"><ele>25.200000000000003</ele><time>2026-04-18T15:06:20Z</time></trkpt><trkpt lat="39.25891654424033" lon="9.187084360158748"><ele>25.6</ele><time>2026-04-18T15:06:21Z</time></trkpt><trkpt lat="39.25887897105993" lon="9.187155511462418"><ele>26.0</ele><time>2026-04-18T15:06:22Z</time></trkpt><trkpt lat="39.25882762375731" lon="9.187252982078377"><ele>25.200000000000003</ele><time>2026-04-18T15:06:24Z</time></trkpt><trkpt lat="39.25879169954194" lon="9.1873232935091"><ele>24.400000000000002</ele><time>2026-04-18T15:08:12Z</time></trkpt><trkpt lat="39.25872904758003" lon="9.187414453581532"><ele>23.6</ele><time>2026-04-18T15:08:14Z</time></trkpt><trkpt lat="39.258638505563546" lon="9.187547005023669"><ele>22.8</ele><time>2026-04-18T15:08:16Z</time></trkpt><trkpt lat="39.2585839790506" lon="9.187627666245854"><ele>22.0</ele><time>2026-04-18T15:08:17Z</time></trkpt><trkpt lat="39.25852301958948" lon="9.187725138987581"><ele>22.0</ele><time>2026-04-18T15:08:18Z</time></trkpt><trkpt lat="39.25845523542724" lon="9.187822060489516"><ele>22.0</ele><time>2026-04-18T15:08:19Z</time></trkpt><trkpt lat="39.25838232028067" lon="9.18792291578974"><ele>22.0</ele><time>2026-04-18T15:08:20Z</time></trkpt><trkpt lat="39.258297994168586" lon="9.188026228408333"><ele>22.0</ele><time>2026-04-18T15:08:21Z</time></trkpt><trkpt lat="39.25820680568431" lon="9.188128312671095"><ele>22.0</ele><time>2026-04-18T15:08:22Z</time></trkpt><trkpt lat="39.25811169653627" lon="9.188233490323093"><ele>22.0</ele><time>2026-04-18T15:08:23Z</time></trkpt><trkpt lat="39.258016822082524" lon="9.188337692826833"><ele>22.0</ele><time>2026-04-18T15:08:24Z</time></trkpt><trkpt lat="39.25792113710606" lon="9.188451503444231"><ele>22.0</ele><time>2026-04-18T15:08:25Z</time></trkpt><trkpt lat="39.257823714531014" lon="9.188571382619402"><ele>22.0</ele><time>2026-04-18T15:08:26Z</time></trkpt><trkpt lat="39.257726006582416" lon="9.188693354373328"><ele>22.0</ele><time>2026-04-18T15:08:27Z</time></trkpt><trkpt lat="39.2576202348639" lon="9.188821957182757"><ele>22.0</ele><time>2026-04-18T15:08:28Z</time></trkpt><trkpt lat="39.25751166193235" lon="9.188950644322468"><ele>22.0</ele><time>2026-04-18T15:08:29Z</time></trkpt><trkpt lat="39.25740151475302" lon="9.189084451796768"><ele>22.0</ele><time>2026-04-18T15:08:30Z</time></trkpt><trkpt lat="39.257289758994766" lon="9.189217080884589"><ele>21.0</ele><time>2026-04-18T15:08:31Z</time></trkpt><trkpt lat="39.2571771660966" lon="9.18934606169768"><ele>20.0</ele><time>2026-04-18T15:08:32Z</time></trkpt><trkpt lat="39.25705821572513" lon="9.189451821816807"><ele>19.0</ele><time>2026-04-18T15:08:33Z</time></trkpt><trkpt lat="39.25692828125164" lon="9.189526813801736"><ele>18.0</ele><time>2026-04-18T15:08:34Z</time></trkpt><trkpt lat="39.25679000900219" lon="9.18956708171623"><ele>18.0</ele><time>2026-04-18T15:08:35Z</time></trkpt><trkpt lat="39.25664573630225" lon="9.189586013863414"><ele>18.0</ele><time>2026-04-18T15:08:36Z</time></trkpt><trkpt lat="39.25649879946634" lon="9.189591161020578"><ele>18.0</ele><time>2026-04-18T15:08:37Z</time></trkpt><trkpt lat="39.25634673891424" lon="9.189580419376288"><ele>18.0</ele><time>2026-04-18T15:08:38Z</time></trkpt><trkpt lat="39.256196807114044" lon="9.189560669637526"><ele>17.666666666666668</ele><time>2026-04-18T15:08:39Z</time></trkpt><trkpt lat="39.25604394731174" lon="9.189539961575674"><ele>17.333333333333336</ele><time>2026-04-18T15:08:40Z</time></trkpt><trkpt lat="39.25589306676522" lon="9.189531073797106"><ele>17.0</ele><time>2026-04-18T15:08:41Z</time></trkpt><trkpt lat="39.255740484794906" lon="9.189541771411594"><ele>16.333333333333336</ele><time>2026-04-18T15:08:42Z</time></trkpt><trkpt lat="39.25558905419093" lon="9.1895816510869"><ele>15.666666666666668</ele><time>2026-04-18T15:08:43Z</time></trkpt><trkpt lat="39.255444216169685" lon="9.189655210160216"><ele>15.0</ele><time>2026-04-18T15:08:44Z</time></trkpt><trkpt lat="39.255305348918206" lon="9.189749206837954"><ele>15.5</ele><time>2026-04-18T15:08:45Z</time></trkpt><trkpt lat="39.25517637645237" lon="9.189861372289911"><ele>16.0</ele><time>2026-04-18T15:08:46Z</time></trkpt><trkpt lat="39.255075322798696" lon="9.189991887679202"><ele>16.5</ele><time>2026-04-18T15:08:47Z</time></trkpt><trkpt lat="39.25500728885254" lon="9.190145362801383"><ele>17.0</ele><time>2026-04-18T15:08:48Z</time></trkpt><trkpt lat="39.254970894323584" lon="9.19032224920265"><ele>17.0</ele><time>2026-04-18T15:08:49Z</time></trkpt><trkpt lat="39.25496529170711" lon="9.19050611979797"><ele>17.0</ele><time>2026-04-18T15:08:50Z</time></trkpt><trkpt lat="39.254998670925694" lon="9.190691845095069"><ele>17.0</ele><time>2026-04-18T15:08:51Z</time></trkpt><trkpt lat="39.25506723819619" lon="9.190864646334374"><ele>17.0</ele><time>2026-04-18T15:08:52Z</time></trkpt><trkpt lat="39.255146967929896" lon="9.191015916608094"><ele>17.0</ele><time>2026-04-18T15:08:53Z</time></trkpt><trkpt lat="39.255245399534545" lon="9.191173742316797"><ele>17.0</ele><time>2026-04-18T15:08:54Z</time></trkpt><trkpt lat="39.25535233475275" lon="9.191328345580365"><ele>17.0</ele><time>2026-04-18T15:08:55Z</time></trkpt><trkpt lat="39.255464288830225" lon="9.19148059881859"><ele>18.0</ele><time>2026-04-18T15:08:56Z</time></trkpt><trkpt lat="39.25557609626756" lon="9.191630839813714"><ele>19.0</ele><time>2026-04-18T15:08:57Z</time></trkpt><trkpt lat="39.25568814839709" lon="9.19178089990362"><ele>20.0</ele><time>2026-04-18T15:08:58Z</time></trkpt><trkpt lat="39.25579876887384" lon="9.19193314390824"><ele>20.333333333333336</ele><time>2026-04-18T15:08:59Z</time></trkpt><trkpt lat="39.255911563836996" lon="9.192089073319666"><ele>20.666666666666668</ele><time>2026-04-18T15:09:00Z</time></trkpt><trkpt lat="39.256024958489235" lon="9.192252339980255"><ele>21.0</ele><time>2026-04-18T15:09:01Z</time></trkpt><trkpt lat="39.25614055987848" lon="9.192421044028704"><ele>21.666666666666668</ele><time>2026-04-18T15:09:02Z</time></trkpt><trkpt lat="39.25626267398712" lon="9.192584559478814"><ele>22.333333333333336</ele><time>2026-04-18T15:09:03Z</time></trkpt><trkpt lat="39.25639233065871" lon="9.192743513559595"><ele>23.0</ele><time>2026-04-18T15:09:04Z</time></trkpt><trkpt lat="39.25652381299105" lon="9.192900870218068"><ele>23.0</ele><time>2026-04-18T15:09:05Z</time></trkpt><trkpt lat="39.256658437195966" lon="9.193057863050068"><ele>23.0</ele><time>2026-04-18T15:09:06Z</time></trkpt><trkpt lat="39.25680090536187" lon="9.193210289912038"><ele>23.0</ele><time>2026-04-18T15:09:07Z</time></trkpt><trkpt lat="39.25694760700649" lon="9.193353247060001"><ele>23.333333333333336</ele><time>2026-04-18T15:09:08Z</time></trkpt><trkpt lat="39.257100971285624" lon="9.193493478127426"><ele>23.666666666666668</ele><time>2026-04-18T15:09:09Z</time></trkpt><trkpt lat="39.257257457699026" lon="9.19362595056628"><ele>24.0</ele><time>2026-04-18T15:09:10Z</time></trkpt><trkpt lat="39.25741799594702" lon="9.193749516613593"><ele>24.0</ele><time>2026-04-18T15:09:11Z</time></trkpt><trkpt lat="39.25758491853308" lon="9.193866566689982"><ele>24.0</ele><time>2026-04-18T15:09:12Z</time></trkpt><trkpt lat="39.257755204288244" lon="9.1939733472125"><ele>24.0</ele><time>2026-04-18T15:09:13Z</time></trkpt><trkpt lat="39.25792837185128" lon="9.194070405311175"><ele>25.333333333333336</ele><time>2026-04-18T15:09:14Z</time></trkpt><trkpt lat="39.25810454471547" lon="9.194159028432523"><ele>26.666666666666668</ele><time>2026-04-18T15:09:15Z</time></trkpt><trkpt lat="39.2582831252523" lon="9.194244740397622"><ele>28.0</ele><time>2026-04-18T15:09:16Z</time></trkpt><trkpt lat="39.25846221290603" lon="9.194330920478215"><ele>28.0</ele><time>2026-04-18T15:09:17Z</time></trkpt><trkpt lat="39.25864283211241" lon="9.194413681815226"><ele>28.0</ele><time>2026-04-18T15:09:18Z</time></trkpt><trkpt lat="39.25882631731778" lon="9.194494987085394"><ele>28.0</ele><time>2026-04-18T15:09:19Z</time></trkpt><trkpt lat="39.25901210160371" lon="9.194573873543815"><ele>29.0</ele><time>2026-04-18T15:09:20Z</time></trkpt><trkpt lat="39.2592007275606" lon="9.194651557275613"><ele>30.0</ele><time>2026-04-18T15:09:21Z</time></trkpt><trkpt lat="39.259390992756565" lon="9.194731383656299"><ele>31.0</ele><time>2026-04-18T15:09:22Z</time></trkpt><trkpt lat="39.259581330495706" lon="9.194810421369127"><ele>31.0</ele><time>2026-04-18T15:09:23Z</time></trkpt><trkpt lat="39.25977362894456" lon="9.194885649325458"><ele>31.0</ele><time>2026-04-18T15:09:24Z</time></trkpt><trkpt lat="39.2599671838828" lon="9.194961882183861"><ele>31.0</ele><time>2026-04-18T15:09:25Z</time></trkpt><trkpt lat="39.26016325149275" lon="9.195042738170393"><ele>31.0</ele><time>2026-04-18T15:09:26Z</time></trkpt><trkpt lat="39.26035761530141" lon="9.195127359621356"><ele>31.0</ele><time>2026-04-18T15:09:27Z</time></trkpt><trkpt lat="39.26055647712718" lon="9.195206805286643"><ele>31.0</ele><time>2026-04-18T15:09:28Z</time></trkpt><trkpt lat="39.260758302036876" lon="9.1952925884495"><ele>31.333333333333336</ele><time>2026-04-18T15:09:29Z</time></trkpt><trkpt lat="39.26096688198025" lon="9.195380552359858"><ele>31.666666666666664</ele><time>2026-04-18T15:09:30Z</time></trkpt><trkpt lat="39.261177152466246" lon="9.195474429714505"><ele>32.0</ele><time>2026-04-18T15:09:31Z</time></trkpt><trkpt lat="39.26139528407533" lon="9.195567899162102"><ele>32.5</ele><time>2026-04-18T15:09:32Z</time></trkpt><trkpt lat="39.26162078420259" lon="9.195665568145365"><ele>33.0</ele><time>2026-04-18T15:09:33Z</time></trkpt><trkpt lat="39.261855012549546" lon="9.195766310378524"><ele>34.5</ele><time>2026-04-18T15:09:34Z</time></trkpt><trkpt lat="39.26209608363692" lon="9.195870258682202"><ele>36.0</ele><time>2026-04-18T15:09:35Z</time></trkpt><trkpt lat="39.26233944609531" lon="9.19597366140664"><ele>36.5</ele><time>2026-04-18T15:09:36Z</time></trkpt><trkpt lat="39.26258232075294" lon="9.196076222998789"><ele>37.0</ele><time>2026-04-18T15:09:37Z</time></trkpt><trkpt lat="39.26282392368837" lon="9.19618002566602"><ele>37.0</ele><time>2026-04-18T15:09:38Z</time></trkpt><trkpt lat="39.26306650745144" lon="9.19628483849134"><ele>37.0</ele><time>2026-04-18T15:09:39Z</time></trkpt><trkpt lat="39.263304053021855" lon="9.196385824061746"><ele>37.5</ele><time>2026-04-18T15:09:40Z</time></trkpt><trkpt lat="39.263536820730884" lon="9.196484982301241"><ele>38.0</ele><time>2026-04-18T15:09:41Z</time></trkpt><trkpt lat="39.26376448423663" lon="9.196577168230352"><ele>41.0</ele><time>2026-04-18T15:09:42Z</time></trkpt><trkpt lat="39.263986934767395" lon="9.19666691228571"><ele>44.0</ele><time>2026-04-18T15:09:43Z</time></trkpt><trkpt lat="39.26420255747153" lon="9.196754924603992"><ele>44.0</ele><time>2026-04-18T15:09:44Z</time></trkpt><trkpt lat="39.26441120455984" lon="9.19684257837389"><ele>44.0</ele><time>2026-04-18T15:09:45Z</time></trkpt><trkpt lat="39.26461883215327" lon="9.196926975515286"><ele>44.0</ele><time>2026-04-18T15:09:46Z</time></trkpt><trkpt lat="39.26482431832219" lon="9.197009177826457"><ele>43.666666666666664</ele><time>2026-04-18T15:09:47Z</time></trkpt><trkpt lat="39.26502567382316" lon="9.197093536478436"><ele>43.333333333333336</ele><time>2026-04-18T15:09:48Z</time></trkpt><trkpt lat="39.26522291586093" lon="9.197178357674778"><ele>43.0</ele><time>2026-04-18T15:09:49Z</time></trkpt><trkpt lat="39.26541172744783" lon="9.197266878981042"><ele>44.66666666666667</ele><time>2026-04-18T15:09:50Z</time></trkpt><trkpt lat="39.265594706868505" lon="9.197357125459645"><ele>46.333333333333336</ele><time>2026-04-18T15:09:51Z</time></trkpt><trkpt lat="39.2657942521172" lon="9.197462098501182"><ele>48.0</ele><time>2026-04-18T15:09:52Z</time></trkpt><trkpt lat="39.26597610631957" lon="9.197570726087912"><ele>48.0</ele><time>2026-04-18T15:09:53Z</time></trkpt><trkpt lat="39.26615954252957" lon="9.197688220906546"><ele>48.0</ele><time>2026-04-18T15:09:54Z</time></trkpt><trkpt lat="39.266334415866226" lon="9.197825112781103"><ele>48.0</ele><time>2026-04-18T15:09:55Z</time></trkpt><trkpt lat="39.26650391866931" lon="9.197972841531213"><ele>49.0</ele><time>2026-04-18T15:09:56Z</time></trkpt><trkpt lat="39.266674737642674" lon="9.19812215549165"><ele>50.0</ele><time>2026-04-18T15:09:57Z</time></trkpt><trkpt lat="39.266844741660336" lon="9.198278693919312"><ele>51.0</ele><time>2026-04-18T15:09:58Z</time></trkpt><trkpt lat="39.2670115007498" lon="9.19844470310972"><ele>51.0</ele><time>2026-04-18T15:09:59Z</time></trkpt><trkpt lat="39.267171627138595" lon="9.198616462211001"><ele>51.0</ele><time>2026-04-18T15:10:00Z</time></trkpt><trkpt lat="39.26731959843876" lon="9.198789382836452"><ele>51.0</ele><time>2026-04-18T15:10:01Z</time></trkpt><trkpt lat="39.267458328853046" lon="9.198963293786793"><ele>49.333333333333336</ele><time>2026-04-18T15:10:02Z</time></trkpt><trkpt lat="39.26759079115739" lon="9.199137790411461"><ele>47.66666666666667</ele><time>2026-04-18T15:10:03Z</time></trkpt><trkpt lat="39.267719613669925" lon="9.199316210276027"><ele>46.0</ele><time>2026-04-18T15:10:04Z</time></trkpt><trkpt lat="39.26784525043679" lon="9.199496362135157"><ele>46.0</ele><time>2026-04-18T15:10:05Z</time></trkpt><trkpt lat="39.267964417395" lon="9.19968471318873"><ele>46.0</ele><time>2026-04-18T15:10:06Z</time></trkpt><trkpt lat="39.26807769646008" lon="9.199879965542308"><ele>46.0</ele><time>2026-04-18T15:10:07Z</time></trkpt><trkpt lat="39.268189104535494" lon="9.200074342855503"><ele>44.66666666666667</ele><time>2026-04-18T15:10:08Z</time></trkpt><trkpt lat="39.268295089850334" lon="9.20027930692437"><ele>43.333333333333336</ele><time>2026-04-18T15:10:09Z</time></trkpt><trkpt lat="39.26839948632533" lon="9.200489232198935"><ele>42.0</ele><time>2026-04-18T15:10:10Z</time></trkpt><trkpt lat="39.26850165979465" lon="9.200699856739446"><ele>42.0</ele><time>2026-04-18T15:10:11Z</time></trkpt><trkpt lat="39.26859907724188" lon="9.200916610921295"><ele>42.0</ele><time>2026-04-18T15:10:12Z</time></trkpt><trkpt lat="39.268692567735606" lon="9.20113567637567"><ele>42.0</ele><time>2026-04-18T15:10:13Z</time></trkpt><trkpt lat="39.26877651818595" lon="9.201361772625333"><ele>42.0</ele><time>2026-04-18T15:10:14Z</time></trkpt><trkpt lat="39.268853587649986" lon="9.201593538525183"><ele>42.0</ele><time>2026-04-18T15:10:15Z</time></trkpt><trkpt lat="39.268921182498836" lon="9.20182878434135"><ele>42.0</ele><time>2026-04-18T15:10:16Z</time></trkpt><trkpt lat="39.26898567221273" lon="9.202068929948178"><ele>43.0</ele><time>2026-04-18T15:10:17Z</time></trkpt><trkpt lat="39.2690485883956" lon="9.20230908155026"><ele>44.0</ele><time>2026-04-18T15:10:18Z</time></trkpt><trkpt lat="39.26910536732246" lon="9.202552080442329"><ele>45.0</ele><time>2026-04-18T15:10:19Z</time></trkpt><trkpt lat="39.26915209743195" lon="9.202798800361347"><ele>45.0</ele><time>2026-04-18T15:10:20Z</time></trkpt><trkpt lat="39.26919478032053" lon="9.203049254573596"><ele>45.0</ele><time>2026-04-18T15:10:21Z</time></trkpt><trkpt lat="39.2692314094103" lon="9.203303049377535"><ele>45.0</ele><time>2026-04-18T15:10:22Z</time></trkpt><trkpt lat="39.26926224220091" lon="9.203557410002809"><ele>45.0</ele><time>2026-04-18T15:10:23Z</time></trkpt><trkpt lat="39.26928711535591" lon="9.203812311958822"><ele>45.0</ele><time>2026-04-18T15:10:24Z</time></trkpt><trkpt lat="39.26930639972207" lon="9.204070929836686"><ele>45.0</ele><time>2026-04-18T15:10:25Z</time></trkpt><trkpt lat="39.26932120939522" lon="9.204328273682064"><ele>45.0</ele><time>2026-04-18T15:10:26Z</time></trkpt><trkpt lat="39.269331508775124" lon="9.204587062696373"><ele>45.0</ele><time>2026-04-18T15:10:27Z</time></trkpt><trkpt lat="39.26933800662197" lon="9.204843553938154"><ele>45.0</ele><time>2026-04-18T15:10:28Z</time></trkpt><trkpt lat="39.269335144028034" lon="9.205102727793168"><ele>46.33333333333333</ele><time>2026-04-18T15:10:29Z</time></trkpt><trkpt lat="39.26931554314464" lon="9.205358535781174"><ele>47.666666666666664</ele><time>2026-04-18T15:10:30Z</time></trkpt><trkpt lat="39.269288334557714" lon="9.205612143417397"><ele>49.0</ele><time>2026-04-18T15:10:31Z</time></trkpt><trkpt lat="39.26925872821285" lon="9.205866419795157"><ele>49.666666666666664</ele><time>2026-04-18T15:10:32Z</time></trkpt><trkpt lat="39.269246077798556" lon="9.206116864729603"><ele>50.33333333333333</ele><time>2026-04-18T15:10:33Z</time></trkpt><trkpt lat="39.26921969270685" lon="9.206368151565254"><ele>51.0</ele><time>2026-04-18T15:10:34Z</time></trkpt><trkpt lat="39.26920277251186" lon="9.206618343644452"><ele>52.0</ele><time>2026-04-18T15:10:35Z</time></trkpt><trkpt lat="39.26918400115405" lon="9.206871625980309"><ele>53.0</ele><time>2026-04-18T15:10:36Z</time></trkpt><trkpt lat="39.269161052956036" lon="9.207122504126694"><ele>54.0</ele><time>2026-04-18T15:10:37Z</time></trkpt><trkpt lat="39.269139943635935" lon="9.207374562743654"><ele>54.33333333333333</ele><time>2026-04-18T15:10:38Z</time></trkpt><trkpt lat="39.269117500296794" lon="9.207624354980405"><ele>54.666666666666664</ele><time>2026-04-18T15:10:39Z</time></trkpt><trkpt lat="39.26909508146476" lon="9.207876152709046"><ele>55.0</ele><time>2026-04-18T15:10:40Z</time></trkpt><trkpt lat="39.26907346364599" lon="9.208130772862877"><ele>54.666666666666664</ele><time>2026-04-18T15:10:41Z</time></trkpt><trkpt lat="39.2690537900768" lon="9.208388310649884"><ele>54.33333333333333</ele><time>2026-04-18T15:10:42Z</time></trkpt><trkpt lat="39.269029464045005" lon="9.208645541092059"><ele>54.0</ele><time>2026-04-18T15:10:43Z</time></trkpt><trkpt lat="39.26900659258602" lon="9.208908735625075"><ele>54.0</ele><time>2026-04-18T15:10:44Z</time></trkpt><trkpt lat="39.26898284457804" lon="9.209174727356723"><ele>54.0</ele><time>2026-04-18T15:10:45Z</time></trkpt><trkpt lat="39.26896025687185" lon="9.209443981922645"><ele>54.0</ele><time>2026-04-18T15:10:46Z</time></trkpt><trkpt lat="39.26893680918212" lon="9.209718176925458"><ele>52.33333333333333</ele><time>2026-04-18T15:10:47Z</time></trkpt><trkpt lat="39.26891288278956" lon="9.209996122608542"><ele>50.666666666666664</ele><time>2026-04-18T15:10:48Z</time></trkpt><trkpt lat="39.26888966422744" lon="9.210282108253592"><ele>49.0</ele><time>2026-04-18T15:10:49Z</time></trkpt><trkpt lat="39.26886409202496" lon="9.210573211488079"><ele>48.5</ele><time>2026-04-18T15:10:50Z</time></trkpt><trkpt lat="39.26883621809788" lon="9.210870968216978"><ele>48.0</ele><time>2026-04-18T15:10:51Z</time></trkpt><trkpt lat="39.268809875142054" lon="9.211174464870417"><ele>48.0</ele><time>2026-04-18T15:10:52Z</time></trkpt><trkpt lat="39.268781733740184" lon="9.21148044686663"><ele>48.0</ele><time>2026-04-18T15:10:53Z</time></trkpt><trkpt lat="39.26877480899379" lon="9.211699270829639"><ele>48.0</ele><time>2026-04-18T15:10:54Z</time></trkpt><trkpt lat="39.268749610016336" lon="9.211988139844044"><ele>48.0</ele><time>2026-04-18T15:10:55Z</time></trkpt><trkpt lat="39.26871876922895" lon="9.212273337775244"><ele>48.0</ele><time>2026-04-18T15:10:56Z</time></trkpt><trkpt lat="39.268682888072796" lon="9.212556416739993"><ele>48.0</ele><time>2026-04-18T15:10:57Z</time></trkpt><trkpt lat="39.26863389380688" lon="9.21283750735507"><ele>48.33333333333333</ele><time>2026-04-18T15:10:58Z</time></trkpt><trkpt lat="39.268577582808454" lon="9.21311611526182"><ele>48.666666666666664</ele><time>2026-04-18T15:10:59Z</time></trkpt><trkpt lat="39.268483026718634" lon="9.213370756955698"><ele>49.0</ele><time>2026-04-18T15:11:00Z</time></trkpt><trkpt lat="39.26842593890023" lon="9.21365002417849"><ele>49.666666666666664</ele><time>2026-04-18T15:11:01Z</time></trkpt><trkpt lat="39.26834859423337" lon="9.213921611174907"><ele>50.33333333333333</ele><time>2026-04-18T15:11:02Z</time></trkpt><trkpt lat="39.26826060007139" lon="9.214186152033603"><ele>51.0</ele><time>2026-04-18T15:11:03Z</time></trkpt><trkpt lat="39.26816513514696" lon="9.214451392106893"><ele>48.5</ele><time>2026-04-18T15:11:04Z</time></trkpt><trkpt lat="39.26806344425004" lon="9.214713471862423"><ele>46.0</ele><time>2026-04-18T15:11:05Z</time></trkpt><trkpt lat="39.267951738860944" lon="9.214975043865968"><ele>46.0</ele><time>2026-04-18T15:11:06Z</time></trkpt><trkpt lat="39.26783855180042" lon="9.215230078633507"><ele>46.0</ele><time>2026-04-18T15:11:07Z</time></trkpt><trkpt lat="39.26772426259366" lon="9.215473498744435"><ele>46.0</ele><time>2026-04-18T15:11:08Z</time></trkpt><trkpt lat="39.26760074230406" lon="9.215704754634721"><ele>46.0</ele><time>2026-04-18T15:11:09Z</time></trkpt><trkpt lat="39.26746644773735" lon="9.215929870904075"><ele>46.0</ele><time>2026-04-18T15:11:10Z</time></trkpt><trkpt lat="39.267319631217156" lon="9.216151314152564"><ele>46.0</ele><time>2026-04-18T15:11:11Z</time></trkpt><trkpt lat="39.267166646416506" lon="9.216366231750674"><ele>45.66666666666667</ele><time>2026-04-18T15:11:12Z</time></trkpt><trkpt lat="39.26701339757427" lon="9.21657452997562"><ele>45.333333333333336</ele><time>2026-04-18T15:11:13Z</time></trkpt><trkpt lat="39.266855190533896" lon="9.21677267963772"><ele>45.0</ele><time>2026-04-18T15:11:14Z</time></trkpt><trkpt lat="39.26669247800913" lon="9.21696396223225"><ele>45.0</ele><time>2026-04-18T15:11:15Z</time></trkpt><trkpt lat="39.26650734133732" lon="9.217128344946723"><ele>45.0</ele><time>2026-04-18T15:11:16Z</time></trkpt><trkpt lat="39.266336967799695" lon="9.217303814708163"><ele>45.0</ele><time>2026-04-18T15:11:17Z</time></trkpt><trkpt lat="39.26616439224216" lon="9.217476160266482"><ele>44.333333333333336</ele><time>2026-04-18T15:11:18Z</time></trkpt><trkpt lat="39.26599207846215" lon="9.217646729372984"><ele>43.66666666666667</ele><time>2026-04-18T15:11:19Z</time></trkpt><trkpt lat="39.26582185458514" lon="9.217820259754989"><ele>43.0</ele><time>2026-04-18T15:11:20Z</time></trkpt><trkpt lat="39.265649113337716" lon="9.217993953660415"><ele>43.333333333333336</ele><time>2026-04-18T15:11:21Z</time></trkpt><trkpt lat="39.26547223440051" lon="9.218169324786576"><ele>43.666666666666664</ele><time>2026-04-18T15:11:22Z</time></trkpt><trkpt lat="39.26530023881959" lon="9.218345765060485"><ele>44.0</ele><time>2026-04-18T15:11:23Z</time></trkpt><trkpt lat="39.26512578851827" lon="9.218521557559459"><ele>44.0</ele><time>2026-04-18T15:11:24Z</time></trkpt><trkpt lat="39.26494706811309" lon="9.218696439803658"><ele>44.0</ele><time>2026-04-18T15:11:25Z</time></trkpt><trkpt lat="39.26477036378139" lon="9.21886166347007"><ele>44.0</ele><time>2026-04-18T15:11:26Z</time></trkpt><trkpt lat="39.2645967515285" lon="9.219035072628012"><ele>45.666666666666664</ele><time>2026-04-18T15:11:27Z</time></trkpt><trkpt lat="39.26442590098518" lon="9.219209899311332"><ele>47.33333333333333</ele><time>2026-04-18T15:11:28Z</time></trkpt><trkpt lat="39.264259598887584" lon="9.219385156314313"><ele>49.0</ele><time>2026-04-18T15:11:29Z</time></trkpt><trkpt lat="39.264086558751295" lon="9.219559436117688"><ele>49.666666666666664</ele><time>2026-04-18T15:11:30Z</time></trkpt><trkpt lat="39.263915134523494" lon="9.219731006247128"><ele>50.33333333333333</ele><time>2026-04-18T15:11:31Z</time></trkpt><trkpt lat="39.2637433379322" lon="9.21990486287468"><ele>51.0</ele><time>2026-04-18T15:11:32Z</time></trkpt><trkpt lat="39.26357078835488" lon="9.220080239388565"><ele>51.0</ele><time>2026-04-18T15:11:33Z</time></trkpt><trkpt lat="39.263393474766346" lon="9.220255774608978"><ele>51.0</ele><time>2026-04-18T15:11:34Z</time></trkpt><trkpt lat="39.26321446039654" lon="9.22043167493712"><ele>51.0</ele><time>2026-04-18T15:11:35Z</time></trkpt><trkpt lat="39.26303218068672" lon="9.220610988236672"><ele>50.5</ele><time>2026-04-18T15:11:36Z</time></trkpt><trkpt lat="39.26284568237324" lon="9.220796276085258"><ele>50.0</ele><time>2026-04-18T15:11:37Z</time></trkpt><trkpt lat="39.26267853275865" lon="9.220991082711956"><ele>50.0</ele><time>2026-04-18T15:11:38Z</time></trkpt><trkpt lat="39.262517952340964" lon="9.22120684678188"><ele>50.0</ele><time>2026-04-18T15:11:39Z</time></trkpt><trkpt lat="39.26236166935056" lon="9.221433742550609"><ele>47.0</ele><time>2026-04-18T15:11:40Z</time></trkpt><trkpt lat="39.26220873282243" lon="9.221664890423533"><ele>44.0</ele><time>2026-04-18T15:11:41Z</time></trkpt><trkpt lat="39.26206387248852" lon="9.221904597026992"><ele>44.0</ele><time>2026-04-18T15:11:42Z</time></trkpt><trkpt lat="39.26192910798878" lon="9.222150916216263"><ele>44.0</ele><time>2026-04-18T15:11:43Z</time></trkpt><trkpt lat="39.26180060457341" lon="9.222405650025753"><ele>45.5</ele><time>2026-04-18T15:11:44Z</time></trkpt><trkpt lat="39.261675627414306" lon="9.222660761954506"><ele>47.0</ele><time>2026-04-18T15:11:45Z</time></trkpt><trkpt lat="39.26155605911924" lon="9.22292185486982"><ele>44.5</ele><time>2026-04-18T15:11:46Z</time></trkpt><trkpt lat="39.261448607047996" lon="9.223193003744498"><ele>42.0</ele><time>2026-04-18T15:11:47Z</time></trkpt><trkpt lat="39.26135112250532" lon="9.223468652729743"><ele>42.0</ele><time>2026-04-18T15:11:48Z</time></trkpt><trkpt lat="39.2612615428186" lon="9.223750480164016"><ele>42.0</ele><time>2026-04-18T15:11:49Z</time></trkpt><trkpt lat="39.26118235572887" lon="9.224039146848485"><ele>44.0</ele><time>2026-04-18T15:11:50Z</time></trkpt><trkpt lat="39.26110735517247" lon="9.224335048124443"><ele>46.0</ele><time>2026-04-18T15:11:51Z</time></trkpt><trkpt lat="39.26103462533235" lon="9.224632008970657"><ele>46.0</ele><time>2026-04-18T15:11:52Z</time></trkpt><trkpt lat="39.260967352154815" lon="9.224935329704678"><ele>46.0</ele><time>2026-04-18T15:11:53Z</time></trkpt><trkpt lat="39.260911758166905" lon="9.225244018805311"><ele>46.0</ele><time>2026-04-18T15:11:54Z</time></trkpt><trkpt lat="39.260870593324164" lon="9.225557199701345"><ele>46.0</ele><time>2026-04-18T15:11:55Z</time></trkpt><trkpt lat="39.26084204900224" lon="9.225875360131775"><ele>46.0</ele><time>2026-04-18T15:11:56Z</time></trkpt><trkpt lat="39.2608243731057" lon="9.226199467767108"><ele>46.0</ele><time>2026-04-18T15:11:57Z</time></trkpt><trkpt lat="39.26081509682996" lon="9.226524675146486"><ele>46.5</ele><time>2026-04-18T15:11:58Z</time></trkpt><trkpt lat="39.26081359221465" lon="9.226846006228795"><ele>47.0</ele><time>2026-04-18T15:11:59Z</time></trkpt><trkpt lat="39.26082255029424" lon="9.227164872411178"><ele>47.5</ele><time>2026-04-18T15:12:00Z</time></trkpt><trkpt lat="39.26084047623672" lon="9.22748467284666"><ele>48.0</ele><time>2026-04-18T15:12:01Z</time></trkpt><trkpt lat="39.260865027172926" lon="9.227800920763485"><ele>48.0</ele><time>2026-04-18T15:12:02Z</time></trkpt><trkpt lat="39.260876714352136" lon="9.228119825250594"><ele>48.0</ele><time>2026-04-18T15:12:03Z</time></trkpt><trkpt lat="39.26090004415828" lon="9.228431226705622"><ele>50.5</ele><time>2026-04-18T15:12:04Z</time></trkpt><trkpt lat="39.260939053880264" lon="9.228739194709005"><ele>53.0</ele><time>2026-04-18T15:12:05Z</time></trkpt><trkpt lat="39.260957859979904" lon="9.229045240114965"><ele>53.5</ele><time>2026-04-18T15:12:06Z</time></trkpt><trkpt lat="39.26097813218777" lon="9.229352624769993"><ele>54.0</ele><time>2026-04-18T15:12:07Z</time></trkpt><trkpt lat="39.26099900365016" lon="9.229658503398628"><ele>52.0</ele><time>2026-04-18T15:12:08Z</time></trkpt><trkpt lat="39.26102159182773" lon="9.229965328284047"><ele>50.0</ele><time>2026-04-18T15:12:09Z</time></trkpt><trkpt lat="39.26104774758416" lon="9.2302668896081"><ele>50.0</ele><time>2026-04-18T15:12:10Z</time></trkpt><trkpt lat="39.2610774769406" lon="9.230562933041004"><ele>50.0</ele><time>2026-04-18T15:12:11Z</time></trkpt><trkpt lat="39.26110965501553" lon="9.230860548040583"><ele>49.0</ele><time>2026-04-18T15:12:12Z</time></trkpt><trkpt lat="39.26114550055179" lon="9.23115532521021"><ele>48.0</ele><time>2026-04-18T15:12:13Z</time></trkpt><trkpt lat="39.26118282615775" lon="9.231447209137409"><ele>47.0</ele><time>2026-04-18T15:12:14Z</time></trkpt><trkpt lat="39.26122102450417" lon="9.231739393925169"><ele>46.0</ele><time>2026-04-18T15:12:15Z</time></trkpt><trkpt lat="39.26125588975016" lon="9.232032585288062"><ele>45.66666666666667</ele><time>2026-04-18T15:12:16Z</time></trkpt><trkpt lat="39.26129034396587" lon="9.232316971520389"><ele>45.333333333333336</ele><time>2026-04-18T15:12:17Z</time></trkpt><trkpt lat="39.261321677123604" lon="9.232602634188117"><ele>45.0</ele><time>2026-04-18T15:12:18Z</time></trkpt><trkpt lat="39.26135882627265" lon="9.23288578290447"><ele>44.666666666666664</ele><time>2026-04-18T15:12:19Z</time></trkpt><trkpt lat="39.26139581771754" lon="9.233164586951512"><ele>44.33333333333333</ele><time>2026-04-18T15:12:20Z</time></trkpt><trkpt lat="39.26143715533315" lon="9.233441048125396"><ele>44.0</ele><time>2026-04-18T15:12:21Z</time></trkpt><trkpt lat="39.26147632981135" lon="9.233711685335422"><ele>44.0</ele><time>2026-04-18T15:12:22Z</time></trkpt><trkpt lat="39.26150708573223" lon="9.233965366856262"><ele>44.0</ele><time>2026-04-18T15:12:23Z</time></trkpt><trkpt lat="39.261536533454176" lon="9.234201786205263"><ele>44.0</ele><time>2026-04-18T15:12:24Z</time></trkpt><trkpt lat="39.26156459795542" lon="9.234428222837371"><ele>44.0</ele><time>2026-04-18T15:12:25Z</time></trkpt><trkpt lat="39.26159197772581" lon="9.234638400742027"><ele>44.0</ele><time>2026-04-18T15:12:26Z</time></trkpt><trkpt lat="39.261617767911716" lon="9.234846837001022"><ele>44.0</ele><time>2026-04-18T15:12:27Z</time></trkpt><trkpt lat="39.26164324075949" lon="9.235050801236655"><ele>44.0</ele><time>2026-04-18T15:12:28Z</time></trkpt><trkpt lat="39.26166956495449" lon="9.235253812849317"><ele>44.0</ele><time>2026-04-18T15:12:29Z</time></trkpt><trkpt lat="39.261693254711616" lon="9.235432542234829"><ele>44.0</ele><time>2026-04-18T15:12:30Z</time></trkpt><trkpt lat="39.26171468051867" lon="9.235602121718998"><ele>44.0</ele><time>2026-04-18T15:12:31Z</time></trkpt><trkpt lat="39.26173657261146" lon="9.235768848747355"><ele>44.0</ele><time>2026-04-18T15:12:32Z</time></trkpt><trkpt lat="39.26175887486323" lon="9.235936844941904"><ele>44.0</ele><time>2026-04-18T15:12:33Z</time></trkpt><trkpt lat="39.26178043488098" lon="9.23611206366174"><ele>44.0</ele><time>2026-04-18T15:12:34Z</time></trkpt><trkpt lat="39.261804890056354" lon="9.236292720047524"><ele>44.0</ele><time>2026-04-18T15:12:35Z</time></trkpt><trkpt lat="39.26183516491096" lon="9.236478173182409"><ele>44.0</ele><time>2026-04-18T15:12:36Z</time></trkpt><trkpt lat="39.26185967427466" lon="9.236668445566202"><ele>44.0</ele><time>2026-04-18T15:12:37Z</time></trkpt><trkpt lat="39.261878725925214" lon="9.236863809956125"><ele>44.0</ele><time>2026-04-18T15:12:38Z</time></trkpt><trkpt lat="39.26190377401613" lon="9.237062155816483"><ele>44.0</ele><time>2026-04-18T15:12:39Z</time></trkpt><trkpt lat="39.26193200058724" lon="9.237262974876971"><ele>44.0</ele><time>2026-04-18T15:12:40Z</time></trkpt><trkpt lat="39.2619557767665" lon="9.237457218936704"><ele>44.0</ele><time>2026-04-18T15:12:41Z</time></trkpt><trkpt lat="39.26197937601257" lon="9.237640564715914"><ele>44.0</ele><time>2026-04-18T15:12:42Z</time></trkpt><trkpt lat="39.26200156151408" lon="9.237814441382673"><ele>44.0</ele><time>2026-04-18T15:12:43Z</time></trkpt><trkpt lat="39.262021087704476" lon="9.237984360320379"><ele>44.0</ele><time>2026-04-18T15:12:44Z</time></trkpt><trkpt lat="39.262038610015466" lon="9.23814422833462"><ele>44.0</ele><time>2026-04-18T15:12:45Z</time></trkpt><trkpt lat="39.262043967448506" lon="9.238295241394361"><ele>43.6</ele><time>2026-04-18T15:12:46Z</time></trkpt><trkpt lat="39.26203209460542" lon="9.238434566600185"><ele>43.2</ele><time>2026-04-18T15:12:47Z</time></trkpt><trkpt lat="39.26200825438469" lon="9.238562379628654"><ele>42.800000000000004</ele><time>2026-04-18T15:12:48Z</time></trkpt><trkpt lat="39.26198615961285" lon="9.238685449025791"><ele>42.400000000000006</ele><time>2026-04-18T15:12:49Z</time></trkpt><trkpt lat="39.261987433240215" lon="9.238799344129628"><ele>42.0</ele><time>2026-04-18T15:12:50Z</time></trkpt><trkpt lat="39.26203189125934" lon="9.238911863113016"><ele>41.6</ele><time>2026-04-18T15:12:51Z</time></trkpt><trkpt lat="39.26210754981733" lon="9.23902362243996"><ele>41.2</ele><time>2026-04-18T15:12:52Z</time></trkpt><trkpt lat="39.26215958408081" lon="9.239141623590625"><ele>40.8</ele><time>2026-04-18T15:12:53Z</time></trkpt><trkpt lat="39.262182371162915" lon="9.239278534065818"><ele>40.4</ele><time>2026-04-18T15:12:54Z</time></trkpt><trkpt lat="39.262199780047" lon="9.239426855329517"><ele>40.0</ele><time>2026-04-18T15:12:55Z</time></trkpt><trkpt lat="39.26221948141027" lon="9.239583327084297"><ele>40.0</ele><time>2026-04-18T15:12:56Z</time></trkpt><trkpt lat="39.26224101599784" lon="9.239747968278907"><ele>40.0</ele><time>2026-04-18T15:12:57Z</time></trkpt><trkpt lat="39.262264846925504" lon="9.239919254985267"><ele>40.0</ele><time>2026-04-18T15:12:58Z</time></trkpt><trkpt lat="39.26229254827271" lon="9.24009911161754"><ele>40.0</ele><time>2026-04-18T15:12:59Z</time></trkpt><trkpt lat="39.26231760128032" lon="9.240291844543401"><ele>41.0</ele><time>2026-04-18T15:13:00Z</time></trkpt><trkpt lat="39.26234003357541" lon="9.240494571315107"><ele>42.0</ele><time>2026-04-18T15:13:01Z</time></trkpt><trkpt lat="39.26236429312633" lon="9.240697944061958"><ele>43.0</ele><time>2026-04-18T15:13:02Z</time></trkpt><trkpt lat="39.262391968652906" lon="9.240899670784799"><ele>43.0</ele><time>2026-04-18T15:13:03Z</time></trkpt><trkpt lat="39.26242150807032" lon="9.24110842005408"><ele>43.0</ele><time>2026-04-18T15:13:04Z</time></trkpt><trkpt lat="39.26244674036796" lon="9.241327735306488"><ele>43.0</ele><time>2026-04-18T15:13:05Z</time></trkpt><trkpt lat="39.26247112911234" lon="9.241548961276198"><ele>43.0</ele><time>2026-04-18T15:13:06Z</time></trkpt><trkpt lat="39.26249995402958" lon="9.241772691875923"><ele>43.0</ele><time>2026-04-18T15:13:07Z</time></trkpt><trkpt lat="39.26253112941685" lon="9.241997645527693"><ele>43.0</ele><time>2026-04-18T15:13:08Z</time></trkpt><trkpt lat="39.262561470226984" lon="9.242224954077194"><ele>43.0</ele><time>2026-04-18T15:13:09Z</time></trkpt><trkpt lat="39.2625889147147" lon="9.242454942959634"><ele>43.0</ele><time>2026-04-18T15:13:10Z</time></trkpt><trkpt lat="39.26261481526715" lon="9.242683115214612"><ele>43.0</ele><time>2026-04-18T15:13:11Z</time></trkpt><trkpt lat="39.26264363836395" lon="9.242911637763624"><ele>43.66666666666667</ele><time>2026-04-18T15:13:12Z</time></trkpt><trkpt lat="39.26267350373478" lon="9.243142600411534"><ele>44.333333333333336</ele><time>2026-04-18T15:13:13Z</time></trkpt><trkpt lat="39.26270648864116" lon="9.243373316523613"><ele>45.0</ele><time>2026-04-18T15:13:14Z</time></trkpt><trkpt lat="39.262739047264944" lon="9.243606046944885"><ele>45.0</ele><time>2026-04-18T15:13:15Z</time></trkpt><trkpt lat="39.26277035809986" lon="9.243833092005545"><ele>45.0</ele><time>2026-04-18T15:13:16Z</time></trkpt><trkpt lat="39.26279956230822" lon="9.244063488908518"><ele>45.0</ele><time>2026-04-18T15:13:17Z</time></trkpt><trkpt lat="39.262828650343025" lon="9.244299214092894"><ele>45.0</ele><time>2026-04-18T15:13:18Z</time></trkpt><trkpt lat="39.26285605946957" lon="9.244535639872566"><ele>45.0</ele><time>2026-04-18T15:13:19Z</time></trkpt><trkpt lat="39.262880912842874" lon="9.24477691933003"><ele>45.0</ele><time>2026-04-18T15:13:20Z</time></trkpt><trkpt lat="39.262914808973974" lon="9.24502076273546"><ele>45.0</ele><time>2026-04-18T15:13:21Z</time></trkpt><trkpt lat="39.26295302484405" lon="9.245263338750135"><ele>45.0</ele><time>2026-04-18T15:13:22Z</time></trkpt><trkpt lat="39.262989421475844" lon="9.245504797942749"><ele>45.0</ele><time>2026-04-18T15:13:23Z</time></trkpt><trkpt lat="39.26302051651189" lon="9.2457400412239"><ele>46.0</ele><time>2026-04-18T15:13:24Z</time></trkpt><trkpt lat="39.263047065750015" lon="9.245954594688428"><ele>47.0</ele><time>2026-04-18T15:13:25Z</time></trkpt><trkpt lat="39.26307372123443" lon="9.24615808405024"><ele>48.0</ele><time>2026-04-18T15:13:26Z</time></trkpt><trkpt lat="39.26309984580689" lon="9.246348667976553"><ele>48.66666666666667</ele><time>2026-04-18T15:13:27Z</time></trkpt><trkpt lat="39.26312662039244" lon="9.246535540596533"><ele>49.333333333333336</ele><time>2026-04-18T15:13:28Z</time></trkpt><trkpt lat="39.263155442361054" lon="9.246725208135253"><ele>50.0</ele><time>2026-04-18T15:13:29Z</time></trkpt><trkpt lat="39.26318343103111" lon="9.246919928472945"><ele>50.0</ele><time>2026-04-18T15:13:30Z</time></trkpt><trkpt lat="39.263205288428495" lon="9.247122733954662"><ele>50.0</ele><time>2026-04-18T15:13:31Z</time></trkpt><trkpt lat="39.26321823971062" lon="9.247328171278488"><ele>50.0</ele><time>2026-04-18T15:13:32Z</time></trkpt><trkpt lat="39.26321700240687" lon="9.247541402493628"><ele>49.66666666666667</ele><time>2026-04-18T15:13:33Z</time></trkpt><trkpt lat="39.26320582546979" lon="9.24775388901159"><ele>49.33333333333333</ele><time>2026-04-18T15:13:34Z</time></trkpt><trkpt lat="39.26318319081372" lon="9.247969338127756"><ele>49.0</ele><time>2026-04-18T15:13:35Z</time></trkpt><trkpt lat="39.263144679844515" lon="9.248178399937144"><ele>49.666666666666664</ele><time>2026-04-18T15:13:36Z</time></trkpt><trkpt lat="39.263097288534325" lon="9.24839125235907"><ele>50.33333333333333</ele><time>2026-04-18T15:13:37Z</time></trkpt><trkpt lat="39.26304989748154" lon="9.248606199336846"><ele>51.0</ele><time>2026-04-18T15:13:38Z</time></trkpt><trkpt lat="39.26300039037596" lon="9.248823868049978"><ele>51.33333333333333</ele><time>2026-04-18T15:13:39Z</time></trkpt><trkpt lat="39.26294887036477" lon="9.249044978221646"><ele>51.666666666666664</ele><time>2026-04-18T15:13:40Z</time></trkpt><trkpt lat="39.26289773490573" lon="9.249258726928653"><ele>52.0</ele><time>2026-04-18T15:13:41Z</time></trkpt><trkpt lat="39.262847410478315" lon="9.24947970505848"><ele>52.0</ele><time>2026-04-18T15:13:42Z</time></trkpt><trkpt lat="39.262798605521944" lon="9.24970133439354"><ele>52.0</ele><time>2026-04-18T15:13:43Z</time></trkpt><trkpt lat="39.262749896349426" lon="9.24992430331155"><ele>52.0</ele><time>2026-04-18T15:13:44Z</time></trkpt><trkpt lat="39.26269829036098" lon="9.250149951697967"><ele>54.0</ele><time>2026-04-18T15:13:45Z</time></trkpt><trkpt lat="39.26264674914065" lon="9.250371821267821"><ele>56.0</ele><time>2026-04-18T15:13:46Z</time></trkpt><trkpt lat="39.26259470855969" lon="9.250598541299427"><ele>58.0</ele><time>2026-04-18T15:13:47Z</time></trkpt><trkpt lat="39.26253927907897" lon="9.25082413731113"><ele>58.0</ele><time>2026-04-18T15:13:48Z</time></trkpt><trkpt lat="39.26248259057314" lon="9.251051620709731"><ele>58.0</ele><time>2026-04-18T15:13:49Z</time></trkpt><trkpt lat="39.262417264879375" lon="9.25127524258956"><ele>58.0</ele><time>2026-04-18T15:13:50Z</time></trkpt><trkpt lat="39.26233028038876" lon="9.251489799701176"><ele>60.33333333333333</ele><time>2026-04-18T15:13:51Z</time></trkpt><trkpt lat="39.262221521498695" lon="9.251688491858202"><ele>62.66666666666667</ele><time>2026-04-18T15:13:52Z</time></trkpt><trkpt lat="39.26209358482151" lon="9.251868868956148"><ele>65.0</ele><time>2026-04-18T15:13:53Z</time></trkpt><trkpt lat="39.26195465903117" lon="9.25203826186691"><ele>65.0</ele><time>2026-04-18T15:13:54Z</time></trkpt><trkpt lat="39.26181497172189" lon="9.252206009322759"><ele>65.0</ele><time>2026-04-18T15:13:55Z</time></trkpt><trkpt lat="39.2616735817814" lon="9.252372638162912"><ele>65.0</ele><time>2026-04-18T15:13:56Z</time></trkpt><trkpt lat="39.261531230721616" lon="9.252538422825252"><ele>64.0</ele><time>2026-04-18T15:13:57Z</time></trkpt><trkpt lat="39.26138891468764" lon="9.252707898742056"><ele>63.0</ele><time>2026-04-18T15:13:58Z</time></trkpt><trkpt lat="39.2612463813249" lon="9.252879876895477"><ele>62.0</ele><time>2026-04-18T15:13:59Z</time></trkpt><trkpt lat="39.26110088750979" lon="9.253049871106965"><ele>64.0</ele><time>2026-04-18T15:14:00Z</time></trkpt><trkpt lat="39.26095417290811" lon="9.253220253204086"><ele>66.0</ele><time>2026-04-18T15:14:01Z</time></trkpt><trkpt lat="39.260807923976294" lon="9.253387632513123"><ele>68.0</ele><time>2026-04-18T15:14:02Z</time></trkpt><trkpt lat="39.26066221848945" lon="9.253552425496547"><ele>68.33333333333334</ele><time>2026-04-18T15:14:03Z</time></trkpt><trkpt lat="39.26051208061353" lon="9.253723515209828"><ele>68.66666666666667</ele><time>2026-04-18T15:14:04Z</time></trkpt><trkpt lat="39.26036679916478" lon="9.253895532959056"><ele>69.0</ele><time>2026-04-18T15:14:05Z</time></trkpt><trkpt lat="39.26022365113032" lon="9.25407034200129"><ele>69.0</ele><time>2026-04-18T15:14:06Z</time></trkpt><trkpt lat="39.26008375925858" lon="9.254252595034663"><ele>69.0</ele><time>2026-04-18T15:14:07Z</time></trkpt><trkpt lat="39.259951709896896" lon="9.25444365384733"><ele>69.0</ele><time>2026-04-18T15:14:08Z</time></trkpt><trkpt lat="39.259830165610666" lon="9.254643331709056"><ele>69.33333333333333</ele><time>2026-04-18T15:14:09Z</time></trkpt><trkpt lat="39.259726130660496" lon="9.254859889603363"><ele>69.66666666666666</ele><time>2026-04-18T15:14:10Z</time></trkpt><trkpt lat="39.25963873105092" lon="9.255090474648703"><ele>70.0</ele><time>2026-04-18T15:14:11Z</time></trkpt><trkpt lat="39.25956703231589" lon="9.25532863029476"><ele>70.0</ele><time>2026-04-18T15:14:12Z</time></trkpt><trkpt lat="39.25950627175542" lon="9.25557087460915"><ele>70.0</ele><time>2026-04-18T15:14:13Z</time></trkpt><trkpt lat="39.259454330470234" lon="9.255818058558328"><ele>70.0</ele><time>2026-04-18T15:14:14Z</time></trkpt><trkpt lat="39.259398119534744" lon="9.256060756732714"><ele>70.33333333333333</ele><time>2026-04-18T15:14:15Z</time></trkpt><trkpt lat="39.25934021196097" lon="9.25629635563719"><ele>70.66666666666667</ele><time>2026-04-18T15:14:16Z</time></trkpt><trkpt lat="39.25928289206259" lon="9.256526587299394"><ele>71.0</ele><time>2026-04-18T15:14:17Z</time></trkpt><trkpt lat="39.2592280421896" lon="9.256747409829826"><ele>71.33333333333334</ele><time>2026-04-18T15:14:18Z</time></trkpt><trkpt lat="39.25917539643121" lon="9.256961403897826"><ele>71.66666666666667</ele><time>2026-04-18T15:14:19Z</time></trkpt><trkpt lat="39.259124924546406" lon="9.257173278689624"><ele>72.0</ele><time>2026-04-18T15:14:20Z</time></trkpt><trkpt lat="39.2590770952331" lon="9.25738874140627"><ele>73.0</ele><time>2026-04-18T15:14:21Z</time></trkpt><trkpt lat="39.25903396907723" lon="9.257598073273286"><ele>74.0</ele><time>2026-04-18T15:14:22Z</time></trkpt><trkpt lat="39.25899400274358" lon="9.257803209464639"><ele>75.0</ele><time>2026-04-18T15:14:23Z</time></trkpt><trkpt lat="39.25895971717884" lon="9.258004472325355"><ele>73.33333333333333</ele><time>2026-04-18T15:14:24Z</time></trkpt><trkpt lat="39.25893772308526" lon="9.258205378604863"><ele>71.66666666666666</ele><time>2026-04-18T15:14:25Z</time></trkpt><trkpt lat="39.25892888314553" lon="9.258402145485876"><ele>70.0</ele><time>2026-04-18T15:14:26Z</time></trkpt><trkpt lat="39.258929934728464" lon="9.25859606242554"><ele>70.0</ele><time>2026-04-18T15:14:27Z</time></trkpt><trkpt lat="39.25893172050074" lon="9.258783852236705"><ele>70.0</ele><time>2026-04-18T15:14:28Z</time></trkpt><trkpt lat="39.25893673564176" lon="9.258970473987224"><ele>70.0</ele><time>2026-04-18T15:14:29Z</time></trkpt><trkpt lat="39.25894712051148" lon="9.25915107842983"><ele>70.0</ele><time>2026-04-18T15:14:30Z</time></trkpt><trkpt lat="39.25896104617959" lon="9.259321713712268"><ele>70.0</ele><time>2026-04-18T15:14:31Z</time></trkpt><trkpt lat="39.25897444321185" lon="9.259486153307448"><ele>70.0</ele><time>2026-04-18T15:14:32Z</time></trkpt><trkpt lat="39.258993052223815" lon="9.259638089555645"><ele>70.0</ele><time>2026-04-18T15:14:33Z</time></trkpt><trkpt lat="39.259009438808306" lon="9.259783725562846"><ele>70.0</ele><time>2026-04-18T15:14:34Z</time></trkpt><trkpt lat="39.259019273364565" lon="9.259913472555342"><ele>70.0</ele><time>2026-04-18T15:14:35Z</time></trkpt><trkpt lat="39.259019623154344" lon="9.260022164236737"><ele>70.0</ele><time>2026-04-18T15:14:36Z</time></trkpt><trkpt lat="39.25903111919234" lon="9.260104236501705"><ele>70.0</ele><time>2026-04-18T15:14:37Z</time></trkpt><trkpt lat="39.25904302103214" lon="9.26020565527393"><ele>70.0</ele><time>2026-04-18T15:14:40Z</time></trkpt><trkpt lat="39.25905988577436" lon="9.260289289201205"><ele>70.0</ele><time>2026-04-18T15:14:43Z</time></trkpt><trkpt lat="39.25923671164916" lon="9.260276470673324"><ele>70.0</ele><time>2026-04-18T15:14:44Z</time></trkpt><trkpt lat="39.259331528694254" lon="9.260270130063512"><ele>70.0</ele><time>2026-04-18T15:14:45Z</time></trkpt><trkpt lat="39.25943125387054" lon="9.260235515894937"><ele>70.0</ele><time>2026-04-18T15:14:46Z</time></trkpt><trkpt lat="39.259545003744726" lon="9.260212771250846"><ele>70.0</ele><time>2026-04-18T15:14:47Z</time></trkpt><trkpt lat="39.25967318708719" lon="9.260200755274553"><ele>70.0</ele><time>2026-04-18T15:14:48Z</time></trkpt><trkpt lat="39.259804665463804" lon="9.260185106954191"><ele>70.25</ele><time>2026-04-18T15:14:49Z</time></trkpt><trkpt lat="39.259935846667915" lon="9.260165152094242"><ele>70.5</ele><time>2026-04-18T15:14:50Z</time></trkpt><trkpt lat="39.26007087076432" lon="9.260124398890728"><ele>70.75</ele><time>2026-04-18T15:14:51Z</time></trkpt><trkpt lat="39.26019990527355" lon="9.260054961338982"><ele>71.0</ele><time>2026-04-18T15:14:52Z</time></trkpt><trkpt lat="39.26031302963129" lon="9.25994953573429"><ele>71.0</ele><time>2026-04-18T15:14:53Z</time></trkpt><trkpt lat="39.26040207248044" lon="9.259810924970632"><ele>71.0</ele><time>2026-04-18T15:14:54Z</time></trkpt><trkpt lat="39.260464291541346" lon="9.25964712351111"><ele>71.0</ele><time>2026-04-18T15:14:55Z</time></trkpt><trkpt lat="39.260491837501405" lon="9.25946568238911"><ele>71.0</ele><time>2026-04-18T15:14:56Z</time></trkpt><trkpt lat="39.26048363328912" lon="9.259277942064067"><ele>72.0</ele><time>2026-04-18T15:14:57Z</time></trkpt><trkpt lat="39.26043890428097" lon="9.259094865567233"><ele>73.0</ele><time>2026-04-18T15:14:58Z</time></trkpt><trkpt lat="39.2603643154377" lon="9.258924056628862"><ele>74.0</ele><time>2026-04-18T15:14:59Z</time></trkpt><trkpt lat="39.26025936920703" lon="9.258772652864911"><ele>75.0</ele><time>2026-04-18T15:15:00Z</time></trkpt><trkpt lat="39.26013178756744" lon="9.2586507105365"><ele>76.0</ele><time>2026-04-18T15:15:01Z</time></trkpt><trkpt lat="39.25999303579475" lon="9.258550139798698"><ele>77.0</ele><time>2026-04-18T15:15:02Z</time></trkpt><trkpt lat="39.2598622790784" lon="9.258450063458973"><ele>76.25</ele><time>2026-04-18T15:15:03Z</time></trkpt><trkpt lat="39.25974297564939" lon="9.258352690523694"><ele>75.5</ele><time>2026-04-18T15:15:04Z</time></trkpt><trkpt lat="39.25962536142143" lon="9.258274652514848"><ele>74.75</ele><time>2026-04-18T15:15:05Z</time></trkpt><trkpt lat="39.25950144933573" lon="9.258231876305961"><ele>74.0</ele><time>2026-04-18T15:15:06Z</time></trkpt><trkpt lat="39.25937031313351" lon="9.258255585084635"><ele>74.0</ele><time>2026-04-18T15:15:07Z</time></trkpt><trkpt lat="39.25924963192913" lon="9.258336830031006"><ele>74.0</ele><time>2026-04-18T15:15:08Z</time></trkpt><trkpt lat="39.2591527207874" lon="9.25845943669091"><ele>74.0</ele><time>2026-04-18T15:15:09Z</time></trkpt><trkpt lat="39.25908327277858" lon="9.258620814321295"><ele>74.0</ele><time>2026-04-18T15:15:10Z</time></trkpt><trkpt lat="39.25902421448311" lon="9.25880563431769"><ele>73.33333333333334</ele><time>2026-04-18T15:15:11Z</time></trkpt><trkpt lat="39.258961247286656" lon="9.258996923254449"><ele>72.66666666666667</ele><time>2026-04-18T15:15:12Z</time></trkpt><trkpt lat="39.258895697347484" lon="9.259185909560324"><ele>72.0</ele><time>2026-04-18T15:15:13Z</time></trkpt><trkpt lat="39.25882690767019" lon="9.259380246634175"><ele>71.66666666666667</ele><time>2026-04-18T15:15:14Z</time></trkpt><trkpt lat="39.25875594160971" lon="9.259579512040531"><ele>71.33333333333334</ele><time>2026-04-18T15:15:15Z</time></trkpt><trkpt lat="39.258682229393465" lon="9.259783913296758"><ele>71.0</ele><time>2026-04-18T15:15:16Z</time></trkpt><trkpt lat="39.25861011434058" lon="9.259990682867063"><ele>70.0</ele><time>2026-04-18T15:15:17Z</time></trkpt><trkpt lat="39.25853919907451" lon="9.260203632926656"><ele>69.0</ele><time>2026-04-18T15:15:18Z</time></trkpt><trkpt lat="39.25846658389109" lon="9.260422209297797"><ele>68.0</ele><time>2026-04-18T15:15:19Z</time></trkpt><trkpt lat="39.25839264444519" lon="9.26064114056873"><ele>67.33333333333334</ele><time>2026-04-18T15:15:20Z</time></trkpt><trkpt lat="39.25831864918291" lon="9.260863345450643"><ele>66.66666666666667</ele><time>2026-04-18T15:15:21Z</time></trkpt><trkpt lat="39.25824154382689" lon="9.261089319979314"><ele>66.0</ele><time>2026-04-18T15:15:22Z</time></trkpt><trkpt lat="39.25816268273465" lon="9.26131822877797"><ele>65.66666666666667</ele><time>2026-04-18T15:15:23Z</time></trkpt><trkpt lat="39.25808308893562" lon="9.261548110479726"><ele>65.33333333333334</ele><time>2026-04-18T15:15:24Z</time></trkpt><trkpt lat="39.25800158782688" lon="9.261781179405284"><ele>65.0</ele><time>2026-04-18T15:15:25Z</time></trkpt><trkpt lat="39.25792034720284" lon="9.262015248733093"><ele>65.0</ele><time>2026-04-18T15:15:26Z</time></trkpt><trkpt lat="39.257840159727586" lon="9.262253926456838"><ele>65.0</ele><time>2026-04-18T15:15:27Z</time></trkpt><trkpt lat="39.25775949508423" lon="9.262493655433467"><ele>65.0</ele><time>2026-04-18T15:15:28Z</time></trkpt><trkpt lat="39.257673731591154" lon="9.262734949661915"><ele>65.33333333333334</ele><time>2026-04-18T15:15:29Z</time></trkpt><trkpt lat="39.25758423498424" lon="9.262978170011664"><ele>65.66666666666667</ele><time>2026-04-18T15:15:30Z</time></trkpt><trkpt lat="39.25749571305606" lon="9.263223894671237"><ele>66.0</ele><time>2026-04-18T15:15:31Z</time></trkpt><trkpt lat="39.257409697251035" lon="9.263473148095686"><ele>65.33333333333333</ele><time>2026-04-18T15:15:32Z</time></trkpt><trkpt lat="39.25732406069774" lon="9.263724115568245"><ele>64.66666666666666</ele><time>2026-04-18T15:15:33Z</time></trkpt><trkpt lat="39.257238827777904" lon="9.263977649258052"><ele>64.0</ele><time>2026-04-18T15:15:34Z</time></trkpt><trkpt lat="39.257149489708716" lon="9.264237569269723"><ele>63.5</ele><time>2026-04-18T15:15:35Z</time></trkpt><trkpt lat="39.2570578998472" lon="9.264500970333303"><ele>63.0</ele><time>2026-04-18T15:15:36Z</time></trkpt><trkpt lat="39.25696465686107" lon="9.264768843417961"><ele>62.5</ele><time>2026-04-18T15:15:37Z</time></trkpt><trkpt lat="39.25686975933255" lon="9.265041413196428"><ele>62.0</ele><time>2026-04-18T15:15:38Z</time></trkpt><trkpt lat="39.25677369631138" lon="9.265316161467304"><ele>62.0</ele><time>2026-04-18T15:15:39Z</time></trkpt><trkpt lat="39.25670883466851" lon="9.265519192498049"><ele>62.0</ele><time>2026-04-18T15:15:40Z</time></trkpt><trkpt lat="39.256617081752765" lon="9.265777109266454"><ele>62.0</ele><time>2026-04-18T15:15:41Z</time></trkpt><trkpt lat="39.256525157015616" lon="9.266042097575731"><ele>61.0</ele><time>2026-04-18T15:15:42Z</time></trkpt><trkpt lat="39.25643453574775" lon="9.266310566387403"><ele>60.0</ele><time>2026-04-18T15:15:43Z</time></trkpt><trkpt lat="39.25634278858795" lon="9.266587694127177"><ele>58.0</ele><time>2026-04-18T15:15:44Z</time></trkpt><trkpt lat="39.256250527682795" lon="9.266865601857113"><ele>56.0</ele><time>2026-04-18T15:15:45Z</time></trkpt><trkpt lat="39.25615680659683" lon="9.267142013100306"><ele>55.0</ele><time>2026-04-18T15:15:46Z</time></trkpt><trkpt lat="39.25606110721085" lon="9.267419019673868"><ele>54.0</ele><time>2026-04-18T15:15:47Z</time></trkpt><trkpt lat="39.25596273735313" lon="9.26769412698097"><ele>54.0</ele><time>2026-04-18T15:15:48Z</time></trkpt><trkpt lat="39.255861795931594" lon="9.2679711745999"><ele>54.0</ele><time>2026-04-18T15:15:49Z</time></trkpt><trkpt lat="39.25576221779042" lon="9.268249608423046"><ele>53.0</ele><time>2026-04-18T15:15:50Z</time></trkpt><trkpt lat="39.255664897288" lon="9.268532557601297"><ele>52.0</ele><time>2026-04-18T15:15:51Z</time></trkpt><trkpt lat="39.2555688450267" lon="9.268818462303928"><ele>50.5</ele><time>2026-04-18T15:15:52Z</time></trkpt><trkpt lat="39.25547239212565" lon="9.269106016518904"><ele>49.0</ele><time>2026-04-18T15:15:53Z</time></trkpt><trkpt lat="39.25537434153291" lon="9.26939131759384"><ele>49.0</ele><time>2026-04-18T15:15:54Z</time></trkpt><trkpt lat="39.255272559703165" lon="9.269677061385616"><ele>49.0</ele><time>2026-04-18T15:15:55Z</time></trkpt><trkpt lat="39.25516827778133" lon="9.269962897467384"><ele>48.5</ele><time>2026-04-18T15:15:56Z</time></trkpt><trkpt lat="39.25506377965844" lon="9.270242802508198"><ele>48.0</ele><time>2026-04-18T15:15:57Z</time></trkpt><trkpt lat="39.25495590929919" lon="9.270521120143824"><ele>48.0</ele><time>2026-04-18T15:15:58Z</time></trkpt><trkpt lat="39.254842363344125" lon="9.27079743661184"><ele>48.0</ele><time>2026-04-18T15:15:59Z</time></trkpt><trkpt lat="39.25472378884062" lon="9.271063579681568"><ele>47.0</ele><time>2026-04-18T15:16:00Z</time></trkpt><trkpt lat="39.25459861008894" lon="9.271324435012465"><ele>46.0</ele><time>2026-04-18T15:16:01Z</time></trkpt><trkpt lat="39.25446713217985" lon="9.271578162392696"><ele>46.0</ele><time>2026-04-18T15:16:02Z</time></trkpt><trkpt lat="39.2543300495616" lon="9.271824977273319"><ele>46.0</ele><time>2026-04-18T15:16:03Z</time></trkpt><trkpt lat="39.25418866054644" lon="9.272068935221494"><ele>45.5</ele><time>2026-04-18T15:16:04Z</time></trkpt><trkpt lat="39.2540471923543" lon="9.272309741950428"><ele>45.0</ele><time>2026-04-18T15:16:05Z</time></trkpt><trkpt lat="39.25390532352803" lon="9.272551947804029"><ele>45.0</ele><time>2026-04-18T15:16:06Z</time></trkpt><trkpt lat="39.253764427824635" lon="9.272793329349133"><ele>45.0</ele><time>2026-04-18T15:16:07Z</time></trkpt><trkpt lat="39.253622522528325" lon="9.273031080602118"><ele>45.0</ele><time>2026-04-18T15:16:08Z</time></trkpt><trkpt lat="39.25347787491468" lon="9.273268198820693"><ele>45.0</ele><time>2026-04-18T15:16:09Z</time></trkpt><trkpt lat="39.253332981014594" lon="9.273503567202619"><ele>45.0</ele><time>2026-04-18T15:16:10Z</time></trkpt><trkpt lat="39.25318954952136" lon="9.273738980675374"><ele>45.0</ele><time>2026-04-18T15:16:11Z</time></trkpt><trkpt lat="39.25304921734023" lon="9.273975520049468"><ele>45.0</ele><time>2026-04-18T15:16:12Z</time></trkpt><trkpt lat="39.252909564210235" lon="9.274210595771992"><ele>45.0</ele><time>2026-04-18T15:16:13Z</time></trkpt><trkpt lat="39.25276878353385" lon="9.27444674290244"><ele>45.0</ele><time>2026-04-18T15:16:14Z</time></trkpt><trkpt lat="39.252626821910205" lon="9.274678990750365"><ele>45.0</ele><time>2026-04-18T15:16:15Z</time></trkpt><trkpt lat="39.25248358495202" lon="9.274909928752264"><ele>43.5</ele><time>2026-04-18T15:16:16Z</time></trkpt><trkpt lat="39.25234113698057" lon="9.275142303766334"><ele>42.0</ele><time>2026-04-18T15:16:17Z</time></trkpt><trkpt lat="39.25220156672022" lon="9.275374325390668"><ele>40.0</ele><time>2026-04-18T15:16:18Z</time></trkpt><trkpt lat="39.25206238253083" lon="9.275606123402259"><ele>38.0</ele><time>2026-04-18T15:16:19Z</time></trkpt><trkpt lat="39.251921880417655" lon="9.275840940482942"><ele>38.0</ele><time>2026-04-18T15:16:20Z</time></trkpt><trkpt lat="39.25178109171016" lon="9.276076095274693"><ele>38.0</ele><time>2026-04-18T15:16:21Z</time></trkpt><trkpt lat="39.251639565110516" lon="9.276310707333243"><ele>38.0</ele><time>2026-04-18T15:16:22Z</time></trkpt><trkpt lat="39.2514999732504" lon="9.27654433633376"><ele>38.0</ele><time>2026-04-18T15:16:23Z</time></trkpt><trkpt lat="39.25135890644118" lon="9.276781111604018"><ele>38.0</ele><time>2026-04-18T15:16:24Z</time></trkpt><trkpt lat="39.25121631621549" lon="9.277014701171753"><ele>38.0</ele><time>2026-04-18T15:16:25Z</time></trkpt><trkpt lat="39.25107219127163" lon="9.277249306826635"><ele>39.0</ele><time>2026-04-18T15:16:26Z</time></trkpt><trkpt lat="39.25092019546242" lon="9.277469744802499"><ele>40.0</ele><time>2026-04-18T15:16:27Z</time></trkpt><trkpt lat="39.2507720271655" lon="9.277696885369162"><ele>39.5</ele><time>2026-04-18T15:16:28Z</time></trkpt><trkpt lat="39.25062164826761" lon="9.277922520746204"><ele>39.0</ele><time>2026-04-18T15:16:29Z</time></trkpt><trkpt lat="39.25047131005295" lon="9.278145337976019"><ele>39.0</ele><time>2026-04-18T15:16:30Z</time></trkpt><trkpt lat="39.250319335958984" lon="9.278369373059705"><ele>39.0</ele><time>2026-04-18T15:16:31Z</time></trkpt><trkpt lat="39.250168792208655" lon="9.278591636918502"><ele>39.0</ele><time>2026-04-18T15:16:32Z</time></trkpt><trkpt lat="39.25001367223381" lon="9.278813147693564"><ele>39.0</ele><time>2026-04-18T15:16:33Z</time></trkpt><trkpt lat="39.24985140159885" lon="9.27902012444027"><ele>38.5</ele><time>2026-04-18T15:16:34Z</time></trkpt><trkpt lat="39.249692297813446" lon="9.27923339642039"><ele>38.0</ele><time>2026-04-18T15:16:35Z</time></trkpt><trkpt lat="39.24952969853603" lon="9.279444959155764"><ele>38.0</ele><time>2026-04-18T15:16:36Z</time></trkpt><trkpt lat="39.249370158887906" lon="9.279658624972933"><ele>38.0</ele><time>2026-04-18T15:16:37Z</time></trkpt><trkpt lat="39.24920800465939" lon="9.279866341830292"><ele>38.0</ele><time>2026-04-18T15:16:38Z</time></trkpt><trkpt lat="39.24904697643571" lon="9.280078247794512"><ele>38.0</ele><time>2026-04-18T15:16:39Z</time></trkpt><trkpt lat="39.2488842250906" lon="9.28028924517419"><ele>38.0</ele><time>2026-04-18T15:16:40Z</time></trkpt><trkpt lat="39.248728019774425" lon="9.28050354375081"><ele>38.0</ele><time>2026-04-18T15:16:41Z</time></trkpt><trkpt lat="39.24856768982657" lon="9.280714141857986"><ele>37.5</ele><time>2026-04-18T15:16:42Z</time></trkpt><trkpt lat="39.248407022483946" lon="9.280925464530519"><ele>37.0</ele><time>2026-04-18T15:16:43Z</time></trkpt><trkpt lat="39.248246994445196" lon="9.281137266419835"><ele>37.0</ele><time>2026-04-18T15:16:44Z</time></trkpt><trkpt lat="39.24808591974687" lon="9.281350652580224"><ele>37.0</ele><time>2026-04-18T15:16:45Z</time></trkpt><trkpt lat="39.24792415817353" lon="9.28156611582072"><ele>36.5</ele><time>2026-04-18T15:16:46Z</time></trkpt><trkpt lat="39.24776480150933" lon="9.28178025437589"><ele>36.0</ele><time>2026-04-18T15:16:47Z</time></trkpt><trkpt lat="39.2476034733359" lon="9.281997551592843"><ele>36.0</ele><time>2026-04-18T15:16:48Z</time></trkpt><trkpt lat="39.247441225828595" lon="9.282208957836401"><ele>36.0</ele><time>2026-04-18T15:16:49Z</time></trkpt><trkpt lat="39.24728033703122" lon="9.282400675458947"><ele>36.0</ele><time>2026-04-18T15:16:50Z</time></trkpt><trkpt lat="39.247120255473014" lon="9.282603013732189"><ele>35.0</ele><time>2026-04-18T15:16:51Z</time></trkpt><trkpt lat="39.2469507050597" lon="9.282786253333759"><ele>34.0</ele><time>2026-04-18T15:16:52Z</time></trkpt><trkpt lat="39.24677605628742" lon="9.282965975426889"><ele>33.0</ele><time>2026-04-18T15:16:53Z</time></trkpt><trkpt lat="39.24659444697897" lon="9.283137292124238"><ele>31.5</ele><time>2026-04-18T15:16:54Z</time></trkpt><trkpt lat="39.24640631075057" lon="9.28330049954106"><ele>30.0</ele><time>2026-04-18T15:16:55Z</time></trkpt><trkpt lat="39.24621365781136" lon="9.283452840903163"><ele>30.0</ele><time>2026-04-18T15:16:56Z</time></trkpt><trkpt lat="39.24601712305226" lon="9.283595085761654"><ele>30.0</ele><time>2026-04-18T15:16:57Z</time></trkpt><trkpt lat="39.2458164434777" lon="9.283721833785911"><ele>30.0</ele><time>2026-04-18T15:16:58Z</time></trkpt><trkpt lat="39.245611166019565" lon="9.283845027138156"><ele>31.0</ele><time>2026-04-18T15:16:59Z</time></trkpt><trkpt lat="39.24540426274359" lon="9.283959769347879"><ele>32.0</ele><time>2026-04-18T15:17:00Z</time></trkpt><trkpt lat="39.24520622899555" lon="9.284096395603958"><ele>32.0</ele><time>2026-04-18T15:17:01Z</time></trkpt><trkpt lat="39.24500587244892" lon="9.284219667309673"><ele>32.0</ele><time>2026-04-18T15:17:02Z</time></trkpt><trkpt lat="39.24480655164757" lon="9.28433971024789"><ele>32.0</ele><time>2026-04-18T15:17:03Z</time></trkpt><trkpt lat="39.24460488705712" lon="9.284460774139918"><ele>32.33333333333333</ele><time>2026-04-18T15:17:04Z</time></trkpt><trkpt lat="39.2444039453122" lon="9.284577734173546"><ele>32.666666666666664</ele><time>2026-04-18T15:17:05Z</time></trkpt><trkpt lat="39.24420356730182" lon="9.28469395196056"><ele>33.0</ele><time>2026-04-18T15:17:06Z</time></trkpt><trkpt lat="39.24400389739111" lon="9.284812660652346"><ele>35.0</ele><time>2026-04-18T15:17:07Z</time></trkpt><trkpt lat="39.24380454587237" lon="9.284935970822833"><ele>37.0</ele><time>2026-04-18T15:17:08Z</time></trkpt><trkpt lat="39.24360765095997" lon="9.285067277002405"><ele>39.0</ele><time>2026-04-18T15:17:09Z</time></trkpt><trkpt lat="39.24341250973459" lon="9.285203490985309"><ele>39.0</ele><time>2026-04-18T15:17:10Z</time></trkpt><trkpt lat="39.24321672220926" lon="9.28534580352474"><ele>39.0</ele><time>2026-04-18T15:17:11Z</time></trkpt><trkpt lat="39.243026037655795" lon="9.28549201691828"><ele>39.0</ele><time>2026-04-18T15:17:12Z</time></trkpt><trkpt lat="39.24283463558192" lon="9.285646471029084"><ele>39.5</ele><time>2026-04-18T15:17:13Z</time></trkpt><trkpt lat="39.24264903977233" lon="9.285810613617405"><ele>40.0</ele><time>2026-04-18T15:17:14Z</time></trkpt><trkpt lat="39.24246449859618" lon="9.285982843091364"><ele>38.0</ele><time>2026-04-18T15:17:15Z</time></trkpt><trkpt lat="39.24228390258601" lon="9.28616521934713"><ele>36.0</ele><time>2026-04-18T15:17:16Z</time></trkpt><trkpt lat="39.24210714439375" lon="9.286359803844572"><ele>39.5</ele><time>2026-04-18T15:17:17Z</time></trkpt><trkpt lat="39.24194461181194" lon="9.286568578258073"><ele>43.0</ele><time>2026-04-18T15:17:18Z</time></trkpt><trkpt lat="39.24178555710721" lon="9.286785803182367"><ele>43.0</ele><time>2026-04-18T15:17:19Z</time></trkpt><trkpt lat="39.24163292158324" lon="9.287014976123658"><ele>43.0</ele><time>2026-04-18T15:17:20Z</time></trkpt><trkpt lat="39.24148970346873" lon="9.287253545450504"><ele>44.5</ele><time>2026-04-18T15:17:21Z</time></trkpt><trkpt lat="39.24134863624581" lon="9.28749423526333"><ele>46.0</ele><time>2026-04-18T15:17:22Z</time></trkpt><trkpt lat="39.241218226660436" lon="9.28774649907382"><ele>46.0</ele><time>2026-04-18T15:17:23Z</time></trkpt><trkpt lat="39.24109208661802" lon="9.28800590447532"><ele>46.0</ele><time>2026-04-18T15:17:24Z</time></trkpt><trkpt lat="39.24097609256867" lon="9.28826950703896"><ele>45.0</ele><time>2026-04-18T15:17:25Z</time></trkpt><trkpt lat="39.24086920385248" lon="9.288542470452816"><ele>44.0</ele><time>2026-04-18T15:17:26Z</time></trkpt><trkpt lat="39.24077491054981" lon="9.288822228417445"><ele>44.0</ele><time>2026-04-18T15:17:27Z</time></trkpt><trkpt lat="39.24068926937662" lon="9.289108503722575"><ele>44.0</ele><time>2026-04-18T15:17:28Z</time></trkpt><trkpt lat="39.240612141458186" lon="9.289395660065109"><ele>43.0</ele><time>2026-04-18T15:17:29Z</time></trkpt><trkpt lat="39.24054297714856" lon="9.289689173061229"><ele>42.0</ele><time>2026-04-18T15:17:30Z</time></trkpt><trkpt lat="39.240480860809676" lon="9.289985885206946"><ele>41.5</ele><time>2026-04-18T15:17:31Z</time></trkpt><trkpt lat="39.240429235679684" lon="9.290288249006808"><ele>41.0</ele><time>2026-04-18T15:17:32Z</time></trkpt><trkpt lat="39.240386150234535" lon="9.29059370114226"><ele>40.5</ele><time>2026-04-18T15:17:33Z</time></trkpt><trkpt lat="39.24034981500442" lon="9.29089872974182"><ele>40.0</ele><time>2026-04-18T15:17:34Z</time></trkpt><trkpt lat="39.24031254566071" lon="9.291197660431015"><ele>37.0</ele><time>2026-04-18T15:17:35Z</time></trkpt><trkpt lat="39.24027605445933" lon="9.291495463061644"><ele>34.0</ele><time>2026-04-18T15:17:36Z</time></trkpt><trkpt lat="39.24023877513391" lon="9.291790600551375"><ele>34.0</ele><time>2026-04-18T15:17:37Z</time></trkpt><trkpt lat="39.24020436291047" lon="9.292084062804323"><ele>34.0</ele><time>2026-04-18T15:17:38Z</time></trkpt><trkpt lat="39.24017488617016" lon="9.292377229011445"><ele>31.0</ele><time>2026-04-18T15:17:39Z</time></trkpt><trkpt lat="39.24014515431768" lon="9.292668065212155"><ele>28.0</ele><time>2026-04-18T15:17:40Z</time></trkpt><trkpt lat="39.240115116476886" lon="9.292960128208529"><ele>27.0</ele><time>2026-04-18T15:17:41Z</time></trkpt><trkpt lat="39.240079908241974" lon="9.29325003284611"><ele>26.0</ele><time>2026-04-18T15:17:42Z</time></trkpt><trkpt lat="39.24004640207064" lon="9.293544462200348"><ele>26.0</ele><time>2026-04-18T15:17:43Z</time></trkpt><trkpt lat="39.24001258076677" lon="9.293836205457827"><ele>26.0</ele><time>2026-04-18T15:17:44Z</time></trkpt><trkpt lat="39.239982664092345" lon="9.294129266086106"><ele>25.5</ele><time>2026-04-18T15:17:45Z</time></trkpt><trkpt lat="39.23995060520982" lon="9.294424768596548"><ele>25.0</ele><time>2026-04-18T15:17:46Z</time></trkpt><trkpt lat="39.23991964164837" lon="9.29471842144063"><ele>25.0</ele><time>2026-04-18T15:17:47Z</time></trkpt><trkpt lat="39.239860522409266" lon="9.29530784651841"><ele>24.5</ele><time>2026-04-18T15:17:49Z</time></trkpt><trkpt lat="39.23983124319712" lon="9.295604958026095"><ele>24.0</ele><time>2026-04-18T15:17:50Z</time></trkpt><trkpt lat="39.23979990638506" lon="9.295902785968885"><ele>23.5</ele><time>2026-04-18T15:17:51Z</time></trkpt><trkpt lat="39.239762612737174" lon="9.29619594437352"><ele>23.0</ele><time>2026-04-18T15:17:52Z</time></trkpt><trkpt lat="39.23972788504874" lon="9.296491439239352"><ele>21.5</ele><time>2026-04-18T15:17:53Z</time></trkpt><trkpt lat="39.239693793637386" lon="9.296789242890803"><ele>20.0</ele><time>2026-04-18T15:17:54Z</time></trkpt><trkpt lat="39.23966402144269" lon="9.297085445666685"><ele>19.5</ele><time>2026-04-18T15:17:55Z</time></trkpt><trkpt lat="39.23963211629847" lon="9.297383082053551"><ele>19.0</ele><time>2026-04-18T15:17:56Z</time></trkpt><trkpt lat="39.23960151577774" lon="9.297681357950873"><ele>19.0</ele><time>2026-04-18T15:17:57Z</time></trkpt><trkpt lat="39.2395702134619" lon="9.297968488628333"><ele>19.0</ele><time>2026-04-18T15:17:58Z</time></trkpt><trkpt lat="39.23953963075983" lon="9.298261714236052"><ele>19.5</ele><time>2026-04-18T15:17:59Z</time></trkpt><trkpt lat="39.23950744928727" lon="9.298552231383944"><ele>20.0</ele><time>2026-04-18T15:18:00Z</time></trkpt><trkpt lat="39.239476552866314" lon="9.298843063276351"><ele>22.0</ele><time>2026-04-18T15:18:01Z</time></trkpt><trkpt lat="39.23944413600419" lon="9.299136772065973"><ele>24.0</ele><time>2026-04-18T15:18:02Z</time></trkpt><trkpt lat="39.23941261045965" lon="9.299429959910716"><ele>24.0</ele><time>2026-04-18T15:18:03Z</time></trkpt><trkpt lat="39.23938115159153" lon="9.299720680589834"><ele>24.0</ele><time>2026-04-18T15:18:04Z</time></trkpt><trkpt lat="39.23934996514065" lon="9.30001389734811"><ele>25.5</ele><time>2026-04-18T15:18:05Z</time></trkpt><trkpt lat="39.23932202455964" lon="9.300304943817261"><ele>27.0</ele><time>2026-04-18T15:18:06Z</time></trkpt><trkpt lat="39.23929279594426" lon="9.30059833075451"><ele>30.0</ele><time>2026-04-18T15:18:07Z</time></trkpt><trkpt lat="39.23926109932469" lon="9.30089123085098"><ele>33.0</ele><time>2026-04-18T15:18:08Z</time></trkpt><trkpt lat="39.23922379413979" lon="9.301183869155409"><ele>36.0</ele><time>2026-04-18T15:18:09Z</time></trkpt><trkpt lat="39.23918691317709" lon="9.30147795333966"><ele>39.0</ele><time>2026-04-18T15:18:10Z</time></trkpt><trkpt lat="39.239143596766574" lon="9.301769340029102"><ele>39.0</ele><time>2026-04-18T15:18:11Z</time></trkpt><trkpt lat="39.239095173914244" lon="9.302058043008834"><ele>39.0</ele><time>2026-04-18T15:18:12Z</time></trkpt><trkpt lat="39.23904071541278" lon="9.302343976102833"><ele>38.5</ele><time>2026-04-18T15:18:13Z</time></trkpt><trkpt lat="39.23898080494876" lon="9.302627873328435"><ele>38.0</ele><time>2026-04-18T15:18:14Z</time></trkpt><trkpt lat="39.23890351872419" lon="9.302904960577164"><ele>41.0</ele><time>2026-04-18T15:18:15Z</time></trkpt><trkpt lat="39.23882234114429" lon="9.303182145637422"><ele>44.0</ele><time>2026-04-18T15:18:16Z</time></trkpt><trkpt lat="39.238732981429536" lon="9.30345586420028"><ele>44.0</ele><time>2026-04-18T15:18:17Z</time></trkpt><trkpt lat="39.238640105566155" lon="9.303728084562863"><ele>44.0</ele><time>2026-04-18T15:18:18Z</time></trkpt><trkpt lat="39.23853471086157" lon="9.303998166120435"><ele>49.5</ele><time>2026-04-18T15:18:19Z</time></trkpt><trkpt lat="39.23844284801927" lon="9.30427333795206"><ele>55.0</ele><time>2026-04-18T15:18:20Z</time></trkpt><trkpt lat="39.23834527043064" lon="9.304545420652644"><ele>55.5</ele><time>2026-04-18T15:18:21Z</time></trkpt><trkpt lat="39.238248626992736" lon="9.304815329304875"><ele>56.0</ele><time>2026-04-18T15:18:22Z</time></trkpt><trkpt lat="39.23815088968981" lon="9.305086820282026"><ele>65.0</ele><time>2026-04-18T15:18:23Z</time></trkpt><trkpt lat="39.23805476895837" lon="9.305356525097785"><ele>74.0</ele><time>2026-04-18T15:18:24Z</time></trkpt><trkpt lat="39.23796424387333" lon="9.305631480359354"><ele>74.5</ele><time>2026-04-18T15:18:25Z</time></trkpt><trkpt lat="39.23787629593564" lon="9.305907402906385"><ele>75.0</ele><time>2026-04-18T15:18:26Z</time></trkpt><trkpt lat="39.23779573132416" lon="9.306188722755632"><ele>71.0</ele><time>2026-04-18T15:18:27Z</time></trkpt><trkpt lat="39.237726569265654" lon="9.306475442262933"><ele>67.0</ele><time>2026-04-18T15:18:28Z</time></trkpt><trkpt lat="39.23766941564527" lon="9.30676517026949"><ele>67.0</ele><time>2026-04-18T15:18:29Z</time></trkpt><trkpt lat="39.237623316780216" lon="9.307058463810405"><ele>67.0</ele><time>2026-04-18T15:18:30Z</time></trkpt><trkpt lat="39.23758772490382" lon="9.307355193913198"><ele>67.5</ele><time>2026-04-18T15:18:31Z</time></trkpt><trkpt lat="39.23755964530405" lon="9.307649216313836"><ele>68.0</ele><time>2026-04-18T15:18:32Z</time></trkpt><trkpt lat="39.23754027408315" lon="9.30795522031066"><ele>70.0</ele><time>2026-04-18T15:18:33Z</time></trkpt><trkpt lat="39.23751511964039" lon="9.308254556248997"><ele>72.0</ele><time>2026-04-18T15:18:34Z</time></trkpt><trkpt lat="39.237486382871616" lon="9.308550756777661"><ele>72.0</ele><time>2026-04-18T15:18:35Z</time></trkpt><trkpt lat="39.23746695624155" lon="9.308849241421612"><ele>72.0</ele><time>2026-04-18T15:18:36Z</time></trkpt><trkpt lat="39.23744917873173" lon="9.309145547882334"><ele>75.0</ele><time>2026-04-18T15:18:37Z</time></trkpt><trkpt lat="39.23743137073856" lon="9.309444588939773"><ele>78.0</ele><time>2026-04-18T15:18:38Z</time></trkpt><trkpt lat="39.237413138174794" lon="9.309742005545898"><ele>82.0</ele><time>2026-04-18T15:18:39Z</time></trkpt><trkpt lat="39.23739730228627" lon="9.310040013457378"><ele>86.0</ele><time>2026-04-18T15:18:40Z</time></trkpt><trkpt lat="39.23738255503683" lon="9.310341499824743"><ele>90.5</ele><time>2026-04-18T15:18:41Z</time></trkpt><trkpt lat="39.23736701932075" lon="9.310645667573741"><ele>95.0</ele><time>2026-04-18T15:18:42Z</time></trkpt><trkpt lat="39.2373427901242" lon="9.310943691433842"><ele>95.0</ele><time>2026-04-18T15:18:43Z</time></trkpt><trkpt lat="39.23732559559764" lon="9.311247140063813"><ele>95.0</ele><time>2026-04-18T15:18:44Z</time></trkpt><trkpt lat="39.237305076709966" lon="9.311550419922057"><ele>96.5</ele><time>2026-04-18T15:18:45Z</time></trkpt><trkpt lat="39.23728614030703" lon="9.311855376548786"><ele>98.0</ele><time>2026-04-18T15:18:46Z</time></trkpt><trkpt lat="39.237270858296114" lon="9.31215994799496"><ele>98.0</ele><time>2026-04-18T15:18:47Z</time></trkpt><trkpt lat="39.23725537621569" lon="9.312458587702716"><ele>98.0</ele><time>2026-04-18T15:18:48Z</time></trkpt><trkpt lat="39.23724084507214" lon="9.312759084964537"><ele>98.0</ele><time>2026-04-18T15:18:49Z</time></trkpt><trkpt lat="39.237225197112814" lon="9.313057613515529"><ele>98.0</ele><time>2026-04-18T15:18:50Z</time></trkpt><trkpt lat="39.23720643213896" lon="9.313356829816831"><ele>98.5</ele><time>2026-04-18T15:18:51Z</time></trkpt><trkpt lat="39.23718130782933" lon="9.313659642856353"><ele>99.0</ele><time>2026-04-18T15:18:52Z</time></trkpt><trkpt lat="39.237151002353045" lon="9.313963519607931"><ele>99.0</ele><time>2026-04-18T15:18:53Z</time></trkpt><trkpt lat="39.23711265511369" lon="9.314265192016354"><ele>99.0</ele><time>2026-04-18T15:18:54Z</time></trkpt><trkpt lat="39.23707200489328" lon="9.314567546625641"><ele>101.5</ele><time>2026-04-18T15:18:55Z</time></trkpt><trkpt lat="39.23702721653476" lon="9.314867679233982"><ele>104.0</ele><time>2026-04-18T15:18:56Z</time></trkpt><trkpt lat="39.23697755433327" lon="9.315165050998395"><ele>104.0</ele><time>2026-04-18T15:18:57Z</time></trkpt><trkpt lat="39.23692041320319" lon="9.315459399559382"><ele>104.0</ele><time>2026-04-18T15:18:58Z</time></trkpt><trkpt lat="39.23685218168942" lon="9.315747446200575"><ele>107.0</ele><time>2026-04-18T15:18:59Z</time></trkpt><trkpt lat="39.23677896122798" lon="9.316031953784904"><ele>110.0</ele><time>2026-04-18T15:19:00Z</time></trkpt><trkpt lat="39.23669280176142" lon="9.316312309418093"><ele>108.5</ele><time>2026-04-18T15:19:01Z</time></trkpt><trkpt lat="39.23659315334516" lon="9.316582688830067"><ele>107.0</ele><time>2026-04-18T15:19:02Z</time></trkpt><trkpt lat="39.23648151045307" lon="9.316845630183291"><ele>106.0</ele><time>2026-04-18T15:19:03Z</time></trkpt><trkpt lat="39.236364057582975" lon="9.317107805184989"><ele>105.0</ele><time>2026-04-18T15:19:04Z</time></trkpt><trkpt lat="39.23624118500392" lon="9.317367305790725"><ele>105.0</ele><time>2026-04-18T15:19:05Z</time></trkpt><trkpt lat="39.2361040289727" lon="9.317616041634594"><ele>105.0</ele><time>2026-04-18T15:19:06Z</time></trkpt><trkpt lat="39.23595086847229" lon="9.317852543043527"><ele>101.5</ele><time>2026-04-18T15:19:07Z</time></trkpt><trkpt lat="39.23578270798357" lon="9.318070617656106"><ele>98.0</ele><time>2026-04-18T15:19:08Z</time></trkpt><trkpt lat="39.235608669963824" lon="9.318283865529162"><ele>98.0</ele><time>2026-04-18T15:19:09Z</time></trkpt><trkpt lat="39.235422382162916" lon="9.318484761847149"><ele>98.0</ele><time>2026-04-18T15:19:10Z</time></trkpt><trkpt lat="39.235231195896255" lon="9.318683472267235"><ele>98.0</ele><time>2026-04-18T15:19:11Z</time></trkpt><trkpt lat="39.23503584001937" lon="9.318875051741914"><ele>98.0</ele><time>2026-04-18T15:19:12Z</time></trkpt><trkpt lat="39.234825448558595" lon="9.319044145792182"><ele>92.5</ele><time>2026-04-18T15:19:13Z</time></trkpt><trkpt lat="39.23460832642898" lon="9.319199508599585"><ele>87.0</ele><time>2026-04-18T15:19:14Z</time></trkpt><trkpt lat="39.23438341278255" lon="9.319343797995996"><ele>87.0</ele><time>2026-04-18T15:19:15Z</time></trkpt><trkpt lat="39.234156318968836" lon="9.319483548344701"><ele>87.0</ele><time>2026-04-18T15:19:16Z</time></trkpt><trkpt lat="39.23392227479088" lon="9.31961319420428"><ele>87.0</ele><time>2026-04-18T15:19:17Z</time></trkpt><trkpt lat="39.2336841774519" lon="9.319730353041818"><ele>87.0</ele><time>2026-04-18T15:19:18Z</time></trkpt><trkpt lat="39.23344533733786" lon="9.31983973390049"><ele>87.0</ele><time>2026-04-18T15:19:19Z</time></trkpt><trkpt lat="39.23320331266647" lon="9.319944010008975"><ele>87.0</ele><time>2026-04-18T15:19:20Z</time></trkpt><trkpt lat="39.23271031626433" lon="9.32012491911094"><ele>83.0</ele><time>2026-04-18T15:19:22Z</time></trkpt><trkpt lat="39.232463975547994" lon="9.320211356339122"><ele>79.0</ele><time>2026-04-18T15:19:23Z</time></trkpt><trkpt lat="39.23221751075905" lon="9.320296998980515"><ele>77.5</ele><time>2026-04-18T15:19:24Z</time></trkpt><trkpt lat="39.23196923381029" lon="9.32038120548844"><ele>76.0</ele><time>2026-04-18T15:19:25Z</time></trkpt><trkpt lat="39.23172258737543" lon="9.320463276816303"><ele>76.0</ele><time>2026-04-18T15:19:26Z</time></trkpt><trkpt lat="39.23147597961778" lon="9.320548564734057"><ele>76.0</ele><time>2026-04-18T15:19:27Z</time></trkpt><trkpt lat="39.231228817180344" lon="9.320635564715216"><ele>74.5</ele><time>2026-04-18T15:19:28Z</time></trkpt><trkpt lat="39.23098345331665" lon="9.320730084417894"><ele>73.0</ele><time>2026-04-18T15:19:29Z</time></trkpt><trkpt lat="39.23074018973489" lon="9.320837891187033"><ele>71.5</ele><time>2026-04-18T15:19:30Z</time></trkpt><trkpt lat="39.230498861934215" lon="9.320963327437067"><ele>70.0</ele><time>2026-04-18T15:19:31Z</time></trkpt><trkpt lat="39.230287429176066" lon="9.321107413715886"><ele>70.0</ele><time>2026-04-18T15:19:32Z</time></trkpt><trkpt lat="39.23006950213169" lon="9.321262159378612"><ele>70.0</ele><time>2026-04-18T15:19:33Z</time></trkpt><trkpt lat="39.229854606747985" lon="9.321431760380033"><ele>66.5</ele><time>2026-04-18T15:19:34Z</time></trkpt><trkpt lat="39.229648806847266" lon="9.321616610449174"><ele>63.0</ele><time>2026-04-18T15:19:35Z</time></trkpt><trkpt lat="39.22944964423221" lon="9.32180834061418"><ele>63.0</ele><time>2026-04-18T15:19:36Z</time></trkpt><trkpt lat="39.229251651277416" lon="9.322007159910772"><ele>63.0</ele><time>2026-04-18T15:19:37Z</time></trkpt><trkpt lat="39.22905488646659" lon="9.322200658131417"><ele>61.0</ele><time>2026-04-18T15:19:38Z</time></trkpt><trkpt lat="39.22885668354079" lon="9.322390217001432"><ele>59.0</ele><time>2026-04-18T15:19:39Z</time></trkpt><trkpt lat="39.228659698148725" lon="9.322579093671315"><ele>59.0</ele><time>2026-04-18T15:19:40Z</time></trkpt><trkpt lat="39.2284638423855" lon="9.322770442220842"><ele>59.0</ele><time>2026-04-18T15:19:41Z</time></trkpt><trkpt lat="39.22826867014856" lon="9.322959335973128"><ele>62.5</ele><time>2026-04-18T15:19:42Z</time></trkpt><trkpt lat="39.22806956222038" lon="9.32313997975085"><ele>66.0</ele><time>2026-04-18T15:19:43Z</time></trkpt><trkpt lat="39.227868886391924" lon="9.323305006014483"><ele>66.0</ele><time>2026-04-18T15:19:44Z</time></trkpt><trkpt lat="39.2276629760154" lon="9.32345297564285"><ele>66.0</ele><time>2026-04-18T15:19:45Z</time></trkpt><trkpt lat="39.227453065393185" lon="9.32359271487773"><ele>64.5</ele><time>2026-04-18T15:19:46Z</time></trkpt><trkpt lat="39.22723782359349" lon="9.323716026466416"><ele>63.0</ele><time>2026-04-18T15:19:47Z</time></trkpt><trkpt lat="39.22701889267791" lon="9.323824726380046"><ele>68.5</ele><time>2026-04-18T15:19:48Z</time></trkpt><trkpt lat="39.22679654768839" lon="9.32391253808692"><ele>74.0</ele><time>2026-04-18T15:19:49Z</time></trkpt><trkpt lat="39.226569314329765" lon="9.323978140296289"><ele>69.0</ele><time>2026-04-18T15:19:50Z</time></trkpt><trkpt lat="39.226337190655514" lon="9.324036474775152"><ele>64.0</ele><time>2026-04-18T15:19:51Z</time></trkpt><trkpt lat="39.226107468330994" lon="9.324092157142447"><ele>64.0</ele><time>2026-04-18T15:19:52Z</time></trkpt><trkpt lat="39.22587284588992" lon="9.324125581360283"><ele>64.0</ele><time>2026-04-18T15:19:53Z</time></trkpt><trkpt lat="39.22563637311507" lon="9.324142458826076"><ele>62.0</ele><time>2026-04-18T15:19:54Z</time></trkpt><trkpt lat="39.225400760605" lon="9.324135711672556"><ele>60.0</ele><time>2026-04-18T15:19:55Z</time></trkpt><trkpt lat="39.2251683488496" lon="9.32411496569263"><ele>60.0</ele><time>2026-04-18T15:19:56Z</time></trkpt><trkpt lat="39.22493644995236" lon="9.324075291035069"><ele>60.0</ele><time>2026-04-18T15:19:57Z</time></trkpt><trkpt lat="39.224707967390074" lon="9.324025269318785"><ele>61.0</ele><time>2026-04-18T15:19:58Z</time></trkpt><trkpt lat="39.22448282312133" lon="9.323967115868614"><ele>62.0</ele><time>2026-04-18T15:19:59Z</time></trkpt><trkpt lat="39.22426020699115" lon="9.32389921155797"><ele>60.5</ele><time>2026-04-18T15:20:00Z</time></trkpt><trkpt lat="39.22404106974724" lon="9.32382239442155"><ele>59.0</ele><time>2026-04-18T15:20:01Z</time></trkpt><trkpt lat="39.223823112594104" lon="9.32373825142453"><ele>58.66666666666667</ele><time>2026-04-18T15:20:02Z</time></trkpt><trkpt lat="39.22361002621169" lon="9.323653421276271"><ele>58.33333333333333</ele><time>2026-04-18T15:20:03Z</time></trkpt><trkpt lat="39.22339902221899" lon="9.323565358083357"><ele>58.0</ele><time>2026-04-18T15:20:04Z</time></trkpt><trkpt lat="39.22319308097441" lon="9.323471293395457"><ele>60.0</ele><time>2026-04-18T15:20:05Z</time></trkpt><trkpt lat="39.2229927511461" lon="9.323377267058216"><ele>62.0</ele><time>2026-04-18T15:20:06Z</time></trkpt><trkpt lat="39.222791282426364" lon="9.323284478967164"><ele>64.0</ele><time>2026-04-18T15:20:07Z</time></trkpt><trkpt lat="39.222591353980825" lon="9.323209446215717"><ele>64.0</ele><time>2026-04-18T15:20:08Z</time></trkpt><trkpt lat="39.2223964575601" lon="9.323144616426955"><ele>64.0</ele><time>2026-04-18T15:20:09Z</time></trkpt><trkpt lat="39.2222088683503" lon="9.323089425888949"><ele>64.0</ele><time>2026-04-18T15:20:10Z</time></trkpt><trkpt lat="39.222031783139236" lon="9.323038837459897"><ele>63.33333333333333</ele><time>2026-04-18T15:20:11Z</time></trkpt><trkpt lat="39.221859264303525" lon="9.322984719621333"><ele>62.66666666666667</ele><time>2026-04-18T15:20:12Z</time></trkpt><trkpt lat="39.22169545689962" lon="9.322914561602397"><ele>62.0</ele><time>2026-04-18T15:20:13Z</time></trkpt><trkpt lat="39.221546472814275" lon="9.322807937207736"><ele>63.0</ele><time>2026-04-18T15:20:14Z</time></trkpt><trkpt lat="39.221404040946965" lon="9.32268094535078"><ele>64.0</ele><time>2026-04-18T15:20:15Z</time></trkpt><trkpt lat="39.22127165028677" lon="9.322530766876016"><ele>65.0</ele><time>2026-04-18T15:20:16Z</time></trkpt><trkpt lat="39.22115146617485" lon="9.32235819278315"><ele>62.333333333333336</ele><time>2026-04-18T15:20:17Z</time></trkpt><trkpt lat="39.22104885061943" lon="9.322164016610254"><ele>59.66666666666667</ele><time>2026-04-18T15:20:18Z</time></trkpt><trkpt lat="39.22096869442577" lon="9.321946398099534"><ele>57.0</ele><time>2026-04-18T15:20:19Z</time></trkpt><trkpt lat="39.22091796449023" lon="9.32171526245852"><ele>57.0</ele><time>2026-04-18T15:20:20Z</time></trkpt><trkpt lat="39.2208952815005" lon="9.321474777683946"><ele>57.0</ele><time>2026-04-18T15:20:21Z</time></trkpt><trkpt lat="39.22090067014554" lon="9.321233038876029"><ele>57.0</ele><time>2026-04-18T15:20:22Z</time></trkpt><trkpt lat="39.22093885563053" lon="9.32100165835799"><ele>57.0</ele><time>2026-04-18T15:20:23Z</time></trkpt><trkpt lat="39.221018057049" lon="9.320789426552913"><ele>57.0</ele><time>2026-04-18T15:20:24Z</time></trkpt><trkpt lat="39.221134501461975" lon="9.32059597379366"><ele>57.0</ele><time>2026-04-18T15:20:25Z</time></trkpt><trkpt lat="39.22127794420191" lon="9.320434932764678"><ele>57.33333333333333</ele><time>2026-04-18T15:20:26Z</time></trkpt><trkpt lat="39.2214453438049" lon="9.320312993229853"><ele>57.666666666666664</ele><time>2026-04-18T15:20:27Z</time></trkpt><trkpt lat="39.221633974876696" lon="9.320265046337829"><ele>58.0</ele><time>2026-04-18T15:20:28Z</time></trkpt><trkpt lat="39.22182975429985" lon="9.320229423950195"><ele>58.0</ele><time>2026-04-18T15:20:29Z</time></trkpt><trkpt lat="39.222032145052744" lon="9.320254705488203"><ele>58.0</ele><time>2026-04-18T15:20:30Z</time></trkpt><trkpt lat="39.22222340404216" lon="9.320339433938045"><ele>58.0</ele><time>2026-04-18T15:20:31Z</time></trkpt><trkpt lat="39.22240771083264" lon="9.320455816294109"><ele>55.0</ele><time>2026-04-18T15:20:32Z</time></trkpt><trkpt lat="39.22257885263569" lon="9.320611938016919"><ele>52.0</ele><time>2026-04-18T15:20:33Z</time></trkpt><trkpt lat="39.22274386584541" lon="9.320785120946544"><ele>49.0</ele><time>2026-04-18T15:20:34Z</time></trkpt><trkpt lat="39.22291656808954" lon="9.320952336842003"><ele>49.0</ele><time>2026-04-18T15:20:35Z</time></trkpt><trkpt lat="39.22308004696858" lon="9.321142506087323"><ele>49.0</ele><time>2026-04-18T15:20:36Z</time></trkpt><trkpt lat="39.223247660038815" lon="9.32132889263732"><ele>49.0</ele><time>2026-04-18T15:20:37Z</time></trkpt><trkpt lat="39.2234150388458" lon="9.321509954191065"><ele>49.33333333333333</ele><time>2026-04-18T15:20:38Z</time></trkpt><trkpt lat="39.22358643817369" lon="9.321692005515953"><ele>49.66666666666667</ele><time>2026-04-18T15:20:39Z</time></trkpt><trkpt lat="39.223743847246034" lon="9.32189504191014"><ele>50.0</ele><time>2026-04-18T15:20:40Z</time></trkpt><trkpt lat="39.22390151978965" lon="9.322094823302265"><ele>51.333333333333336</ele><time>2026-04-18T15:20:41Z</time></trkpt><trkpt lat="39.224055853218694" lon="9.322300089626129"><ele>52.66666666666667</ele><time>2026-04-18T15:20:42Z</time></trkpt><trkpt lat="39.224179878376624" lon="9.32253913115279"><ele>54.0</ele><time>2026-04-18T15:20:43Z</time></trkpt><trkpt lat="39.22428994627296" lon="9.322787770813607"><ele>54.0</ele><time>2026-04-18T15:20:44Z</time></trkpt><trkpt lat="39.2243826991162" lon="9.323049987992283"><ele>54.0</ele><time>2026-04-18T15:20:45Z</time></trkpt><trkpt lat="39.22445366201058" lon="9.32332386566156"><ele>54.0</ele><time>2026-04-18T15:20:46Z</time></trkpt><trkpt lat="39.22450766796728" lon="9.323604942690148"><ele>56.5</ele><time>2026-04-18T15:20:47Z</time></trkpt><trkpt lat="39.224550483431564" lon="9.323889252673805"><ele>59.0</ele><time>2026-04-18T15:20:48Z</time></trkpt><trkpt lat="39.22458263933566" lon="9.324180687346649"><ele>60.5</ele><time>2026-04-18T15:20:49Z</time></trkpt><trkpt lat="39.22460132843626" lon="9.324475004634296"><ele>62.0</ele><time>2026-04-18T15:20:50Z</time></trkpt><trkpt lat="39.22460557480524" lon="9.324770789545681"><ele>64.5</ele><time>2026-04-18T15:20:51Z</time></trkpt><trkpt lat="39.22459551899833" lon="9.325062586645608"><ele>67.0</ele><time>2026-04-18T15:20:52Z</time></trkpt><trkpt lat="39.224571769180386" lon="9.325352397286384"><ele>69.5</ele><time>2026-04-18T15:20:53Z</time></trkpt><trkpt lat="39.22453410450256" lon="9.325639756035397"><ele>72.0</ele><time>2026-04-18T15:20:54Z</time></trkpt><trkpt lat="39.224477488449786" lon="9.325920323069726"><ele>72.0</ele><time>2026-04-18T15:20:55Z</time></trkpt><trkpt lat="39.22440532822382" lon="9.326195643075495"><ele>72.0</ele><time>2026-04-18T15:20:56Z</time></trkpt><trkpt lat="39.22432209337101" lon="9.326467672047546"><ele>73.5</ele><time>2026-04-18T15:20:57Z</time></trkpt><trkpt lat="39.224228020893996" lon="9.326734907897483"><ele>75.0</ele><time>2026-04-18T15:20:58Z</time></trkpt><trkpt lat="39.224122163797325" lon="9.326997289181852"><ele>76.5</ele><time>2026-04-18T15:20:59Z</time></trkpt><trkpt lat="39.22400474040937" lon="9.32724990508952"><ele>78.0</ele><time>2026-04-18T15:21:00Z</time></trkpt><trkpt lat="39.22387642866827" lon="9.327485981984214"><ele>79.33333333333333</ele><time>2026-04-18T15:21:01Z</time></trkpt><trkpt lat="39.223739531213546" lon="9.327709949503422"><ele>80.66666666666666</ele><time>2026-04-18T15:21:02Z</time></trkpt><trkpt lat="39.22359754123887" lon="9.327927214429673"><ele>82.0</ele><time>2026-04-18T15:21:03Z</time></trkpt><trkpt lat="39.22345491778383" lon="9.328140728330041"><ele>85.66666666666666</ele><time>2026-04-18T15:21:04Z</time></trkpt><trkpt lat="39.22331195307074" lon="9.328351622573924"><ele>89.33333333333333</ele><time>2026-04-18T15:21:05Z</time></trkpt><trkpt lat="39.22317026121396" lon="9.328560627393555"><ele>93.0</ele><time>2026-04-18T15:21:06Z</time></trkpt><trkpt lat="39.223027118436256" lon="9.328767225918746"><ele>95.33333333333334</ele><time>2026-04-18T15:21:07Z</time></trkpt><trkpt lat="39.22288371998545" lon="9.328973585239623"><ele>97.66666666666667</ele><time>2026-04-18T15:21:08Z</time></trkpt><trkpt lat="39.222744850322925" lon="9.329170811856219"><ele>100.0</ele><time>2026-04-18T15:21:09Z</time></trkpt><trkpt lat="39.222608730432825" lon="9.329365835831538"><ele>100.0</ele><time>2026-04-18T15:21:10Z</time></trkpt><trkpt lat="39.222472965108025" lon="9.329559518987336"><ele>100.0</ele><time>2026-04-18T15:21:11Z</time></trkpt><trkpt lat="39.222333878707786" lon="9.329751826352027"><ele>100.0</ele><time>2026-04-18T15:21:12Z</time></trkpt><trkpt lat="39.22219266002295" lon="9.32994261125549"><ele>100.33333333333334</ele><time>2026-04-18T15:21:13Z</time></trkpt><trkpt lat="39.22205665588945" lon="9.330143029047836"><ele>100.66666666666666</ele><time>2026-04-18T15:21:14Z</time></trkpt><trkpt lat="39.22191616104867" lon="9.33034552184011"><ele>101.0</ele><time>2026-04-18T15:21:15Z</time></trkpt><trkpt lat="39.221778160681026" lon="9.330551649508696"><ele>104.0</ele><time>2026-04-18T15:21:16Z</time></trkpt><trkpt lat="39.22163745014917" lon="9.330760126437411"><ele>107.0</ele><time>2026-04-18T15:21:17Z</time></trkpt><trkpt lat="39.22149333269829" lon="9.33096622513601"><ele>110.0</ele><time>2026-04-18T15:21:18Z</time></trkpt><trkpt lat="39.22134627548376" lon="9.331171553570718"><ele>111.0</ele><time>2026-04-18T15:21:19Z</time></trkpt><trkpt lat="39.22119920161433" lon="9.331377972429165"><ele>112.0</ele><time>2026-04-18T15:21:20Z</time></trkpt><trkpt lat="39.22105542986492" lon="9.331588177103848"><ele>113.0</ele><time>2026-04-18T15:21:21Z</time></trkpt><trkpt lat="39.22091047728461" lon="9.331797982903884"><ele>116.66666666666666</ele><time>2026-04-18T15:21:22Z</time></trkpt><trkpt lat="39.22076705222545" lon="9.332011264295584"><ele>120.33333333333334</ele><time>2026-04-18T15:21:23Z</time></trkpt><trkpt lat="39.22061765280272" lon="9.332229769947096"><ele>124.0</ele><time>2026-04-18T15:21:24.026Z</time></trkpt><trkpt lat="39.220470867632294" lon="9.3324437347798"><ele>124.0</ele><time>2026-04-18T15:21:25.026Z</time></trkpt><trkpt lat="39.22032181232129" lon="9.332656916184016"><ele>124.0</ele><time>2026-04-18T15:21:26.025Z</time></trkpt><trkpt lat="39.22017049535495" lon="9.332871875397073"><ele>124.0</ele><time>2026-04-18T15:21:27.027Z</time></trkpt><trkpt lat="39.22001822880755" lon="9.333085878632188"><ele>126.33333333333334</ele><time>2026-04-18T15:21:28.026Z</time></trkpt><trkpt lat="39.21986631325017" lon="9.33330067957715"><ele>128.66666666666666</ele><time>2026-04-18T15:21:29.026Z</time></trkpt><trkpt lat="39.219789871628684" lon="9.333407552065166"><ele>131.0</ele><time>2026-04-18T15:21:29.526Z</time></trkpt><trkpt lat="39.217696581885534" lon="9.336062209383021"><ele>153.0</ele><time>2026-04-18T15:21:34.369Z</time></trkpt><trkpt lat="39.21708233894953" lon="9.336742075268882"><ele>180.0</ele><time>2026-04-18T15:21:35.369Z</time></trkpt><trkpt lat="39.21644944655307" lon="9.337393767675263"><ele>180.0</ele><time>2026-04-18T15:21:36.37Z</time></trkpt><trkpt lat="39.2162507" lon="9.3375956"><ele>180.0</ele><time>2026-04-18T15:21:37.37Z</time></trkpt><trkpt lat="39.20211837573901" lon="9.348043361912733"><ele>156.5</ele><time>2026-04-18T15:22:52.3Z</time></trkpt><trkpt lat="39.2019129822735" lon="9.348176148866976"><ele>133.0</ele><time>2026-04-18T15:22:53.25Z</time></trkpt><trkpt lat="39.201717931735104" lon="9.348309426083373"><ele>133.0</ele><time>2026-04-18T15:22:54.2Z</time></trkpt><trkpt lat="39.201523631110554" lon="9.348443990319268"><ele>133.0</ele><time>2026-04-18T15:22:55.15Z</time></trkpt><trkpt lat="39.20133542408027" lon="9.348578463969949"><ele>133.0</ele><time>2026-04-18T15:22:56.1Z</time></trkpt><trkpt lat="39.201154937226" lon="9.348707507392339"><ele>133.33333333333334</ele><time>2026-04-18T15:22:57.05Z</time></trkpt><trkpt lat="39.20098133343905" lon="9.348826702962866"><ele>133.66666666666666</ele><time>2026-04-18T15:22:58Z</time></trkpt><trkpt lat="39.20080053194579" lon="9.348951492678937"><ele>134.0</ele><time>2026-04-18T15:22:59.025Z</time></trkpt><trkpt lat="39.20062125529384" lon="9.349077645227778"><ele>117.5</ele><time>2026-04-18T15:23:00.026Z</time></trkpt><trkpt lat="39.200436133470184" lon="9.34921421022056"><ele>101.0</ele><time>2026-04-18T15:23:01.026Z</time></trkpt><trkpt lat="39.20000441809269" lon="9.349480820608136"><ele>99.5</ele><time>2026-04-18T15:23:03Z</time></trkpt><trkpt lat="39.19977818622864" lon="9.349608242470941"><ele>98.0</ele><time>2026-04-18T15:23:04Z</time></trkpt><trkpt lat="39.1995409807305" lon="9.349719733462855"><ele>98.0</ele><time>2026-04-18T15:23:05Z</time></trkpt><trkpt lat="39.199309609388486" lon="9.349840603932655"><ele>98.0</ele><time>2026-04-18T15:23:06Z</time></trkpt><trkpt lat="39.199080112050986" lon="9.349953703724823"><ele>93.5</ele><time>2026-04-18T15:23:07Z</time></trkpt><trkpt lat="39.198849659496915" lon="9.350057514554866"><ele>89.0</ele><time>2026-04-18T15:23:08Z</time></trkpt><trkpt lat="39.19861834348235" lon="9.350151248115894"><ele>89.0</ele><time>2026-04-18T15:23:09Z</time></trkpt><trkpt lat="39.198385300117295" lon="9.350236821192427"><ele>89.0</ele><time>2026-04-18T15:23:10Z</time></trkpt><trkpt lat="39.19815361690806" lon="9.35031418915436"><ele>86.0</ele><time>2026-04-18T15:23:11Z</time></trkpt><trkpt lat="39.197917576956115" lon="9.350388965761152"><ele>83.0</ele><time>2026-04-18T15:23:12Z</time></trkpt><trkpt lat="39.19768358846456" lon="9.350455552987794"><ele>83.0</ele><time>2026-04-18T15:23:13Z</time></trkpt><trkpt lat="39.19745042579989" lon="9.350510016274363"><ele>83.0</ele><time>2026-04-18T15:23:14Z</time></trkpt><trkpt lat="39.197216804362014" lon="9.350558012918395"><ele>89.5</ele><time>2026-04-18T15:23:15Z</time></trkpt><trkpt lat="39.19698671226437" lon="9.350610139127479"><ele>96.0</ele><time>2026-04-18T15:23:16Z</time></trkpt><trkpt lat="39.19676120802123" lon="9.35066853300652"><ele>96.0</ele><time>2026-04-18T15:23:17Z</time></trkpt><trkpt lat="39.19654401713638" lon="9.350727330713974"><ele>96.0</ele><time>2026-04-18T15:23:18Z</time></trkpt><trkpt lat="39.196334163014825" lon="9.350781200136314"><ele>96.0</ele><time>2026-04-18T15:23:19Z</time></trkpt><trkpt lat="39.19612604642041" lon="9.350835902166889"><ele>94.33333333333333</ele><time>2026-04-18T15:23:20Z</time></trkpt><trkpt lat="39.19592248398266" lon="9.350897528887955"><ele>92.66666666666666</ele><time>2026-04-18T15:23:21Z</time></trkpt><trkpt lat="39.1957230314411" lon="9.350967750628106"><ele>91.0</ele><time>2026-04-18T15:23:22Z</time></trkpt><trkpt lat="39.19552174366326" lon="9.351038400960277"><ele>89.33333333333333</ele><time>2026-04-18T15:23:23Z</time></trkpt><trkpt lat="39.195333171506114" lon="9.351109167743276"><ele>87.66666666666667</ele><time>2026-04-18T15:23:24Z</time></trkpt><trkpt lat="39.195152655759614" lon="9.351183232893645"><ele>86.0</ele><time>2026-04-18T15:23:25Z</time></trkpt><trkpt lat="39.19497853838077" lon="9.351262279824962"><ele>92.33333333333334</ele><time>2026-04-18T15:23:26Z</time></trkpt><trkpt lat="39.194798043353" lon="9.351347506870072"><ele>98.66666666666667</ele><time>2026-04-18T15:23:27Z</time></trkpt><trkpt lat="39.19461500997554" lon="9.351437228217243"><ele>105.0</ele><time>2026-04-18T15:23:28Z</time></trkpt><trkpt lat="39.194435605899045" lon="9.351529067865362"><ele>109.33333333333334</ele><time>2026-04-18T15:23:29Z</time></trkpt><trkpt lat="39.1942634862658" lon="9.351627369149982"><ele>113.66666666666667</ele><time>2026-04-18T15:23:30Z</time></trkpt><trkpt lat="39.19409414496406" lon="9.351734752973838"><ele>118.0</ele><time>2026-04-18T15:23:31Z</time></trkpt><trkpt lat="39.19392365469218" lon="9.351849722030153"><ele>125.66666666666667</ele><time>2026-04-18T15:23:32Z</time></trkpt><trkpt lat="39.193753902826636" lon="9.35196562455212"><ele>133.33333333333334</ele><time>2026-04-18T15:23:33Z</time></trkpt><trkpt lat="39.19358147004002" lon="9.352090556073197"><ele>141.0</ele><time>2026-04-18T15:23:34.026Z</time></trkpt><trkpt lat="39.19341374546059" lon="9.352224028567763"><ele>150.33333333333334</ele><time>2026-04-18T15:23:35.026Z</time></trkpt><trkpt lat="39.193243312602554" lon="9.352358641811069"><ele>159.66666666666669</ele><time>2026-04-18T15:23:36.026Z</time></trkpt><trkpt lat="39.19307269512198" lon="9.352498593212466"><ele>169.0</ele><time>2026-04-18T15:23:37.027Z</time></trkpt><trkpt lat="39.19291262689118" lon="9.352636806848238"><ele>179.0</ele><time>2026-04-18T15:23:37.977Z</time></trkpt><trkpt lat="39.192761963426506" lon="9.352772003063361"><ele>189.0</ele><time>2026-04-18T15:23:38.878Z</time></trkpt><trkpt lat="39.185841448916634" lon="9.360877924971845"><ele>146.66666666666666</ele><time>2026-04-18T15:24:26.6Z</time></trkpt><trkpt lat="39.185665409238446" lon="9.360975670198039"><ele>104.33333333333334</ele><time>2026-04-18T15:24:27.55Z</time></trkpt><trkpt lat="39.18546015896948" lon="9.361097973827906"><ele>62.0</ele><time>2026-04-18T15:24:28.5Z</time></trkpt><trkpt lat="39.18526876247834" lon="9.361211664986628"><ele>62.0</ele><time>2026-04-18T15:24:29.45Z</time></trkpt><trkpt lat="39.18508011905274" lon="9.361329912705916"><ele>62.0</ele><time>2026-04-18T15:24:30.4Z</time></trkpt><trkpt lat="39.18489132970131" lon="9.361453684285305"><ele>62.0</ele><time>2026-04-18T15:24:31.35Z</time></trkpt><trkpt lat="39.18470404504107" lon="9.361588036453295"><ele>59.0</ele><time>2026-04-18T15:24:32.3Z</time></trkpt><trkpt lat="39.18451124232121" lon="9.361732471671868"><ele>56.0</ele><time>2026-04-18T15:24:33.25Z</time></trkpt><trkpt lat="39.184315310633195" lon="9.361891497888426"><ele>56.0</ele><time>2026-04-18T15:24:34.2Z</time></trkpt><trkpt lat="39.1841216809251" lon="9.362057446928064"><ele>56.0</ele><time>2026-04-18T15:24:35.15Z</time></trkpt><trkpt lat="39.18393838574582" lon="9.362234260298942"><ele>49.5</ele><time>2026-04-18T15:24:36.1Z</time></trkpt><trkpt lat="39.18376099917017" lon="9.362419251902447"><ele>43.0</ele><time>2026-04-18T15:24:37.05Z</time></trkpt><trkpt lat="39.18359384512119" lon="9.362611394137613"><ele>43.0</ele><time>2026-04-18T15:24:38Z</time></trkpt><trkpt lat="39.183424431904655" lon="9.362812413396536"><ele>43.0</ele><time>2026-04-18T15:24:39Z</time></trkpt><trkpt lat="39.183260398083846" lon="9.36303085600791"><ele>36.0</ele><time>2026-04-18T15:24:40Z</time></trkpt><trkpt lat="39.183101503211155" lon="9.363261099118136"><ele>29.0</ele><time>2026-04-18T15:24:41Z</time></trkpt><trkpt lat="39.18294744908464" lon="9.363488978357742"><ele>29.0</ele><time>2026-04-18T15:24:42Z</time></trkpt><trkpt lat="39.18279870441729" lon="9.363724615663509"><ele>29.0</ele><time>2026-04-18T15:24:43Z</time></trkpt><trkpt lat="39.1826612745549" lon="9.363970511835385"><ele>36.5</ele><time>2026-04-18T15:24:44Z</time></trkpt><trkpt lat="39.18253797626663" lon="9.364228463118597"><ele>44.0</ele><time>2026-04-18T15:24:45Z</time></trkpt><trkpt lat="39.182422190125216" lon="9.364487076220083"><ele>50.0</ele><time>2026-04-18T15:24:46Z</time></trkpt><trkpt lat="39.18231497918981" lon="9.364750692374292"><ele>56.0</ele><time>2026-04-18T15:24:47Z</time></trkpt><trkpt lat="39.182215121215314" lon="9.365016884058411"><ele>56.0</ele><time>2026-04-18T15:24:48Z</time></trkpt><trkpt lat="39.18212291759449" lon="9.36528510069657"><ele>56.0</ele><time>2026-04-18T15:24:49Z</time></trkpt><trkpt lat="39.18203940416014" lon="9.365554121591584"><ele>56.0</ele><time>2026-04-18T15:24:50Z</time></trkpt><trkpt lat="39.181965469845125" lon="9.365825721046985"><ele>56.0</ele><time>2026-04-18T15:24:51Z</time></trkpt><trkpt lat="39.18190099627645" lon="9.366100139220931"><ele>56.0</ele><time>2026-04-18T15:24:52Z</time></trkpt><trkpt lat="39.181844438560844" lon="9.366377319619202"><ele>56.0</ele><time>2026-04-18T15:24:53Z</time></trkpt><trkpt lat="39.1817896439746" lon="9.366662158787037"><ele>56.0</ele><time>2026-04-18T15:24:54.026Z</time></trkpt><trkpt lat="39.1816745332188" lon="9.367891633655223"><ele>47.0</ele><time>2026-04-18T15:24:58.35Z</time></trkpt><trkpt lat="39.18166078884287" lon="9.368220623660328"><ele>38.0</ele><time>2026-04-18T15:24:59.3Z</time></trkpt><trkpt lat="39.1816590735996" lon="9.368494256976554"><ele>38.0</ele><time>2026-04-18T15:25:00.25Z</time></trkpt><trkpt lat="39.18167094117168" lon="9.36876736465376"><ele>38.0</ele><time>2026-04-18T15:25:01.2Z</time></trkpt><trkpt lat="39.18169457709608" lon="9.36903835836241"><ele>38.0</ele><time>2026-04-18T15:25:02.15Z</time></trkpt><trkpt lat="39.181726049329136" lon="9.36930966473993"><ele>38.33333333333333</ele><time>2026-04-18T15:25:03.1Z</time></trkpt><trkpt lat="39.181761714247564" lon="9.369579086410551"><ele>38.666666666666664</ele><time>2026-04-18T15:25:04.05Z</time></trkpt><trkpt lat="39.18180997167877" lon="9.369845365193035"><ele>39.0</ele><time>2026-04-18T15:25:05Z</time></trkpt><trkpt lat="39.181855172811126" lon="9.370123510267021"><ele>41.666666666666664</ele><time>2026-04-18T15:25:06Z</time></trkpt><trkpt lat="39.18191554634158" lon="9.370397935104979"><ele>44.33333333333333</ele><time>2026-04-18T15:25:07Z</time></trkpt><trkpt lat="39.18199523384392" lon="9.370660630557058"><ele>47.0</ele><time>2026-04-18T15:25:08Z</time></trkpt><trkpt lat="39.18206892964745" lon="9.370927723868125"><ele>50.666666666666664</ele><time>2026-04-18T15:25:09Z</time></trkpt><trkpt lat="39.18215049645642" lon="9.371193554691295"><ele>54.33333333333333</ele><time>2026-04-18T15:25:10Z</time></trkpt><trkpt lat="39.182240102496266" lon="9.371453465671843"><ele>58.0</ele><time>2026-04-18T15:25:11Z</time></trkpt><trkpt lat="39.182334921223614" lon="9.37170819550983"><ele>58.666666666666664</ele><time>2026-04-18T15:25:12Z</time></trkpt><trkpt lat="39.182429748162825" lon="9.371962380787975"><ele>59.33333333333333</ele><time>2026-04-18T15:25:13Z</time></trkpt><trkpt lat="39.18252412328221" lon="9.372214900945881"><ele>60.0</ele><time>2026-04-18T15:25:14Z</time></trkpt><trkpt lat="39.182619306434326" lon="9.372466424312975"><ele>61.66666666666667</ele><time>2026-04-18T15:25:15Z</time></trkpt><trkpt lat="39.18271868554429" lon="9.372720950986167"><ele>63.333333333333336</ele><time>2026-04-18T15:25:16.025Z</time></trkpt><trkpt lat="39.18282145123077" lon="9.372965589613779"><ele>65.0</ele><time>2026-04-18T15:25:17.027Z</time></trkpt><trkpt lat="39.18382473542364" lon="9.377627125705398"><ele>61.0</ele><time>2026-04-18T15:25:34Z</time></trkpt><trkpt lat="39.18383034936486" lon="9.377922799442757"><ele>57.0</ele><time>2026-04-18T15:25:35Z</time></trkpt><trkpt lat="39.18382837742211" lon="9.378196049270928"><ele>53.0</ele><time>2026-04-18T15:25:36Z</time></trkpt><trkpt lat="39.183807605734266" lon="9.378478342071896"><ele>46.66666666666667</ele><time>2026-04-18T15:25:37Z</time></trkpt><trkpt lat="39.18378711816328" lon="9.378763866922805"><ele>40.333333333333336</ele><time>2026-04-18T15:25:38Z</time></trkpt><trkpt lat="39.18375927693962" lon="9.379054274128451"><ele>34.0</ele><time>2026-04-18T15:25:39Z</time></trkpt><trkpt lat="39.1837311897537" lon="9.379339300340824"><ele>30.333333333333336</ele><time>2026-04-18T15:25:40Z</time></trkpt><trkpt lat="39.183704579805365" lon="9.37962510875277"><ele>26.666666666666668</ele><time>2026-04-18T15:25:41Z</time></trkpt><trkpt lat="39.18368333339349" lon="9.3799145806003"><ele>23.0</ele><time>2026-04-18T15:25:42Z</time></trkpt><trkpt lat="39.18365591220804" lon="9.380190424298274"><ele>20.333333333333336</ele><time>2026-04-18T15:25:43Z</time></trkpt><trkpt lat="39.18363409251742" lon="9.380471279403302"><ele>17.666666666666668</ele><time>2026-04-18T15:25:44Z</time></trkpt><trkpt lat="39.18360429211512" lon="9.380754633037665"><ele>15.0</ele><time>2026-04-18T15:25:45Z</time></trkpt><trkpt lat="39.18358649744102" lon="9.381034836811423"><ele>15.0</ele><time>2026-04-18T15:25:46Z</time></trkpt><trkpt lat="39.18356609444284" lon="9.381315694440854"><ele>15.0</ele><time>2026-04-18T15:25:47Z</time></trkpt><trkpt lat="39.18354216842101" lon="9.38159400605624"><ele>15.0</ele><time>2026-04-18T15:25:48Z</time></trkpt><trkpt lat="39.18351854310526" lon="9.381869974719004"><ele>16.0</ele><time>2026-04-18T15:25:49Z</time></trkpt><trkpt lat="39.1834996154944" lon="9.382145622203392"><ele>17.0</ele><time>2026-04-18T15:25:50Z</time></trkpt><trkpt lat="39.183476402005205" lon="9.382421130866728"><ele>18.0</ele><time>2026-04-18T15:25:51Z</time></trkpt><trkpt lat="39.18344447574003" lon="9.38269127139227"><ele>19.0</ele><time>2026-04-18T15:25:52Z</time></trkpt><trkpt lat="39.183401211163876" lon="9.382958941804889"><ele>20.0</ele><time>2026-04-18T15:25:53Z</time></trkpt><trkpt lat="39.18335003586722" lon="9.383222131192014"><ele>21.0</ele><time>2026-04-18T15:25:54Z</time></trkpt><trkpt lat="39.18329708855952" lon="9.383484769017333"><ele>22.333333333333336</ele><time>2026-04-18T15:25:55Z</time></trkpt><trkpt lat="39.183241328451075" lon="9.383743571585049"><ele>23.666666666666668</ele><time>2026-04-18T15:25:56Z</time></trkpt><trkpt lat="39.18317777064675" lon="9.384023748987783"><ele>25.0</ele><time>2026-04-18T15:25:57Z</time></trkpt><trkpt lat="39.18310750764907" lon="9.3842914058442"><ele>22.333333333333336</ele><time>2026-04-18T15:25:58Z</time></trkpt><trkpt lat="39.18302582730739" lon="9.384545193236875"><ele>19.666666666666668</ele><time>2026-04-18T15:25:59Z</time></trkpt><trkpt lat="39.18294076656596" lon="9.384801461444132"><ele>17.0</ele><time>2026-04-18T15:26:00Z</time></trkpt><trkpt lat="39.18284339785036" lon="9.385046176862655"><ele>17.0</ele><time>2026-04-18T15:26:01Z</time></trkpt><trkpt lat="39.1827389469127" lon="9.385288725415908"><ele>17.0</ele><time>2026-04-18T15:26:02Z</time></trkpt><trkpt lat="39.18263527634685" lon="9.385528698334435"><ele>17.0</ele><time>2026-04-18T15:26:03Z</time></trkpt><trkpt lat="39.18252633827915" lon="9.385768803057163"><ele>17.333333333333336</ele><time>2026-04-18T15:26:04Z</time></trkpt><trkpt lat="39.182416627700555" lon="9.386006433530499"><ele>17.666666666666668</ele><time>2026-04-18T15:26:05Z</time></trkpt><trkpt lat="39.18229786173678" lon="9.386233770095254"><ele>18.0</ele><time>2026-04-18T15:26:06Z</time></trkpt><trkpt lat="39.18217046394313" lon="9.386454046131776"><ele>16.666666666666668</ele><time>2026-04-18T15:26:07Z</time></trkpt><trkpt lat="39.182037243044014" lon="9.386669909658766"><ele>15.333333333333334</ele><time>2026-04-18T15:26:08Z</time></trkpt><trkpt lat="39.181894241877814" lon="9.386873899627723"><ele>14.0</ele><time>2026-04-18T15:26:09Z</time></trkpt><trkpt lat="39.18174422500234" lon="9.38706983112022"><ele>14.666666666666668</ele><time>2026-04-18T15:26:10Z</time></trkpt><trkpt lat="39.18159613068518" lon="9.387266751994595"><ele>15.333333333333332</ele><time>2026-04-18T15:26:11Z</time></trkpt><trkpt lat="39.181440325490335" lon="9.387456486222286"><ele>16.0</ele><time>2026-04-18T15:26:12Z</time></trkpt><trkpt lat="39.18127908578101" lon="9.387640863303211"><ele>15.333333333333332</ele><time>2026-04-18T15:26:13Z</time></trkpt><trkpt lat="39.181111801215536" lon="9.387812697392857"><ele>14.666666666666668</ele><time>2026-04-18T15:26:14Z</time></trkpt><trkpt lat="39.18094038064858" lon="9.38797657642408"><ele>14.0</ele><time>2026-04-18T15:26:15Z</time></trkpt><trkpt lat="39.18076516294153" lon="9.388131844353236"><ele>14.333333333333334</ele><time>2026-04-18T15:26:16Z</time></trkpt><trkpt lat="39.18058848885052" lon="9.388282623305294"><ele>14.666666666666668</ele><time>2026-04-18T15:26:17Z</time></trkpt><trkpt lat="39.18041242775373" lon="9.388423608447848"><ele>15.0</ele><time>2026-04-18T15:26:18Z</time></trkpt><trkpt lat="39.18023545110182" lon="9.388560014411018"><ele>15.0</ele><time>2026-04-18T15:26:19Z</time></trkpt><trkpt lat="39.180058674242375" lon="9.388684975386305"><ele>15.0</ele><time>2026-04-18T15:26:20Z</time></trkpt><trkpt lat="39.17984635764152" lon="9.388811656685814"><ele>15.0</ele><time>2026-04-18T15:26:21Z</time></trkpt><trkpt lat="39.17965187729133" lon="9.388911458310773"><ele>15.333333333333332</ele><time>2026-04-18T15:26:22Z</time></trkpt><trkpt lat="39.17946142595329" lon="9.389011211725277"><ele>15.666666666666666</ele><time>2026-04-18T15:26:23Z</time></trkpt><trkpt lat="39.179270682353724" lon="9.389109980662106"><ele>16.0</ele><time>2026-04-18T15:26:24Z</time></trkpt><trkpt lat="39.17907016480313" lon="9.389241408995673"><ele>17.333333333333332</ele><time>2026-04-18T15:26:25Z</time></trkpt><trkpt lat="39.17887127912251" lon="9.38935159271625"><ele>18.666666666666668</ele><time>2026-04-18T15:26:26Z</time></trkpt><trkpt lat="39.17867388945112" lon="9.38945929266642"><ele>20.0</ele><time>2026-04-18T15:26:27Z</time></trkpt><trkpt lat="39.17847726765508" lon="9.3895616520216"><ele>20.0</ele><time>2026-04-18T15:26:28Z</time></trkpt><trkpt lat="39.178278646247854" lon="9.389659507478578"><ele>20.0</ele><time>2026-04-18T15:26:29Z</time></trkpt><trkpt lat="39.17808187874299" lon="9.389758117451231"><ele>20.0</ele><time>2026-04-18T15:26:30Z</time></trkpt><trkpt lat="39.17788739529972" lon="9.389858544397025"><ele>25.333333333333336</ele><time>2026-04-18T15:26:31Z</time></trkpt><trkpt lat="39.177696674654634" lon="9.389962733227408"><ele>30.666666666666668</ele><time>2026-04-18T15:26:32Z</time></trkpt><trkpt lat="39.17750487141747" lon="9.39006180367079"><ele>36.0</ele><time>2026-04-18T15:26:33Z</time></trkpt><trkpt lat="39.177310603454565" lon="9.3901620185103"><ele>38.0</ele><time>2026-04-18T15:26:34Z</time></trkpt><trkpt lat="39.17711537060001" lon="9.390263836554077"><ele>40.0</ele><time>2026-04-18T15:26:35Z</time></trkpt><trkpt lat="39.17692093490386" lon="9.390364672102468"><ele>42.0</ele><time>2026-04-18T15:26:36Z</time></trkpt><trkpt lat="39.17672403865636" lon="9.390465188172788"><ele>46.0</ele><time>2026-04-18T15:26:37Z</time></trkpt><trkpt lat="39.176528701020594" lon="9.39056727021259"><ele>50.0</ele><time>2026-04-18T15:26:38Z</time></trkpt><trkpt lat="39.176330701860344" lon="9.390671747700287"><ele>54.0</ele><time>2026-04-18T15:26:39Z</time></trkpt><trkpt lat="39.17613276777306" lon="9.390776125196497"><ele>54.0</ele><time>2026-04-18T15:26:40Z</time></trkpt><trkpt lat="39.17593605940123" lon="9.390879977296233"><ele>54.0</ele><time>2026-04-18T15:26:41Z</time></trkpt><trkpt lat="39.1757375375888" lon="9.390986623944539"><ele>54.0</ele><time>2026-04-18T15:26:42Z</time></trkpt><trkpt lat="39.17553898555051" lon="9.391092502691446"><ele>50.333333333333336</ele><time>2026-04-18T15:26:43Z</time></trkpt><trkpt lat="39.17534033091047" lon="9.391198466186438"><ele>46.66666666666667</ele><time>2026-04-18T15:26:44Z</time></trkpt><trkpt lat="39.17514250739935" lon="9.391303658395682"><ele>43.0</ele><time>2026-04-18T15:26:45Z</time></trkpt><trkpt lat="39.17494262916916" lon="9.391403900660116"><ele>37.0</ele><time>2026-04-18T15:26:46Z</time></trkpt><trkpt lat="39.17473680160705" lon="9.39150792833231"><ele>31.0</ele><time>2026-04-18T15:26:47Z</time></trkpt><trkpt lat="39.17453884327538" lon="9.391613842985404"><ele>25.0</ele><time>2026-04-18T15:26:48Z</time></trkpt><trkpt lat="39.17433538582565" lon="9.391723779653843"><ele>25.0</ele><time>2026-04-18T15:26:49Z</time></trkpt><trkpt lat="39.17413090955355" lon="9.391836938917104"><ele>25.0</ele><time>2026-04-18T15:26:50Z</time></trkpt><trkpt lat="39.17392604754696" lon="9.391951456548314"><ele>25.0</ele><time>2026-04-18T15:26:51Z</time></trkpt><trkpt lat="39.173721519509286" lon="9.392061742017598"><ele>25.333333333333336</ele><time>2026-04-18T15:26:52Z</time></trkpt><trkpt lat="39.173517254792245" lon="9.39217190732828"><ele>25.666666666666664</ele><time>2026-04-18T15:26:53Z</time></trkpt><trkpt lat="39.17331386457433" lon="9.392286952201564"><ele>26.0</ele><time>2026-04-18T15:26:54Z</time></trkpt><trkpt lat="39.17311211108634" lon="9.39241419020218"><ele>31.666666666666664</ele><time>2026-04-18T15:26:55Z</time></trkpt><trkpt lat="39.17291504200859" lon="9.392544512271302"><ele>37.333333333333336</ele><time>2026-04-18T15:26:56Z</time></trkpt><trkpt lat="39.17272106207522" lon="9.392685188372363"><ele>43.0</ele><time>2026-04-18T15:26:57Z</time></trkpt><trkpt lat="39.17252636096077" lon="9.392839719058363"><ele>57.5</ele><time>2026-04-18T15:26:58Z</time></trkpt><trkpt lat="39.17233951671715" lon="9.392997288361306"><ele>72.0</ele><time>2026-04-18T15:26:59Z</time></trkpt><trkpt lat="39.17215122733223" lon="9.393164118331523"><ele>75.5</ele><time>2026-04-18T15:27:00Z</time></trkpt><trkpt lat="39.17197113864529" lon="9.393336261458318"><ele>79.0</ele><time>2026-04-18T15:27:01Z</time></trkpt><trkpt lat="39.171792131868266" lon="9.393519994544153"><ele>79.0</ele><time>2026-04-18T15:27:02Z</time></trkpt><trkpt lat="39.17161920448214" lon="9.39371126601574"><ele>79.0</ele><time>2026-04-18T15:27:03Z</time></trkpt><trkpt lat="39.17145072140662" lon="9.39390669324893"><ele>88.0</ele><time>2026-04-18T15:27:04Z</time></trkpt><trkpt lat="39.171288238753945" lon="9.394107629265372"><ele>97.0</ele><time>2026-04-18T15:27:05Z</time></trkpt><trkpt lat="39.171135178750355" lon="9.394320191726779"><ele>97.0</ele><time>2026-04-18T15:27:06Z</time></trkpt><trkpt lat="39.1709852563114" lon="9.394541288221136"><ele>97.0</ele><time>2026-04-18T15:27:07Z</time></trkpt><trkpt lat="39.17084496183914" lon="9.394765213990715"><ele>94.33333333333334</ele><time>2026-04-18T15:27:08Z</time></trkpt><trkpt lat="39.170706841867634" lon="9.39498906173508"><ele>91.66666666666667</ele><time>2026-04-18T15:27:09Z</time></trkpt><trkpt lat="39.17057640731189" lon="9.395221538668054"><ele>89.0</ele><time>2026-04-18T15:27:10Z</time></trkpt><trkpt lat="39.170454728704755" lon="9.395458635603429"><ele>88.0</ele><time>2026-04-18T15:27:11Z</time></trkpt><trkpt lat="39.17033973623914" lon="9.39570508219737"><ele>87.0</ele><time>2026-04-18T15:27:12Z</time></trkpt><trkpt lat="39.17023127161515" lon="9.395949495894842"><ele>86.0</ele><time>2026-04-18T15:27:13Z</time></trkpt><trkpt lat="39.17012126471454" lon="9.396200071520486"><ele>83.66666666666667</ele><time>2026-04-18T15:27:14Z</time></trkpt><trkpt lat="39.17001766631305" lon="9.396452311226168"><ele>81.33333333333333</ele><time>2026-04-18T15:27:15Z</time></trkpt><trkpt lat="39.169923765975106" lon="9.396713592182891"><ele>79.0</ele><time>2026-04-18T15:27:16Z</time></trkpt><trkpt lat="39.16983681314644" lon="9.39697986010023"><ele>67.66666666666666</ele><time>2026-04-18T15:27:17Z</time></trkpt><trkpt lat="39.169756265984844" lon="9.397250118344541"><ele>56.33333333333333</ele><time>2026-04-18T15:27:18Z</time></trkpt><trkpt lat="39.169682788575315" lon="9.397521206203297"><ele>45.0</ele><time>2026-04-18T15:27:19Z</time></trkpt><trkpt lat="39.16961744404963" lon="9.397796720812709"><ele>46.5</ele><time>2026-04-18T15:27:20Z</time></trkpt><trkpt lat="39.16955954927349" lon="9.398075818230733"><ele>48.0</ele><time>2026-04-18T15:27:21Z</time></trkpt><trkpt lat="39.169507074270435" lon="9.398361914199903"><ele>48.0</ele><time>2026-04-18T15:27:22Z</time></trkpt><trkpt lat="39.16946350183869" lon="9.398643264761192"><ele>48.0</ele><time>2026-04-18T15:27:23Z</time></trkpt><trkpt lat="39.16942625453962" lon="9.398928053871156"><ele>48.0</ele><time>2026-04-18T15:27:24Z</time></trkpt><trkpt lat="39.16939780081175" lon="9.399217665284889"><ele>52.33333333333333</ele><time>2026-04-18T15:27:25Z</time></trkpt><trkpt lat="39.169375996416164" lon="9.39950653801528"><ele>56.666666666666664</ele><time>2026-04-18T15:27:26Z</time></trkpt><trkpt lat="39.16935981750332" lon="9.399793759467954"><ele>61.0</ele><time>2026-04-18T15:27:27Z</time></trkpt><trkpt lat="39.16935232668303" lon="9.400086578294244"><ele>73.0</ele><time>2026-04-18T15:27:28Z</time></trkpt><trkpt lat="39.169350918981" lon="9.400376772126165"><ele>85.0</ele><time>2026-04-18T15:27:29Z</time></trkpt><trkpt lat="39.16935736826992" lon="9.40066884993772"><ele>96.0</ele><time>2026-04-18T15:27:30Z</time></trkpt><trkpt lat="39.16934836700784" lon="9.4009633670478"><ele>107.0</ele><time>2026-04-18T15:27:31Z</time></trkpt><trkpt lat="39.16935516655924" lon="9.401250900637741"><ele>114.0</ele><time>2026-04-18T15:27:32Z</time></trkpt><trkpt lat="39.169377539387526" lon="9.401541288678521"><ele>121.0</ele><time>2026-04-18T15:27:33Z</time></trkpt><trkpt lat="39.16937653665779" lon="9.40182894169812"><ele>128.0</ele><time>2026-04-18T15:27:34Z</time></trkpt><trkpt lat="39.16937993742538" lon="9.402116292618393"><ele>131.5</ele><time>2026-04-18T15:27:35Z</time></trkpt><trkpt lat="39.16938685956425" lon="9.402406235945763"><ele>135.0</ele><time>2026-04-18T15:27:36Z</time></trkpt><trkpt lat="39.16939140702865" lon="9.402702809661983"><ele>135.0</ele><time>2026-04-18T15:27:37Z</time></trkpt><trkpt lat="39.16937235151514" lon="9.402995883153473"><ele>135.0</ele><time>2026-04-18T15:27:38Z</time></trkpt><trkpt lat="39.169360635144045" lon="9.403293668530512"><ele>133.66666666666666</ele><time>2026-04-18T15:27:39Z</time></trkpt><trkpt lat="39.16935525714386" lon="9.40356719774985"><ele>132.33333333333331</ele><time>2026-04-18T15:27:40Z</time></trkpt><trkpt lat="39.16932662690058" lon="9.403845638541728"><ele>131.0</ele><time>2026-04-18T15:27:41Z</time></trkpt><trkpt lat="39.169295923752166" lon="9.404131869920707"><ele>128.66666666666666</ele><time>2026-04-18T15:27:42Z</time></trkpt><trkpt lat="39.169262700812475" lon="9.40441652907903"><ele>126.33333333333334</ele><time>2026-04-18T15:27:43Z</time></trkpt><trkpt lat="39.16922286296639" lon="9.404693252888851"><ele>124.0</ele><time>2026-04-18T15:27:44Z</time></trkpt><trkpt lat="39.169182183146724" lon="9.404978656704612"><ele>122.33333333333334</ele><time>2026-04-18T15:27:45Z</time></trkpt><trkpt lat="39.169139755295745" lon="9.405262245180895"><ele>120.66666666666666</ele><time>2026-04-18T15:27:46Z</time></trkpt><trkpt lat="39.16909173900526" lon="9.405546536592324"><ele>119.0</ele><time>2026-04-18T15:27:47Z</time></trkpt><trkpt lat="39.16904047958288" lon="9.405827921490442"><ele>135.5</ele><time>2026-04-18T15:27:48Z</time></trkpt><trkpt lat="39.16898734748242" lon="9.406126982766182"><ele>152.0</ele><time>2026-04-18T15:27:49Z</time></trkpt><trkpt lat="39.16894364008374" lon="9.4064006046023"><ele>154.5</ele><time>2026-04-18T15:27:50Z</time></trkpt><trkpt lat="39.16889784183179" lon="9.406694994782296"><ele>157.0</ele><time>2026-04-18T15:27:51Z</time></trkpt><trkpt lat="39.16885284325471" lon="9.406985027695505"><ele>156.0</ele><time>2026-04-18T15:27:52Z</time></trkpt><trkpt lat="39.16881645452225" lon="9.4072806241577"><ele>155.0</ele><time>2026-04-18T15:27:53Z</time></trkpt><trkpt lat="39.1687784008436" lon="9.407579710017776"><ele>155.0</ele><time>2026-04-18T15:27:54Z</time></trkpt><trkpt lat="39.16876066993695" lon="9.40788073888276"><ele>155.0</ele><time>2026-04-18T15:27:55Z</time></trkpt><trkpt lat="39.16874629908905" lon="9.408185745160427"><ele>155.0</ele><time>2026-04-18T15:27:56Z</time></trkpt><trkpt lat="39.16873563007675" lon="9.408485461480957"><ele>155.0</ele><time>2026-04-18T15:27:57Z</time></trkpt><trkpt lat="39.168735834582385" lon="9.40878894128833"><ele>157.5</ele><time>2026-04-18T15:27:58Z</time></trkpt><trkpt lat="39.16874178412085" lon="9.409094036582918"><ele>160.0</ele><time>2026-04-18T15:27:59Z</time></trkpt><trkpt lat="39.16875853039819" lon="9.409401876268584"><ele>165.5</ele><time>2026-04-18T15:28:00Z</time></trkpt><trkpt lat="39.16877742777569" lon="9.40970645205659"><ele>171.0</ele><time>2026-04-18T15:28:01Z</time></trkpt><trkpt lat="39.1688007725888" lon="9.410014321291975"><ele>171.0</ele><time>2026-04-18T15:28:02Z</time></trkpt><trkpt lat="39.168826993359005" lon="9.41032991752121"><ele>171.0</ele><time>2026-04-18T15:28:03Z</time></trkpt><trkpt lat="39.16884615735307" lon="9.41063422813147"><ele>179.0</ele><time>2026-04-18T15:28:04Z</time></trkpt><trkpt lat="39.16886172647841" lon="9.410941640724447"><ele>187.0</ele><time>2026-04-18T15:28:05Z</time></trkpt><trkpt lat="39.16887939683298" lon="9.41124961935674"><ele>201.5</ele><time>2026-04-18T15:28:06Z</time></trkpt><trkpt lat="39.16890100027434" lon="9.41155706216451"><ele>216.0</ele><time>2026-04-18T15:28:07Z</time></trkpt><trkpt lat="39.168922993601335" lon="9.411872489608418"><ele>135.0</ele><time>2026-04-18T15:28:08.026Z</time></trkpt><trkpt lat="39.16937235151514" lon="9.402995883153473"><ele>133.66666666666666</ele><time>2026-04-18T15:27:38Z</time></trkpt><trkpt lat="39.169360635144045" lon="9.403293668530512"><ele>132.33333333333331</ele><time>2026-04-18T15:27:39Z</time></trkpt><trkpt lat="39.16935525714386" lon="9.40356719774985"><ele>131.0</ele><time>2026-04-18T15:27:40Z</time></trkpt><trkpt lat="39.16932662690058" lon="9.403845638541728"><ele>128.66666666666666</ele><time>2026-04-18T15:27:41Z</time></trkpt><trkpt lat="39.169295923752166" lon="9.404131869920707"><ele>126.33333333333334</ele><time>2026-04-18T15:27:42Z</time></trkpt><trkpt lat="39.169262700812475" lon="9.40441652907903"><ele>124.0</ele><time>2026-04-18T15:27:43Z</time></trkpt><trkpt lat="39.16922286296639" lon="9.404693252888851"><ele>122.33333333333334</ele><time>2026-04-18T15:27:44Z</time></trkpt><trkpt lat="39.169182183146724" lon="9.404978656704612"><ele>120.66666666666666</ele><time>2026-04-18T15:27:45Z</time></trkpt><trkpt lat="39.169139755295745" lon="9.405262245180895"><ele>119.0</ele><time>2026-04-18T15:27:46Z</time></trkpt><trkpt lat="39.16909173900526" lon="9.405546536592324"><ele>119.0</ele><time>2026-04-18T15:27:47Z</time></trkpt><trkpt lat="39.16904047958288" lon="9.405827921490442"><ele>119.0</ele><time>2026-04-18T15:27:48Z</time></trkpt><trkpt lat="39.16898734748242" lon="9.406126982766182"><ele>131.66666666666666</ele><time>2026-04-18T15:27:49Z</time></trkpt><trkpt lat="39.16894364008374" lon="9.4064006046023"><ele>144.33333333333334</ele><time>2026-04-18T15:27:50Z</time></trkpt><trkpt lat="39.16889784183179" lon="9.406694994782296"><ele>157.0</ele><time>2026-04-18T15:27:51Z</time></trkpt><trkpt lat="39.16885284325471" lon="9.406985027695505"><ele>156.0</ele><time>2026-04-18T15:27:52Z</time></trkpt><trkpt lat="39.16881645452225" lon="9.4072806241577"><ele>155.0</ele><time>2026-04-18T15:27:53Z</time></trkpt><trkpt lat="39.1687784008436" lon="9.407579710017776"><ele>155.0</ele><time>2026-04-18T15:27:54Z</time></trkpt><trkpt lat="39.16876066993695" lon="9.40788073888276"><ele>155.0</ele><time>2026-04-18T15:27:55Z</time></trkpt><trkpt lat="39.16874629908905" lon="9.408185745160427"><ele>155.0</ele><time>2026-04-18T15:27:56Z</time></trkpt><trkpt lat="39.16873563007675" lon="9.408485461480957"><ele>155.0</ele><time>2026-04-18T15:27:57Z</time></trkpt><trkpt lat="39.168735834582385" lon="9.40878894128833"><ele>157.5</ele><time>2026-04-18T15:27:58Z</time></trkpt><trkpt lat="39.16874178412085" lon="9.409094036582918"><ele>160.0</ele><time>2026-04-18T15:27:59Z</time></trkpt><trkpt lat="39.16875853039819" lon="9.409401876268584"><ele>165.5</ele><time>2026-04-18T15:28:00Z</time></trkpt><trkpt lat="39.16877742777569" lon="9.40970645205659"><ele>171.0</ele><time>2026-04-18T15:28:01Z</time></trkpt><trkpt lat="39.1688007725888" lon="9.410014321291975"><ele>171.0</ele><time>2026-04-18T15:28:02Z</time></trkpt><trkpt lat="39.168826993359005" lon="9.41032991752121"><ele>171.0</ele><time>2026-04-18T15:28:03Z</time></trkpt><trkpt lat="39.16884615735307" lon="9.41063422813147"><ele>179.0</ele><time>2026-04-18T15:28:04Z</time></trkpt><trkpt lat="39.16886172647841" lon="9.410941640724447"><ele>187.0</ele><time>2026-04-18T15:28:05Z</time></trkpt><trkpt lat="39.16887939683298" lon="9.41124961935674"><ele>201.5</ele><time>2026-04-18T15:28:06Z</time></trkpt><trkpt lat="39.16890100027434" lon="9.41155706216451"><ele>216.0</ele><time>2026-04-18T15:28:07Z</time></trkpt><trkpt lat="39.168922993601335" lon="9.411872489608418"><ele>228.0</ele><time>2026-04-18T15:28:08.026Z</time></trkpt><trkpt lat="39.168940695437335" lon="9.412177276519952"><ele>240.0</ele><time>2026-04-18T15:28:09.026Z</time></trkpt><trkpt lat="39.168957959596526" lon="9.412480836942851"><ele>240.0</ele><time>2026-04-18T15:28:10.026Z</time></trkpt><trkpt lat="39.16897355882762" lon="9.412771961382173"><ele>240.0</ele><time>2026-04-18T15:28:10.976Z</time></trkpt><trkpt lat="39.16898788051723" lon="9.413048257885706"><ele>240.0</ele><time>2026-04-18T15:28:11.876Z</time></trkpt><trkpt lat="39.17360766156327" lon="9.439583062654576"><ele>212.0</ele><time>2026-04-18T15:29:36.45Z</time></trkpt><trkpt lat="39.17369406655657" lon="9.43980710858925"><ele>184.0</ele><time>2026-04-18T15:29:37.4Z</time></trkpt><trkpt lat="39.173772303238586" lon="9.440048353783146"><ele>156.0</ele><time>2026-04-18T15:29:38.35Z</time></trkpt><trkpt lat="39.17384713594379" lon="9.440300773523056"><ele>157.33333333333334</ele><time>2026-04-18T15:29:39.3Z</time></trkpt><trkpt lat="39.173918771298915" lon="9.440553546819368"><ele>158.66666666666669</ele><time>2026-04-18T15:29:40.25Z</time></trkpt><trkpt lat="39.17399021134285" lon="9.440806495002784"><ele>160.0</ele><time>2026-04-18T15:29:41.2Z</time></trkpt><trkpt lat="39.17406014832406" lon="9.441057644692254"><ele>157.0</ele><time>2026-04-18T15:29:42.15Z</time></trkpt><trkpt lat="39.174130069979576" lon="9.441312842429014"><ele>154.0</ele><time>2026-04-18T15:29:43.1Z</time></trkpt><trkpt lat="39.17420375160361" lon="9.441566381310082"><ele>151.0</ele><time>2026-04-18T15:29:44.05Z</time></trkpt><trkpt lat="39.174278150127535" lon="9.441821415827782"><ele>151.0</ele><time>2026-04-18T15:29:45Z</time></trkpt><trkpt lat="39.17435239751241" lon="9.442090890834258"><ele>151.0</ele><time>2026-04-18T15:29:46Z</time></trkpt><trkpt lat="39.17442927769263" lon="9.442343976297519"><ele>151.0</ele><time>2026-04-18T15:29:47Z</time></trkpt><trkpt lat="39.17449997057199" lon="9.442615695287767"><ele>149.66666666666669</ele><time>2026-04-18T15:29:48Z</time></trkpt><trkpt lat="39.17457093030875" lon="9.442884360985241"><ele>148.33333333333334</ele><time>2026-04-18T15:29:49Z</time></trkpt><trkpt lat="39.174644324571176" lon="9.443152026943213"><ele>147.0</ele><time>2026-04-18T15:29:50Z</time></trkpt><trkpt lat="39.174715765972536" lon="9.44342102290861"><ele>145.33333333333334</ele><time>2026-04-18T15:29:51Z</time></trkpt><trkpt lat="39.17478935760001" lon="9.44369142049584"><ele>143.66666666666669</ele><time>2026-04-18T15:29:52Z</time></trkpt><trkpt lat="39.17486471433559" lon="9.443959407627174"><ele>142.0</ele><time>2026-04-18T15:29:53Z</time></trkpt><trkpt lat="39.174941682203176" lon="9.444224910570767"><ele>140.33333333333334</ele><time>2026-04-18T15:29:54Z</time></trkpt><trkpt lat="39.17502238611062" lon="9.444486174035609"><ele>138.66666666666666</ele><time>2026-04-18T15:29:55Z</time></trkpt><trkpt lat="39.17510657044415" lon="9.444742125349189"><ele>137.0</ele><time>2026-04-18T15:29:56Z</time></trkpt><trkpt lat="39.175192696580865" lon="9.444991798074687"><ele>134.66666666666666</ele><time>2026-04-18T15:29:57Z</time></trkpt><trkpt lat="39.175280804649034" lon="9.445233034888584"><ele>132.33333333333334</ele><time>2026-04-18T15:29:58Z</time></trkpt><trkpt lat="39.17537278008279" lon="9.445472826916019"><ele>130.0</ele><time>2026-04-18T15:29:59Z</time></trkpt><trkpt lat="39.17547126796567" lon="9.445709460316442"><ele>128.0</ele><time>2026-04-18T15:30:00Z</time></trkpt><trkpt lat="39.17557310023636" lon="9.445939373766928"><ele>126.0</ele><time>2026-04-18T15:30:01Z</time></trkpt><trkpt lat="39.17567696898279" lon="9.446156823225644"><ele>124.0</ele><time>2026-04-18T15:30:02Z</time></trkpt><trkpt lat="39.17578467973829" lon="9.446371954811518"><ele>124.0</ele><time>2026-04-18T15:30:03Z</time></trkpt><trkpt lat="39.17589581868417" lon="9.4465792587313"><ele>124.0</ele><time>2026-04-18T15:30:04Z</time></trkpt><trkpt lat="39.17600881768879" lon="9.446780435981662"><ele>124.0</ele><time>2026-04-18T15:30:05Z</time></trkpt><trkpt lat="39.176124405542275" lon="9.44697449466701"><ele>123.0</ele><time>2026-04-18T15:30:06Z</time></trkpt><trkpt lat="39.17623744667508" lon="9.44715660262667"><ele>122.0</ele><time>2026-04-18T15:30:07Z</time></trkpt><trkpt lat="39.176346362570875" lon="9.447325321706092"><ele>121.0</ele><time>2026-04-18T15:30:08Z</time></trkpt><trkpt lat="39.17645790202724" lon="9.447482868236879"><ele>123.0</ele><time>2026-04-18T15:30:09Z</time></trkpt><trkpt lat="39.1765678583441" lon="9.447628523615457"><ele>125.0</ele><time>2026-04-18T15:30:10Z</time></trkpt><trkpt lat="39.17667285464329" lon="9.447768536943922"><ele>127.0</ele><time>2026-04-18T15:30:11Z</time></trkpt><trkpt lat="39.17677080458196" lon="9.447898496019553"><ele>129.0</ele><time>2026-04-18T15:30:12Z</time></trkpt><trkpt lat="39.176867699087445" lon="9.448020620288581"><ele>129.4</ele><time>2026-04-18T15:30:13Z</time></trkpt><trkpt lat="39.17695592535834" lon="9.448132762301222"><ele>129.8</ele><time>2026-04-18T15:30:14Z</time></trkpt><trkpt lat="39.17702262260255" lon="9.448241038061003"><ele>130.2</ele><time>2026-04-18T15:30:15Z</time></trkpt><trkpt lat="39.177070130718235" lon="9.448355531545431"><ele>130.6</ele><time>2026-04-18T15:30:16Z</time></trkpt><trkpt lat="39.177081582299806" lon="9.448469230625935"><ele>131.0</ele><time>2026-04-18T15:30:17Z</time></trkpt><trkpt lat="39.17707652092979" lon="9.448567019440594"><ele>131.0</ele><time>2026-04-18T15:30:18Z</time></trkpt><trkpt lat="39.17714104546367" lon="9.448657123775632"><ele>131.0</ele><time>2026-04-18T15:30:20Z</time></trkpt><trkpt lat="39.17703512586612" lon="9.44871673958265"><ele>131.0</ele><time>2026-04-18T15:30:21Z</time></trkpt><trkpt lat="39.17700555100454" lon="9.448794258714527"><ele>131.0</ele><time>2026-04-18T15:30:25Z</time></trkpt><trkpt lat="39.1771629996235" lon="9.448822008443447"><ele>131.0</ele><time>2026-04-18T15:30:26Z</time></trkpt><trkpt lat="39.17712835456304" lon="9.448918945363424"><ele>131.0</ele><time>2026-04-18T15:30:27Z</time></trkpt><trkpt lat="39.177166491237344" lon="9.448995222417704"><ele>131.0</ele><time>2026-04-18T15:52:28Z</time></trkpt><trkpt lat="39.17722853537086" lon="9.449010540273113"><ele>131.0</ele><time>2026-04-18T15:52:32Z</time></trkpt><trkpt lat="39.17729974291897" lon="9.449005134021512"><ele>131.0</ele><time>2026-04-18T15:52:40Z</time></trkpt><trkpt lat="39.1774033726061" lon="9.448934471159111"><ele>131.0</ele><time>2026-04-18T15:52:42Z</time></trkpt><trkpt lat="39.177476800873585" lon="9.448893656733802"><ele>131.0</ele><time>2026-04-18T15:52:43Z</time></trkpt><trkpt lat="39.17755050678122" lon="9.448863567634294"><ele>132.4</ele><time>2026-04-18T15:52:44Z</time></trkpt><trkpt lat="39.177635776379255" lon="9.448889068812688"><ele>133.8</ele><time>2026-04-18T15:52:45Z</time></trkpt><trkpt lat="39.177728764309975" lon="9.448904147546632"><ele>135.20000000000002</ele><time>2026-04-18T15:52:46Z</time></trkpt><trkpt lat="39.17782636828693" lon="9.448986205747813"><ele>136.6</ele><time>2026-04-18T15:52:47Z</time></trkpt><trkpt lat="39.17792426752127" lon="9.449079614902958"><ele>138.0</ele><time>2026-04-18T15:52:48Z</time></trkpt><trkpt lat="39.17802413555537" lon="9.449177763238723"><ele>138.0</ele><time>2026-04-18T15:52:49Z</time></trkpt><trkpt lat="39.17813052826862" lon="9.449279889470851"><ele>138.0</ele><time>2026-04-18T15:52:50Z</time></trkpt><trkpt lat="39.178241566589094" lon="9.44938559314187"><ele>138.0</ele><time>2026-04-18T15:52:51Z</time></trkpt><trkpt lat="39.17835953919995" lon="9.449496533631716"><ele>138.0</ele><time>2026-04-18T15:52:52Z</time></trkpt><trkpt lat="39.178479538006634" lon="9.449610773123515"><ele>137.0</ele><time>2026-04-18T15:52:53Z</time></trkpt><trkpt lat="39.17860437332639" lon="9.449728742588775"><ele>136.0</ele><time>2026-04-18T15:52:54Z</time></trkpt><trkpt lat="39.17873520800407" lon="9.449852736790769"><ele>135.0</ele><time>2026-04-18T15:52:55Z</time></trkpt><trkpt lat="39.17887341362159" lon="9.449984293425524"><ele>135.0</ele><time>2026-04-18T15:52:56Z</time></trkpt><trkpt lat="39.17901470360702" lon="9.450121311450713"><ele>135.0</ele><time>2026-04-18T15:52:57Z</time></trkpt><trkpt lat="39.17916202868859" lon="9.45026520973185"><ele>135.0</ele><time>2026-04-18T15:52:58Z</time></trkpt><trkpt lat="39.17930871210453" lon="9.45040912201111"><ele>135.66666666666666</ele><time>2026-04-18T15:52:59Z</time></trkpt><trkpt lat="39.17945091778546" lon="9.450551485977249"><ele>136.33333333333331</ele><time>2026-04-18T15:53:00Z</time></trkpt><trkpt lat="39.17959195518112" lon="9.450699278516106"><ele>137.0</ele><time>2026-04-18T15:53:01Z</time></trkpt><trkpt lat="39.17973438111709" lon="9.450850679121624"><ele>138.66666666666666</ele><time>2026-04-18T15:53:02Z</time></trkpt><trkpt lat="39.179881008517604" lon="9.451006363337488"><ele>140.33333333333334</ele><time>2026-04-18T15:53:03Z</time></trkpt><trkpt lat="39.180031383299806" lon="9.451160712596344"><ele>142.0</ele><time>2026-04-18T15:53:04Z</time></trkpt><trkpt lat="39.18018324670197" lon="9.451315731948934"><ele>142.0</ele><time>2026-04-18T15:53:05Z</time></trkpt><trkpt lat="39.18033759339531" lon="9.451472621329742"><ele>142.0</ele><time>2026-04-18T15:53:06Z</time></trkpt><trkpt lat="39.180491030913025" lon="9.451630535960858"><ele>142.0</ele><time>2026-04-18T15:53:07Z</time></trkpt><trkpt lat="39.18064784132665" lon="9.451793279341874"><ele>142.33333333333334</ele><time>2026-04-18T15:53:08Z</time></trkpt><trkpt lat="39.180805501068626" lon="9.451954108882054"><ele>142.66666666666666</ele><time>2026-04-18T15:53:09Z</time></trkpt><trkpt lat="39.180968171267395" lon="9.452114647995499"><ele>143.0</ele><time>2026-04-18T15:53:10Z</time></trkpt><trkpt lat="39.181132753037815" lon="9.45227221242384"><ele>143.33333333333331</ele><time>2026-04-18T15:53:11Z</time></trkpt><trkpt lat="39.18130123972204" lon="9.45242999927171"><ele>143.66666666666666</ele><time>2026-04-18T15:53:12Z</time></trkpt><trkpt lat="39.18147176414051" lon="9.45258955472343"><ele>144.0</ele><time>2026-04-18T15:53:13Z</time></trkpt><trkpt lat="39.181643351153916" lon="9.45274896338624"><ele>144.0</ele><time>2026-04-18T15:53:14Z</time></trkpt><trkpt lat="39.181820034238264" lon="9.452905494721382"><ele>144.0</ele><time>2026-04-18T15:53:15Z</time></trkpt><trkpt lat="39.18200265853794" lon="9.453058108356482"><ele>144.0</ele><time>2026-04-18T15:53:16Z</time></trkpt><trkpt lat="39.18218777050076" lon="9.453200396980796"><ele>143.0</ele><time>2026-04-18T15:53:17Z</time></trkpt><trkpt lat="39.182374377846905" lon="9.45334373953446"><ele>142.0</ele><time>2026-04-18T15:53:18Z</time></trkpt><trkpt lat="39.18256097872213" lon="9.453485330673908"><ele>141.0</ele><time>2026-04-18T15:53:19Z</time></trkpt><trkpt lat="39.182752772454975" lon="9.453627975527906"><ele>141.0</ele><time>2026-04-18T15:53:20Z</time></trkpt><trkpt lat="39.18294433219198" lon="9.453764485440114"><ele>141.0</ele><time>2026-04-18T15:53:21Z</time></trkpt><trkpt lat="39.18314050175239" lon="9.453898624492455"><ele>141.0</ele><time>2026-04-18T15:53:22Z</time></trkpt><trkpt lat="39.183338177622446" lon="9.454027620478385"><ele>141.33333333333334</ele><time>2026-04-18T15:53:23Z</time></trkpt><trkpt lat="39.183540573750044" lon="9.45415489926969"><ele>141.66666666666669</ele><time>2026-04-18T15:53:24Z</time></trkpt><trkpt lat="39.18374301411943" lon="9.454274049795169"><ele>142.0</ele><time>2026-04-18T15:53:25Z</time></trkpt><trkpt lat="39.18394947378816" lon="9.454391852067182"><ele>145.0</ele><time>2026-04-18T15:53:26Z</time></trkpt><trkpt lat="39.184157874793534" lon="9.454506661219076"><ele>148.0</ele><time>2026-04-18T15:53:27Z</time></trkpt><trkpt lat="39.18436652225263" lon="9.454617275710582"><ele>145.0</ele><time>2026-04-18T15:53:28Z</time></trkpt><trkpt lat="39.18457586819519" lon="9.45472632277465"><ele>142.0</ele><time>2026-04-18T15:53:29Z</time></trkpt><trkpt lat="39.18478600990341" lon="9.454832304896943"><ele>146.0</ele><time>2026-04-18T15:53:30Z</time></trkpt><trkpt lat="39.18499651383303" lon="9.45493685471432"><ele>150.0</ele><time>2026-04-18T15:53:31Z</time></trkpt><trkpt lat="39.185208026241966" lon="9.455039482771657"><ele>150.0</ele><time>2026-04-18T15:53:32Z</time></trkpt><trkpt lat="39.18542109075291" lon="9.455141477805165"><ele>150.0</ele><time>2026-04-18T15:53:33Z</time></trkpt><trkpt lat="39.185634482095196" lon="9.455242573019994"><ele>153.5</ele><time>2026-04-18T15:53:34Z</time></trkpt><trkpt lat="39.185847850219005" lon="9.455345487312309"><ele>157.0</ele><time>2026-04-18T15:53:35Z</time></trkpt><trkpt lat="39.18606100375449" lon="9.455448443558458"><ele>151.5</ele><time>2026-04-18T15:53:36Z</time></trkpt><trkpt lat="39.1862745263835" lon="9.455549472254377"><ele>146.0</ele><time>2026-04-18T15:53:37Z</time></trkpt><trkpt lat="39.18648928622905" lon="9.455651972166061"><ele>147.5</ele><time>2026-04-18T15:53:38Z</time></trkpt><trkpt lat="39.18670297282447" lon="9.455751259163659"><ele>149.0</ele><time>2026-04-18T15:53:39Z</time></trkpt><trkpt lat="39.18691591501246" lon="9.455852057136429"><ele>149.0</ele><time>2026-04-18T15:53:40Z</time></trkpt><trkpt lat="39.1871274122821" lon="9.455952400334299"><ele>149.0</ele><time>2026-04-18T15:53:41Z</time></trkpt><trkpt lat="39.187338100011964" lon="9.45605385468512"><ele>150.33333333333331</ele><time>2026-04-18T15:53:42Z</time></trkpt><trkpt lat="39.18754984851603" lon="9.456153514287498"><ele>151.66666666666666</ele><time>2026-04-18T15:53:43Z</time></trkpt><trkpt lat="39.18775866414303" lon="9.456250434505016"><ele>153.0</ele><time>2026-04-18T15:53:44Z</time></trkpt><trkpt lat="39.18796984223193" lon="9.456342728490226"><ele>151.66666666666666</ele><time>2026-04-18T15:53:45Z</time></trkpt><trkpt lat="39.18818217005564" lon="9.456430591975204"><ele>150.33333333333331</ele><time>2026-04-18T15:53:46Z</time></trkpt><trkpt lat="39.18839570517726" lon="9.45651084966657"><ele>149.0</ele><time>2026-04-18T15:53:47Z</time></trkpt><trkpt lat="39.18861104797907" lon="9.456582194634606"><ele>149.0</ele><time>2026-04-18T15:53:48Z</time></trkpt><trkpt lat="39.188829961266975" lon="9.456649391760003"><ele>149.0</ele><time>2026-04-18T15:53:49Z</time></trkpt><trkpt lat="39.189048343014605" lon="9.456710369258856"><ele>149.0</ele><time>2026-04-18T15:53:50Z</time></trkpt><trkpt lat="39.18926906268806" lon="9.456769444467069"><ele>153.66666666666666</ele><time>2026-04-18T15:53:51Z</time></trkpt><trkpt lat="39.18948949231717" lon="9.456819046046665"><ele>158.33333333333334</ele><time>2026-04-18T15:53:52Z</time></trkpt><trkpt lat="39.189712098864455" lon="9.45686719297332"><ele>163.0</ele><time>2026-04-18T15:53:53Z</time></trkpt><trkpt lat="39.18993307188485" lon="9.456891609992638"><ele>168.33333333333334</ele><time>2026-04-18T15:53:54Z</time></trkpt><trkpt lat="39.19015179404479" lon="9.456945964776121"><ele>173.66666666666666</ele><time>2026-04-18T15:53:55Z</time></trkpt><trkpt lat="39.19037057888037" lon="9.456984172728768"><ele>179.0</ele><time>2026-04-18T15:53:56Z</time></trkpt><trkpt lat="39.19059568275503" lon="9.456951148504912"><ele>184.66666666666666</ele><time>2026-04-18T15:53:57Z</time></trkpt><trkpt lat="39.19081287334445" lon="9.456962217877217"><ele>190.33333333333331</ele><time>2026-04-18T15:53:58Z</time></trkpt><trkpt lat="39.19103805650408" lon="9.456974604354247"><ele>196.0</ele><time>2026-04-18T15:53:59Z</time></trkpt><trkpt lat="39.1912575598154" lon="9.456985859957287"><ele>196.0</ele><time>2026-04-18T15:54:00Z</time></trkpt><trkpt lat="39.19148227975893" lon="9.45699876035234"><ele>196.0</ele><time>2026-04-18T15:54:01Z</time></trkpt><trkpt lat="39.19170316077382" lon="9.457012657620968"><ele>196.0</ele><time>2026-04-18T15:54:02Z</time></trkpt><trkpt lat="39.1919229269319" lon="9.45702721279869"><ele>198.33333333333331</ele><time>2026-04-18T15:54:03Z</time></trkpt><trkpt lat="39.19213217548981" lon="9.457033260380017"><ele>200.66666666666669</ele><time>2026-04-18T15:54:04Z</time></trkpt><trkpt lat="39.192351051792556" lon="9.457040246164112"><ele>203.0</ele><time>2026-04-18T15:54:05Z</time></trkpt><trkpt lat="39.19256249748812" lon="9.457052267674516"><ele>204.0</ele><time>2026-04-18T15:54:06Z</time></trkpt><trkpt lat="39.192774826823566" lon="9.457072816273312"><ele>205.0</ele><time>2026-04-18T15:54:07Z</time></trkpt><trkpt lat="39.19298999100259" lon="9.457100767643267"><ele>206.0</ele><time>2026-04-18T15:54:08Z</time></trkpt><trkpt lat="39.19320721515208" lon="9.457132254074772"><ele>203.33333333333334</ele><time>2026-04-18T15:54:09Z</time></trkpt><trkpt lat="39.193424643148056" lon="9.457170922650636"><ele>200.66666666666669</ele><time>2026-04-18T15:54:10Z</time></trkpt><trkpt lat="39.19364057406123" lon="9.457212640789628"><ele>198.0</ele><time>2026-04-18T15:54:11Z</time></trkpt><trkpt lat="39.193856452003075" lon="9.457264603626264"><ele>200.33333333333331</ele><time>2026-04-18T15:54:12Z</time></trkpt><trkpt lat="39.19407519070423" lon="9.457319612821845"><ele>202.66666666666666</ele><time>2026-04-18T15:54:13Z</time></trkpt><trkpt lat="39.1942911765284" lon="9.457383508518653"><ele>205.0</ele><time>2026-04-18T15:54:14Z</time></trkpt><trkpt lat="39.19451111573053" lon="9.457455910106892"><ele>205.0</ele><time>2026-04-18T15:54:15Z</time></trkpt><trkpt lat="39.194728814381804" lon="9.457537154311476"><ele>205.0</ele><time>2026-04-18T15:54:16Z</time></trkpt><trkpt lat="39.19494923375285" lon="9.45762926711191"><ele>207.5</ele><time>2026-04-18T15:54:17Z</time></trkpt><trkpt lat="39.19517122641885" lon="9.457730198924917"><ele>210.0</ele><time>2026-04-18T15:54:18Z</time></trkpt><trkpt lat="39.19539149882345" lon="9.457836713664443"><ele>210.0</ele><time>2026-04-18T15:54:19Z</time></trkpt><trkpt lat="39.19561221378867" lon="9.457948159653979"><ele>210.0</ele><time>2026-04-18T15:54:20Z</time></trkpt><trkpt lat="39.19583316602368" lon="9.458074304972746"><ele>204.5</ele><time>2026-04-18T15:54:21Z</time></trkpt><trkpt lat="39.196052073968566" lon="9.458204842783141"><ele>199.0</ele><time>2026-04-18T15:54:22Z</time></trkpt><trkpt lat="39.19627226108362" lon="9.458348754652159"><ele>199.0</ele><time>2026-04-18T15:54:23Z</time></trkpt><trkpt lat="39.19649094651435" lon="9.458494334032485"><ele>199.0</ele><time>2026-04-18T15:54:24Z</time></trkpt><trkpt lat="39.196706776006266" lon="9.45865267698595"><ele>200.0</ele><time>2026-04-18T15:54:25Z</time></trkpt><trkpt lat="39.19692096578303" lon="9.458827662639154"><ele>201.0</ele><time>2026-04-18T15:54:26Z</time></trkpt><trkpt lat="39.19713347574956" lon="9.459007252855455"><ele>207.5</ele><time>2026-04-18T15:54:27Z</time></trkpt><trkpt lat="39.197347449524585" lon="9.459195063142117"><ele>214.0</ele><time>2026-04-18T15:54:28Z</time></trkpt><trkpt lat="39.19755802187844" lon="9.459392604872164"><ele>214.0</ele><time>2026-04-18T15:54:29Z</time></trkpt><trkpt lat="39.19776542573959" lon="9.45959900328637"><ele>214.0</ele><time>2026-04-18T15:54:30Z</time></trkpt><trkpt lat="39.197968335673515" lon="9.459814051060842"><ele>213.0</ele><time>2026-04-18T15:54:31Z</time></trkpt><trkpt lat="39.19816267061333" lon="9.460036182267766"><ele>212.0</ele><time>2026-04-18T15:54:32Z</time></trkpt><trkpt lat="39.19835376092401" lon="9.460269501333647"><ele>215.0</ele><time>2026-04-18T15:54:33Z</time></trkpt><trkpt lat="39.19854238582466" lon="9.46051059076937"><ele>218.0</ele><time>2026-04-18T15:54:34Z</time></trkpt><trkpt lat="39.19872567871838" lon="9.460754220261915"><ele>218.0</ele><time>2026-04-18T15:54:35Z</time></trkpt><trkpt lat="39.198909067119104" lon="9.461007296768843"><ele>218.0</ele><time>2026-04-18T15:54:36Z</time></trkpt><trkpt lat="39.199088973893886" lon="9.461264539620318"><ele>219.5</ele><time>2026-04-18T15:54:37Z</time></trkpt><trkpt lat="39.19926133759431" lon="9.461523075595931"><ele>221.0</ele><time>2026-04-18T15:54:38Z</time></trkpt><trkpt lat="39.199435208293224" lon="9.46178583492191"><ele>221.0</ele><time>2026-04-18T15:54:39Z</time></trkpt><trkpt lat="39.19960592730419" lon="9.462047846018288"><ele>221.0</ele><time>2026-04-18T15:54:40Z</time></trkpt><trkpt lat="39.199777658698956" lon="9.462310134746879"><ele>219.5</ele><time>2026-04-18T15:54:41Z</time></trkpt><trkpt lat="39.199947674591954" lon="9.462573738965396"><ele>218.0</ele><time>2026-04-18T15:54:42Z</time></trkpt><trkpt lat="39.20011549885682" lon="9.462836739487773"><ele>214.5</ele><time>2026-04-18T15:54:43Z</time></trkpt><trkpt lat="39.2002845748393" lon="9.463103870413242"><ele>211.0</ele><time>2026-04-18T15:54:44Z</time></trkpt><trkpt lat="39.200450757180874" lon="9.463365285480347"><ele>211.0</ele><time>2026-04-18T15:54:45Z</time></trkpt><trkpt lat="39.20062056937695" lon="9.463625134042799"><ele>211.0</ele><time>2026-04-18T15:54:46Z</time></trkpt><trkpt lat="39.20079669205575" lon="9.463884005314227"><ele>210.0</ele><time>2026-04-18T15:54:47Z</time></trkpt><trkpt lat="39.20097850173523" lon="9.46413749571924"><ele>209.0</ele><time>2026-04-18T15:54:48Z</time></trkpt><trkpt lat="39.20116728115791" lon="9.464383501104766"><ele>213.5</ele><time>2026-04-18T15:54:49Z</time></trkpt><trkpt lat="39.20135998463506" lon="9.464627626874218"><ele>218.0</ele><time>2026-04-18T15:54:50Z</time></trkpt><trkpt lat="39.20155723673422" lon="9.464866241679475"><ele>218.0</ele><time>2026-04-18T15:54:51Z</time></trkpt><trkpt lat="39.201752487201354" lon="9.465097904421274"><ele>218.0</ele><time>2026-04-18T15:54:52Z</time></trkpt><trkpt lat="39.2019527316225" lon="9.465333955428203"><ele>221.0</ele><time>2026-04-18T15:54:53Z</time></trkpt><trkpt lat="39.202149180002884" lon="9.465563154109095"><ele>224.0</ele><time>2026-04-18T15:54:54Z</time></trkpt><trkpt lat="39.20234275485302" lon="9.465790178658334"><ele>228.0</ele><time>2026-04-18T15:54:55Z</time></trkpt><trkpt lat="39.20253377861427" lon="9.466013213147644"><ele>232.0</ele><time>2026-04-18T15:54:56Z</time></trkpt><trkpt lat="39.20272240364153" lon="9.466231442318698"><ele>232.5</ele><time>2026-04-18T15:54:57Z</time></trkpt><trkpt lat="39.20291012710588" lon="9.466444308837394"><ele>233.0</ele><time>2026-04-18T15:54:58Z</time></trkpt><trkpt lat="39.20310175069136" lon="9.466662157270704"><ele>241.0</ele><time>2026-04-18T15:54:59Z</time></trkpt><trkpt lat="39.20328752862383" lon="9.466872743080128"><ele>249.0</ele><time>2026-04-18T15:55:00Z</time></trkpt><trkpt lat="39.20348058556834" lon="9.467088610192334"><ele>245.5</ele><time>2026-04-18T15:55:01Z</time></trkpt><trkpt lat="39.20367054556485" lon="9.467302713357128"><ele>242.0</ele><time>2026-04-18T15:55:02Z</time></trkpt><trkpt lat="39.20385748873861" lon="9.467518698690741"><ele>249.0</ele><time>2026-04-18T15:55:03Z</time></trkpt><trkpt lat="39.204041537729104" lon="9.467734500943067"><ele>256.0</ele><time>2026-04-18T15:55:04Z</time></trkpt><trkpt lat="39.204225339457196" lon="9.467949838697033"><ele>256.0</ele><time>2026-04-18T15:55:05Z</time></trkpt><trkpt lat="39.20440633439364" lon="9.468161407942604"><ele>256.0</ele><time>2026-04-18T15:55:06Z</time></trkpt><trkpt lat="39.20458553949982" lon="9.468370059777543"><ele>256.0</ele><time>2026-04-18T15:55:07Z</time></trkpt><trkpt lat="39.20476290904468" lon="9.468575784732115"><ele>256.0</ele><time>2026-04-18T15:55:08Z</time></trkpt><trkpt lat="39.20493952946496" lon="9.468778928781939"><ele>267.5</ele><time>2026-04-18T15:55:09Z</time></trkpt><trkpt lat="39.205114905027116" lon="9.468981317578937"><ele>279.0</ele><time>2026-04-18T15:55:10Z</time></trkpt><trkpt lat="39.205287235402416" lon="9.469184054394372"><ele>279.0</ele><time>2026-04-18T15:55:11Z</time></trkpt><trkpt lat="39.2054608284879" lon="9.469392067382593"><ele>279.0</ele><time>2026-04-18T15:55:12.026Z</time></trkpt><trkpt lat="39.20562758554226" lon="9.469597129971802"><ele>281.3333333333333</ele><time>2026-04-18T15:55:13.026Z</time></trkpt><trkpt lat="39.2057915179473" lon="9.46980191813655"><ele>283.66666666666663</ele><time>2026-04-18T15:55:14.026Z</time></trkpt><trkpt lat="39.2059478470369" lon="9.46999806259271"><ele>286.0</ele><time>2026-04-18T15:55:15.026Z</time></trkpt><trkpt lat="39.20608591898349" lon="9.470178038889378"><ele>286.0</ele><time>2026-04-18T15:55:15.976Z</time></trkpt><trkpt lat="39.206210143723474" lon="9.470346063191045"><ele>286.0</ele><time>2026-04-18T15:55:16.877Z</time></trkpt><trkpt lat="39.20633482277898" lon="9.4705148729623"><ele>286.0</ele><time>2026-04-18T15:55:17.777Z</time></trkpt><trkpt lat="39.20837428866729" lon="9.472702205494855"><ele>354.0</ele><time>2026-04-18T15:55:22.371Z</time></trkpt><trkpt lat="39.208843637689235" lon="9.473243287524662"><ele>370.0</ele><time>2026-04-18T15:55:23.371Z</time></trkpt><trkpt lat="39.20931501015726" lon="9.473782344186107"><ele>370.0</ele><time>2026-04-18T15:55:24.371Z</time></trkpt><trkpt lat="39.2097836962656" lon="9.474323651241837"><ele>378.0</ele><time>2026-04-18T15:55:25.371Z</time></trkpt><trkpt lat="39.21025419069614" lon="9.474863341996885"><ele>400.0</ele><time>2026-04-18T15:55:26.371Z</time></trkpt><trkpt lat="39.21072388402821" lon="9.47540428747971"><ele>392.0</ele><time>2026-04-18T15:55:27.371Z</time></trkpt><trkpt lat="39.2109882" lon="9.4757087"><ele>384.0</ele><time>2026-04-18T15:55:28.37Z</time></trkpt><trkpt lat="39.22197991187196" lon="9.48840306355323"><ele>332.0</ele><time>2026-04-18T15:57:02.8Z</time></trkpt><trkpt lat="39.222125610137006" lon="9.488558253162221"><ele>280.0</ele><time>2026-04-18T15:57:03.75Z</time></trkpt><trkpt lat="39.222272249140815" lon="9.488728266818116"><ele>228.0</ele><time>2026-04-18T15:57:04.7Z</time></trkpt><trkpt lat="39.22241744267286" lon="9.48890076069401"><ele>225.66666666666669</ele><time>2026-04-18T15:57:05.65Z</time></trkpt><trkpt lat="39.222563137152896" lon="9.489067344812447"><ele>223.33333333333334</ele><time>2026-04-18T15:57:06.6Z</time></trkpt><trkpt lat="39.22271159761419" lon="9.489242053280098"><ele>221.0</ele><time>2026-04-18T15:57:07.55Z</time></trkpt><trkpt lat="39.22286683962764" lon="9.489416691370923"><ele>221.0</ele><time>2026-04-18T15:57:08.5Z</time></trkpt><trkpt lat="39.22302318742376" lon="9.489594734066447"><ele>221.0</ele><time>2026-04-18T15:57:09.45Z</time></trkpt><trkpt lat="39.22317519828227" lon="9.489774755888508"><ele>221.0</ele><time>2026-04-18T15:57:10.4Z</time></trkpt><trkpt lat="39.223326525702745" lon="9.489960711980745"><ele>219.66666666666669</ele><time>2026-04-18T15:57:11.35Z</time></trkpt><trkpt lat="39.223485324139745" lon="9.490149781838868"><ele>218.33333333333331</ele><time>2026-04-18T15:57:12.3Z</time></trkpt><trkpt lat="39.22366303975083" lon="9.490326391440771"><ele>217.0</ele><time>2026-04-18T15:57:13.25Z</time></trkpt><trkpt lat="39.223826708702276" lon="9.490508948598066"><ele>218.0</ele><time>2026-04-18T15:57:14.2Z</time></trkpt><trkpt lat="39.223970650411985" lon="9.490713183270207"><ele>219.0</ele><time>2026-04-18T15:57:15.15Z</time></trkpt><trkpt lat="39.22411786632388" lon="9.490900199427182"><ele>220.0</ele><time>2026-04-18T15:57:16.1Z</time></trkpt><trkpt lat="39.22425924181295" lon="9.491084242666116"><ele>216.66666666666666</ele><time>2026-04-18T15:57:17.05Z</time></trkpt><trkpt lat="39.22439835708689" lon="9.491276784940485"><ele>213.33333333333331</ele><time>2026-04-18T15:57:18Z</time></trkpt><trkpt lat="39.22456215716505" lon="9.491485844434576"><ele>210.0</ele><time>2026-04-18T15:57:19Z</time></trkpt><trkpt lat="39.22470615842252" lon="9.491703107883296"><ele>211.0</ele><time>2026-04-18T15:57:20Z</time></trkpt><trkpt lat="39.22484577927893" lon="9.49192408168763"><ele>212.0</ele><time>2026-04-18T15:57:21Z</time></trkpt><trkpt lat="39.22497982113893" lon="9.492144826628616"><ele>213.0</ele><time>2026-04-18T15:57:22Z</time></trkpt><trkpt lat="39.22511324153546" lon="9.492374478588106"><ele>211.0</ele><time>2026-04-18T15:57:23Z</time></trkpt><trkpt lat="39.22524358461458" lon="9.492606448837678"><ele>209.0</ele><time>2026-04-18T15:57:24Z</time></trkpt><trkpt lat="39.22537258793401" lon="9.492845626450443"><ele>207.0</ele><time>2026-04-18T15:57:25Z</time></trkpt><trkpt lat="39.225496659330446" lon="9.493089013112602"><ele>206.5</ele><time>2026-04-18T15:57:26Z</time></trkpt><trkpt lat="39.22561821466961" lon="9.4933367436694"><ele>206.0</ele><time>2026-04-18T15:57:27Z</time></trkpt><trkpt lat="39.225735917540675" lon="9.49358511727214"><ele>203.33333333333334</ele><time>2026-04-18T15:57:28Z</time></trkpt><trkpt lat="39.225847399212824" lon="9.493832324936204"><ele>200.66666666666669</ele><time>2026-04-18T15:57:29Z</time></trkpt><trkpt lat="39.22595683849918" lon="9.494086357839056"><ele>198.0</ele><time>2026-04-18T15:57:30Z</time></trkpt><trkpt lat="39.226066482543146" lon="9.494350084009227"><ele>193.0</ele><time>2026-04-18T15:57:31Z</time></trkpt><trkpt lat="39.22617065528391" lon="9.494618413001346"><ele>188.0</ele><time>2026-04-18T15:57:32Z</time></trkpt><trkpt lat="39.22626672389886" lon="9.4948909873474"><ele>188.0</ele><time>2026-04-18T15:57:33Z</time></trkpt><trkpt lat="39.226358611383006" lon="9.495169418868592"><ele>188.0</ele><time>2026-04-18T15:57:34Z</time></trkpt><trkpt lat="39.226450180951296" lon="9.495446716426496"><ele>183.5</ele><time>2026-04-18T15:57:35Z</time></trkpt><trkpt lat="39.226538176154676" lon="9.495716414957105"><ele>179.0</ele><time>2026-04-18T15:57:36Z</time></trkpt><trkpt lat="39.22662105239708" lon="9.495988108198368"><ele>178.0</ele><time>2026-04-18T15:57:37Z</time></trkpt><trkpt lat="39.22669950480412" lon="9.496267069975838"><ele>177.0</ele><time>2026-04-18T15:57:38Z</time></trkpt><trkpt lat="39.22677560342474" lon="9.496550392147114"><ele>177.0</ele><time>2026-04-18T15:57:39Z</time></trkpt><trkpt lat="39.226849087242414" lon="9.496839138926568"><ele>177.0</ele><time>2026-04-18T15:57:40Z</time></trkpt><trkpt lat="39.22692642180774" lon="9.497134807951182"><ele>174.5</ele><time>2026-04-18T15:57:41Z</time></trkpt><trkpt lat="39.22700339112595" lon="9.497427669353067"><ele>172.0</ele><time>2026-04-18T15:57:42Z</time></trkpt><trkpt lat="39.22708325171585" lon="9.49773138622347"><ele>169.5</ele><time>2026-04-18T15:57:43Z</time></trkpt><trkpt lat="39.227162594779294" lon="9.498036783080055"><ele>167.0</ele><time>2026-04-18T15:57:44Z</time></trkpt><trkpt lat="39.22724373197131" lon="9.498347368982015"><ele>166.5</ele><time>2026-04-18T15:57:45Z</time></trkpt><trkpt lat="39.22732497005738" lon="9.498659308733345"><ele>166.0</ele><time>2026-04-18T15:57:46Z</time></trkpt><trkpt lat="39.2274053221188" lon="9.498969810703514"><ele>166.0</ele><time>2026-04-18T15:57:47Z</time></trkpt><trkpt lat="39.227488496704886" lon="9.499287742341872"><ele>166.0</ele><time>2026-04-18T15:57:48Z</time></trkpt><trkpt lat="39.22756993685312" lon="9.49960330526663"><ele>164.0</ele><time>2026-04-18T15:57:49Z</time></trkpt><trkpt lat="39.22765266363884" lon="9.499916810715614"><ele>162.0</ele><time>2026-04-18T15:57:50Z</time></trkpt><trkpt lat="39.227735773309455" lon="9.500228065293559"><ele>162.0</ele><time>2026-04-18T15:57:51Z</time></trkpt><trkpt lat="39.22781916736107" lon="9.50054043529332"><ele>162.0</ele><time>2026-04-18T15:57:52Z</time></trkpt><trkpt lat="39.227901577883884" lon="9.50085006253022"><ele>162.0</ele><time>2026-04-18T15:57:53Z</time></trkpt><trkpt lat="39.227985968504235" lon="9.501159802056943"><ele>162.0</ele><time>2026-04-18T15:57:54Z</time></trkpt><trkpt lat="39.22807222232686" lon="9.501469726054683"><ele>159.5</ele><time>2026-04-18T15:57:55Z</time></trkpt><trkpt lat="39.228161432837624" lon="9.501777494266891"><ele>157.0</ele><time>2026-04-18T15:57:56Z</time></trkpt><trkpt lat="39.228251370645836" lon="9.50207955323949"><ele>155.5</ele><time>2026-04-18T15:57:57Z</time></trkpt><trkpt lat="39.228347764281224" lon="9.50238051745709"><ele>154.0</ele><time>2026-04-18T15:57:58Z</time></trkpt><trkpt lat="39.228456881648896" lon="9.502677495135707"><ele>153.5</ele><time>2026-04-18T15:57:59Z</time></trkpt><trkpt lat="39.22856895546389" lon="9.502967987827672"><ele>153.0</ele><time>2026-04-18T15:58:00Z</time></trkpt><trkpt lat="39.22868342754775" lon="9.50324450266692"><ele>153.0</ele><time>2026-04-18T15:58:01Z</time></trkpt><trkpt lat="39.22880106975827" lon="9.503515318517895"><ele>153.0</ele><time>2026-04-18T15:58:02Z</time></trkpt><trkpt lat="39.22892310623515" lon="9.503777040311313"><ele>152.0</ele><time>2026-04-18T15:58:03Z</time></trkpt><trkpt lat="39.22904852272308" lon="9.504031599969407"><ele>151.0</ele><time>2026-04-18T15:58:04Z</time></trkpt><trkpt lat="39.22917937656512" lon="9.504288207754596"><ele>151.0</ele><time>2026-04-18T15:58:05Z</time></trkpt><trkpt lat="39.229313609383745" lon="9.5045397515717"><ele>151.0</ele><time>2026-04-18T15:58:06Z</time></trkpt><trkpt lat="39.22945239343363" lon="9.504777530110623"><ele>150.5</ele><time>2026-04-18T15:58:07Z</time></trkpt><trkpt lat="39.229598937411915" lon="9.505014251887847"><ele>150.0</ele><time>2026-04-18T15:58:08Z</time></trkpt><trkpt lat="39.22975031538827" lon="9.505249054710957"><ele>148.0</ele><time>2026-04-18T15:58:09Z</time></trkpt><trkpt lat="39.22990792098754" lon="9.50547748107033"><ele>146.0</ele><time>2026-04-18T15:58:10Z</time></trkpt><trkpt lat="39.23006990300419" lon="9.505699244904157"><ele>146.0</ele><time>2026-04-18T15:58:11Z</time></trkpt><trkpt lat="39.230234894087026" lon="9.505917873643885"><ele>146.0</ele><time>2026-04-18T15:58:12Z</time></trkpt><trkpt lat="39.23040324668782" lon="9.50613225277733"><ele>145.0</ele><time>2026-04-18T15:58:13Z</time></trkpt><trkpt lat="39.230573517675204" lon="9.506334239880665"><ele>144.0</ele><time>2026-04-18T15:58:14Z</time></trkpt><trkpt lat="39.230745513992666" lon="9.506520929049442"><ele>143.0</ele><time>2026-04-18T15:58:15Z</time></trkpt><trkpt lat="39.23092088450825" lon="9.506699357672908"><ele>142.0</ele><time>2026-04-18T15:58:16Z</time></trkpt><trkpt lat="39.231101065049764" lon="9.506876083912784"><ele>142.0</ele><time>2026-04-18T15:58:17Z</time></trkpt><trkpt lat="39.231281474239424" lon="9.5070516014124"><ele>142.0</ele><time>2026-04-18T15:58:18Z</time></trkpt><trkpt lat="39.23145968272094" lon="9.507224192968573"><ele>142.0</ele><time>2026-04-18T15:58:19Z</time></trkpt><trkpt lat="39.231637780353275" lon="9.507392890746184"><ele>140.66666666666669</ele><time>2026-04-18T15:58:20Z</time></trkpt><trkpt lat="39.231816755609245" lon="9.507559848917598"><ele>139.33333333333334</ele><time>2026-04-18T15:58:21Z</time></trkpt><trkpt lat="39.23199623131654" lon="9.507723082886947"><ele>138.0</ele><time>2026-04-18T15:58:22Z</time></trkpt><trkpt lat="39.23219773995674" lon="9.507900208886298"><ele>140.5</ele><time>2026-04-18T15:58:23Z</time></trkpt><trkpt lat="39.2323887229565" lon="9.508070027744951"><ele>143.0</ele><time>2026-04-18T15:58:24Z</time></trkpt><trkpt lat="39.23257876547157" lon="9.508243237460006"><ele>143.0</ele><time>2026-04-18T15:58:25Z</time></trkpt><trkpt lat="39.23276791634927" lon="9.508418371644908"><ele>143.0</ele><time>2026-04-18T15:58:26Z</time></trkpt><trkpt lat="39.23295362214377" lon="9.508589156599047"><ele>143.5</ele><time>2026-04-18T15:58:27Z</time></trkpt><trkpt lat="39.23314491786071" lon="9.508761362235914"><ele>144.0</ele><time>2026-04-18T15:58:28Z</time></trkpt><trkpt lat="39.23333255492756" lon="9.50893355188207"><ele>144.0</ele><time>2026-04-18T15:58:29Z</time></trkpt><trkpt lat="39.233519059723456" lon="9.509108748280267"><ele>144.0</ele><time>2026-04-18T15:58:30Z</time></trkpt><trkpt lat="39.23370494288008" lon="9.50928549150648"><ele>144.0</ele><time>2026-04-18T15:58:31Z</time></trkpt><trkpt lat="39.23389012524746" lon="9.509467111149327"><ele>144.0</ele><time>2026-04-18T15:58:32Z</time></trkpt><trkpt lat="39.23407075269255" lon="9.509652801429585"><ele>140.0</ele><time>2026-04-18T15:58:33Z</time></trkpt><trkpt lat="39.23425043550856" lon="9.509844434839678"><ele>136.0</ele><time>2026-04-18T15:58:34Z</time></trkpt><trkpt lat="39.23442379577321" lon="9.510040873256425"><ele>136.0</ele><time>2026-04-18T15:58:35Z</time></trkpt><trkpt lat="39.23458994488171" lon="9.510242124807395"><ele>136.0</ele><time>2026-04-18T15:58:36Z</time></trkpt><trkpt lat="39.23475354377353" lon="9.510445209514174"><ele>135.33333333333334</ele><time>2026-04-18T15:58:37Z</time></trkpt><trkpt lat="39.234911389503374" lon="9.510648193713621"><ele>134.66666666666666</ele><time>2026-04-18T15:58:38Z</time></trkpt><trkpt lat="39.23505733757741" lon="9.51084879518686"><ele>134.0</ele><time>2026-04-18T15:58:39Z</time></trkpt><trkpt lat="39.235196903219325" lon="9.511048192694398"><ele>133.33333333333331</ele><time>2026-04-18T15:58:40Z</time></trkpt><trkpt lat="39.23533379770065" lon="9.511255948901507"><ele>132.66666666666666</ele><time>2026-04-18T15:58:41Z</time></trkpt><trkpt lat="39.23546510876251" lon="9.511465500343139"><ele>132.0</ele><time>2026-04-18T15:58:42Z</time></trkpt><trkpt lat="39.23559175721825" lon="9.511677427430824"><ele>131.0</ele><time>2026-04-18T15:58:43Z</time></trkpt><trkpt lat="39.23571295450736" lon="9.511893650125618"><ele>130.0</ele><time>2026-04-18T15:58:44Z</time></trkpt><trkpt lat="39.2358308350249" lon="9.512111913180965"><ele>129.0</ele><time>2026-04-18T15:58:45Z</time></trkpt><trkpt lat="39.235948429305076" lon="9.512329950775774"><ele>129.0</ele><time>2026-04-18T15:58:46Z</time></trkpt><trkpt lat="39.23606188246449" lon="9.512555896288374"><ele>129.0</ele><time>2026-04-18T15:58:47Z</time></trkpt><trkpt lat="39.23617265096218" lon="9.512791207936344"><ele>129.0</ele><time>2026-04-18T15:58:48Z</time></trkpt><trkpt lat="39.23627691779049" lon="9.513033079394818"><ele>129.0</ele><time>2026-04-18T15:58:49Z</time></trkpt><trkpt lat="39.23637614174496" lon="9.513281025644963"><ele>129.0</ele><time>2026-04-18T15:58:50Z</time></trkpt><trkpt lat="39.23647267499978" lon="9.513527948793802"><ele>129.0</ele><time>2026-04-18T15:58:51Z</time></trkpt><trkpt lat="39.23656966842572" lon="9.513780700669006"><ele>128.66666666666666</ele><time>2026-04-18T15:58:52Z</time></trkpt><trkpt lat="39.23666952744599" lon="9.514032947358006"><ele>128.33333333333331</ele><time>2026-04-18T15:58:53Z</time></trkpt><trkpt lat="39.236771205648736" lon="9.51428113811531"><ele>128.0</ele><time>2026-04-18T15:58:54Z</time></trkpt><trkpt lat="39.23687075394204" lon="9.514535731626971"><ele>125.5</ele><time>2026-04-18T15:58:55Z</time></trkpt><trkpt lat="39.2369682022126" lon="9.514797232031572"><ele>123.0</ele><time>2026-04-18T15:58:56Z</time></trkpt><trkpt lat="39.237067323633745" lon="9.515060095245047"><ele>123.0</ele><time>2026-04-18T15:58:57Z</time></trkpt><trkpt lat="39.23716724145325" lon="9.515326318349617"><ele>123.0</ele><time>2026-04-18T15:58:58Z</time></trkpt><trkpt lat="39.23726724870927" lon="9.515590036078496"><ele>122.5</ele><time>2026-04-18T15:58:59Z</time></trkpt><trkpt lat="39.23736511118979" lon="9.515859659030497"><ele>122.0</ele><time>2026-04-18T15:59:00Z</time></trkpt><trkpt lat="39.237466172186494" lon="9.516129987398308"><ele>122.5</ele><time>2026-04-18T15:59:01Z</time></trkpt><trkpt lat="39.2375695339446" lon="9.516408002983102"><ele>123.0</ele><time>2026-04-18T15:59:02Z</time></trkpt><trkpt lat="39.23767452943505" lon="9.516690775690975"><ele>123.0</ele><time>2026-04-18T15:59:03Z</time></trkpt><trkpt lat="39.2377859637827" lon="9.516979189361148"><ele>123.0</ele><time>2026-04-18T15:59:04Z</time></trkpt><trkpt lat="39.23789868126496" lon="9.51727412273055"><ele>120.0</ele><time>2026-04-18T15:59:05Z</time></trkpt><trkpt lat="39.23801301305283" lon="9.517575311048663"><ele>117.0</ele><time>2026-04-18T15:59:06Z</time></trkpt><trkpt lat="39.23813106422267" lon="9.517880528266872"><ele>119.5</ele><time>2026-04-18T15:59:07Z</time></trkpt><trkpt lat="39.23825279725382" lon="9.518191041299097"><ele>122.0</ele><time>2026-04-18T15:59:08Z</time></trkpt><trkpt lat="39.23837313111913" lon="9.518505698663542"><ele>118.0</ele><time>2026-04-18T15:59:09Z</time></trkpt><trkpt lat="39.23849051092343" lon="9.51882200835108"><ele>114.0</ele><time>2026-04-18T15:59:10Z</time></trkpt><trkpt lat="39.23860888144758" lon="9.519139807277153"><ele>114.0</ele><time>2026-04-18T15:59:11Z</time></trkpt><trkpt lat="39.238727911664284" lon="9.519449358806563"><ele>114.0</ele><time>2026-04-18T15:59:12Z</time></trkpt><trkpt lat="39.238845976017295" lon="9.51975484257859"><ele>114.0</ele><time>2026-04-18T15:59:13Z</time></trkpt><trkpt lat="39.23896367132164" lon="9.5200489466099"><ele>114.0</ele><time>2026-04-18T15:59:14Z</time></trkpt><trkpt lat="39.23908300258971" lon="9.520334734400008"><ele>111.5</ele><time>2026-04-18T15:59:15Z</time></trkpt><trkpt lat="39.23920688067038" lon="9.520603895428364"><ele>109.0</ele><time>2026-04-18T15:59:16Z</time></trkpt><trkpt lat="39.239334240801526" lon="9.52087457450305"><ele>109.0</ele><time>2026-04-18T15:59:17Z</time></trkpt><trkpt lat="39.23946198090816" lon="9.521136509368095"><ele>109.0</ele><time>2026-04-18T15:59:18Z</time></trkpt><trkpt lat="39.23959301271073" lon="9.521395158971258"><ele>107.5</ele><time>2026-04-18T15:59:19Z</time></trkpt><trkpt lat="39.23972956753031" lon="9.521651382550818"><ele>106.0</ele><time>2026-04-18T15:59:20Z</time></trkpt><trkpt lat="39.239871063955526" lon="9.521906438419935"><ele>103.5</ele><time>2026-04-18T15:59:21Z</time></trkpt><trkpt lat="39.240019293909704" lon="9.522154070803579"><ele>101.0</ele><time>2026-04-18T15:59:22Z</time></trkpt><trkpt lat="39.240174522430145" lon="9.522394913456058"><ele>101.0</ele><time>2026-04-18T15:59:23Z</time></trkpt><trkpt lat="39.240331788450725" lon="9.522629680921224"><ele>101.0</ele><time>2026-04-18T15:59:24Z</time></trkpt><trkpt lat="39.24048719608664" lon="9.522861931374386"><ele>99.0</ele><time>2026-04-18T15:59:25Z</time></trkpt><trkpt lat="39.24064663537283" lon="9.523086868275144"><ele>97.0</ele><time>2026-04-18T15:59:26Z</time></trkpt><trkpt lat="39.2408081882421" lon="9.52330331228282"><ele>97.0</ele><time>2026-04-18T15:59:27Z</time></trkpt><trkpt lat="39.2409728497969" lon="9.523514106404184"><ele>97.0</ele><time>2026-04-18T15:59:28Z</time></trkpt><trkpt lat="39.24114399841306" lon="9.523730575455042"><ele>96.0</ele><time>2026-04-18T15:59:29Z</time></trkpt><trkpt lat="39.24131590521569" lon="9.523939250175076"><ele>95.0</ele><time>2026-04-18T15:59:30Z</time></trkpt><trkpt lat="39.24149144544114" lon="9.524137961652315"><ele>95.0</ele><time>2026-04-18T15:59:31Z</time></trkpt><trkpt lat="39.24167011304763" lon="9.524335989823209"><ele>95.0</ele><time>2026-04-18T15:59:32Z</time></trkpt><trkpt lat="39.24185153693083" lon="9.52452633695254"><ele>93.5</ele><time>2026-04-18T15:59:33Z</time></trkpt><trkpt lat="39.24203863909312" lon="9.524711805011027"><ele>92.0</ele><time>2026-04-18T15:59:34Z</time></trkpt><trkpt lat="39.24222981037494" lon="9.524886508390948"><ele>92.0</ele><time>2026-04-18T15:59:35Z</time></trkpt><trkpt lat="39.2424266359128" lon="9.525057559095588"><ele>92.0</ele><time>2026-04-18T15:59:36Z</time></trkpt><trkpt lat="39.2426236739637" lon="9.525224401996718"><ele>92.0</ele><time>2026-04-18T15:59:37Z</time></trkpt><trkpt lat="39.24282314389022" lon="9.52539139786903"><ele>92.0</ele><time>2026-04-18T15:59:38Z</time></trkpt><trkpt lat="39.24302378354053" lon="9.525551683277332"><ele>92.0</ele><time>2026-04-18T15:59:39Z</time></trkpt><trkpt lat="39.24322263182156" lon="9.525701578469626"><ele>92.0</ele><time>2026-04-18T15:59:40Z</time></trkpt><trkpt lat="39.24342730701204" lon="9.525841611702404"><ele>92.0</ele><time>2026-04-18T15:59:41Z</time></trkpt><trkpt lat="39.24363359808293" lon="9.525980724803759"><ele>92.0</ele><time>2026-04-18T15:59:42Z</time></trkpt><trkpt lat="39.243837615557055" lon="9.526114031061805"><ele>91.0</ele><time>2026-04-18T15:59:43Z</time></trkpt><trkpt lat="39.24404772412927" lon="9.526239503943367"><ele>90.0</ele><time>2026-04-18T15:59:44Z</time></trkpt><trkpt lat="39.2442610758888" lon="9.526358454847436"><ele>90.0</ele><time>2026-04-18T15:59:45Z</time></trkpt><trkpt lat="39.24447354896412" lon="9.526473837700365"><ele>90.0</ele><time>2026-04-18T15:59:46Z</time></trkpt><trkpt lat="39.24469271788131" lon="9.526583234705804"><ele>91.0</ele><time>2026-04-18T15:59:47Z</time></trkpt><trkpt lat="39.24491029112692" lon="9.52668773229189"><ele>92.0</ele><time>2026-04-18T15:59:48Z</time></trkpt><trkpt lat="39.24512652405452" lon="9.526785088215965"><ele>92.0</ele><time>2026-04-18T15:59:49Z</time></trkpt><trkpt lat="39.24534657883405" lon="9.526877368611892"><ele>92.0</ele><time>2026-04-18T15:59:50Z</time></trkpt><trkpt lat="39.24556950224077" lon="9.526962803903892"><ele>91.0</ele><time>2026-04-18T15:59:51Z</time></trkpt><trkpt lat="39.245793668535555" lon="9.52704619881645"><ele>90.0</ele><time>2026-04-18T15:59:52Z</time></trkpt><trkpt lat="39.24601967645501" lon="9.527126110582804"><ele>90.0</ele><time>2026-04-18T15:59:53Z</time></trkpt><trkpt lat="39.24624500130682" lon="9.527207867961565"><ele>90.0</ele><time>2026-04-18T15:59:54Z</time></trkpt><trkpt lat="39.24647575015118" lon="9.527289345209345"><ele>90.0</ele><time>2026-04-18T15:59:55Z</time></trkpt><trkpt lat="39.24671608056098" lon="9.527388944126365"><ele>90.0</ele><time>2026-04-18T15:59:56Z</time></trkpt><trkpt lat="39.24698927769625" lon="9.52748451034059"><ele>90.0</ele><time>2026-04-18T15:59:57Z</time></trkpt><trkpt lat="39.247280275587016" lon="9.527586950940291"><ele>90.0</ele><time>2026-04-18T15:59:58Z</time></trkpt><trkpt lat="39.24758043204706" lon="9.527693295828081"><ele>89.5</ele><time>2026-04-18T15:59:59Z</time></trkpt><trkpt lat="39.24787874353535" lon="9.527798987107259"><ele>89.0</ele><time>2026-04-18T16:00:00Z</time></trkpt><trkpt lat="39.248185244899375" lon="9.527906951252186"><ele>89.0</ele><time>2026-04-18T16:00:01Z</time></trkpt><trkpt lat="39.24849208248488" lon="9.528014957241982"><ele>89.0</ele><time>2026-04-18T16:00:02Z</time></trkpt><trkpt lat="39.248792833522145" lon="9.528121626060843"><ele>90.0</ele><time>2026-04-18T16:00:03Z</time></trkpt><trkpt lat="39.2490909423036" lon="9.528227409117932"><ele>91.0</ele><time>2026-04-18T16:00:04Z</time></trkpt><trkpt lat="39.24937851991721" lon="9.528329454705835"><ele>91.0</ele><time>2026-04-18T16:00:05Z</time></trkpt><trkpt lat="39.24967047478191" lon="9.528417078731492"><ele>91.0</ele><time>2026-04-18T16:00:06Z</time></trkpt><trkpt lat="39.24995289758391" lon="9.52853015526343"><ele>91.0</ele><time>2026-04-18T16:00:07Z</time></trkpt><trkpt lat="39.25023457326273" lon="9.528643402176334"><ele>91.0</ele><time>2026-04-18T16:00:08Z</time></trkpt><trkpt lat="39.2505146842441" lon="9.528750015562458"><ele>89.0</ele><time>2026-04-18T16:00:09Z</time></trkpt><trkpt lat="39.25079569191867" lon="9.528847685867992"><ele>87.0</ele><time>2026-04-18T16:00:10Z</time></trkpt><trkpt lat="39.25107702059194" lon="9.528940989638697"><ele>87.0</ele><time>2026-04-18T16:00:11Z</time></trkpt><trkpt lat="39.25135582320087" lon="9.52903296024751"><ele>87.0</ele><time>2026-04-18T16:00:12Z</time></trkpt><trkpt lat="39.251631878906615" lon="9.529124760904079"><ele>86.5</ele><time>2026-04-18T16:00:13Z</time></trkpt><trkpt lat="39.25190550554866" lon="9.52922177636599"><ele>86.0</ele><time>2026-04-18T16:00:14Z</time></trkpt><trkpt lat="39.25217443317781" lon="9.529319176625819"><ele>86.5</ele><time>2026-04-18T16:00:15Z</time></trkpt><trkpt lat="39.25244342391691" lon="9.529418320088022"><ele>87.0</ele><time>2026-04-18T16:00:16Z</time></trkpt><trkpt lat="39.25271261847238" lon="9.52952274277821"><ele>86.0</ele><time>2026-04-18T16:00:17Z</time></trkpt><trkpt lat="39.252979438795315" lon="9.529633095608746"><ele>85.0</ele><time>2026-04-18T16:00:18Z</time></trkpt><trkpt lat="39.25324081403736" lon="9.529750466098628"><ele>85.0</ele><time>2026-04-18T16:00:19Z</time></trkpt><trkpt lat="39.25349728697451" lon="9.529873340968921"><ele>85.0</ele><time>2026-04-18T16:00:20Z</time></trkpt><trkpt lat="39.25375052213523" lon="9.529998473719854"><ele>84.5</ele><time>2026-04-18T16:00:21Z</time></trkpt><trkpt lat="39.25399789830424" lon="9.530126385000294"><ele>84.0</ele><time>2026-04-18T16:00:22Z</time></trkpt><trkpt lat="39.254240918415476" lon="9.530258497657128"><ele>83.5</ele><time>2026-04-18T16:00:23Z</time></trkpt><trkpt lat="39.254480475200666" lon="9.53039625464643"><ele>83.0</ele><time>2026-04-18T16:00:24Z</time></trkpt><trkpt lat="39.25471408214279" lon="9.530539079085965"><ele>82.5</ele><time>2026-04-18T16:00:25Z</time></trkpt><trkpt lat="39.25494359623948" lon="9.530684500534063"><ele>82.0</ele><time>2026-04-18T16:00:26Z</time></trkpt><trkpt lat="39.25517568735256" lon="9.530829757534091"><ele>82.0</ele><time>2026-04-18T16:00:27Z</time></trkpt><trkpt lat="39.25540803327198" lon="9.530974835017087"><ele>82.0</ele><time>2026-04-18T16:00:28Z</time></trkpt><trkpt lat="39.25563990496395" lon="9.531118001008219"><ele>81.0</ele><time>2026-04-18T16:00:29Z</time></trkpt><trkpt lat="39.25586829350486" lon="9.531261083829964"><ele>80.0</ele><time>2026-04-18T16:00:30Z</time></trkpt><trkpt lat="39.25609225035202" lon="9.531402805913567"><ele>80.0</ele><time>2026-04-18T16:00:31Z</time></trkpt><trkpt lat="39.256310001980104" lon="9.531540534657653"><ele>80.0</ele><time>2026-04-18T16:00:32Z</time></trkpt><trkpt lat="39.256522099746796" lon="9.531673613127307"><ele>78.5</ele><time>2026-04-18T16:00:33Z</time></trkpt><trkpt lat="39.25673468317415" lon="9.531809828939979"><ele>77.0</ele><time>2026-04-18T16:00:34Z</time></trkpt><trkpt lat="39.25694418402887" lon="9.531943805121886"><ele>76.5</ele><time>2026-04-18T16:00:35Z</time></trkpt><trkpt lat="39.25715285168011" lon="9.532078148864331"><ele>76.0</ele><time>2026-04-18T16:00:36Z</time></trkpt><trkpt lat="39.25736768753204" lon="9.532219090863647"><ele>76.0</ele><time>2026-04-18T16:00:37Z</time></trkpt><trkpt lat="39.25757830290246" lon="9.532353036211568"><ele>76.0</ele><time>2026-04-18T16:00:38Z</time></trkpt><trkpt lat="39.25779208757161" lon="9.532492863959963"><ele>76.0</ele><time>2026-04-18T16:00:39Z</time></trkpt><trkpt lat="39.258008990285425" lon="9.532633023068003"><ele>76.0</ele><time>2026-04-18T16:00:40Z</time></trkpt><trkpt lat="39.25822630606576" lon="9.532764683045587"><ele>76.0</ele><time>2026-04-18T16:00:41Z</time></trkpt><trkpt lat="39.25844467555487" lon="9.532894314726088"><ele>76.0</ele><time>2026-04-18T16:00:42Z</time></trkpt><trkpt lat="39.25866389959567" lon="9.533021956117562"><ele>76.0</ele><time>2026-04-18T16:00:43Z</time></trkpt><trkpt lat="39.25888402712386" lon="9.533146537213476"><ele>76.0</ele><time>2026-04-18T16:00:44Z</time></trkpt><trkpt lat="39.259101880433825" lon="9.533264286849287"><ele>76.0</ele><time>2026-04-18T16:00:45Z</time></trkpt><trkpt lat="39.259321902385395" lon="9.533378189045399"><ele>76.0</ele><time>2026-04-18T16:00:46Z</time></trkpt><trkpt lat="39.25954142438522" lon="9.533486823028532"><ele>76.0</ele><time>2026-04-18T16:00:47Z</time></trkpt><trkpt lat="39.2597620812488" lon="9.533594131639273"><ele>76.0</ele><time>2026-04-18T16:00:48Z</time></trkpt><trkpt lat="39.25998372601999" lon="9.533697634398274"><ele>76.0</ele><time>2026-04-18T16:00:49Z</time></trkpt><trkpt lat="39.260206737828675" lon="9.533798358347228"><ele>76.0</ele><time>2026-04-18T16:00:50Z</time></trkpt><trkpt lat="39.26043084556681" lon="9.533897164068682"><ele>76.0</ele><time>2026-04-18T16:00:51Z</time></trkpt><trkpt lat="39.2606588204635" lon="9.533993326841887"><ele>76.0</ele><time>2026-04-18T16:00:52Z</time></trkpt><trkpt lat="39.260888777880474" lon="9.53408724760795"><ele>76.0</ele><time>2026-04-18T16:00:53Z</time></trkpt><trkpt lat="39.261119160231225" lon="9.534177461659747"><ele>76.0</ele><time>2026-04-18T16:00:54Z</time></trkpt><trkpt lat="39.261353363770596" lon="9.534266437856203"><ele>74.0</ele><time>2026-04-18T16:00:55Z</time></trkpt><trkpt lat="39.26158559934483" lon="9.534354248082408"><ele>72.0</ele><time>2026-04-18T16:00:56Z</time></trkpt><trkpt lat="39.26181894131892" lon="9.534441093452347"><ele>72.0</ele><time>2026-04-18T16:00:57Z</time></trkpt><trkpt lat="39.26205571099819" lon="9.534527142332486"><ele>72.0</ele><time>2026-04-18T16:00:58Z</time></trkpt><trkpt lat="39.26229533518523" lon="9.534613795953696"><ele>72.0</ele><time>2026-04-18T16:00:59Z</time></trkpt><trkpt lat="39.26253021254809" lon="9.534701273398957"><ele>72.0</ele><time>2026-04-18T16:01:00Z</time></trkpt><trkpt lat="39.262770636051854" lon="9.534791270240346"><ele>72.0</ele><time>2026-04-18T16:01:01Z</time></trkpt><trkpt lat="39.26300865533392" lon="9.534878666477308"><ele>72.0</ele><time>2026-04-18T16:01:02Z</time></trkpt><trkpt lat="39.263249369266866" lon="9.534962690285827"><ele>72.5</ele><time>2026-04-18T16:01:03Z</time></trkpt><trkpt lat="39.26348680932421" lon="9.535046249323658"><ele>73.0</ele><time>2026-04-18T16:01:04Z</time></trkpt><trkpt lat="39.26372002633399" lon="9.535127135805293"><ele>72.5</ele><time>2026-04-18T16:01:05Z</time></trkpt><trkpt lat="39.2639530702118" lon="9.535209774832955"><ele>72.0</ele><time>2026-04-18T16:01:06Z</time></trkpt><trkpt lat="39.264178846858755" lon="9.535292617431084"><ele>72.0</ele><time>2026-04-18T16:01:07Z</time></trkpt><trkpt lat="39.26440621469742" lon="9.535376950350392"><ele>72.0</ele><time>2026-04-18T16:01:08Z</time></trkpt><trkpt lat="39.26463414197705" lon="9.53546102260083"><ele>71.0</ele><time>2026-04-18T16:01:09Z</time></trkpt><trkpt lat="39.26486140754339" lon="9.535543345486186"><ele>70.0</ele><time>2026-04-18T16:01:10Z</time></trkpt><trkpt lat="39.26508832656444" lon="9.535628181633726"><ele>70.0</ele><time>2026-04-18T16:01:11Z</time></trkpt><trkpt lat="39.265319975257654" lon="9.535714342867937"><ele>70.0</ele><time>2026-04-18T16:01:12Z</time></trkpt><trkpt lat="39.26555264261626" lon="9.535803598174684"><ele>69.5</ele><time>2026-04-18T16:01:13Z</time></trkpt><trkpt lat="39.265785270775496" lon="9.53589005953348"><ele>69.0</ele><time>2026-04-18T16:01:14Z</time></trkpt><trkpt lat="39.26602044236992" lon="9.535975497264479"><ele>69.0</ele><time>2026-04-18T16:01:15Z</time></trkpt><trkpt lat="39.266253678551195" lon="9.536060236462358"><ele>69.0</ele><time>2026-04-18T16:01:16Z</time></trkpt><trkpt lat="39.26648468534535" lon="9.53614572218636"><ele>69.0</ele><time>2026-04-18T16:01:17Z</time></trkpt><trkpt lat="39.26672073300856" lon="9.536231463397169"><ele>69.0</ele><time>2026-04-18T16:01:18Z</time></trkpt><trkpt lat="39.266952655056805" lon="9.536316207644232"><ele>69.0</ele><time>2026-04-18T16:01:19Z</time></trkpt><trkpt lat="39.267187896214054" lon="9.536398076726991"><ele>69.0</ele><time>2026-04-18T16:01:20Z</time></trkpt><trkpt lat="39.267422843177144" lon="9.536481613776633"><ele>67.0</ele><time>2026-04-18T16:01:21Z</time></trkpt><trkpt lat="39.267655227628" lon="9.536565713772307"><ele>65.0</ele><time>2026-04-18T16:01:22Z</time></trkpt><trkpt lat="39.267888668205515" lon="9.536652914253594"><ele>65.5</ele><time>2026-04-18T16:01:23Z</time></trkpt><trkpt lat="39.26811932990291" lon="9.536738027890125"><ele>66.0</ele><time>2026-04-18T16:01:24Z</time></trkpt><trkpt lat="39.268346840827824" lon="9.536822535998283"><ele>66.0</ele><time>2026-04-18T16:01:25Z</time></trkpt><trkpt lat="39.268577551893735" lon="9.536903888900605"><ele>66.0</ele><time>2026-04-18T16:01:26Z</time></trkpt><trkpt lat="39.26880762561211" lon="9.536984246987608"><ele>65.0</ele><time>2026-04-18T16:01:27Z</time></trkpt><trkpt lat="39.26903474656218" lon="9.537061461998826"><ele>64.0</ele><time>2026-04-18T16:01:28Z</time></trkpt><trkpt lat="39.269267722806724" lon="9.537137353286482"><ele>64.0</ele><time>2026-04-18T16:01:29Z</time></trkpt><trkpt lat="39.269498592544466" lon="9.537209387866366"><ele>64.0</ele><time>2026-04-18T16:01:30Z</time></trkpt><trkpt lat="39.26973146450884" lon="9.537277479181933"><ele>64.0</ele><time>2026-04-18T16:01:31Z</time></trkpt><trkpt lat="39.269963828597376" lon="9.537343965475548"><ele>64.0</ele><time>2026-04-18T16:01:32Z</time></trkpt><trkpt lat="39.27019980161451" lon="9.537404466486679"><ele>64.0</ele><time>2026-04-18T16:01:33Z</time></trkpt><trkpt lat="39.2704389001485" lon="9.537460910550429"><ele>64.0</ele><time>2026-04-18T16:01:34Z</time></trkpt><trkpt lat="39.27068022122121" lon="9.537512153064133"><ele>64.5</ele><time>2026-04-18T16:01:35Z</time></trkpt><trkpt lat="39.27092111945386" lon="9.537562763725989"><ele>65.0</ele><time>2026-04-18T16:01:36Z</time></trkpt><trkpt lat="39.27116615400503" lon="9.537611307884134"><ele>65.0</ele><time>2026-04-18T16:01:37Z</time></trkpt><trkpt lat="39.27141031421089" lon="9.537657422658087"><ele>65.0</ele><time>2026-04-18T16:01:38Z</time></trkpt><trkpt lat="39.27165637925089" lon="9.537695804704578"><ele>63.5</ele><time>2026-04-18T16:01:39Z</time></trkpt><trkpt lat="39.27190635764894" lon="9.537727415956958"><ele>62.0</ele><time>2026-04-18T16:01:40Z</time></trkpt><trkpt lat="39.27215507988072" lon="9.537753160815358"><ele>62.0</ele><time>2026-04-18T16:01:41Z</time></trkpt><trkpt lat="39.272402964575264" lon="9.537774177638145"><ele>62.0</ele><time>2026-04-18T16:01:42Z</time></trkpt><trkpt lat="39.272650881379064" lon="9.537794128076643"><ele>62.0</ele><time>2026-04-18T16:01:43Z</time></trkpt><trkpt lat="39.272896805157494" lon="9.53780879433313"><ele>62.0</ele><time>2026-04-18T16:01:44Z</time></trkpt><trkpt lat="39.273143194182616" lon="9.537820270074079"><ele>60.5</ele><time>2026-04-18T16:01:45Z</time></trkpt><trkpt lat="39.27338556684643" lon="9.537826478305021"><ele>59.0</ele><time>2026-04-18T16:01:46Z</time></trkpt><trkpt lat="39.27362683817503" lon="9.537835256656763"><ele>59.0</ele><time>2026-04-18T16:01:47Z</time></trkpt><trkpt lat="39.27386736554616" lon="9.537839531168446"><ele>59.0</ele><time>2026-04-18T16:01:48Z</time></trkpt><trkpt lat="39.274109701875645" lon="9.537836309093809"><ele>59.0</ele><time>2026-04-18T16:01:49Z</time></trkpt><trkpt lat="39.27434889531014" lon="9.537826805909049"><ele>59.0</ele><time>2026-04-18T16:01:50Z</time></trkpt><trkpt lat="39.274586061614315" lon="9.53781284150144"><ele>59.0</ele><time>2026-04-18T16:01:51Z</time></trkpt><trkpt lat="39.27482587569314" lon="9.537796420848967"><ele>59.0</ele><time>2026-04-18T16:01:52Z</time></trkpt><trkpt lat="39.27506843680314" lon="9.537775448026363"><ele>59.0</ele><time>2026-04-18T16:01:53Z</time></trkpt><trkpt lat="39.27531164702259" lon="9.537749063901927"><ele>59.0</ele><time>2026-04-18T16:01:54Z</time></trkpt><trkpt lat="39.27554530098167" lon="9.537715118477143"><ele>58.0</ele><time>2026-04-18T16:01:55Z</time></trkpt><trkpt lat="39.275787048355745" lon="9.537679926545673"><ele>57.0</ele><time>2026-04-18T16:01:56Z</time></trkpt><trkpt lat="39.27602521551908" lon="9.53764144908775"><ele>57.0</ele><time>2026-04-18T16:01:57Z</time></trkpt><trkpt lat="39.276263825066444" lon="9.537599739514713"><ele>57.0</ele><time>2026-04-18T16:01:58Z</time></trkpt><trkpt lat="39.27650131439215" lon="9.537552039852507"><ele>56.5</ele><time>2026-04-18T16:01:59Z</time></trkpt><trkpt lat="39.2767377927362" lon="9.537501707984307"><ele>56.0</ele><time>2026-04-18T16:02:00Z</time></trkpt><trkpt lat="39.276974285339506" lon="9.537446215180116"><ele>56.0</ele><time>2026-04-18T16:02:01Z</time></trkpt><trkpt lat="39.27720494611809" lon="9.537381747494997"><ele>56.0</ele><time>2026-04-18T16:02:02Z</time></trkpt><trkpt lat="39.277437529582315" lon="9.537313447745484"><ele>55.5</ele><time>2026-04-18T16:02:03Z</time></trkpt><trkpt lat="39.27766957833865" lon="9.537241231817093"><ele>55.0</ele><time>2026-04-18T16:02:04Z</time></trkpt><trkpt lat="39.277913206868085" lon="9.537163802022125"><ele>54.5</ele><time>2026-04-18T16:02:05Z</time></trkpt><trkpt lat="39.27815173256643" lon="9.537083103087209"><ele>54.0</ele><time>2026-04-18T16:02:06Z</time></trkpt><trkpt lat="39.278393258401096" lon="9.537001211644855"><ele>54.0</ele><time>2026-04-18T16:02:07Z</time></trkpt><trkpt lat="39.27863412684286" lon="9.536917986113684"><ele>54.0</ele><time>2026-04-18T16:02:08Z</time></trkpt><trkpt lat="39.27887586411667" lon="9.536825087713257"><ele>54.0</ele><time>2026-04-18T16:02:09Z</time></trkpt><trkpt lat="39.27911549166709" lon="9.536724441986092"><ele>54.0</ele><time>2026-04-18T16:02:10Z</time></trkpt><trkpt lat="39.27935226912289" lon="9.536622329894573"><ele>54.0</ele><time>2026-04-18T16:02:11Z</time></trkpt><trkpt lat="39.27959295326526" lon="9.536522025775964"><ele>54.0</ele><time>2026-04-18T16:02:12Z</time></trkpt><trkpt lat="39.27983624062188" lon="9.536415467152294"><ele>55.0</ele><time>2026-04-18T16:02:13Z</time></trkpt><trkpt lat="39.28007820216806" lon="9.536300824485023"><ele>56.0</ele><time>2026-04-18T16:02:14Z</time></trkpt><trkpt lat="39.28031599005744" lon="9.5361814968842"><ele>56.0</ele><time>2026-04-18T16:02:15Z</time></trkpt><trkpt lat="39.28055691793511" lon="9.536054301197009"><ele>56.0</ele><time>2026-04-18T16:02:16Z</time></trkpt><trkpt lat="39.28079573834311" lon="9.535922458726743"><ele>57.5</ele><time>2026-04-18T16:02:17Z</time></trkpt><trkpt lat="39.28103396447803" lon="9.535788516956107"><ele>59.0</ele><time>2026-04-18T16:02:18Z</time></trkpt><trkpt lat="39.28127134106835" lon="9.53564986804124"><ele>58.0</ele><time>2026-04-18T16:02:19Z</time></trkpt><trkpt lat="39.281510363950574" lon="9.535506403446428"><ele>57.0</ele><time>2026-04-18T16:02:20Z</time></trkpt><trkpt lat="39.28174736239742" lon="9.535362101996235"><ele>54.5</ele><time>2026-04-18T16:02:21Z</time></trkpt><trkpt lat="39.28198486991414" lon="9.535215592224821"><ele>52.0</ele><time>2026-04-18T16:02:22Z</time></trkpt><trkpt lat="39.282220212322734" lon="9.535069122678328"><ele>51.5</ele><time>2026-04-18T16:02:23Z</time></trkpt><trkpt lat="39.28245784175775" lon="9.53492312046963"><ele>51.0</ele><time>2026-04-18T16:02:24Z</time></trkpt><trkpt lat="39.28269665032013" lon="9.534779867765542"><ele>51.0</ele><time>2026-04-18T16:02:25Z</time></trkpt><trkpt lat="39.282934693709095" lon="9.534632619414596"><ele>51.0</ele><time>2026-04-18T16:02:26Z</time></trkpt><trkpt lat="39.28317448532822" lon="9.534482050690873"><ele>51.0</ele><time>2026-04-18T16:02:27Z</time></trkpt><trkpt lat="39.28341315566724" lon="9.534328691201221"><ele>51.0</ele><time>2026-04-18T16:02:28Z</time></trkpt><trkpt lat="39.28365127338137" lon="9.53417357272225"><ele>51.0</ele><time>2026-04-18T16:02:29Z</time></trkpt><trkpt lat="39.28389116783266" lon="9.534019611779541"><ele>51.0</ele><time>2026-04-18T16:02:30Z</time></trkpt><trkpt lat="39.2841350621595" lon="9.533867837567875"><ele>50.0</ele><time>2026-04-18T16:02:31Z</time></trkpt><trkpt lat="39.28437780082499" lon="9.533717152276354"><ele>49.0</ele><time>2026-04-18T16:02:32Z</time></trkpt><trkpt lat="39.284618873038234" lon="9.533568659215506"><ele>49.0</ele><time>2026-04-18T16:02:33Z</time></trkpt><trkpt lat="39.28486493856757" lon="9.53341925311878"><ele>49.0</ele><time>2026-04-18T16:02:34Z</time></trkpt><trkpt lat="39.28511087251509" lon="9.533271533100054"><ele>49.0</ele><time>2026-04-18T16:02:35Z</time></trkpt><trkpt lat="39.28535820183484" lon="9.533126606949772"><ele>49.0</ele><time>2026-04-18T16:02:36Z</time></trkpt><trkpt lat="39.28560872687343" lon="9.53298601657092"><ele>49.5</ele><time>2026-04-18T16:02:37Z</time></trkpt><trkpt lat="39.28586017870178" lon="9.53285338728884"><ele>50.0</ele><time>2026-04-18T16:02:38Z</time></trkpt><trkpt lat="39.2861175335762" lon="9.53272762901176"><ele>50.0</ele><time>2026-04-18T16:02:39Z</time></trkpt><trkpt lat="39.28637991771919" lon="9.532606552485591"><ele>50.0</ele><time>2026-04-18T16:02:40Z</time></trkpt><trkpt lat="39.286644604641516" lon="9.53249146755475"><ele>51.0</ele><time>2026-04-18T16:02:41Z</time></trkpt><trkpt lat="39.28691177540297" lon="9.532381975186631"><ele>52.0</ele><time>2026-04-18T16:02:42Z</time></trkpt><trkpt lat="39.287185242394486" lon="9.532276118185742"><ele>56.5</ele><time>2026-04-18T16:02:43Z</time></trkpt><trkpt lat="39.28746139733457" lon="9.53217701634741"><ele>61.0</ele><time>2026-04-18T16:02:44Z</time></trkpt><trkpt lat="39.28773078152887" lon="9.532091697784981"><ele>59.0</ele><time>2026-04-18T16:02:45Z</time></trkpt><trkpt lat="39.288003615303786" lon="9.532013579072093"><ele>57.0</ele><time>2026-04-18T16:02:46Z</time></trkpt><trkpt lat="39.28827758727859" lon="9.53194035759479"><ele>57.0</ele><time>2026-04-18T16:02:47Z</time></trkpt><trkpt lat="39.28856743722073" lon="9.531870838032688"><ele>57.0</ele><time>2026-04-18T16:02:48Z</time></trkpt><trkpt lat="39.28884480241994" lon="9.53180915107509"><ele>59.0</ele><time>2026-04-18T16:02:49Z</time></trkpt><trkpt lat="39.28912511063418" lon="9.531757687812162"><ele>61.0</ele><time>2026-04-18T16:02:50Z</time></trkpt><trkpt lat="39.289405853183474" lon="9.531711313410842"><ele>61.0</ele><time>2026-04-18T16:02:51Z</time></trkpt><trkpt lat="39.28968820074892" lon="9.531670285386575"><ele>61.0</ele><time>2026-04-18T16:02:52Z</time></trkpt><trkpt lat="39.289971485078546" lon="9.531637914882582"><ele>62.0</ele><time>2026-04-18T16:02:53Z</time></trkpt><trkpt lat="39.29025123407287" lon="9.531611767789203"><ele>63.0</ele><time>2026-04-18T16:02:54Z</time></trkpt><trkpt lat="39.29052998699057" lon="9.5316015953292"><ele>64.5</ele><time>2026-04-18T16:02:55Z</time></trkpt><trkpt lat="39.290809396437886" lon="9.531597350493549"><ele>66.0</ele><time>2026-04-18T16:02:56Z</time></trkpt><trkpt lat="39.291088834425395" lon="9.531599513705492"><ele>66.0</ele><time>2026-04-18T16:02:57Z</time></trkpt><trkpt lat="39.29137117190679" lon="9.531608449289065"><ele>66.0</ele><time>2026-04-18T16:02:58Z</time></trkpt><trkpt lat="39.29165061048159" lon="9.531623861409123"><ele>66.5</ele><time>2026-04-18T16:02:59Z</time></trkpt><trkpt lat="39.291931285393765" lon="9.531646548785522"><ele>67.0</ele><time>2026-04-18T16:03:00Z</time></trkpt><trkpt lat="39.29221053155935" lon="9.531674239200456"><ele>65.0</ele><time>2026-04-18T16:03:01Z</time></trkpt><trkpt lat="39.292492415150505" lon="9.531711932107147"><ele>63.0</ele><time>2026-04-18T16:03:02Z</time></trkpt><trkpt lat="39.29277483716813" lon="9.53175927617837"><ele>63.0</ele><time>2026-04-18T16:03:03Z</time></trkpt><trkpt lat="39.29305695320699" lon="9.53181455664188"><ele>63.0</ele><time>2026-04-18T16:03:04Z</time></trkpt><trkpt lat="39.29333863429872" lon="9.531877546493105"><ele>61.0</ele><time>2026-04-18T16:03:05Z</time></trkpt><trkpt lat="39.29362027128256" lon="9.531950463909737"><ele>59.0</ele><time>2026-04-18T16:03:06Z</time></trkpt><trkpt lat="39.293899682550624" lon="9.532030168030756"><ele>62.0</ele><time>2026-04-18T16:03:07Z</time></trkpt><trkpt lat="39.29417966352648" lon="9.532117537640314"><ele>65.0</ele><time>2026-04-18T16:03:08Z</time></trkpt><trkpt lat="39.29446098721274" lon="9.532212809774698"><ele>65.0</ele><time>2026-04-18T16:03:09Z</time></trkpt><trkpt lat="39.29473757983275" lon="9.532313270139868"><ele>65.0</ele><time>2026-04-18T16:03:10Z</time></trkpt><trkpt lat="39.29501475755703" lon="9.53242384475339"><ele>63.5</ele><time>2026-04-18T16:03:11Z</time></trkpt><trkpt lat="39.29529073508787" lon="9.532543167407068"><ele>62.0</ele><time>2026-04-18T16:03:12Z</time></trkpt><trkpt lat="39.295566116508745" lon="9.532671878055995"><ele>59.5</ele><time>2026-04-18T16:03:13Z</time></trkpt><trkpt lat="39.29583816394445" lon="9.53280770258294"><ele>57.0</ele><time>2026-04-18T16:03:14Z</time></trkpt><trkpt lat="39.29610961324015" lon="9.532950363718172"><ele>58.0</ele><time>2026-04-18T16:03:15Z</time></trkpt><trkpt lat="39.2963820754137" lon="9.533099461795926"><ele>59.0</ele><time>2026-04-18T16:03:16Z</time></trkpt><trkpt lat="39.29665271378001" lon="9.53325374625848"><ele>59.0</ele><time>2026-04-18T16:03:17Z</time></trkpt><trkpt lat="39.29692238527288" lon="9.53341555307583"><ele>59.0</ele><time>2026-04-18T16:03:18Z</time></trkpt><trkpt lat="39.29718681571574" lon="9.533585346930053"><ele>58.5</ele><time>2026-04-18T16:03:19Z</time></trkpt><trkpt lat="39.297447672058105" lon="9.53375684647123"><ele>58.0</ele><time>2026-04-18T16:03:20Z</time></trkpt><trkpt lat="39.29770931862745" lon="9.533927881219645"><ele>58.0</ele><time>2026-04-18T16:03:21Z</time></trkpt><trkpt lat="39.29797224360817" lon="9.534097824846208"><ele>58.0</ele><time>2026-04-18T16:03:22Z</time></trkpt><trkpt lat="39.29823216928811" lon="9.534265675627198"><ele>58.5</ele><time>2026-04-18T16:03:23Z</time></trkpt><trkpt lat="39.29849226044031" lon="9.534434789978393"><ele>59.0</ele><time>2026-04-18T16:03:24Z</time></trkpt><trkpt lat="39.298748284524876" lon="9.5346025926371"><ele>62.0</ele><time>2026-04-18T16:03:25Z</time></trkpt><trkpt lat="39.299007648468674" lon="9.534771390366025"><ele>65.0</ele><time>2026-04-18T16:03:26Z</time></trkpt><trkpt lat="39.29926509660593" lon="9.53493919055153"><ele>65.0</ele><time>2026-04-18T16:03:27Z</time></trkpt><trkpt lat="39.299529333437995" lon="9.535114059877397"><ele>65.0</ele><time>2026-04-18T16:03:28Z</time></trkpt><trkpt lat="39.299785017223904" lon="9.535285703937197"><ele>68.5</ele><time>2026-04-18T16:03:29Z</time></trkpt><trkpt lat="39.3000453878065" lon="9.535462585671219"><ele>72.0</ele><time>2026-04-18T16:03:30Z</time></trkpt><trkpt lat="39.300307406974824" lon="9.535637411233163"><ele>72.0</ele><time>2026-04-18T16:03:31Z</time></trkpt><trkpt lat="39.30056901476976" lon="9.535806829964661"><ele>72.0</ele><time>2026-04-18T16:03:32Z</time></trkpt><trkpt lat="39.30083513808428" lon="9.535975081760343"><ele>71.5</ele><time>2026-04-18T16:03:33Z</time></trkpt><trkpt lat="39.30109950430463" lon="9.536141445006454"><ele>71.0</ele><time>2026-04-18T16:03:34Z</time></trkpt><trkpt lat="39.301361479742454" lon="9.536310408383503"><ele>68.0</ele><time>2026-04-18T16:03:35Z</time></trkpt><trkpt lat="39.30162000868744" lon="9.536482619985502"><ele>65.0</ele><time>2026-04-18T16:03:36Z</time></trkpt><trkpt lat="39.30188092169752" lon="9.536655102265392"><ele>65.0</ele><time>2026-04-18T16:03:37Z</time></trkpt><trkpt lat="39.30214287333387" lon="9.536825993619523"><ele>65.0</ele><time>2026-04-18T16:03:38Z</time></trkpt><trkpt lat="39.30240530348886" lon="9.53699553924068"><ele>68.5</ele><time>2026-04-18T16:03:39Z</time></trkpt><trkpt lat="39.3026718287291" lon="9.537166813373783"><ele>72.0</ele><time>2026-04-18T16:03:40Z</time></trkpt><trkpt lat="39.30294013561063" lon="9.53733916915945"><ele>67.0</ele><time>2026-04-18T16:03:41Z</time></trkpt><trkpt lat="39.30320982852273" lon="9.537514537842702"><ele>62.0</ele><time>2026-04-18T16:03:42Z</time></trkpt><trkpt lat="39.303479132929624" lon="9.537692071755007"><ele>62.0</ele><time>2026-04-18T16:03:43Z</time></trkpt><trkpt lat="39.30374855938155" lon="9.537871572948708"><ele>62.0</ele><time>2026-04-18T16:03:44Z</time></trkpt><trkpt lat="39.304020396552794" lon="9.538051984662994"><ele>62.5</ele><time>2026-04-18T16:03:45Z</time></trkpt><trkpt lat="39.30429036934466" lon="9.538231038241436"><ele>63.0</ele><time>2026-04-18T16:03:46Z</time></trkpt><trkpt lat="39.30455923892272" lon="9.5384068128304"><ele>62.0</ele><time>2026-04-18T16:03:47Z</time></trkpt><trkpt lat="39.30482857419905" lon="9.53858122650867"><ele>61.0</ele><time>2026-04-18T16:03:48Z</time></trkpt><trkpt lat="39.30509573390023" lon="9.5387546751512"><ele>61.0</ele><time>2026-04-18T16:03:49Z</time></trkpt><trkpt lat="39.30536306698576" lon="9.538926583257691"><ele>61.0</ele><time>2026-04-18T16:03:50Z</time></trkpt><trkpt lat="39.30562886644075" lon="9.539100475879337"><ele>55.0</ele><time>2026-04-18T16:03:51Z</time></trkpt><trkpt lat="39.30589192250284" lon="9.539272682010573"><ele>49.0</ele><time>2026-04-18T16:03:52Z</time></trkpt><trkpt lat="39.3061530086712" lon="9.539443652382317"><ele>46.0</ele><time>2026-04-18T16:03:53Z</time></trkpt><trkpt lat="39.30641170855791" lon="9.539612973697926"><ele>43.0</ele><time>2026-04-18T16:03:54Z</time></trkpt><trkpt lat="39.306676936013204" lon="9.539782501134574"><ele>43.0</ele><time>2026-04-18T16:03:55Z</time></trkpt><trkpt lat="39.30694179286305" lon="9.539953755509645"><ele>43.0</ele><time>2026-04-18T16:03:56Z</time></trkpt><trkpt lat="39.3072065096189" lon="9.540125755671397"><ele>42.5</ele><time>2026-04-18T16:03:57Z</time></trkpt><trkpt lat="39.30746176879674" lon="9.54029016396687"><ele>42.0</ele><time>2026-04-18T16:03:58Z</time></trkpt><trkpt lat="39.30772166197608" lon="9.540459176898949"><ele>42.0</ele><time>2026-04-18T16:03:59Z</time></trkpt><trkpt lat="39.30798039004945" lon="9.540627844659602"><ele>42.0</ele><time>2026-04-18T16:04:00Z</time></trkpt><trkpt lat="39.308239014015264" lon="9.540798093324629"><ele>41.5</ele><time>2026-04-18T16:04:01Z</time></trkpt><trkpt lat="39.3084965647163" lon="9.540968308457728"><ele>41.0</ele><time>2026-04-18T16:04:02Z</time></trkpt><trkpt lat="39.30875621810446" lon="9.54113910773196"><ele>41.0</ele><time>2026-04-18T16:04:03Z</time></trkpt><trkpt lat="39.309015646699706" lon="9.5413069642274"><ele>41.0</ele><time>2026-04-18T16:04:04Z</time></trkpt><trkpt lat="39.30927766554363" lon="9.541477468898398"><ele>41.0</ele><time>2026-04-18T16:04:05Z</time></trkpt><trkpt lat="39.30953862546308" lon="9.541644363380172"><ele>41.0</ele><time>2026-04-18T16:04:06Z</time></trkpt><trkpt lat="39.30979793555546" lon="9.541810576137188"><ele>40.5</ele><time>2026-04-18T16:04:07Z</time></trkpt><trkpt lat="39.31005899694489" lon="9.541979302605727"><ele>40.0</ele><time>2026-04-18T16:04:08Z</time></trkpt><trkpt lat="39.31032020049499" lon="9.542150939657438"><ele>39.5</ele><time>2026-04-18T16:04:09Z</time></trkpt><trkpt lat="39.31058148893338" lon="9.54232206138711"><ele>39.0</ele><time>2026-04-18T16:04:10Z</time></trkpt><trkpt lat="39.31084313843038" lon="9.542489708469317"><ele>39.0</ele><time>2026-04-18T16:04:11Z</time></trkpt><trkpt lat="39.31110582585483" lon="9.542652473956606"><ele>39.0</ele><time>2026-04-18T16:04:12Z</time></trkpt><trkpt lat="39.3113723287867" lon="9.542809601555858"><ele>38.5</ele><time>2026-04-18T16:04:13Z</time></trkpt><trkpt lat="39.31164285190053" lon="9.54295843572602"><ele>38.0</ele><time>2026-04-18T16:04:14Z</time></trkpt><trkpt lat="39.311916105846954" lon="9.543102265746969"><ele>38.0</ele><time>2026-04-18T16:04:15Z</time></trkpt><trkpt lat="39.31219155579404" lon="9.543238137067727"><ele>38.0</ele><time>2026-04-18T16:04:16Z</time></trkpt><trkpt lat="39.312471687722315" lon="9.54336550717613"><ele>38.0</ele><time>2026-04-18T16:04:17Z</time></trkpt><trkpt lat="39.31275768470484" lon="9.543482745839958"><ele>38.0</ele><time>2026-04-18T16:04:18Z</time></trkpt><trkpt lat="39.31304743100446" lon="9.543590617725867"><ele>37.5</ele><time>2026-04-18T16:04:19Z</time></trkpt><trkpt lat="39.31333878031753" lon="9.543690913479333"><ele>37.0</ele><time>2026-04-18T16:04:20Z</time></trkpt><trkpt lat="39.313633565925336" lon="9.543786277107744"><ele>39.0</ele><time>2026-04-18T16:04:21Z</time></trkpt><trkpt lat="39.31392945578818" lon="9.543876670010754"><ele>41.0</ele><time>2026-04-18T16:04:22Z</time></trkpt><trkpt lat="39.31422354112899" lon="9.543961959412123"><ele>41.0</ele><time>2026-04-18T16:04:23Z</time></trkpt><trkpt lat="39.314520466009455" lon="9.544038253467328"><ele>41.0</ele><time>2026-04-18T16:04:24Z</time></trkpt><trkpt lat="39.31481977848252" lon="9.544101472086368"><ele>41.0</ele><time>2026-04-18T16:04:25Z</time></trkpt><trkpt lat="39.315119107891164" lon="9.544152009349231"><ele>41.0</ele><time>2026-04-18T16:04:26Z</time></trkpt><trkpt lat="39.31541975604121" lon="9.54419352770923"><ele>41.5</ele><time>2026-04-18T16:04:27Z</time></trkpt><trkpt lat="39.31572031065444" lon="9.544229260903013"><ele>42.0</ele><time>2026-04-18T16:04:28Z</time></trkpt><trkpt lat="39.31601646702824" lon="9.544258701637936"><ele>42.0</ele><time>2026-04-18T16:04:29Z</time></trkpt><trkpt lat="39.31631407712126" lon="9.544286087218616"><ele>42.0</ele><time>2026-04-18T16:04:30Z</time></trkpt><trkpt lat="39.31661064607979" lon="9.544312376032533"><ele>40.5</ele><time>2026-04-18T16:04:31Z</time></trkpt><trkpt lat="39.316906580746874" lon="9.544338860932026"><ele>39.0</ele><time>2026-04-18T16:04:32Z</time></trkpt><trkpt lat="39.317201084355005" lon="9.54436709535508"><ele>37.0</ele><time>2026-04-18T16:04:33Z</time></trkpt><trkpt lat="39.31749409510841" lon="9.544396260316375"><ele>35.0</ele><time>2026-04-18T16:04:34Z</time></trkpt><trkpt lat="39.317789448768636" lon="9.544426845443335"><ele>34.0</ele><time>2026-04-18T16:04:35Z</time></trkpt><trkpt lat="39.318086393622856" lon="9.544454785490347"><ele>33.0</ele><time>2026-04-18T16:04:36Z</time></trkpt><trkpt lat="39.31838019924448" lon="9.544481067649555"><ele>33.0</ele><time>2026-04-18T16:04:37Z</time></trkpt><trkpt lat="39.318672651040664" lon="9.54450809463574"><ele>33.0</ele><time>2026-04-18T16:04:38Z</time></trkpt><trkpt lat="39.31896574484082" lon="9.54453981410607"><ele>34.5</ele><time>2026-04-18T16:04:39Z</time></trkpt><trkpt lat="39.31925500080698" lon="9.544576272909012"><ele>36.0</ele><time>2026-04-18T16:04:40Z</time></trkpt><trkpt lat="39.31954032908495" lon="9.54461663538475"><ele>36.5</ele><time>2026-04-18T16:04:41Z</time></trkpt><trkpt lat="39.319823988637914" lon="9.544664392772233"><ele>37.0</ele><time>2026-04-18T16:04:42Z</time></trkpt><trkpt lat="39.32009987906035" lon="9.544717456797857"><ele>37.0</ele><time>2026-04-18T16:04:43Z</time></trkpt><trkpt lat="39.320378047503695" lon="9.544781729788589"><ele>37.0</ele><time>2026-04-18T16:04:44Z</time></trkpt><trkpt lat="39.32066015402297" lon="9.544857640240364"><ele>36.0</ele><time>2026-04-18T16:04:45Z</time></trkpt><trkpt lat="39.320944483294525" lon="9.544939793935052"><ele>35.0</ele><time>2026-04-18T16:04:46Z</time></trkpt><trkpt lat="39.32122137116206" lon="9.545041648044284"><ele>34.0</ele><time>2026-04-18T16:04:47Z</time></trkpt><trkpt lat="39.32149181764935" lon="9.545152132057664"><ele>33.0</ele><time>2026-04-18T16:04:48Z</time></trkpt><trkpt lat="39.321761333919625" lon="9.54526427831314"><ele>33.0</ele><time>2026-04-18T16:04:49Z</time></trkpt><trkpt lat="39.322030578321424" lon="9.545375460070087"><ele>33.0</ele><time>2026-04-18T16:04:50Z</time></trkpt><trkpt lat="39.32229768828938" lon="9.545490387797894"><ele>34.5</ele><time>2026-04-18T16:04:51Z</time></trkpt><trkpt lat="39.32256141144965" lon="9.545609806743437"><ele>36.0</ele><time>2026-04-18T16:04:52Z</time></trkpt><trkpt lat="39.32282409036892" lon="9.545735473648993"><ele>35.0</ele><time>2026-04-18T16:04:53Z</time></trkpt><trkpt lat="39.32308561351005" lon="9.545866142116495"><ele>34.0</ele><time>2026-04-18T16:04:54Z</time></trkpt><trkpt lat="39.32334832213509" lon="9.546002382859623"><ele>34.0</ele><time>2026-04-18T16:04:55Z</time></trkpt><trkpt lat="39.32361087433083" lon="9.546140878162005"><ele>34.0</ele><time>2026-04-18T16:04:56Z</time></trkpt><trkpt lat="39.32387519734532" lon="9.546276779064822"><ele>33.5</ele><time>2026-04-18T16:04:57Z</time></trkpt><trkpt lat="39.32414034546533" lon="9.546413207069024"><ele>33.0</ele><time>2026-04-18T16:04:58Z</time></trkpt><trkpt lat="39.32440347383133" lon="9.546554451446486"><ele>33.0</ele><time>2026-04-18T16:04:59Z</time></trkpt><trkpt lat="39.324667385479295" lon="9.546701674859289"><ele>33.0</ele><time>2026-04-18T16:05:00Z</time></trkpt><trkpt lat="39.32493106791719" lon="9.546847080741223"><ele>33.5</ele><time>2026-04-18T16:05:01Z</time></trkpt><trkpt lat="39.325198652202104" lon="9.546991424174868"><ele>34.0</ele><time>2026-04-18T16:05:02Z</time></trkpt><trkpt lat="39.325464643998345" lon="9.547133530413642"><ele>34.5</ele><time>2026-04-18T16:05:03Z</time></trkpt><trkpt lat="39.32573180637786" lon="9.54727498245428"><ele>35.0</ele><time>2026-04-18T16:05:04Z</time></trkpt><trkpt lat="39.326000281531925" lon="9.547417185152327"><ele>35.0</ele><time>2026-04-18T16:05:05Z</time></trkpt><trkpt lat="39.32626933563286" lon="9.547559413627358"><ele>35.0</ele><time>2026-04-18T16:05:06Z</time></trkpt><trkpt lat="39.32653844098349" lon="9.54770177341626"><ele>34.5</ele><time>2026-04-18T16:05:07Z</time></trkpt><trkpt lat="39.326808009097576" lon="9.547842500420895"><ele>34.0</ele><time>2026-04-18T16:05:08Z</time></trkpt><trkpt lat="39.32707666067462" lon="9.547981935900935"><ele>34.5</ele><time>2026-04-18T16:05:09Z</time></trkpt><trkpt lat="39.32734817652238" lon="9.548124076508696"><ele>35.0</ele><time>2026-04-18T16:05:10Z</time></trkpt><trkpt lat="39.32762109188036" lon="9.54826530805971"><ele>35.0</ele><time>2026-04-18T16:05:11Z</time></trkpt><trkpt lat="39.32789738726482" lon="9.548408942628694"><ele>35.0</ele><time>2026-04-18T16:05:12Z</time></trkpt><trkpt lat="39.32817251450888" lon="9.548554631616334"><ele>34.0</ele><time>2026-04-18T16:05:13Z</time></trkpt><trkpt lat="39.32844637778651" lon="9.548699855807733"><ele>33.0</ele><time>2026-04-18T16:05:14Z</time></trkpt><trkpt lat="39.32871886445222" lon="9.54884610495277"><ele>31.0</ele><time>2026-04-18T16:05:15Z</time></trkpt><trkpt lat="39.3289930040174" lon="9.548992983639556"><ele>29.0</ele><time>2026-04-18T16:05:16Z</time></trkpt><trkpt lat="39.32926514759137" lon="9.549137109337336"><ele>29.0</ele><time>2026-04-18T16:05:17Z</time></trkpt><trkpt lat="39.32953770634433" lon="9.549279759022578"><ele>29.0</ele><time>2026-04-18T16:05:18Z</time></trkpt><trkpt lat="39.329810517571254" lon="9.549422048457325"><ele>30.5</ele><time>2026-04-18T16:05:19Z</time></trkpt><trkpt lat="39.33008187810995" lon="9.54956299362902"><ele>32.0</ele><time>2026-04-18T16:05:20Z</time></trkpt><trkpt lat="39.33035458987417" lon="9.549706069648984"><ele>31.5</ele><time>2026-04-18T16:05:21Z</time></trkpt><trkpt lat="39.33062538290402" lon="9.549846878020254"><ele>31.0</ele><time>2026-04-18T16:05:22Z</time></trkpt><trkpt lat="39.33089609991924" lon="9.549989843188774"><ele>31.0</ele><time>2026-04-18T16:05:23Z</time></trkpt><trkpt lat="39.3311665461684" lon="9.55013645904705"><ele>31.0</ele><time>2026-04-18T16:05:24Z</time></trkpt><trkpt lat="39.331435858957164" lon="9.550283826513118"><ele>30.5</ele><time>2026-04-18T16:05:25Z</time></trkpt><trkpt lat="39.33170640042141" lon="9.550429332845058"><ele>30.0</ele><time>2026-04-18T16:05:26Z</time></trkpt><trkpt lat="39.33197918027187" lon="9.550571343778516"><ele>28.5</ele><time>2026-04-18T16:05:27Z</time></trkpt><trkpt lat="39.33225213822231" lon="9.550709371350269"><ele>27.0</ele><time>2026-04-18T16:05:28Z</time></trkpt><trkpt lat="39.332526560208784" lon="9.55084199638121"><ele>27.0</ele><time>2026-04-18T16:05:29Z</time></trkpt><trkpt lat="39.33280283936764" lon="9.550969622648084"><ele>27.0</ele><time>2026-04-18T16:05:30Z</time></trkpt><trkpt lat="39.33308105645407" lon="9.551091078908694"><ele>26.0</ele><time>2026-04-18T16:05:31Z</time></trkpt><trkpt lat="39.33336135610156" lon="9.551204526560712"><ele>25.0</ele><time>2026-04-18T16:05:32Z</time></trkpt><trkpt lat="39.33364411954448" lon="9.551310363420365"><ele>21.0</ele><time>2026-04-18T16:05:33Z</time></trkpt><trkpt lat="39.33392883955589" lon="9.551407007352736"><ele>17.0</ele><time>2026-04-18T16:05:34Z</time></trkpt><trkpt lat="39.33421285434024" lon="9.551497221928214"><ele>17.0</ele><time>2026-04-18T16:05:35Z</time></trkpt><trkpt lat="39.3345000905852" lon="9.55158234011426"><ele>17.0</ele><time>2026-04-18T16:05:36Z</time></trkpt><trkpt lat="39.33478692747992" lon="9.551659376330257"><ele>15.5</ele><time>2026-04-18T16:05:37Z</time></trkpt><trkpt lat="39.33507716209334" lon="9.55172888434543"><ele>14.0</ele><time>2026-04-18T16:05:38Z</time></trkpt><trkpt lat="39.33536938755417" lon="9.551788814525322"><ele>13.5</ele><time>2026-04-18T16:05:39Z</time></trkpt><trkpt lat="39.335662894235256" lon="9.551838690008628"><ele>13.0</ele><time>2026-04-18T16:05:40Z</time></trkpt><trkpt lat="39.33595826493739" lon="9.551879730476887"><ele>13.0</ele><time>2026-04-18T16:05:41Z</time></trkpt><trkpt lat="39.33625359853118" lon="9.55191243727299"><ele>13.0</ele><time>2026-04-18T16:05:42Z</time></trkpt><trkpt lat="39.3365507423427" lon="9.551938025992575"><ele>14.5</ele><time>2026-04-18T16:05:43Z</time></trkpt><trkpt lat="39.33684870316442" lon="9.55195574547756"><ele>16.0</ele><time>2026-04-18T16:05:44Z</time></trkpt><trkpt lat="39.33714345996948" lon="9.551965663835432"><ele>13.0</ele><time>2026-04-18T16:05:45Z</time></trkpt><trkpt lat="39.33744040959215" lon="9.551967976115261"><ele>10.0</ele><time>2026-04-18T16:05:46Z</time></trkpt><trkpt lat="39.33773846008978" lon="9.55195992269422"><ele>10.0</ele><time>2026-04-18T16:05:47Z</time></trkpt><trkpt lat="39.33803226860025" lon="9.551942039137886"><ele>10.0</ele><time>2026-04-18T16:05:48Z</time></trkpt><trkpt lat="39.33832656039695" lon="9.551915152281737"><ele>8.5</ele><time>2026-04-18T16:05:49Z</time></trkpt><trkpt lat="39.33862289262671" lon="9.551881763490579"><ele>7.0</ele><time>2026-04-18T16:05:50Z</time></trkpt><trkpt lat="39.33891465592909" lon="9.551839818008782"><ele>6.5</ele><time>2026-04-18T16:05:51Z</time></trkpt><trkpt lat="39.33920951676875" lon="9.551790220727552"><ele>6.0</ele><time>2026-04-18T16:05:52Z</time></trkpt><trkpt lat="39.339502176271864" lon="9.551732095900219"><ele>5.0</ele><time>2026-04-18T16:05:53Z</time></trkpt><trkpt lat="39.33979868254438" lon="9.551664216490778"><ele>4.0</ele><time>2026-04-18T16:05:54Z</time></trkpt><trkpt lat="39.340088276276546" lon="9.55159069878243"><ele>4.0</ele><time>2026-04-18T16:05:55Z</time></trkpt><trkpt lat="39.340381652360804" lon="9.551505000909025"><ele>4.0</ele><time>2026-04-18T16:05:56Z</time></trkpt><trkpt lat="39.3406718980668" lon="9.551411677339216"><ele>3.5</ele><time>2026-04-18T16:05:57Z</time></trkpt><trkpt lat="39.340961790819655" lon="9.551316213619083"><ele>3.0</ele><time>2026-04-18T16:05:58Z</time></trkpt><trkpt lat="39.34125484497988" lon="9.55121864996904"><ele>3.0</ele><time>2026-04-18T16:05:59Z</time></trkpt><trkpt lat="39.34154499812442" lon="9.551124007388857"><ele>3.0</ele><time>2026-04-18T16:06:00Z</time></trkpt><trkpt lat="39.34183446908889" lon="9.551032921593862"><ele>3.0</ele><time>2026-04-18T16:06:01Z</time></trkpt><trkpt lat="39.34212726298583" lon="9.55094367309978"><ele>3.0</ele><time>2026-04-18T16:06:02Z</time></trkpt><trkpt lat="39.34241799139654" lon="9.55085419791146"><ele>4.5</ele><time>2026-04-18T16:06:03Z</time></trkpt><trkpt lat="39.34270990625033" lon="9.550761264720304"><ele>6.0</ele><time>2026-04-18T16:06:04Z</time></trkpt><trkpt lat="39.34299717088002" lon="9.550664743286065"><ele>5.5</ele><time>2026-04-18T16:06:05Z</time></trkpt><trkpt lat="39.343284797921484" lon="9.550566025300556"><ele>5.0</ele><time>2026-04-18T16:06:06Z</time></trkpt><trkpt lat="39.343570225851906" lon="9.550466187314433"><ele>5.0</ele><time>2026-04-18T16:06:07Z</time></trkpt><trkpt lat="39.3438584370637" lon="9.550370225091903"><ele>5.0</ele><time>2026-04-18T16:06:08Z</time></trkpt><trkpt lat="39.34414695537911" lon="9.550275349912745"><ele>5.5</ele><time>2026-04-18T16:06:09Z</time></trkpt><trkpt lat="39.34443625199672" lon="9.550181093759859"><ele>6.0</ele><time>2026-04-18T16:06:10Z</time></trkpt><trkpt lat="39.34472371317765" lon="9.550085759659291"><ele>6.0</ele><time>2026-04-18T16:06:11Z</time></trkpt><trkpt lat="39.34501137962421" lon="9.549988295917707"><ele>6.0</ele><time>2026-04-18T16:06:12Z</time></trkpt><trkpt lat="39.345299132012045" lon="9.549891407556014"><ele>6.5</ele><time>2026-04-18T16:06:13Z</time></trkpt><trkpt lat="39.34558161197231" lon="9.549796889074813"><ele>7.0</ele><time>2026-04-18T16:06:14Z</time></trkpt><trkpt lat="39.34586524552613" lon="9.549702833762783"><ele>7.0</ele><time>2026-04-18T16:06:15Z</time></trkpt><trkpt lat="39.346150701135834" lon="9.549609865580157"><ele>7.0</ele><time>2026-04-18T16:06:16Z</time></trkpt><trkpt lat="39.346435000120564" lon="9.549518987182493"><ele>8.0</ele><time>2026-04-18T16:06:17Z</time></trkpt><trkpt lat="39.346716924765474" lon="9.549427728928007"><ele>9.0</ele><time>2026-04-18T16:06:18Z</time></trkpt><trkpt lat="39.3469989643456" lon="9.549332815711404"><ele>8.5</ele><time>2026-04-18T16:06:19Z</time></trkpt><trkpt lat="39.34727982902412" lon="9.549237625883801"><ele>8.0</ele><time>2026-04-18T16:06:20Z</time></trkpt><trkpt lat="39.347561969209636" lon="9.549142347235962"><ele>8.0</ele><time>2026-04-18T16:06:21Z</time></trkpt><trkpt lat="39.347843184510616" lon="9.549050295563449"><ele>8.0</ele><time>2026-04-18T16:06:22Z</time></trkpt><trkpt lat="39.348126331728366" lon="9.548957870733968"><ele>9.0</ele><time>2026-04-18T16:06:23Z</time></trkpt><trkpt lat="39.34840527007319" lon="9.548864764338338"><ele>10.0</ele><time>2026-04-18T16:06:24Z</time></trkpt><trkpt lat="39.34868299632757" lon="9.5487709748394"><ele>16.0</ele><time>2026-04-18T16:06:25Z</time></trkpt><trkpt lat="39.34895914672433" lon="9.548678065862411"><ele>22.0</ele><time>2026-04-18T16:06:26Z</time></trkpt><trkpt lat="39.349234415112804" lon="9.54858506105883"><ele>22.0</ele><time>2026-04-18T16:06:27Z</time></trkpt><trkpt lat="39.34954178027587" lon="9.548484043951381"><ele>22.0</ele><time>2026-04-18T16:06:28Z</time></trkpt><trkpt lat="39.34982375309889" lon="9.54838565699521"><ele>23.0</ele><time>2026-04-18T16:06:29Z</time></trkpt><trkpt lat="39.35009898289565" lon="9.548283169817097"><ele>24.0</ele><time>2026-04-18T16:06:30Z</time></trkpt><trkpt lat="39.35037120378921" lon="9.548170583220259"><ele>22.0</ele><time>2026-04-18T16:06:31Z</time></trkpt><trkpt lat="39.350640861336394" lon="9.548043522246331"><ele>20.0</ele><time>2026-04-18T16:06:32Z</time></trkpt><trkpt lat="39.35090692125571" lon="9.547905323241388"><ele>19.5</ele><time>2026-04-18T16:06:33Z</time></trkpt><trkpt lat="39.351170262599396" lon="9.547756992311928"><ele>19.0</ele><time>2026-04-18T16:06:34Z</time></trkpt><trkpt lat="39.351434142956585" lon="9.547603006673242"><ele>19.0</ele><time>2026-04-18T16:06:35Z</time></trkpt><trkpt lat="39.35170790136142" lon="9.547438454345292"><ele>19.0</ele><time>2026-04-18T16:06:36Z</time></trkpt><trkpt lat="39.351997496573595" lon="9.54727206110359"><ele>17.5</ele><time>2026-04-18T16:06:37Z</time></trkpt><trkpt lat="39.352283569632746" lon="9.547106296654903"><ele>16.0</ele><time>2026-04-18T16:06:38Z</time></trkpt><trkpt lat="39.35256018624362" lon="9.546922509838607"><ele>16.0</ele><time>2026-04-18T16:06:39Z</time></trkpt><trkpt lat="39.35282734265718" lon="9.546722594902677"><ele>16.0</ele><time>2026-04-18T16:06:40Z</time></trkpt><trkpt lat="39.35308531238166" lon="9.546512909968731"><ele>15.5</ele><time>2026-04-18T16:06:41Z</time></trkpt><trkpt lat="39.353339259428154" lon="9.54629907877734"><ele>15.0</ele><time>2026-04-18T16:06:42Z</time></trkpt><trkpt lat="39.35358802457538" lon="9.54608610352441"><ele>15.0</ele><time>2026-04-18T16:06:43Z</time></trkpt><trkpt lat="39.353829370818566" lon="9.545871267143797"><ele>15.0</ele><time>2026-04-18T16:06:44Z</time></trkpt><trkpt lat="39.354066662003156" lon="9.545650116986033"><ele>15.0</ele><time>2026-04-18T16:06:45Z</time></trkpt><trkpt lat="39.35429781781211" lon="9.545425318785655"><ele>15.0</ele><time>2026-04-18T16:06:46Z</time></trkpt><trkpt lat="39.3545243084994" lon="9.54519622664853"><ele>13.5</ele><time>2026-04-18T16:06:47Z</time></trkpt><trkpt lat="39.354745053315874" lon="9.544964387837117"><ele>12.0</ele><time>2026-04-18T16:06:48Z</time></trkpt><trkpt lat="39.35496473262624" lon="9.544733552869637"><ele>15.5</ele><time>2026-04-18T16:06:49Z</time></trkpt><trkpt lat="39.35518676860681" lon="9.544512910584757"><ele>19.0</ele><time>2026-04-18T16:06:50Z</time></trkpt><trkpt lat="39.355412525239814" lon="9.544298586270838"><ele>16.0</ele><time>2026-04-18T16:06:51Z</time></trkpt><trkpt lat="39.35563733377538" lon="9.544085515691789"><ele>13.0</ele><time>2026-04-18T16:06:52Z</time></trkpt><trkpt lat="39.355858682366254" lon="9.543870446136543"><ele>14.5</ele><time>2026-04-18T16:06:53Z</time></trkpt><trkpt lat="39.356076990834275" lon="9.543652093808149"><ele>16.0</ele><time>2026-04-18T16:06:54Z</time></trkpt><trkpt lat="39.35629614011084" lon="9.543432562454019"><ele>12.5</ele><time>2026-04-18T16:06:55Z</time></trkpt><trkpt lat="39.3565133058267" lon="9.54321371775101"><ele>9.0</ele><time>2026-04-18T16:06:56Z</time></trkpt><trkpt lat="39.35673225223815" lon="9.542995600451725"><ele>11.0</ele><time>2026-04-18T16:06:57Z</time></trkpt><trkpt lat="39.35695159747279" lon="9.542779217286364"><ele>13.0</ele><time>2026-04-18T16:06:58Z</time></trkpt><trkpt lat="39.35717217299066" lon="9.542562512154273"><ele>12.5</ele><time>2026-04-18T16:06:59Z</time></trkpt><trkpt lat="39.35739366448933" lon="9.542347186666507"><ele>12.0</ele><time>2026-04-18T16:07:00Z</time></trkpt><trkpt lat="39.35761624175043" lon="9.542134832003141"><ele>12.0</ele><time>2026-04-18T16:07:01Z</time></trkpt><trkpt lat="39.35784226459105" lon="9.541926652677043"><ele>12.0</ele><time>2026-04-18T16:07:02Z</time></trkpt><trkpt lat="39.358072619897115" lon="9.541725410339247"><ele>12.0</ele><time>2026-04-18T16:07:03Z</time></trkpt><trkpt lat="39.35830795239114" lon="9.54153467321832"><ele>12.0</ele><time>2026-04-18T16:07:04Z</time></trkpt><trkpt lat="39.35854990345479" lon="9.54134900099097"><ele>11.5</ele><time>2026-04-18T16:07:05Z</time></trkpt><trkpt lat="39.358797839295995" lon="9.54116509742148"><ele>11.0</ele><time>2026-04-18T16:07:06Z</time></trkpt><trkpt lat="39.35904572818815" lon="9.540982468660378"><ele>10.5</ele><time>2026-04-18T16:07:07Z</time></trkpt><trkpt lat="39.35929774956493" lon="9.540803959274553"><ele>10.0</ele><time>2026-04-18T16:07:08Z</time></trkpt><trkpt lat="39.35955334249827" lon="9.540634790306305"><ele>10.0</ele><time>2026-04-18T16:07:09Z</time></trkpt><trkpt lat="39.35981378027382" lon="9.54047469283207"><ele>10.0</ele><time>2026-04-18T16:07:10Z</time></trkpt><trkpt lat="39.36007812376211" lon="9.5403236463963"><ele>10.0</ele><time>2026-04-18T16:07:11Z</time></trkpt><trkpt lat="39.36034554920538" lon="9.540179722010409"><ele>10.0</ele><time>2026-04-18T16:07:12Z</time></trkpt><trkpt lat="39.360613011226846" lon="9.540040932738455"><ele>11.0</ele><time>2026-04-18T16:07:13Z</time></trkpt><trkpt lat="39.360880713005656" lon="9.539908481415218"><ele>12.0</ele><time>2026-04-18T16:07:14Z</time></trkpt><trkpt lat="39.361148767355765" lon="9.539783332864205"><ele>13.0</ele><time>2026-04-18T16:07:15Z</time></trkpt><trkpt lat="39.36141850511409" lon="9.539667586795183"><ele>14.0</ele><time>2026-04-18T16:07:16Z</time></trkpt><trkpt lat="39.36168861545041" lon="9.539565141388515"><ele>14.0</ele><time>2026-04-18T16:07:17Z</time></trkpt><trkpt lat="39.36196207280978" lon="9.539473048269434"><ele>14.0</ele><time>2026-04-18T16:07:18Z</time></trkpt><trkpt lat="39.362235916108446" lon="9.539390164453984"><ele>14.0</ele><time>2026-04-18T16:07:19Z</time></trkpt><trkpt lat="39.362509470369794" lon="9.539308437118798"><ele>14.0</ele><time>2026-04-18T16:07:20Z</time></trkpt><trkpt lat="39.36278511838196" lon="9.539232417409549"><ele>12.5</ele><time>2026-04-18T16:07:21Z</time></trkpt><trkpt lat="39.36305974257345" lon="9.539162454536969"><ele>11.0</ele><time>2026-04-18T16:07:22Z</time></trkpt><trkpt lat="39.36333293274217" lon="9.539103807764409"><ele>11.0</ele><time>2026-04-18T16:07:23Z</time></trkpt><trkpt lat="39.3636073482193" lon="9.539051761402172"><ele>11.0</ele><time>2026-04-18T16:07:24Z</time></trkpt><trkpt lat="39.363883696573744" lon="9.539001151525689"><ele>9.5</ele><time>2026-04-18T16:07:25Z</time></trkpt><trkpt lat="39.36415755679219" lon="9.53894918102846"><ele>8.0</ele><time>2026-04-18T16:07:26Z</time></trkpt><trkpt lat="39.364428924252444" lon="9.538894572254566"><ele>9.0</ele><time>2026-04-18T16:07:27Z</time></trkpt><trkpt lat="39.364703259665035" lon="9.538838850147032"><ele>10.0</ele><time>2026-04-18T16:07:28Z</time></trkpt><trkpt lat="39.3649763459723" lon="9.538781240488637"><ele>10.0</ele><time>2026-04-18T16:07:29Z</time></trkpt><trkpt lat="39.365248872501745" lon="9.538724061904515"><ele>10.0</ele><time>2026-04-18T16:07:30Z</time></trkpt><trkpt lat="39.365525330842395" lon="9.538669359188578"><ele>13.0</ele><time>2026-04-18T16:07:31Z</time></trkpt><trkpt lat="39.36579843431649" lon="9.538615930441802"><ele>16.0</ele><time>2026-04-18T16:07:32Z</time></trkpt><trkpt lat="39.366074315601196" lon="9.538562702558425"><ele>16.0</ele><time>2026-04-18T16:07:33Z</time></trkpt><trkpt lat="39.36635080561314" lon="9.538507510771305"><ele>16.0</ele><time>2026-04-18T16:07:34Z</time></trkpt><trkpt lat="39.36662434461057" lon="9.538449922952715"><ele>17.5</ele><time>2026-04-18T16:07:35Z</time></trkpt><trkpt lat="39.366898839628114" lon="9.538393511894341"><ele>19.0</ele><time>2026-04-18T16:07:36Z</time></trkpt><trkpt lat="39.36717374764108" lon="9.538338389306642"><ele>22.0</ele><time>2026-04-18T16:07:37Z</time></trkpt><trkpt lat="39.367446374973746" lon="9.538284837607053"><ele>25.0</ele><time>2026-04-18T16:07:38Z</time></trkpt><trkpt lat="39.3677196385203" lon="9.538231129676419"><ele>25.0</ele><time>2026-04-18T16:07:39Z</time></trkpt><trkpt lat="39.367989466015196" lon="9.538180471120796"><ele>25.0</ele><time>2026-04-18T16:07:40Z</time></trkpt><trkpt lat="39.36825901126672" lon="9.538130222675852"><ele>27.0</ele><time>2026-04-18T16:07:41Z</time></trkpt><trkpt lat="39.368530507350016" lon="9.538080532625797"><ele>29.0</ele><time>2026-04-18T16:07:42Z</time></trkpt><trkpt lat="39.368800167615944" lon="9.538028719806524"><ele>30.0</ele><time>2026-04-18T16:07:43Z</time></trkpt><trkpt lat="39.369068826556514" lon="9.537975690194015"><ele>31.0</ele><time>2026-04-18T16:07:44Z</time></trkpt><trkpt lat="39.3693380217722" lon="9.537922834436564"><ele>31.0</ele><time>2026-04-18T16:07:45Z</time></trkpt><trkpt lat="39.36960604409176" lon="9.537870966058247"><ele>31.0</ele><time>2026-04-18T16:07:46Z</time></trkpt><trkpt lat="39.369874145090805" lon="9.537821732918811"><ele>33.0</ele><time>2026-04-18T16:07:47Z</time></trkpt><trkpt lat="39.370142865106345" lon="9.537773399940995"><ele>35.0</ele><time>2026-04-18T16:07:48Z</time></trkpt><trkpt lat="39.37041326263086" lon="9.537724559150295"><ele>35.5</ele><time>2026-04-18T16:07:49Z</time></trkpt><trkpt lat="39.37068159962127" lon="9.537673453359757"><ele>36.0</ele><time>2026-04-18T16:07:50Z</time></trkpt><trkpt lat="39.370950955680414" lon="9.537621801457496"><ele>36.0</ele><time>2026-04-18T16:07:51Z</time></trkpt><trkpt lat="39.37122028219064" lon="9.537569477654905"><ele>36.0</ele><time>2026-04-18T16:07:52Z</time></trkpt><trkpt lat="39.37149434424636" lon="9.537515940030755"><ele>37.0</ele><time>2026-04-18T16:07:53Z</time></trkpt><trkpt lat="39.37176676636655" lon="9.537463755434915"><ele>38.0</ele><time>2026-04-18T16:07:54Z</time></trkpt><trkpt lat="39.37204080115367" lon="9.537413310699183"><ele>39.5</ele><time>2026-04-18T16:07:55Z</time></trkpt><trkpt lat="39.37231266820974" lon="9.537363673472624"><ele>41.0</ele><time>2026-04-18T16:07:56Z</time></trkpt><trkpt lat="39.37258448153157" lon="9.537312907348499"><ele>41.0</ele><time>2026-04-18T16:07:57Z</time></trkpt><trkpt lat="39.37285431597557" lon="9.537256166971542"><ele>41.0</ele><time>2026-04-18T16:07:58Z</time></trkpt><trkpt lat="39.37312161386371" lon="9.537200344651493"><ele>41.0</ele><time>2026-04-18T16:07:59Z</time></trkpt><trkpt lat="39.37339131149363" lon="9.537169732779894"><ele>41.0</ele><time>2026-04-18T16:08:00Z</time></trkpt><trkpt lat="39.37365714862375" lon="9.537119186024801"><ele>42.0</ele><time>2026-04-18T16:08:01Z</time></trkpt><trkpt lat="39.37392620643758" lon="9.537067346172721"><ele>43.0</ele><time>2026-04-18T16:08:02Z</time></trkpt><trkpt lat="39.37419471346765" lon="9.537015612438596"><ele>43.0</ele><time>2026-04-18T16:08:03Z</time></trkpt><trkpt lat="39.374462810066326" lon="9.536964282158806"><ele>43.0</ele><time>2026-04-18T16:08:04Z</time></trkpt><trkpt lat="39.37472865757701" lon="9.536899382812866"><ele>44.0</ele><time>2026-04-18T16:08:05Z</time></trkpt><trkpt lat="39.374995639805775" lon="9.536858068613586"><ele>45.0</ele><time>2026-04-18T16:08:06Z</time></trkpt><trkpt lat="39.37526085936607" lon="9.536816564367053"><ele>46.5</ele><time>2026-04-18T16:08:07Z</time></trkpt><trkpt lat="39.375528702195055" lon="9.53677195895539"><ele>48.0</ele><time>2026-04-18T16:08:08Z</time></trkpt><trkpt lat="39.375793278298424" lon="9.536719888103518"><ele>48.0</ele><time>2026-04-18T16:08:09Z</time></trkpt><trkpt lat="39.376056933775594" lon="9.536669271333434"><ele>48.0</ele><time>2026-04-18T16:08:10Z</time></trkpt><trkpt lat="39.37632121926802" lon="9.536618766160595"><ele>49.0</ele><time>2026-04-18T16:08:11Z</time></trkpt><trkpt lat="39.37658592950055" lon="9.536568640966918"><ele>50.0</ele><time>2026-04-18T16:08:12Z</time></trkpt><trkpt lat="39.37684826712185" lon="9.536518182863858"><ele>50.0</ele><time>2026-04-18T16:08:13Z</time></trkpt><trkpt lat="39.37711234949061" lon="9.536469447711585"><ele>50.0</ele><time>2026-04-18T16:08:14Z</time></trkpt><trkpt lat="39.37737549870483" lon="9.536422933540575"><ele>50.0</ele><time>2026-04-18T16:08:15Z</time></trkpt><trkpt lat="39.37763673419154" lon="9.536374709231756"><ele>50.0</ele><time>2026-04-18T16:08:16Z</time></trkpt><trkpt lat="39.377898997250576" lon="9.536323961513737"><ele>52.0</ele><time>2026-04-18T16:08:17Z</time></trkpt><trkpt lat="39.37816032486998" lon="9.536277108285011"><ele>54.0</ele><time>2026-04-18T16:08:18Z</time></trkpt><trkpt lat="39.37842116887083" lon="9.536236492523763"><ele>54.0</ele><time>2026-04-18T16:08:19Z</time></trkpt><trkpt lat="39.378684708455836" lon="9.536203160780328"><ele>54.0</ele><time>2026-04-18T16:08:20Z</time></trkpt><trkpt lat="39.378947150984416" lon="9.536167394869565"><ele>55.5</ele><time>2026-04-18T16:08:21Z</time></trkpt><trkpt lat="39.37920903827986" lon="9.536138694235785"><ele>57.0</ele><time>2026-04-18T16:08:22Z</time></trkpt><trkpt lat="39.37947141533881" lon="9.536106308130693"><ele>58.5</ele><time>2026-04-18T16:08:23Z</time></trkpt><trkpt lat="39.37973475229521" lon="9.53608283225264"><ele>60.0</ele><time>2026-04-18T16:08:24Z</time></trkpt><trkpt lat="39.37999807310056" lon="9.536067826103153"><ele>60.0</ele><time>2026-04-18T16:08:25Z</time></trkpt><trkpt lat="39.3802629704175" lon="9.53605941671883"><ele>60.0</ele><time>2026-04-18T16:08:26Z</time></trkpt><trkpt lat="39.380526636236986" lon="9.536056985140757"><ele>63.5</ele><time>2026-04-18T16:08:27Z</time></trkpt><trkpt lat="39.3807925891568" lon="9.53606342371965"><ele>67.0</ele><time>2026-04-18T16:08:28Z</time></trkpt><trkpt lat="39.3810596512421" lon="9.536078693278652"><ele>67.0</ele><time>2026-04-18T16:08:29Z</time></trkpt><trkpt lat="39.38132589972282" lon="9.536101407199187"><ele>67.0</ele><time>2026-04-18T16:08:30Z</time></trkpt><trkpt lat="39.38159117206009" lon="9.536134947396999"><ele>68.0</ele><time>2026-04-18T16:08:31Z</time></trkpt><trkpt lat="39.381857708294675" lon="9.53617602188136"><ele>69.0</ele><time>2026-04-18T16:08:32Z</time></trkpt><trkpt lat="39.38212228535513" lon="9.536226058752348"><ele>71.0</ele><time>2026-04-18T16:08:33Z</time></trkpt><trkpt lat="39.382389491313766" lon="9.536283190443667"><ele>73.0</ele><time>2026-04-18T16:08:34Z</time></trkpt><trkpt lat="39.382653861797856" lon="9.536346035608467"><ele>73.0</ele><time>2026-04-18T16:08:35Z</time></trkpt><trkpt lat="39.38291718243792" lon="9.536417744297427"><ele>73.0</ele><time>2026-04-18T16:08:36Z</time></trkpt><trkpt lat="39.383180652719716" lon="9.536501385695612"><ele>74.5</ele><time>2026-04-18T16:08:37Z</time></trkpt><trkpt lat="39.38344123953093" lon="9.536595081573653"><ele>76.0</ele><time>2026-04-18T16:08:38Z</time></trkpt><trkpt lat="39.38369945084057" lon="9.536697691587788"><ele>79.0</ele><time>2026-04-18T16:08:39Z</time></trkpt><trkpt lat="39.38395687756075" lon="9.536809221781775"><ele>82.0</ele><time>2026-04-18T16:08:40Z</time></trkpt><trkpt lat="39.384210885872996" lon="9.536928016233118"><ele>82.5</ele><time>2026-04-18T16:08:41Z</time></trkpt><trkpt lat="39.38446514523404" lon="9.537055010786544"><ele>83.0</ele><time>2026-04-18T16:08:42Z</time></trkpt><trkpt lat="39.38471760953526" lon="9.537187175421126"><ele>83.0</ele><time>2026-04-18T16:08:43Z</time></trkpt><trkpt lat="39.384966663126384" lon="9.537327328146697"><ele>83.0</ele><time>2026-04-18T16:08:44Z</time></trkpt><trkpt lat="39.385212811048014" lon="9.537476201613282"><ele>83.0</ele><time>2026-04-18T16:08:45Z</time></trkpt><trkpt lat="39.385456389944565" lon="9.537639940597481"><ele>83.0</ele><time>2026-04-18T16:08:46Z</time></trkpt><trkpt lat="39.38569394275856" lon="9.537808055867393"><ele>79.5</ele><time>2026-04-18T16:08:47Z</time></trkpt><trkpt lat="39.38593129079032" lon="9.537985383358945"><ele>76.0</ele><time>2026-04-18T16:08:48Z</time></trkpt><trkpt lat="39.38616689036364" lon="9.53816320373292"><ele>79.0</ele><time>2026-04-18T16:08:49Z</time></trkpt><trkpt lat="39.38639934491337" lon="9.538343910812486"><ele>82.0</ele><time>2026-04-18T16:08:50Z</time></trkpt><trkpt lat="39.38662855548252" lon="9.538528777189264"><ele>80.5</ele><time>2026-04-18T16:08:51Z</time></trkpt><trkpt lat="39.38685266572913" lon="9.53872741604082"><ele>79.0</ele><time>2026-04-18T16:08:52Z</time></trkpt><trkpt lat="39.387073271744505" lon="9.538923746748045"><ele>84.0</ele><time>2026-04-18T16:08:53Z</time></trkpt><trkpt lat="39.38729598210702" lon="9.539130603505976"><ele>89.0</ele><time>2026-04-18T16:08:54Z</time></trkpt><trkpt lat="39.3875136513621" lon="9.539331882691984"><ele>89.0</ele><time>2026-04-18T16:08:55Z</time></trkpt><trkpt lat="39.38773398973356" lon="9.539535669401586"><ele>89.0</ele><time>2026-04-18T16:08:56Z</time></trkpt><trkpt lat="39.38795267124211" lon="9.539737853508585"><ele>89.5</ele><time>2026-04-18T16:08:57Z</time></trkpt><trkpt lat="39.38817176957758" lon="9.539941528898504"><ele>90.0</ele><time>2026-04-18T16:08:58Z</time></trkpt><trkpt lat="39.388389949420834" lon="9.540146758775006"><ele>90.0</ele><time>2026-04-18T16:08:59Z</time></trkpt><trkpt lat="39.388608229999676" lon="9.54035478058153"><ele>90.0</ele><time>2026-04-18T16:09:00Z</time></trkpt><trkpt lat="39.388823665058176" lon="9.540563678290171"><ele>93.5</ele><time>2026-04-18T16:09:01Z</time></trkpt><trkpt lat="39.389040577973034" lon="9.540772953499257"><ele>97.0</ele><time>2026-04-18T16:09:02Z</time></trkpt><trkpt lat="39.38925801150099" lon="9.540980693459051"><ele>97.0</ele><time>2026-04-18T16:09:03Z</time></trkpt><trkpt lat="39.389475888678874" lon="9.541187342322957"><ele>97.0</ele><time>2026-04-18T16:09:04Z</time></trkpt><trkpt lat="39.38969677523174" lon="9.541395346099328"><ele>105.0</ele><time>2026-04-18T16:09:05Z</time></trkpt><trkpt lat="39.3899185198705" lon="9.541604928693621"><ele>113.0</ele><time>2026-04-18T16:09:06Z</time></trkpt><trkpt lat="39.390138566170826" lon="9.541816221926394"><ele>113.0</ele><time>2026-04-18T16:09:07Z</time></trkpt><trkpt lat="39.39035806680441" lon="9.542029548922718"><ele>113.0</ele><time>2026-04-18T16:09:08Z</time></trkpt><trkpt lat="39.39057954027176" lon="9.542244815533117"><ele>112.5</ele><time>2026-04-18T16:09:09Z</time></trkpt><trkpt lat="39.390802723374854" lon="9.54245990002756"><ele>112.0</ele><time>2026-04-18T16:09:10Z</time></trkpt><trkpt lat="39.391029256720145" lon="9.54267437447588"><ele>118.0</ele><time>2026-04-18T16:09:11Z</time></trkpt><trkpt lat="39.39125776121291" lon="9.54288981726887"><ele>124.0</ele><time>2026-04-18T16:09:12Z</time></trkpt><trkpt lat="39.39148708435026" lon="9.543108604950463"><ele>129.0</ele><time>2026-04-18T16:09:13Z</time></trkpt><trkpt lat="39.39171839347256" lon="9.543330803166029"><ele>134.0</ele><time>2026-04-18T16:09:14Z</time></trkpt><trkpt lat="39.39195010978818" lon="9.543557397567895"><ele>142.5</ele><time>2026-04-18T16:09:15Z</time></trkpt><trkpt lat="39.392183398158416" lon="9.543787728026553"><ele>151.0</ele><time>2026-04-18T16:09:16Z</time></trkpt><trkpt lat="39.39241962627905" lon="9.54401984668671"><ele>151.0</ele><time>2026-04-18T16:09:17Z</time></trkpt><trkpt lat="39.39266583530227" lon="9.544259950611073"><ele>151.0</ele><time>2026-04-18T16:09:18.026Z</time></trkpt><trkpt lat="39.39290848975584" lon="9.544497911939928"><ele>164.0</ele><time>2026-04-18T16:09:19.026Z</time></trkpt><trkpt lat="39.393152893495774" lon="9.544741183730654"><ele>177.0</ele><time>2026-04-18T16:09:20.025Z</time></trkpt><trkpt lat="39.39338686303152" lon="9.544977598886442"><ele>177.0</ele><time>2026-04-18T16:09:20.975Z</time></trkpt><trkpt lat="39.39361038727666" lon="9.545203369188455"><ele>177.0</ele><time>2026-04-18T16:09:21.875Z</time></trkpt><trkpt lat="39.3938348490574" lon="9.545428521205848"><ele>310.0</ele><time>2026-04-18T16:09:22.775Z</time></trkpt><trkpt lat="39.396077848358054" lon="9.54749160741327"><ele>249.0</ele><time>2026-04-18T16:09:27.371Z</time></trkpt><trkpt lat="39.3965836343569" lon="9.547975764753778"><ele>249.0</ele><time>2026-04-18T16:09:28.371Z</time></trkpt><trkpt lat="39.39709003226129" lon="9.548460507833235"><ele>218.0</ele><time>2026-04-18T16:09:29.371Z</time></trkpt><trkpt lat="39.39759574129837" lon="9.548945604826596"><ele>191.0</ele><time>2026-04-18T16:09:30.371Z</time></trkpt><trkpt lat="39.398101818779665" lon="9.549431124132251"><ele>203.0</ele><time>2026-04-18T16:09:31.372Z</time></trkpt><trkpt lat="39.398607239743406" lon="9.549916013589794"><ele>181.0</ele><time>2026-04-18T16:09:32.371Z</time></trkpt><trkpt lat="39.39911374194534" lon="9.550400472238003"><ele>181.0</ele><time>2026-04-18T16:09:33.371Z</time></trkpt><trkpt lat="39.39962090851563" lon="9.550882893875299"><ele>158.0</ele><time>2026-04-18T16:09:34.371Z</time></trkpt><trkpt lat="39.4001275953075" lon="9.551367132327803"><ele>151.0</ele><time>2026-04-18T16:09:35.371Z</time></trkpt><trkpt lat="39.40063400696573" lon="9.55185130622674"><ele>176.0</ele><time>2026-04-18T16:09:36.372Z</time></trkpt><trkpt lat="39.40114053259409" lon="9.5523355890911"><ele>147.0</ele><time>2026-04-18T16:09:37.372Z</time></trkpt><trkpt lat="39.40164583279633" lon="9.55282033409349"><ele>156.0</ele><time>2026-04-18T16:09:38.371Z</time></trkpt><trkpt lat="39.4021512583937" lon="9.553306130975505"><ele>138.0</ele><time>2026-04-18T16:09:39.371Z</time></trkpt><trkpt lat="39.4022381" lon="9.5533896"><ele>120.0</ele><time>2026-04-18T16:09:40.371Z</time></trkpt><trkpt lat="39.40506094177769" lon="9.556137486008401"><ele>103.0</ele><time>2026-04-18T16:10:10.55Z</time></trkpt><trkpt lat="39.40526873326568" lon="9.556341345938232"><ele>86.0</ele><time>2026-04-18T16:10:11.5Z</time></trkpt><trkpt lat="39.40548279151297" lon="9.556527644233043"><ele>80.5</ele><time>2026-04-18T16:10:12.45Z</time></trkpt><trkpt lat="39.40569437715212" lon="9.556721167544366"><ele>75.0</ele><time>2026-04-18T16:10:13.4Z</time></trkpt><trkpt lat="39.40590468712373" lon="9.556915637071624"><ele>73.0</ele><time>2026-04-18T16:10:14.35Z</time></trkpt><trkpt lat="39.40611466478444" lon="9.557106413482131"><ele>71.0</ele><time>2026-04-18T16:10:15.3Z</time></trkpt><trkpt lat="39.406328724847796" lon="9.557295190475694"><ele>70.5</ele><time>2026-04-18T16:10:16.25Z</time></trkpt><trkpt lat="39.40654256944033" lon="9.557480317210652"><ele>70.0</ele><time>2026-04-18T16:10:17.2Z</time></trkpt><trkpt lat="39.406759435579396" lon="9.557659409098097"><ele>70.0</ele><time>2026-04-18T16:10:18.15Z</time></trkpt><trkpt lat="39.40697976342564" lon="9.557830082515743"><ele>70.0</ele><time>2026-04-18T16:10:19.1Z</time></trkpt><trkpt lat="39.407204128280696" lon="9.557990034431763"><ele>65.5</ele><time>2026-04-18T16:10:20.05Z</time></trkpt><trkpt lat="39.40743087754914" lon="9.558141416176026"><ele>61.0</ele><time>2026-04-18T16:10:21Z</time></trkpt><trkpt lat="39.40767248027447" lon="9.558292919544453"><ele>61.0</ele><time>2026-04-18T16:10:22Z</time></trkpt><trkpt lat="39.40791909853981" lon="9.558434322383654"><ele>61.0</ele><time>2026-04-18T16:10:23Z</time></trkpt><trkpt lat="39.40816849905749" lon="9.558561475642945"><ele>58.0</ele><time>2026-04-18T16:10:24Z</time></trkpt><trkpt lat="39.408421439892685" lon="9.558675242131008"><ele>55.0</ele><time>2026-04-18T16:10:25Z</time></trkpt><trkpt lat="39.408679988844845" lon="9.55877662511733"><ele>58.0</ele><time>2026-04-18T16:10:26Z</time></trkpt><trkpt lat="39.40894009440718" lon="9.558863468878782"><ele>61.0</ele><time>2026-04-18T16:10:27Z</time></trkpt><trkpt lat="39.4092043789935" lon="9.558940222705068"><ele>61.0</ele><time>2026-04-18T16:10:28Z</time></trkpt><trkpt lat="39.409470841165636" lon="9.559006303360674"><ele>61.0</ele><time>2026-04-18T16:10:29Z</time></trkpt><trkpt lat="39.40973429457443" lon="9.559056595510418"><ele>61.5</ele><time>2026-04-18T16:10:30Z</time></trkpt><trkpt lat="39.41000243581952" lon="9.55909204013099"><ele>62.0</ele><time>2026-04-18T16:10:31Z</time></trkpt><trkpt lat="39.41027092160414" lon="9.559112343146163"><ele>60.0</ele><time>2026-04-18T16:10:32Z</time></trkpt><trkpt lat="39.410541031587144" lon="9.559119340970526"><ele>58.0</ele><time>2026-04-18T16:10:33Z</time></trkpt><trkpt lat="39.41081039304247" lon="9.559115961749315"><ele>58.0</ele><time>2026-04-18T16:10:34Z</time></trkpt><trkpt lat="39.41107943099407" lon="9.559098291916976"><ele>58.0</ele><time>2026-04-18T16:10:35Z</time></trkpt><trkpt lat="39.41134698338852" lon="9.559061196918035"><ele>55.5</ele><time>2026-04-18T16:10:36Z</time></trkpt><trkpt lat="39.411612638287764" lon="9.559009442881239"><ele>53.0</ele><time>2026-04-18T16:10:37Z</time></trkpt><trkpt lat="39.4118761717879" lon="9.558951688510213"><ele>53.0</ele><time>2026-04-18T16:10:38Z</time></trkpt><trkpt lat="39.41213878688321" lon="9.55888834865375"><ele>53.0</ele><time>2026-04-18T16:10:39Z</time></trkpt><trkpt lat="39.41240080682121" lon="9.558813006175761"><ele>54.0</ele><time>2026-04-18T16:10:40Z</time></trkpt><trkpt lat="39.41266015119482" lon="9.558725439948624"><ele>55.0</ele><time>2026-04-18T16:10:41Z</time></trkpt><trkpt lat="39.412916042031526" lon="9.558624541630817"><ele>53.0</ele><time>2026-04-18T16:10:42Z</time></trkpt><trkpt lat="39.4131717667719" lon="9.558519732165589"><ele>51.0</ele><time>2026-04-18T16:10:43Z</time></trkpt><trkpt lat="39.41342649802204" lon="9.558409674446036"><ele>51.0</ele><time>2026-04-18T16:10:44Z</time></trkpt><trkpt lat="39.413683236071286" lon="9.558293924315649"><ele>51.0</ele><time>2026-04-18T16:10:45Z</time></trkpt><trkpt lat="39.413941192819976" lon="9.558174265507347"><ele>51.0</ele><time>2026-04-18T16:10:46Z</time></trkpt><trkpt lat="39.41419987014658" lon="9.558051131053253"><ele>51.0</ele><time>2026-04-18T16:10:47Z</time></trkpt><trkpt lat="39.41444391021155" lon="9.557936764366277"><ele>52.0</ele><time>2026-04-18T16:10:48Z</time></trkpt><trkpt lat="39.41469526808437" lon="9.557817710929543"><ele>53.0</ele><time>2026-04-18T16:10:49Z</time></trkpt><trkpt lat="39.41494520018512" lon="9.557700625904564"><ele>53.0</ele><time>2026-04-18T16:10:50Z</time></trkpt><trkpt lat="39.415211985570096" lon="9.557577355125392"><ele>53.0</ele><time>2026-04-18T16:10:51Z</time></trkpt><trkpt lat="39.41546975013526" lon="9.557462305569638"><ele>50.0</ele><time>2026-04-18T16:10:52Z</time></trkpt><trkpt lat="39.415731399409324" lon="9.557355106709753"><ele>47.0</ele><time>2026-04-18T16:10:53Z</time></trkpt><trkpt lat="39.415998141630766" lon="9.557258213573764"><ele>47.0</ele><time>2026-04-18T16:10:54Z</time></trkpt><trkpt lat="39.41625842038803" lon="9.557176523401715"><ele>47.0</ele><time>2026-04-18T16:10:55Z</time></trkpt><trkpt lat="39.41652697827894" lon="9.557101689668379"><ele>44.5</ele><time>2026-04-18T16:10:56Z</time></trkpt><trkpt lat="39.416794429152226" lon="9.55703558389026"><ele>42.0</ele><time>2026-04-18T16:10:57Z</time></trkpt><trkpt lat="39.41706377098" lon="9.55698306598456"><ele>42.0</ele><time>2026-04-18T16:10:58Z</time></trkpt><trkpt lat="39.41733736188653" lon="9.556949224085773"><ele>42.0</ele><time>2026-04-18T16:10:59Z</time></trkpt><trkpt lat="39.41761175660531" lon="9.55693728092168"><ele>42.0</ele><time>2026-04-18T16:11:00Z</time></trkpt><trkpt lat="39.41788680746664" lon="9.556941528705703"><ele>42.0</ele><time>2026-04-18T16:11:01Z</time></trkpt><trkpt lat="39.41815962024642" lon="9.55695686731325"><ele>40.5</ele><time>2026-04-18T16:11:02Z</time></trkpt><trkpt lat="39.41843281149261" lon="9.556982402643413"><ele>39.0</ele><time>2026-04-18T16:11:03Z</time></trkpt><trkpt lat="39.41870528398011" lon="9.55702310215868"><ele>35.5</ele><time>2026-04-18T16:11:04Z</time></trkpt><trkpt lat="39.41897408244488" lon="9.557082750718264"><ele>32.0</ele><time>2026-04-18T16:11:05Z</time></trkpt><trkpt lat="39.4192408949255" lon="9.557158636086442"><ele>32.0</ele><time>2026-04-18T16:11:06Z</time></trkpt><trkpt lat="39.419504360496305" lon="9.557248527444104"><ele>32.0</ele><time>2026-04-18T16:11:07Z</time></trkpt><trkpt lat="39.41976729642249" lon="9.557346695253726"><ele>31.5</ele><time>2026-04-18T16:11:08Z</time></trkpt><trkpt lat="39.420029706092784" lon="9.55744886607884"><ele>31.0</ele><time>2026-04-18T16:11:09Z</time></trkpt><trkpt lat="39.420290774935395" lon="9.557552524693708"><ele>32.5</ele><time>2026-04-18T16:11:10Z</time></trkpt><trkpt lat="39.420552508663164" lon="9.55765690921038"><ele>34.0</ele><time>2026-04-18T16:11:11Z</time></trkpt><trkpt lat="39.42081261941663" lon="9.557763203516368"><ele>30.0</ele><time>2026-04-18T16:11:12Z</time></trkpt><trkpt lat="39.4210725894927" lon="9.557874149418355"><ele>26.0</ele><time>2026-04-18T16:11:13Z</time></trkpt><trkpt lat="39.4213326257739" lon="9.557988798717833"><ele>26.0</ele><time>2026-04-18T16:11:14Z</time></trkpt><trkpt lat="39.421592076260026" lon="9.558102905773191"><ele>26.0</ele><time>2026-04-18T16:11:15Z</time></trkpt><trkpt lat="39.421852302640964" lon="9.558215490843637"><ele>26.0</ele><time>2026-04-18T16:11:16Z</time></trkpt><trkpt lat="39.42211062551829" lon="9.558325566705728"><ele>26.0</ele><time>2026-04-18T16:11:17Z</time></trkpt><trkpt lat="39.42236840679628" lon="9.558437266891827"><ele>27.5</ele><time>2026-04-18T16:11:18Z</time></trkpt><trkpt lat="39.42262741673996" lon="9.55854982581648"><ele>29.0</ele><time>2026-04-18T16:11:19Z</time></trkpt><trkpt lat="39.42288561227021" lon="9.558661881348954"><ele>26.5</ele><time>2026-04-18T16:11:20Z</time></trkpt><trkpt lat="39.42314377286754" lon="9.5587719738644"><ele>24.0</ele><time>2026-04-18T16:11:21Z</time></trkpt><trkpt lat="39.4234019512467" lon="9.558877983879931"><ele>24.0</ele><time>2026-04-18T16:11:22Z</time></trkpt><trkpt lat="39.42365956386036" lon="9.558976268763494"><ele>24.0</ele><time>2026-04-18T16:11:23Z</time></trkpt><trkpt lat="39.423912808645326" lon="9.559065729225516"><ele>25.5</ele><time>2026-04-18T16:11:24Z</time></trkpt><trkpt lat="39.424161521129356" lon="9.559146278190731"><ele>27.0</ele><time>2026-04-18T16:11:25Z</time></trkpt><trkpt lat="39.42440823031631" lon="9.559219489838833"><ele>28.0</ele><time>2026-04-18T16:11:26Z</time></trkpt><trkpt lat="39.42465327401777" lon="9.559284064515738"><ele>29.0</ele><time>2026-04-18T16:11:27Z</time></trkpt><trkpt lat="39.42489381983874" lon="9.55933764709757"><ele>29.0</ele><time>2026-04-18T16:11:28Z</time></trkpt><trkpt lat="39.425128877701205" lon="9.559382153731379"><ele>29.0</ele><time>2026-04-18T16:11:29Z</time></trkpt><trkpt lat="39.425362172965386" lon="9.559418332037486"><ele>25.0</ele><time>2026-04-18T16:11:30Z</time></trkpt><trkpt lat="39.42559165819072" lon="9.559448263293536"><ele>21.0</ele><time>2026-04-18T16:11:31Z</time></trkpt><trkpt lat="39.42581701618908" lon="9.559474384295262"><ele>21.0</ele><time>2026-04-18T16:11:32Z</time></trkpt><trkpt lat="39.426040675977575" lon="9.559495675936365"><ele>21.0</ele><time>2026-04-18T16:11:33Z</time></trkpt><trkpt lat="39.426263272931294" lon="9.55951399819463"><ele>21.0</ele><time>2026-04-18T16:11:34Z</time></trkpt><trkpt lat="39.42648340352752" lon="9.559528499577066"><ele>17.0</ele><time>2026-04-18T16:11:35Z</time></trkpt><trkpt lat="39.42670226280132" lon="9.559535620776614"><ele>13.0</ele><time>2026-04-18T16:11:36Z</time></trkpt><trkpt lat="39.42692003195028" lon="9.559534847202517"><ele>9.0</ele><time>2026-04-18T16:11:37Z</time></trkpt><trkpt lat="39.42713506089462" lon="9.559527261408276"><ele>8.666666666666666</ele><time>2026-04-18T16:11:38Z</time></trkpt><trkpt lat="39.427350004054595" lon="9.55951815215267"><ele>8.333333333333332</ele><time>2026-04-18T16:11:39Z</time></trkpt><trkpt lat="39.427562783131904" lon="9.559508371541128"><ele>8.0</ele><time>2026-04-18T16:11:40Z</time></trkpt><trkpt lat="39.42776815410399" lon="9.559494951295731"><ele>8.0</ele><time>2026-04-18T16:11:41Z</time></trkpt><trkpt lat="39.42796928252933" lon="9.55948022835814"><ele>8.0</ele><time>2026-04-18T16:11:42Z</time></trkpt><trkpt lat="39.428165703591475" lon="9.559467878366691"><ele>8.0</ele><time>2026-04-18T16:11:43Z</time></trkpt><trkpt lat="39.42835529021274" lon="9.55945089138845"><ele>8.0</ele><time>2026-04-18T16:11:44Z</time></trkpt><trkpt lat="39.42854057502788" lon="9.559430761708144"><ele>8.0</ele><time>2026-04-18T16:11:45Z</time></trkpt><trkpt lat="39.42872000278808" lon="9.559410954586179"><ele>8.0</ele><time>2026-04-18T16:11:46Z</time></trkpt><trkpt lat="39.4288851433171" lon="9.559391476981592"><ele>7.75</ele><time>2026-04-18T16:11:47Z</time></trkpt><trkpt lat="39.429040372065344" lon="9.559378268552928"><ele>7.5</ele><time>2026-04-18T16:11:48Z</time></trkpt><trkpt lat="39.429188876778625" lon="9.55938091680525"><ele>7.25</ele><time>2026-04-18T16:11:49Z</time></trkpt><trkpt lat="39.42932864610497" lon="9.559405900910093"><ele>7.0</ele><time>2026-04-18T16:11:50Z</time></trkpt><trkpt lat="39.42945497882016" lon="9.559470063059356"><ele>7.0</ele><time>2026-04-18T16:11:51Z</time></trkpt><trkpt lat="39.42955680277108" lon="9.55957953108115"><ele>7.0</ele><time>2026-04-18T16:11:52Z</time></trkpt><trkpt lat="39.429639507155564" lon="9.559718960334477"><ele>7.0</ele><time>2026-04-18T16:11:53Z</time></trkpt><trkpt lat="39.429685158514175" lon="9.559888119847097"><ele>7.0</ele><time>2026-04-18T16:11:54Z</time></trkpt><trkpt lat="39.42969015222655" lon="9.560071089584383"><ele>7.0</ele><time>2026-04-18T16:11:55Z</time></trkpt><trkpt lat="39.42965049664637" lon="9.56024538167578"><ele>7.0</ele><time>2026-04-18T16:11:56Z</time></trkpt><trkpt lat="39.42957770561983" lon="9.560394236367461"><ele>7.0</ele><time>2026-04-18T16:11:57Z</time></trkpt><trkpt lat="39.42947574839288" lon="9.560510258100017"><ele>7.0</ele><time>2026-04-18T16:11:58Z</time></trkpt><trkpt lat="39.42935002041012" lon="9.560577307813599"><ele>7.75</ele><time>2026-04-18T16:11:59Z</time></trkpt><trkpt lat="39.429216792593365" lon="9.560605316457009"><ele>8.5</ele><time>2026-04-18T16:12:00Z</time></trkpt><trkpt lat="39.42908697430487" lon="9.560597404282282"><ele>9.25</ele><time>2026-04-18T16:12:01Z</time></trkpt><trkpt lat="39.4289624187834" lon="9.560537505136486"><ele>10.0</ele><time>2026-04-18T16:12:02Z</time></trkpt><trkpt lat="39.42885949955365" lon="9.560420594746937"><ele>9.0</ele><time>2026-04-18T16:12:03Z</time></trkpt><trkpt lat="39.428786955554" lon="9.56026883901083"><ele>8.0</ele><time>2026-04-18T16:12:04Z</time></trkpt><trkpt lat="39.42873939428667" lon="9.560098036195912"><ele>7.0</ele><time>2026-04-18T16:12:05Z</time></trkpt><trkpt lat="39.428732822161415" lon="9.55991716735723"><ele>6.0</ele><time>2026-04-18T16:12:06Z</time></trkpt><trkpt lat="39.42876675499034" lon="9.559746514435478"><ele>6.25</ele><time>2026-04-18T16:12:07Z</time></trkpt><trkpt lat="39.42884152649474" lon="9.559596783127747"><ele>6.5</ele><time>2026-04-18T16:12:08Z</time></trkpt><trkpt lat="39.42893836624848" lon="9.55947332512993"><ele>6.75</ele><time>2026-04-18T16:12:09Z</time></trkpt><trkpt lat="39.4290447214994" lon="9.559351021422502"><ele>7.0</ele><time>2026-04-18T16:12:10Z</time></trkpt><trkpt lat="39.42914201760473" lon="9.559207109175647"><ele>7.0</ele><time>2026-04-18T16:12:11Z</time></trkpt><trkpt lat="39.429236031778366" lon="9.559057143249513"><ele>7.0</ele><time>2026-04-18T16:12:12Z</time></trkpt><trkpt lat="39.429333365439284" lon="9.558903677749653"><ele>7.0</ele><time>2026-04-18T16:12:13Z</time></trkpt><trkpt lat="39.42942546466872" lon="9.55873105404374"><ele>7.666666666666667</ele><time>2026-04-18T16:12:14Z</time></trkpt><trkpt lat="39.42952253615675" lon="9.558570042929272"><ele>8.333333333333334</ele><time>2026-04-18T16:12:15Z</time></trkpt><trkpt lat="39.42961821129225" lon="9.558405554363889"><ele>9.0</ele><time>2026-04-18T16:12:16Z</time></trkpt><trkpt lat="39.429713750695335" lon="9.558236407313853"><ele>9.0</ele><time>2026-04-18T16:12:17Z</time></trkpt><trkpt lat="39.42981883234735" lon="9.558068123695593"><ele>9.0</ele><time>2026-04-18T16:12:18Z</time></trkpt><trkpt lat="39.42992822492159" lon="9.557901943360996"><ele>9.0</ele><time>2026-04-18T16:12:19Z</time></trkpt><trkpt lat="39.430034965946994" lon="9.55773085331422"><ele>9.333333333333334</ele><time>2026-04-18T16:12:20Z</time></trkpt><trkpt lat="39.43014790404867" lon="9.557560455293213"><ele>9.666666666666668</ele><time>2026-04-18T16:12:21Z</time></trkpt><trkpt lat="39.43026518183549" lon="9.55738911509405"><ele>10.0</ele><time>2026-04-18T16:12:22Z</time></trkpt><trkpt lat="39.4303802689657" lon="9.557211533339236"><ele>9.666666666666668</ele><time>2026-04-18T16:12:23Z</time></trkpt><trkpt lat="39.430495845584666" lon="9.55702858518692"><ele>9.333333333333334</ele><time>2026-04-18T16:12:24Z</time></trkpt><trkpt lat="39.430615832008726" lon="9.556842498620338"><ele>9.0</ele><time>2026-04-18T16:12:25Z</time></trkpt><trkpt lat="39.43073930255126" lon="9.556655539827622"><ele>9.0</ele><time>2026-04-18T16:12:26Z</time></trkpt><trkpt lat="39.430870884068526" lon="9.556463351454571"><ele>9.0</ele><time>2026-04-18T16:12:27Z</time></trkpt><trkpt lat="39.43100505897428" lon="9.556265245612556"><ele>9.0</ele><time>2026-04-18T16:12:28Z</time></trkpt><trkpt lat="39.43113910590817" lon="9.556061506743154"><ele>9.666666666666666</ele><time>2026-04-18T16:12:29Z</time></trkpt><trkpt lat="39.43123206647068" lon="9.555886877841017"><ele>10.333333333333332</ele><time>2026-04-18T16:12:30Z</time></trkpt><trkpt lat="39.431354905013606" lon="9.55568830154244"><ele>11.0</ele><time>2026-04-18T16:12:31Z</time></trkpt><trkpt lat="39.431482745435076" lon="9.555498453692607"><ele>11.333333333333332</ele><time>2026-04-18T16:12:32Z</time></trkpt><trkpt lat="39.431610125719594" lon="9.555312559563502"><ele>11.666666666666666</ele><time>2026-04-18T16:12:33Z</time></trkpt><trkpt lat="39.43173485308778" lon="9.555119416892431"><ele>12.0</ele><time>2026-04-18T16:12:34Z</time></trkpt><trkpt lat="39.43185670505856" lon="9.554926347135511"><ele>12.0</ele><time>2026-04-18T16:12:35Z</time></trkpt><trkpt lat="39.43198585707186" lon="9.554739124031848"><ele>12.0</ele><time>2026-04-18T16:12:36Z</time></trkpt><trkpt lat="39.43212446834577" lon="9.554556699988659"><ele>12.0</ele><time>2026-04-18T16:12:37Z</time></trkpt><trkpt lat="39.432263078064295" lon="9.554381089382627"><ele>12.0</ele><time>2026-04-18T16:12:38Z</time></trkpt><trkpt lat="39.43241179739403" lon="9.554210179997707"><ele>12.0</ele><time>2026-04-18T16:12:39Z</time></trkpt><trkpt lat="39.4325618937478" lon="9.55403314420521"><ele>12.0</ele><time>2026-04-18T16:12:40Z</time></trkpt><trkpt lat="39.43270581141611" lon="9.553851400776846"><ele>12.0</ele><time>2026-04-18T16:12:41Z</time></trkpt><trkpt lat="39.43284993202312" lon="9.553670162293031"><ele>12.0</ele><time>2026-04-18T16:12:42Z</time></trkpt><trkpt lat="39.432992098868056" lon="9.55349716456267"><ele>12.0</ele><time>2026-04-18T16:12:43Z</time></trkpt><trkpt lat="39.43313031577961" lon="9.553329956900678"><ele>12.0</ele><time>2026-04-18T16:12:44Z</time></trkpt><trkpt lat="39.433274124612126" lon="9.553152783466196"><ele>12.0</ele><time>2026-04-18T16:12:45Z</time></trkpt><trkpt lat="39.433421165260704" lon="9.552972205458353"><ele>12.0</ele><time>2026-04-18T16:12:46Z</time></trkpt><trkpt lat="39.433569630544554" lon="9.552793442866447"><ele>12.333333333333332</ele><time>2026-04-18T16:12:47Z</time></trkpt><trkpt lat="39.43371560338288" lon="9.552612467773455"><ele>12.666666666666666</ele><time>2026-04-18T16:12:48Z</time></trkpt><trkpt lat="39.43386259734638" lon="9.55242203463462"><ele>13.0</ele><time>2026-04-18T16:12:49Z</time></trkpt><trkpt lat="39.43400842659737" lon="9.552235133259"><ele>13.0</ele><time>2026-04-18T16:12:50Z</time></trkpt><trkpt lat="39.43415679149209" lon="9.552056586300402"><ele>13.0</ele><time>2026-04-18T16:12:51Z</time></trkpt><trkpt lat="39.43429852411656" lon="9.551888123816555"><ele>13.0</ele><time>2026-04-18T16:12:52Z</time></trkpt><trkpt lat="39.43443499744495" lon="9.5517239133469"><ele>13.0</ele><time>2026-04-18T16:12:53Z</time></trkpt><trkpt lat="39.434573134430885" lon="9.551578609597636"><ele>13.0</ele><time>2026-04-18T16:12:54Z</time></trkpt><trkpt lat="39.43470610262809" lon="9.551440064357308"><ele>13.0</ele><time>2026-04-18T16:12:55Z</time></trkpt><trkpt lat="39.43482966347257" lon="9.551316397460143"><ele>12.666666666666666</ele><time>2026-04-18T16:12:56Z</time></trkpt><trkpt lat="39.43493441906085" lon="9.551178803770537"><ele>12.333333333333332</ele><time>2026-04-18T16:12:57Z</time></trkpt><trkpt lat="39.43504159226031" lon="9.551047526998918"><ele>12.0</ele><time>2026-04-18T16:12:58Z</time></trkpt><trkpt lat="39.435143258198416" lon="9.55089415977321"><ele>12.0</ele><time>2026-04-18T16:12:59Z</time></trkpt><trkpt lat="39.43522874820248" lon="9.550725818441107"><ele>12.0</ele><time>2026-04-18T16:13:00Z</time></trkpt><trkpt lat="39.435301626985826" lon="9.550538776449072"><ele>12.0</ele><time>2026-04-18T16:13:01Z</time></trkpt><trkpt lat="39.435358029473235" lon="9.550339361052872"><ele>11.666666666666666</ele><time>2026-04-18T16:13:02Z</time></trkpt><trkpt lat="39.43540642342852" lon="9.550135842160637"><ele>11.333333333333332</ele><time>2026-04-18T16:13:03Z</time></trkpt><trkpt lat="39.43545178098119" lon="9.549927856330887"><ele>11.0</ele><time>2026-04-18T16:13:04Z</time></trkpt><trkpt lat="39.4354993016359" lon="9.54972025008741"><ele>11.0</ele><time>2026-04-18T16:13:05Z</time></trkpt><trkpt lat="39.43554786388547" lon="9.54951231309631"><ele>11.0</ele><time>2026-04-18T16:13:06Z</time></trkpt><trkpt lat="39.43559577346986" lon="9.549310964508928"><ele>11.0</ele><time>2026-04-18T16:13:07Z</time></trkpt><trkpt lat="39.43564125985504" lon="9.549106565135864"><ele>11.0</ele><time>2026-04-18T16:13:08Z</time></trkpt><trkpt lat="39.43568485375667" lon="9.548903078177066"><ele>11.0</ele><time>2026-04-18T16:13:09Z</time></trkpt><trkpt lat="39.43572833853162" lon="9.548706190021832"><ele>11.0</ele><time>2026-04-18T16:13:10Z</time></trkpt><trkpt lat="39.43577528301652" lon="9.548503622683949"><ele>11.333333333333332</ele><time>2026-04-18T16:13:11Z</time></trkpt><trkpt lat="39.435818510475976" lon="9.548302518068379"><ele>11.666666666666666</ele><time>2026-04-18T16:13:12Z</time></trkpt><trkpt lat="39.43586282731739" lon="9.548102163221513"><ele>12.0</ele><time>2026-04-18T16:13:13Z</time></trkpt><trkpt lat="39.43590759505611" lon="9.547902171538718"><ele>12.0</ele><time>2026-04-18T16:13:14Z</time></trkpt><trkpt lat="39.43594805617016" lon="9.54770872892717"><ele>12.0</ele><time>2026-04-18T16:13:15Z</time></trkpt><trkpt lat="39.43599287315574" lon="9.547515347930528"><ele>12.0</ele><time>2026-04-18T16:13:16Z</time></trkpt><trkpt lat="39.43603375210826" lon="9.547324201698908"><ele>12.0</ele><time>2026-04-18T16:13:17Z</time></trkpt><trkpt lat="39.43607648093964" lon="9.54713171398242"><ele>12.0</ele><time>2026-04-18T16:13:18Z</time></trkpt><trkpt lat="39.43611761786845" lon="9.546938357604118"><ele>12.0</ele><time>2026-04-18T16:13:19Z</time></trkpt><trkpt lat="39.43615525885233" lon="9.546745627821924"><ele>11.666666666666666</ele><time>2026-04-18T16:13:20Z</time></trkpt><trkpt lat="39.43619880974251" lon="9.546551521573456"><ele>11.333333333333332</ele><time>2026-04-18T16:13:21Z</time></trkpt><trkpt lat="39.43624080808662" lon="9.546362739909355"><ele>11.0</ele><time>2026-04-18T16:13:22Z</time></trkpt><trkpt lat="39.43628861933478" lon="9.546178090816127"><ele>11.25</ele><time>2026-04-18T16:13:23Z</time></trkpt><trkpt lat="39.43632780956944" lon="9.545993315043948"><ele>11.5</ele><time>2026-04-18T16:13:24Z</time></trkpt><trkpt lat="39.43636773270043" lon="9.545815138791172"><ele>11.75</ele><time>2026-04-18T16:13:25Z</time></trkpt><trkpt lat="39.436406219678034" lon="9.545643586531941"><ele>12.0</ele><time>2026-04-18T16:13:26Z</time></trkpt><trkpt lat="39.436443760178356" lon="9.545480175106434"><ele>12.2</ele><time>2026-04-18T16:13:27Z</time></trkpt><trkpt lat="39.436479891574564" lon="9.545326726520589"><ele>12.399999999999999</ele><time>2026-04-18T16:13:28Z</time></trkpt><trkpt lat="39.43651058543483" lon="9.545182950052501"><ele>12.600000000000001</ele><time>2026-04-18T16:13:29Z</time></trkpt><trkpt lat="39.43653403303868" lon="9.545047673574969"><ele>12.8</ele><time>2026-04-18T16:13:30Z</time></trkpt><trkpt lat="39.43654897377931" lon="9.544916176630277"><ele>13.0</ele><time>2026-04-18T16:13:31Z</time></trkpt><trkpt lat="39.436561572704555" lon="9.544792058901805"><ele>12.999999999999998</ele><time>2026-04-18T16:13:32Z</time></trkpt><trkpt lat="39.43657422165481" lon="9.544678151438076"><ele>13.0</ele><time>2026-04-18T16:13:33Z</time></trkpt><trkpt lat="39.43658398338557" lon="9.544592048004283"><ele>13.0</ele><time>2026-04-18T16:13:34Z</time></trkpt><trkpt lat="39.43662101222336" lon="9.54448424321257"><ele>13.0</ele><time>2026-04-18T16:13:36Z</time></trkpt><trkpt lat="39.43661114203268" lon="9.544362493337834"><ele>12.999999999999998</ele><time>2026-04-18T16:14:15Z</time></trkpt><trkpt lat="39.43660378891397" lon="9.544278497020299"><ele>13.0</ele><time>2026-04-18T16:14:16Z</time></trkpt><trkpt lat="39.4366090988758" lon="9.544182727827474"><ele>12.999999999999998</ele><time>2026-04-18T16:14:17Z</time></trkpt><trkpt lat="39.43661633530822" lon="9.544068525244946"><ele>13.0</ele><time>2026-04-18T16:14:18Z</time></trkpt><trkpt lat="39.43663462516164" lon="9.543975736973325"><ele>13.0</ele><time>2026-04-18T16:14:19Z</time></trkpt><trkpt lat="39.43664604153516" lon="9.543867384488594"><ele>13.0</ele><time>2026-04-18T16:14:21Z</time></trkpt><trkpt lat="39.43666098664437" lon="9.543786663390597"><ele>12.999999999999998</ele><time>2026-04-18T16:14:23Z</time></trkpt><trkpt lat="39.436556872704394" lon="9.543804323971345"><ele>13.0</ele><time>2026-04-18T16:14:25Z</time></trkpt><trkpt lat="39.43649170474308" lon="9.543788475781732"><ele>13.0</ele><time>2026-04-18T16:14:26Z</time></trkpt><trkpt lat="39.436389908399676" lon="9.543775706988416"><ele>13.0</ele><time>2026-04-18T16:14:28Z</time></trkpt><trkpt lat="39.43632044617243" lon="9.543749866037484"><ele>13.0</ele><time>2026-04-18T16:14:31Z</time></trkpt></trkseg></trk></gpx>